<?xml version="1.0" encoding="UTF-8"?>
<gpx version="1.1" creator=" " xmlns="http://www.topografix.com/GPX/1/1" xmlns:xsi="http://www.w3.org/2001/XMLSchema-instance" xsi:schemaLocation="http://www.topografix.com/GPX/1/1 http://www.topografix.com/GPX/1/1/gpx.xsd">
<metadata>
<name>Sindringen - Buchen</name>
<desc></desc>
<link href="">
<text>  </text>
</link>
<time>2024-05-08T08:58:58Z</time>
</metadata>
<trk>
<trkseg>
<trkpt lat="49.280128413811326" lon="9.47675130330026">
<ele>187.6</ele>
</trkpt>
<trkpt lat="49.280128413811326" lon="9.47675130330026">
<ele>187.6</ele>
<time>2024-05-08T08:58:58Z</time>
</trkpt>
<trkpt lat="49.280128413811326" lon="9.47675029747188">
<ele>187.4</ele>
<time>2024-05-08T08:59:06Z</time>
</trkpt>
<trkpt lat="49.280128413811326" lon="9.476748453453183">
<ele>187.4</ele>
<time>2024-05-08T08:59:23Z</time>
</trkpt>
<trkpt lat="49.280128413811326" lon="9.476746525615454">
<ele>187.4</ele>
<time>2024-05-08T08:59:32Z</time>
</trkpt>
<trkpt lat="49.280128413811326" lon="9.476743675768375">
<ele>187.4</ele>
<time>2024-05-08T08:59:33Z</time>
</trkpt>
<trkpt lat="49.280128413811326" lon="9.476741747930646">
<ele>187.4</ele>
<time>2024-05-08T08:59:35Z</time>
</trkpt>
<trkpt lat="49.280128413811326" lon="9.476739820092916">
<ele>187.4</ele>
<time>2024-05-08T08:59:36Z</time>
</trkpt>
<trkpt lat="49.280132269486785" lon="9.476728420704603">
<ele>187.4</ele>
<time>2024-05-08T08:59:38Z</time>
</trkpt>
<trkpt lat="49.28013604134321" lon="9.476716937497258">
<ele>187.4</ele>
<time>2024-05-08T08:59:39Z</time>
</trkpt>
<trkpt lat="49.28013989701867" lon="9.476704532280564">
<ele>187.6</ele>
<time>2024-05-08T08:59:40Z</time>
</trkpt>
<trkpt lat="49.28013989701867" lon="9.47669791057706">
<ele>187.6</ele>
<time>2024-05-08T08:59:41Z</time>
</trkpt>
<trkpt lat="49.28014752455056" lon="9.47669506072998">
<ele>187.6</ele>
<time>2024-05-08T08:59:42Z</time>
</trkpt>
<trkpt lat="49.28014752455056" lon="9.476693132892253">
<ele>187.6</ele>
<time>2024-05-08T08:59:43Z</time>
</trkpt>
<trkpt lat="49.28014752455056" lon="9.47669506072998">
<ele>187.6</ele>
<time>2024-05-08T08:59:44Z</time>
</trkpt>
<trkpt lat="49.28014752455056" lon="9.476696904748678">
<ele>187.6</ele>
<time>2024-05-08T08:59:46Z</time>
</trkpt>
<trkpt lat="49.280151296406984" lon="9.476696904748678">
<ele>187.6</ele>
<time>2024-05-08T08:59:47Z</time>
</trkpt>
<trkpt lat="49.280151296406984" lon="9.47669791057706">
<ele>187.6</ele>
<time>2024-05-08T08:59:48Z</time>
</trkpt>
<trkpt lat="49.280151296406984" lon="9.476696904748678">
<ele>187.6</ele>
<time>2024-05-08T08:59:49Z</time>
</trkpt>
<trkpt lat="49.280151296406984" lon="9.47669506072998">
<ele>187.6</ele>
<time>2024-05-08T08:59:50Z</time>
</trkpt>
<trkpt lat="49.280151296406984" lon="9.476696904748678">
<ele>187.6</ele>
<time>2024-05-08T08:59:51Z</time>
</trkpt>
<trkpt lat="49.28015515208244" lon="9.47669791057706">
<ele>187.6</ele>
<time>2024-05-08T09:00:03Z</time>
</trkpt>
<trkpt lat="49.280151296406984" lon="9.47669791057706">
<ele>187.6</ele>
<time>2024-05-08T09:00:05Z</time>
</trkpt>
<trkpt lat="49.280151296406984" lon="9.476699754595757">
<ele>187.6</ele>
<time>2024-05-08T09:00:07Z</time>
</trkpt>
<trkpt lat="49.280151296406984" lon="9.476701682433486">
<ele>187.6</ele>
<time>2024-05-08T09:00:14Z</time>
</trkpt>
<trkpt lat="49.28015515208244" lon="9.476703610271215">
<ele>187.6</ele>
<time>2024-05-08T09:00:23Z</time>
</trkpt>
<trkpt lat="49.28015515208244" lon="9.476701682433486">
<ele>187.6</ele>
<time>2024-05-08T09:00:27Z</time>
</trkpt>
<trkpt lat="49.28015515208244" lon="9.476699754595757">
<ele>187.6</ele>
<time>2024-05-08T09:00:34Z</time>
</trkpt>
<trkpt lat="49.28015515208244" lon="9.476701682433486">
<ele>187.6</ele>
<time>2024-05-08T09:00:44Z</time>
</trkpt>
<trkpt lat="49.28015515208244" lon="9.476699754595757">
<ele>187.6</ele>
<time>2024-05-08T09:00:45Z</time>
</trkpt>
<trkpt lat="49.28015515208244" lon="9.47669791057706">
<ele>187.6</ele>
<time>2024-05-08T09:00:52Z</time>
</trkpt>
<trkpt lat="49.28015515208244" lon="9.476699754595757">
<ele>187.6</ele>
<time>2024-05-08T09:00:55Z</time>
</trkpt>
<trkpt lat="49.28015515208244" lon="9.476701682433486">
<ele>187.6</ele>
<time>2024-05-08T09:01:00Z</time>
</trkpt>
<trkpt lat="49.28015892393887" lon="9.476701682433486">
<ele>187.6</ele>
<time>2024-05-08T09:01:04Z</time>
</trkpt>
<trkpt lat="49.28015892393887" lon="9.476703610271215">
<ele>187.6</ele>
<time>2024-05-08T09:01:11Z</time>
</trkpt>
<trkpt lat="49.28015892393887" lon="9.476701682433486">
<ele>187.6</ele>
<time>2024-05-08T09:01:23Z</time>
</trkpt>
<trkpt lat="49.28015892393887" lon="9.476699754595757">
<ele>187.6</ele>
<time>2024-05-08T09:01:25Z</time>
</trkpt>
<trkpt lat="49.28015892393887" lon="9.47669791057706">
<ele>187.6</ele>
<time>2024-05-08T09:01:28Z</time>
</trkpt>
<trkpt lat="49.28015892393887" lon="9.476699754595757">
<ele>187.6</ele>
<time>2024-05-08T09:01:44Z</time>
</trkpt>
<trkpt lat="49.28015892393887" lon="9.476701682433486">
<ele>187.6</ele>
<time>2024-05-08T09:01:50Z</time>
</trkpt>
<trkpt lat="49.28015892393887" lon="9.476703610271215">
<ele>187.6</ele>
<time>2024-05-08T09:01:52Z</time>
</trkpt>
<trkpt lat="49.28015892393887" lon="9.476701682433486">
<ele>187.6</ele>
<time>2024-05-08T09:01:59Z</time>
</trkpt>
<trkpt lat="49.28016277961433" lon="9.47669791057706">
<ele>187.6</ele>
<time>2024-05-08T09:02:05Z</time>
</trkpt>
<trkpt lat="49.280170407146215" lon="9.47669791057706">
<ele>187.6</ele>
<time>2024-05-08T09:02:06Z</time>
</trkpt>
<trkpt lat="49.2801780346781" lon="9.47669791057706">
<ele>187.6</ele>
<time>2024-05-08T09:02:07Z</time>
</trkpt>
<trkpt lat="49.28018180653453" lon="9.47669506072998">
<ele>187.6</ele>
<time>2024-05-08T09:02:08Z</time>
</trkpt>
<trkpt lat="49.280193289741874" lon="9.476690283045173">
<ele>187.6</ele>
<time>2024-05-08T09:02:09Z</time>
</trkpt>
<trkpt lat="49.2801970615983" lon="9.476684499531984">
<ele>187.6</ele>
<time>2024-05-08T09:02:10Z</time>
</trkpt>
<trkpt lat="49.28020477294922" lon="9.476683577522635">
<ele>187.6</ele>
<time>2024-05-08T09:02:11Z</time>
</trkpt>
<trkpt lat="49.28020477294922" lon="9.476679721847177">
<ele>187.6</ele>
<time>2024-05-08T09:02:12Z</time>
</trkpt>
<trkpt lat="49.28020477294922" lon="9.47667787782848">
<ele>187.6</ele>
<time>2024-05-08T09:02:13Z</time>
</trkpt>
<trkpt lat="49.280208544805646" lon="9.476676872000098">
<ele>187.6</ele>
<time>2024-05-08T09:02:14Z</time>
</trkpt>
<trkpt lat="49.280208544805646" lon="9.4766750279814">
<ele>187.6</ele>
<time>2024-05-08T09:02:16Z</time>
</trkpt>
<trkpt lat="49.280212400481105" lon="9.4766750279814">
<ele>187.6</ele>
<time>2024-05-08T09:02:18Z</time>
</trkpt>
<trkpt lat="49.28021617233753" lon="9.476673100143673">
<ele>187.6</ele>
<time>2024-05-08T09:02:20Z</time>
</trkpt>
<trkpt lat="49.28021617233753" lon="9.476671172305942">
<ele>187.6</ele>
<time>2024-05-08T09:02:27Z</time>
</trkpt>
<trkpt lat="49.28022002801299" lon="9.476671172305942">
<ele>187.6</ele>
<time>2024-05-08T09:02:30Z</time>
</trkpt>
<trkpt lat="49.28022002801299" lon="9.476670250296593">
<ele>187.6</ele>
<time>2024-05-08T09:02:31Z</time>
</trkpt>
<trkpt lat="49.28022002801299" lon="9.476671172305942">
<ele>187.6</ele>
<time>2024-05-08T09:02:33Z</time>
</trkpt>
<trkpt lat="49.28022765554488" lon="9.476671172305942">
<ele>187.6</ele>
<time>2024-05-08T09:02:34Z</time>
</trkpt>
<trkpt lat="49.28023905493319" lon="9.476671172305942">
<ele>187.6</ele>
<time>2024-05-08T09:02:35Z</time>
</trkpt>
<trkpt lat="49.280250538140535" lon="9.476670250296593">
<ele>187.6</ele>
<time>2024-05-08T09:02:36Z</time>
</trkpt>
<trkpt lat="49.280269565060735" lon="9.476670250296593">
<ele>187.6</ele>
<time>2024-05-08T09:02:37Z</time>
</trkpt>
<trkpt lat="49.28029630333185" lon="9.476670250296593">
<ele>187.6</ele>
<time>2024-05-08T09:02:39Z</time>
</trkpt>
<trkpt lat="49.28032681345939" lon="9.476671172305942">
<ele>187.6</ele>
<time>2024-05-08T09:02:40Z</time>
</trkpt>
<trkpt lat="49.28038406185806" lon="9.476671172305942">
<ele>187.6</ele>
<time>2024-05-08T09:02:42Z</time>
</trkpt>
<trkpt lat="49.2804335989058" lon="9.476668322458863">
<ele>187.6</ele>
<time>2024-05-08T09:02:44Z</time>
</trkpt>
<trkpt lat="49.28048321977258" lon="9.47665499523282">
<ele>187.6</ele>
<time>2024-05-08T09:02:45Z</time>
</trkpt>
<trkpt lat="49.28051372990012" lon="9.476646361872554">
<ele>187.6</ele>
<time>2024-05-08T09:02:46Z</time>
</trkpt>
<trkpt lat="49.280544240027666" lon="9.476628256961703">
<ele>187.6</ele>
<time>2024-05-08T09:02:48Z</time>
</trkpt>
<trkpt lat="49.28060148842633" lon="9.476586263626814">
<ele>187.6</ele>
<time>2024-05-08T09:02:49Z</time>
</trkpt>
<trkpt lat="49.28062814287841" lon="9.476568158715963">
<ele>187.6</ele>
<time>2024-05-08T09:02:50Z</time>
</trkpt>
<trkpt lat="49.28065102547407" lon="9.476552903652191">
<ele>187.6</ele>
<time>2024-05-08T09:02:51Z</time>
</trkpt>
<trkpt lat="49.28067390806973" lon="9.476539576426148">
<ele>187.6</ele>
<time>2024-05-08T09:02:52Z</time>
</trkpt>
<trkpt lat="49.28069301880896" lon="9.476526249200106">
<ele>187.6</ele>
<time>2024-05-08T09:02:53Z</time>
</trkpt>
<trkpt lat="49.28070827387273" lon="9.47651476599276">
<ele>187.6</ele>
<time>2024-05-08T09:02:54Z</time>
</trkpt>
<trkpt lat="49.28072738461197" lon="9.476501438766718">
<ele>187.6</ele>
<time>2024-05-08T09:02:55Z</time>
</trkpt>
<trkpt lat="49.28074641153216" lon="9.476486183702946">
<ele>187.6</ele>
<time>2024-05-08T09:02:56Z</time>
</trkpt>
<trkpt lat="49.28076929412782" lon="9.476468078792095">
<ele>187.6</ele>
<time>2024-05-08T09:02:57Z</time>
</trkpt>
<trkpt lat="49.28079217672348" lon="9.476445196196437">
<ele>187.6</ele>
<time>2024-05-08T09:02:58Z</time>
</trkpt>
<trkpt lat="49.2808189149946" lon="9.47641845792532">
<ele>187.6</ele>
<time>2024-05-08T09:02:59Z</time>
</trkpt>
<trkpt lat="49.28084556944668" lon="9.476391719654202">
<ele>187.6</ele>
<time>2024-05-08T09:03:00Z</time>
</trkpt>
<trkpt lat="49.280879935249686" lon="9.476363137364388">
<ele>187.6</ele>
<time>2024-05-08T09:03:01Z</time>
</trkpt>
<trkpt lat="49.28091044537723" lon="9.476334555074573">
<ele>187.6</ele>
<time>2024-05-08T09:03:02Z</time>
</trkpt>
<trkpt lat="49.280944811180234" lon="9.476306894794106">
<ele>187.6</ele>
<time>2024-05-08T09:03:03Z</time>
</trkpt>
<trkpt lat="49.280979093164206" lon="9.476283006370068">
<ele>187.6</ele>
<time>2024-05-08T09:03:04Z</time>
</trkpt>
<trkpt lat="49.28101345896721" lon="9.47626205161214">
<ele>187.6</ele>
<time>2024-05-08T09:03:05Z</time>
</trkpt>
<trkpt lat="49.28104774095118" lon="9.476238247007132">
<ele>187.6</ele>
<time>2024-05-08T09:03:06Z</time>
</trkpt>
<trkpt lat="49.28108596242964" lon="9.476213436573744">
<ele>187.6</ele>
<time>2024-05-08T09:03:07Z</time>
</trkpt>
<trkpt lat="49.281120244413614" lon="9.476188626140356">
<ele>187.4</ele>
<time>2024-05-08T09:03:08Z</time>
</trkpt>
<trkpt lat="49.281158382073045" lon="9.47616289369762">
<ele>187.4</ele>
<time>2024-05-08T09:03:09Z</time>
</trkpt>
<trkpt lat="49.281196519732475" lon="9.476138083264232">
<ele>187.4</ele>
<time>2024-05-08T09:03:10Z</time>
</trkpt>
<trkpt lat="49.28123474121094" lon="9.476111344993114">
<ele>187.6</ele>
<time>2024-05-08T09:03:11Z</time>
</trkpt>
<trkpt lat="49.28126902319491" lon="9.476083684712648">
<ele>187.6</ele>
<time>2024-05-08T09:03:12Z</time>
</trkpt>
<trkpt lat="49.28130338899791" lon="9.476055102422832">
<ele>187.6</ele>
<time>2024-05-08T09:03:13Z</time>
</trkpt>
<trkpt lat="49.28134152665734" lon="9.476030291989446">
<ele>187.8</ele>
<time>2024-05-08T09:03:14Z</time>
</trkpt>
<trkpt lat="49.28137203678489" lon="9.47600648738444">
<ele>187.8</ele>
<time>2024-05-08T09:03:15Z</time>
</trkpt>
<trkpt lat="49.28140640258789" lon="9.47598167695105">
<ele>188</ele>
<time>2024-05-08T09:03:16Z</time>
</trkpt>
<trkpt lat="49.281436912715435" lon="9.475957788527012">
<ele>188</ele>
<time>2024-05-08T09:03:17Z</time>
</trkpt>
<trkpt lat="49.28147119469941" lon="9.475930212065578">
<ele>188</ele>
<time>2024-05-08T09:03:18Z</time>
</trkpt>
<trkpt lat="49.28150170482695" lon="9.47590154595673">
<ele>188</ele>
<time>2024-05-08T09:03:19Z</time>
</trkpt>
<trkpt lat="49.28152844309807" lon="9.475868185982108">
<ele>188.2</ele>
<time>2024-05-08T09:03:20Z</time>
</trkpt>
<trkpt lat="49.28155895322561" lon="9.475832898169756">
<ele>188.2</ele>
<time>2024-05-08T09:03:21Z</time>
</trkpt>
<trkpt lat="49.28158569149673" lon="9.475798532366753">
<ele>188.2</ele>
<time>2024-05-08T09:03:23Z</time>
</trkpt>
<trkpt lat="49.28160857409239" lon="9.475756622850897">
<ele>188.2</ele>
<time>2024-05-08T09:03:24Z</time>
</trkpt>
<trkpt lat="49.281654339283705" lon="9.47566794231534">
<ele>188.2</ele>
<time>2024-05-08T09:03:25Z</time>
</trkpt>
<trkpt lat="49.28168484941125" lon="9.475614465773106">
<ele>188.2</ele>
<time>2024-05-08T09:03:26Z</time>
</trkpt>
<trkpt lat="49.281715359538794" lon="9.475555373355746">
<ele>188.2</ele>
<time>2024-05-08T09:03:27Z</time>
</trkpt>
<trkpt lat="49.281753497198224" lon="9.47549150325358">
<ele>188.2</ele>
<time>2024-05-08T09:03:28Z</time>
</trkpt>
<trkpt lat="49.281791634857655" lon="9.475433332845569">
<ele>188.2</ele>
<time>2024-05-08T09:03:29Z</time>
</trkpt>
<trkpt lat="49.28183740004897" lon="9.475373234599829">
<ele>188.2</ele>
<time>2024-05-08T09:03:30Z</time>
</trkpt>
<trkpt lat="49.28188316524029" lon="9.475316992029548">
<ele>188.2</ele>
<time>2024-05-08T09:03:31Z</time>
</trkpt>
<trkpt lat="49.28192515857518" lon="9.475257815793157">
<ele>188</ele>
<time>2024-05-08T09:03:32Z</time>
</trkpt>
<trkpt lat="49.281970923766494" lon="9.475201573222876">
<ele>187.8</ele>
<time>2024-05-08T09:03:33Z</time>
</trkpt>
<trkpt lat="49.28201291710138" lon="9.475143402814863">
<ele>187.8</ele>
<time>2024-05-08T09:03:34Z</time>
</trkpt>
<trkpt lat="49.28205482661724" lon="9.475086154416203">
<ele>187.6</ele>
<time>2024-05-08T09:03:35Z</time>
</trkpt>
<trkpt lat="49.2820930480957" lon="9.475027984008191">
<ele>187.6</ele>
<time>2024-05-08T09:03:36Z</time>
</trkpt>
<trkpt lat="49.282127330079675" lon="9.47497366927564">
<ele>187.4</ele>
<time>2024-05-08T09:03:37Z</time>
</trkpt>
<trkpt lat="49.28216169588268" lon="9.474920192733409">
<ele>187.4</ele>
<time>2024-05-08T09:03:38Z</time>
</trkpt>
<trkpt lat="49.28219597786665" lon="9.474864955991508">
<ele>187.2</ele>
<time>2024-05-08T09:03:39Z</time>
</trkpt>
<trkpt lat="49.28223034366965" lon="9.474811479449272">
<ele>187.2</ele>
<time>2024-05-08T09:03:40Z</time>
</trkpt>
<trkpt lat="49.2822608537972" lon="9.474755236878991">
<ele>187.2</ele>
<time>2024-05-08T09:03:41Z</time>
</trkpt>
<trkpt lat="49.28229136392474" lon="9.47469706647098">
<ele>187.2</ele>
<time>2024-05-08T09:03:42Z</time>
</trkpt>
<trkpt lat="49.28231810219586" lon="9.474633196368814">
<ele>187</ele>
<time>2024-05-08T09:03:43Z</time>
</trkpt>
<trkpt lat="49.282344756647944" lon="9.474571170285344">
<ele>187</ele>
<time>2024-05-08T09:03:44Z</time>
</trkpt>
<trkpt lat="49.2823676392436" lon="9.474510150030255">
<ele>187</ele>
<time>2024-05-08T09:03:45Z</time>
</trkpt>
<trkpt lat="49.28239437751472" lon="9.474450051784515">
<ele>187</ele>
<time>2024-05-08T09:03:46Z</time>
</trkpt>
<trkpt lat="49.28241726011038" lon="9.474389953538775">
<ele>187</ele>
<time>2024-05-08T09:03:47Z</time>
</trkpt>
<trkpt lat="49.282443998381495" lon="9.474333710968494">
<ele>187.2</ele>
<time>2024-05-08T09:03:48Z</time>
</trkpt>
<trkpt lat="49.282466880977154" lon="9.474278390407562">
<ele>187.2</ele>
<time>2024-05-08T09:03:49Z</time>
</trkpt>
<trkpt lat="49.28248976357281" lon="9.474221225827932">
<ele>187.4</ele>
<time>2024-05-08T09:03:50Z</time>
</trkpt>
<trkpt lat="49.2825164180249" lon="9.47416489943862">
<ele>187.4</ele>
<time>2024-05-08T09:03:51Z</time>
</trkpt>
<trkpt lat="49.28253552876413" lon="9.47410865686834">
<ele>187.6</ele>
<time>2024-05-08T09:03:52Z</time>
</trkpt>
<trkpt lat="49.28255841135979" lon="9.474055264145136">
<ele>187.6</ele>
<time>2024-05-08T09:03:53Z</time>
</trkpt>
<trkpt lat="49.282577438279986" lon="9.474001871421931">
<ele>187.8</ele>
<time>2024-05-08T09:03:54Z</time>
</trkpt>
<trkpt lat="49.28259654901922" lon="9.473950322717428">
<ele>187.8</ele>
<time>2024-05-08T09:03:55Z</time>
</trkpt>
<trkpt lat="49.28261565975845" lon="9.473896929994226">
<ele>187.8</ele>
<time>2024-05-08T09:03:56Z</time>
</trkpt>
<trkpt lat="49.28263468667865" lon="9.4738463871181">
<ele>188</ele>
<time>2024-05-08T09:03:57Z</time>
</trkpt>
<trkpt lat="49.282657569274306" lon="9.473798694089057">
<ele>188.2</ele>
<time>2024-05-08T09:03:58Z</time>
</trkpt>
<trkpt lat="49.28267668001354" lon="9.47375007905066">
<ele>188.2</ele>
<time>2024-05-08T09:03:59Z</time>
</trkpt>
<trkpt lat="49.2826995626092" lon="9.473703308030965">
<ele>188.4</ele>
<time>2024-05-08T09:04:00Z</time>
</trkpt>
<trkpt lat="49.28273007273674" lon="9.47361370548606">
<ele>188.6</ele>
<time>2024-05-08T09:04:02Z</time>
</trkpt>
<trkpt lat="49.28274147212505" lon="9.473567940294744">
<ele>188.8</ele>
<time>2024-05-08T09:04:03Z</time>
</trkpt>
<trkpt lat="49.282756727188826" lon="9.473518319427969">
<ele>188.8</ele>
<time>2024-05-08T09:04:04Z</time>
</trkpt>
<trkpt lat="49.28276821039617" lon="9.473468698561192">
<ele>189</ele>
<time>2024-05-08T09:04:05Z</time>
</trkpt>
<trkpt lat="49.28278346545994" lon="9.47341631166637">
<ele>189</ele>
<time>2024-05-08T09:04:06Z</time>
</trkpt>
<trkpt lat="49.28279494866729" lon="9.473362918943169">
<ele>189.2</ele>
<time>2024-05-08T09:04:07Z</time>
</trkpt>
<trkpt lat="49.28281397558749" lon="9.473311370238662">
<ele>189.4</ele>
<time>2024-05-08T09:04:08Z</time>
</trkpt>
<trkpt lat="49.28282923065126" lon="9.47325797751546">
<ele>189.4</ele>
<time>2024-05-08T09:04:09Z</time>
</trkpt>
<trkpt lat="49.28284834139049" lon="9.473203578963876">
<ele>189.6</ele>
<time>2024-05-08T09:04:10Z</time>
</trkpt>
<trkpt lat="49.28286736831069" lon="9.473150186240671">
<ele>189.8</ele>
<time>2024-05-08T09:04:11Z</time>
</trkpt>
<trkpt lat="49.28288647904992" lon="9.47309486567974">
<ele>189.8</ele>
<time>2024-05-08T09:04:12Z</time>
</trkpt>
<trkpt lat="49.28290173411369" lon="9.47303862310946">
<ele>190</ele>
<time>2024-05-08T09:04:13Z</time>
</trkpt>
<trkpt lat="49.28292461670935" lon="9.472981374710798">
<ele>190.2</ele>
<time>2024-05-08T09:04:14Z</time>
</trkpt>
<trkpt lat="49.28294364362955" lon="9.47292136028409">
<ele>190.2</ele>
<time>2024-05-08T09:04:15Z</time>
</trkpt>
<trkpt lat="49.28296661004424" lon="9.47286025620997">
<ele>190.2</ele>
<time>2024-05-08T09:04:16Z</time>
</trkpt>
<trkpt lat="49.282993264496326" lon="9.472798313945532">
<ele>190.2</ele>
<time>2024-05-08T09:04:17Z</time>
</trkpt>
<trkpt lat="49.283016147091985" lon="9.472735365852714">
<ele>190</ele>
<time>2024-05-08T09:04:18Z</time>
</trkpt>
<trkpt lat="49.2830428853631" lon="9.472669567912815">
<ele>190</ele>
<time>2024-05-08T09:04:19Z</time>
</trkpt>
<trkpt lat="49.28306576795876" lon="9.47260469198227">
<ele>190</ele>
<time>2024-05-08T09:04:20Z</time>
</trkpt>
<trkpt lat="49.283096278086305" lon="9.472537972033024">
<ele>189.8</ele>
<time>2024-05-08T09:04:21Z</time>
</trkpt>
<trkpt lat="49.28312301635742" lon="9.472470246255398">
<ele>189.8</ele>
<time>2024-05-08T09:04:22Z</time>
</trkpt>
<trkpt lat="49.283153526484966" lon="9.472403526306152">
<ele>189.6</ele>
<time>2024-05-08T09:04:23Z</time>
</trkpt>
<trkpt lat="49.28318403661251" lon="9.472331944853067">
<ele>189.6</ele>
<time>2024-05-08T09:04:24Z</time>
</trkpt>
<trkpt lat="49.283214546740055" lon="9.472258519381285">
<ele>189.6</ele>
<time>2024-05-08T09:04:25Z</time>
</trkpt>
<trkpt lat="49.2832450568676" lon="9.472183166071773">
<ele>189.4</ele>
<time>2024-05-08T09:04:26Z</time>
</trkpt>
<trkpt lat="49.283271711319685" lon="9.47210974059999">
<ele>189.4</ele>
<time>2024-05-08T09:04:27Z</time>
</trkpt>
<trkpt lat="49.28330607712269" lon="9.472035393118858">
<ele>189.4</ele>
<time>2024-05-08T09:04:28Z</time>
</trkpt>
<trkpt lat="49.28333658725023" lon="9.471961967647076">
<ele>189.2</ele>
<time>2024-05-08T09:04:29Z</time>
</trkpt>
<trkpt lat="49.28336709737778" lon="9.47189038619399">
<ele>189</ele>
<time>2024-05-08T09:04:30Z</time>
</trkpt>
<trkpt lat="49.28340146318078" lon="9.471817966550589">
<ele>189</ele>
<time>2024-05-08T09:04:31Z</time>
</trkpt>
<trkpt lat="49.283431973308325" lon="9.471748312935231">
<ele>188.8</ele>
<time>2024-05-08T09:04:32Z</time>
</trkpt>
<trkpt lat="49.28346633911133" lon="9.471678659319878">
<ele>188.8</ele>
<time>2024-05-08T09:04:33Z</time>
</trkpt>
<trkpt lat="49.2835006210953" lon="9.471608083695171">
<ele>188.6</ele>
<time>2024-05-08T09:04:34Z</time>
</trkpt>
<trkpt lat="49.2835349868983" lon="9.47154044173658">
<ele>188.6</ele>
<time>2024-05-08T09:04:35Z</time>
</trkpt>
<trkpt lat="49.283569268882275" lon="9.471471710130572">
<ele>188.6</ele>
<time>2024-05-08T09:04:36Z</time>
</trkpt>
<trkpt lat="49.28360363468528" lon="9.471403062343596">
<ele>188.4</ele>
<time>2024-05-08T09:04:37Z</time>
</trkpt>
<trkpt lat="49.28363800048828" lon="9.471335336565971">
<ele>188.4</ele>
<time>2024-05-08T09:04:38Z</time>
</trkpt>
<trkpt lat="49.28367228247225" lon="9.471268616616726">
<ele>188.4</ele>
<time>2024-05-08T09:04:39Z</time>
</trkpt>
<trkpt lat="49.283706648275256" lon="9.47120281867683">
<ele>188.4</ele>
<time>2024-05-08T09:04:40Z</time>
</trkpt>
<trkpt lat="49.2837371584028" lon="9.471137942746282">
<ele>188.4</ele>
<time>2024-05-08T09:04:41Z</time>
</trkpt>
<trkpt lat="49.28377144038677" lon="9.471076922491193">
<ele>188.2</ele>
<time>2024-05-08T09:04:42Z</time>
</trkpt>
<trkpt lat="49.28380195051432" lon="9.471014896407723">
<ele>188.2</ele>
<time>2024-05-08T09:04:43Z</time>
</trkpt>
<trkpt lat="49.28383254446089" lon="9.470952032133937">
<ele>188.2</ele>
<time>2024-05-08T09:04:44Z</time>
</trkpt>
<trkpt lat="49.283866826444864" lon="9.470890006050467">
<ele>188.2</ele>
<time>2024-05-08T09:04:45Z</time>
</trkpt>
<trkpt lat="49.28389356471598" lon="9.470829907804728">
<ele>188.2</ele>
<time>2024-05-08T09:04:46Z</time>
</trkpt>
<trkpt lat="49.283924074843526" lon="9.47076796554029">
<ele>188.2</ele>
<time>2024-05-08T09:04:47Z</time>
</trkpt>
<trkpt lat="49.28395458497107" lon="9.470713566988708">
<ele>188.2</ele>
<time>2024-05-08T09:04:48Z</time>
</trkpt>
<trkpt lat="49.283985095098615" lon="9.470653468742968">
<ele>188.2</ele>
<time>2024-05-08T09:04:49Z</time>
</trkpt>
<trkpt lat="49.28401183336973" lon="9.470595298334956">
<ele>188.2</ele>
<time>2024-05-08T09:04:50Z</time>
</trkpt>
<trkpt lat="49.28403848782182" lon="9.470536205917597">
<ele>188.2</ele>
<time>2024-05-08T09:04:51Z</time>
</trkpt>
<trkpt lat="49.28406899794936" lon="9.470477029681206">
<ele>188.2</ele>
<time>2024-05-08T09:04:52Z</time>
</trkpt>
<trkpt lat="49.28409188054502" lon="9.470415087416768">
<ele>188.2</ele>
<time>2024-05-08T09:04:53Z</time>
</trkpt>
<trkpt lat="49.28411861881614" lon="9.47035021148622">
<ele>188.2</ele>
<time>2024-05-08T09:04:54Z</time>
</trkpt>
<trkpt lat="49.28414150141179" lon="9.470281563699244">
<ele>188.2</ele>
<time>2024-05-08T09:04:55Z</time>
</trkpt>
<trkpt lat="49.284164384007454" lon="9.47021191008389">
<ele>188.4</ele>
<time>2024-05-08T09:04:56Z</time>
</trkpt>
<trkpt lat="49.28418726660311" lon="9.470140412449837">
<ele>188.4</ele>
<time>2024-05-08T09:04:57Z</time>
</trkpt>
<trkpt lat="49.28420637734234" lon="9.470065059140325">
<ele>188.4</ele>
<time>2024-05-08T09:04:58Z</time>
</trkpt>
<trkpt lat="49.284221632406116" lon="9.469987861812116">
<ele>188.4</ele>
<time>2024-05-08T09:04:59Z</time>
</trkpt>
<trkpt lat="49.28423688746989" lon="9.46991535834968">
<ele>188.4</ele>
<time>2024-05-08T09:05:00Z</time>
</trkpt>
<trkpt lat="49.28426739759743" lon="9.469768507406116">
<ele>188.4</ele>
<time>2024-05-08T09:05:02Z</time>
</trkpt>
<trkpt lat="49.28428642451763" lon="9.469695081934333">
<ele>188.4</ele>
<time>2024-05-08T09:05:03Z</time>
</trkpt>
<trkpt lat="49.28430167958141" lon="9.469625428318976">
<ele>188.4</ele>
<time>2024-05-08T09:05:04Z</time>
</trkpt>
<trkpt lat="49.28431316278875" lon="9.46955963037908">
<ele>188.4</ele>
<time>2024-05-08T09:05:05Z</time>
</trkpt>
<trkpt lat="49.28432841785252" lon="9.469494754448531">
<ele>188.4</ele>
<time>2024-05-08T09:05:06Z</time>
</trkpt>
<trkpt lat="49.28434367291629" lon="9.469433734193444">
<ele>188.4</ele>
<time>2024-05-08T09:05:07Z</time>
</trkpt>
<trkpt lat="49.28436278365552" lon="9.469373635947704">
<ele>188.4</ele>
<time>2024-05-08T09:05:08Z</time>
</trkpt>
<trkpt lat="49.2843780387193" lon="9.469309765845535">
<ele>188.4</ele>
<time>2024-05-08T09:05:09Z</time>
</trkpt>
<trkpt lat="49.28439329378307" lon="9.469243045896292">
<ele>188.4</ele>
<time>2024-05-08T09:05:10Z</time>
</trkpt>
<trkpt lat="49.28440854884684" lon="9.469171464443209">
<ele>188.4</ele>
<time>2024-05-08T09:05:11Z</time>
</trkpt>
<trkpt lat="49.28442380391061" lon="9.469090411439538">
<ele>188.4</ele>
<time>2024-05-08T09:05:12Z</time>
</trkpt>
<trkpt lat="49.284439058974385" lon="9.4690112862736">
<ele>188.4</ele>
<time>2024-05-08T09:05:13Z</time>
</trkpt>
<trkpt lat="49.284458085894585" lon="9.468937860801816">
<ele>188.4</ele>
<time>2024-05-08T09:05:14Z</time>
</trkpt>
<trkpt lat="49.28447334095836" lon="9.46886820718646">
<ele>188.4</ele>
<time>2024-05-08T09:05:15Z</time>
</trkpt>
<trkpt lat="49.28449630737305" lon="9.468799559399486">
<ele>188.4</ele>
<time>2024-05-08T09:05:16Z</time>
</trkpt>
<trkpt lat="49.28451156243682" lon="9.468727055937052">
<ele>188.4</ele>
<time>2024-05-08T09:05:17Z</time>
</trkpt>
<trkpt lat="49.28452681750059" lon="9.46865170262754">
<ele>188.4</ele>
<time>2024-05-08T09:05:18Z</time>
</trkpt>
<trkpt lat="49.28454207256436" lon="9.46857450529933">
<ele>188.4</ele>
<time>2024-05-08T09:05:19Z</time>
</trkpt>
<trkpt lat="49.28455347195268" lon="9.468498229980469">
<ele>188.4</ele>
<time>2024-05-08T09:05:20Z</time>
</trkpt>
<trkpt lat="49.28456495516002" lon="9.468422876670957">
<ele>188.4</ele>
<time>2024-05-08T09:05:21Z</time>
</trkpt>
<trkpt lat="49.28457258269191" lon="9.468346517533064">
<ele>188.4</ele>
<time>2024-05-08T09:05:22Z</time>
</trkpt>
<trkpt lat="49.284576354548335" lon="9.468271248042583">
<ele>188.4</ele>
<time>2024-05-08T09:05:24Z</time>
</trkpt>
<trkpt lat="49.28456872701645" lon="9.468111991882324">
<ele>188.4</ele>
<time>2024-05-08T09:05:25Z</time>
</trkpt>
<trkpt lat="49.28456109948456" lon="9.468033788725734">
<ele>188.4</ele>
<time>2024-05-08T09:05:26Z</time>
</trkpt>
<trkpt lat="49.28455347195268" lon="9.467956507578492">
<ele>188.4</ele>
<time>2024-05-08T09:05:27Z</time>
</trkpt>
<trkpt lat="49.28454207256436" lon="9.46788308210671">
<ele>188.4</ele>
<time>2024-05-08T09:05:28Z</time>
</trkpt>
<trkpt lat="49.284538216888905" lon="9.467808650806546">
<ele>188.4</ele>
<time>2024-05-08T09:05:29Z</time>
</trkpt>
<trkpt lat="49.28453444503248" lon="9.467736231163144">
<ele>188.4</ele>
<time>2024-05-08T09:05:31Z</time>
</trkpt>
<trkpt lat="49.284538216888905" lon="9.467595079913735">
<ele>188.4</ele>
<time>2024-05-08T09:05:32Z</time>
</trkpt>
<trkpt lat="49.28454207256436" lon="9.46752643212676">
<ele>188.4</ele>
<time>2024-05-08T09:05:33Z</time>
</trkpt>
<trkpt lat="49.28455347195268" lon="9.46746633388102">
<ele>188.4</ele>
<time>2024-05-08T09:05:34Z</time>
</trkpt>
<trkpt lat="49.284557327628136" lon="9.467410007491708">
<ele>188.6</ele>
<time>2024-05-08T09:05:35Z</time>
</trkpt>
<trkpt lat="49.28456495516002" lon="9.467354770749807">
<ele>188.6</ele>
<time>2024-05-08T09:05:36Z</time>
</trkpt>
<trkpt lat="49.28457258269191" lon="9.467301294207571">
<ele>188.8</ele>
<time>2024-05-08T09:05:37Z</time>
</trkpt>
<trkpt lat="49.284576354548335" lon="9.46724790148437">
<ele>188.8</ele>
<time>2024-05-08T09:05:38Z</time>
</trkpt>
<trkpt lat="49.28458398208022" lon="9.467194508761168">
<ele>188.8</ele>
<time>2024-05-08T09:05:39Z</time>
</trkpt>
<trkpt lat="49.28458783775568" lon="9.467142038047314">
<ele>188.8</ele>
<time>2024-05-08T09:05:40Z</time>
</trkpt>
<trkpt lat="49.28459160961211" lon="9.467082023620604">
<ele>188.8</ele>
<time>2024-05-08T09:05:41Z</time>
</trkpt>
<trkpt lat="49.284595465287566" lon="9.467016141861675">
<ele>189</ele>
<time>2024-05-08T09:05:42Z</time>
</trkpt>
<trkpt lat="49.28459923714399" lon="9.466941794380546">
<ele>189</ele>
<time>2024-05-08T09:05:43Z</time>
</trkpt>
<trkpt lat="49.28460309281945" lon="9.4668578915298">
<ele>189</ele>
<time>2024-05-08T09:05:44Z</time>
</trkpt>
<trkpt lat="49.28460686467588" lon="9.466770133003592">
<ele>189</ele>
<time>2024-05-08T09:05:45Z</time>
</trkpt>
<trkpt lat="49.28461072035134" lon="9.46667860262096">
<ele>188.8</ele>
<time>2024-05-08T09:05:46Z</time>
</trkpt>
<trkpt lat="49.284614492207766" lon="9.46657843887806">
<ele>188.6</ele>
<time>2024-05-08T09:05:47Z</time>
</trkpt>
<trkpt lat="49.284618347883224" lon="9.466480202972887">
<ele>188.6</ele>
<time>2024-05-08T09:05:48Z</time>
</trkpt>
<trkpt lat="49.28462211973965" lon="9.466375345364211">
<ele>188.4</ele>
<time>2024-05-08T09:05:49Z</time>
</trkpt>
<trkpt lat="49.28462211973965" lon="9.466266632080078">
<ele>188.4</ele>
<time>2024-05-08T09:05:50Z</time>
</trkpt>
<trkpt lat="49.28462597541511" lon="9.46615976281464">
<ele>188.4</ele>
<time>2024-05-08T09:05:51Z</time>
</trkpt>
<trkpt lat="49.28462597541511" lon="9.466052977368236">
<ele>188.2</ele>
<time>2024-05-08T09:05:52Z</time>
</trkpt>
<trkpt lat="49.28462597541511" lon="9.465949963778256">
<ele>188</ele>
<time>2024-05-08T09:05:53Z</time>
</trkpt>
<trkpt lat="49.28462597541511" lon="9.465849800035356">
<ele>187.8</ele>
<time>2024-05-08T09:05:54Z</time>
</trkpt>
<trkpt lat="49.28462597541511" lon="9.46574972011149">
<ele>187.6</ele>
<time>2024-05-08T09:05:55Z</time>
</trkpt>
<trkpt lat="49.28462597541511" lon="9.46565148420632">
<ele>187.2</ele>
<time>2024-05-08T09:05:56Z</time>
</trkpt>
<trkpt lat="49.28462597541511" lon="9.465555176138878">
<ele>187</ele>
<time>2024-05-08T09:05:57Z</time>
</trkpt>
<trkpt lat="49.28462974727154" lon="9.465459790080786">
<ele>187</ele>
<time>2024-05-08T09:05:58Z</time>
</trkpt>
<trkpt lat="49.28462974727154" lon="9.465365409851074">
<ele>186.8</ele>
<time>2024-05-08T09:05:59Z</time>
</trkpt>
<trkpt lat="49.28462974727154" lon="9.46527186781168">
<ele>186.8</ele>
<time>2024-05-08T09:06:00Z</time>
</trkpt>
<trkpt lat="49.28462974727154" lon="9.465183187276123">
<ele>186.6</ele>
<time>2024-05-08T09:06:01Z</time>
</trkpt>
<trkpt lat="49.284633602947" lon="9.46509450674057">
<ele>186.6</ele>
<time>2024-05-08T09:06:02Z</time>
</trkpt>
<trkpt lat="49.284637374803424" lon="9.465011525899172">
<ele>186.6</ele>
<time>2024-05-08T09:06:03Z</time>
</trkpt>
<trkpt lat="49.28464500233531" lon="9.464928545057774">
<ele>186.6</ele>
<time>2024-05-08T09:06:04Z</time>
</trkpt>
<trkpt lat="49.28464885801077" lon="9.464848497882484">
<ele>186.4</ele>
<time>2024-05-08T09:06:05Z</time>
</trkpt>
<trkpt lat="49.284656485542655" lon="9.464766439050436">
<ele>186.4</ele>
<time>2024-05-08T09:06:06Z</time>
</trkpt>
<trkpt lat="49.28466411307454" lon="9.464686391875148">
<ele>186.2</ele>
<time>2024-05-08T09:06:07Z</time>
</trkpt>
<trkpt lat="49.28466411307454" lon="9.464610032737257">
<ele>186.2</ele>
<time>2024-05-08T09:06:08Z</time>
</trkpt>
<trkpt lat="49.284656485542655" lon="9.46454138495028">
<ele>186</ele>
<time>2024-05-08T09:06:09Z</time>
</trkpt>
<trkpt lat="49.28464885801077" lon="9.464473659172654">
<ele>186</ele>
<time>2024-05-08T09:06:10Z</time>
</trkpt>
<trkpt lat="49.284637374803424" lon="9.464407861232758">
<ele>185.8</ele>
<time>2024-05-08T09:06:11Z</time>
</trkpt>
<trkpt lat="49.28462211973965" lon="9.464340135455132">
<ele>185.8</ele>
<time>2024-05-08T09:06:12Z</time>
</trkpt>
<trkpt lat="49.28460686467588" lon="9.464264865964653">
<ele>185.8</ele>
<time>2024-05-08T09:06:13Z</time>
</trkpt>
<trkpt lat="49.28459160961211" lon="9.464199990034103">
<ele>185.6</ele>
<time>2024-05-08T09:06:14Z</time>
</trkpt>
<trkpt lat="49.284576354548335" lon="9.46412656456232">
<ele>185.6</ele>
<time>2024-05-08T09:06:15Z</time>
</trkpt>
<trkpt lat="49.28456109948456" lon="9.464061688631771">
<ele>185.6</ele>
<time>2024-05-08T09:06:16Z</time>
</trkpt>
<trkpt lat="49.28454970009625" lon="9.463994968682528">
<ele>185.6</ele>
<time>2024-05-08T09:06:17Z</time>
</trkpt>
<trkpt lat="49.284538216888905" lon="9.463914837688208">
<ele>185.6</ele>
<time>2024-05-08T09:06:19Z</time>
</trkpt>
<trkpt lat="49.28453058935702" lon="9.463763209059834">
<ele>185.6</ele>
<time>2024-05-08T09:06:20Z</time>
</trkpt>
<trkpt lat="49.28452681750059" lon="9.463683078065516">
<ele>185.6</ele>
<time>2024-05-08T09:06:21Z</time>
</trkpt>
<trkpt lat="49.284519189968705" lon="9.463609652593732">
<ele>185.6</ele>
<time>2024-05-08T09:06:22Z</time>
</trkpt>
<trkpt lat="49.28450770676136" lon="9.463539998978376">
<ele>185.6</ele>
<time>2024-05-08T09:06:23Z</time>
</trkpt>
<trkpt lat="49.28449630737305" lon="9.463466573506594">
<ele>185.6</ele>
<time>2024-05-08T09:06:24Z</time>
</trkpt>
<trkpt lat="49.2844848241657" lon="9.463391304016112">
<ele>185.6</ele>
<time>2024-05-08T09:06:25Z</time>
</trkpt>
<trkpt lat="49.28447334095836" lon="9.463312095031142">
<ele>185.6</ele>
<time>2024-05-08T09:06:26Z</time>
</trkpt>
<trkpt lat="49.284458085894585" lon="9.46323866955936">
<ele>185.6</ele>
<time>2024-05-08T09:06:27Z</time>
</trkpt>
<trkpt lat="49.28444668650627" lon="9.463165244087577">
<ele>185.6</ele>
<time>2024-05-08T09:06:28Z</time>
</trkpt>
<trkpt lat="49.284435203298926" lon="9.463087962940335">
<ele>185.6</ele>
<time>2024-05-08T09:06:29Z</time>
</trkpt>
<trkpt lat="49.28442380391061" lon="9.463016465306282">
<ele>185.8</ele>
<time>2024-05-08T09:06:30Z</time>
</trkpt>
<trkpt lat="49.28440854884684" lon="9.4629430398345">
<ele>185.8</ele>
<time>2024-05-08T09:06:31Z</time>
</trkpt>
<trkpt lat="49.28439329378307" lon="9.462871542200446">
<ele>185.8</ele>
<time>2024-05-08T09:06:32Z</time>
</trkpt>
<trkpt lat="49.28438181057573" lon="9.462796188890934">
<ele>185.6</ele>
<time>2024-05-08T09:06:33Z</time>
</trkpt>
<trkpt lat="49.28437418304384" lon="9.4627236854285">
<ele>185.6</ele>
<time>2024-05-08T09:06:34Z</time>
</trkpt>
<trkpt lat="49.284358927980065" lon="9.462653109803796">
<ele>185.4</ele>
<time>2024-05-08T09:06:35Z</time>
</trkpt>
<trkpt lat="49.28434752859175" lon="9.462588233873248">
<ele>185.4</ele>
<time>2024-05-08T09:06:36Z</time>
</trkpt>
<trkpt lat="49.284339901059866" lon="9.462518664076924">
<ele>185.4</ele>
<time>2024-05-08T09:06:37Z</time>
</trkpt>
<trkpt lat="49.28432841785252" lon="9.462445238605142">
<ele>185.4</ele>
<time>2024-05-08T09:06:38Z</time>
</trkpt>
<trkpt lat="49.28431316278875" lon="9.46237181313336">
<ele>185.4</ele>
<time>2024-05-08T09:06:39Z</time>
</trkpt>
<trkpt lat="49.28430167958141" lon="9.462301237508656">
<ele>185.4</ele>
<time>2024-05-08T09:06:40Z</time>
</trkpt>
<trkpt lat="49.28429405204952" lon="9.462235439568758">
<ele>185.6</ele>
<time>2024-05-08T09:06:41Z</time>
</trkpt>
<trkpt lat="49.2842826526612" lon="9.46217148564756">
<ele>185.6</ele>
<time>2024-05-08T09:06:42Z</time>
</trkpt>
<trkpt lat="49.28427502512932" lon="9.462115243077278">
<ele>185.8</ele>
<time>2024-05-08T09:06:43Z</time>
</trkpt>
<trkpt lat="49.28426354192197" lon="9.462057072669268">
<ele>185.8</ele>
<time>2024-05-08T09:06:44Z</time>
</trkpt>
<trkpt lat="49.2842482868582" lon="9.461996974423528">
<ele>186</ele>
<time>2024-05-08T09:06:45Z</time>
</trkpt>
<trkpt lat="49.28423688746989" lon="9.461937882006168">
<ele>186</ele>
<time>2024-05-08T09:06:46Z</time>
</trkpt>
<trkpt lat="49.28422540426254" lon="9.461881555616856">
<ele>186.2</ele>
<time>2024-05-08T09:06:47Z</time>
</trkpt>
<trkpt lat="49.28421014919877" lon="9.46183294057846">
<ele>186.2</ele>
<time>2024-05-08T09:06:48Z</time>
</trkpt>
<trkpt lat="49.28419874981046" lon="9.461785247549416">
<ele>186.2</ele>
<time>2024-05-08T09:06:49Z</time>
</trkpt>
<trkpt lat="49.28418726660311" lon="9.46173470467329">
<ele>186.4</ele>
<time>2024-05-08T09:06:50Z</time>
</trkpt>
<trkpt lat="49.2841758672148" lon="9.461689945310354">
<ele>186.6</ele>
<time>2024-05-08T09:06:51Z</time>
</trkpt>
<trkpt lat="49.28416061215103" lon="9.461643174290655">
<ele>186.8</ele>
<time>2024-05-08T09:06:52Z</time>
</trkpt>
<trkpt lat="49.28414912894368" lon="9.461591709405184">
<ele>187</ele>
<time>2024-05-08T09:06:53Z</time>
</trkpt>
<trkpt lat="49.28413764573634" lon="9.461533538997172">
<ele>187</ele>
<time>2024-05-08T09:06:54Z</time>
</trkpt>
<trkpt lat="49.28412624634802" lon="9.461475368589165">
<ele>187.2</ele>
<time>2024-05-08T09:06:55Z</time>
</trkpt>
<trkpt lat="49.28411476314068" lon="9.46142004802823">
<ele>187.4</ele>
<time>2024-05-08T09:06:56Z</time>
</trkpt>
<trkpt lat="49.284103363752365" lon="9.46135994978249">
<ele>187.6</ele>
<time>2024-05-08T09:06:57Z</time>
</trkpt>
<trkpt lat="49.28408810868859" lon="9.46129985153675">
<ele>187.6</ele>
<time>2024-05-08T09:06:58Z</time>
</trkpt>
<trkpt lat="49.28407662548125" lon="9.46123975329101">
<ele>187.6</ele>
<time>2024-05-08T09:06:59Z</time>
</trkpt>
<trkpt lat="49.284065226092935" lon="9.461178733035922">
<ele>187.8</ele>
<time>2024-05-08T09:07:00Z</time>
</trkpt>
<trkpt lat="49.28405759856105" lon="9.46112341247499">
<ele>187.8</ele>
<time>2024-05-08T09:07:01Z</time>
</trkpt>
<trkpt lat="49.2840461153537" lon="9.46106524206698">
<ele>187.8</ele>
<time>2024-05-08T09:07:02Z</time>
</trkpt>
<trkpt lat="49.28403471596539" lon="9.461007071658967">
<ele>187.8</ele>
<time>2024-05-08T09:07:03Z</time>
</trkpt>
<trkpt lat="49.284023232758045" lon="9.46094797924161">
<ele>187.8</ele>
<time>2024-05-08T09:07:04Z</time>
</trkpt>
<trkpt lat="49.28401183336973" lon="9.460891652852297">
<ele>187.8</ele>
<time>2024-05-08T09:07:05Z</time>
</trkpt>
<trkpt lat="49.28399657830596" lon="9.460835410282016">
<ele>187.8</ele>
<time>2024-05-08T09:07:06Z</time>
</trkpt>
<trkpt lat="49.283985095098615" lon="9.460778161883354">
<ele>188</ele>
<time>2024-05-08T09:07:07Z</time>
</trkpt>
<trkpt lat="49.28397361189127" lon="9.460724769160151">
<ele>188.2</ele>
<time>2024-05-08T09:07:08Z</time>
</trkpt>
<trkpt lat="49.28396221250296" lon="9.46066852658987">
<ele>188.2</ele>
<time>2024-05-08T09:07:09Z</time>
</trkpt>
<trkpt lat="49.283946957439184" lon="9.460611278191209">
<ele>188.4</ele>
<time>2024-05-08T09:07:10Z</time>
</trkpt>
<trkpt lat="49.28393170237541" lon="9.460555035620928">
<ele>188.4</ele>
<time>2024-05-08T09:07:11Z</time>
</trkpt>
<trkpt lat="49.28391644731164" lon="9.460499715059996">
<ele>188.6</ele>
<time>2024-05-08T09:07:12Z</time>
</trkpt>
<trkpt lat="49.28389733657241" lon="9.460445400327444">
<ele>188.6</ele>
<time>2024-05-08T09:07:13Z</time>
</trkpt>
<trkpt lat="49.283885937184095" lon="9.46039292961359">
<ele>188.8</ele>
<time>2024-05-08T09:07:14Z</time>
</trkpt>
<trkpt lat="49.283866826444864" lon="9.46033475920558">
<ele>188.8</ele>
<time>2024-05-08T09:07:15Z</time>
</trkpt>
<trkpt lat="49.28385157138109" lon="9.460273738950493">
<ele>188.8</ele>
<time>2024-05-08T09:07:16Z</time>
</trkpt>
<trkpt lat="49.28383631631732" lon="9.460213640704753">
<ele>188.8</ele>
<time>2024-05-08T09:07:17Z</time>
</trkpt>
<trkpt lat="49.28381728939712" lon="9.460153542459013">
<ele>188.8</ele>
<time>2024-05-08T09:07:18Z</time>
</trkpt>
<trkpt lat="49.28380195051432" lon="9.46009629406035">
<ele>188.8</ele>
<time>2024-05-08T09:07:19Z</time>
</trkpt>
<trkpt lat="49.283786695450544" lon="9.460040051490068">
<ele>188.8</ele>
<time>2024-05-08T09:07:20Z</time>
</trkpt>
<trkpt lat="49.283767668530345" lon="9.459982803091409">
<ele>188.8</ele>
<time>2024-05-08T09:07:21Z</time>
</trkpt>
<trkpt lat="49.28375241346657" lon="9.459926560521126">
<ele>189</ele>
<time>2024-05-08T09:07:22Z</time>
</trkpt>
<trkpt lat="49.2837371584028" lon="9.459871239960194">
<ele>188.8</ele>
<time>2024-05-08T09:07:23Z</time>
</trkpt>
<trkpt lat="49.28372190333903" lon="9.459821619093418">
<ele>188.8</ele>
<time>2024-05-08T09:07:24Z</time>
</trkpt>
<trkpt lat="49.283706648275256" lon="9.459770154207945">
<ele>188.8</ele>
<time>2024-05-08T09:07:25Z</time>
</trkpt>
<trkpt lat="49.28369139321149" lon="9.459725311025975">
<ele>188.8</ele>
<time>2024-05-08T09:07:26Z</time>
</trkpt>
<trkpt lat="49.28367991000414" lon="9.45968340151012">
<ele>188.8</ele>
<time>2024-05-08T09:07:27Z</time>
</trkpt>
<trkpt lat="49.28366465494037" lon="9.459638558328152">
<ele>189</ele>
<time>2024-05-08T09:07:28Z</time>
</trkpt>
<trkpt lat="49.28365325555205" lon="9.459591787308456">
<ele>189</ele>
<time>2024-05-08T09:07:29Z</time>
</trkpt>
<trkpt lat="49.28364177234471" lon="9.459545100107787">
<ele>189.2</ele>
<time>2024-05-08T09:07:30Z</time>
</trkpt>
<trkpt lat="49.28363028913736" lon="9.459491707384586">
<ele>189.4</ele>
<time>2024-05-08T09:07:31Z</time>
</trkpt>
<trkpt lat="49.28361503407359" lon="9.45944015868008">
<ele>189.4</ele>
<time>2024-05-08T09:07:32Z</time>
</trkpt>
<trkpt lat="49.28360363468528" lon="9.459389615803955">
<ele>189.6</ele>
<time>2024-05-08T09:07:33Z</time>
</trkpt>
<trkpt lat="49.283588379621506" lon="9.459340078756211">
<ele>189.6</ele>
<time>2024-05-08T09:07:34Z</time>
</trkpt>
<trkpt lat="49.28357312455773" lon="9.45928668603301">
<ele>189.8</ele>
<time>2024-05-08T09:07:35Z</time>
</trkpt>
<trkpt lat="49.2835540138185" lon="9.459235137328506">
<ele>189.8</ele>
<time>2024-05-08T09:07:36Z</time>
</trkpt>
<trkpt lat="49.28353875875473" lon="9.45918459445238">
<ele>190</ele>
<time>2024-05-08T09:07:37Z</time>
</trkpt>
<trkpt lat="49.28352350369096" lon="9.459136901423337">
<ele>190.2</ele>
<time>2024-05-08T09:07:38Z</time>
</trkpt>
<trkpt lat="49.2835006210953" lon="9.459091136232018">
<ele>190.2</ele>
<time>2024-05-08T09:07:39Z</time>
</trkpt>
<trkpt lat="49.2834815941751" lon="9.45904822088778">
<ele>190.4</ele>
<time>2024-05-08T09:07:40Z</time>
</trkpt>
<trkpt lat="49.28345862776041" lon="9.458999605849383">
<ele>190.4</ele>
<time>2024-05-08T09:07:41Z</time>
</trkpt>
<trkpt lat="49.28343960084021" lon="9.458946213126184">
<ele>190.6</ele>
<time>2024-05-08T09:07:42Z</time>
</trkpt>
<trkpt lat="49.28342434577644" lon="9.4588918145746">
<ele>190.8</ele>
<time>2024-05-08T09:07:44Z</time>
</trkpt>
<trkpt lat="49.283389979973435" lon="9.458778323605657">
<ele>191</ele>
<time>2024-05-08T09:07:45Z</time>
</trkpt>
<trkpt lat="49.28336709737778" lon="9.458724930882454">
<ele>191</ele>
<time>2024-05-08T09:07:46Z</time>
</trkpt>
<trkpt lat="49.28334421478212" lon="9.458671538159251">
<ele>191.2</ele>
<time>2024-05-08T09:07:47Z</time>
</trkpt>
<trkpt lat="49.28332518786192" lon="9.458622923120856">
<ele>191.2</ele>
<time>2024-05-08T09:07:48Z</time>
</trkpt>
<trkpt lat="49.28330230526626" lon="9.458568524569271">
<ele>191</ele>
<time>2024-05-08T09:07:49Z</time>
</trkpt>
<trkpt lat="49.28327933885157" lon="9.458511276170611">
<ele>191</ele>
<time>2024-05-08T09:07:50Z</time>
</trkpt>
<trkpt lat="49.283252684399486" lon="9.4584531057626">
<ele>190.8</ele>
<time>2024-05-08T09:07:51Z</time>
</trkpt>
<trkpt lat="49.28322980180383" lon="9.458391163498163">
<ele>190.8</ele>
<time>2024-05-08T09:07:52Z</time>
</trkpt>
<trkpt lat="49.28320691920817" lon="9.458328215405343">
<ele>190.6</ele>
<time>2024-05-08T09:07:53Z</time>
</trkpt>
<trkpt lat="49.28318018093705" lon="9.458263339474795">
<ele>190.6</ele>
<time>2024-05-08T09:07:54Z</time>
</trkpt>
<trkpt lat="49.28316115401685" lon="9.45820139721036">
<ele>190.4</ele>
<time>2024-05-08T09:07:55Z</time>
</trkpt>
<trkpt lat="49.283138271421194" lon="9.45814029313624">
<ele>190.4</ele>
<time>2024-05-08T09:07:56Z</time>
</trkpt>
<trkpt lat="49.283115305006504" lon="9.458071645349264">
<ele>190.4</ele>
<time>2024-05-08T09:07:57Z</time>
</trkpt>
<trkpt lat="49.283096278086305" lon="9.458008697256446">
<ele>190.4</ele>
<time>2024-05-08T09:07:58Z</time>
</trkpt>
<trkpt lat="49.283073395490646" lon="9.457948682829738">
<ele>190.4</ele>
<time>2024-05-08T09:07:59Z</time>
</trkpt>
<trkpt lat="49.283054284751415" lon="9.457891434431076">
<ele>190.4</ele>
<time>2024-05-08T09:08:00Z</time>
</trkpt>
<trkpt lat="49.28303902968764" lon="9.457837035879493">
<ele>190.4</ele>
<time>2024-05-08T09:08:01Z</time>
</trkpt>
<trkpt lat="49.283016147091985" lon="9.45778464898467">
<ele>190.4</ele>
<time>2024-05-08T09:08:02Z</time>
</trkpt>
<trkpt lat="49.2829894926399" lon="9.457730250433087">
<ele>190.4</ele>
<time>2024-05-08T09:08:03Z</time>
</trkpt>
<trkpt lat="49.282958982512355" lon="9.457672080025077">
<ele>190.4</ele>
<time>2024-05-08T09:08:04Z</time>
</trkpt>
<trkpt lat="49.282936016097665" lon="9.45760820992291">
<ele>190.4</ele>
<time>2024-05-08T09:08:05Z</time>
</trkpt>
<trkpt lat="49.282916989177465" lon="9.45754811167717">
<ele>190.4</ele>
<time>2024-05-08T09:08:06Z</time>
</trkpt>
<trkpt lat="49.282897878438234" lon="9.457485163584352">
<ele>190.4</ele>
<time>2024-05-08T09:08:07Z</time>
</trkpt>
<trkpt lat="49.282878851518035" lon="9.457425065338612">
<ele>190.4</ele>
<time>2024-05-08T09:08:08Z</time>
</trkpt>
<trkpt lat="49.2828597407788" lon="9.45736974477768">
<ele>190.4</ele>
<time>2024-05-08T09:08:09Z</time>
</trkpt>
<trkpt lat="49.28284071385861" lon="9.457313502207398">
<ele>190.4</ele>
<time>2024-05-08T09:08:10Z</time>
</trkpt>
<trkpt lat="49.28282545879483" lon="9.457256253808737">
<ele>190.4</ele>
<time>2024-05-08T09:08:11Z</time>
</trkpt>
<trkpt lat="49.28281020373106" lon="9.457196155562997">
<ele>190.4</ele>
<time>2024-05-08T09:08:12Z</time>
</trkpt>
<trkpt lat="49.2827873211354" lon="9.457137063145638">
<ele>190.4</ele>
<time>2024-05-08T09:08:13Z</time>
</trkpt>
<trkpt lat="49.28276435472071" lon="9.457076964899898">
<ele>190.4</ele>
<time>2024-05-08T09:08:14Z</time>
</trkpt>
<trkpt lat="49.28274532780051" lon="9.457019800320268">
<ele>190.4</ele>
<time>2024-05-08T09:08:15Z</time>
</trkpt>
<trkpt lat="49.28272621706128" lon="9.456961629912255">
<ele>190.4</ele>
<time>2024-05-08T09:08:16Z</time>
</trkpt>
<trkpt lat="49.2826995626092" lon="9.456908153370025">
<ele>190.4</ele>
<time>2024-05-08T09:08:17Z</time>
</trkpt>
<trkpt lat="49.28267668001354" lon="9.45685668848455">
<ele>190.4</ele>
<time>2024-05-08T09:08:18Z</time>
</trkpt>
<trkpt lat="49.282657569274306" lon="9.456800445914268">
<ele>190.4</ele>
<time>2024-05-08T09:08:19Z</time>
</trkpt>
<trkpt lat="49.28263468667865" lon="9.4567384198308">
<ele>190.4</ele>
<time>2024-05-08T09:08:20Z</time>
</trkpt>
<trkpt lat="49.28261565975845" lon="9.45667647756636">
<ele>190.4</ele>
<time>2024-05-08T09:08:21Z</time>
</trkpt>
<trkpt lat="49.28258892148733" lon="9.456613529473543">
<ele>190.4</ele>
<time>2024-05-08T09:08:22Z</time>
</trkpt>
<trkpt lat="49.28256603889167" lon="9.456548653542995">
<ele>190.4</ele>
<time>2024-05-08T09:08:23Z</time>
</trkpt>
<trkpt lat="49.282543156296015" lon="9.456486627459526">
<ele>190.4</ele>
<time>2024-05-08T09:08:24Z</time>
</trkpt>
<trkpt lat="49.282524045556784" lon="9.456423679366708">
<ele>190.4</ele>
<time>2024-05-08T09:08:25Z</time>
</trkpt>
<trkpt lat="49.282505018636584" lon="9.45636366494">
<ele>190.4</ele>
<time>2024-05-08T09:08:26Z</time>
</trkpt>
<trkpt lat="49.28248590789735" lon="9.4562997110188">
<ele>190.4</ele>
<time>2024-05-08T09:08:27Z</time>
</trkpt>
<trkpt lat="49.282463025301695" lon="9.456236762925982">
<ele>190.4</ele>
<time>2024-05-08T09:08:28Z</time>
</trkpt>
<trkpt lat="49.28244014270604" lon="9.456174820661545">
<ele>190.4</ele>
<time>2024-05-08T09:08:29Z</time>
</trkpt>
<trkpt lat="49.28241726011038" lon="9.456113800406456">
<ele>190.4</ele>
<time>2024-05-08T09:08:30Z</time>
</trkpt>
<trkpt lat="49.282386749982834" lon="9.45604699663818">
<ele>190.4</ele>
<time>2024-05-08T09:08:31Z</time>
</trkpt>
<trkpt lat="49.28236001171172" lon="9.455981198698282">
<ele>190.4</ele>
<time>2024-05-08T09:08:32Z</time>
</trkpt>
<trkpt lat="49.28233335725963" lon="9.455916322767736">
<ele>190.4</ele>
<time>2024-05-08T09:08:33Z</time>
</trkpt>
<trkpt lat="49.28230284713209" lon="9.45584868080914">
<ele>190.4</ele>
<time>2024-05-08T09:08:34Z</time>
</trkpt>
<trkpt lat="49.28227233700454" lon="9.455778105184436">
<ele>190.2</ele>
<time>2024-05-08T09:08:35Z</time>
</trkpt>
<trkpt lat="49.282241743057966" lon="9.455706523731353">
<ele>190.2</ele>
<time>2024-05-08T09:08:36Z</time>
</trkpt>
<trkpt lat="49.28221508860588" lon="9.455635026097298">
<ele>190.2</ele>
<time>2024-05-08T09:08:37Z</time>
</trkpt>
<trkpt lat="49.28218835033476" lon="9.455568306148052">
<ele>190.2</ele>
<time>2024-05-08T09:08:38Z</time>
</trkpt>
<trkpt lat="49.28216169588268" lon="9.455499574542046">
<ele>190</ele>
<time>2024-05-08T09:08:39Z</time>
</trkpt>
<trkpt lat="49.28213495761156" lon="9.4554328545928">
<ele>190</ele>
<time>2024-05-08T09:08:40Z</time>
</trkpt>
<trkpt lat="49.2821120750159" lon="9.455365128815174">
<ele>190</ele>
<time>2024-05-08T09:08:41Z</time>
</trkpt>
<trkpt lat="49.2820930480957" lon="9.455300252884626">
<ele>190</ele>
<time>2024-05-08T09:08:42Z</time>
</trkpt>
<trkpt lat="49.28207393735647" lon="9.455238310620189">
<ele>190</ele>
<time>2024-05-08T09:08:43Z</time>
</trkpt>
<trkpt lat="49.28206245414913" lon="9.455182068049908">
<ele>189.8</ele>
<time>2024-05-08T09:08:44Z</time>
</trkpt>
<trkpt lat="49.28204342722893" lon="9.455126747488976">
<ele>189.8</ele>
<time>2024-05-08T09:08:45Z</time>
</trkpt>
<trkpt lat="49.2820243164897" lon="9.455071426928043">
<ele>190</ele>
<time>2024-05-08T09:08:46Z</time>
</trkpt>
<trkpt lat="49.2820052895695" lon="9.45501702837646">
<ele>190.2</ele>
<time>2024-05-08T09:08:47Z</time>
</trkpt>
<trkpt lat="49.281986178830266" lon="9.454961707815528">
<ele>190.6</ele>
<time>2024-05-08T09:08:48Z</time>
</trkpt>
<trkpt lat="49.28196329623461" lon="9.454908315092323">
<ele>190.6</ele>
<time>2024-05-08T09:08:49Z</time>
</trkpt>
<trkpt lat="49.28193664178252" lon="9.45485970005393">
<ele>190.6</ele>
<time>2024-05-08T09:08:50Z</time>
</trkpt>
<trkpt lat="49.281909903511405" lon="9.454812007024884">
<ele>190.4</ele>
<time>2024-05-08T09:08:51Z</time>
</trkpt>
<trkpt lat="49.28188316524029" lon="9.454758614301682">
<ele>190.4</ele>
<time>2024-05-08T09:08:52Z</time>
</trkpt>
<trkpt lat="49.2818565107882" lon="9.45470329374075">
<ele>190.4</ele>
<time>2024-05-08T09:08:53Z</time>
</trkpt>
<trkpt lat="49.281829772517085" lon="9.45464512333274">
<ele>190.6</ele>
<time>2024-05-08T09:08:54Z</time>
</trkpt>
<trkpt lat="49.28179926238954" lon="9.454593658447266">
<ele>190.6</ele>
<time>2024-05-08T09:08:55Z</time>
</trkpt>
<trkpt lat="49.281768752262" lon="9.45454495958984">
<ele>190.6</ele>
<time>2024-05-08T09:08:56Z</time>
</trkpt>
<trkpt lat="49.28173438645899" lon="9.454496344551444">
<ele>190.6</ele>
<time>2024-05-08T09:08:57Z</time>
</trkpt>
<trkpt lat="49.281711503863335" lon="9.454446723684669">
<ele>190.6</ele>
<time>2024-05-08T09:08:58Z</time>
</trkpt>
<trkpt lat="49.28168484941125" lon="9.454398108646274">
<ele>190.6</ele>
<time>2024-05-08T09:08:59Z</time>
</trkpt>
<trkpt lat="49.28165811114013" lon="9.45434949360788">
<ele>190.6</ele>
<time>2024-05-08T09:09:00Z</time>
</trkpt>
<trkpt lat="49.28163145668805" lon="9.45430657826364">
<ele>190.4</ele>
<time>2024-05-08T09:09:01Z</time>
</trkpt>
<trkpt lat="49.28160857409239" lon="9.454253185540438">
<ele>190.4</ele>
<time>2024-05-08T09:09:02Z</time>
</trkpt>
<trkpt lat="49.28158183582127" lon="9.454197864979506">
<ele>190.4</ele>
<time>2024-05-08T09:09:04Z</time>
</trkpt>
<trkpt lat="49.28152081556618" lon="9.45408814586699">
<ele>190.4</ele>
<time>2024-05-08T09:09:05Z</time>
</trkpt>
<trkpt lat="49.28149030543864" lon="9.45402804762125">
<ele>190.4</ele>
<time>2024-05-08T09:09:06Z</time>
</trkpt>
<trkpt lat="49.28146356716752" lon="9.45396987721324">
<ele>190.6</ele>
<time>2024-05-08T09:09:07Z</time>
</trkpt>
<trkpt lat="49.281433057039976" lon="9.453909862786531">
<ele>190.6</ele>
<time>2024-05-08T09:09:08Z</time>
</trkpt>
<trkpt lat="49.28140254691243" lon="9.45385353639722">
<ele>190.6</ele>
<time>2024-05-08T09:09:09Z</time>
</trkpt>
<trkpt lat="49.28136818110943" lon="9.45379352197051">
<ele>190.8</ele>
<time>2024-05-08T09:09:10Z</time>
</trkpt>
<trkpt lat="49.28134152665734" lon="9.45373342372477">
<ele>190.8</ele>
<time>2024-05-08T09:09:11Z</time>
</trkpt>
<trkpt lat="49.28130716085434" lon="9.4536713976413">
<ele>190.8</ele>
<time>2024-05-08T09:09:12Z</time>
</trkpt>
<trkpt lat="49.281280506402254" lon="9.453608449548485">
<ele>191</ele>
<time>2024-05-08T09:09:13Z</time>
</trkpt>
<trkpt lat="49.28124999627471" lon="9.453544579446316">
<ele>191</ele>
<time>2024-05-08T09:09:14Z</time>
</trkpt>
<trkpt lat="49.281219402328134" lon="9.453479703515768">
<ele>190.8</ele>
<time>2024-05-08T09:09:15Z</time>
</trkpt>
<trkpt lat="49.28119274787605" lon="9.45341675542295">
<ele>190.8</ele>
<time>2024-05-08T09:09:16Z</time>
</trkpt>
<trkpt lat="49.281162237748504" lon="9.453352885320784">
<ele>190.6</ele>
<time>2024-05-08T09:09:17Z</time>
</trkpt>
<trkpt lat="49.28113172762096" lon="9.453291865065694">
<ele>190.6</ele>
<time>2024-05-08T09:09:18Z</time>
</trkpt>
<trkpt lat="49.28110498934984" lon="9.453229838982224">
<ele>190.4</ele>
<time>2024-05-08T09:09:19Z</time>
</trkpt>
<trkpt lat="49.28107833489776" lon="9.453167896717789">
<ele>190.4</ele>
<time>2024-05-08T09:09:20Z</time>
</trkpt>
<trkpt lat="49.28105536848307" lon="9.453111570328474">
<ele>190.4</ele>
<time>2024-05-08T09:09:21Z</time>
</trkpt>
<trkpt lat="49.28102871403098" lon="9.453060105443">
<ele>190.4</ele>
<time>2024-05-08T09:09:22Z</time>
</trkpt>
<trkpt lat="49.281001975759864" lon="9.453006712719798">
<ele>190.4</ele>
<time>2024-05-08T09:09:23Z</time>
</trkpt>
<trkpt lat="49.28097146563232" lon="9.452951392158866">
<ele>190.4</ele>
<time>2024-05-08T09:09:24Z</time>
</trkpt>
<trkpt lat="49.280940955504775" lon="9.452893221750855">
<ele>190.4</ele>
<time>2024-05-08T09:09:25Z</time>
</trkpt>
<trkpt lat="49.28091044537723" lon="9.452836979180574">
<ele>190.4</ele>
<time>2024-05-08T09:09:26Z</time>
</trkpt>
<trkpt lat="49.280879935249686" lon="9.45278643630445">
<ele>190.4</ele>
<time>2024-05-08T09:09:27Z</time>
</trkpt>
<trkpt lat="49.28084556944668" lon="9.452734887599943">
<ele>190.4</ele>
<time>2024-05-08T09:09:28Z</time>
</trkpt>
<trkpt lat="49.28081505931914" lon="9.452683422714472">
<ele>190.2</ele>
<time>2024-05-08T09:09:29Z</time>
</trkpt>
<trkpt lat="49.28078077733517" lon="9.45262617431581">
<ele>190.2</ele>
<time>2024-05-08T09:09:30Z</time>
</trkpt>
<trkpt lat="49.28074641153216" lon="9.45257185958326">
<ele>190</ele>
<time>2024-05-08T09:09:31Z</time>
</trkpt>
<trkpt lat="49.28070827387273" lon="9.452516539022326">
<ele>190</ele>
<time>2024-05-08T09:09:32Z</time>
</trkpt>
<trkpt lat="49.28067390806973" lon="9.452461218461394">
<ele>189.8</ele>
<time>2024-05-08T09:09:33Z</time>
</trkpt>
<trkpt lat="49.280643397942185" lon="9.452404975891112">
<ele>189.8</ele>
<time>2024-05-08T09:09:34Z</time>
</trkpt>
<trkpt lat="49.28061288781464" lon="9.45234965533018">
<ele>189.6</ele>
<time>2024-05-08T09:09:35Z</time>
</trkpt>
<trkpt lat="49.2805823776871" lon="9.452293328940868">
<ele>189.6</ele>
<time>2024-05-08T09:09:36Z</time>
</trkpt>
<trkpt lat="49.280544240027666" lon="9.452238008379936">
<ele>189.4</ele>
<time>2024-05-08T09:09:37Z</time>
</trkpt>
<trkpt lat="49.28050987422466" lon="9.452184615656734">
<ele>189.4</ele>
<time>2024-05-08T09:09:38Z</time>
</trkpt>
<trkpt lat="49.28047559224069" lon="9.45213507860899">
<ele>189.4</ele>
<time>2024-05-08T09:09:39Z</time>
</trkpt>
<trkpt lat="49.28044122643769" lon="9.452090235427022">
<ele>189.4</ele>
<time>2024-05-08T09:09:40Z</time>
</trkpt>
<trkpt lat="49.28040308877826" lon="9.452041620388629">
<ele>189.4</ele>
<time>2024-05-08T09:09:41Z</time>
</trkpt>
<trkpt lat="49.280368722975254" lon="9.451991999521852">
<ele>189.2</ele>
<time>2024-05-08T09:09:42Z</time>
</trkpt>
<trkpt lat="49.28033444099128" lon="9.451938606798649">
<ele>189.2</ele>
<time>2024-05-08T09:09:43Z</time>
</trkpt>
<trkpt lat="49.28030007518828" lon="9.451889991760254">
<ele>189.2</ele>
<time>2024-05-08T09:09:44Z</time>
</trkpt>
<trkpt lat="49.28027719259262" lon="9.451840370893478">
<ele>189.2</ele>
<time>2024-05-08T09:09:45Z</time>
</trkpt>
<trkpt lat="49.28024668246507" lon="9.451794605702162">
<ele>189.2</ele>
<time>2024-05-08T09:09:46Z</time>
</trkpt>
<trkpt lat="49.28021617233753" lon="9.451744984835386">
<ele>189.2</ele>
<time>2024-05-08T09:09:47Z</time>
</trkpt>
<trkpt lat="49.28018180653453" lon="9.451689664274454">
<ele>189.2</ele>
<time>2024-05-08T09:09:48Z</time>
</trkpt>
<trkpt lat="49.28014752455056" lon="9.451636271551251">
<ele>189.2</ele>
<time>2024-05-08T09:09:49Z</time>
</trkpt>
<trkpt lat="49.28010938689113" lon="9.451584806665778">
<ele>189.4</ele>
<time>2024-05-08T09:09:50Z</time>
</trkpt>
<trkpt lat="49.280071249231696" lon="9.451535185799004">
<ele>189.4</ele>
<time>2024-05-08T09:09:51Z</time>
</trkpt>
<trkpt lat="49.280033111572266" lon="9.451484642922878">
<ele>189.6</ele>
<time>2024-05-08T09:09:52Z</time>
</trkpt>
<trkpt lat="49.27998726256192" lon="9.451431250199676">
<ele>189.6</ele>
<time>2024-05-08T09:09:53Z</time>
</trkpt>
<trkpt lat="49.2799414973706" lon="9.451376851648092">
<ele>189.6</ele>
<time>2024-05-08T09:09:54Z</time>
</trkpt>
<trkpt lat="49.27989573217928" lon="9.451318681240082">
<ele>189.6</ele>
<time>2024-05-08T09:09:55Z</time>
</trkpt>
<trkpt lat="49.27984996698797" lon="9.451261516660452">
<ele>189.4</ele>
<time>2024-05-08T09:09:56Z</time>
</trkpt>
<trkpt lat="49.27980420179665" lon="9.45120334625244">
<ele>189.4</ele>
<time>2024-05-08T09:09:57Z</time>
</trkpt>
<trkpt lat="49.279754580929875" lon="9.451134614646437">
<ele>189.2</ele>
<time>2024-05-08T09:09:58Z</time>
</trkpt>
<trkpt lat="49.27970504388213" lon="9.451065044850113">
<ele>188.8</ele>
<time>2024-05-08T09:09:59Z</time>
</trkpt>
<trkpt lat="49.2796515673399" lon="9.451000168919563">
<ele>188.6</ele>
<time>2024-05-08T09:10:00Z</time>
</trkpt>
<trkpt lat="49.27959054708481" lon="9.450944848358631">
<ele>188.2</ele>
<time>2024-05-08T09:10:01Z</time>
</trkpt>
<trkpt lat="49.27952575497329" lon="9.45088860578835">
<ele>188</ele>
<time>2024-05-08T09:10:02Z</time>
</trkpt>
<trkpt lat="49.279460879042745" lon="9.450839990749955">
<ele>187.8</ele>
<time>2024-05-08T09:10:03Z</time>
</trkpt>
<trkpt lat="49.27939223125577" lon="9.45078651420772">
<ele>187.6</ele>
<time>2024-05-08T09:10:04Z</time>
</trkpt>
<trkpt lat="49.27932735532522" lon="9.450733121484518">
<ele>187.4</ele>
<time>2024-05-08T09:10:05Z</time>
</trkpt>
<trkpt lat="49.279262479394674" lon="9.450679728761315">
<ele>187</ele>
<time>2024-05-08T09:10:06Z</time>
</trkpt>
<trkpt lat="49.279201459139585" lon="9.450623486191034">
<ele>186.8</ele>
<time>2024-05-08T09:10:07Z</time>
</trkpt>
<trkpt lat="49.2791404388845" lon="9.450570093467832">
<ele>186.6</ele>
<time>2024-05-08T09:10:08Z</time>
</trkpt>
<trkpt lat="49.279083190485835" lon="9.450518544763328">
<ele>186.2</ele>
<time>2024-05-08T09:10:09Z</time>
</trkpt>
<trkpt lat="49.279026025906205" lon="9.450467079877852">
<ele>186</ele>
<time>2024-05-08T09:10:10Z</time>
</trkpt>
<trkpt lat="49.278968777507544" lon="9.45041368715465">
<ele>185.8</ele>
<time>2024-05-08T09:10:11Z</time>
</trkpt>
<trkpt lat="49.27891152910888" lon="9.450356438755987">
<ele>185.6</ele>
<time>2024-05-08T09:10:12Z</time>
</trkpt>
<trkpt lat="49.27885436452925" lon="9.450303046032786">
<ele>185.4</ele>
<time>2024-05-08T09:10:13Z</time>
</trkpt>
<trkpt lat="49.27879326045513" lon="9.450260130688548">
<ele>185.2</ele>
<time>2024-05-08T09:10:14Z</time>
</trkpt>
<trkpt lat="49.27873986773193" lon="9.45021528750658">
<ele>185.2</ele>
<time>2024-05-08T09:10:15Z</time>
</trkpt>
<trkpt lat="49.278690330684185" lon="9.450168600305917">
<ele>185.4</ele>
<time>2024-05-08T09:10:16Z</time>
</trkpt>
<trkpt lat="49.27863685414195" lon="9.450113279744984">
<ele>185.4</ele>
<time>2024-05-08T09:10:17Z</time>
</trkpt>
<trkpt lat="49.27858346141875" lon="9.45005795918405">
<ele>185.4</ele>
<time>2024-05-08T09:10:18Z</time>
</trkpt>
<trkpt lat="49.278530068695545" lon="9.44999978877604">
<ele>185.4</ele>
<time>2024-05-08T09:10:19Z</time>
</trkpt>
<trkpt lat="49.278469048440456" lon="9.44994161836803">
<ele>185.4</ele>
<time>2024-05-08T09:10:20Z</time>
</trkpt>
<trkpt lat="49.27840802818537" lon="9.44988344796002">
<ele>185.4</ele>
<time>2024-05-08T09:10:21Z</time>
</trkpt>
<trkpt lat="49.27834315225482" lon="9.449826199561356">
<ele>185.4</ele>
<time>2024-05-08T09:10:22Z</time>
</trkpt>
<trkpt lat="49.27827827632427" lon="9.449771801009774">
<ele>185.4</ele>
<time>2024-05-08T09:10:23Z</time>
</trkpt>
<trkpt lat="49.27821348421275" lon="9.449709858745337">
<ele>185.2</ele>
<time>2024-05-08T09:10:24Z</time>
</trkpt>
<trkpt lat="49.27814483642578" lon="9.449647832661867">
<ele>185.2</ele>
<time>2024-05-08T09:10:25Z</time>
</trkpt>
<trkpt lat="49.27807996049523" lon="9.449593517929316">
<ele>185.2</ele>
<time>2024-05-08T09:10:26Z</time>
</trkpt>
<trkpt lat="49.278015084564686" lon="9.449548674747348">
<ele>185.2</ele>
<time>2024-05-08T09:10:27Z</time>
</trkpt>
<trkpt lat="49.27795020863414" lon="9.449498131871223">
<ele>185.2</ele>
<time>2024-05-08T09:10:28Z</time>
</trkpt>
<trkpt lat="49.27788541652262" lon="9.449451444670558">
<ele>185.4</ele>
<time>2024-05-08T09:10:29Z</time>
</trkpt>
<trkpt lat="49.277820540592074" lon="9.44940852932632">
<ele>185.4</ele>
<time>2024-05-08T09:10:30Z</time>
</trkpt>
<trkpt lat="49.27775566466153" lon="9.449356980621817">
<ele>185.4</ele>
<time>2024-05-08T09:10:31Z</time>
</trkpt>
<trkpt lat="49.27768701687455" lon="9.44930643774569">
<ele>185.4</ele>
<time>2024-05-08T09:10:32Z</time>
</trkpt>
<trkpt lat="49.27762599661946" lon="9.449253045022488">
<ele>185.4</ele>
<time>2024-05-08T09:10:33Z</time>
</trkpt>
<trkpt lat="49.277561120688915" lon="9.449198646470904">
<ele>185.2</ele>
<time>2024-05-08T09:10:34Z</time>
</trkpt>
<trkpt lat="49.27749247290194" lon="9.449143409729004">
<ele>185.2</ele>
<time>2024-05-08T09:10:35Z</time>
</trkpt>
<trkpt lat="49.27742759697139" lon="9.449087083339691">
<ele>185.2</ele>
<time>2024-05-08T09:10:36Z</time>
</trkpt>
<trkpt lat="49.277366576716304" lon="9.449026985093951">
<ele>185.2</ele>
<time>2024-05-08T09:10:37Z</time>
</trkpt>
<trkpt lat="49.27730178460479" lon="9.44897174835205">
<ele>185</ele>
<time>2024-05-08T09:10:38Z</time>
</trkpt>
<trkpt lat="49.277244536206126" lon="9.44891642779112">
<ele>185</ele>
<time>2024-05-08T09:10:39Z</time>
</trkpt>
<trkpt lat="49.277187287807465" lon="9.448864879086614">
<ele>185</ele>
<time>2024-05-08T09:10:40Z</time>
</trkpt>
<trkpt lat="49.277130123227835" lon="9.44881534203887">
<ele>184.8</ele>
<time>2024-05-08T09:10:41Z</time>
</trkpt>
<trkpt lat="49.277069019153714" lon="9.44877334870398">
<ele>184.8</ele>
<time>2024-05-08T09:10:42Z</time>
</trkpt>
<trkpt lat="49.27701562643051" lon="9.448726577684283">
<ele>184.6</ele>
<time>2024-05-08T09:10:43Z</time>
</trkpt>
<trkpt lat="49.27696223370731" lon="9.448679890483618">
<ele>184.6</ele>
<time>2024-05-08T09:10:44Z</time>
</trkpt>
<trkpt lat="49.276908840984106" lon="9.448639824986458">
<ele>184.6</ele>
<time>2024-05-08T09:10:45Z</time>
</trkpt>
<trkpt lat="49.27686307579279" lon="9.448604537174106">
<ele>184.6</ele>
<time>2024-05-08T09:10:46Z</time>
</trkpt>
<trkpt lat="49.2768210824579" lon="9.448577798902988">
<ele>184.6</ele>
<time>2024-05-08T09:10:47Z</time>
</trkpt>
<trkpt lat="49.27678680047393" lon="9.448553072288632">
<ele>184.6</ele>
<time>2024-05-08T09:10:48Z</time>
</trkpt>
<trkpt lat="49.27677154541016" lon="9.448538739234207">
<ele>184.6</ele>
<time>2024-05-08T09:10:49Z</time>
</trkpt>
<trkpt lat="49.27676006220281" lon="9.448532033711672">
<ele>184.6</ele>
<time>2024-05-08T09:10:50Z</time>
</trkpt>
<trkpt lat="49.27676006220281" lon="9.448526334017515">
<ele>184.6</ele>
<time>2024-05-08T09:10:51Z</time>
</trkpt>
<trkpt lat="49.27676006220281" lon="9.448518706485627">
<ele>184.8</ele>
<time>2024-05-08T09:10:52Z</time>
</trkpt>
<trkpt lat="49.27676006220281" lon="9.448513006791472">
<ele>184.6</ele>
<time>2024-05-08T09:10:53Z</time>
</trkpt>
<trkpt lat="49.276752434670925" lon="9.448501523584127">
<ele>184.6</ele>
<time>2024-05-08T09:10:54Z</time>
</trkpt>
<trkpt lat="49.27674480713904" lon="9.448490124195814">
<ele>184.6</ele>
<time>2024-05-08T09:10:55Z</time>
</trkpt>
<trkpt lat="49.27674480713904" lon="9.448486268520355">
<ele>184.8</ele>
<time>2024-05-08T09:10:56Z</time>
</trkpt>
<trkpt lat="49.27674480713904" lon="9.448488196358085">
<ele>184.8</ele>
<time>2024-05-08T09:10:57Z</time>
</trkpt>
<trkpt lat="49.27674480713904" lon="9.448490124195814">
<ele>184.8</ele>
<time>2024-05-08T09:10:58Z</time>
</trkpt>
<trkpt lat="49.27674480713904" lon="9.448491968214512">
<ele>184.8</ele>
<time>2024-05-08T09:11:02Z</time>
</trkpt>
<trkpt lat="49.276748578995466" lon="9.448491968214512">
<ele>184.8</ele>
<time>2024-05-08T09:11:08Z</time>
</trkpt>
<trkpt lat="49.276748578995466" lon="9.448492974042892">
<ele>184.8</ele>
<time>2024-05-08T09:11:09Z</time>
</trkpt>
<trkpt lat="49.276748578995466" lon="9.448494901880622">
<ele>184.6</ele>
<time>2024-05-08T09:11:13Z</time>
</trkpt>
<trkpt lat="49.276748578995466" lon="9.44849674589932">
<ele>184.6</ele>
<time>2024-05-08T09:11:18Z</time>
</trkpt>
<trkpt lat="49.276748578995466" lon="9.448498673737047">
<ele>184.4</ele>
<time>2024-05-08T09:11:24Z</time>
</trkpt>
<trkpt lat="49.276748578995466" lon="9.44849967956543">
<ele>184.4</ele>
<time>2024-05-08T09:11:29Z</time>
</trkpt>
<trkpt lat="49.276748578995466" lon="9.448501523584127">
<ele>184.4</ele>
<time>2024-05-08T09:11:44Z</time>
</trkpt>
<trkpt lat="49.27674480713904" lon="9.448503451421857">
<ele>184.2</ele>
<time>2024-05-08T09:12:00Z</time>
</trkpt>
<trkpt lat="49.27674095146358" lon="9.448503451421857">
<ele>184</ele>
<time>2024-05-08T09:12:04Z</time>
</trkpt>
<trkpt lat="49.276733323931694" lon="9.44849967956543">
<ele>184</ele>
<time>2024-05-08T09:12:06Z</time>
</trkpt>
<trkpt lat="49.27672569639981" lon="9.448490124195814">
<ele>183.8</ele>
<time>2024-05-08T09:12:07Z</time>
</trkpt>
<trkpt lat="49.27670281380415" lon="9.448470091447234">
<ele>183.8</ele>
<time>2024-05-08T09:12:08Z</time>
</trkpt>
<trkpt lat="49.276676159352064" lon="9.448443353176115">
<ele>183.6</ele>
<time>2024-05-08T09:12:09Z</time>
</trkpt>
<trkpt lat="49.27664942108095" lon="9.448412843048573">
<ele>183.6</ele>
<time>2024-05-08T09:12:10Z</time>
</trkpt>
<trkpt lat="49.2766189109534" lon="9.44838141091168">
<ele>183.4</ele>
<time>2024-05-08T09:12:11Z</time>
</trkpt>
<trkpt lat="49.27658840082586" lon="9.448349894955754">
<ele>183.4</ele>
<time>2024-05-08T09:12:12Z</time>
</trkpt>
<trkpt lat="49.27655026316643" lon="9.448314607143402">
<ele>183.4</ele>
<time>2024-05-08T09:12:13Z</time>
</trkpt>
<trkpt lat="49.276512125507" lon="9.44828032515943">
<ele>183.4</ele>
<time>2024-05-08T09:12:14Z</time>
</trkpt>
<trkpt lat="49.27647013217211" lon="9.44824118167162">
<ele>183.2</ele>
<time>2024-05-08T09:12:15Z</time>
</trkpt>
<trkpt lat="49.27642436698079" lon="9.44820212200284">
<ele>183.2</ele>
<time>2024-05-08T09:12:16Z</time>
</trkpt>
<trkpt lat="49.276374746114016" lon="9.44816012866795">
<ele>183</ele>
<time>2024-05-08T09:12:17Z</time>
</trkpt>
<trkpt lat="49.27632520906627" lon="9.448116291314363">
<ele>183</ele>
<time>2024-05-08T09:12:18Z</time>
</trkpt>
<trkpt lat="49.27628321573138" lon="9.448073375970123">
<ele>183</ele>
<time>2024-05-08T09:12:19Z</time>
</trkpt>
<trkpt lat="49.27624122239649" lon="9.448026604950428">
<ele>183.2</ele>
<time>2024-05-08T09:12:20Z</time>
</trkpt>
<trkpt lat="49.276199312880635" lon="9.447977989912031">
<ele>183.2</ele>
<time>2024-05-08T09:12:21Z</time>
</trkpt>
<trkpt lat="49.27615354768932" lon="9.447935074567797">
<ele>183.2</ele>
<time>2024-05-08T09:12:22Z</time>
</trkpt>
<trkpt lat="49.276107782498" lon="9.447893081232904">
<ele>183.4</ele>
<time>2024-05-08T09:12:23Z</time>
</trkpt>
<trkpt lat="49.276061933487654" lon="9.44784639403224">
<ele>183.4</ele>
<time>2024-05-08T09:12:24Z</time>
</trkpt>
<trkpt lat="49.27601616829634" lon="9.447798701003194">
<ele>183.4</ele>
<time>2024-05-08T09:12:25Z</time>
</trkpt>
<trkpt lat="49.27597425878048" lon="9.447752935811875">
<ele>183.6</ele>
<time>2024-05-08T09:12:26Z</time>
</trkpt>
<trkpt lat="49.27593226544559" lon="9.447711864486337">
<ele>183.8</ele>
<time>2024-05-08T09:12:27Z</time>
</trkpt>
<trkpt lat="49.2758902721107" lon="9.44766802713275">
<ele>183.8</ele>
<time>2024-05-08T09:12:28Z</time>
</trkpt>
<trkpt lat="49.27585213445127" lon="9.44762703962624">
<ele>184</ele>
<time>2024-05-08T09:12:30Z</time>
</trkpt>
<trkpt lat="49.27576823160052" lon="9.447551686316729">
<ele>184</ele>
<time>2024-05-08T09:12:31Z</time>
</trkpt>
<trkpt lat="49.27573772147298" lon="9.447515476495028">
<ele>184</ele>
<time>2024-05-08T09:12:33Z</time>
</trkpt>
<trkpt lat="49.275707211345434" lon="9.447482032701371">
<ele>184.2</ele>
<time>2024-05-08T09:12:34Z</time>
</trkpt>
<trkpt lat="49.27567670121789" lon="9.447451522573829">
<ele>184.2</ele>
<time>2024-05-08T09:12:35Z</time>
</trkpt>
<trkpt lat="49.2756156809628" lon="9.447402907535434">
<ele>184.4</ele>
<time>2024-05-08T09:12:36Z</time>
</trkpt>
<trkpt lat="49.27558517083526" lon="9.447373319417238">
<ele>184.6</ele>
<time>2024-05-08T09:12:37Z</time>
</trkpt>
<trkpt lat="49.27555080503225" lon="9.447346664965153">
<ele>184.8</ele>
<time>2024-05-08T09:12:38Z</time>
</trkpt>
<trkpt lat="49.27551643922925" lon="9.447315149009228">
<ele>184.8</ele>
<time>2024-05-08T09:12:39Z</time>
</trkpt>
<trkpt lat="49.27547830156982" lon="9.447281789034603">
<ele>185</ele>
<time>2024-05-08T09:12:40Z</time>
</trkpt>
<trkpt lat="49.27544016391039" lon="9.447248429059982">
<ele>185.2</ele>
<time>2024-05-08T09:12:41Z</time>
</trkpt>
<trkpt lat="49.27540202625096" lon="9.447216913104056">
<ele>185.2</ele>
<time>2024-05-08T09:12:42Z</time>
</trkpt>
<trkpt lat="49.275371516123414" lon="9.447181625291703">
<ele>185.4</ele>
<time>2024-05-08T09:12:43Z</time>
</trkpt>
<trkpt lat="49.27533715032041" lon="9.447146337479351">
<ele>185.6</ele>
<time>2024-05-08T09:12:44Z</time>
</trkpt>
<trkpt lat="49.27529901266098" lon="9.44711490534246">
<ele>185.8</ele>
<time>2024-05-08T09:12:45Z</time>
</trkpt>
<trkpt lat="49.27526087500155" lon="9.447081545367835">
<ele>185.8</ele>
<time>2024-05-08T09:12:46Z</time>
</trkpt>
<trkpt lat="49.27521510981023" lon="9.447045251727104">
<ele>186</ele>
<time>2024-05-08T09:12:47Z</time>
</trkpt>
<trkpt lat="49.275173116475344" lon="9.44701189175248">
<ele>186</ele>
<time>2024-05-08T09:12:48Z</time>
</trkpt>
<trkpt lat="49.2751235794276" lon="9.44697660394013">
<ele>186</ele>
<time>2024-05-08T09:12:49Z</time>
</trkpt>
<trkpt lat="49.2750701867044" lon="9.446940394118428">
<ele>186.2</ele>
<time>2024-05-08T09:12:50Z</time>
</trkpt>
<trkpt lat="49.27501671016216" lon="9.446903178468348">
<ele>186.2</ele>
<time>2024-05-08T09:12:51Z</time>
</trkpt>
<trkpt lat="49.27496331743896" lon="9.446865040808916">
<ele>186.2</ele>
<time>2024-05-08T09:12:52Z</time>
</trkpt>
<trkpt lat="49.27490992471576" lon="9.446829752996564">
<ele>186.2</ele>
<time>2024-05-08T09:12:53Z</time>
</trkpt>
<trkpt lat="49.274856531992555" lon="9.446794465184212">
<ele>186.2</ele>
<time>2024-05-08T09:12:54Z</time>
</trkpt>
<trkpt lat="49.27480313926935" lon="9.44675825536251">
<ele>186.2</ele>
<time>2024-05-08T09:12:55Z</time>
</trkpt>
<trkpt lat="49.27474589087069" lon="9.44672296755016">
<ele>186.2</ele>
<time>2024-05-08T09:12:56Z</time>
</trkpt>
<trkpt lat="49.27468864247203" lon="9.446688601747155">
<ele>186.2</ele>
<time>2024-05-08T09:12:57Z</time>
</trkpt>
<trkpt lat="49.274635249748826" lon="9.446651386097074">
<ele>186.2</ele>
<time>2024-05-08T09:12:58Z</time>
</trkpt>
<trkpt lat="49.27458185702562" lon="9.446617104113102">
<ele>186.2</ele>
<time>2024-05-08T09:12:59Z</time>
</trkpt>
<trkpt lat="49.27452846430242" lon="9.44657988846302">
<ele>186.2</ele>
<time>2024-05-08T09:13:00Z</time>
</trkpt>
<trkpt lat="49.27447121590376" lon="9.446544600650668">
<ele>186.2</ele>
<time>2024-05-08T09:13:01Z</time>
</trkpt>
<trkpt lat="49.27441405132413" lon="9.446513168513777">
<ele>186.2</ele>
<time>2024-05-08T09:13:02Z</time>
</trkpt>
<trkpt lat="49.274360574781895" lon="9.44648165255785">
<ele>186.2</ele>
<time>2024-05-08T09:13:03Z</time>
</trkpt>
<trkpt lat="49.27430718205869" lon="9.446453070268037">
<ele>186.2</ele>
<time>2024-05-08T09:13:04Z</time>
</trkpt>
<trkpt lat="49.27425378933549" lon="9.44642348214984">
<ele>186.2</ele>
<time>2024-05-08T09:13:05Z</time>
</trkpt>
<trkpt lat="49.27420039661229" lon="9.446394899860024">
<ele>186.2</ele>
<time>2024-05-08T09:13:06Z</time>
</trkpt>
<trkpt lat="49.27415077574551" lon="9.446368161588907">
<ele>186.2</ele>
<time>2024-05-08T09:13:07Z</time>
</trkpt>
<trkpt lat="49.27410123869777" lon="9.446338573470712">
<ele>186.2</ele>
<time>2024-05-08T09:13:08Z</time>
</trkpt>
<trkpt lat="49.27405161783099" lon="9.446311919018626">
<ele>186.2</ele>
<time>2024-05-08T09:13:09Z</time>
</trkpt>
<trkpt lat="49.27399436943233" lon="9.446283336728811">
<ele>186.2</ele>
<time>2024-05-08T09:13:10Z</time>
</trkpt>
<trkpt lat="49.27394097670913" lon="9.446254670619965">
<ele>186.2</ele>
<time>2024-05-08T09:13:11Z</time>
</trkpt>
<trkpt lat="49.273887583985925" lon="9.4462270103395">
<ele>186.2</ele>
<time>2024-05-08T09:13:12Z</time>
</trkpt>
<trkpt lat="49.27383033558726" lon="9.446201277896762">
<ele>186.2</ele>
<time>2024-05-08T09:13:13Z</time>
</trkpt>
<trkpt lat="49.27377694286406" lon="9.446178395301104">
<ele>186.2</ele>
<time>2024-05-08T09:13:14Z</time>
</trkpt>
<trkpt lat="49.27372355014086" lon="9.446151657029986">
<ele>186.2</ele>
<time>2024-05-08T09:13:15Z</time>
</trkpt>
<trkpt lat="49.27367392927408" lon="9.446121146902442">
<ele>186.2</ele>
<time>2024-05-08T09:13:16Z</time>
</trkpt>
<trkpt lat="49.273628164082766" lon="9.446094492450356">
<ele>186.2</ele>
<time>2024-05-08T09:13:17Z</time>
</trkpt>
<trkpt lat="49.27357477135956" lon="9.446069682016969">
<ele>186.2</ele>
<time>2024-05-08T09:13:18Z</time>
</trkpt>
<trkpt lat="49.27352137863636" lon="9.44604872725904">
<ele>186.4</ele>
<time>2024-05-08T09:13:19Z</time>
</trkpt>
<trkpt lat="49.27346798591316" lon="9.44602869451046">
<ele>186.4</ele>
<time>2024-05-08T09:13:20Z</time>
</trkpt>
<trkpt lat="49.273414593189955" lon="9.44600866176188">
<ele>186.6</ele>
<time>2024-05-08T09:13:21Z</time>
</trkpt>
<trkpt lat="49.27335734479129" lon="9.4459886290133">
<ele>186.6</ele>
<time>2024-05-08T09:13:22Z</time>
</trkpt>
<trkpt lat="49.27330009639263" lon="9.44596859626472">
<ele>186.6</ele>
<time>2024-05-08T09:13:23Z</time>
</trkpt>
<trkpt lat="49.27324670366943" lon="9.445949485525489">
<ele>186.6</ele>
<time>2024-05-08T09:13:24Z</time>
</trkpt>
<trkpt lat="49.273193310946226" lon="9.445931380614638">
<ele>186.4</ele>
<time>2024-05-08T09:13:25Z</time>
</trkpt>
<trkpt lat="49.27313991822302" lon="9.445913275703788">
<ele>186.4</ele>
<time>2024-05-08T09:13:26Z</time>
</trkpt>
<trkpt lat="49.27309029735625" lon="9.445901792496445">
<ele>186.4</ele>
<time>2024-05-08T09:13:27Z</time>
</trkpt>
<trkpt lat="49.27303313277662" lon="9.445891315117478">
<ele>186.2</ele>
<time>2024-05-08T09:13:28Z</time>
</trkpt>
<trkpt lat="49.272979656234384" lon="9.445877065882089">
<ele>186.2</ele>
<time>2024-05-08T09:13:29Z</time>
</trkpt>
<trkpt lat="49.27292626351118" lon="9.445863654837012">
<ele>186</ele>
<time>2024-05-08T09:13:30Z</time>
</trkpt>
<trkpt lat="49.27287287078798" lon="9.445851249620318">
<ele>186</ele>
<time>2024-05-08T09:13:31Z</time>
</trkpt>
<trkpt lat="49.272823333740234" lon="9.445844627916811">
<ele>186</ele>
<time>2024-05-08T09:13:32Z</time>
</trkpt>
<trkpt lat="49.272769857198" lon="9.445837000384929">
<ele>185.8</ele>
<time>2024-05-08T09:13:33Z</time>
</trkpt>
<trkpt lat="49.27272409200668" lon="9.44582836702466">
<ele>185.8</ele>
<time>2024-05-08T09:13:34Z</time>
</trkpt>
<trkpt lat="49.27267832681537" lon="9.445815039798616">
<ele>185.8</ele>
<time>2024-05-08T09:13:35Z</time>
</trkpt>
<trkpt lat="49.27263256162405" lon="9.44580833427608">
<ele>185.8</ele>
<time>2024-05-08T09:13:36Z</time>
</trkpt>
<trkpt lat="49.272582940757275" lon="9.445799784734843">
<ele>185.8</ele>
<time>2024-05-08T09:13:37Z</time>
</trkpt>
<trkpt lat="49.27253340370953" lon="9.44579022936523">
<ele>186</ele>
<time>2024-05-08T09:13:38Z</time>
</trkpt>
<trkpt lat="49.272483782842755" lon="9.445781679823996">
<ele>186</ele>
<time>2024-05-08T09:13:39Z</time>
</trkpt>
<trkpt lat="49.27243416197598" lon="9.445768352597952">
<ele>186.2</ele>
<time>2024-05-08T09:13:40Z</time>
</trkpt>
<trkpt lat="49.27238839678466" lon="9.445758797228336">
<ele>186.2</ele>
<time>2024-05-08T09:13:41Z</time>
</trkpt>
<trkpt lat="49.27234263159335" lon="9.44575016386807">
<ele>186.2</ele>
<time>2024-05-08T09:13:42Z</time>
</trkpt>
<trkpt lat="49.27229686640203" lon="9.445745386183262">
<ele>186.2</ele>
<time>2024-05-08T09:13:43Z</time>
</trkpt>
<trkpt lat="49.27224347367883" lon="9.445736836642029">
<ele>186.2</ele>
<time>2024-05-08T09:13:44Z</time>
</trkpt>
<trkpt lat="49.272186225280166" lon="9.445723509415984">
<ele>186</ele>
<time>2024-05-08T09:13:45Z</time>
</trkpt>
<trkpt lat="49.272128976881504" lon="9.44571202620864">
<ele>186</ele>
<time>2024-05-08T09:13:46Z</time>
</trkpt>
<trkpt lat="49.272071812301874" lon="9.445699620991943">
<ele>186</ele>
<time>2024-05-08T09:13:47Z</time>
</trkpt>
<trkpt lat="49.272010792046785" lon="9.445694843307136">
<ele>185.8</ele>
<time>2024-05-08T09:13:48Z</time>
</trkpt>
<trkpt lat="49.27195354364813" lon="9.445694843307136">
<ele>185.8</ele>
<time>2024-05-08T09:13:49Z</time>
</trkpt>
<trkpt lat="49.27190015092492" lon="9.44569299928844">
<ele>185.8</ele>
<time>2024-05-08T09:13:50Z</time>
</trkpt>
<trkpt lat="49.27184675820172" lon="9.44569199346006">
<ele>185.6</ele>
<time>2024-05-08T09:13:51Z</time>
</trkpt>
<trkpt lat="49.27179336547851" lon="9.445688221603632">
<ele>185.6</ele>
<time>2024-05-08T09:13:52Z</time>
</trkpt>
<trkpt lat="49.271736117079854" lon="9.44569199346006">
<ele>185.6</ele>
<time>2024-05-08T09:13:53Z</time>
</trkpt>
<trkpt lat="49.27167886868119" lon="9.445706326514482">
<ele>185.6</ele>
<time>2024-05-08T09:13:54Z</time>
</trkpt>
<trkpt lat="49.27162547595799" lon="9.445714876055716">
<ele>185.6</ele>
<time>2024-05-08T09:13:55Z</time>
</trkpt>
<trkpt lat="49.27157208323479" lon="9.44573013111949">
<ele>185.6</ele>
<time>2024-05-08T09:13:56Z</time>
</trkpt>
<trkpt lat="49.271514834836125" lon="9.445745386183262">
<ele>185.4</ele>
<time>2024-05-08T09:13:57Z</time>
</trkpt>
<trkpt lat="49.27145004272461" lon="9.445761647075416">
<ele>185.4</ele>
<time>2024-05-08T09:13:58Z</time>
</trkpt>
<trkpt lat="49.27138893865049" lon="9.445781679823996">
<ele>185.4</ele>
<time>2024-05-08T09:13:59Z</time>
</trkpt>
<trkpt lat="49.2713279183954" lon="9.445801712572576">
<ele>185.4</ele>
<time>2024-05-08T09:14:00Z</time>
</trkpt>
<trkpt lat="49.27127066999674" lon="9.445816967636349">
<ele>185.2</ele>
<time>2024-05-08T09:14:01Z</time>
</trkpt>
<trkpt lat="49.27121350541711" lon="9.445831216871738">
<ele>185.2</ele>
<time>2024-05-08T09:14:02Z</time>
</trkpt>
<trkpt lat="49.27115625701845" lon="9.445846555754542">
<ele>185</ele>
<time>2024-05-08T09:14:03Z</time>
</trkpt>
<trkpt lat="49.2711067199707" lon="9.44586650468409">
<ele>185</ele>
<time>2024-05-08T09:14:04Z</time>
</trkpt>
<trkpt lat="49.27105709910393" lon="9.44588653743267">
<ele>184.8</ele>
<time>2024-05-08T09:14:05Z</time>
</trkpt>
<trkpt lat="49.27100747823715" lon="9.44590657018125">
<ele>184.6</ele>
<time>2024-05-08T09:14:06Z</time>
</trkpt>
<trkpt lat="49.27095794118941" lon="9.44592853076756">
<ele>184.4</ele>
<time>2024-05-08T09:14:07Z</time>
</trkpt>
<trkpt lat="49.27090832032263" lon="9.44594856351614">
<ele>184.6</ele>
<time>2024-05-08T09:14:08Z</time>
</trkpt>
<trkpt lat="49.27085869945586" lon="9.445973373949528">
<ele>184.6</ele>
<time>2024-05-08T09:14:09Z</time>
</trkpt>
<trkpt lat="49.270805306732655" lon="9.44600480608642">
<ele>184.6</ele>
<time>2024-05-08T09:14:10Z</time>
</trkpt>
<trkpt lat="49.270744286477566" lon="9.446040093898771">
<ele>184.4</ele>
<time>2024-05-08T09:14:11Z</time>
</trkpt>
<trkpt lat="49.27068326622248" lon="9.446076387539506">
<ele>184.4</ele>
<time>2024-05-08T09:14:12Z</time>
</trkpt>
<trkpt lat="49.27062224596739" lon="9.446120224893091">
<ele>184.2</ele>
<time>2024-05-08T09:14:13Z</time>
</trkpt>
<trkpt lat="49.27055737003684" lon="9.44616791792214">
<ele>184</ele>
<time>2024-05-08T09:14:14Z</time>
</trkpt>
<trkpt lat="49.27049249410629" lon="9.446218460798264">
<ele>184</ele>
<time>2024-05-08T09:14:15Z</time>
</trkpt>
<trkpt lat="49.27042770199478" lon="9.446269925683737">
<ele>183.8</ele>
<time>2024-05-08T09:14:16Z</time>
</trkpt>
<trkpt lat="49.270366597920656" lon="9.446319546550512">
<ele>183.8</ele>
<time>2024-05-08T09:14:17Z</time>
</trkpt>
<trkpt lat="49.27030557766557" lon="9.446368161588907">
<ele>183.6</ele>
<time>2024-05-08T09:14:18Z</time>
</trkpt>
<trkpt lat="49.27024455741048" lon="9.446413004770877">
<ele>183.6</ele>
<time>2024-05-08T09:14:19Z</time>
</trkpt>
<trkpt lat="49.27018353715539" lon="9.446454998105764">
<ele>183.6</ele>
<time>2024-05-08T09:14:20Z</time>
</trkpt>
<trkpt lat="49.27012628875673" lon="9.446494979783893">
<ele>183.6</ele>
<time>2024-05-08T09:14:21Z</time>
</trkpt>
<trkpt lat="49.270072896033525" lon="9.446533201262357">
<ele>183.8</ele>
<time>2024-05-08T09:14:22Z</time>
</trkpt>
<trkpt lat="49.27001950331032" lon="9.446573182940485">
<ele>183.8</ele>
<time>2024-05-08T09:14:23Z</time>
</trkpt>
<trkpt lat="49.26996988244355" lon="9.446613248437645">
<ele>184</ele>
<time>2024-05-08T09:14:24Z</time>
</trkpt>
<trkpt lat="49.269916489720345" lon="9.446648536249995">
<ele>184</ele>
<time>2024-05-08T09:14:25Z</time>
</trkpt>
<trkpt lat="49.26986686885357" lon="9.446688601747155">
<ele>184</ele>
<time>2024-05-08T09:14:26Z</time>
</trkpt>
<trkpt lat="49.269813476130366" lon="9.44672296755016">
<ele>184</ele>
<time>2024-05-08T09:14:27Z</time>
</trkpt>
<trkpt lat="49.26976771093905" lon="9.44675825536251">
<ele>184</ele>
<time>2024-05-08T09:14:28Z</time>
</trkpt>
<trkpt lat="49.269718090072274" lon="9.446793543174865">
<ele>183.8</ele>
<time>2024-05-08T09:14:29Z</time>
</trkpt>
<trkpt lat="49.269657069817185" lon="9.446824975311756">
<ele>183.8</ele>
<time>2024-05-08T09:14:30Z</time>
</trkpt>
<trkpt lat="49.26960367709398" lon="9.446854563429952">
<ele>183.8</ele>
<time>2024-05-08T09:14:31Z</time>
</trkpt>
<trkpt lat="49.26954642869532" lon="9.446887001395226">
<ele>183.8</ele>
<time>2024-05-08T09:14:32Z</time>
</trkpt>
<trkpt lat="49.26949303597212" lon="9.446921283379195">
<ele>183.8</ele>
<time>2024-05-08T09:14:33Z</time>
</trkpt>
<trkpt lat="49.26943587139249" lon="9.446954727172852">
<ele>184</ele>
<time>2024-05-08T09:14:34Z</time>
</trkpt>
<trkpt lat="49.26937862299383" lon="9.446981381624935">
<ele>184</ele>
<time>2024-05-08T09:14:35Z</time>
</trkpt>
<trkpt lat="49.269325230270624" lon="9.447008119896054">
<ele>184</ele>
<time>2024-05-08T09:14:36Z</time>
</trkpt>
<trkpt lat="49.26927560940385" lon="9.44703670218587">
<ele>184</ele>
<time>2024-05-08T09:14:37Z</time>
</trkpt>
<trkpt lat="49.26922984421253" lon="9.447063440456986">
<ele>184</ele>
<time>2024-05-08T09:14:38Z</time>
</trkpt>
<trkpt lat="49.269184079021215" lon="9.447088167071342">
<ele>184</ele>
<time>2024-05-08T09:14:39Z</time>
</trkpt>
<trkpt lat="49.269145941361785" lon="9.44711683318019">
<ele>184</ele>
<time>2024-05-08T09:14:40Z</time>
</trkpt>
<trkpt lat="49.269103948026896" lon="9.447143487632276">
<ele>184</ele>
<time>2024-05-08T09:14:41Z</time>
</trkpt>
<trkpt lat="49.26906203851104" lon="9.447170225903392">
<ele>184</ele>
<time>2024-05-08T09:14:42Z</time>
</trkpt>
<trkpt lat="49.26902004517615" lon="9.44719310849905">
<ele>184</ele>
<time>2024-05-08T09:14:43Z</time>
</trkpt>
<trkpt lat="49.26897805184126" lon="9.44721314124763">
<ele>183.8</ele>
<time>2024-05-08T09:14:44Z</time>
</trkpt>
<trkpt lat="49.26893228664994" lon="9.447241723537443">
<ele>183.8</ele>
<time>2024-05-08T09:14:45Z</time>
</trkpt>
<trkpt lat="49.268886521458626" lon="9.447268461808562">
<ele>183.8</ele>
<time>2024-05-08T09:14:46Z</time>
</trkpt>
<trkpt lat="49.26884075626731" lon="9.447297044098375">
<ele>183.8</ele>
<time>2024-05-08T09:14:47Z</time>
</trkpt>
<trkpt lat="49.26879499107599" lon="9.447321854531763">
<ele>183.8</ele>
<time>2024-05-08T09:14:48Z</time>
</trkpt>
<trkpt lat="49.26874922588467" lon="9.447346664965153">
<ele>183.6</ele>
<time>2024-05-08T09:14:49Z</time>
</trkpt>
<trkpt lat="49.26870346069336" lon="9.447375247254968">
<ele>183.6</ele>
<time>2024-05-08T09:14:50Z</time>
</trkpt>
<trkpt lat="49.26866146735847" lon="9.447396202012897">
<ele>183.6</ele>
<time>2024-05-08T09:14:51Z</time>
</trkpt>
<trkpt lat="49.26862332969904" lon="9.447420090436935">
<ele>183.4</ele>
<time>2024-05-08T09:14:52Z</time>
</trkpt>
<trkpt lat="49.26858133636415" lon="9.447442051023245">
<ele>183.4</ele>
<time>2024-05-08T09:14:53Z</time>
</trkpt>
<trkpt lat="49.26853942684829" lon="9.447463005781174">
<ele>183.2</ele>
<time>2024-05-08T09:14:54Z</time>
</trkpt>
<trkpt lat="49.2684974335134" lon="9.447484966367483">
<ele>183.2</ele>
<time>2024-05-08T09:14:55Z</time>
</trkpt>
<trkpt lat="49.26845544017851" lon="9.44750784896314">
<ele>183.2</ele>
<time>2024-05-08T09:14:56Z</time>
</trkpt>
<trkpt lat="49.268413530662656" lon="9.447533581405878">
<ele>183</ele>
<time>2024-05-08T09:14:57Z</time>
</trkpt>
<trkpt lat="49.268371537327766" lon="9.447560235857964">
<ele>183</ele>
<time>2024-05-08T09:14:59Z</time>
</trkpt>
<trkpt lat="49.26828763447702" lon="9.447611784562469">
<ele>183</ele>
<time>2024-05-08T09:15:00Z</time>
</trkpt>
<trkpt lat="49.2682418692857" lon="9.447640366852283">
<ele>183</ele>
<time>2024-05-08T09:15:01Z</time>
</trkpt>
<trkpt lat="49.268196104094386" lon="9.44766995497048">
<ele>183</ele>
<time>2024-05-08T09:15:02Z</time>
</trkpt>
<trkpt lat="49.2681541107595" lon="9.447699543088676">
<ele>183.2</ele>
<time>2024-05-08T09:15:03Z</time>
</trkpt>
<trkpt lat="49.26810834556818" lon="9.44772619754076">
<ele>183.2</ele>
<time>2024-05-08T09:15:04Z</time>
</trkpt>
<trkpt lat="49.26807020790875" lon="9.4477500859648">
<ele>183.2</ele>
<time>2024-05-08T09:15:05Z</time>
</trkpt>
<trkpt lat="49.26802821457386" lon="9.447772968560455">
<ele>183.2</ele>
<time>2024-05-08T09:15:06Z</time>
</trkpt>
<trkpt lat="49.26799007691443" lon="9.447796773165464">
<ele>183.2</ele>
<time>2024-05-08T09:15:07Z</time>
</trkpt>
<trkpt lat="49.267951939255" lon="9.447819655761124">
<ele>183</ele>
<time>2024-05-08T09:15:08Z</time>
</trkpt>
<trkpt lat="49.26791380159557" lon="9.447839688509704">
<ele>183</ele>
<time>2024-05-08T09:15:09Z</time>
</trkpt>
<trkpt lat="49.26787566393614" lon="9.447859721258284">
<ele>183</ele>
<time>2024-05-08T09:15:10Z</time>
</trkpt>
<trkpt lat="49.26782981492579" lon="9.447881681844592">
<ele>183.2</ele>
<time>2024-05-08T09:15:11Z</time>
</trkpt>
<trkpt lat="49.26779167726636" lon="9.44790355861187">
<ele>183.2</ele>
<time>2024-05-08T09:15:12Z</time>
</trkpt>
<trkpt lat="49.26774591207504" lon="9.447930296882989">
<ele>183.2</ele>
<time>2024-05-08T09:15:13Z</time>
</trkpt>
<trkpt lat="49.267700146883726" lon="9.447955107316377">
<ele>183.2</ele>
<time>2024-05-08T09:15:14Z</time>
</trkpt>
<trkpt lat="49.26765438169241" lon="9.44798176176846">
<ele>183.2</ele>
<time>2024-05-08T09:15:15Z</time>
</trkpt>
<trkpt lat="49.267604760825634" lon="9.448006572201848">
<ele>183.2</ele>
<time>2024-05-08T09:15:16Z</time>
</trkpt>
<trkpt lat="49.26755899563432" lon="9.448035238310696">
<ele>183</ele>
<time>2024-05-08T09:15:17Z</time>
</trkpt>
<trkpt lat="49.267509458586574" lon="9.44806474260986">
<ele>183</ele>
<time>2024-05-08T09:15:18Z</time>
</trkpt>
<trkpt lat="49.267463609576225" lon="9.44809810258448">
<ele>183</ele>
<time>2024-05-08T09:15:19Z</time>
</trkpt>
<trkpt lat="49.26741407252848" lon="9.448126768693328">
<ele>183</ele>
<time>2024-05-08T09:15:20Z</time>
</trkpt>
<trkpt lat="49.26736067980528" lon="9.44816012866795">
<ele>182.8</ele>
<time>2024-05-08T09:15:21Z</time>
</trkpt>
<trkpt lat="49.26730720326304" lon="9.448189716786146">
<ele>182.8</ele>
<time>2024-05-08T09:15:22Z</time>
</trkpt>
<trkpt lat="49.267250038683414" lon="9.448223076760767">
<ele>183</ele>
<time>2024-05-08T09:15:23Z</time>
</trkpt>
<trkpt lat="49.26718516275287" lon="9.44825836457312">
<ele>183</ele>
<time>2024-05-08T09:15:24Z</time>
</trkpt>
<trkpt lat="49.26712028682232" lon="9.448294574394822">
<ele>183</ele>
<time>2024-05-08T09:15:25Z</time>
</trkpt>
<trkpt lat="49.267051639035344" lon="9.448331790044904">
<ele>183</ele>
<time>2024-05-08T09:15:26Z</time>
</trkpt>
<trkpt lat="49.26697913557291" lon="9.448369927704334">
<ele>183.2</ele>
<time>2024-05-08T09:15:27Z</time>
</trkpt>
<trkpt lat="49.26690671592951" lon="9.448408065363765">
<ele>183.2</ele>
<time>2024-05-08T09:15:28Z</time>
</trkpt>
<trkpt lat="49.26683044061065" lon="9.448448130860925">
<ele>183.4</ele>
<time>2024-05-08T09:15:29Z</time>
</trkpt>
<trkpt lat="49.266754081472754" lon="9.448483418673275">
<ele>183.6</ele>
<time>2024-05-08T09:15:30Z</time>
</trkpt>
<trkpt lat="49.26668166182935" lon="9.448521556332707">
<ele>183.6</ele>
<time>2024-05-08T09:15:31Z</time>
</trkpt>
<trkpt lat="49.266612930223346" lon="9.448558771982787">
<ele>183.6</ele>
<time>2024-05-08T09:15:32Z</time>
</trkpt>
<trkpt lat="49.26654428243637" lon="9.44859498180449">
<ele>183.4</ele>
<time>2024-05-08T09:15:33Z</time>
</trkpt>
<trkpt lat="49.266479490324855" lon="9.44863311946392">
<ele>183.4</ele>
<time>2024-05-08T09:15:34Z</time>
</trkpt>
<trkpt lat="49.266418386250734" lon="9.44867318496108">
<ele>183.6</ele>
<time>2024-05-08T09:15:35Z</time>
</trkpt>
<trkpt lat="49.266361221671104" lon="9.448708472773433">
<ele>183.6</ele>
<time>2024-05-08T09:15:36Z</time>
</trkpt>
<trkpt lat="49.266300201416016" lon="9.448746610432863">
<ele>183.8</ele>
<time>2024-05-08T09:15:37Z</time>
</trkpt>
<trkpt lat="49.26624672487378" lon="9.448780054226518">
<ele>184</ele>
<time>2024-05-08T09:15:38Z</time>
</trkpt>
<trkpt lat="49.26619718782604" lon="9.44881626404822">
<ele>184</ele>
<time>2024-05-08T09:15:39Z</time>
</trkpt>
<trkpt lat="49.26614756695926" lon="9.4488534796983">
<ele>184.2</ele>
<time>2024-05-08T09:15:40Z</time>
</trkpt>
<trkpt lat="49.266097946092486" lon="9.44888968952">
<ele>184.4</ele>
<time>2024-05-08T09:15:41Z</time>
</trkpt>
<trkpt lat="49.26605218090117" lon="9.448926905170085">
<ele>184.4</ele>
<time>2024-05-08T09:15:42Z</time>
</trkpt>
<trkpt lat="49.26600641570985" lon="9.448961187154056">
<ele>184.6</ele>
<time>2024-05-08T09:15:43Z</time>
</trkpt>
<trkpt lat="49.26596065051854" lon="9.448998402804136">
<ele>184.6</ele>
<time>2024-05-08T09:15:44Z</time>
</trkpt>
<trkpt lat="49.26591488532722" lon="9.449033690616488">
<ele>184.6</ele>
<time>2024-05-08T09:15:45Z</time>
</trkpt>
<trkpt lat="49.26587674766779" lon="9.449074678122996">
<ele>184.6</ele>
<time>2024-05-08T09:15:46Z</time>
</trkpt>
<trkpt lat="49.26585000939667" lon="9.449105188250542">
<ele>184.6</ele>
<time>2024-05-08T09:15:47Z</time>
</trkpt>
<trkpt lat="49.2658157274127" lon="9.449132848531008">
<ele>184.6</ele>
<time>2024-05-08T09:15:48Z</time>
</trkpt>
<trkpt lat="49.2657813616097" lon="9.449166292324662">
<ele>184.6</ele>
<time>2024-05-08T09:15:49Z</time>
</trkpt>
<trkpt lat="49.26574322395027" lon="9.449201580137014">
<ele>184.6</ele>
<time>2024-05-08T09:15:50Z</time>
</trkpt>
<trkpt lat="49.26571271382272" lon="9.449241561815144">
<ele>184.6</ele>
<time>2024-05-08T09:15:52Z</time>
</trkpt>
<trkpt lat="49.26564406603575" lon="9.449321692809464">
<ele>184.4</ele>
<time>2024-05-08T09:15:53Z</time>
</trkpt>
<trkpt lat="49.265605844557285" lon="9.449350275099276">
<ele>184.4</ele>
<time>2024-05-08T09:15:54Z</time>
</trkpt>
<trkpt lat="49.265567706897855" lon="9.449379863217471">
<ele>184.4</ele>
<time>2024-05-08T09:15:55Z</time>
</trkpt>
<trkpt lat="49.26553342491388" lon="9.449415151029823">
<ele>184.2</ele>
<time>2024-05-08T09:15:56Z</time>
</trkpt>
<trkpt lat="49.26549528725445" lon="9.449449516832829">
<ele>184.2</ele>
<time>2024-05-08T09:15:57Z</time>
</trkpt>
<trkpt lat="49.26545714959502" lon="9.44948480464518">
<ele>184.2</ele>
<time>2024-05-08T09:15:59Z</time>
</trkpt>
<trkpt lat="49.26537316292524" lon="9.449555380269883">
<ele>184.2</ele>
<time>2024-05-08T09:16:00Z</time>
</trkpt>
<trkpt lat="49.265331253409386" lon="9.449593517929316">
<ele>184</ele>
<time>2024-05-08T09:16:01Z</time>
</trkpt>
<trkpt lat="49.265289260074496" lon="9.449624950066209">
<ele>184</ele>
<time>2024-05-08T09:16:02Z</time>
</trkpt>
<trkpt lat="49.265251122415066" lon="9.449658393859863">
<ele>183.8</ele>
<time>2024-05-08T09:16:03Z</time>
</trkpt>
<trkpt lat="49.265212984755635" lon="9.449696531519294">
<ele>183.6</ele>
<time>2024-05-08T09:16:04Z</time>
</trkpt>
<trkpt lat="49.265174847096205" lon="9.449734669178724">
<ele>183.6</ele>
<time>2024-05-08T09:16:05Z</time>
</trkpt>
<trkpt lat="49.265132853761315" lon="9.44976132363081">
<ele>183.6</ele>
<time>2024-05-08T09:16:06Z</time>
</trkpt>
<trkpt lat="49.265090860426426" lon="9.449791833758354">
<ele>183.6</ele>
<time>2024-05-08T09:16:07Z</time>
</trkpt>
<trkpt lat="49.265052722766995" lon="9.44982334971428">
<ele>183.6</ele>
<time>2024-05-08T09:16:08Z</time>
</trkpt>
<trkpt lat="49.265014585107565" lon="9.449852937832476">
<ele>183.6</ele>
<time>2024-05-08T09:16:09Z</time>
</trkpt>
<trkpt lat="49.264976447448134" lon="9.449888225644829">
<ele>183.4</ele>
<time>2024-05-08T09:16:10Z</time>
</trkpt>
<trkpt lat="49.264938309788704" lon="9.449930135160685">
<ele>183.4</ele>
<time>2024-05-08T09:16:11Z</time>
</trkpt>
<trkpt lat="49.2649039439857" lon="9.449974978342652">
<ele>183.2</ele>
<time>2024-05-08T09:16:12Z</time>
</trkpt>
<trkpt lat="49.26486580632627" lon="9.450016971677542">
<ele>183.2</ele>
<time>2024-05-08T09:16:13Z</time>
</trkpt>
<trkpt lat="49.26482766866684" lon="9.45005795918405">
<ele>183.2</ele>
<time>2024-05-08T09:16:14Z</time>
</trkpt>
<trkpt lat="49.26478575915098" lon="9.450095174834132">
<ele>183.2</ele>
<time>2024-05-08T09:16:15Z</time>
</trkpt>
<trkpt lat="49.264739910140634" lon="9.450131384655831">
<ele>183.2</ele>
<time>2024-05-08T09:16:16Z</time>
</trkpt>
<trkpt lat="49.2647017724812" lon="9.450173377990724">
<ele>183</ele>
<time>2024-05-08T09:16:17Z</time>
</trkpt>
<trkpt lat="49.264659862965345" lon="9.45021629333496">
<ele>182.8</ele>
<time>2024-05-08T09:16:18Z</time>
</trkpt>
<trkpt lat="49.26462549716234" lon="9.45025342516601">
<ele>182.8</ele>
<time>2024-05-08T09:16:19Z</time>
</trkpt>
<trkpt lat="49.26458735950291" lon="9.450288712978365">
<ele>182.8</ele>
<time>2024-05-08T09:16:20Z</time>
</trkpt>
<trkpt lat="49.26454922184348" lon="9.450325006619096">
<ele>182.8</ele>
<time>2024-05-08T09:16:21Z</time>
</trkpt>
<trkpt lat="49.26450722850859" lon="9.450369765982032">
<ele>182.8</ele>
<time>2024-05-08T09:16:22Z</time>
</trkpt>
<trkpt lat="49.26447294652462" lon="9.45041368715465">
<ele>182.8</ele>
<time>2024-05-08T09:16:23Z</time>
</trkpt>
<trkpt lat="49.26443480886519" lon="9.45045467466116">
<ele>183</ele>
<time>2024-05-08T09:16:24Z</time>
</trkpt>
<trkpt lat="49.26439658738673" lon="9.450503289699554">
<ele>183</ele>
<time>2024-05-08T09:16:25Z</time>
</trkpt>
<trkpt lat="49.26436230540275" lon="9.45055483840406">
<ele>183</ele>
<time>2024-05-08T09:16:26Z</time>
</trkpt>
<trkpt lat="49.26432793959975" lon="9.450599597766995">
<ele>183.2</ele>
<time>2024-05-08T09:16:27Z</time>
</trkpt>
<trkpt lat="49.26428980194032" lon="9.450641591101885">
<ele>183.2</ele>
<time>2024-05-08T09:16:29Z</time>
</trkpt>
<trkpt lat="49.26422115415335" lon="9.450733121484518">
<ele>183.2</ele>
<time>2024-05-08T09:16:30Z</time>
</trkpt>
<trkpt lat="49.264186788350344" lon="9.450777964666486">
<ele>183.2</ele>
<time>2024-05-08T09:16:31Z</time>
</trkpt>
<trkpt lat="49.26415250636637" lon="9.450823729857802">
<ele>183.2</ele>
<time>2024-05-08T09:16:32Z</time>
</trkpt>
<trkpt lat="49.26411814056337" lon="9.45086664520204">
<ele>183</ele>
<time>2024-05-08T09:16:33Z</time>
</trkpt>
<trkpt lat="49.2640838585794" lon="9.450901933014393">
<ele>183</ele>
<time>2024-05-08T09:16:34Z</time>
</trkpt>
<trkpt lat="49.264049492776394" lon="9.45094870403409">
<ele>183.2</ele>
<time>2024-05-08T09:16:35Z</time>
</trkpt>
<trkpt lat="49.26401512697339" lon="9.450978208333254">
<ele>183.2</ele>
<time>2024-05-08T09:16:36Z</time>
</trkpt>
<trkpt lat="49.26398084498942" lon="9.451013496145606">
<ele>183.2</ele>
<time>2024-05-08T09:16:37Z</time>
</trkpt>
<trkpt lat="49.263946479186416" lon="9.45104693993926">
<ele>183.2</ele>
<time>2024-05-08T09:16:38Z</time>
</trkpt>
<trkpt lat="49.26391219720245" lon="9.451091699302197">
<ele>183.2</ele>
<time>2024-05-08T09:16:39Z</time>
</trkpt>
<trkpt lat="49.26387783139944" lon="9.451131764799356">
<ele>183.4</ele>
<time>2024-05-08T09:16:40Z</time>
</trkpt>
<trkpt lat="49.26384346559644" lon="9.451169902458789">
<ele>183.6</ele>
<time>2024-05-08T09:16:41Z</time>
</trkpt>
<trkpt lat="49.263809183612466" lon="9.451209967955949">
<ele>183.8</ele>
<time>2024-05-08T09:16:42Z</time>
</trkpt>
<trkpt lat="49.26377481780946" lon="9.451251961290836">
<ele>183.8</ele>
<time>2024-05-08T09:16:43Z</time>
</trkpt>
<trkpt lat="49.26374053582549" lon="9.451294876635076">
<ele>184</ele>
<time>2024-05-08T09:16:44Z</time>
</trkpt>
<trkpt lat="49.263709941878915" lon="9.451334942132236">
<ele>184</ele>
<time>2024-05-08T09:16:45Z</time>
</trkpt>
<trkpt lat="49.26367943175137" lon="9.451375007629396">
<ele>184</ele>
<time>2024-05-08T09:16:46Z</time>
</trkpt>
<trkpt lat="49.263648921623826" lon="9.45142362266779">
<ele>184</ele>
<time>2024-05-08T09:16:47Z</time>
</trkpt>
<trkpt lat="49.26362603902817" lon="9.451475087553264">
<ele>184</ele>
<time>2024-05-08T09:16:48Z</time>
</trkpt>
<trkpt lat="49.26359938457608" lon="9.451531330123544">
<ele>183.8</ele>
<time>2024-05-08T09:16:49Z</time>
</trkpt>
<trkpt lat="49.263572646304965" lon="9.451582878828049">
<ele>183.8</ele>
<time>2024-05-08T09:16:50Z</time>
</trkpt>
<trkpt lat="49.26354590803385" lon="9.451629566028714">
<ele>183.8</ele>
<time>2024-05-08T09:16:51Z</time>
</trkpt>
<trkpt lat="49.26351925358176" lon="9.45167826488614">
<ele>183.8</ele>
<time>2024-05-08T09:16:52Z</time>
</trkpt>
<trkpt lat="49.26348488777876" lon="9.451726879924536">
<ele>183.8</ele>
<time>2024-05-08T09:16:53Z</time>
</trkpt>
<trkpt lat="49.26345060579479" lon="9.451780272647738">
<ele>183.8</ele>
<time>2024-05-08T09:16:54Z</time>
</trkpt>
<trkpt lat="49.263416239991784" lon="9.451840370893478">
<ele>183.8</ele>
<time>2024-05-08T09:16:55Z</time>
</trkpt>
<trkpt lat="49.263378102332354" lon="9.451898541301489">
<ele>183.6</ele>
<time>2024-05-08T09:16:56Z</time>
</trkpt>
<trkpt lat="49.26333996467292" lon="9.451959561556578">
<ele>183.6</ele>
<time>2024-05-08T09:16:57Z</time>
</trkpt>
<trkpt lat="49.26330182701349" lon="9.452025359496474">
<ele>183.4</ele>
<time>2024-05-08T09:16:58Z</time>
</trkpt>
<trkpt lat="49.2632598336786" lon="9.452090235427022">
<ele>183.2</ele>
<time>2024-05-08T09:16:59Z</time>
</trkpt>
<trkpt lat="49.263217924162745" lon="9.452156955376267">
<ele>183</ele>
<time>2024-05-08T09:17:00Z</time>
</trkpt>
<trkpt lat="49.26317970268428" lon="9.452226608991625">
<ele>182.8</ele>
<time>2024-05-08T09:17:01Z</time>
</trkpt>
<trkpt lat="49.263137793168426" lon="9.452296178787948">
<ele>182.6</ele>
<time>2024-05-08T09:17:02Z</time>
</trkpt>
<trkpt lat="49.263099655508995" lon="9.45236868225038">
<ele>182.2</ele>
<time>2024-05-08T09:17:03Z</time>
</trkpt>
<trkpt lat="49.263057662174106" lon="9.452441185712814">
<ele>181.8</ele>
<time>2024-05-08T09:17:04Z</time>
</trkpt>
<trkpt lat="49.263015668839216" lon="9.452516539022326">
<ele>181.6</ele>
<time>2024-05-08T09:17:05Z</time>
</trkpt>
<trkpt lat="49.262977531179786" lon="9.45259189233184">
<ele>181.4</ele>
<time>2024-05-08T09:17:06Z</time>
</trkpt>
<trkpt lat="49.262943249195814" lon="9.452661462128162">
<ele>181.2</ele>
<time>2024-05-08T09:17:07Z</time>
</trkpt>
<trkpt lat="49.26290888339281" lon="9.45272826589644">
<ele>180.8</ele>
<time>2024-05-08T09:17:08Z</time>
</trkpt>
<trkpt lat="49.26287074573338" lon="9.452794985845683">
<ele>180.6</ele>
<time>2024-05-08T09:17:09Z</time>
</trkpt>
<trkpt lat="49.26283260807395" lon="9.45286363363266">
<ele>180.4</ele>
<time>2024-05-08T09:17:10Z</time>
</trkpt>
<trkpt lat="49.26279447041452" lon="9.452930437400935">
<ele>180</ele>
<time>2024-05-08T09:17:11Z</time>
</trkpt>
<trkpt lat="49.26275633275509" lon="9.452995229512451">
<ele>179.8</ele>
<time>2024-05-08T09:17:12Z</time>
</trkpt>
<trkpt lat="49.2627143394202" lon="9.453058177605271">
<ele>179.8</ele>
<time>2024-05-08T09:17:13Z</time>
</trkpt>
<trkpt lat="49.26267620176077" lon="9.45312020368874">
<ele>179.6</ele>
<time>2024-05-08T09:17:14Z</time>
</trkpt>
<trkpt lat="49.262641835957766" lon="9.45318122394383">
<ele>179.4</ele>
<time>2024-05-08T09:17:15Z</time>
</trkpt>
<trkpt lat="49.262603698298335" lon="9.453240316361187">
<ele>179.4</ele>
<time>2024-05-08T09:17:16Z</time>
</trkpt>
<trkpt lat="49.26256941631436" lon="9.453303264454007">
<ele>179.2</ele>
<time>2024-05-08T09:17:17Z</time>
</trkpt>
<trkpt lat="49.26253505051136" lon="9.453363362699749">
<ele>179.2</ele>
<time>2024-05-08T09:17:18Z</time>
</trkpt>
<trkpt lat="49.26250068470836" lon="9.453425388783216">
<ele>179.2</ele>
<time>2024-05-08T09:17:19Z</time>
</trkpt>
<trkpt lat="49.262462547048926" lon="9.453481631353498">
<ele>179</ele>
<time>2024-05-08T09:17:20Z</time>
</trkpt>
<trkpt lat="49.262424409389496" lon="9.4535350240767">
<ele>179</ele>
<time>2024-05-08T09:17:21Z</time>
</trkpt>
<trkpt lat="49.262386271730065" lon="9.45359126664698">
<ele>179.2</ele>
<time>2024-05-08T09:17:22Z</time>
</trkpt>
<trkpt lat="49.26235576160252" lon="9.45365329273045">
<ele>179</ele>
<time>2024-05-08T09:17:23Z</time>
</trkpt>
<trkpt lat="49.26231762394309" lon="9.45371339097619">
<ele>179</ele>
<time>2024-05-08T09:17:24Z</time>
</trkpt>
<trkpt lat="49.26227948628366" lon="9.453766783699391">
<ele>179</ele>
<time>2024-05-08T09:17:25Z</time>
</trkpt>
<trkpt lat="49.26223749294877" lon="9.453823026269674">
<ele>179</ele>
<time>2024-05-08T09:17:26Z</time>
</trkpt>
<trkpt lat="49.26219935528934" lon="9.453883124515414">
<ele>179</ele>
<time>2024-05-08T09:17:27Z</time>
</trkpt>
<trkpt lat="49.26216121762991" lon="9.453936517238615">
<ele>179</ele>
<time>2024-05-08T09:17:28Z</time>
</trkpt>
<trkpt lat="49.26211922429502" lon="9.453991837799547">
<ele>178.8</ele>
<time>2024-05-08T09:17:29Z</time>
</trkpt>
<trkpt lat="49.26207731477916" lon="9.45404808036983">
<ele>178.6</ele>
<time>2024-05-08T09:17:30Z</time>
</trkpt>
<trkpt lat="49.26203917711973" lon="9.454099629074337">
<ele>178.6</ele>
<time>2024-05-08T09:17:31Z</time>
</trkpt>
<trkpt lat="49.26200481131673" lon="9.454153021797538">
<ele>178.4</ele>
<time>2024-05-08T09:17:32Z</time>
</trkpt>
<trkpt lat="49.261974301189184" lon="9.45420641452074">
<ele>178.4</ele>
<time>2024-05-08T09:17:33Z</time>
</trkpt>
<trkpt lat="49.26193993538618" lon="9.454256957396863">
<ele>178.4</ele>
<time>2024-05-08T09:17:34Z</time>
</trkpt>
<trkpt lat="49.261894170194864" lon="9.45430850610137">
<ele>178.2</ele>
<time>2024-05-08T09:17:35Z</time>
</trkpt>
<trkpt lat="49.261856032535434" lon="9.454357121139765">
<ele>178.2</ele>
<time>2024-05-08T09:17:36Z</time>
</trkpt>
<trkpt lat="49.261814039200544" lon="9.454406658187509">
<ele>178.2</ele>
<time>2024-05-08T09:17:37Z</time>
</trkpt>
<trkpt lat="49.26177212968469" lon="9.454455357044935">
<ele>178.2</ele>
<time>2024-05-08T09:17:38Z</time>
</trkpt>
<trkpt lat="49.26173776388168" lon="9.45450489409268">
<ele>178.2</ele>
<time>2024-05-08T09:17:39Z</time>
</trkpt>
<trkpt lat="49.26170348189771" lon="9.454558370634912">
<ele>178.2</ele>
<time>2024-05-08T09:17:40Z</time>
</trkpt>
<trkpt lat="49.26166534423828" lon="9.454609835520388">
<ele>178.2</ele>
<time>2024-05-08T09:17:41Z</time>
</trkpt>
<trkpt lat="49.26162712275982" lon="9.454660378396513">
<ele>178.2</ele>
<time>2024-05-08T09:17:42Z</time>
</trkpt>
<trkpt lat="49.26158898510039" lon="9.454706143587828">
<ele>178.2</ele>
<time>2024-05-08T09:17:43Z</time>
</trkpt>
<trkpt lat="49.26155084744096" lon="9.454754758626224">
<ele>178.2</ele>
<time>2024-05-08T09:17:44Z</time>
</trkpt>
<trkpt lat="49.26151270978153" lon="9.45479960180819">
<ele>178.2</ele>
<time>2024-05-08T09:17:45Z</time>
</trkpt>
<trkpt lat="49.26147071644664" lon="9.45484159514308">
<ele>178.2</ele>
<time>2024-05-08T09:17:46Z</time>
</trkpt>
<trkpt lat="49.26143257878721" lon="9.454885432496669">
<ele>178.2</ele>
<time>2024-05-08T09:17:47Z</time>
</trkpt>
<trkpt lat="49.26139066927135" lon="9.454926420003176">
<ele>178.2</ele>
<time>2024-05-08T09:17:48Z</time>
</trkpt>
<trkpt lat="49.26134867593646" lon="9.454970341175796">
<ele>178.2</ele>
<time>2024-05-08T09:17:49Z</time>
</trkpt>
<trkpt lat="49.26130668260157" lon="9.45501510053873">
<ele>178.2</ele>
<time>2024-05-08T09:17:50Z</time>
</trkpt>
<trkpt lat="49.26126477308571" lon="9.455059943720698">
<ele>178.4</ele>
<time>2024-05-08T09:17:51Z</time>
</trkpt>
<trkpt lat="49.26122663542628" lon="9.455102859064937">
<ele>178.4</ele>
<time>2024-05-08T09:17:52Z</time>
</trkpt>
<trkpt lat="49.26118849776685" lon="9.455144852399826">
<ele>178.4</ele>
<time>2024-05-08T09:17:53Z</time>
</trkpt>
<trkpt lat="49.26114650443196" lon="9.455182990059257">
<ele>178.4</ele>
<time>2024-05-08T09:17:54Z</time>
</trkpt>
<trkpt lat="49.26110836677253" lon="9.455224983394146">
<ele>178.6</ele>
<time>2024-05-08T09:17:55Z</time>
</trkpt>
<trkpt lat="49.26106637343764" lon="9.455266892910004">
<ele>178.6</ele>
<time>2024-05-08T09:17:56Z</time>
</trkpt>
<trkpt lat="49.261024463921785" lon="9.455306958407164">
<ele>178.8</ele>
<time>2024-05-08T09:17:57Z</time>
</trkpt>
<trkpt lat="49.260982470586896" lon="9.455347023904324">
<ele>178.8</ele>
<time>2024-05-08T09:17:58Z</time>
</trkpt>
<trkpt lat="49.26093670539558" lon="9.455387089401484">
<ele>178.8</ele>
<time>2024-05-08T09:17:59Z</time>
</trkpt>
<trkpt lat="49.26089471206069" lon="9.455426149070265">
<ele>179</ele>
<time>2024-05-08T09:18:00Z</time>
</trkpt>
<trkpt lat="49.26085657440126" lon="9.455468142405152">
<ele>179</ele>
<time>2024-05-08T09:18:01Z</time>
</trkpt>
<trkpt lat="49.26081843674183" lon="9.455506280064585">
<ele>179</ele>
<time>2024-05-08T09:18:02Z</time>
</trkpt>
<trkpt lat="49.26077644340694" lon="9.455543495714664">
<ele>179</ele>
<time>2024-05-08T09:18:03Z</time>
</trkpt>
<trkpt lat="49.26073830574751" lon="9.455577777698636">
<ele>179</ele>
<time>2024-05-08T09:18:04Z</time>
</trkpt>
<trkpt lat="49.26069639623165" lon="9.45560828782618">
<ele>178.8</ele>
<time>2024-05-08T09:18:05Z</time>
</trkpt>
<trkpt lat="49.26065825857222" lon="9.455643575638533">
<ele>178.8</ele>
<time>2024-05-08T09:18:06Z</time>
</trkpt>
<trkpt lat="49.26062389276922" lon="9.455677019432189">
<ele>178.8</ele>
<time>2024-05-08T09:18:07Z</time>
</trkpt>
<trkpt lat="49.26058575510979" lon="9.45571037940681">
<ele>179</ele>
<time>2024-05-08T09:18:08Z</time>
</trkpt>
<trkpt lat="49.260551389306784" lon="9.455739967525004">
<ele>179</ele>
<time>2024-05-08T09:18:09Z</time>
</trkpt>
<trkpt lat="49.26051710732281" lon="9.455773327499628">
<ele>179</ele>
<time>2024-05-08T09:18:10Z</time>
</trkpt>
<trkpt lat="49.26048659719527" lon="9.45581146515906">
<ele>179</ele>
<time>2024-05-08T09:18:11Z</time>
</trkpt>
<trkpt lat="49.260448375716805" lon="9.45585153065622">
<ele>179</ele>
<time>2024-05-08T09:18:12Z</time>
</trkpt>
<trkpt lat="49.260414093732834" lon="9.45588489063084">
<ele>179</ele>
<time>2024-05-08T09:18:13Z</time>
</trkpt>
<trkpt lat="49.26037972792983" lon="9.455922106280925">
<ele>179</ele>
<time>2024-05-08T09:18:14Z</time>
</trkpt>
<trkpt lat="49.2603415902704" lon="9.455958316102624">
<ele>179.2</ele>
<time>2024-05-08T09:18:15Z</time>
</trkpt>
<trkpt lat="49.26030345261097" lon="9.455996453762054">
<ele>179.2</ele>
<time>2024-05-08T09:18:16Z</time>
</trkpt>
<trkpt lat="49.260272942483425" lon="9.456034591421483">
<ele>179.2</ele>
<time>2024-05-08T09:18:17Z</time>
</trkpt>
<trkpt lat="49.260234804823995" lon="9.456074656918643">
<ele>179.2</ele>
<time>2024-05-08T09:18:18Z</time>
</trkpt>
<trkpt lat="49.26020043902099" lon="9.45612327195704">
<ele>179.4</ele>
<time>2024-05-08T09:18:19Z</time>
</trkpt>
<trkpt lat="49.26016615703702" lon="9.456166187301278">
<ele>179.4</ele>
<time>2024-05-08T09:18:20Z</time>
</trkpt>
<trkpt lat="49.260131791234016" lon="9.456212036311626">
<ele>179.4</ele>
<time>2024-05-08T09:18:21Z</time>
</trkpt>
<trkpt lat="49.260093653574586" lon="9.456254951655865">
<ele>179.4</ele>
<time>2024-05-08T09:18:22Z</time>
</trkpt>
<trkpt lat="49.26005928777158" lon="9.456297867000105">
<ele>179.6</ele>
<time>2024-05-08T09:18:23Z</time>
</trkpt>
<trkpt lat="49.26002500578761" lon="9.45634170435369">
<ele>179.6</ele>
<time>2024-05-08T09:18:24Z</time>
</trkpt>
<trkpt lat="49.25998686812818" lon="9.456384619697928">
<ele>179.8</ele>
<time>2024-05-08T09:18:25Z</time>
</trkpt>
<trkpt lat="49.25996012985706" lon="9.456426613032818">
<ele>179.8</ele>
<time>2024-05-08T09:18:26Z</time>
</trkpt>
<trkpt lat="49.25992961972952" lon="9.456470450386403">
<ele>180</ele>
<time>2024-05-08T09:18:27Z</time>
</trkpt>
<trkpt lat="49.25989148207009" lon="9.456513365730643">
<ele>180</ele>
<time>2024-05-08T09:18:28Z</time>
</trkpt>
<trkpt lat="49.259857116267085" lon="9.456556281074882">
<ele>180.2</ele>
<time>2024-05-08T09:18:29Z</time>
</trkpt>
<trkpt lat="49.25982283428311" lon="9.456602046266198">
<ele>180.2</ele>
<time>2024-05-08T09:18:30Z</time>
</trkpt>
<trkpt lat="49.25978846848011" lon="9.456649739295244">
<ele>180.2</ele>
<time>2024-05-08T09:18:31Z</time>
</trkpt>
<trkpt lat="49.25975033082068" lon="9.45669835433364">
<ele>180.4</ele>
<time>2024-05-08T09:18:32Z</time>
</trkpt>
<trkpt lat="49.25971596501768" lon="9.456745125353336">
<ele>180.2</ele>
<time>2024-05-08T09:18:33Z</time>
</trkpt>
<trkpt lat="49.259677827358246" lon="9.456793740391731">
<ele>180.2</ele>
<time>2024-05-08T09:18:34Z</time>
</trkpt>
<trkpt lat="49.259643545374274" lon="9.4568385835737">
<ele>180.4</ele>
<time>2024-05-08T09:18:35Z</time>
</trkpt>
<trkpt lat="49.25960540771485" lon="9.45687864907086">
<ele>180.4</ele>
<time>2024-05-08T09:18:36Z</time>
</trkpt>
<trkpt lat="49.25957481376827" lon="9.45691485889256">
<ele>180.4</ele>
<time>2024-05-08T09:18:37Z</time>
</trkpt>
<trkpt lat="49.259540531784296" lon="9.45695299655199">
<ele>180.6</ele>
<time>2024-05-08T09:18:38Z</time>
</trkpt>
<trkpt lat="49.25950616598129" lon="9.45699113421142">
<ele>180.6</ele>
<time>2024-05-08T09:18:39Z</time>
</trkpt>
<trkpt lat="49.25947188399732" lon="9.45703312754631">
<ele>180.6</ele>
<time>2024-05-08T09:18:40Z</time>
</trkpt>
<trkpt lat="49.25944137386978" lon="9.457076964899898">
<ele>180.6</ele>
<time>2024-05-08T09:18:41Z</time>
</trkpt>
<trkpt lat="49.25940700806677" lon="9.457117952406406">
<ele>180.8</ele>
<time>2024-05-08T09:18:42Z</time>
</trkpt>
<trkpt lat="49.25937649793923" lon="9.457157095894216">
<ele>180.8</ele>
<time>2024-05-08T09:18:43Z</time>
</trkpt>
<trkpt lat="49.259342132136226" lon="9.457195233553648">
<ele>181</ele>
<time>2024-05-08T09:18:44Z</time>
</trkpt>
<trkpt lat="49.25931162200868" lon="9.457233371213078">
<ele>181</ele>
<time>2024-05-08T09:18:45Z</time>
</trkpt>
<trkpt lat="49.25927734002471" lon="9.457269664853811">
<ele>181</ele>
<time>2024-05-08T09:18:46Z</time>
</trkpt>
<trkpt lat="49.259246746078134" lon="9.45730872452259">
<ele>181</ele>
<time>2024-05-08T09:18:47Z</time>
</trkpt>
<trkpt lat="49.25921246409416" lon="9.457347868010402">
<ele>181</ele>
<time>2024-05-08T09:18:48Z</time>
</trkpt>
<trkpt lat="49.25918195396662" lon="9.45738977752626">
<ele>180.8</ele>
<time>2024-05-08T09:18:49Z</time>
</trkpt>
<trkpt lat="49.259147588163614" lon="9.45742791518569">
<ele>180.8</ele>
<time>2024-05-08T09:18:50Z</time>
</trkpt>
<trkpt lat="49.25912093371153" lon="9.45746990852058">
<ele>180.8</ele>
<time>2024-05-08T09:18:51Z</time>
</trkpt>
<trkpt lat="49.259086567908525" lon="9.457511901855469">
<ele>180.8</ele>
<time>2024-05-08T09:18:52Z</time>
</trkpt>
<trkpt lat="49.25905220210552" lon="9.457554817199709">
<ele>180.8</ele>
<time>2024-05-08T09:18:53Z</time>
</trkpt>
<trkpt lat="49.25901792012155" lon="9.457598654553294">
<ele>180.8</ele>
<time>2024-05-08T09:18:54Z</time>
</trkpt>
<trkpt lat="49.25897978246212" lon="9.457636792212725">
<ele>180.8</ele>
<time>2024-05-08T09:18:55Z</time>
</trkpt>
<trkpt lat="49.25894164480269" lon="9.457683563232422">
<ele>180.6</ele>
<time>2024-05-08T09:18:56Z</time>
</trkpt>
<trkpt lat="49.25889579579234" lon="9.457733100280166">
<ele>180.6</ele>
<time>2024-05-08T09:18:57Z</time>
</trkpt>
<trkpt lat="49.25885388627648" lon="9.457788420841098">
<ele>180.6</ele>
<time>2024-05-08T09:18:58Z</time>
</trkpt>
<trkpt lat="49.258811892941594" lon="9.4578418135643">
<ele>180.4</ele>
<time>2024-05-08T09:18:59Z</time>
</trkpt>
<trkpt lat="49.25876612775028" lon="9.457896212115884">
<ele>180.4</ele>
<time>2024-05-08T09:19:00Z</time>
</trkpt>
<trkpt lat="49.25868599675596" lon="9.458000147715213">
<ele>180.2</ele>
<time>2024-05-08T09:19:02Z</time>
</trkpt>
<trkpt lat="49.25864785909653" lon="9.458051612600684">
<ele>180</ele>
<time>2024-05-08T09:19:03Z</time>
</trkpt>
<trkpt lat="49.2586097214371" lon="9.458106933161616">
<ele>180</ele>
<time>2024-05-08T09:19:04Z</time>
</trkpt>
<trkpt lat="49.258575439453125" lon="9.458153704181314">
<ele>179.8</ele>
<time>2024-05-08T09:19:05Z</time>
</trkpt>
<trkpt lat="49.25853721797466" lon="9.45820139721036">
<ele>179.8</ele>
<time>2024-05-08T09:19:06Z</time>
</trkpt>
<trkpt lat="49.258491452783346" lon="9.458265267312528">
<ele>179.8</ele>
<time>2024-05-08T09:19:07Z</time>
</trkpt>
<trkpt lat="49.2584419157356" lon="9.458326287567616">
<ele>179.6</ele>
<time>2024-05-08T09:19:08Z</time>
</trkpt>
<trkpt lat="49.258396066725254" lon="9.458386385813355">
<ele>179.6</ele>
<time>2024-05-08T09:19:09Z</time>
</trkpt>
<trkpt lat="49.25834267400205" lon="9.458444556221366">
<ele>179.6</ele>
<time>2024-05-08T09:19:10Z</time>
</trkpt>
<trkpt lat="49.25829313695431" lon="9.458503648638724">
<ele>179.6</ele>
<time>2024-05-08T09:19:11Z</time>
</trkpt>
<trkpt lat="49.25824737176299" lon="9.458562824875116">
<ele>179.6</ele>
<time>2024-05-08T09:19:12Z</time>
</trkpt>
<trkpt lat="49.25820152275264" lon="9.458624767139554">
<ele>179.6</ele>
<time>2024-05-08T09:19:13Z</time>
</trkpt>
<trkpt lat="49.258155757561326" lon="9.458684865385294">
<ele>179.4</ele>
<time>2024-05-08T09:19:14Z</time>
</trkpt>
<trkpt lat="49.25811384804547" lon="9.458747813478112">
<ele>179.4</ele>
<time>2024-05-08T09:19:15Z</time>
</trkpt>
<trkpt lat="49.25807185471058" lon="9.458813611418009">
<ele>179.2</ele>
<time>2024-05-08T09:19:16Z</time>
</trkpt>
<trkpt lat="49.25802608951926" lon="9.458878487348557">
<ele>179.2</ele>
<time>2024-05-08T09:19:17Z</time>
</trkpt>
<trkpt lat="49.25798409618437" lon="9.458945207297802">
<ele>179</ele>
<time>2024-05-08T09:19:18Z</time>
</trkpt>
<trkpt lat="49.257942186668515" lon="9.459012933075428">
<ele>179</ele>
<time>2024-05-08T09:19:19Z</time>
</trkpt>
<trkpt lat="49.25790782086551" lon="9.459078731015325">
<ele>178.8</ele>
<time>2024-05-08T09:19:20Z</time>
</trkpt>
<trkpt lat="49.25786968320608" lon="9.45914452895522">
<ele>178.8</ele>
<time>2024-05-08T09:19:21Z</time>
</trkpt>
<trkpt lat="49.25782768987119" lon="9.45920848287642">
<ele>178.8</ele>
<time>2024-05-08T09:19:22Z</time>
</trkpt>
<trkpt lat="49.257785780355334" lon="9.4592647254467">
<ele>178.8</ele>
<time>2024-05-08T09:19:23Z</time>
</trkpt>
<trkpt lat="49.25775141455233" lon="9.45932482369244">
<ele>178.6</ele>
<time>2024-05-08T09:19:24Z</time>
</trkpt>
<trkpt lat="49.25771713256836" lon="9.459388693794608">
<ele>178.6</ele>
<time>2024-05-08T09:19:25Z</time>
</trkpt>
<trkpt lat="49.25768276676536" lon="9.459447786211967">
<ele>178.4</ele>
<time>2024-05-08T09:19:26Z</time>
</trkpt>
<trkpt lat="49.25764840096235" lon="9.459509812295437">
<ele>178.2</ele>
<time>2024-05-08T09:19:27Z</time>
</trkpt>
<trkpt lat="49.25761026330292" lon="9.459574688225985">
<ele>178.2</ele>
<time>2024-05-08T09:19:28Z</time>
</trkpt>
<trkpt lat="49.25757975317538" lon="9.459631852805614">
<ele>178</ele>
<time>2024-05-08T09:19:29Z</time>
</trkpt>
<trkpt lat="49.25754161551595" lon="9.45968340151012">
<ele>178</ele>
<time>2024-05-08T09:19:30Z</time>
</trkpt>
<trkpt lat="49.25750347785652" lon="9.459736794233322">
<ele>178</ele>
<time>2024-05-08T09:19:31Z</time>
</trkpt>
<trkpt lat="49.25746148452163" lon="9.459786415100098">
<ele>177.8</ele>
<time>2024-05-08T09:19:32Z</time>
</trkpt>
<trkpt lat="49.2574233468622" lon="9.459833102300763">
<ele>177.8</ele>
<time>2024-05-08T09:19:33Z</time>
</trkpt>
<trkpt lat="49.257385209202766" lon="9.459875095635653">
<ele>177.8</ele>
<time>2024-05-08T09:19:34Z</time>
</trkpt>
<trkpt lat="49.257347071543336" lon="9.45991700515151">
<ele>177.8</ele>
<time>2024-05-08T09:19:35Z</time>
</trkpt>
<trkpt lat="49.25731270574033" lon="9.45995707064867">
<ele>177.6</ele>
<time>2024-05-08T09:19:36Z</time>
</trkpt>
<trkpt lat="49.2572745680809" lon="9.45999621413648">
<ele>177.6</ele>
<time>2024-05-08T09:19:37Z</time>
</trkpt>
<trkpt lat="49.25723643042147" lon="9.460033345967531">
<ele>177.6</ele>
<time>2024-05-08T09:19:38Z</time>
</trkpt>
<trkpt lat="49.2572021484375" lon="9.460071483626962">
<ele>177.6</ele>
<time>2024-05-08T09:19:39Z</time>
</trkpt>
<trkpt lat="49.2571677826345" lon="9.460108699277043">
<ele>177.6</ele>
<time>2024-05-08T09:19:40Z</time>
</trkpt>
<trkpt lat="49.257129644975066" lon="9.460147842764854">
<ele>177.6</ele>
<time>2024-05-08T09:19:41Z</time>
</trkpt>
<trkpt lat="49.25709150731563" lon="9.460187908262014">
<ele>177.6</ele>
<time>2024-05-08T09:19:42Z</time>
</trkpt>
<trkpt lat="49.257053369656205" lon="9.460231745615602">
<ele>177.6</ele>
<time>2024-05-08T09:19:43Z</time>
</trkpt>
<trkpt lat="49.2570190038532" lon="9.46027466095984">
<ele>177.6</ele>
<time>2024-05-08T09:19:44Z</time>
</trkpt>
<trkpt lat="49.2569846380502" lon="9.46031665429473">
<ele>177.6</ele>
<time>2024-05-08T09:19:45Z</time>
</trkpt>
<trkpt lat="49.25694650039077" lon="9.46035479195416">
<ele>177.8</ele>
<time>2024-05-08T09:19:46Z</time>
</trkpt>
<trkpt lat="49.25690459087491" lon="9.460388151928782">
<ele>177.8</ele>
<time>2024-05-08T09:19:47Z</time>
</trkpt>
<trkpt lat="49.25686645321548" lon="9.460428217425942">
<ele>177.8</ele>
<time>2024-05-08T09:19:48Z</time>
</trkpt>
<trkpt lat="49.25682445988059" lon="9.4604701269418">
<ele>178</ele>
<time>2024-05-08T09:19:49Z</time>
</trkpt>
<trkpt lat="49.25678632222116" lon="9.46051019243896">
<ele>178</ele>
<time>2024-05-08T09:19:50Z</time>
</trkpt>
<trkpt lat="49.25674432888627" lon="9.460551179945467">
<ele>178</ele>
<time>2024-05-08T09:19:51Z</time>
</trkpt>
<trkpt lat="49.25670619122684" lon="9.460591245442629">
<ele>178</ele>
<time>2024-05-08T09:19:52Z</time>
</trkpt>
<trkpt lat="49.25666805356741" lon="9.460631310939789">
<ele>178</ele>
<time>2024-05-08T09:19:53Z</time>
</trkpt>
<trkpt lat="49.25662991590798" lon="9.4606704544276">
<ele>178</ele>
<time>2024-05-08T09:19:54Z</time>
</trkpt>
<trkpt lat="49.25658792257309" lon="9.4607066642493">
<ele>178</ele>
<time>2024-05-08T09:19:55Z</time>
</trkpt>
<trkpt lat="49.25654215738177" lon="9.46074957959354">
<ele>178</ele>
<time>2024-05-08T09:19:56Z</time>
</trkpt>
<trkpt lat="49.256496392190456" lon="9.460776317864656">
<ele>177.8</ele>
<time>2024-05-08T09:19:57Z</time>
</trkpt>
<trkpt lat="49.25645062699914" lon="9.46080967783928">
<ele>177.8</ele>
<time>2024-05-08T09:19:58Z</time>
</trkpt>
<trkpt lat="49.25641626119614" lon="9.460844965651631">
<ele>177.8</ele>
<time>2024-05-08T09:19:59Z</time>
</trkpt>
<trkpt lat="49.256381979212165" lon="9.460873547941446">
<ele>177.8</ele>
<time>2024-05-08T09:20:01Z</time>
</trkpt>
<trkpt lat="49.2562903650105" lon="9.46090984158218">
<ele>177.8</ele>
<time>2024-05-08T09:20:02Z</time>
</trkpt>
<trkpt lat="49.25624845549464" lon="9.460931718349457">
<ele>177.8</ele>
<time>2024-05-08T09:20:03Z</time>
</trkpt>
<trkpt lat="49.256202690303326" lon="9.46094797924161">
<ele>177.8</ele>
<time>2024-05-08T09:20:04Z</time>
</trkpt>
<trkpt lat="49.25616069696843" lon="9.460960384458303">
<ele>177.8</ele>
<time>2024-05-08T09:20:05Z</time>
</trkpt>
<trkpt lat="49.25611493177712" lon="9.460969856008887">
<ele>177.8</ele>
<time>2024-05-08T09:20:06Z</time>
</trkpt>
<trkpt lat="49.256065310910344" lon="9.460983267053962">
<ele>177.8</ele>
<time>2024-05-08T09:20:07Z</time>
</trkpt>
<trkpt lat="49.25601954571903" lon="9.461000366136432">
<ele>177.8</ele>
<time>2024-05-08T09:20:08Z</time>
</trkpt>
<trkpt lat="49.25596992485225" lon="9.461013777181506">
<ele>177.8</ele>
<time>2024-05-08T09:20:09Z</time>
</trkpt>
<trkpt lat="49.25592038780451" lon="9.46102517656982">
<ele>177.8</ele>
<time>2024-05-08T09:20:10Z</time>
</trkpt>
<trkpt lat="49.255866995081306" lon="9.461038587614894">
<ele>177.8</ele>
<time>2024-05-08T09:20:11Z</time>
</trkpt>
<trkpt lat="49.25581737421453" lon="9.461048059165478">
<ele>177.8</ele>
<time>2024-05-08T09:20:12Z</time>
</trkpt>
<trkpt lat="49.25576398149133" lon="9.461061470210552">
<ele>177.8</ele>
<time>2024-05-08T09:20:13Z</time>
</trkpt>
<trkpt lat="49.25571436062455" lon="9.461071947589517">
<ele>177.8</ele>
<time>2024-05-08T09:20:14Z</time>
</trkpt>
<trkpt lat="49.25566482357681" lon="9.46108527481556">
<ele>178</ele>
<time>2024-05-08T09:20:15Z</time>
</trkpt>
<trkpt lat="49.25561520271003" lon="9.46110145188868">
<ele>178</ele>
<time>2024-05-08T09:20:16Z</time>
</trkpt>
<trkpt lat="49.25556180998683" lon="9.461116790771484">
<ele>178</ele>
<time>2024-05-08T09:20:17Z</time>
</trkpt>
<trkpt lat="49.25551604479551" lon="9.461128190159798">
<ele>178</ele>
<time>2024-05-08T09:20:18Z</time>
</trkpt>
<trkpt lat="49.25546642392874" lon="9.461132967844604">
<ele>178</ele>
<time>2024-05-08T09:20:19Z</time>
</trkpt>
<trkpt lat="49.25541680306196" lon="9.461139673367144">
<ele>178</ele>
<time>2024-05-08T09:20:20Z</time>
</trkpt>
<trkpt lat="49.25536726601422" lon="9.461148222908378">
<ele>178</ele>
<time>2024-05-08T09:20:21Z</time>
</trkpt>
<trkpt lat="49.25531764514744" lon="9.461159706115724">
<ele>178</ele>
<time>2024-05-08T09:20:22Z</time>
</trkpt>
<trkpt lat="49.255271879956126" lon="9.461170183494689">
<ele>178</ele>
<time>2024-05-08T09:20:23Z</time>
</trkpt>
<trkpt lat="49.25521848723292" lon="9.461181582883">
<ele>178</ele>
<time>2024-05-08T09:20:24Z</time>
</trkpt>
<trkpt lat="49.25516886636615" lon="9.461191138252616">
<ele>178</ele>
<time>2024-05-08T09:20:25Z</time>
</trkpt>
<trkpt lat="49.25511924549937" lon="9.46120354346931">
<ele>178</ele>
<time>2024-05-08T09:20:26Z</time>
</trkpt>
<trkpt lat="49.25506585277617" lon="9.461217876523731">
<ele>178</ele>
<time>2024-05-08T09:20:27Z</time>
</trkpt>
<trkpt lat="49.25501246005297" lon="9.461231203749776">
<ele>178.2</ele>
<time>2024-05-08T09:20:28Z</time>
</trkpt>
<trkpt lat="49.25495906732976" lon="9.46124360896647">
<ele>178.2</ele>
<time>2024-05-08T09:20:29Z</time>
</trkpt>
<trkpt lat="49.25490944646299" lon="9.461250230669975">
<ele>178.4</ele>
<time>2024-05-08T09:20:30Z</time>
</trkpt>
<trkpt lat="49.254856053739786" lon="9.46125785820186">
<ele>178.4</ele>
<time>2024-05-08T09:20:31Z</time>
</trkpt>
<trkpt lat="49.25480266101658" lon="9.46125785820186">
<ele>178.4</ele>
<time>2024-05-08T09:20:32Z</time>
</trkpt>
<trkpt lat="49.25475304014981" lon="9.461255008354785">
<ele>178.6</ele>
<time>2024-05-08T09:20:33Z</time>
</trkpt>
<trkpt lat="49.254699647426605" lon="9.461250230669975">
<ele>178.6</ele>
<time>2024-05-08T09:20:34Z</time>
</trkpt>
<trkpt lat="49.25465011037886" lon="9.46124168112874">
<ele>178.6</ele>
<time>2024-05-08T09:20:35Z</time>
</trkpt>
<trkpt lat="49.25459663383663" lon="9.461233131587504">
<ele>178.4</ele>
<time>2024-05-08T09:20:36Z</time>
</trkpt>
<trkpt lat="49.254543241113424" lon="9.46122164838016">
<ele>178.4</ele>
<time>2024-05-08T09:20:37Z</time>
</trkpt>
<trkpt lat="49.25449370406568" lon="9.461206393316388">
<ele>178.2</ele>
<time>2024-05-08T09:20:39Z</time>
</trkpt>
<trkpt lat="49.2543906904757" lon="9.461178733035922">
<ele>178</ele>
<time>2024-05-08T09:20:40Z</time>
</trkpt>
<trkpt lat="49.25434106960893" lon="9.46116540580988">
<ele>177.8</ele>
<time>2024-05-08T09:20:41Z</time>
</trkpt>
<trkpt lat="49.25429153256118" lon="9.461146295070648">
<ele>177.8</ele>
<time>2024-05-08T09:20:42Z</time>
</trkpt>
<trkpt lat="49.25423805601895" lon="9.461128190159798">
<ele>177.8</ele>
<time>2024-05-08T09:20:43Z</time>
</trkpt>
<trkpt lat="49.25419229082763" lon="9.461106229573488">
<ele>177.6</ele>
<time>2024-05-08T09:20:44Z</time>
</trkpt>
<trkpt lat="49.25414275377989" lon="9.461081502959132">
<ele>177.6</ele>
<time>2024-05-08T09:20:45Z</time>
</trkpt>
<trkpt lat="49.25409313291311" lon="9.461058536544442">
<ele>177.4</ele>
<time>2024-05-08T09:20:46Z</time>
</trkpt>
<trkpt lat="49.25405113957822" lon="9.461036659777164">
<ele>177.2</ele>
<time>2024-05-08T09:20:47Z</time>
</trkpt>
<trkpt lat="49.25400537438691" lon="9.461014699190857">
<ele>177.2</ele>
<time>2024-05-08T09:20:48Z</time>
</trkpt>
<trkpt lat="49.25395960919559" lon="9.461000366136432">
<ele>177.2</ele>
<time>2024-05-08T09:20:49Z</time>
</trkpt>
<trkpt lat="49.253909988328815" lon="9.460983267053962">
<ele>177</ele>
<time>2024-05-08T09:20:50Z</time>
</trkpt>
<trkpt lat="49.2538642231375" lon="9.460969856008887">
<ele>177</ele>
<time>2024-05-08T09:20:51Z</time>
</trkpt>
<trkpt lat="49.25381845794618" lon="9.460951751098037">
<ele>177</ele>
<time>2024-05-08T09:20:52Z</time>
</trkpt>
<trkpt lat="49.25376892089844" lon="9.460936496034265">
<ele>177</ele>
<time>2024-05-08T09:20:53Z</time>
</trkpt>
<trkpt lat="49.25372307188809" lon="9.460925096645951">
<ele>177</ele>
<time>2024-05-08T09:20:54Z</time>
</trkpt>
<trkpt lat="49.253673534840345" lon="9.46090984158218">
<ele>177</ele>
<time>2024-05-08T09:20:55Z</time>
</trkpt>
<trkpt lat="49.25362776964903" lon="9.460894502699375">
<ele>177</ele>
<time>2024-05-08T09:20:56Z</time>
</trkpt>
<trkpt lat="49.25358192063868" lon="9.460876397788525">
<ele>177</ele>
<time>2024-05-08T09:20:57Z</time>
</trkpt>
<trkpt lat="49.25353615544736" lon="9.460856365039945">
<ele>177</ele>
<time>2024-05-08T09:20:58Z</time>
</trkpt>
<trkpt lat="49.25349039025605" lon="9.460836332291365">
<ele>176.8</ele>
<time>2024-05-08T09:20:59Z</time>
</trkpt>
<trkpt lat="49.25344848074019" lon="9.460813449695706">
<ele>176.8</ele>
<time>2024-05-08T09:21:00Z</time>
</trkpt>
<trkpt lat="49.2534064874053" lon="9.46078679524362">
<ele>176.6</ele>
<time>2024-05-08T09:21:01Z</time>
</trkpt>
<trkpt lat="49.25336449407041" lon="9.460756285116076">
<ele>176.6</ele>
<time>2024-05-08T09:21:02Z</time>
</trkpt>
<trkpt lat="49.25332258455455" lon="9.46072669699788">
<ele>176.6</ele>
<time>2024-05-08T09:21:03Z</time>
</trkpt>
<trkpt lat="49.253280591219664" lon="9.460696186870337">
<ele>176.6</ele>
<time>2024-05-08T09:21:04Z</time>
</trkpt>
<trkpt lat="49.253238597884774" lon="9.46066852658987">
<ele>176.6</ele>
<time>2024-05-08T09:21:05Z</time>
</trkpt>
<trkpt lat="49.25319668836892" lon="9.460639944300056">
<ele>176.6</ele>
<time>2024-05-08T09:21:06Z</time>
</trkpt>
<trkpt lat="49.2531509231776" lon="9.46061035618186">
<ele>176.6</ele>
<time>2024-05-08T09:21:07Z</time>
</trkpt>
<trkpt lat="49.25310892984271" lon="9.460581773892043">
<ele>176.6</ele>
<time>2024-05-08T09:21:08Z</time>
</trkpt>
<trkpt lat="49.253063164651394" lon="9.460555035620928">
<ele>176.6</ele>
<time>2024-05-08T09:21:09Z</time>
</trkpt>
<trkpt lat="49.25302502699196" lon="9.46052829734981">
<ele>176.6</ele>
<time>2024-05-08T09:21:10Z</time>
</trkpt>
<trkpt lat="49.252983033657074" lon="9.460498793050649">
<ele>176.4</ele>
<time>2024-05-08T09:21:11Z</time>
</trkpt>
<trkpt lat="49.25294489599764" lon="9.460466355085371">
<ele>176.4</ele>
<time>2024-05-08T09:21:12Z</time>
</trkpt>
<trkpt lat="49.25290675833821" lon="9.460434839129448">
<ele>176.2</ele>
<time>2024-05-08T09:21:13Z</time>
</trkpt>
<trkpt lat="49.25286476500333" lon="9.460403406992556">
<ele>176.2</ele>
<time>2024-05-08T09:21:14Z</time>
</trkpt>
<trkpt lat="49.25282662734389" lon="9.460370047017932">
<ele>176.2</ele>
<time>2024-05-08T09:21:15Z</time>
</trkpt>
<trkpt lat="49.25278848968446" lon="9.46033475920558">
<ele>176.2</ele>
<time>2024-05-08T09:21:16Z</time>
</trkpt>
<trkpt lat="49.25275420770049" lon="9.46029662154615">
<ele>176.2</ele>
<time>2024-05-08T09:21:17Z</time>
</trkpt>
<trkpt lat="49.25271984189749" lon="9.46025655604899">
<ele>176.2</ele>
<time>2024-05-08T09:21:19Z</time>
</trkpt>
<trkpt lat="49.2526588216424" lon="9.460167875513434">
<ele>176.2</ele>
<time>2024-05-08T09:21:20Z</time>
</trkpt>
<trkpt lat="49.25263208337128" lon="9.46011825464666">
<ele>176.2</ele>
<time>2024-05-08T09:21:21Z</time>
</trkpt>
<trkpt lat="49.25260920077562" lon="9.460062012076378">
<ele>176.2</ele>
<time>2024-05-08T09:21:22Z</time>
</trkpt>
<trkpt lat="49.252590173855424" lon="9.460004763677716">
<ele>176</ele>
<time>2024-05-08T09:21:23Z</time>
</trkpt>
<trkpt lat="49.252567291259766" lon="9.459946593269706">
<ele>176.2</ele>
<time>2024-05-08T09:21:24Z</time>
</trkpt>
<trkpt lat="49.252548180520535" lon="9.459888422861695">
<ele>176.2</ele>
<time>2024-05-08T09:21:25Z</time>
</trkpt>
<trkpt lat="49.25252529792488" lon="9.459833102300763">
<ele>176.2</ele>
<time>2024-05-08T09:21:26Z</time>
</trkpt>
<trkpt lat="49.25250241532922" lon="9.459776859730482">
<ele>176.4</ele>
<time>2024-05-08T09:21:27Z</time>
</trkpt>
<trkpt lat="49.25248330458999" lon="9.459718689322472">
<ele>176.4</ele>
<time>2024-05-08T09:21:28Z</time>
</trkpt>
<trkpt lat="49.25246042199433" lon="9.45965951308608">
<ele>176.6</ele>
<time>2024-05-08T09:21:29Z</time>
</trkpt>
<trkpt lat="49.25244516693056" lon="9.4596032705158">
<ele>176.6</ele>
<time>2024-05-08T09:21:30Z</time>
</trkpt>
<trkpt lat="49.25242614001036" lon="9.459545100107787">
<ele>176.8</ele>
<time>2024-05-08T09:21:31Z</time>
</trkpt>
<trkpt lat="49.2524032574147" lon="9.459487851709127">
<ele>176.8</ele>
<time>2024-05-08T09:21:32Z</time>
</trkpt>
<trkpt lat="49.252387918531895" lon="9.459431609138846">
<ele>176.8</ele>
<time>2024-05-08T09:21:33Z</time>
</trkpt>
<trkpt lat="49.25236503593624" lon="9.459375366568564">
<ele>176.8</ele>
<time>2024-05-08T09:21:34Z</time>
</trkpt>
<trkpt lat="49.25234600901604" lon="9.459321973845364">
<ele>177</ele>
<time>2024-05-08T09:21:35Z</time>
</trkpt>
<trkpt lat="49.25232312642038" lon="9.4592647254467">
<ele>177</ele>
<time>2024-05-08T09:21:36Z</time>
</trkpt>
<trkpt lat="49.25230401568115" lon="9.459210326895118">
<ele>177</ele>
<time>2024-05-08T09:21:37Z</time>
</trkpt>
<trkpt lat="49.25228498876095" lon="9.459153162315488">
<ele>177</ele>
<time>2024-05-08T09:21:38Z</time>
</trkpt>
<trkpt lat="49.25226210616529" lon="9.459098763763905">
<ele>177</ele>
<time>2024-05-08T09:21:39Z</time>
</trkpt>
<trkpt lat="49.25223922356963" lon="9.459043443202972">
<ele>177</ele>
<time>2024-05-08T09:21:40Z</time>
</trkpt>
<trkpt lat="49.2522201128304" lon="9.458986278623344">
<ele>177</ele>
<time>2024-05-08T09:21:41Z</time>
</trkpt>
<trkpt lat="49.25219723023474" lon="9.45892995223403">
<ele>177</ele>
<time>2024-05-08T09:21:42Z</time>
</trkpt>
<trkpt lat="49.25217811949551" lon="9.458873709663749">
<ele>177</ele>
<time>2024-05-08T09:21:43Z</time>
</trkpt>
<trkpt lat="49.25215523689985" lon="9.458816461265087">
<ele>177</ele>
<time>2024-05-08T09:21:44Z</time>
</trkpt>
<trkpt lat="49.25212858244777" lon="9.458758290857077">
<ele>177</ele>
<time>2024-05-08T09:21:45Z</time>
</trkpt>
<trkpt lat="49.25210569985211" lon="9.458702970296144">
<ele>177</ele>
<time>2024-05-08T09:21:46Z</time>
</trkpt>
<trkpt lat="49.25208281725645" lon="9.458646727725863">
<ele>177</ele>
<time>2024-05-08T09:21:47Z</time>
</trkpt>
<trkpt lat="49.25205993466079" lon="9.458591407164931">
<ele>177</ele>
<time>2024-05-08T09:21:48Z</time>
</trkpt>
<trkpt lat="49.2520369682461" lon="9.458538014441729">
<ele>177</ele>
<time>2024-05-08T09:21:49Z</time>
</trkpt>
<trkpt lat="49.25201031379402" lon="9.458486549556255">
<ele>177</ele>
<time>2024-05-08T09:21:50Z</time>
</trkpt>
<trkpt lat="49.2519835755229" lon="9.45843692868948">
<ele>177</ele>
<time>2024-05-08T09:21:51Z</time>
</trkpt>
<trkpt lat="49.25196069292724" lon="9.458390157669784">
<ele>177</ele>
<time>2024-05-08T09:21:52Z</time>
</trkpt>
<trkpt lat="49.25193781033158" lon="9.458343470469115">
<ele>177</ele>
<time>2024-05-08T09:21:53Z</time>
</trkpt>
<trkpt lat="49.2519111558795" lon="9.45829669944942">
<ele>177</ele>
<time>2024-05-08T09:21:54Z</time>
</trkpt>
<trkpt lat="49.25188441760838" lon="9.458248084411023">
<ele>177</ele>
<time>2024-05-08T09:21:55Z</time>
</trkpt>
<trkpt lat="49.25186153501272" lon="9.45819854736328">
<ele>177</ele>
<time>2024-05-08T09:21:56Z</time>
</trkpt>
<trkpt lat="49.251838652417064" lon="9.458145070821049">
<ele>177</ele>
<time>2024-05-08T09:21:57Z</time>
</trkpt>
<trkpt lat="49.25181954167783" lon="9.458087906241415">
<ele>177</ele>
<time>2024-05-08T09:21:59Z</time>
</trkpt>
<trkpt lat="49.25178903155029" lon="9.457975337281823">
<ele>177</ele>
<time>2024-05-08T09:22:00Z</time>
</trkpt>
<trkpt lat="49.251777632161975" lon="9.457916244864464">
<ele>177</ele>
<time>2024-05-08T09:22:01Z</time>
</trkpt>
<trkpt lat="49.25177000463009" lon="9.457855224609377">
<ele>177</ele>
<time>2024-05-08T09:22:02Z</time>
</trkpt>
<trkpt lat="49.251758521422744" lon="9.457791270688176">
<ele>177</ele>
<time>2024-05-08T09:22:03Z</time>
</trkpt>
<trkpt lat="49.25175474956632" lon="9.457728322595358">
<ele>177</ele>
<time>2024-05-08T09:22:05Z</time>
</trkpt>
<trkpt lat="49.25175474956632" lon="9.457661602646112">
<ele>177</ele>
<time>2024-05-08T09:22:06Z</time>
</trkpt>
<trkpt lat="49.2517623770982" lon="9.45752807892859">
<ele>177.2</ele>
<time>2024-05-08T09:22:07Z</time>
</trkpt>
<trkpt lat="49.25177377648651" lon="9.457463202998042">
<ele>177.2</ele>
<time>2024-05-08T09:22:09Z</time>
</trkpt>
<trkpt lat="49.25180428661406" lon="9.457338312640786">
<ele>177.4</ele>
<time>2024-05-08T09:22:10Z</time>
</trkpt>
<trkpt lat="49.25182339735329" lon="9.457276286557317">
<ele>177.6</ele>
<time>2024-05-08T09:22:11Z</time>
</trkpt>
<trkpt lat="49.25184242427349" lon="9.457215266302228">
<ele>177.6</ele>
<time>2024-05-08T09:22:12Z</time>
</trkpt>
<trkpt lat="49.25186153501272" lon="9.457155168056488">
<ele>177.6</ele>
<time>2024-05-08T09:22:13Z</time>
</trkpt>
<trkpt lat="49.25188064575195" lon="9.45709129795432">
<ele>177.6</ele>
<time>2024-05-08T09:22:14Z</time>
</trkpt>
<trkpt lat="49.25189967267215" lon="9.457028349861504">
<ele>177.6</ele>
<time>2024-05-08T09:22:15Z</time>
</trkpt>
<trkpt lat="49.251918783411384" lon="9.456966323778031">
<ele>177.8</ele>
<time>2024-05-08T09:22:16Z</time>
</trkpt>
<trkpt lat="49.25194166600704" lon="9.456906309351323">
<ele>177.8</ele>
<time>2024-05-08T09:22:17Z</time>
</trkpt>
<trkpt lat="49.25196069292724" lon="9.456851910799742">
<ele>177.8</ele>
<time>2024-05-08T09:22:18Z</time>
</trkpt>
<trkpt lat="49.2519835755229" lon="9.456800445914268">
<ele>177.8</ele>
<time>2024-05-08T09:22:19Z</time>
</trkpt>
<trkpt lat="49.25200268626213" lon="9.456734647974372">
<ele>177.8</ele>
<time>2024-05-08T09:22:20Z</time>
</trkpt>
<trkpt lat="49.25202171318233" lon="9.456667844206097">
<ele>178</ele>
<time>2024-05-08T09:22:21Z</time>
</trkpt>
<trkpt lat="49.2520369682461" lon="9.456600118428469">
<ele>178</ele>
<time>2024-05-08T09:22:22Z</time>
</trkpt>
<trkpt lat="49.252052307128906" lon="9.456533398479223">
<ele>178.2</ele>
<time>2024-05-08T09:22:23Z</time>
</trkpt>
<trkpt lat="49.252071334049106" lon="9.456464750692248">
<ele>178.2</ele>
<time>2024-05-08T09:22:24Z</time>
</trkpt>
<trkpt lat="49.25208658911288" lon="9.456397946923971">
<ele>178.2</ele>
<time>2024-05-08T09:22:25Z</time>
</trkpt>
<trkpt lat="49.25210569985211" lon="9.456331226974726">
<ele>178.2</ele>
<time>2024-05-08T09:22:26Z</time>
</trkpt>
<trkpt lat="49.25212095491588" lon="9.456270206719635">
<ele>178.2</ele>
<time>2024-05-08T09:22:27Z</time>
</trkpt>
<trkpt lat="49.25213620997965" lon="9.456208180636168">
<ele>178.4</ele>
<time>2024-05-08T09:22:28Z</time>
</trkpt>
<trkpt lat="49.252151465043426" lon="9.456151938065886">
<ele>178.4</ele>
<time>2024-05-08T09:22:29Z</time>
</trkpt>
<trkpt lat="49.2521667201072" lon="9.456096617504954">
<ele>178.6</ele>
<time>2024-05-08T09:22:30Z</time>
</trkpt>
<trkpt lat="49.25217811949551" lon="9.45604699663818">
<ele>178.6</ele>
<time>2024-05-08T09:22:31Z</time>
</trkpt>
<trkpt lat="49.25219337455928" lon="9.455996453762054">
<ele>178.8</ele>
<time>2024-05-08T09:22:32Z</time>
</trkpt>
<trkpt lat="49.25220100209117" lon="9.45594691671431">
<ele>178.8</ele>
<time>2024-05-08T09:22:34Z</time>
</trkpt>
<trkpt lat="49.25220485776663" lon="9.455860080197452">
<ele>179</ele>
<time>2024-05-08T09:22:35Z</time>
</trkpt>
<trkpt lat="49.25220485776663" lon="9.455829570069907">
<ele>179</ele>
<time>2024-05-08T09:22:36Z</time>
</trkpt>
<trkpt lat="49.25220485776663" lon="9.45580668747425">
<ele>179</ele>
<time>2024-05-08T09:22:37Z</time>
</trkpt>
<trkpt lat="49.25219723023474" lon="9.455795288085938">
<ele>179</ele>
<time>2024-05-08T09:22:39Z</time>
</trkpt>
<trkpt lat="49.25219337455928" lon="9.455801909789445">
<ele>179.2</ele>
<time>2024-05-08T09:22:41Z</time>
</trkpt>
<trkpt lat="49.25219337455928" lon="9.455802915617824">
<ele>179.4</ele>
<time>2024-05-08T09:22:42Z</time>
</trkpt>
<trkpt lat="49.25219337455928" lon="9.45580475963652">
<ele>179.4</ele>
<time>2024-05-08T09:22:43Z</time>
</trkpt>
<trkpt lat="49.25219337455928" lon="9.455799981951714">
<ele>179.6</ele>
<time>2024-05-08T09:22:44Z</time>
</trkpt>
<trkpt lat="49.25217811949551" lon="9.4557885825634">
<ele>179.6</ele>
<time>2024-05-08T09:22:45Z</time>
</trkpt>
<trkpt lat="49.2521667201072" lon="9.455776177346706">
<ele>179.6</ele>
<time>2024-05-08T09:22:46Z</time>
</trkpt>
<trkpt lat="49.25213998183608" lon="9.45576854981482">
<ele>179.6</ele>
<time>2024-05-08T09:22:47Z</time>
</trkpt>
<trkpt lat="49.252113327383995" lon="9.45576854981482">
<ele>179.6</ele>
<time>2024-05-08T09:22:49Z</time>
</trkpt>
<trkpt lat="49.25204082392156" lon="9.455779949203134">
<ele>179.8</ele>
<time>2024-05-08T09:22:50Z</time>
</trkpt>
<trkpt lat="49.25200268626213" lon="9.45578472688794">
<ele>179.8</ele>
<time>2024-05-08T09:22:51Z</time>
</trkpt>
<trkpt lat="49.25196069292724" lon="9.45579143241048">
<ele>179.8</ele>
<time>2024-05-08T09:22:52Z</time>
</trkpt>
<trkpt lat="49.251918783411384" lon="9.45580475963652">
<ele>179.8</ele>
<time>2024-05-08T09:22:53Z</time>
</trkpt>
<trkpt lat="49.251876790076494" lon="9.455818170681596">
<ele>179.8</ele>
<time>2024-05-08T09:22:54Z</time>
</trkpt>
<trkpt lat="49.25183102488518" lon="9.455829570069907">
<ele>179.8</ele>
<time>2024-05-08T09:22:55Z</time>
</trkpt>
<trkpt lat="49.25178525969386" lon="9.45584482513368">
<ele>179.8</ele>
<time>2024-05-08T09:22:56Z</time>
</trkpt>
<trkpt lat="49.25174326635897" lon="9.455858152359724">
<ele>179.8</ele>
<time>2024-05-08T09:22:57Z</time>
</trkpt>
<trkpt lat="49.251697501167655" lon="9.455875335261226">
<ele>179.8</ele>
<time>2024-05-08T09:22:58Z</time>
</trkpt>
<trkpt lat="49.25165173597634" lon="9.455891596153378">
<ele>179.8</ele>
<time>2024-05-08T09:22:59Z</time>
</trkpt>
<trkpt lat="49.25160597078502" lon="9.455908695235848">
<ele>179.8</ele>
<time>2024-05-08T09:23:00Z</time>
</trkpt>
<trkpt lat="49.251560205593705" lon="9.455924956128">
<ele>179.8</ele>
<time>2024-05-08T09:23:01Z</time>
</trkpt>
<trkpt lat="49.25151058472693" lon="9.455940211191772">
<ele>179.8</ele>
<time>2024-05-08T09:23:02Z</time>
</trkpt>
<trkpt lat="49.25146481953561" lon="9.455956388264894">
<ele>179.6</ele>
<time>2024-05-08T09:23:03Z</time>
</trkpt>
<trkpt lat="49.2514190543443" lon="9.455973571166396">
<ele>179.6</ele>
<time>2024-05-08T09:23:04Z</time>
</trkpt>
<trkpt lat="49.25137328915298" lon="9.455989832058547">
<ele>179.6</ele>
<time>2024-05-08T09:23:06Z</time>
</trkpt>
<trkpt lat="49.25127790309489" lon="9.456016486510634">
<ele>179.4</ele>
<time>2024-05-08T09:23:07Z</time>
</trkpt>
<trkpt lat="49.25123213790357" lon="9.4560269638896">
<ele>179.2</ele>
<time>2024-05-08T09:23:08Z</time>
</trkpt>
<trkpt lat="49.25118628889322" lon="9.456036519259214">
<ele>179.2</ele>
<time>2024-05-08T09:23:09Z</time>
</trkpt>
<trkpt lat="49.25113675184548" lon="9.456043224781752">
<ele>179.2</ele>
<time>2024-05-08T09:23:10Z</time>
</trkpt>
<trkpt lat="49.25109098665416" lon="9.456051774322988">
<ele>179.2</ele>
<time>2024-05-08T09:23:11Z</time>
</trkpt>
<trkpt lat="49.251045221462846" lon="9.456060407683252">
<ele>179.2</ele>
<time>2024-05-08T09:23:12Z</time>
</trkpt>
<trkpt lat="49.2509993724525" lon="9.45606702938676">
<ele>179.2</ele>
<time>2024-05-08T09:23:14Z</time>
</trkpt>
<trkpt lat="49.250907842069864" lon="9.456069879233835">
<ele>179.4</ele>
<time>2024-05-08T09:23:15Z</time>
</trkpt>
<trkpt lat="49.25085830502212" lon="9.456069879233835">
<ele>179.2</ele>
<time>2024-05-08T09:23:17Z</time>
</trkpt>
<trkpt lat="49.250766690820456" lon="9.456060407683252">
<ele>179.2</ele>
<time>2024-05-08T09:23:18Z</time>
</trkpt>
<trkpt lat="49.25071715377271" lon="9.456049846485255">
<ele>179.2</ele>
<time>2024-05-08T09:23:19Z</time>
</trkpt>
<trkpt lat="49.25067130476236" lon="9.456041296944022">
<ele>179</ele>
<time>2024-05-08T09:23:20Z</time>
</trkpt>
<trkpt lat="49.25062176771462" lon="9.456033669412136">
<ele>179</ele>
<time>2024-05-08T09:23:21Z</time>
</trkpt>
<trkpt lat="49.2505760025233" lon="9.456023192033172">
<ele>178.8</ele>
<time>2024-05-08T09:23:22Z</time>
</trkpt>
<trkpt lat="49.25052638165653" lon="9.456013636663556">
<ele>178.8</ele>
<time>2024-05-08T09:23:23Z</time>
</trkpt>
<trkpt lat="49.25048438832164" lon="9.456003159284592">
<ele>178.8</ele>
<time>2024-05-08T09:23:24Z</time>
</trkpt>
<trkpt lat="49.25044247880578" lon="9.45598689839244">
<ele>179</ele>
<time>2024-05-08T09:23:25Z</time>
</trkpt>
<trkpt lat="49.250396713614464" lon="9.455969799309967">
<ele>179</ele>
<time>2024-05-08T09:23:26Z</time>
</trkpt>
<trkpt lat="49.25035094842315" lon="9.455954544246197">
<ele>179</ele>
<time>2024-05-08T09:23:27Z</time>
</trkpt>
<trkpt lat="49.2503050994128" lon="9.455942139029505">
<ele>179.2</ele>
<time>2024-05-08T09:23:28Z</time>
</trkpt>
<trkpt lat="49.25026318989694" lon="9.455928727984428">
<ele>179.2</ele>
<time>2024-05-08T09:23:29Z</time>
</trkpt>
<trkpt lat="49.250217424705625" lon="9.455915400758386">
<ele>179.2</ele>
<time>2024-05-08T09:23:30Z</time>
</trkpt>
<trkpt lat="49.250179287046194" lon="9.455900145694612">
<ele>179.2</ele>
<time>2024-05-08T09:23:31Z</time>
</trkpt>
<trkpt lat="49.25014106556773" lon="9.455882040783765">
<ele>179</ele>
<time>2024-05-08T09:23:32Z</time>
</trkpt>
<trkpt lat="49.250099156051874" lon="9.455860080197452">
<ele>179</ele>
<time>2024-05-08T09:23:34Z</time>
</trkpt>
<trkpt lat="49.250076273456216" lon="9.45580668747425">
<ele>178.8</ele>
<time>2024-05-08T09:23:35Z</time>
</trkpt>
<trkpt lat="49.25006479024887" lon="9.45574466139078">
<ele>178.8</ele>
<time>2024-05-08T09:23:36Z</time>
</trkpt>
<trkpt lat="49.250076273456216" lon="9.45563024841249">
<ele>178.8</ele>
<time>2024-05-08T09:23:37Z</time>
</trkpt>
<trkpt lat="49.25008004531264" lon="9.455577777698636">
<ele>178.8</ele>
<time>2024-05-08T09:23:38Z</time>
</trkpt>
<trkpt lat="49.2500839009881" lon="9.45553201250732">
<ele>178.8</ele>
<time>2024-05-08T09:23:39Z</time>
</trkpt>
<trkpt lat="49.25008767284453" lon="9.455488175153732">
<ele>178.8</ele>
<time>2024-05-08T09:23:40Z</time>
</trkpt>
<trkpt lat="49.25009152851999" lon="9.45545288734138">
<ele>178.6</ele>
<time>2024-05-08T09:23:41Z</time>
</trkpt>
<trkpt lat="49.250095300376415" lon="9.455428076907992">
<ele>178.6</ele>
<time>2024-05-08T09:23:42Z</time>
</trkpt>
<trkpt lat="49.25010678358376" lon="9.455408044159412">
<ele>178.6</ele>
<time>2024-05-08T09:23:44Z</time>
</trkpt>
<trkpt lat="49.250137293711305" lon="9.455383233726025">
<ele>178.4</ele>
<time>2024-05-08T09:23:45Z</time>
</trkpt>
<trkpt lat="49.25016017630696" lon="9.455381389707329">
<ele>178.4</ele>
<time>2024-05-08T09:23:46Z</time>
</trkpt>
<trkpt lat="49.25018305890262" lon="9.455385161563754">
<ele>178.2</ele>
<time>2024-05-08T09:23:47Z</time>
</trkpt>
<trkpt lat="49.25020979717374" lon="9.4553966447711">
<ele>178.2</ele>
<time>2024-05-08T09:23:48Z</time>
</trkpt>
<trkpt lat="49.25024030730128" lon="9.455418521538377">
<ele>178.2</ele>
<time>2024-05-08T09:23:49Z</time>
</trkpt>
<trkpt lat="49.250274589285254" lon="9.455436626449227">
<ele>178.2</ele>
<time>2024-05-08T09:23:50Z</time>
</trkpt>
<trkpt lat="49.250312726944685" lon="9.45545481517911">
<ele>178</ele>
<time>2024-05-08T09:23:51Z</time>
</trkpt>
<trkpt lat="49.25035094842315" lon="9.455458587035537">
<ele>178</ele>
<time>2024-05-08T09:23:52Z</time>
</trkpt>
<trkpt lat="49.250392857939005" lon="9.45545288734138">
<ele>177.8</ele>
<time>2024-05-08T09:23:53Z</time>
</trkpt>
<trkpt lat="49.250434851273894" lon="9.455430004745722">
<ele>177.8</ele>
<time>2024-05-08T09:23:54Z</time>
</trkpt>
<trkpt lat="49.250472988933325" lon="9.455403266474605">
<ele>177.8</ele>
<time>2024-05-08T09:23:56Z</time>
</trkpt>
<trkpt lat="49.25053786486387" lon="9.455307880416512">
<ele>177.6</ele>
<time>2024-05-08T09:23:57Z</time>
</trkpt>
<trkpt lat="49.25055689178407" lon="9.455251637846231">
<ele>177.6</ele>
<time>2024-05-08T09:23:58Z</time>
</trkpt>
<trkpt lat="49.2505760025233" lon="9.455200172960758">
<ele>177.6</ele>
<time>2024-05-08T09:23:59Z</time>
</trkpt>
<trkpt lat="49.2505950294435" lon="9.455151557922363">
<ele>177.4</ele>
<time>2024-05-08T09:24:00Z</time>
</trkpt>
<trkpt lat="49.250610284507275" lon="9.455109564587474">
<ele>177.4</ele>
<time>2024-05-08T09:24:01Z</time>
</trkpt>
<trkpt lat="49.25062553957105" lon="9.455068577080963">
<ele>177.4</ele>
<time>2024-05-08T09:24:02Z</time>
</trkpt>
<trkpt lat="49.25063702277839" lon="9.455024655908346">
<ele>177.2</ele>
<time>2024-05-08T09:24:04Z</time>
</trkpt>
<trkpt lat="49.25065990537405" lon="9.454943602904676">
<ele>177.2</ele>
<time>2024-05-08T09:24:06Z</time>
</trkpt>
<trkpt lat="49.25067901611328" lon="9.454904543235898">
<ele>177.2</ele>
<time>2024-05-08T09:24:07Z</time>
</trkpt>
<trkpt lat="49.250709526240826" lon="9.45481963455677">
<ele>177.2</ele>
<time>2024-05-08T09:24:09Z</time>
</trkpt>
<trkpt lat="49.25073240883648" lon="9.45472332648933">
<ele>177</ele>
<time>2024-05-08T09:24:10Z</time>
</trkpt>
<trkpt lat="49.250747663900256" lon="9.454674711450934">
<ele>176.8</ele>
<time>2024-05-08T09:24:11Z</time>
</trkpt>
<trkpt lat="49.25075906328857" lon="9.45462509058416">
<ele>176.8</ele>
<time>2024-05-08T09:24:12Z</time>
</trkpt>
<trkpt lat="49.25077431835234" lon="9.454574547708036">
<ele>176.8</ele>
<time>2024-05-08T09:24:13Z</time>
</trkpt>
<trkpt lat="49.25079342909157" lon="9.45452492684126">
<ele>176.8</ele>
<time>2024-05-08T09:24:14Z</time>
</trkpt>
<trkpt lat="49.250808684155345" lon="9.454473461955786">
<ele>176.6</ele>
<time>2024-05-08T09:24:15Z</time>
</trkpt>
<trkpt lat="49.250827711075544" lon="9.454418141394854">
<ele>176.6</ele>
<time>2024-05-08T09:24:16Z</time>
</trkpt>
<trkpt lat="49.250846821814775" lon="9.454361898824573">
<ele>176.4</ele>
<time>2024-05-08T09:24:17Z</time>
</trkpt>
<trkpt lat="49.25086593255401" lon="9.45430657826364">
<ele>176.4</ele>
<time>2024-05-08T09:24:18Z</time>
</trkpt>
<trkpt lat="49.250884959474206" lon="9.45424840785563">
<ele>176.2</ele>
<time>2024-05-08T09:24:19Z</time>
</trkpt>
<trkpt lat="49.250907842069864" lon="9.45419023744762">
<ele>176.2</ele>
<time>2024-05-08T09:24:20Z</time>
</trkpt>
<trkpt lat="49.25092309713364" lon="9.45413013920188">
<ele>176</ele>
<time>2024-05-08T09:24:21Z</time>
</trkpt>
<trkpt lat="49.25093835219741" lon="9.454071968793867">
<ele>176</ele>
<time>2024-05-08T09:24:22Z</time>
</trkpt>
<trkpt lat="49.25095360726118" lon="9.4540099427104">
<ele>176</ele>
<time>2024-05-08T09:24:23Z</time>
</trkpt>
<trkpt lat="49.25096886232495" lon="9.45395177230239">
<ele>175.8</ele>
<time>2024-05-08T09:24:24Z</time>
</trkpt>
<trkpt lat="49.250984117388725" lon="9.453889830037951">
<ele>175.8</ele>
<time>2024-05-08T09:24:25Z</time>
</trkpt>
<trkpt lat="49.25099560059607" lon="9.453829731792212">
<ele>175.8</ele>
<time>2024-05-08T09:24:26Z</time>
</trkpt>
<trkpt lat="49.25101085565984" lon="9.453769633546472">
<ele>175.8</ele>
<time>2024-05-08T09:24:27Z</time>
</trkpt>
<trkpt lat="49.25102233886719" lon="9.453708613291385">
<ele>175.8</ele>
<time>2024-05-08T09:24:28Z</time>
</trkpt>
<trkpt lat="49.251029966399074" lon="9.453644743189216">
<ele>175.8</ele>
<time>2024-05-08T09:24:29Z</time>
</trkpt>
<trkpt lat="49.25104136578739" lon="9.453581795096396">
<ele>175.8</ele>
<time>2024-05-08T09:24:30Z</time>
</trkpt>
<trkpt lat="49.25105284899473" lon="9.453519769012928">
<ele>175.8</ele>
<time>2024-05-08T09:24:31Z</time>
</trkpt>
<trkpt lat="49.251064248383045" lon="9.45345874875784">
<ele>175.8</ele>
<time>2024-05-08T09:24:32Z</time>
</trkpt>
<trkpt lat="49.25107187591493" lon="9.45339672267437">
<ele>175.8</ele>
<time>2024-05-08T09:24:33Z</time>
</trkpt>
<trkpt lat="49.25108335912227" lon="9.45333855226636">
<ele>175.8</ele>
<time>2024-05-08T09:24:34Z</time>
</trkpt>
<trkpt lat="49.25109475851059" lon="9.453280381858349">
<ele>175.8</ele>
<time>2024-05-08T09:24:35Z</time>
</trkpt>
<trkpt lat="49.25111001357436" lon="9.45322128944099">
<ele>175.8</ele>
<time>2024-05-08T09:24:36Z</time>
</trkpt>
<trkpt lat="49.251125268638134" lon="9.45316311903298">
<ele>175.8</ele>
<time>2024-05-08T09:24:37Z</time>
</trkpt>
<trkpt lat="49.25113675184548" lon="9.45310302078724">
<ele>175.8</ele>
<time>2024-05-08T09:24:38Z</time>
</trkpt>
<trkpt lat="49.25115200690925" lon="9.45304200053215">
<ele>175.8</ele>
<time>2024-05-08T09:24:39Z</time>
</trkpt>
<trkpt lat="49.25116726197302" lon="9.45298190228641">
<ele>175.8</ele>
<time>2024-05-08T09:24:40Z</time>
</trkpt>
<trkpt lat="49.25118628889322" lon="9.45292180404067">
<ele>175.8</ele>
<time>2024-05-08T09:24:41Z</time>
</trkpt>
<trkpt lat="49.25120162777603" lon="9.452859861776233">
<ele>175.8</ele>
<time>2024-05-08T09:24:42Z</time>
</trkpt>
<trkpt lat="49.251220654696226" lon="9.452797835692763">
<ele>175.8</ele>
<time>2024-05-08T09:24:44Z</time>
</trkpt>
<trkpt lat="49.25125116482377" lon="9.452674789354203">
<ele>175.8</ele>
<time>2024-05-08T09:24:45Z</time>
</trkpt>
<trkpt lat="49.25126641988754" lon="9.452612847089767">
<ele>175.8</ele>
<time>2024-05-08T09:24:46Z</time>
</trkpt>
<trkpt lat="49.251285530626774" lon="9.45254989899695">
<ele>175.8</ele>
<time>2024-05-08T09:24:48Z</time>
</trkpt>
<trkpt lat="49.251300785690546" lon="9.452486950904133">
<ele>175.8</ele>
<time>2024-05-08T09:24:49Z</time>
</trkpt>
<trkpt lat="49.25133506767452" lon="9.452356277033688">
<ele>175.8</ele>
<time>2024-05-08T09:24:50Z</time>
</trkpt>
<trkpt lat="49.25135417841375" lon="9.45228955708444">
<ele>175.8</ele>
<time>2024-05-08T09:24:51Z</time>
</trkpt>
<trkpt lat="49.25136943347752" lon="9.452223759144545">
<ele>175.8</ele>
<time>2024-05-08T09:24:52Z</time>
</trkpt>
<trkpt lat="49.25138468854129" lon="9.45215511135757">
<ele>175.8</ele>
<time>2024-05-08T09:24:53Z</time>
</trkpt>
<trkpt lat="49.25139617174864" lon="9.452086379751565">
<ele>175.8</ele>
<time>2024-05-08T09:24:54Z</time>
</trkpt>
<trkpt lat="49.25141142681241" lon="9.452018737792969">
<ele>175.8</ele>
<time>2024-05-08T09:24:55Z</time>
</trkpt>
<trkpt lat="49.25142668187618" lon="9.451948162168264">
<ele>175.8</ele>
<time>2024-05-08T09:24:56Z</time>
</trkpt>
<trkpt lat="49.251438081264496" lon="9.451880436390638">
<ele>175.8</ele>
<time>2024-05-08T09:24:57Z</time>
</trkpt>
<trkpt lat="49.25145333632827" lon="9.451809860765934">
<ele>175.8</ele>
<time>2024-05-08T09:24:59Z</time>
</trkpt>
<trkpt lat="49.2514914739877" lon="9.451676337048411">
<ele>175.8</ele>
<time>2024-05-08T09:25:00Z</time>
</trkpt>
<trkpt lat="49.25150672905147" lon="9.451611461117864">
<ele>175.8</ele>
<time>2024-05-08T09:25:01Z</time>
</trkpt>
<trkpt lat="49.2515258397907" lon="9.451548513025044">
<ele>175.8</ele>
<time>2024-05-08T09:25:02Z</time>
</trkpt>
<trkpt lat="49.25154495052993" lon="9.4514817930758">
<ele>175.8</ele>
<time>2024-05-08T09:25:03Z</time>
</trkpt>
<trkpt lat="49.25156397745013" lon="9.451416917145252">
<ele>175.8</ele>
<time>2024-05-08T09:25:04Z</time>
</trkpt>
<trkpt lat="49.25158308818936" lon="9.451350197196009">
<ele>175.8</ele>
<time>2024-05-08T09:25:05Z</time>
</trkpt>
<trkpt lat="49.251598343253136" lon="9.45128339342773">
<ele>175.8</ele>
<time>2024-05-08T09:25:06Z</time>
</trkpt>
<trkpt lat="49.25161359831691" lon="9.451214745640756">
<ele>175.8</ele>
<time>2024-05-08T09:25:08Z</time>
</trkpt>
<trkpt lat="49.25165173597634" lon="9.451080299913883">
<ele>175.8</ele>
<time>2024-05-08T09:25:09Z</time>
</trkpt>
<trkpt lat="49.25167076289654" lon="9.451013496145606">
<ele>175.8</ele>
<time>2024-05-08T09:25:10Z</time>
</trkpt>
<trkpt lat="49.25168987363577" lon="9.450944848358631">
<ele>175.8</ele>
<time>2024-05-08T09:25:11Z</time>
</trkpt>
<trkpt lat="49.251708984375" lon="9.450876200571656">
<ele>175.8</ele>
<time>2024-05-08T09:25:12Z</time>
</trkpt>
<trkpt lat="49.25173186697066" lon="9.450811324641109">
<ele>175.8</ele>
<time>2024-05-08T09:25:13Z</time>
</trkpt>
<trkpt lat="49.25175089389086" lon="9.450746532529593">
<ele>175.8</ele>
<time>2024-05-08T09:25:14Z</time>
</trkpt>
<trkpt lat="49.25177000463009" lon="9.450681656599045">
<ele>175.8</ele>
<time>2024-05-08T09:25:15Z</time>
</trkpt>
<trkpt lat="49.25179288722575" lon="9.450616780668495">
<ele>175.8</ele>
<time>2024-05-08T09:25:16Z</time>
</trkpt>
<trkpt lat="49.25181191414595" lon="9.450550060719252">
<ele>175.8</ele>
<time>2024-05-08T09:25:17Z</time>
</trkpt>
<trkpt lat="49.25183102488518" lon="9.450485184788704">
<ele>175.8</ele>
<time>2024-05-08T09:25:18Z</time>
</trkpt>
<trkpt lat="49.25185005180538" lon="9.450418464839458">
<ele>175.8</ele>
<time>2024-05-08T09:25:19Z</time>
</trkpt>
<trkpt lat="49.25186530686915" lon="9.45035166107118">
<ele>175.8</ele>
<time>2024-05-08T09:25:20Z</time>
</trkpt>
<trkpt lat="49.25188441760838" lon="9.450288712978365">
<ele>175.8</ele>
<time>2024-05-08T09:25:21Z</time>
</trkpt>
<trkpt lat="49.25190352834761" lon="9.450228614732625">
<ele>176</ele>
<time>2024-05-08T09:25:22Z</time>
</trkpt>
<trkpt lat="49.251918783411384" lon="9.4501780718565">
<ele>176</ele>
<time>2024-05-08T09:25:24Z</time>
</trkpt>
<trkpt lat="49.25194929353893" lon="9.450088469311597">
<ele>176.4</ele>
<time>2024-05-08T09:25:25Z</time>
</trkpt>
<trkpt lat="49.2519645486027" lon="9.450043626129627">
<ele>176.4</ele>
<time>2024-05-08T09:25:27Z</time>
</trkpt>
<trkpt lat="49.251991203054786" lon="9.449952095746994">
<ele>176.8</ele>
<time>2024-05-08T09:25:28Z</time>
</trkpt>
<trkpt lat="49.251995058730245" lon="9.449905324727297">
<ele>176.8</ele>
<time>2024-05-08T09:25:30Z</time>
</trkpt>
<trkpt lat="49.25201031379402" lon="9.449810022488236">
<ele>177</ele>
<time>2024-05-08T09:25:31Z</time>
</trkpt>
<trkpt lat="49.252029340714216" lon="9.44976132363081">
<ele>177</ele>
<time>2024-05-08T09:25:32Z</time>
</trkpt>
<trkpt lat="49.25204459577799" lon="9.449707008898258">
<ele>177.2</ele>
<time>2024-05-08T09:25:34Z</time>
</trkpt>
<trkpt lat="49.25208658911288" lon="9.449595445767043">
<ele>177.2</ele>
<time>2024-05-08T09:25:35Z</time>
</trkpt>
<trkpt lat="49.25210569985211" lon="9.449540125206113">
<ele>177.2</ele>
<time>2024-05-08T09:25:36Z</time>
</trkpt>
<trkpt lat="49.25212472677231" lon="9.449481954798102">
<ele>177.2</ele>
<time>2024-05-08T09:25:37Z</time>
</trkpt>
<trkpt lat="49.252151465043426" lon="9.44942663423717">
<ele>177.4</ele>
<time>2024-05-08T09:25:38Z</time>
</trkpt>
<trkpt lat="49.252170491963625" lon="9.449371313676238">
<ele>177.4</ele>
<time>2024-05-08T09:25:39Z</time>
</trkpt>
<trkpt lat="49.25219337455928" lon="9.449315071105955">
<ele>177.4</ele>
<time>2024-05-08T09:25:40Z</time>
</trkpt>
<trkpt lat="49.252212485298514" lon="9.449258744716644">
<ele>177.6</ele>
<time>2024-05-08T09:25:41Z</time>
</trkpt>
<trkpt lat="49.25223536789417" lon="9.449198646470904">
<ele>177.6</ele>
<time>2024-05-08T09:25:42Z</time>
</trkpt>
<trkpt lat="49.25225825048983" lon="9.449138632044196">
<ele>177.6</ele>
<time>2024-05-08T09:25:43Z</time>
</trkpt>
<trkpt lat="49.25228113308549" lon="9.449079455807803">
<ele>177.6</ele>
<time>2024-05-08T09:25:44Z</time>
</trkpt>
<trkpt lat="49.25230401568115" lon="9.449021285399796">
<ele>177.6</ele>
<time>2024-05-08T09:25:45Z</time>
</trkpt>
<trkpt lat="49.25232312642038" lon="9.448961187154056">
<ele>177.6</ele>
<time>2024-05-08T09:25:46Z</time>
</trkpt>
<trkpt lat="49.25234600901604" lon="9.448902094736695">
<ele>177.6</ele>
<time>2024-05-08T09:25:47Z</time>
</trkpt>
<trkpt lat="49.252368891611695" lon="9.448843002319336">
<ele>177.6</ele>
<time>2024-05-08T09:25:48Z</time>
</trkpt>
<trkpt lat="49.25241465680301" lon="9.448724733665586">
<ele>177.6</ele>
<time>2024-05-08T09:25:50Z</time>
</trkpt>
<trkpt lat="49.25243376754224" lon="9.448661785572767">
<ele>177.6</ele>
<time>2024-05-08T09:25:51Z</time>
</trkpt>
<trkpt lat="49.2524566501379" lon="9.448599759489298">
<ele>177.4</ele>
<time>2024-05-08T09:25:52Z</time>
</trkpt>
<trkpt lat="49.25247953273356" lon="9.448538739234207">
<ele>177.6</ele>
<time>2024-05-08T09:25:53Z</time>
</trkpt>
<trkpt lat="49.25249855965376" lon="9.44847671315074">
<ele>177.6</ele>
<time>2024-05-08T09:25:54Z</time>
</trkpt>
<trkpt lat="49.25252144224942" lon="9.448414770886302">
<ele>177.4</ele>
<time>2024-05-08T09:25:55Z</time>
</trkpt>
<trkpt lat="49.25254432484507" lon="9.448351822793484">
<ele>177.4</ele>
<time>2024-05-08T09:25:56Z</time>
</trkpt>
<trkpt lat="49.25256343558431" lon="9.448287952691317">
<ele>177.4</ele>
<time>2024-05-08T09:25:58Z</time>
</trkpt>
<trkpt lat="49.252590173855424" lon="9.448225004598498">
<ele>177.4</ele>
<time>2024-05-08T09:25:59Z</time>
</trkpt>
<trkpt lat="49.25263971090317" lon="9.448102880269287">
<ele>177</ele>
<time>2024-05-08T09:26:00Z</time>
</trkpt>
<trkpt lat="49.252662593498826" lon="9.4480418600142">
<ele>177</ele>
<time>2024-05-08T09:26:01Z</time>
</trkpt>
<trkpt lat="49.25268547609448" lon="9.447977989912031">
<ele>177</ele>
<time>2024-05-08T09:26:02Z</time>
</trkpt>
<trkpt lat="49.25270835869014" lon="9.447916969656944">
<ele>177</ele>
<time>2024-05-08T09:26:04Z</time>
</trkpt>
<trkpt lat="49.25275797955692" lon="9.447791995480657">
<ele>177.4</ele>
<time>2024-05-08T09:26:05Z</time>
</trkpt>
<trkpt lat="49.252780862152576" lon="9.44773005321622">
<ele>177.4</ele>
<time>2024-05-08T09:26:06Z</time>
</trkpt>
<trkpt lat="49.252803744748235" lon="9.44766802713275">
<ele>177.6</ele>
<time>2024-05-08T09:26:07Z</time>
</trkpt>
<trkpt lat="49.25282662734389" lon="9.44760792888701">
<ele>177.8</ele>
<time>2024-05-08T09:26:08Z</time>
</trkpt>
<trkpt lat="49.25284950993955" lon="9.44754690863192">
<ele>178</ele>
<time>2024-05-08T09:26:09Z</time>
</trkpt>
<trkpt lat="49.25287239253521" lon="9.447484966367483">
<ele>178</ele>
<time>2024-05-08T09:26:10Z</time>
</trkpt>
<trkpt lat="49.25289150327444" lon="9.447422940284014">
<ele>178.2</ele>
<time>2024-05-08T09:26:11Z</time>
</trkpt>
<trkpt lat="49.2529143858701" lon="9.447364769876003">
<ele>178.2</ele>
<time>2024-05-08T09:26:12Z</time>
</trkpt>
<trkpt lat="49.25293349660933" lon="9.447299893945456">
<ele>178.4</ele>
<time>2024-05-08T09:26:13Z</time>
</trkpt>
<trkpt lat="49.25295252352953" lon="9.44723317399621">
<ele>178.4</ele>
<time>2024-05-08T09:26:14Z</time>
</trkpt>
<trkpt lat="49.25297163426876" lon="9.447166370227931">
<ele>178.6</ele>
<time>2024-05-08T09:26:15Z</time>
</trkpt>
<trkpt lat="49.25298688933253" lon="9.44709872826934">
<ele>178.6</ele>
<time>2024-05-08T09:26:16Z</time>
</trkpt>
<trkpt lat="49.253002144396305" lon="9.44703284651041">
<ele>178.6</ele>
<time>2024-05-08T09:26:17Z</time>
</trkpt>
<trkpt lat="49.25301354378462" lon="9.446968054398894">
<ele>178.4</ele>
<time>2024-05-08T09:26:18Z</time>
</trkpt>
<trkpt lat="49.25302502699196" lon="9.446903178468348">
<ele>178.4</ele>
<time>2024-05-08T09:26:19Z</time>
</trkpt>
<trkpt lat="49.25303265452385" lon="9.446831680834292">
<ele>178.4</ele>
<time>2024-05-08T09:26:20Z</time>
</trkpt>
<trkpt lat="49.253040282055736" lon="9.446762027218938">
<ele>178.4</ele>
<time>2024-05-08T09:26:21Z</time>
</trkpt>
<trkpt lat="49.25304790958762" lon="9.446695307269692">
<ele>178.4</ele>
<time>2024-05-08T09:26:22Z</time>
</trkpt>
<trkpt lat="49.253059308975935" lon="9.446626659482718">
<ele>178.4</ele>
<time>2024-05-08T09:26:23Z</time>
</trkpt>
<trkpt lat="49.25306693650782" lon="9.446557927876713">
<ele>178.6</ele>
<time>2024-05-08T09:26:24Z</time>
</trkpt>
<trkpt lat="49.25307456403971" lon="9.446490285918117">
<ele>178.6</ele>
<time>2024-05-08T09:26:25Z</time>
</trkpt>
<trkpt lat="49.253082275390625" lon="9.44642155431211">
<ele>178.6</ele>
<time>2024-05-08T09:26:26Z</time>
</trkpt>
<trkpt lat="49.25308990292251" lon="9.446352906525137">
<ele>178.6</ele>
<time>2024-05-08T09:26:27Z</time>
</trkpt>
<trkpt lat="49.25309367477894" lon="9.446285180747507">
<ele>178.6</ele>
<time>2024-05-08T09:26:28Z</time>
</trkpt>
<trkpt lat="49.2530975304544" lon="9.446218460798264">
<ele>178.6</ele>
<time>2024-05-08T09:26:29Z</time>
</trkpt>
<trkpt lat="49.2530975304544" lon="9.446149813011289">
<ele>178.6</ele>
<time>2024-05-08T09:26:30Z</time>
</trkpt>
<trkpt lat="49.2530975304544" lon="9.446083009243011">
<ele>178.6</ele>
<time>2024-05-08T09:26:31Z</time>
</trkpt>
<trkpt lat="49.25309367477894" lon="9.446013439446688">
<ele>178.6</ele>
<time>2024-05-08T09:26:32Z</time>
</trkpt>
<trkpt lat="49.25309367477894" lon="9.445942863821983">
<ele>178.6</ele>
<time>2024-05-08T09:26:33Z</time>
</trkpt>
<trkpt lat="49.25308990292251" lon="9.445875138044356">
<ele>178.6</ele>
<time>2024-05-08T09:26:34Z</time>
</trkpt>
<trkpt lat="49.25308604724705" lon="9.44580833427608">
<ele>178.6</ele>
<time>2024-05-08T09:26:35Z</time>
</trkpt>
<trkpt lat="49.25308604724705" lon="9.445739686489103">
<ele>178.6</ele>
<time>2024-05-08T09:26:36Z</time>
</trkpt>
<trkpt lat="49.253078419715166" lon="9.44567011669278">
<ele>178.4</ele>
<time>2024-05-08T09:26:38Z</time>
</trkpt>
<trkpt lat="49.253063164651394" lon="9.445527037605643">
<ele>178.4</ele>
<time>2024-05-08T09:26:39Z</time>
</trkpt>
<trkpt lat="49.253059308975935" lon="9.44545453414321">
<ele>178.4</ele>
<time>2024-05-08T09:26:40Z</time>
</trkpt>
<trkpt lat="49.25305168144405" lon="9.445383036509156">
<ele>178.4</ele>
<time>2024-05-08T09:26:41Z</time>
</trkpt>
<trkpt lat="49.25303642638028" lon="9.44531623274088">
<ele>178.4</ele>
<time>2024-05-08T09:26:42Z</time>
</trkpt>
<trkpt lat="49.25302502699196" lon="9.445251440629365">
<ele>178.4</ele>
<time>2024-05-08T09:26:43Z</time>
</trkpt>
<trkpt lat="49.25301354378462" lon="9.445190420374274">
<ele>178.4</ele>
<time>2024-05-08T09:26:44Z</time>
</trkpt>
<trkpt lat="49.25300591625273" lon="9.445124622434378">
<ele>178.6</ele>
<time>2024-05-08T09:26:45Z</time>
</trkpt>
<trkpt lat="49.252998288720846" lon="9.44505874067545">
<ele>178.6</ele>
<time>2024-05-08T09:26:46Z</time>
</trkpt>
<trkpt lat="49.25298688933253" lon="9.444992942735553">
<ele>178.6</ele>
<time>2024-05-08T09:26:47Z</time>
</trkpt>
<trkpt lat="49.25297540612519" lon="9.444928150624037">
<ele>178.6</ele>
<time>2024-05-08T09:26:49Z</time>
</trkpt>
<trkpt lat="49.25295252352953" lon="9.44479839876294">
<ele>178.8</ele>
<time>2024-05-08T09:26:50Z</time>
</trkpt>
<trkpt lat="49.252941124141216" lon="9.444733606651424">
<ele>178.8</ele>
<time>2024-05-08T09:26:51Z</time>
</trkpt>
<trkpt lat="49.252922013401985" lon="9.444666802883148">
<ele>178.8</ele>
<time>2024-05-08T09:26:52Z</time>
</trkpt>
<trkpt lat="49.252902902662754" lon="9.444598155096172">
<ele>179</ele>
<time>2024-05-08T09:26:53Z</time>
</trkpt>
<trkpt lat="49.252883875742555" lon="9.444531435146928">
<ele>179</ele>
<time>2024-05-08T09:26:54Z</time>
</trkpt>
<trkpt lat="49.25286476500333" lon="9.44446463137865">
<ele>179</ele>
<time>2024-05-08T09:26:55Z</time>
</trkpt>
<trkpt lat="49.25284573808312" lon="9.44440453313291">
<ele>179</ele>
<time>2024-05-08T09:26:56Z</time>
</trkpt>
<trkpt lat="49.252822855487466" lon="9.444343512877822">
<ele>179</ele>
<time>2024-05-08T09:26:57Z</time>
</trkpt>
<trkpt lat="49.25279997289181" lon="9.444281570613384">
<ele>179</ele>
<time>2024-05-08T09:26:58Z</time>
</trkpt>
<trkpt lat="49.25277323462069" lon="9.444221472367644">
<ele>178.8</ele>
<time>2024-05-08T09:26:59Z</time>
</trkpt>
<trkpt lat="49.25275035202503" lon="9.444160452112556">
<ele>178.8</ele>
<time>2024-05-08T09:27:00Z</time>
</trkpt>
<trkpt lat="49.252723613753915" lon="9.444100353866816">
<ele>178.6</ele>
<time>2024-05-08T09:27:01Z</time>
</trkpt>
<trkpt lat="49.25269695930183" lon="9.444041177630424">
<ele>178.6</ele>
<time>2024-05-08T09:27:02Z</time>
</trkpt>
<trkpt lat="49.25267022103071" lon="9.443983007222414">
<ele>178.6</ele>
<time>2024-05-08T09:27:03Z</time>
</trkpt>
<trkpt lat="49.25264356657863" lon="9.443926764652131">
<ele>178.6</ele>
<time>2024-05-08T09:27:04Z</time>
</trkpt>
<trkpt lat="49.25261305645108" lon="9.443869516253471">
<ele>178.4</ele>
<time>2024-05-08T09:27:05Z</time>
</trkpt>
<trkpt lat="49.25258254632354" lon="9.44381520152092">
<ele>178.4</ele>
<time>2024-05-08T09:27:06Z</time>
</trkpt>
<trkpt lat="49.25255195237696" lon="9.443763652816417">
<ele>178.4</ele>
<time>2024-05-08T09:27:07Z</time>
</trkpt>
<trkpt lat="49.25252144224942" lon="9.44371310994029">
<ele>178.4</ele>
<time>2024-05-08T09:27:08Z</time>
</trkpt>
<trkpt lat="49.25249093212187" lon="9.443663572892548">
<ele>178.4</ele>
<time>2024-05-08T09:27:09Z</time>
</trkpt>
<trkpt lat="49.25246042199433" lon="9.443613030016422">
<ele>178.2</ele>
<time>2024-05-08T09:27:10Z</time>
</trkpt>
<trkpt lat="49.252429911866784" lon="9.443566258996723">
<ele>178.2</ele>
<time>2024-05-08T09:27:11Z</time>
</trkpt>
<trkpt lat="49.25239562988281" lon="9.44351957179606">
<ele>178.2</ele>
<time>2024-05-08T09:27:12Z</time>
</trkpt>
<trkpt lat="49.25235740840435" lon="9.44347858428955">
<ele>178.2</ele>
<time>2024-05-08T09:27:13Z</time>
</trkpt>
<trkpt lat="49.25232312642038" lon="9.443434663116932">
<ele>178.2</ele>
<time>2024-05-08T09:27:14Z</time>
</trkpt>
<trkpt lat="49.252288760617375" lon="9.443389819934964">
<ele>178.2</ele>
<time>2024-05-08T09:27:15Z</time>
</trkpt>
<trkpt lat="49.25225825048983" lon="9.443346904590726">
<ele>178.2</ele>
<time>2024-05-08T09:27:16Z</time>
</trkpt>
<trkpt lat="49.2522201128304" lon="9.44330214522779">
<ele>178.2</ele>
<time>2024-05-08T09:27:17Z</time>
</trkpt>
<trkpt lat="49.2521857470274" lon="9.4432601518929">
<ele>178.2</ele>
<time>2024-05-08T09:27:18Z</time>
</trkpt>
<trkpt lat="49.25214760936797" lon="9.443216314539312">
<ele>178.2</ele>
<time>2024-05-08T09:27:19Z</time>
</trkpt>
<trkpt lat="49.252109471708536" lon="9.443173399195077">
<ele>178.2</ele>
<time>2024-05-08T09:27:20Z</time>
</trkpt>
<trkpt lat="49.252075189724565" lon="9.443133333697917">
<ele>178.2</ele>
<time>2024-05-08T09:27:21Z</time>
</trkpt>
<trkpt lat="49.252033196389675" lon="9.443095196038485">
<ele>178.2</ele>
<time>2024-05-08T09:27:22Z</time>
</trkpt>
<trkpt lat="49.251995058730245" lon="9.443057980388405">
<ele>178.2</ele>
<time>2024-05-08T09:27:23Z</time>
</trkpt>
<trkpt lat="49.251953065395355" lon="9.4430236145854">
<ele>178.2</ele>
<time>2024-05-08T09:27:24Z</time>
</trkpt>
<trkpt lat="49.251914927735925" lon="9.442988326773047">
<ele>178.2</ele>
<time>2024-05-08T09:27:25Z</time>
</trkpt>
<trkpt lat="49.251872934401035" lon="9.442956894636154">
<ele>178.2</ele>
<time>2024-05-08T09:27:26Z</time>
</trkpt>
<trkpt lat="49.25183102488518" lon="9.44292638450861">
<ele>178.2</ele>
<time>2024-05-08T09:27:27Z</time>
</trkpt>
<trkpt lat="49.25179288722575" lon="9.442898724228144">
<ele>178.2</ele>
<time>2024-05-08T09:27:28Z</time>
</trkpt>
<trkpt lat="49.25175089389086" lon="9.442871985957026">
<ele>178.2</ele>
<time>2024-05-08T09:27:29Z</time>
</trkpt>
<trkpt lat="49.251708984375" lon="9.44284533150494">
<ele>178.2</ele>
<time>2024-05-08T09:27:30Z</time>
</trkpt>
<trkpt lat="49.25166313536465" lon="9.442818593233824">
<ele>178.2</ele>
<time>2024-05-08T09:27:31Z</time>
</trkpt>
<trkpt lat="49.251621225848794" lon="9.442791938781738">
<ele>178.2</ele>
<time>2024-05-08T09:27:32Z</time>
</trkpt>
<trkpt lat="49.25157546065748" lon="9.44276612251997">
<ele>178.2</ele>
<time>2024-05-08T09:27:33Z</time>
</trkpt>
<trkpt lat="49.25152961164713" lon="9.442743239924312">
<ele>178.2</ele>
<time>2024-05-08T09:27:34Z</time>
</trkpt>
<trkpt lat="49.25148384645581" lon="9.442721363157034">
<ele>178.2</ele>
<time>2024-05-08T09:27:35Z</time>
</trkpt>
<trkpt lat="49.25143430940807" lon="9.442701330408454">
<ele>178.2</ele>
<time>2024-05-08T09:27:36Z</time>
</trkpt>
<trkpt lat="49.25138854421675" lon="9.442683141678572">
<ele>178.2</ele>
<time>2024-05-08T09:27:37Z</time>
</trkpt>
<trkpt lat="49.25133892334998" lon="9.44266696460545">
<ele>178.2</ele>
<time>2024-05-08T09:27:38Z</time>
</trkpt>
<trkpt lat="49.2512893024832" lon="9.442651709541678">
<ele>178.2</ele>
<time>2024-05-08T09:27:39Z</time>
</trkpt>
<trkpt lat="49.25123976543546" lon="9.442638382315636">
<ele>178.2</ele>
<time>2024-05-08T09:27:40Z</time>
</trkpt>
<trkpt lat="49.25118628889322" lon="9.44262497127056">
<ele>178.2</ele>
<time>2024-05-08T09:27:41Z</time>
</trkpt>
<trkpt lat="49.25113675184548" lon="9.442614493891597">
<ele>178.2</ele>
<time>2024-05-08T09:27:42Z</time>
</trkpt>
<trkpt lat="49.25108335912227" lon="9.44260493852198">
<ele>178</ele>
<time>2024-05-08T09:27:43Z</time>
</trkpt>
<trkpt lat="49.2510337382555" lon="9.442596388980746">
<ele>178</ele>
<time>2024-05-08T09:27:44Z</time>
</trkpt>
<trkpt lat="49.2509803455323" lon="9.44258876144886">
<ele>178</ele>
<time>2024-05-08T09:27:45Z</time>
</trkpt>
<trkpt lat="49.25093072466552" lon="9.442583061754704">
<ele>178</ele>
<time>2024-05-08T09:27:46Z</time>
</trkpt>
<trkpt lat="49.25088118761778" lon="9.442578284069896">
<ele>178</ele>
<time>2024-05-08T09:27:47Z</time>
</trkpt>
<trkpt lat="49.250831566751" lon="9.442578284069896">
<ele>178</ele>
<time>2024-05-08T09:27:49Z</time>
</trkpt>
<trkpt lat="49.25073240883648" lon="9.442584989592431">
<ele>178</ele>
<time>2024-05-08T09:27:50Z</time>
</trkpt>
<trkpt lat="49.25068278796971" lon="9.442589683458207">
<ele>178</ele>
<time>2024-05-08T09:27:51Z</time>
</trkpt>
<trkpt lat="49.25063316710293" lon="9.442594461143017">
<ele>178</ele>
<time>2024-05-08T09:27:52Z</time>
</trkpt>
<trkpt lat="49.25058363005519" lon="9.442603094503284">
<ele>178</ele>
<time>2024-05-08T09:27:54Z</time>
</trkpt>
<trkpt lat="49.25048438832164" lon="9.44262689910829">
<ele>178</ele>
<time>2024-05-08T09:27:55Z</time>
</trkpt>
<trkpt lat="49.250434851273894" lon="9.442641232162714">
<ele>178</ele>
<time>2024-05-08T09:27:56Z</time>
</trkpt>
<trkpt lat="49.25038523040712" lon="9.442656487226486">
<ele>178</ele>
<time>2024-05-08T09:27:57Z</time>
</trkpt>
<trkpt lat="49.25033183768392" lon="9.442671742290258">
<ele>178</ele>
<time>2024-05-08T09:27:58Z</time>
</trkpt>
<trkpt lat="49.25028221681714" lon="9.442689847201107">
<ele>178</ele>
<time>2024-05-08T09:27:59Z</time>
</trkpt>
<trkpt lat="49.2502326797694" lon="9.442711807787418">
<ele>178</ele>
<time>2024-05-08T09:28:00Z</time>
</trkpt>
<trkpt lat="49.25018305890262" lon="9.442733684554696">
<ele>178.2</ele>
<time>2024-05-08T09:28:01Z</time>
</trkpt>
<trkpt lat="49.250133438035846" lon="9.442753717303276">
<ele>178.2</ele>
<time>2024-05-08T09:28:02Z</time>
</trkpt>
<trkpt lat="49.2500839009881" lon="9.442774755880237">
<ele>178.2</ele>
<time>2024-05-08T09:28:03Z</time>
</trkpt>
<trkpt lat="49.250034280121326" lon="9.442794788628817">
<ele>178.2</ele>
<time>2024-05-08T09:28:04Z</time>
</trkpt>
<trkpt lat="49.24998465925455" lon="9.442814821377397">
<ele>178.2</ele>
<time>2024-05-08T09:28:05Z</time>
</trkpt>
<trkpt lat="49.24993512220681" lon="9.442832926288249">
<ele>178.2</ele>
<time>2024-05-08T09:28:06Z</time>
</trkpt>
<trkpt lat="49.2498817294836" lon="9.442854803055525">
<ele>178.2</ele>
<time>2024-05-08T09:28:07Z</time>
</trkpt>
<trkpt lat="49.24983596429229" lon="9.442874835804105">
<ele>178.2</ele>
<time>2024-05-08T09:28:08Z</time>
</trkpt>
<trkpt lat="49.24978634342551" lon="9.442896796390414">
<ele>178.2</ele>
<time>2024-05-08T09:28:09Z</time>
</trkpt>
<trkpt lat="49.24973672255874" lon="9.442919678986073">
<ele>178.2</ele>
<time>2024-05-08T09:28:10Z</time>
</trkpt>
<trkpt lat="49.24968718551099" lon="9.442943567410111">
<ele>178.2</ele>
<time>2024-05-08T09:28:11Z</time>
</trkpt>
<trkpt lat="49.24963756464422" lon="9.442963600158691">
<ele>178.2</ele>
<time>2024-05-08T09:28:12Z</time>
</trkpt>
<trkpt lat="49.24958794377744" lon="9.44298354908824">
<ele>178.2</ele>
<time>2024-05-08T09:28:13Z</time>
</trkpt>
<trkpt lat="49.2495384067297" lon="9.44300358183682">
<ele>178.2</ele>
<time>2024-05-08T09:28:14Z</time>
</trkpt>
<trkpt lat="49.24948878586292" lon="9.443021770566702">
<ele>178.2</ele>
<time>2024-05-08T09:28:15Z</time>
</trkpt>
<trkpt lat="49.249443020671606" lon="9.443035097792745">
<ele>178.2</ele>
<time>2024-05-08T09:28:16Z</time>
</trkpt>
<trkpt lat="49.24939339980483" lon="9.443046497181058">
<ele>178.2</ele>
<time>2024-05-08T09:28:17Z</time>
</trkpt>
<trkpt lat="49.24934386275709" lon="9.443057980388405">
<ele>178.2</ele>
<time>2024-05-08T09:28:18Z</time>
</trkpt>
<trkpt lat="49.24929801374674" lon="9.443071307614446">
<ele>178.2</ele>
<time>2024-05-08T09:28:19Z</time>
</trkpt>
<trkpt lat="49.249248476698995" lon="9.44308371283114">
<ele>178.2</ele>
<time>2024-05-08T09:28:20Z</time>
</trkpt>
<trkpt lat="49.24920271150768" lon="9.443088490515947">
<ele>178.2</ele>
<time>2024-05-08T09:28:21Z</time>
</trkpt>
<trkpt lat="49.2491530906409" lon="9.443093268200755">
<ele>178.2</ele>
<time>2024-05-08T09:28:22Z</time>
</trkpt>
<trkpt lat="49.249107325449586" lon="9.443095196038485">
<ele>178.2</ele>
<time>2024-05-08T09:28:23Z</time>
</trkpt>
<trkpt lat="49.24906156025827" lon="9.443095196038485">
<ele>178.2</ele>
<time>2024-05-08T09:28:24Z</time>
</trkpt>
<trkpt lat="49.24901579506695" lon="9.443088490515947">
<ele>178.2</ele>
<time>2024-05-08T09:28:25Z</time>
</trkpt>
<trkpt lat="49.24897380173206" lon="9.443075163289905">
<ele>178.2</ele>
<time>2024-05-08T09:28:26Z</time>
</trkpt>
<trkpt lat="49.24892803654075" lon="9.443068457767367">
<ele>178.2</ele>
<time>2024-05-08T09:28:27Z</time>
</trkpt>
<trkpt lat="49.24887841567397" lon="9.44306175224483">
<ele>178.2</ele>
<time>2024-05-08T09:28:28Z</time>
</trkpt>
<trkpt lat="49.24882502295077" lon="9.443055130541325">
<ele>178.2</ele>
<time>2024-05-08T09:28:29Z</time>
</trkpt>
<trkpt lat="49.24877925775945" lon="9.44304364733398">
<ele>178.2</ele>
<time>2024-05-08T09:28:30Z</time>
</trkpt>
<trkpt lat="49.24872963689267" lon="9.443033169955015">
<ele>178.2</ele>
<time>2024-05-08T09:28:31Z</time>
</trkpt>
<trkpt lat="49.24868009984493" lon="9.443026464432478">
<ele>178.2</ele>
<time>2024-05-08T09:28:32Z</time>
</trkpt>
<trkpt lat="49.248634334653616" lon="9.443016992881894">
<ele>178.2</ele>
<time>2024-05-08T09:28:34Z</time>
</trkpt>
<trkpt lat="49.24853894859552" lon="9.442991176620126">
<ele>178</ele>
<time>2024-05-08T09:28:35Z</time>
</trkpt>
<trkpt lat="49.24848555587232" lon="9.442979777231812">
<ele>178</ele>
<time>2024-05-08T09:28:36Z</time>
</trkpt>
<trkpt lat="49.248435935005546" lon="9.442961672320962">
<ele>178</ele>
<time>2024-05-08T09:28:37Z</time>
</trkpt>
<trkpt lat="49.24839016981423" lon="9.442936861887574">
<ele>178</ele>
<time>2024-05-08T09:28:38Z</time>
</trkpt>
<trkpt lat="49.24834054894745" lon="9.442910123616455">
<ele>178</ele>
<time>2024-05-08T09:28:39Z</time>
</trkpt>
<trkpt lat="49.248283384367824" lon="9.44288824684918">
<ele>178</ele>
<time>2024-05-08T09:28:40Z</time>
</trkpt>
<trkpt lat="49.248237535357475" lon="9.442859580740333">
<ele>177.8</ele>
<time>2024-05-08T09:28:42Z</time>
</trkpt>
<trkpt lat="49.248142233118415" lon="9.442799566313624">
<ele>177.8</ele>
<time>2024-05-08T09:28:43Z</time>
</trkpt>
<trkpt lat="49.24809638410807" lon="9.442779533565044">
<ele>177.8</ele>
<time>2024-05-08T09:28:44Z</time>
</trkpt>
<trkpt lat="49.24805061891675" lon="9.442753717303276">
<ele>177.8</ele>
<time>2024-05-08T09:28:45Z</time>
</trkpt>
<trkpt lat="49.24801633693278" lon="9.442723207175732">
<ele>177.8</ele>
<time>2024-05-08T09:28:46Z</time>
</trkpt>
<trkpt lat="49.24797434359789" lon="9.44268699735403">
<ele>177.8</ele>
<time>2024-05-08T09:28:48Z</time>
</trkpt>
<trkpt lat="49.24789044074714" lon="9.44260686635971">
<ele>178</ele>
<time>2024-05-08T09:28:49Z</time>
</trkpt>
<trkpt lat="49.24784844741225" lon="9.442555401474236">
<ele>178</ele>
<time>2024-05-08T09:28:50Z</time>
</trkpt>
<trkpt lat="49.247802682220936" lon="9.442502008751037">
<ele>177.8</ele>
<time>2024-05-08T09:28:51Z</time>
</trkpt>
<trkpt lat="49.24776077270508" lon="9.44245146587491">
<ele>177.8</ele>
<time>2024-05-08T09:28:52Z</time>
</trkpt>
<trkpt lat="49.24771492369473" lon="9.442397989332676">
<ele>177.8</ele>
<time>2024-05-08T09:28:53Z</time>
</trkpt>
<trkpt lat="49.2476767860353" lon="9.442343674600124">
<ele>177.6</ele>
<time>2024-05-08T09:28:54Z</time>
</trkpt>
<trkpt lat="49.24763487651944" lon="9.442290281876922">
<ele>177.6</ele>
<time>2024-05-08T09:28:55Z</time>
</trkpt>
<trkpt lat="49.24759673886001" lon="9.442237811163068">
<ele>177.4</ele>
<time>2024-05-08T09:28:56Z</time>
</trkpt>
<trkpt lat="49.24755851738155" lon="9.442186346277596">
<ele>177.4</ele>
<time>2024-05-08T09:28:57Z</time>
</trkpt>
<trkpt lat="49.24752423539758" lon="9.442131947726011">
<ele>177.4</ele>
<time>2024-05-08T09:28:58Z</time>
</trkpt>
<trkpt lat="49.247489869594574" lon="9.44207469932735">
<ele>177.4</ele>
<time>2024-05-08T09:28:59Z</time>
</trkpt>
<trkpt lat="49.2474555876106" lon="9.44201367907226">
<ele>177.2</ele>
<time>2024-05-08T09:29:00Z</time>
</trkpt>
<trkpt lat="49.24742507748306" lon="9.44195358082652">
<ele>177.2</ele>
<time>2024-05-08T09:29:01Z</time>
</trkpt>
<trkpt lat="49.24739448353648" lon="9.441891638562083">
<ele>177.2</ele>
<time>2024-05-08T09:29:02Z</time>
</trkpt>
<trkpt lat="49.24736397340894" lon="9.441831540316343">
<ele>177.2</ele>
<time>2024-05-08T09:29:03Z</time>
</trkpt>
<trkpt lat="49.24733346328139" lon="9.441771442070603">
<ele>177.2</ele>
<time>2024-05-08T09:29:04Z</time>
</trkpt>
<trkpt lat="49.24730680882931" lon="9.441709499806166">
<ele>177.2</ele>
<time>2024-05-08T09:29:05Z</time>
</trkpt>
<trkpt lat="49.24728007055819" lon="9.441646551713347">
<ele>177.2</ele>
<time>2024-05-08T09:29:06Z</time>
</trkpt>
<trkpt lat="49.247253416106105" lon="9.44157974794507">
<ele>177.2</ele>
<time>2024-05-08T09:29:07Z</time>
</trkpt>
<trkpt lat="49.247230449691415" lon="9.441513027995825">
<ele>177.2</ele>
<time>2024-05-08T09:29:08Z</time>
</trkpt>
<trkpt lat="49.24720756709576" lon="9.441448152065275">
<ele>177.2</ele>
<time>2024-05-08T09:29:09Z</time>
</trkpt>
<trkpt lat="49.2471846845001" lon="9.441381432116032">
<ele>177.2</ele>
<time>2024-05-08T09:29:10Z</time>
</trkpt>
<trkpt lat="49.2471656575799" lon="9.441313706338406">
<ele>177</ele>
<time>2024-05-08T09:29:11Z</time>
</trkpt>
<trkpt lat="49.24714654684067" lon="9.441247908398507">
<ele>177</ele>
<time>2024-05-08T09:29:12Z</time>
</trkpt>
<trkpt lat="49.24712751992047" lon="9.441188732162118">
<ele>177</ele>
<time>2024-05-08T09:29:14Z</time>
</trkpt>
<trkpt lat="49.24710078164935" lon="9.441075325012209">
<ele>177</ele>
<time>2024-05-08T09:29:15Z</time>
</trkpt>
<trkpt lat="49.24708938226104" lon="9.441031403839588">
<ele>177</ele>
<time>2024-05-08T09:29:16Z</time>
</trkpt>
<trkpt lat="49.24708175472915" lon="9.44098848849535">
<ele>177</ele>
<time>2024-05-08T09:29:17Z</time>
</trkpt>
<trkpt lat="49.24706641584635" lon="9.440935095772147">
<ele>177.2</ele>
<time>2024-05-08T09:29:19Z</time>
</trkpt>
<trkpt lat="49.24703976139426" lon="9.440803499892354">
<ele>177</ele>
<time>2024-05-08T09:29:20Z</time>
</trkpt>
<trkpt lat="49.24702450633049" lon="9.440738623961806">
<ele>177</ele>
<time>2024-05-08T09:29:21Z</time>
</trkpt>
<trkpt lat="49.24700925126672" lon="9.44067475385964">
<ele>177</ele>
<time>2024-05-08T09:29:22Z</time>
</trkpt>
<trkpt lat="49.246993996202946" lon="9.44061180576682">
<ele>176.8</ele>
<time>2024-05-08T09:29:23Z</time>
</trkpt>
<trkpt lat="49.24697874113917" lon="9.440549779683352">
<ele>176.8</ele>
<time>2024-05-08T09:29:24Z</time>
</trkpt>
<trkpt lat="49.2469634860754" lon="9.44049160927534">
<ele>176.8</ele>
<time>2024-05-08T09:29:25Z</time>
</trkpt>
<trkpt lat="49.24694823101163" lon="9.44043343886733">
<ele>176.6</ele>
<time>2024-05-08T09:29:26Z</time>
</trkpt>
<trkpt lat="49.24693297594786" lon="9.44037526845932">
<ele>176.6</ele>
<time>2024-05-08T09:29:27Z</time>
</trkpt>
<trkpt lat="49.246917720884085" lon="9.440321875736116">
<ele>176.6</ele>
<time>2024-05-08T09:29:29Z</time>
</trkpt>
<trkpt lat="49.246894754469395" lon="9.44021701812744">
<ele>176.6</ele>
<time>2024-05-08T09:29:30Z</time>
</trkpt>
<trkpt lat="49.24688335508108" lon="9.440164547413588">
<ele>176.6</ele>
<time>2024-05-08T09:29:31Z</time>
</trkpt>
<trkpt lat="49.24686810001731" lon="9.440118782222273">
<ele>176.6</ele>
<time>2024-05-08T09:29:32Z</time>
</trkpt>
<trkpt lat="49.24685284495354" lon="9.440068239346148">
<ele>176.6</ele>
<time>2024-05-08T09:29:33Z</time>
</trkpt>
<trkpt lat="49.246837589889765" lon="9.440010068938136">
<ele>176.6</ele>
<time>2024-05-08T09:29:34Z</time>
</trkpt>
<trkpt lat="49.246818479150534" lon="9.439947120845318">
<ele>176.8</ele>
<time>2024-05-08T09:29:35Z</time>
</trkpt>
<trkpt lat="49.24680322408676" lon="9.439885094761848">
<ele>176.8</ele>
<time>2024-05-08T09:29:36Z</time>
</trkpt>
<trkpt lat="49.24678796902299" lon="9.4398202188313">
<ele>176.8</ele>
<time>2024-05-08T09:29:37Z</time>
</trkpt>
<trkpt lat="49.24677271395922" lon="9.439753498882055">
<ele>176.8</ele>
<time>2024-05-08T09:29:38Z</time>
</trkpt>
<trkpt lat="49.246757458895445" lon="9.439688622951508">
<ele>176.8</ele>
<time>2024-05-08T09:29:39Z</time>
</trkpt>
<trkpt lat="49.246738431975245" lon="9.439619975164533">
<ele>176.8</ele>
<time>2024-05-08T09:29:40Z</time>
</trkpt>
<trkpt lat="49.246719321236014" lon="9.43954847753048">
<ele>177</ele>
<time>2024-05-08T09:29:41Z</time>
</trkpt>
<trkpt lat="49.24670021049678" lon="9.439477901905777">
<ele>177</ele>
<time>2024-05-08T09:29:42Z</time>
</trkpt>
<trkpt lat="49.246681183576584" lon="9.439410176128147">
<ele>177</ele>
<time>2024-05-08T09:29:43Z</time>
</trkpt>
<trkpt lat="49.24666207283735" lon="9.439343372359872">
<ele>177</ele>
<time>2024-05-08T09:29:44Z</time>
</trkpt>
<trkpt lat="49.24664681777358" lon="9.439276652410626">
<ele>177</ele>
<time>2024-05-08T09:29:45Z</time>
</trkpt>
<trkpt lat="49.24662779085338" lon="9.43920993246138">
<ele>177</ele>
<time>2024-05-08T09:29:46Z</time>
</trkpt>
<trkpt lat="49.24661253578961" lon="9.439143128693104">
<ele>177</ele>
<time>2024-05-08T09:29:47Z</time>
</trkpt>
<trkpt lat="49.24659342505038" lon="9.439075402915478">
<ele>177</ele>
<time>2024-05-08T09:29:48Z</time>
</trkpt>
<trkpt lat="49.246578169986606" lon="9.439006755128505">
<ele>177</ele>
<time>2024-05-08T09:29:49Z</time>
</trkpt>
<trkpt lat="49.246559143066406" lon="9.438940035179256">
<ele>177</ele>
<time>2024-05-08T09:29:50Z</time>
</trkpt>
<trkpt lat="49.246540032327175" lon="9.43887708708644">
<ele>177</ele>
<time>2024-05-08T09:29:51Z</time>
</trkpt>
<trkpt lat="49.246520921587944" lon="9.4388169888407">
<ele>177</ele>
<time>2024-05-08T09:29:52Z</time>
</trkpt>
<trkpt lat="49.24650566652417" lon="9.438751190900804">
<ele>177</ele>
<time>2024-05-08T09:29:53Z</time>
</trkpt>
<trkpt lat="49.2464904114604" lon="9.438688242807984">
<ele>177</ele>
<time>2024-05-08T09:29:54Z</time>
</trkpt>
<trkpt lat="49.24647515639663" lon="9.438621439039707">
<ele>177</ele>
<time>2024-05-08T09:29:55Z</time>
</trkpt>
<trkpt lat="49.246459901332855" lon="9.438556646928191">
<ele>177</ele>
<time>2024-05-08T09:29:56Z</time>
</trkpt>
<trkpt lat="49.246440874412656" lon="9.438489843159914">
<ele>177</ele>
<time>2024-05-08T09:29:57Z</time>
</trkpt>
<trkpt lat="49.24642561934888" lon="9.438425051048398">
<ele>177</ele>
<time>2024-05-08T09:29:58Z</time>
</trkpt>
<trkpt lat="49.24640650860965" lon="9.43836017511785">
<ele>177</ele>
<time>2024-05-08T09:29:59Z</time>
</trkpt>
<trkpt lat="49.24639125354588" lon="9.438295299187304">
<ele>177</ele>
<time>2024-05-08T09:30:00Z</time>
</trkpt>
<trkpt lat="49.24637599848211" lon="9.438229501247406">
<ele>177</ele>
<time>2024-05-08T09:30:01Z</time>
</trkpt>
<trkpt lat="49.246360743418336" lon="9.43816370330751">
<ele>177</ele>
<time>2024-05-08T09:30:02Z</time>
</trkpt>
<trkpt lat="49.246341632679105" lon="9.438095055520536">
<ele>177</ele>
<time>2024-05-08T09:30:03Z</time>
</trkpt>
<trkpt lat="49.246322605758905" lon="9.43802640773356">
<ele>177</ele>
<time>2024-05-08T09:30:04Z</time>
</trkpt>
<trkpt lat="49.24630735069513" lon="9.437959603965282">
<ele>177</ele>
<time>2024-05-08T09:30:05Z</time>
</trkpt>
<trkpt lat="49.2462882399559" lon="9.437892884016035">
<ele>177</ele>
<time>2024-05-08T09:30:06Z</time>
</trkpt>
<trkpt lat="49.24627298489213" lon="9.43782708607614">
<ele>177</ele>
<time>2024-05-08T09:30:07Z</time>
</trkpt>
<trkpt lat="49.24625395797193" lon="9.437761288136244">
<ele>177</ele>
<time>2024-05-08T09:30:08Z</time>
</trkpt>
<trkpt lat="49.2462348472327" lon="9.437696412205696">
<ele>177</ele>
<time>2024-05-08T09:30:09Z</time>
</trkpt>
<trkpt lat="49.24621959216893" lon="9.437631536275148">
<ele>177</ele>
<time>2024-05-08T09:30:10Z</time>
</trkpt>
<trkpt lat="49.246200481429696" lon="9.437566744163632">
<ele>177</ele>
<time>2024-05-08T09:30:11Z</time>
</trkpt>
<trkpt lat="49.24618522636592" lon="9.437501868233085">
<ele>177</ele>
<time>2024-05-08T09:30:12Z</time>
</trkpt>
<trkpt lat="49.24616997130215" lon="9.43743514828384">
<ele>177</ele>
<time>2024-05-08T09:30:13Z</time>
</trkpt>
<trkpt lat="49.24615471623838" lon="9.437366416677833">
<ele>177</ele>
<time>2024-05-08T09:30:14Z</time>
</trkpt>
<trkpt lat="49.24613568931818" lon="9.437298774719238">
<ele>177</ele>
<time>2024-05-08T09:30:15Z</time>
</trkpt>
<trkpt lat="49.24611657857895" lon="9.437230043113232">
<ele>176.8</ele>
<time>2024-05-08T09:30:16Z</time>
</trkpt>
<trkpt lat="49.24610132351518" lon="9.437163323163986">
<ele>176.8</ele>
<time>2024-05-08T09:30:17Z</time>
</trkpt>
<trkpt lat="49.24608229659498" lon="9.437098447233438">
<ele>176.6</ele>
<time>2024-05-08T09:30:18Z</time>
</trkpt>
<trkpt lat="49.246067041531205" lon="9.437031727284191">
<ele>176.6</ele>
<time>2024-05-08T09:30:19Z</time>
</trkpt>
<trkpt lat="49.24605178646743" lon="9.436967773362994">
<ele>176.4</ele>
<time>2024-05-08T09:30:20Z</time>
</trkpt>
<trkpt lat="49.2460326757282" lon="9.436906753107904">
<ele>176.4</ele>
<time>2024-05-08T09:30:21Z</time>
</trkpt>
<trkpt lat="49.24601742066443" lon="9.436848582699897">
<ele>176.6</ele>
<time>2024-05-08T09:30:22Z</time>
</trkpt>
<trkpt lat="49.24600216560066" lon="9.436790412291884">
<ele>176.6</ele>
<time>2024-05-08T09:30:23Z</time>
</trkpt>
<trkpt lat="49.245986910536885" lon="9.436728470027449">
<ele>176.6</ele>
<time>2024-05-08T09:30:24Z</time>
</trkpt>
<trkpt lat="49.24597165547311" lon="9.4366635940969">
<ele>176.4</ele>
<time>2024-05-08T09:30:25Z</time>
</trkpt>
<trkpt lat="49.24595640040934" lon="9.436599723994732">
<ele>176.4</ele>
<time>2024-05-08T09:30:26Z</time>
</trkpt>
<trkpt lat="49.245944917202" lon="9.436536775901914">
<ele>176.2</ele>
<time>2024-05-08T09:30:27Z</time>
</trkpt>
<trkpt lat="49.2459258902818" lon="9.436474749818444">
<ele>176.2</ele>
<time>2024-05-08T09:30:28Z</time>
</trkpt>
<trkpt lat="49.245910635218024" lon="9.436411801725626">
<ele>176.2</ele>
<time>2024-05-08T09:30:29Z</time>
</trkpt>
<trkpt lat="49.24589538015425" lon="9.436346925795078">
<ele>176.2</ele>
<time>2024-05-08T09:30:30Z</time>
</trkpt>
<trkpt lat="49.24588012509048" lon="9.436281127855182">
<ele>176.2</ele>
<time>2024-05-08T09:30:31Z</time>
</trkpt>
<trkpt lat="49.24586478620768" lon="9.436216335743666">
<ele>176</ele>
<time>2024-05-08T09:30:32Z</time>
</trkpt>
<trkpt lat="49.24584575928748" lon="9.436151459813118">
<ele>176</ele>
<time>2024-05-08T09:30:34Z</time>
</trkpt>
<trkpt lat="49.24581139348447" lon="9.436023635789752">
<ele>175.8</ele>
<time>2024-05-08T09:30:35Z</time>
</trkpt>
<trkpt lat="49.24579999409616" lon="9.435954988002775">
<ele>175.6</ele>
<time>2024-05-08T09:30:36Z</time>
</trkpt>
<trkpt lat="49.24578473903239" lon="9.435888268053532">
<ele>175.6</ele>
<time>2024-05-08T09:30:37Z</time>
</trkpt>
<trkpt lat="49.24577325582504" lon="9.435821464285254">
<ele>175.4</ele>
<time>2024-05-08T09:30:38Z</time>
</trkpt>
<trkpt lat="49.24575800076127" lon="9.435756672173738">
<ele>175.4</ele>
<time>2024-05-08T09:30:39Z</time>
</trkpt>
<trkpt lat="49.24574660137296" lon="9.43569179624319">
<ele>175.4</ele>
<time>2024-05-08T09:30:40Z</time>
</trkpt>
<trkpt lat="49.24573511816561" lon="9.435623148456216">
<ele>175.4</ele>
<time>2024-05-08T09:30:41Z</time>
</trkpt>
<trkpt lat="49.2457237187773" lon="9.435558272525668">
<ele>175.2</ele>
<time>2024-05-08T09:30:42Z</time>
</trkpt>
<trkpt lat="49.24571609124541" lon="9.43549339659512">
<ele>175</ele>
<time>2024-05-08T09:30:43Z</time>
</trkpt>
<trkpt lat="49.24570846371353" lon="9.435424748808146">
<ele>175</ele>
<time>2024-05-08T09:30:44Z</time>
</trkpt>
<trkpt lat="49.24569698050618" lon="9.43535702303052">
<ele>174.8</ele>
<time>2024-05-08T09:30:45Z</time>
</trkpt>
<trkpt lat="49.245689352974296" lon="9.435286447405815">
<ele>174.8</ele>
<time>2024-05-08T09:30:46Z</time>
</trkpt>
<trkpt lat="49.24568172544241" lon="9.43521972745657">
<ele>174.8</ele>
<time>2024-05-08T09:30:47Z</time>
</trkpt>
<trkpt lat="49.245670242235065" lon="9.435152001678944">
<ele>174.8</ele>
<time>2024-05-08T09:30:48Z</time>
</trkpt>
<trkpt lat="49.24566647037864" lon="9.435083353891969">
<ele>174.8</ele>
<time>2024-05-08T09:30:50Z</time>
</trkpt>
<trkpt lat="49.24565884284675" lon="9.434945052489638">
<ele>175</ele>
<time>2024-05-08T09:30:51Z</time>
</trkpt>
<trkpt lat="49.24565498717129" lon="9.434878332540393">
<ele>175</ele>
<time>2024-05-08T09:30:52Z</time>
</trkpt>
<trkpt lat="49.24565498717129" lon="9.434809684753418">
<ele>175</ele>
<time>2024-05-08T09:30:53Z</time>
</trkpt>
<trkpt lat="49.245651215314865" lon="9.434741958975792">
<ele>174.8</ele>
<time>2024-05-08T09:30:54Z</time>
</trkpt>
<trkpt lat="49.245651215314865" lon="9.434673227369784">
<ele>174.8</ele>
<time>2024-05-08T09:30:55Z</time>
</trkpt>
<trkpt lat="49.245647359639406" lon="9.43460457958281">
<ele>174.6</ele>
<time>2024-05-08T09:30:56Z</time>
</trkpt>
<trkpt lat="49.245647359639406" lon="9.434536853805184">
<ele>174.4</ele>
<time>2024-05-08T09:30:57Z</time>
</trkpt>
<trkpt lat="49.24564358778298" lon="9.43446820601821">
<ele>174.4</ele>
<time>2024-05-08T09:30:58Z</time>
</trkpt>
<trkpt lat="49.24564358778298" lon="9.434398636221886">
<ele>174.4</ele>
<time>2024-05-08T09:31:00Z</time>
</trkpt>
<trkpt lat="49.245651215314865" lon="9.434260334819555">
<ele>174.4</ele>
<time>2024-05-08T09:31:01Z</time>
</trkpt>
<trkpt lat="49.24565884284675" lon="9.434189759194853">
<ele>174.4</ele>
<time>2024-05-08T09:31:02Z</time>
</trkpt>
<trkpt lat="49.24566261470318" lon="9.434118261560798">
<ele>174.4</ele>
<time>2024-05-08T09:31:04Z</time>
</trkpt>
<trkpt lat="49.24567786976695" lon="9.433978032320738">
<ele>174.4</ele>
<time>2024-05-08T09:31:05Z</time>
</trkpt>
<trkpt lat="49.24568549729884" lon="9.433911312371492">
<ele>174.4</ele>
<time>2024-05-08T09:31:06Z</time>
</trkpt>
<trkpt lat="49.24569312483072" lon="9.433844508603215">
<ele>174.4</ele>
<time>2024-05-08T09:31:07Z</time>
</trkpt>
<trkpt lat="49.24570083618164" lon="9.433781560510395">
<ele>174.4</ele>
<time>2024-05-08T09:31:08Z</time>
</trkpt>
<trkpt lat="49.245712235569954" lon="9.43371861241758">
<ele>174.4</ele>
<time>2024-05-08T09:31:09Z</time>
</trkpt>
<trkpt lat="49.24571986310184" lon="9.433652814477682">
<ele>174.2</ele>
<time>2024-05-08T09:31:10Z</time>
</trkpt>
<trkpt lat="49.245731346309185" lon="9.433588022366166">
<ele>174.2</ele>
<time>2024-05-08T09:31:12Z</time>
</trkpt>
<trkpt lat="49.24575422890484" lon="9.433469753712416">
<ele>174</ele>
<time>2024-05-08T09:31:14Z</time>
</trkpt>
<trkpt lat="49.24578473903239" lon="9.433356262743471">
<ele>174</ele>
<time>2024-05-08T09:31:15Z</time>
</trkpt>
<trkpt lat="49.245792366564274" lon="9.433308569714429">
<ele>173.8</ele>
<time>2024-05-08T09:31:16Z</time>
</trkpt>
<trkpt lat="49.24580376595259" lon="9.433259954676032">
<ele>173.8</ele>
<time>2024-05-08T09:31:17Z</time>
</trkpt>
<trkpt lat="49.24581524915993" lon="9.433215111494064">
<ele>173.8</ele>
<time>2024-05-08T09:31:19Z</time>
</trkpt>
<trkpt lat="49.24583427608013" lon="9.433134980499744">
<ele>173.6</ele>
<time>2024-05-08T09:31:20Z</time>
</trkpt>
<trkpt lat="49.24584190361202" lon="9.433099692687392">
<ele>173.4</ele>
<time>2024-05-08T09:31:21Z</time>
</trkpt>
<trkpt lat="49.24584575928748" lon="9.433070104569197">
<ele>173.4</ele>
<time>2024-05-08T09:31:23Z</time>
</trkpt>
<trkpt lat="49.24584575928748" lon="9.43302819505334">
<ele>173.2</ele>
<time>2024-05-08T09:31:24Z</time>
</trkpt>
<trkpt lat="49.245849531143904" lon="9.433021489530802">
<ele>173</ele>
<time>2024-05-08T09:31:25Z</time>
</trkpt>
<trkpt lat="49.245849531143904" lon="9.433019561693072">
<ele>173</ele>
<time>2024-05-08T09:31:26Z</time>
</trkpt>
<trkpt lat="49.245849531143904" lon="9.433016711845994">
<ele>173</ele>
<time>2024-05-08T09:31:27Z</time>
</trkpt>
<trkpt lat="49.24585338681936" lon="9.43300531245768">
<ele>173</ele>
<time>2024-05-08T09:31:28Z</time>
</trkpt>
<trkpt lat="49.245849531143904" lon="9.432974802330136">
<ele>173</ele>
<time>2024-05-08T09:31:29Z</time>
</trkpt>
<trkpt lat="49.24585338681936" lon="9.43294806405902">
<ele>173</ele>
<time>2024-05-08T09:31:30Z</time>
</trkpt>
<trkpt lat="49.24586101435125" lon="9.432923253625631">
<ele>173</ele>
<time>2024-05-08T09:31:31Z</time>
</trkpt>
<trkpt lat="49.245868641883135" lon="9.432901376858354">
<ele>173.2</ele>
<time>2024-05-08T09:31:32Z</time>
</trkpt>
<trkpt lat="49.24588012509048" lon="9.432880338281391">
<ele>173.2</ele>
<time>2024-05-08T09:31:33Z</time>
</trkpt>
<trkpt lat="49.24589152447879" lon="9.432861311361194">
<ele>173.2</ele>
<time>2024-05-08T09:31:34Z</time>
</trkpt>
<trkpt lat="49.24589915201068" lon="9.432841278612614">
<ele>173.2</ele>
<time>2024-05-08T09:31:35Z</time>
</trkpt>
<trkpt lat="49.245906779542565" lon="9.432816468179226">
<ele>173.2</ele>
<time>2024-05-08T09:31:36Z</time>
</trkpt>
<trkpt lat="49.245910635218024" lon="9.432787885889413">
<ele>173</ele>
<time>2024-05-08T09:31:37Z</time>
</trkpt>
<trkpt lat="49.24591826274991" lon="9.432756369933486">
<ele>173</ele>
<time>2024-05-08T09:31:38Z</time>
</trkpt>
<trkpt lat="49.2459258902818" lon="9.43272678181529">
<ele>172.8</ele>
<time>2024-05-08T09:31:39Z</time>
</trkpt>
<trkpt lat="49.24593351781368" lon="9.432696271687746">
<ele>172.8</ele>
<time>2024-05-08T09:31:41Z</time>
</trkpt>
<trkpt lat="49.245944917202" lon="9.432633323594928">
<ele>172.8</ele>
<time>2024-05-08T09:31:42Z</time>
</trkpt>
<trkpt lat="49.24595254473388" lon="9.432606669142842">
<ele>172.8</ele>
<time>2024-05-08T09:31:43Z</time>
</trkpt>
<trkpt lat="49.24596017226577" lon="9.432578086853027">
<ele>172.8</ele>
<time>2024-05-08T09:31:44Z</time>
</trkpt>
<trkpt lat="49.245967799797654" lon="9.43255042657256">
<ele>173</ele>
<time>2024-05-08T09:31:45Z</time>
</trkpt>
<trkpt lat="49.24597165547311" lon="9.432521760463716">
<ele>173</ele>
<time>2024-05-08T09:31:46Z</time>
</trkpt>
<trkpt lat="49.245979283005" lon="9.432495106011627">
<ele>173</ele>
<time>2024-05-08T09:31:47Z</time>
</trkpt>
<trkpt lat="49.245983054861426" lon="9.432468367740512">
<ele>173</ele>
<time>2024-05-08T09:31:49Z</time>
</trkpt>
<trkpt lat="49.2459983099252" lon="9.432418746873736">
<ele>173</ele>
<time>2024-05-08T09:31:50Z</time>
</trkpt>
<trkpt lat="49.246009793132544" lon="9.432393014431">
<ele>173</ele>
<time>2024-05-08T09:31:51Z</time>
</trkpt>
<trkpt lat="49.24601742066443" lon="9.432366359978914">
<ele>173</ele>
<time>2024-05-08T09:31:52Z</time>
</trkpt>
<trkpt lat="49.24602504819632" lon="9.43233677186072">
<ele>173.2</ele>
<time>2024-05-08T09:31:54Z</time>
</trkpt>
<trkpt lat="49.24605178646743" lon="9.432266196236014">
<ele>173.2</ele>
<time>2024-05-08T09:31:55Z</time>
</trkpt>
<trkpt lat="49.246063185855746" lon="9.432231830433013">
<ele>173.2</ele>
<time>2024-05-08T09:31:56Z</time>
</trkpt>
<trkpt lat="49.24607844091952" lon="9.43219369277358">
<ele>173.2</ele>
<time>2024-05-08T09:31:58Z</time>
</trkpt>
<trkpt lat="49.24610517919064" lon="9.432113645598292">
<ele>173.2</ele>
<time>2024-05-08T09:31:59Z</time>
</trkpt>
<trkpt lat="49.24612043425441" lon="9.432067796587944">
<ele>173.2</ele>
<time>2024-05-08T09:32:00Z</time>
</trkpt>
<trkpt lat="49.24613568931818" lon="9.432023037225008">
<ele>173.4</ele>
<time>2024-05-08T09:32:01Z</time>
</trkpt>
<trkpt lat="49.24614708870649" lon="9.431981965899467">
<ele>173.4</ele>
<time>2024-05-08T09:32:02Z</time>
</trkpt>
<trkpt lat="49.246162343770266" lon="9.43193812854588">
<ele>173.4</ele>
<time>2024-05-08T09:32:03Z</time>
</trkpt>
<trkpt lat="49.24617759883404" lon="9.431890435516834">
<ele>173.4</ele>
<time>2024-05-08T09:32:04Z</time>
</trkpt>
<trkpt lat="49.24619285389781" lon="9.43183989264071">
<ele>173.4</ele>
<time>2024-05-08T09:32:05Z</time>
</trkpt>
<trkpt lat="49.24620810896158" lon="9.431791277602317">
<ele>173.4</ele>
<time>2024-05-08T09:32:06Z</time>
</trkpt>
<trkpt lat="49.24622721970081" lon="9.431743584573267">
<ele>173.6</ele>
<time>2024-05-08T09:32:08Z</time>
</trkpt>
<trkpt lat="49.24624633044005" lon="9.431696813553572">
<ele>173.6</ele>
<time>2024-05-08T09:32:09Z</time>
</trkpt>
<trkpt lat="49.24627684056759" lon="9.431601511314511">
<ele>173.8</ele>
<time>2024-05-08T09:32:11Z</time>
</trkpt>
<trkpt lat="49.24631112255156" lon="9.43150520324707">
<ele>174</ele>
<time>2024-05-08T09:32:12Z</time>
</trkpt>
<trkpt lat="49.24632637761533" lon="9.431458432227371">
<ele>174.2</ele>
<time>2024-05-08T09:32:13Z</time>
</trkpt>
<trkpt lat="49.24635311588645" lon="9.431367823854089">
<ele>174.2</ele>
<time>2024-05-08T09:32:15Z</time>
</trkpt>
<trkpt lat="49.24636837095022" lon="9.43132490850985">
<ele>174.2</ele>
<time>2024-05-08T09:32:16Z</time>
</trkpt>
<trkpt lat="49.246379770338535" lon="9.431280065327885">
<ele>174.2</ele>
<time>2024-05-08T09:32:17Z</time>
</trkpt>
<trkpt lat="49.24639125354588" lon="9.431239999830725">
<ele>174.2</ele>
<time>2024-05-08T09:32:18Z</time>
</trkpt>
<trkpt lat="49.24640650860965" lon="9.431201862171292">
<ele>174.4</ele>
<time>2024-05-08T09:32:19Z</time>
</trkpt>
<trkpt lat="49.246417991817" lon="9.431164730340242">
<ele>174.4</ele>
<time>2024-05-08T09:32:21Z</time>
</trkpt>
<trkpt lat="49.246440874412656" lon="9.43109029904008">
<ele>174.4</ele>
<time>2024-05-08T09:32:22Z</time>
</trkpt>
<trkpt lat="49.24645227380097" lon="9.431053083389996">
<ele>174.2</ele>
<time>2024-05-08T09:32:23Z</time>
</trkpt>
<trkpt lat="49.246463757008314" lon="9.431016873568296">
<ele>174.2</ele>
<time>2024-05-08T09:32:24Z</time>
</trkpt>
<trkpt lat="49.24647515639663" lon="9.430979657918217">
<ele>174.2</ele>
<time>2024-05-08T09:32:25Z</time>
</trkpt>
<trkpt lat="49.24648663960397" lon="9.430951997637749">
<ele>174.2</ele>
<time>2024-05-08T09:32:26Z</time>
</trkpt>
<trkpt lat="49.246498038992286" lon="9.430916709825397">
<ele>174.2</ele>
<time>2024-05-08T09:32:27Z</time>
</trkpt>
<trkpt lat="49.24651329405606" lon="9.430885277688503">
<ele>174</ele>
<time>2024-05-08T09:32:28Z</time>
</trkpt>
<trkpt lat="49.2465247772634" lon="9.43085283972323">
<ele>174</ele>
<time>2024-05-08T09:32:30Z</time>
</trkpt>
<trkpt lat="49.2465438041836" lon="9.43079466931522">
<ele>174</ele>
<time>2024-05-08T09:32:32Z</time>
</trkpt>
<trkpt lat="49.24657054245472" lon="9.430727949365972">
<ele>174</ele>
<time>2024-05-08T09:32:33Z</time>
</trkpt>
<trkpt lat="49.246582025662065" lon="9.43069450557232">
<ele>174</ele>
<time>2024-05-08T09:32:35Z</time>
</trkpt>
<trkpt lat="49.24659342505038" lon="9.430662151426075">
<ele>174</ele>
<time>2024-05-08T09:32:36Z</time>
</trkpt>
<trkpt lat="49.24661253578961" lon="9.43059341982007">
<ele>173.8</ele>
<time>2024-05-08T09:32:38Z</time>
</trkpt>
<trkpt lat="49.24662393517792" lon="9.430568693205714">
<ele>173.8</ele>
<time>2024-05-08T09:32:39Z</time>
</trkpt>
<trkpt lat="49.246639190241694" lon="9.430528627708554">
<ele>173.6</ele>
<time>2024-05-08T09:32:41Z</time>
</trkpt>
<trkpt lat="49.246639190241694" lon="9.43051622249186">
<ele>173.4</ele>
<time>2024-05-08T09:32:42Z</time>
</trkpt>
<trkpt lat="49.246639190241694" lon="9.43051815032959">
<ele>173.4</ele>
<time>2024-05-08T09:32:44Z</time>
</trkpt>
<trkpt lat="49.246639190241694" lon="9.430519994348288">
<ele>173.4</ele>
<time>2024-05-08T09:32:46Z</time>
</trkpt>
<trkpt lat="49.246639190241694" lon="9.430521922186015">
<ele>173.2</ele>
<time>2024-05-08T09:32:48Z</time>
</trkpt>
<trkpt lat="49.246639190241694" lon="9.430522844195366">
<ele>173.2</ele>
<time>2024-05-08T09:32:51Z</time>
</trkpt>
<trkpt lat="49.246639190241694" lon="9.430524772033095">
<ele>173.2</ele>
<time>2024-05-08T09:32:53Z</time>
</trkpt>
<trkpt lat="49.24664304591715" lon="9.430524772033095">
<ele>173</ele>
<time>2024-05-08T09:32:54Z</time>
</trkpt>
<trkpt lat="49.24664304591715" lon="9.430526699870825">
<ele>173</ele>
<time>2024-05-08T09:33:12Z</time>
</trkpt>
<trkpt lat="49.24664304591715" lon="9.430524772033095">
<ele>173</ele>
<time>2024-05-08T09:33:16Z</time>
</trkpt>
<trkpt lat="49.24664304591715" lon="9.430526699870825">
<ele>173</ele>
<time>2024-05-08T09:33:17Z</time>
</trkpt>
<trkpt lat="49.24664304591715" lon="9.430528627708554">
<ele>173</ele>
<time>2024-05-08T09:33:21Z</time>
</trkpt>
<trkpt lat="49.24664304591715" lon="9.430529549717903">
<ele>173</ele>
<time>2024-05-08T09:33:28Z</time>
</trkpt>
<trkpt lat="49.24664304591715" lon="9.430531477555633">
<ele>173</ele>
<time>2024-05-08T09:33:51Z</time>
</trkpt>
<trkpt lat="49.24664304591715" lon="9.430533405393362">
<ele>173</ele>
<time>2024-05-08T09:33:56Z</time>
</trkpt>
<trkpt lat="49.24664304591715" lon="9.43053524941206">
<ele>173</ele>
<time>2024-05-08T09:33:58Z</time>
</trkpt>
<trkpt lat="49.246639190241694" lon="9.430538099259138">
<ele>173</ele>
<time>2024-05-08T09:33:59Z</time>
</trkpt>
<trkpt lat="49.246639190241694" lon="9.430542876943946">
<ele>173</ele>
<time>2024-05-08T09:34:00Z</time>
</trkpt>
<trkpt lat="49.246639190241694" lon="9.430544804781675">
<ele>173</ele>
<time>2024-05-08T09:34:01Z</time>
</trkpt>
<trkpt lat="49.246639190241694" lon="9.430546732619405">
<ele>173</ele>
<time>2024-05-08T09:34:10Z</time>
</trkpt>
<trkpt lat="49.246639190241694" lon="9.430548660457134">
<ele>173</ele>
<time>2024-05-08T09:34:19Z</time>
</trkpt>
<trkpt lat="49.246639190241694" lon="9.430546732619405">
<ele>173</ele>
<time>2024-05-08T09:34:23Z</time>
</trkpt>
<trkpt lat="49.246639190241694" lon="9.430548660457134">
<ele>173</ele>
<time>2024-05-08T09:34:24Z</time>
</trkpt>
<trkpt lat="49.246639190241694" lon="9.430549582466483">
<ele>173</ele>
<time>2024-05-08T09:34:29Z</time>
</trkpt>
<trkpt lat="49.24663541838527" lon="9.430549582466483">
<ele>173</ele>
<time>2024-05-08T09:34:43Z</time>
</trkpt>
<trkpt lat="49.24663541838527" lon="9.430548660457134">
<ele>173</ele>
<time>2024-05-08T09:34:44Z</time>
</trkpt>
<trkpt lat="49.24663541838527" lon="9.430546732619405">
<ele>173</ele>
<time>2024-05-08T09:34:53Z</time>
</trkpt>
<trkpt lat="49.24663541838527" lon="9.430548660457134">
<ele>173</ele>
<time>2024-05-08T09:34:54Z</time>
</trkpt>
<trkpt lat="49.24663541838527" lon="9.430546732619405">
<ele>173</ele>
<time>2024-05-08T09:34:56Z</time>
</trkpt>
<trkpt lat="49.24663541838527" lon="9.430548660457134">
<ele>173</ele>
<time>2024-05-08T09:34:58Z</time>
</trkpt>
<trkpt lat="49.246639190241694" lon="9.430548660457134">
<ele>173</ele>
<time>2024-05-08T09:35:06Z</time>
</trkpt>
<trkpt lat="49.24663541838527" lon="9.430548660457134">
<ele>173</ele>
<time>2024-05-08T09:35:08Z</time>
</trkpt>
<trkpt lat="49.24663541838527" lon="9.430546732619405">
<ele>173</ele>
<time>2024-05-08T09:35:11Z</time>
</trkpt>
<trkpt lat="49.24664304591715" lon="9.430531477555633">
<ele>173</ele>
<time>2024-05-08T09:35:14Z</time>
</trkpt>
<trkpt lat="49.24664681777358" lon="9.430509516969323">
<ele>173</ele>
<time>2024-05-08T09:35:15Z</time>
</trkpt>
<trkpt lat="49.24665444530547" lon="9.430479928851128">
<ele>173</ele>
<time>2024-05-08T09:35:16Z</time>
</trkpt>
<trkpt lat="49.246658300980926" lon="9.430455202236772">
<ele>173</ele>
<time>2024-05-08T09:35:17Z</time>
</trkpt>
<trkpt lat="49.24666592851281" lon="9.430428463965654">
<ele>173</ele>
<time>2024-05-08T09:35:18Z</time>
</trkpt>
<trkpt lat="49.2466735560447" lon="9.43039795383811">
<ele>173</ele>
<time>2024-05-08T09:35:20Z</time>
</trkpt>
<trkpt lat="49.246681183576584" lon="9.430370293557644">
<ele>173</ele>
<time>2024-05-08T09:35:21Z</time>
</trkpt>
<trkpt lat="49.24670021049678" lon="9.430306423455477">
<ele>173</ele>
<time>2024-05-08T09:35:22Z</time>
</trkpt>
<trkpt lat="49.24671169370413" lon="9.430270129814744">
<ele>173</ele>
<time>2024-05-08T09:35:23Z</time>
</trkpt>
<trkpt lat="49.24672309309244" lon="9.430232997983694">
<ele>173</ele>
<time>2024-05-08T09:35:25Z</time>
</trkpt>
<trkpt lat="49.24674605950713" lon="9.4301566388458">
<ele>173</ele>
<time>2024-05-08T09:35:26Z</time>
</trkpt>
<trkpt lat="49.246757458895445" lon="9.43011657334864">
<ele>173</ele>
<time>2024-05-08T09:35:27Z</time>
</trkpt>
<trkpt lat="49.24676894210279" lon="9.430074663832784">
<ele>173</ele>
<time>2024-05-08T09:35:29Z</time>
</trkpt>
<trkpt lat="49.2467803414911" lon="9.430031748488544">
<ele>173</ele>
<time>2024-05-08T09:35:30Z</time>
</trkpt>
<trkpt lat="49.246795596554875" lon="9.429987827315928">
<ele>173</ele>
<time>2024-05-08T09:35:31Z</time>
</trkpt>
<trkpt lat="49.24682233482599" lon="9.429898224771025">
<ele>173</ele>
<time>2024-05-08T09:35:32Z</time>
</trkpt>
<trkpt lat="49.246833734214306" lon="9.429853381589057">
<ele>173</ele>
<time>2024-05-08T09:35:34Z</time>
</trkpt>
<trkpt lat="49.24684898927808" lon="9.429809544235468">
<ele>173</ele>
<time>2024-05-08T09:35:35Z</time>
</trkpt>
<trkpt lat="49.24687949940562" lon="9.42972656339407">
<ele>173</ele>
<time>2024-05-08T09:35:37Z</time>
</trkpt>
<trkpt lat="49.246913865208626" lon="9.429635033011436">
<ele>173</ele>
<time>2024-05-08T09:35:38Z</time>
</trkpt>
<trkpt lat="49.24693297594786" lon="9.429590189829469">
<ele>173</ele>
<time>2024-05-08T09:35:40Z</time>
</trkpt>
<trkpt lat="49.24697111360729" lon="9.429498659446836">
<ele>173.2</ele>
<time>2024-05-08T09:35:41Z</time>
</trkpt>
<trkpt lat="49.24699014052749" lon="9.429451888427138">
<ele>173.4</ele>
<time>2024-05-08T09:35:42Z</time>
</trkpt>
<trkpt lat="49.247013023123145" lon="9.42940704524517">
<ele>173.4</ele>
<time>2024-05-08T09:35:43Z</time>
</trkpt>
<trkpt lat="49.247032133862376" lon="9.429358430206776">
<ele>173.6</ele>
<time>2024-05-08T09:35:44Z</time>
</trkpt>
<trkpt lat="49.247055016458035" lon="9.42931174300611">
<ele>173.6</ele>
<time>2024-05-08T09:35:45Z</time>
</trkpt>
<trkpt lat="49.24707789905369" lon="9.429266899824142">
<ele>173.8</ele>
<time>2024-05-08T09:35:47Z</time>
</trkpt>
<trkpt lat="49.24712366424501" lon="9.42917344160378">
<ele>173.8</ele>
<time>2024-05-08T09:35:49Z</time>
</trkpt>
<trkpt lat="49.247173285111785" lon="9.42907713353634">
<ele>174</ele>
<time>2024-05-08T09:35:50Z</time>
</trkpt>
<trkpt lat="49.24719993956387" lon="9.429028434678912">
<ele>174</ele>
<time>2024-05-08T09:35:51Z</time>
</trkpt>
<trkpt lat="49.247230449691415" lon="9.428979819640515">
<ele>174</ele>
<time>2024-05-08T09:35:52Z</time>
</trkpt>
<trkpt lat="49.24726104363799" lon="9.428931204602122">
<ele>174</ele>
<time>2024-05-08T09:35:53Z</time>
</trkpt>
<trkpt lat="49.24728769809008" lon="9.428885439410806">
<ele>174</ele>
<time>2024-05-08T09:35:54Z</time>
</trkpt>
<trkpt lat="49.24731820821762" lon="9.428838668391109">
<ele>174</ele>
<time>2024-05-08T09:35:55Z</time>
</trkpt>
<trkpt lat="49.247348718345165" lon="9.42879483103752">
<ele>174</ele>
<time>2024-05-08T09:35:56Z</time>
</trkpt>
<trkpt lat="49.24737922847271" lon="9.428751915693285">
<ele>174.2</ele>
<time>2024-05-08T09:35:57Z</time>
</trkpt>
<trkpt lat="49.247409738600254" lon="9.428707994520664">
<ele>174.2</ele>
<time>2024-05-08T09:35:58Z</time>
</trkpt>
<trkpt lat="49.24744410440326" lon="9.428665079176426">
<ele>174.2</ele>
<time>2024-05-08T09:35:59Z</time>
</trkpt>
<trkpt lat="49.2474746145308" lon="9.428623169660568">
<ele>174.2</ele>
<time>2024-05-08T09:36:00Z</time>
</trkpt>
<trkpt lat="49.247505124658346" lon="9.42858025431633">
<ele>174</ele>
<time>2024-05-08T09:36:01Z</time>
</trkpt>
<trkpt lat="49.24753563478589" lon="9.42853826098144">
<ele>174</ele>
<time>2024-05-08T09:36:02Z</time>
</trkpt>
<trkpt lat="49.247566144913435" lon="9.428495345637202">
<ele>174</ele>
<time>2024-05-08T09:36:03Z</time>
</trkpt>
<trkpt lat="49.24759673886001" lon="9.428451508283615">
<ele>174.2</ele>
<time>2024-05-08T09:36:04Z</time>
</trkpt>
<trkpt lat="49.24763102084398" lon="9.428406665101647">
<ele>174.2</ele>
<time>2024-05-08T09:36:05Z</time>
</trkpt>
<trkpt lat="49.24766153097153" lon="9.428364671766758">
<ele>174.2</ele>
<time>2024-05-08T09:36:06Z</time>
</trkpt>
<trkpt lat="49.24769204109907" lon="9.428319912403822">
<ele>174.2</ele>
<time>2024-05-08T09:36:08Z</time>
</trkpt>
<trkpt lat="49.247722551226616" lon="9.428273141384125">
<ele>174</ele>
<time>2024-05-08T09:36:09Z</time>
</trkpt>
<trkpt lat="49.24778742715717" lon="9.42818353883922">
<ele>174</ele>
<time>2024-05-08T09:36:10Z</time>
</trkpt>
<trkpt lat="49.24782179296017" lon="9.428138695657251">
<ele>174</ele>
<time>2024-05-08T09:36:11Z</time>
</trkpt>
<trkpt lat="49.24785230308771" lon="9.428092930465937">
<ele>174</ele>
<time>2024-05-08T09:36:12Z</time>
</trkpt>
<trkpt lat="49.24788658507168" lon="9.42804523743689">
<ele>174.2</ele>
<time>2024-05-08T09:36:13Z</time>
</trkpt>
<trkpt lat="49.24791709519923" lon="9.428000394254925">
<ele>174.2</ele>
<time>2024-05-08T09:36:14Z</time>
</trkpt>
<trkpt lat="49.2479476891458" lon="9.427953707054256">
<ele>174.2</ele>
<time>2024-05-08T09:36:15Z</time>
</trkpt>
<trkpt lat="49.24797819927335" lon="9.42790978588164">
<ele>174</ele>
<time>2024-05-08T09:36:16Z</time>
</trkpt>
<trkpt lat="49.24800870940089" lon="9.427865026518704">
<ele>174</ele>
<time>2024-05-08T09:36:17Z</time>
</trkpt>
<trkpt lat="49.24803921952844" lon="9.427818255499004">
<ele>174</ele>
<time>2024-05-08T09:36:18Z</time>
</trkpt>
<trkpt lat="49.24806972965598" lon="9.427773412317038">
<ele>174</ele>
<time>2024-05-08T09:36:19Z</time>
</trkpt>
<trkpt lat="49.24809638410807" lon="9.427728652954102">
<ele>174</ele>
<time>2024-05-08T09:36:20Z</time>
</trkpt>
<trkpt lat="49.24813074991107" lon="9.427682803943751">
<ele>174</ele>
<time>2024-05-08T09:36:21Z</time>
</trkpt>
<trkpt lat="49.248161260038614" lon="9.427639888599517">
<ele>174</ele>
<time>2024-05-08T09:36:22Z</time>
</trkpt>
<trkpt lat="49.24819177016616" lon="9.427596973255277">
<ele>174</ele>
<time>2024-05-08T09:36:23Z</time>
</trkpt>
<trkpt lat="49.24821850843728" lon="9.42755506373942">
<ele>174</ele>
<time>2024-05-08T09:36:24Z</time>
</trkpt>
<trkpt lat="49.24824516288936" lon="9.427516926079988">
<ele>174</ele>
<time>2024-05-08T09:36:25Z</time>
</trkpt>
<trkpt lat="49.24826804548502" lon="9.427476860582829">
<ele>174</ele>
<time>2024-05-08T09:36:26Z</time>
</trkpt>
<trkpt lat="49.24829478375614" lon="9.42743293941021">
<ele>174</ele>
<time>2024-05-08T09:36:28Z</time>
</trkpt>
<trkpt lat="49.248359659686685" lon="9.427339481189849">
<ele>174</ele>
<time>2024-05-08T09:36:30Z</time>
</trkpt>
<trkpt lat="49.2484244517982" lon="9.427240323275328">
<ele>174</ele>
<time>2024-05-08T09:36:31Z</time>
</trkpt>
<trkpt lat="49.2484588176012" lon="9.427189780399203">
<ele>174</ele>
<time>2024-05-08T09:36:32Z</time>
</trkpt>
<trkpt lat="49.24849318340421" lon="9.42713831551373">
<ele>174.2</ele>
<time>2024-05-08T09:36:34Z</time>
</trkpt>
<trkpt lat="49.24856183119118" lon="9.42704007960856">
<ele>174.4</ele>
<time>2024-05-08T09:36:35Z</time>
</trkpt>
<trkpt lat="49.248596113175154" lon="9.426991380751131">
<ele>174.4</ele>
<time>2024-05-08T09:36:37Z</time>
</trkpt>
<trkpt lat="49.2486609891057" lon="9.426886523142455">
<ele>174.6</ele>
<time>2024-05-08T09:36:38Z</time>
</trkpt>
<trkpt lat="49.248691499233246" lon="9.426835058256984">
<ele>174.6</ele>
<time>2024-05-08T09:36:39Z</time>
</trkpt>
<trkpt lat="49.24872200936079" lon="9.42678158171475">
<ele>174.8</ele>
<time>2024-05-08T09:36:40Z</time>
</trkpt>
<trkpt lat="49.248752519488335" lon="9.426726261153815">
<ele>174.6</ele>
<time>2024-05-08T09:36:41Z</time>
</trkpt>
<trkpt lat="49.24877925775945" lon="9.426670018583536">
<ele>174.6</ele>
<time>2024-05-08T09:36:42Z</time>
</trkpt>
<trkpt lat="49.24880976788699" lon="9.426612854003906">
<ele>174.6</ele>
<time>2024-05-08T09:36:43Z</time>
</trkpt>
<trkpt lat="49.24883650615811" lon="9.426556527614594">
<ele>174.6</ele>
<time>2024-05-08T09:36:44Z</time>
</trkpt>
<trkpt lat="49.2488631606102" lon="9.426500285044312">
<ele>174.6</ele>
<time>2024-05-08T09:36:45Z</time>
</trkpt>
<trkpt lat="49.24889367073774" lon="9.42644303664565">
<ele>174.6</ele>
<time>2024-05-08T09:36:46Z</time>
</trkpt>
<trkpt lat="49.24892040900886" lon="9.42638486623764">
<ele>174.6</ele>
<time>2024-05-08T09:36:48Z</time>
</trkpt>
<trkpt lat="49.24897380173206" lon="9.42626852542162">
<ele>174.8</ele>
<time>2024-05-08T09:36:49Z</time>
</trkpt>
<trkpt lat="49.24899668432772" lon="9.426210355013607">
<ele>174.8</ele>
<time>2024-05-08T09:36:50Z</time>
</trkpt>
<trkpt lat="49.24902342259884" lon="9.42615126259625">
<ele>174.8</ele>
<time>2024-05-08T09:36:51Z</time>
</trkpt>
<trkpt lat="49.2490463051945" lon="9.426090158522127">
<ele>174.8</ele>
<time>2024-05-08T09:36:52Z</time>
</trkpt>
<trkpt lat="49.249069187790155" lon="9.426026288419962">
<ele>174.8</ele>
<time>2024-05-08T09:36:53Z</time>
</trkpt>
<trkpt lat="49.249092070385814" lon="9.425963340327144">
<ele>175</ele>
<time>2024-05-08T09:36:54Z</time>
</trkpt>
<trkpt lat="49.24911495298147" lon="9.425900392234324">
<ele>175</ele>
<time>2024-05-08T09:36:55Z</time>
</trkpt>
<trkpt lat="49.24913783557713" lon="9.425836522132158">
<ele>175</ele>
<time>2024-05-08T09:36:56Z</time>
</trkpt>
<trkpt lat="49.24916071817279" lon="9.42577357403934">
<ele>175</ele>
<time>2024-05-08T09:36:57Z</time>
</trkpt>
<trkpt lat="49.24917982891202" lon="9.425709703937171">
<ele>175</ele>
<time>2024-05-08T09:36:58Z</time>
</trkpt>
<trkpt lat="49.24920271150768" lon="9.425644828006623">
<ele>175</ele>
<time>2024-05-08T09:36:59Z</time>
</trkpt>
<trkpt lat="49.24922173842788" lon="9.425579952076076">
<ele>175</ele>
<time>2024-05-08T09:37:00Z</time>
</trkpt>
<trkpt lat="49.249244621023536" lon="9.425513232126832">
<ele>174.8</ele>
<time>2024-05-08T09:37:01Z</time>
</trkpt>
<trkpt lat="49.24926373176277" lon="9.425446428358557">
<ele>174.8</ele>
<time>2024-05-08T09:37:02Z</time>
</trkpt>
<trkpt lat="49.249282758682966" lon="9.42538163624704">
<ele>174.8</ele>
<time>2024-05-08T09:37:03Z</time>
</trkpt>
<trkpt lat="49.2493018694222" lon="9.425314832478762">
<ele>174.6</ele>
<time>2024-05-08T09:37:04Z</time>
</trkpt>
<trkpt lat="49.24932098016143" lon="9.425248112529516">
<ele>174.6</ele>
<time>2024-05-08T09:37:05Z</time>
</trkpt>
<trkpt lat="49.2493362352252" lon="9.425187092274427">
<ele>174.6</ele>
<time>2024-05-08T09:37:07Z</time>
</trkpt>
<trkpt lat="49.249366745352745" lon="9.42506019026041">
<ele>174.4</ele>
<time>2024-05-08T09:37:08Z</time>
</trkpt>
<trkpt lat="49.24938200041652" lon="9.424991542473435">
<ele>174.4</ele>
<time>2024-05-08T09:37:09Z</time>
</trkpt>
<trkpt lat="49.24939725548029" lon="9.424920044839382">
<ele>174.4</ele>
<time>2024-05-08T09:37:10Z</time>
</trkpt>
<trkpt lat="49.24941251054406" lon="9.424850391224028">
<ele>174.4</ele>
<time>2024-05-08T09:37:11Z</time>
</trkpt>
<trkpt lat="49.249427765607834" lon="9.424776965752244">
<ele>174.4</ele>
<time>2024-05-08T09:37:12Z</time>
</trkpt>
<trkpt lat="49.24943916499615" lon="9.424701612442732">
<ele>174.4</ele>
<time>2024-05-08T09:37:13Z</time>
</trkpt>
<trkpt lat="49.24945064820349" lon="9.424626342952251">
<ele>174.4</ele>
<time>2024-05-08T09:37:14Z</time>
</trkpt>
<trkpt lat="49.249465903267264" lon="9.424552917480469">
<ele>174.4</ele>
<time>2024-05-08T09:37:15Z</time>
</trkpt>
<trkpt lat="49.24947738647461" lon="9.424478486180304">
<ele>174.4</ele>
<time>2024-05-08T09:37:16Z</time>
</trkpt>
<trkpt lat="49.24948878586292" lon="9.424405060708525">
<ele>174.4</ele>
<time>2024-05-08T09:37:17Z</time>
</trkpt>
<trkpt lat="49.24950026907027" lon="9.42432970739901">
<ele>174.4</ele>
<time>2024-05-08T09:37:19Z</time>
</trkpt>
<trkpt lat="49.249523151665926" lon="9.424176150932908">
<ele>174.4</ele>
<time>2024-05-08T09:37:20Z</time>
</trkpt>
<trkpt lat="49.2495384067297" lon="9.424101803451777">
<ele>174.4</ele>
<time>2024-05-08T09:37:21Z</time>
</trkpt>
<trkpt lat="49.24954980611801" lon="9.424023600295186">
<ele>174.4</ele>
<time>2024-05-08T09:37:22Z</time>
</trkpt>
<trkpt lat="49.2495574336499" lon="9.423945397138596">
<ele>174.4</ele>
<time>2024-05-08T09:37:23Z</time>
</trkpt>
<trkpt lat="49.249565061181784" lon="9.423863338306546">
<ele>174.4</ele>
<time>2024-05-08T09:37:24Z</time>
</trkpt>
<trkpt lat="49.24957654438913" lon="9.423783291131258">
<ele>174.4</ele>
<time>2024-05-08T09:37:25Z</time>
</trkpt>
<trkpt lat="49.249584171921015" lon="9.42370031028986">
<ele>174.4</ele>
<time>2024-05-08T09:37:26Z</time>
</trkpt>
<trkpt lat="49.2495917994529" lon="9.42362017929554">
<ele>174.4</ele>
<time>2024-05-08T09:37:27Z</time>
</trkpt>
<trkpt lat="49.24959942698479" lon="9.42354004830122">
<ele>174.4</ele>
<time>2024-05-08T09:37:28Z</time>
</trkpt>
<trkpt lat="49.249603198841214" lon="9.42346377298236">
<ele>174.6</ele>
<time>2024-05-08T09:37:29Z</time>
</trkpt>
<trkpt lat="49.2496108263731" lon="9.423390347510576">
<ele>174.6</ele>
<time>2024-05-08T09:37:30Z</time>
</trkpt>
<trkpt lat="49.249618453904986" lon="9.423314994201064">
<ele>174.6</ele>
<time>2024-05-08T09:37:32Z</time>
</trkpt>
<trkpt lat="49.24962993711233" lon="9.42316621541977">
<ele>174.6</ele>
<time>2024-05-08T09:37:34Z</time>
</trkpt>
<trkpt lat="49.24962993711233" lon="9.423089940100908">
<ele>174.6</ele>
<time>2024-05-08T09:37:35Z</time>
</trkpt>
<trkpt lat="49.24963756464422" lon="9.422938311472535">
<ele>174.6</ele>
<time>2024-05-08T09:37:37Z</time>
</trkpt>
<trkpt lat="49.249641336500645" lon="9.422862958163025">
<ele>174.6</ele>
<time>2024-05-08T09:37:38Z</time>
</trkpt>
<trkpt lat="49.249645192176104" lon="9.422708479687572">
<ele>174.6</ele>
<time>2024-05-08T09:37:39Z</time>
</trkpt>
<trkpt lat="49.249645192176104" lon="9.42263119854033">
<ele>174.6</ele>
<time>2024-05-08T09:37:40Z</time>
</trkpt>
<trkpt lat="49.249645192176104" lon="9.42255299538374">
<ele>174.4</ele>
<time>2024-05-08T09:37:41Z</time>
</trkpt>
<trkpt lat="49.249645192176104" lon="9.422476720064878">
<ele>174.4</ele>
<time>2024-05-08T09:37:42Z</time>
</trkpt>
<trkpt lat="49.249645192176104" lon="9.422398516908288">
<ele>174.4</ele>
<time>2024-05-08T09:37:44Z</time>
</trkpt>
<trkpt lat="49.249641336500645" lon="9.422320313751698">
<ele>174.2</ele>
<time>2024-05-08T09:37:45Z</time>
</trkpt>
<trkpt lat="49.24963756464422" lon="9.422161979600787">
<ele>174.2</ele>
<time>2024-05-08T09:37:46Z</time>
</trkpt>
<trkpt lat="49.24963370896876" lon="9.4220819324255">
<ele>174.2</ele>
<time>2024-05-08T09:37:48Z</time>
</trkpt>
<trkpt lat="49.24962993711233" lon="9.422003729268909">
<ele>174.2</ele>
<time>2024-05-08T09:37:49Z</time>
</trkpt>
<trkpt lat="49.24962608143687" lon="9.421846317127349">
<ele>174</ele>
<time>2024-05-08T09:37:50Z</time>
</trkpt>
<trkpt lat="49.249618453904986" lon="9.421768113970757">
<ele>174</ele>
<time>2024-05-08T09:37:52Z</time>
</trkpt>
<trkpt lat="49.24960705451667" lon="9.421611707657576">
<ele>174</ele>
<time>2024-05-08T09:37:53Z</time>
</trkpt>
<trkpt lat="49.249603198841214" lon="9.421533504500983">
<ele>174</ele>
<time>2024-05-08T09:37:54Z</time>
</trkpt>
<trkpt lat="49.24959557130933" lon="9.421455301344396">
<ele>174</ele>
<time>2024-05-08T09:37:55Z</time>
</trkpt>
<trkpt lat="49.24958794377744" lon="9.421378104016185">
<ele>174.2</ele>
<time>2024-05-08T09:37:56Z</time>
</trkpt>
<trkpt lat="49.24958031624555" lon="9.421301828697324">
<ele>174.2</ele>
<time>2024-05-08T09:37:57Z</time>
</trkpt>
<trkpt lat="49.24957268871367" lon="9.421226475387812">
<ele>174.2</ele>
<time>2024-05-08T09:37:58Z</time>
</trkpt>
<trkpt lat="49.249565061181784" lon="9.421152044087648">
<ele>174.2</ele>
<time>2024-05-08T09:37:59Z</time>
</trkpt>
<trkpt lat="49.24955366179347" lon="9.42107484675944">
<ele>174.2</ele>
<time>2024-05-08T09:38:00Z</time>
</trkpt>
<trkpt lat="49.249546034261584" lon="9.420998571440578">
<ele>174</ele>
<time>2024-05-08T09:38:01Z</time>
</trkpt>
<trkpt lat="49.2495384067297" lon="9.420920368283989">
<ele>174</ele>
<time>2024-05-08T09:38:02Z</time>
</trkpt>
<trkpt lat="49.24952692352235" lon="9.420843087136744">
<ele>174</ele>
<time>2024-05-08T09:38:03Z</time>
</trkpt>
<trkpt lat="49.24951552413404" lon="9.420766811817884">
<ele>173.8</ele>
<time>2024-05-08T09:38:04Z</time>
</trkpt>
<trkpt lat="49.249507896602154" lon="9.420689530670645">
<ele>173.8</ele>
<time>2024-05-08T09:38:05Z</time>
</trkpt>
<trkpt lat="49.24949641339481" lon="9.420617027208207">
<ele>173.8</ele>
<time>2024-05-08T09:38:06Z</time>
</trkpt>
<trkpt lat="49.24948878586292" lon="9.420541757717729">
<ele>173.8</ele>
<time>2024-05-08T09:38:07Z</time>
</trkpt>
<trkpt lat="49.24948115833104" lon="9.420468248426914">
<ele>173.6</ele>
<time>2024-05-08T09:38:09Z</time>
</trkpt>
<trkpt lat="49.24946967512369" lon="9.420394822955132">
<ele>173.6</ele>
<time>2024-05-08T09:38:10Z</time>
</trkpt>
<trkpt lat="49.24945064820349" lon="9.42024135030806">
<ele>173.6</ele>
<time>2024-05-08T09:38:11Z</time>
</trkpt>
<trkpt lat="49.24944679252803" lon="9.42016314715147">
<ele>173.6</ele>
<time>2024-05-08T09:38:12Z</time>
</trkpt>
<trkpt lat="49.24943916499615" lon="9.42008494399488">
<ele>173.6</ele>
<time>2024-05-08T09:38:14Z</time>
</trkpt>
<trkpt lat="49.24941628240049" lon="9.419930381700397">
<ele>173.6</ele>
<time>2024-05-08T09:38:15Z</time>
</trkpt>
<trkpt lat="49.249404883012176" lon="9.419853184372188">
<ele>173.6</ele>
<time>2024-05-08T09:38:16Z</time>
</trkpt>
<trkpt lat="49.24939339980483" lon="9.419778753072023">
<ele>173.6</ele>
<time>2024-05-08T09:38:17Z</time>
</trkpt>
<trkpt lat="49.24937814474106" lon="9.419701555743814">
<ele>173.6</ele>
<time>2024-05-08T09:38:18Z</time>
</trkpt>
<trkpt lat="49.24937437288463" lon="9.41962813027203">
<ele>173.6</ele>
<time>2024-05-08T09:38:19Z</time>
</trkpt>
<trkpt lat="49.249362889677286" lon="9.419554704800248">
<ele>173.6</ele>
<time>2024-05-08T09:38:20Z</time>
</trkpt>
<trkpt lat="49.24935149028897" lon="9.419483123347163">
<ele>173.6</ele>
<time>2024-05-08T09:38:21Z</time>
</trkpt>
<trkpt lat="49.24934000708163" lon="9.41941162571311">
<ele>173.6</ele>
<time>2024-05-08T09:38:22Z</time>
</trkpt>
<trkpt lat="49.24933237954974" lon="9.419338200241327">
<ele>173.6</ele>
<time>2024-05-08T09:38:24Z</time>
</trkpt>
<trkpt lat="49.24931335262954" lon="9.419188499450684">
<ele>173.6</ele>
<time>2024-05-08T09:38:25Z</time>
</trkpt>
<trkpt lat="49.249305725097656" lon="9.419113146141171">
<ele>173.6</ele>
<time>2024-05-08T09:38:26Z</time>
</trkpt>
<trkpt lat="49.24929801374674" lon="9.419039720669389">
<ele>173.6</ele>
<time>2024-05-08T09:38:28Z</time>
</trkpt>
<trkpt lat="49.24927898682654" lon="9.41889471374452">
<ele>173.6</ele>
<time>2024-05-08T09:38:29Z</time>
</trkpt>
<trkpt lat="49.249267503619194" lon="9.418821288272738">
<ele>173.6</ele>
<time>2024-05-08T09:38:30Z</time>
</trkpt>
<trkpt lat="49.24925610423088" lon="9.418743085116148">
<ele>173.6</ele>
<time>2024-05-08T09:38:31Z</time>
</trkpt>
<trkpt lat="49.249244621023536" lon="9.418664881959558">
<ele>173.4</ele>
<time>2024-05-08T09:38:32Z</time>
</trkpt>
<trkpt lat="49.24923322163522" lon="9.418586678802969">
<ele>173.4</ele>
<time>2024-05-08T09:38:33Z</time>
</trkpt>
<trkpt lat="49.24922173842788" lon="9.418510403484106">
<ele>173.4</ele>
<time>2024-05-08T09:38:34Z</time>
</trkpt>
<trkpt lat="49.24921033903957" lon="9.418435050174594">
<ele>173.4</ele>
<time>2024-05-08T09:38:35Z</time>
</trkpt>
<trkpt lat="49.24919885583222" lon="9.418359696865082">
<ele>173.4</ele>
<time>2024-05-08T09:38:36Z</time>
</trkpt>
<trkpt lat="49.249187456443906" lon="9.4182862713933">
<ele>173.2</ele>
<time>2024-05-08T09:38:37Z</time>
</trkpt>
<trkpt lat="49.24917597323656" lon="9.418211923912168">
<ele>173.2</ele>
<time>2024-05-08T09:38:38Z</time>
</trkpt>
<trkpt lat="49.24916071817279" lon="9.418136570602655">
<ele>173.4</ele>
<time>2024-05-08T09:38:39Z</time>
</trkpt>
<trkpt lat="49.249149318784475" lon="9.418061217293143">
<ele>173.4</ele>
<time>2024-05-08T09:38:40Z</time>
</trkpt>
<trkpt lat="49.2491340637207" lon="9.41798871383071">
<ele>173.4</ele>
<time>2024-05-08T09:38:41Z</time>
</trkpt>
<trkpt lat="49.24912258051336" lon="9.417913360521196">
<ele>173.4</ele>
<time>2024-05-08T09:38:42Z</time>
</trkpt>
<trkpt lat="49.249107325449586" lon="9.417838091030715">
<ele>173.6</ele>
<time>2024-05-08T09:38:43Z</time>
</trkpt>
<trkpt lat="49.249092070385814" lon="9.417763659730554">
<ele>173.6</ele>
<time>2024-05-08T09:38:44Z</time>
</trkpt>
<trkpt lat="49.24907681532204" lon="9.417690234258773">
<ele>173.6</ele>
<time>2024-05-08T09:38:45Z</time>
</trkpt>
<trkpt lat="49.24905770458281" lon="9.41761488094926">
<ele>173.4</ele>
<time>2024-05-08T09:38:46Z</time>
</trkpt>
<trkpt lat="49.24903482198715" lon="9.417541455477476">
<ele>173.4</ele>
<time>2024-05-08T09:38:47Z</time>
</trkpt>
<trkpt lat="49.24901956692338" lon="9.417468030005692">
<ele>173.4</ele>
<time>2024-05-08T09:38:48Z</time>
</trkpt>
<trkpt lat="49.24900054000318" lon="9.417393682524562">
<ele>173.4</ele>
<time>2024-05-08T09:38:49Z</time>
</trkpt>
<trkpt lat="49.24898142926395" lon="9.41731832921505">
<ele>173.2</ele>
<time>2024-05-08T09:38:51Z</time>
</trkpt>
<trkpt lat="49.24894329160452" lon="9.417171478271484">
<ele>173.2</ele>
<time>2024-05-08T09:38:52Z</time>
</trkpt>
<trkpt lat="49.24892418086529" lon="9.41709796898067">
<ele>173.2</ele>
<time>2024-05-08T09:38:53Z</time>
</trkpt>
<trkpt lat="49.24890515394509" lon="9.417023621499538">
<ele>173</ele>
<time>2024-05-08T09:38:54Z</time>
</trkpt>
<trkpt lat="49.24888989888131" lon="9.416950196027756">
<ele>173</ele>
<time>2024-05-08T09:38:55Z</time>
</trkpt>
<trkpt lat="49.248870788142085" lon="9.416878698393704">
<ele>173</ele>
<time>2024-05-08T09:38:56Z</time>
</trkpt>
<trkpt lat="49.24885553307831" lon="9.41680334508419">
<ele>173</ele>
<time>2024-05-08T09:38:57Z</time>
</trkpt>
<trkpt lat="49.24883650615811" lon="9.416729919612408">
<ele>173</ele>
<time>2024-05-08T09:38:58Z</time>
</trkpt>
<trkpt lat="49.24882125109434" lon="9.416656494140623">
<ele>173</ele>
<time>2024-05-08T09:38:59Z</time>
</trkpt>
<trkpt lat="49.24880214035511" lon="9.41658491268754">
<ele>173</ele>
<time>2024-05-08T09:39:00Z</time>
</trkpt>
<trkpt lat="49.24878688529134" lon="9.416513415053489">
<ele>173.2</ele>
<time>2024-05-08T09:39:01Z</time>
</trkpt>
<trkpt lat="49.248771630227566" lon="9.416441917419434">
<ele>173.2</ele>
<time>2024-05-08T09:39:02Z</time>
</trkpt>
<trkpt lat="49.248756375163794" lon="9.416373185813429">
<ele>173.4</ele>
<time>2024-05-08T09:39:03Z</time>
</trkpt>
<trkpt lat="49.24874112010002" lon="9.416303616017103">
<ele>173.4</ele>
<time>2024-05-08T09:39:05Z</time>
</trkpt>
<trkpt lat="49.24870675429702" lon="9.416168164461851">
<ele>173.4</ele>
<time>2024-05-08T09:39:07Z</time>
</trkpt>
<trkpt lat="49.24867247231305" lon="9.41602986305952">
<ele>173.2</ele>
<time>2024-05-08T09:39:08Z</time>
</trkpt>
<trkpt lat="49.248653361573815" lon="9.415967920795085">
<ele>173.2</ele>
<time>2024-05-08T09:39:10Z</time>
</trkpt>
<trkpt lat="49.248611368238926" lon="9.415831547230482">
<ele>173</ele>
<time>2024-05-08T09:39:11Z</time>
</trkpt>
<trkpt lat="49.24859234131873" lon="9.415768599137664">
<ele>173</ele>
<time>2024-05-08T09:39:12Z</time>
</trkpt>
<trkpt lat="49.248577086254954" lon="9.415701795369388">
<ele>173</ele>
<time>2024-05-08T09:39:14Z</time>
</trkpt>
<trkpt lat="49.24854272045195" lon="9.41558168269694">
<ele>172.8</ele>
<time>2024-05-08T09:39:16Z</time>
</trkpt>
<trkpt lat="49.24850081093609" lon="9.415450086817144">
<ele>172.6</ele>
<time>2024-05-08T09:39:18Z</time>
</trkpt>
<trkpt lat="49.24845119006932" lon="9.41531840711832">
<ele>172.4</ele>
<time>2024-05-08T09:39:19Z</time>
</trkpt>
<trkpt lat="49.24842830747366" lon="9.415249759331346">
<ele>172.4</ele>
<time>2024-05-08T09:39:20Z</time>
</trkpt>
<trkpt lat="49.248405424878" lon="9.415178261697292">
<ele>172.2</ele>
<time>2024-05-08T09:39:21Z</time>
</trkpt>
<trkpt lat="49.24837868660688" lon="9.415109613910316">
<ele>172.2</ele>
<time>2024-05-08T09:39:22Z</time>
</trkpt>
<trkpt lat="49.24834817647934" lon="9.41504281014204">
<ele>172.2</ele>
<time>2024-05-08T09:39:23Z</time>
</trkpt>
<trkpt lat="49.248317666351795" lon="9.414979862049222">
<ele>172</ele>
<time>2024-05-08T09:39:24Z</time>
</trkpt>
<trkpt lat="49.24829478375614" lon="9.414916913956404">
<ele>172</ele>
<time>2024-05-08T09:39:25Z</time>
</trkpt>
<trkpt lat="49.24826427362859" lon="9.414853043854237">
<ele>172</ele>
<time>2024-05-08T09:39:26Z</time>
</trkpt>
<trkpt lat="49.24823376350105" lon="9.414794873446226">
<ele>172</ele>
<time>2024-05-08T09:39:27Z</time>
</trkpt>
<trkpt lat="49.248203253373504" lon="9.414736703038216">
<ele>172.2</ele>
<time>2024-05-08T09:39:29Z</time>
</trkpt>
<trkpt lat="49.248142233118415" lon="9.414623212069271">
<ele>172.4</ele>
<time>2024-05-08T09:39:30Z</time>
</trkpt>
<trkpt lat="49.24811172299087" lon="9.4145717471838">
<ele>172.4</ele>
<time>2024-05-08T09:39:32Z</time>
</trkpt>
<trkpt lat="49.24804684706032" lon="9.4144715834409">
<ele>172.6</ele>
<time>2024-05-08T09:39:33Z</time>
</trkpt>
<trkpt lat="49.248020108789206" lon="9.414421962574124">
<ele>172.6</ele>
<time>2024-05-08T09:39:34Z</time>
</trkpt>
<trkpt lat="49.247985826805234" lon="9.414369575679302">
<ele>172.6</ele>
<time>2024-05-08T09:39:36Z</time>
</trkpt>
<trkpt lat="49.247920950874686" lon="9.414270333945751">
<ele>172.8</ele>
<time>2024-05-08T09:39:37Z</time>
</trkpt>
<trkpt lat="49.24789044074714" lon="9.414217947050927">
<ele>172.8</ele>
<time>2024-05-08T09:39:38Z</time>
</trkpt>
<trkpt lat="49.2478599306196" lon="9.414170254021885">
<ele>173</ele>
<time>2024-05-08T09:39:39Z</time>
</trkpt>
<trkpt lat="49.24782942049205" lon="9.414116777479649">
<ele>173</ele>
<time>2024-05-08T09:39:40Z</time>
</trkpt>
<trkpt lat="49.24779505468905" lon="9.414058607071638">
<ele>173</ele>
<time>2024-05-08T09:39:41Z</time>
</trkpt>
<trkpt lat="49.247764544561505" lon="9.414005214348435">
<ele>173.2</ele>
<time>2024-05-08T09:39:42Z</time>
</trkpt>
<trkpt lat="49.24773403443396" lon="9.413951821625233">
<ele>173.2</ele>
<time>2024-05-08T09:39:43Z</time>
</trkpt>
<trkpt lat="49.24770729616285" lon="9.41390035673976">
<ele>173.4</ele>
<time>2024-05-08T09:39:44Z</time>
</trkpt>
<trkpt lat="49.2476767860353" lon="9.413847886025906">
<ele>173.4</ele>
<time>2024-05-08T09:39:45Z</time>
</trkpt>
<trkpt lat="49.247646275907755" lon="9.413796421140432">
<ele>173.4</ele>
<time>2024-05-08T09:39:46Z</time>
</trkpt>
<trkpt lat="49.24761199392378" lon="9.413742944598198">
<ele>173.4</ele>
<time>2024-05-08T09:39:47Z</time>
</trkpt>
<trkpt lat="49.24758139997721" lon="9.413689551874995">
<ele>173.4</ele>
<time>2024-05-08T09:39:48Z</time>
</trkpt>
<trkpt lat="49.24754711799323" lon="9.413638086989522">
<ele>173.4</ele>
<time>2024-05-08T09:39:49Z</time>
</trkpt>
<trkpt lat="49.24751275219023" lon="9.41358469426632">
<ele>173.4</ele>
<time>2024-05-08T09:39:50Z</time>
</trkpt>
<trkpt lat="49.24747847020626" lon="9.413535073399544">
<ele>173.4</ele>
<time>2024-05-08T09:39:51Z</time>
</trkpt>
<trkpt lat="49.24744033254683" lon="9.41348360851407">
<ele>173.4</ele>
<time>2024-05-08T09:39:52Z</time>
</trkpt>
<trkpt lat="49.247409738600254" lon="9.413428287953138">
<ele>173.6</ele>
<time>2024-05-08T09:39:53Z</time>
</trkpt>
<trkpt lat="49.247371600940824" lon="9.413372967392206">
<ele>173.6</ele>
<time>2024-05-08T09:39:54Z</time>
</trkpt>
<trkpt lat="49.24733731895685" lon="9.413318568840625">
<ele>173.6</ele>
<time>2024-05-08T09:39:55Z</time>
</trkpt>
<trkpt lat="49.24730295315385" lon="9.41326517611742">
<ele>173.6</ele>
<time>2024-05-08T09:39:56Z</time>
</trkpt>
<trkpt lat="49.24726867116988" lon="9.413213711231949">
<ele>173.6</ele>
<time>2024-05-08T09:39:57Z</time>
</trkpt>
<trkpt lat="49.247234305366874" lon="9.413161240518091">
<ele>173.6</ele>
<time>2024-05-08T09:39:58Z</time>
</trkpt>
<trkpt lat="49.24719616770744" lon="9.413111619651318">
<ele>173.6</ele>
<time>2024-05-08T09:39:59Z</time>
</trkpt>
<trkpt lat="49.24716180190444" lon="9.413062082603574">
<ele>173.6</ele>
<time>2024-05-08T09:40:00Z</time>
</trkpt>
<trkpt lat="49.24712751992047" lon="9.41300961188972">
<ele>173.6</ele>
<time>2024-05-08T09:40:01Z</time>
</trkpt>
<trkpt lat="49.24708938226104" lon="9.412961918860674">
<ele>173.6</ele>
<time>2024-05-08T09:40:02Z</time>
</trkpt>
<trkpt lat="49.247051160782576" lon="9.41291330382228">
<ele>173.6</ele>
<time>2024-05-08T09:40:04Z</time>
</trkpt>
<trkpt lat="49.24697111360729" lon="9.412817917764189">
<ele>173.6</ele>
<time>2024-05-08T09:40:05Z</time>
</trkpt>
<trkpt lat="49.24693674780429" lon="9.41277022473514">
<ele>173.6</ele>
<time>2024-05-08T09:40:06Z</time>
</trkpt>
<trkpt lat="49.246894754469395" lon="9.412723537534475">
<ele>173.6</ele>
<time>2024-05-08T09:40:07Z</time>
</trkpt>
<trkpt lat="49.24685661680997" lon="9.412676766514778">
<ele>173.6</ele>
<time>2024-05-08T09:40:08Z</time>
</trkpt>
<trkpt lat="49.24681470729411" lon="9.412630079314113">
<ele>173.6</ele>
<time>2024-05-08T09:40:09Z</time>
</trkpt>
<trkpt lat="49.24677656963467" lon="9.412583308294415">
<ele>173.4</ele>
<time>2024-05-08T09:40:10Z</time>
</trkpt>
<trkpt lat="49.24673457629979" lon="9.412540392950175">
<ele>173.4</ele>
<time>2024-05-08T09:40:11Z</time>
</trkpt>
<trkpt lat="49.2466925829649" lon="9.412503177300096">
<ele>173.2</ele>
<time>2024-05-08T09:40:12Z</time>
</trkpt>
<trkpt lat="49.24665067344904" lon="9.41245841793716">
<ele>173.2</ele>
<time>2024-05-08T09:40:13Z</time>
</trkpt>
<trkpt lat="49.24661253578961" lon="9.412413574755192">
<ele>173.2</ele>
<time>2024-05-08T09:40:15Z</time>
</trkpt>
<trkpt lat="49.24653240479529" lon="9.412328666076064">
<ele>173.2</ele>
<time>2024-05-08T09:40:16Z</time>
</trkpt>
<trkpt lat="49.2464904114604" lon="9.412284828722475">
<ele>173.2</ele>
<time>2024-05-08T09:40:17Z</time>
</trkpt>
<trkpt lat="49.24645227380097" lon="9.412242835387588">
<ele>173.2</ele>
<time>2024-05-08T09:40:18Z</time>
</trkpt>
<trkpt lat="49.24641036428511" lon="9.41220184788108">
<ele>173.2</ele>
<time>2024-05-08T09:40:19Z</time>
</trkpt>
<trkpt lat="49.24636837095022" lon="9.41215985454619">
<ele>173</ele>
<time>2024-05-08T09:40:20Z</time>
</trkpt>
<trkpt lat="49.24632637761533" lon="9.412117945030332">
<ele>173</ele>
<time>2024-05-08T09:40:21Z</time>
</trkpt>
<trkpt lat="49.2462882399559" lon="9.4120798073709">
<ele>173</ele>
<time>2024-05-08T09:40:22Z</time>
</trkpt>
<trkpt lat="49.24624633044005" lon="9.41203974187374">
<ele>173.2</ele>
<time>2024-05-08T09:40:23Z</time>
</trkpt>
<trkpt lat="49.24620810896158" lon="9.41199967637658">
<ele>173.2</ele>
<time>2024-05-08T09:40:24Z</time>
</trkpt>
<trkpt lat="49.24616997130215" lon="9.41195961087942">
<ele>173</ele>
<time>2024-05-08T09:40:26Z</time>
</trkpt>
<trkpt lat="49.24608992412686" lon="9.41188333556056">
<ele>173</ele>
<time>2024-05-08T09:40:27Z</time>
</trkpt>
<trkpt lat="49.24605178646743" lon="9.4118432700634">
<ele>173</ele>
<time>2024-05-08T09:40:28Z</time>
</trkpt>
<trkpt lat="49.246009793132544" lon="9.41180320456624">
<ele>172.8</ele>
<time>2024-05-08T09:40:29Z</time>
</trkpt>
<trkpt lat="49.24597165547311" lon="9.411761211231353">
<ele>172.8</ele>
<time>2024-05-08T09:40:30Z</time>
</trkpt>
<trkpt lat="49.24593728967011" lon="9.411720223724842">
<ele>172.8</ele>
<time>2024-05-08T09:40:31Z</time>
</trkpt>
<trkpt lat="49.24589915201068" lon="9.411676386371257">
<ele>172.8</ele>
<time>2024-05-08T09:40:32Z</time>
</trkpt>
<trkpt lat="49.24586478620768" lon="9.411638248711824">
<ele>172.6</ele>
<time>2024-05-08T09:40:33Z</time>
</trkpt>
<trkpt lat="49.245826648548245" lon="9.411602960899472">
<ele>172.6</ele>
<time>2024-05-08T09:40:34Z</time>
</trkpt>
<trkpt lat="49.245788510888815" lon="9.411568595096467">
<ele>172.6</ele>
<time>2024-05-08T09:40:35Z</time>
</trkpt>
<trkpt lat="49.24574660137296" lon="9.41152953542769">
<ele>172.6</ele>
<time>2024-05-08T09:40:36Z</time>
</trkpt>
<trkpt lat="49.24570460803807" lon="9.411493241786957">
<ele>172.6</ele>
<time>2024-05-08T09:40:37Z</time>
</trkpt>
<trkpt lat="49.24566261470318" lon="9.411457953974605">
<ele>172.6</ele>
<time>2024-05-08T09:40:38Z</time>
</trkpt>
<trkpt lat="49.24561684951186" lon="9.411423671990631">
<ele>172.6</ele>
<time>2024-05-08T09:40:39Z</time>
</trkpt>
<trkpt lat="49.245574939996" lon="9.41138838417828">
<ele>172.6</ele>
<time>2024-05-08T09:40:40Z</time>
</trkpt>
<trkpt lat="49.245532946661115" lon="9.411352090537548">
<ele>172.6</ele>
<time>2024-05-08T09:40:41Z</time>
</trkpt>
<trkpt lat="49.2454871814698" lon="9.411314958706498">
<ele>172.6</ele>
<time>2024-05-08T09:40:42Z</time>
</trkpt>
<trkpt lat="49.24544518813491" lon="9.411285370588304">
<ele>172.6</ele>
<time>2024-05-08T09:40:43Z</time>
</trkpt>
<trkpt lat="49.24540705047548" lon="9.41125201061368">
<ele>172.6</ele>
<time>2024-05-08T09:40:44Z</time>
</trkpt>
<trkpt lat="49.24536514095962" lon="9.411221500486135">
<ele>172.6</ele>
<time>2024-05-08T09:40:45Z</time>
</trkpt>
<trkpt lat="49.24532314762473" lon="9.41118805669248">
<ele>172.6</ele>
<time>2024-05-08T09:40:46Z</time>
</trkpt>
<trkpt lat="49.24528115428984" lon="9.411158552393315">
<ele>172.6</ele>
<time>2024-05-08T09:40:47Z</time>
</trkpt>
<trkpt lat="49.245239244773984" lon="9.411128042265773">
<ele>172.6</ele>
<time>2024-05-08T09:40:48Z</time>
</trkpt>
<trkpt lat="49.24519347958267" lon="9.411096526309848">
<ele>172.6</ele>
<time>2024-05-08T09:40:49Z</time>
</trkpt>
<trkpt lat="49.24515148624778" lon="9.411063166335223">
<ele>172.6</ele>
<time>2024-05-08T09:40:50Z</time>
</trkpt>
<trkpt lat="49.24510572105646" lon="9.411029806360602">
<ele>172.6</ele>
<time>2024-05-08T09:40:51Z</time>
</trkpt>
<trkpt lat="49.245059955865145" lon="9.410996362566948">
<ele>172.6</ele>
<time>2024-05-08T09:40:52Z</time>
</trkpt>
<trkpt lat="49.245017962530255" lon="9.410962080582976">
<ele>172.6</ele>
<time>2024-05-08T09:40:53Z</time>
</trkpt>
<trkpt lat="49.24497219733894" lon="9.410926792770624">
<ele>172.6</ele>
<time>2024-05-08T09:40:54Z</time>
</trkpt>
<trkpt lat="49.24492643214762" lon="9.410893432796">
<ele>172.6</ele>
<time>2024-05-08T09:40:55Z</time>
</trkpt>
<trkpt lat="49.24488443881273" lon="9.41085814498365">
<ele>172.6</ele>
<time>2024-05-08T09:40:56Z</time>
</trkpt>
<trkpt lat="49.244838673621416" lon="9.410824701189997">
<ele>172.6</ele>
<time>2024-05-08T09:40:57Z</time>
</trkpt>
<trkpt lat="49.24479668028653" lon="9.410793269053102">
<ele>172.6</ele>
<time>2024-05-08T09:40:58Z</time>
</trkpt>
<trkpt lat="49.24475091509521" lon="9.41075990907848">
<ele>172.6</ele>
<time>2024-05-08T09:40:59Z</time>
</trkpt>
<trkpt lat="49.24470514990389" lon="9.410728393122554">
<ele>172.6</ele>
<time>2024-05-08T09:41:00Z</time>
</trkpt>
<trkpt lat="49.24465938471258" lon="9.41069696098566">
<ele>172.6</ele>
<time>2024-05-08T09:41:01Z</time>
</trkpt>
<trkpt lat="49.24461361952126" lon="9.410663601011038">
<ele>172.6</ele>
<time>2024-05-08T09:41:02Z</time>
</trkpt>
<trkpt lat="49.24457162618637" lon="9.410631163045764">
<ele>172.6</ele>
<time>2024-05-08T09:41:03Z</time>
</trkpt>
<trkpt lat="49.24452971667051" lon="9.410601574927568">
<ele>172.6</ele>
<time>2024-05-08T09:41:05Z</time>
</trkpt>
<trkpt lat="49.244487723335624" lon="9.410571986809371">
<ele>172.6</ele>
<time>2024-05-08T09:41:06Z</time>
</trkpt>
<trkpt lat="49.24440382048488" lon="9.410512894392014">
<ele>172.6</ele>
<time>2024-05-08T09:41:07Z</time>
</trkpt>
<trkpt lat="49.24436182714999" lon="9.410481378436089">
<ele>172.6</ele>
<time>2024-05-08T09:41:08Z</time>
</trkpt>
<trkpt lat="49.24431606195867" lon="9.410451874136925">
<ele>172.6</ele>
<time>2024-05-08T09:41:09Z</time>
</trkpt>
<trkpt lat="49.24427406862378" lon="9.41042136400938">
<ele>172.6</ele>
<time>2024-05-08T09:41:10Z</time>
</trkpt>
<trkpt lat="49.24423593096435" lon="9.410391775891185">
<ele>172.6</ele>
<time>2024-05-08T09:41:11Z</time>
</trkpt>
<trkpt lat="49.24419779330492" lon="9.41036126576364">
<ele>172.6</ele>
<time>2024-05-08T09:41:12Z</time>
</trkpt>
<trkpt lat="49.24415588378906" lon="9.410331677645445">
<ele>172.6</ele>
<time>2024-05-08T09:41:13Z</time>
</trkpt>
<trkpt lat="49.244110034778714" lon="9.41030309535563">
<ele>172.6</ele>
<time>2024-05-08T09:41:14Z</time>
</trkpt>
<trkpt lat="49.24406812526286" lon="9.410273507237434">
<ele>172.6</ele>
<time>2024-05-08T09:41:15Z</time>
</trkpt>
<trkpt lat="49.24402613192797" lon="9.41024492494762">
<ele>172.6</ele>
<time>2024-05-08T09:41:16Z</time>
</trkpt>
<trkpt lat="49.24398036673665" lon="9.410216258838773">
<ele>172.6</ele>
<time>2024-05-08T09:41:17Z</time>
</trkpt>
<trkpt lat="49.243934601545334" lon="9.410188598558308">
<ele>172.6</ele>
<time>2024-05-08T09:41:18Z</time>
</trkpt>
<trkpt lat="49.24388883635402" lon="9.4101647939533">
<ele>172.6</ele>
<time>2024-05-08T09:41:20Z</time>
</trkpt>
<trkpt lat="49.2438087053597" lon="9.41012187860906">
<ele>172.8</ele>
<time>2024-05-08T09:41:22Z</time>
</trkpt>
<trkpt lat="49.24372480250895" lon="9.410075107589364">
<ele>172.8</ele>
<time>2024-05-08T09:41:23Z</time>
</trkpt>
<trkpt lat="49.24368280917406" lon="9.41004845313728">
<ele>172.8</ele>
<time>2024-05-08T09:41:24Z</time>
</trkpt>
<trkpt lat="49.2436408996582" lon="9.41002456471324">
<ele>172.8</ele>
<time>2024-05-08T09:41:25Z</time>
</trkpt>
<trkpt lat="49.243595050647855" lon="9.409997910261154">
<ele>172.8</ele>
<time>2024-05-08T09:41:26Z</time>
</trkpt>
<trkpt lat="49.243553141132" lon="9.409971171990035">
<ele>172.8</ele>
<time>2024-05-08T09:41:27Z</time>
</trkpt>
<trkpt lat="49.24350352026522" lon="9.409944517537951">
<ele>172.8</ele>
<time>2024-05-08T09:41:28Z</time>
</trkpt>
<trkpt lat="49.243457755073905" lon="9.409919707104564">
<ele>173</ele>
<time>2024-05-08T09:41:29Z</time>
</trkpt>
<trkpt lat="49.24341198988259" lon="9.409894896671176">
<ele>173</ele>
<time>2024-05-08T09:41:30Z</time>
</trkpt>
<trkpt lat="49.24336622469127" lon="9.40986815840006">
<ele>173</ele>
<time>2024-05-08T09:41:31Z</time>
</trkpt>
<trkpt lat="49.243320459499955" lon="9.409843431785704">
<ele>173.2</ele>
<time>2024-05-08T09:41:32Z</time>
</trkpt>
<trkpt lat="49.24327461048961" lon="9.409816693514584">
<ele>173.2</ele>
<time>2024-05-08T09:41:33Z</time>
</trkpt>
<trkpt lat="49.24322884529829" lon="9.409792888909578">
<ele>173.2</ele>
<time>2024-05-08T09:41:34Z</time>
</trkpt>
<trkpt lat="49.243183080106974" lon="9.40976807847619">
<ele>173</ele>
<time>2024-05-08T09:41:35Z</time>
</trkpt>
<trkpt lat="49.24314117059112" lon="9.409745195880532">
<ele>173</ele>
<time>2024-05-08T09:41:36Z</time>
</trkpt>
<trkpt lat="49.24309154972434" lon="9.409720385447145">
<ele>173</ele>
<time>2024-05-08T09:41:37Z</time>
</trkpt>
<trkpt lat="49.243041928857565" lon="9.409693647176027">
<ele>173</ele>
<time>2024-05-08T09:41:38Z</time>
</trkpt>
<trkpt lat="49.24299616366625" lon="9.40966984257102">
<ele>173</ele>
<time>2024-05-08T09:41:39Z</time>
</trkpt>
<trkpt lat="49.24294654279947" lon="9.409643104299905">
<ele>173</ele>
<time>2024-05-08T09:41:41Z</time>
</trkpt>
<trkpt lat="49.24285124056041" lon="9.40959356725216">
<ele>173</ele>
<time>2024-05-08T09:41:43Z</time>
</trkpt>
<trkpt lat="49.24275199882686" lon="9.40955157391727">
<ele>173.2</ele>
<time>2024-05-08T09:41:44Z</time>
</trkpt>
<trkpt lat="49.24269860610366" lon="9.40952961333096">
<ele>173.2</ele>
<time>2024-05-08T09:41:45Z</time>
</trkpt>
<trkpt lat="49.242645213380456" lon="9.40950958058238">
<ele>173.2</ele>
<time>2024-05-08T09:41:46Z</time>
</trkpt>
<trkpt lat="49.24259559251368" lon="9.409489631652832">
<ele>173.4</ele>
<time>2024-05-08T09:41:48Z</time>
</trkpt>
<trkpt lat="49.24250406213105" lon="9.409441938623786">
<ele>173.4</ele>
<time>2024-05-08T09:41:50Z</time>
</trkpt>
<trkpt lat="49.24240490421653" lon="9.409398017451169">
<ele>173.4</ele>
<time>2024-05-08T09:41:51Z</time>
</trkpt>
<trkpt lat="49.24235528334975" lon="9.409381840378046">
<ele>173.4</ele>
<time>2024-05-08T09:41:52Z</time>
</trkpt>
<trkpt lat="49.24230951815843" lon="9.409359879791737">
<ele>173.6</ele>
<time>2024-05-08T09:41:54Z</time>
</trkpt>
<trkpt lat="49.24221036024392" lon="9.409326519817114">
<ele>173.6</ele>
<time>2024-05-08T09:41:55Z</time>
</trkpt>
<trkpt lat="49.242156967520714" lon="9.409311264753342">
<ele>173.6</ele>
<time>2024-05-08T09:41:56Z</time>
</trkpt>
<trkpt lat="49.24210734665394" lon="9.409296931698918">
<ele>173.6</ele>
<time>2024-05-08T09:41:57Z</time>
</trkpt>
<trkpt lat="49.24205772578716" lon="9.409279748797417">
<ele>173.4</ele>
<time>2024-05-08T09:41:58Z</time>
</trkpt>
<trkpt lat="49.24200818873942" lon="9.409259716048837">
<ele>173.6</ele>
<time>2024-05-08T09:41:59Z</time>
</trkpt>
<trkpt lat="49.24195856787264" lon="9.409241611137986">
<ele>173.4</ele>
<time>2024-05-08T09:42:00Z</time>
</trkpt>
<trkpt lat="49.24186318181455" lon="9.409198695793748">
<ele>173.4</ele>
<time>2024-05-08T09:42:03Z</time>
</trkpt>
<trkpt lat="49.24177165143192" lon="9.409146308898926">
<ele>173.4</ele>
<time>2024-05-08T09:42:04Z</time>
</trkpt>
<trkpt lat="49.24173351377249" lon="9.40911672078073">
<ele>173.2</ele>
<time>2024-05-08T09:42:05Z</time>
</trkpt>
<trkpt lat="49.24168774858117" lon="9.409085204824803">
<ele>173.2</ele>
<time>2024-05-08T09:42:06Z</time>
</trkpt>
<trkpt lat="49.24164575524628" lon="9.409051844850184">
<ele>173.2</ele>
<time>2024-05-08T09:42:07Z</time>
</trkpt>
<trkpt lat="49.241603845730424" lon="9.40901655703783">
<ele>173.2</ele>
<time>2024-05-08T09:42:08Z</time>
</trkpt>
<trkpt lat="49.241561852395535" lon="9.40898034721613">
<ele>173.2</ele>
<time>2024-05-08T09:42:10Z</time>
</trkpt>
<trkpt lat="49.24147794954479" lon="9.408913543447852">
<ele>173</ele>
<time>2024-05-08T09:42:11Z</time>
</trkpt>
<trkpt lat="49.2414359562099" lon="9.4088782556355">
<ele>173</ele>
<time>2024-05-08T09:42:13Z</time>
</trkpt>
<trkpt lat="49.24135205335915" lon="9.408813463523984">
<ele>173</ele>
<time>2024-05-08T09:42:15Z</time>
</trkpt>
<trkpt lat="49.24127954989672" lon="9.40874288789928">
<ele>173</ele>
<time>2024-05-08T09:42:17Z</time>
</trkpt>
<trkpt lat="49.24124141223729" lon="9.408706594258549">
<ele>173</ele>
<time>2024-05-08T09:42:18Z</time>
</trkpt>
<trkpt lat="49.2411803919822" lon="9.408650351688266">
<ele>172.8</ele>
<time>2024-05-08T09:42:20Z</time>
</trkpt>
<trkpt lat="49.241146026179194" lon="9.40861984156072">
<ele>172.6</ele>
<time>2024-05-08T09:42:21Z</time>
</trkpt>
<trkpt lat="49.241123143583536" lon="9.408597880974412">
<ele>172.6</ele>
<time>2024-05-08T09:42:23Z</time>
</trkpt>
<trkpt lat="49.24108123406768" lon="9.40854448825121">
<ele>172.8</ele>
<time>2024-05-08T09:42:24Z</time>
</trkpt>
<trkpt lat="49.2410506401211" lon="9.408513056114316">
<ele>172.6</ele>
<time>2024-05-08T09:42:25Z</time>
</trkpt>
<trkpt lat="49.24102012999356" lon="9.40848539583385">
<ele>172.6</ele>
<time>2024-05-08T09:42:26Z</time>
</trkpt>
<trkpt lat="49.24099347554147" lon="9.40846536308527">
<ele>172.6</ele>
<time>2024-05-08T09:42:27Z</time>
</trkpt>
<trkpt lat="49.24096296541393" lon="9.408448180183768">
<ele>172.6</ele>
<time>2024-05-08T09:42:28Z</time>
</trkpt>
<trkpt lat="49.240932455286384" lon="9.408430075272918">
<ele>172.4</ele>
<time>2024-05-08T09:42:29Z</time>
</trkpt>
<trkpt lat="49.24089808948338" lon="9.408398559316993">
<ele>172</ele>
<time>2024-05-08T09:42:30Z</time>
</trkpt>
<trkpt lat="49.24086372368038" lon="9.408361427485945">
<ele>171.8</ele>
<time>2024-05-08T09:42:31Z</time>
</trkpt>
<trkpt lat="49.24083321355283" lon="9.40832320600748">
<ele>171.8</ele>
<time>2024-05-08T09:42:33Z</time>
</trkpt>
<trkpt lat="49.24080270342529" lon="9.408283224329352">
<ele>171.6</ele>
<time>2024-05-08T09:42:34Z</time>
</trkpt>
<trkpt lat="49.2407416831702" lon="9.40820686519146">
<ele>171.4</ele>
<time>2024-05-08T09:42:35Z</time>
</trkpt>
<trkpt lat="49.240711173042655" lon="9.40816973336041">
<ele>171.4</ele>
<time>2024-05-08T09:42:36Z</time>
</trkpt>
<trkpt lat="49.24068066291511" lon="9.40812966786325">
<ele>171.4</ele>
<time>2024-05-08T09:42:38Z</time>
</trkpt>
<trkpt lat="49.24062341451645" lon="9.408044759184122">
<ele>171.2</ele>
<time>2024-05-08T09:42:39Z</time>
</trkpt>
<trkpt lat="49.24058913253248" lon="9.408002849668264">
<ele>171.2</ele>
<time>2024-05-08T09:42:40Z</time>
</trkpt>
<trkpt lat="49.24056239426136" lon="9.407961778342724">
<ele>171.2</ele>
<time>2024-05-08T09:42:41Z</time>
</trkpt>
<trkpt lat="49.240531884133816" lon="9.4079112354666">
<ele>171</ele>
<time>2024-05-08T09:42:42Z</time>
</trkpt>
<trkpt lat="49.2405051458627" lon="9.407863542437552">
<ele>171</ele>
<time>2024-05-08T09:42:44Z</time>
</trkpt>
<trkpt lat="49.24044412560761" lon="9.407761534675956">
<ele>170.8</ele>
<time>2024-05-08T09:42:45Z</time>
</trkpt>
<trkpt lat="49.24040984362364" lon="9.407708141952751">
<ele>170.6</ele>
<time>2024-05-08T09:42:46Z</time>
</trkpt>
<trkpt lat="49.240379333496094" lon="9.407651899382472">
<ele>170.6</ele>
<time>2024-05-08T09:42:47Z</time>
</trkpt>
<trkpt lat="49.24034873954952" lon="9.407591801136732">
<ele>170.6</ele>
<time>2024-05-08T09:42:48Z</time>
</trkpt>
<trkpt lat="49.24031822942197" lon="9.407529775053264">
<ele>170.6</ele>
<time>2024-05-08T09:42:49Z</time>
</trkpt>
<trkpt lat="49.24028771929443" lon="9.407469676807525">
<ele>170.6</ele>
<time>2024-05-08T09:42:50Z</time>
</trkpt>
<trkpt lat="49.24025720916688" lon="9.407408656552434">
<ele>170.4</ele>
<time>2024-05-08T09:42:51Z</time>
</trkpt>
<trkpt lat="49.24022669903934" lon="9.407344786450269">
<ele>170.4</ele>
<time>2024-05-08T09:42:52Z</time>
</trkpt>
<trkpt lat="49.24019618891179" lon="9.40727991051972">
<ele>170.4</ele>
<time>2024-05-08T09:42:53Z</time>
</trkpt>
<trkpt lat="49.24016567878425" lon="9.407215118408203">
<ele>170.4</ele>
<time>2024-05-08T09:42:54Z</time>
</trkpt>
<trkpt lat="49.24013516865671" lon="9.407148314639926">
<ele>170.4</ele>
<time>2024-05-08T09:42:55Z</time>
</trkpt>
<trkpt lat="49.24010843038559" lon="9.40708159469068">
<ele>170.4</ele>
<time>2024-05-08T09:42:57Z</time>
</trkpt>
<trkpt lat="49.24005503766239" lon="9.406946143135428">
<ele>170.4</ele>
<time>2024-05-08T09:42:58Z</time>
</trkpt>
<trkpt lat="49.24002829939127" lon="9.406878417357802">
<ele>170.4</ele>
<time>2024-05-08T09:42:59Z</time>
</trkpt>
<trkpt lat="49.240001644939184" lon="9.406807841733098">
<ele>170.4</ele>
<time>2024-05-08T09:43:01Z</time>
</trkpt>
<trkpt lat="49.239963507279754" lon="9.406662918627262">
<ele>170.2</ele>
<time>2024-05-08T09:43:03Z</time>
</trkpt>
<trkpt lat="49.23994825221598" lon="9.406593265011908">
<ele>170.2</ele>
<time>2024-05-08T09:43:04Z</time>
</trkpt>
<trkpt lat="49.23992536962032" lon="9.406463596969845">
<ele>170</ele>
<time>2024-05-08T09:43:05Z</time>
</trkpt>
<trkpt lat="49.23991388641298" lon="9.406405426561832">
<ele>170</ele>
<time>2024-05-08T09:43:06Z</time>
</trkpt>
<trkpt lat="49.23990625888109" lon="9.4063501060009">
<ele>169.8</ele>
<time>2024-05-08T09:43:07Z</time>
</trkpt>
<trkpt lat="49.23989100381732" lon="9.40629193559289">
<ele>169.8</ele>
<time>2024-05-08T09:43:09Z</time>
</trkpt>
<trkpt lat="49.23985663801432" lon="9.406149862334132">
<ele>169.6</ele>
<time>2024-05-08T09:43:10Z</time>
</trkpt>
<trkpt lat="49.239841382950544" lon="9.406068725511432">
<ele>169.6</ele>
<time>2024-05-08T09:43:11Z</time>
</trkpt>
<trkpt lat="49.23982998356223" lon="9.405981972813606">
<ele>169.4</ele>
<time>2024-05-08T09:43:13Z</time>
</trkpt>
<trkpt lat="49.239810872823" lon="9.405810311436651">
<ele>169.2</ele>
<time>2024-05-08T09:43:14Z</time>
</trkpt>
<trkpt lat="49.239803245291114" lon="9.405726408585906">
<ele>169</ele>
<time>2024-05-08T09:43:16Z</time>
</trkpt>
<trkpt lat="49.23978799022734" lon="9.405561368912458">
<ele>168.8</ele>
<time>2024-05-08T09:43:18Z</time>
</trkpt>
<trkpt lat="49.239784218370914" lon="9.40548132173717">
<ele>168.8</ele>
<time>2024-05-08T09:43:19Z</time>
</trkpt>
<trkpt lat="49.239784218370914" lon="9.40540119074285">
<ele>168.8</ele>
<time>2024-05-08T09:43:20Z</time>
</trkpt>
<trkpt lat="49.239784218370914" lon="9.40524285659194">
<ele>168.6</ele>
<time>2024-05-08T09:43:21Z</time>
</trkpt>
<trkpt lat="49.239784218370914" lon="9.40516658127308">
<ele>168.6</ele>
<time>2024-05-08T09:43:22Z</time>
</trkpt>
<trkpt lat="49.23978799022734" lon="9.405091227963569">
<ele>168.6</ele>
<time>2024-05-08T09:43:23Z</time>
</trkpt>
<trkpt lat="49.2397918459028" lon="9.405019730329514">
<ele>168.6</ele>
<time>2024-05-08T09:43:25Z</time>
</trkpt>
<trkpt lat="49.23979947343469" lon="9.40494630485773">
<ele>168.6</ele>
<time>2024-05-08T09:43:26Z</time>
</trkpt>
<trkpt lat="49.239810872823" lon="9.404803225770593">
<ele>168.4</ele>
<time>2024-05-08T09:43:27Z</time>
</trkpt>
<trkpt lat="49.23981472849846" lon="9.40472787246108">
<ele>168.4</ele>
<time>2024-05-08T09:43:28Z</time>
</trkpt>
<trkpt lat="49.239818500354886" lon="9.404656374827027">
<ele>168.4</ele>
<time>2024-05-08T09:43:30Z</time>
</trkpt>
<trkpt lat="49.23982998356223" lon="9.40450851805508">
<ele>168.4</ele>
<time>2024-05-08T09:43:31Z</time>
</trkpt>
<trkpt lat="49.23983761109412" lon="9.404431320726871">
<ele>168.4</ele>
<time>2024-05-08T09:43:32Z</time>
</trkpt>
<trkpt lat="49.239841382950544" lon="9.40435311757028">
<ele>168.4</ele>
<time>2024-05-08T09:43:33Z</time>
</trkpt>
<trkpt lat="49.23984901048243" lon="9.40427491441369">
<ele>168.4</ele>
<time>2024-05-08T09:43:34Z</time>
</trkpt>
<trkpt lat="49.23985663801432" lon="9.4041967112571">
<ele>168.4</ele>
<time>2024-05-08T09:43:36Z</time>
</trkpt>
<trkpt lat="49.23987574875355" lon="9.404045082628729">
<ele>168.4</ele>
<time>2024-05-08T09:43:37Z</time>
</trkpt>
<trkpt lat="49.239883376285434" lon="9.403969729319217">
<ele>168.6</ele>
<time>2024-05-08T09:43:38Z</time>
</trkpt>
<trkpt lat="49.23988723196089" lon="9.403893454000354">
<ele>168.6</ele>
<time>2024-05-08T09:43:39Z</time>
</trkpt>
<trkpt lat="49.23989485949278" lon="9.403816172853112">
<ele>168.6</ele>
<time>2024-05-08T09:43:40Z</time>
</trkpt>
<trkpt lat="49.239902487024665" lon="9.403739897534251">
<ele>168.6</ele>
<time>2024-05-08T09:43:41Z</time>
</trkpt>
<trkpt lat="49.23991011455655" lon="9.40366362221539">
<ele>168.4</ele>
<time>2024-05-08T09:43:42Z</time>
</trkpt>
<trkpt lat="49.23991774208844" lon="9.403588268905878">
<ele>168.4</ele>
<time>2024-05-08T09:43:43Z</time>
</trkpt>
<trkpt lat="49.239921513944864" lon="9.403511993587015">
<ele>168.4</ele>
<time>2024-05-08T09:43:44Z</time>
</trkpt>
<trkpt lat="49.23992914147675" lon="9.403436640277503">
<ele>168.2</ele>
<time>2024-05-08T09:43:45Z</time>
</trkpt>
<trkpt lat="49.23993676900864" lon="9.403363214805722">
<ele>168.2</ele>
<time>2024-05-08T09:43:46Z</time>
</trkpt>
<trkpt lat="49.239940624684095" lon="9.40328978933394">
<ele>168.2</ele>
<time>2024-05-08T09:43:47Z</time>
</trkpt>
<trkpt lat="49.23994825221598" lon="9.403216280043123">
<ele>168</ele>
<time>2024-05-08T09:43:48Z</time>
</trkpt>
<trkpt lat="49.23995587974787" lon="9.403142854571342">
<ele>168</ele>
<time>2024-05-08T09:43:50Z</time>
</trkpt>
<trkpt lat="49.23996727913618" lon="9.40307043492794">
<ele>168</ele>
<time>2024-05-08T09:43:51Z</time>
</trkpt>
<trkpt lat="49.23999016173184" lon="9.402926433831452">
<ele>168</ele>
<time>2024-05-08T09:43:52Z</time>
</trkpt>
<trkpt lat="49.240001644939184" lon="9.402856780216098">
<ele>168</ele>
<time>2024-05-08T09:43:53Z</time>
</trkpt>
<trkpt lat="49.2400130443275" lon="9.402788132429125">
<ele>168</ele>
<time>2024-05-08T09:43:54Z</time>
</trkpt>
<trkpt lat="49.24002829939127" lon="9.402725184336305">
<ele>168</ele>
<time>2024-05-08T09:43:55Z</time>
</trkpt>
<trkpt lat="49.240043638274074" lon="9.402663158252835">
<ele>168</ele>
<time>2024-05-08T09:43:57Z</time>
</trkpt>
<trkpt lat="49.24006266519427" lon="9.402601215988398">
<ele>168</ele>
<time>2024-05-08T09:43:58Z</time>
</trkpt>
<trkpt lat="49.240081775933504" lon="9.4025354180485">
<ele>168</ele>
<time>2024-05-08T09:43:59Z</time>
</trkpt>
<trkpt lat="49.24011228606105" lon="9.402401894330978">
<ele>167.8</ele>
<time>2024-05-08T09:44:00Z</time>
</trkpt>
<trkpt lat="49.24013131298125" lon="9.4023350905627">
<ele>168</ele>
<time>2024-05-08T09:44:01Z</time>
</trkpt>
<trkpt lat="49.24014656804502" lon="9.402268370613456">
<ele>168</ele>
<time>2024-05-08T09:44:03Z</time>
</trkpt>
<trkpt lat="49.24018856137991" lon="9.40214155241847">
<ele>168.2</ele>
<time>2024-05-08T09:44:05Z</time>
</trkpt>
<trkpt lat="49.240238182246685" lon="9.402018506079912">
<ele>168.4</ele>
<time>2024-05-08T09:44:06Z</time>
</trkpt>
<trkpt lat="49.24026106484234" lon="9.401958407834172">
<ele>168.6</ele>
<time>2024-05-08T09:44:07Z</time>
</trkpt>
<trkpt lat="49.240283947438" lon="9.401898309588432">
<ele>168.6</ele>
<time>2024-05-08T09:44:08Z</time>
</trkpt>
<trkpt lat="49.24030683003366" lon="9.401838295161724">
<ele>168.6</ele>
<time>2024-05-08T09:44:09Z</time>
</trkpt>
<trkpt lat="49.24032971262932" lon="9.401778196915984">
<ele>168.8</ele>
<time>2024-05-08T09:44:10Z</time>
</trkpt>
<trkpt lat="49.24035636708141" lon="9.401720026507974">
<ele>168.8</ele>
<time>2024-05-08T09:44:11Z</time>
</trkpt>
<trkpt lat="49.240379333496094" lon="9.401659928262234">
<ele>168.8</ele>
<time>2024-05-08T09:44:12Z</time>
</trkpt>
<trkpt lat="49.24040598794818" lon="9.401601757854223">
<ele>168.8</ele>
<time>2024-05-08T09:44:14Z</time>
</trkpt>
<trkpt lat="49.24045938067138" lon="9.401485417038202">
<ele>169</ele>
<time>2024-05-08T09:44:15Z</time>
</trkpt>
<trkpt lat="49.240489890798926" lon="9.40142816863954">
<ele>169</ele>
<time>2024-05-08T09:44:17Z</time>
</trkpt>
<trkpt lat="49.24053565599024" lon="9.401308055967093">
<ele>169</ele>
<time>2024-05-08T09:44:18Z</time>
</trkpt>
<trkpt lat="49.24056239426136" lon="9.401247957721353">
<ele>169</ele>
<time>2024-05-08T09:44:20Z</time>
</trkpt>
<trkpt lat="49.240612015128136" lon="9.401131616905332">
<ele>169.2</ele>
<time>2024-05-08T09:44:21Z</time>
</trkpt>
<trkpt lat="49.24064252525568" lon="9.40107529051602">
<ele>169.4</ele>
<time>2024-05-08T09:44:22Z</time>
</trkpt>
<trkpt lat="49.240669179707766" lon="9.40101527608931">
<ele>169.4</ele>
<time>2024-05-08T09:44:23Z</time>
</trkpt>
<trkpt lat="49.24069591797888" lon="9.4009571056813">
<ele>169.6</ele>
<time>2024-05-08T09:44:24Z</time>
</trkpt>
<trkpt lat="49.24072265625" lon="9.400897929444907">
<ele>169.6</ele>
<time>2024-05-08T09:44:25Z</time>
</trkpt>
<trkpt lat="49.240753166377544" lon="9.400846464559436">
<ele>169.6</ele>
<time>2024-05-08T09:44:27Z</time>
</trkpt>
<trkpt lat="49.24077982082963" lon="9.40079684369266">
<ele>169.6</ele>
<time>2024-05-08T09:44:28Z</time>
</trkpt>
<trkpt lat="49.24081418663263" lon="9.40075870603323">
<ele>169.6</ele>
<time>2024-05-08T09:44:29Z</time>
</trkpt>
<trkpt lat="49.24088283441961" lon="9.400688130408524">
<ele>169.6</ele>
<time>2024-05-08T09:44:31Z</time>
</trkpt>
<trkpt lat="49.2409438546747" lon="9.40060037188232">
<ele>169.4</ele>
<time>2024-05-08T09:44:32Z</time>
</trkpt>
<trkpt lat="49.2409782204777" lon="9.400554606691005">
<ele>169.4</ele>
<time>2024-05-08T09:44:33Z</time>
</trkpt>
<trkpt lat="49.241008730605245" lon="9.400509763509037">
<ele>169.4</ele>
<time>2024-05-08T09:44:35Z</time>
</trkpt>
<trkpt lat="49.24106975086033" lon="9.400408677756786">
<ele>169.2</ele>
<time>2024-05-08T09:44:36Z</time>
</trkpt>
<trkpt lat="49.24110026098788" lon="9.400358134880662">
<ele>169.2</ele>
<time>2024-05-08T09:44:37Z</time>
</trkpt>
<trkpt lat="49.24113462679088" lon="9.400311447679996">
<ele>169.2</ele>
<time>2024-05-08T09:44:38Z</time>
</trkpt>
<trkpt lat="49.241165136918426" lon="9.400268532335758">
<ele>169.2</ele>
<time>2024-05-08T09:44:39Z</time>
</trkpt>
<trkpt lat="49.2411994189024" lon="9.40022461116314">
<ele>169.4</ele>
<time>2024-05-08T09:44:40Z</time>
</trkpt>
<trkpt lat="49.2412337847054" lon="9.40018362365663">
<ele>169.4</ele>
<time>2024-05-08T09:44:41Z</time>
</trkpt>
<trkpt lat="49.2412681505084" lon="9.400144563987851">
<ele>169.4</ele>
<time>2024-05-08T09:44:42Z</time>
</trkpt>
<trkpt lat="49.241302432492375" lon="9.40010349266231">
<ele>169.4</ele>
<time>2024-05-08T09:44:43Z</time>
</trkpt>
<trkpt lat="49.24133679829538" lon="9.40006535500288">
<ele>169.4</ele>
<time>2024-05-08T09:44:44Z</time>
</trkpt>
<trkpt lat="49.24136730842292" lon="9.4000262953341">
<ele>169.6</ele>
<time>2024-05-08T09:44:46Z</time>
</trkpt>
<trkpt lat="49.24143981188536" lon="9.39994809217751">
<ele>169.6</ele>
<time>2024-05-08T09:44:47Z</time>
</trkpt>
<trkpt lat="49.2414703220129" lon="9.39990995451808">
<ele>169.6</ele>
<time>2024-05-08T09:44:48Z</time>
</trkpt>
<trkpt lat="49.24149697646499" lon="9.399873660877349">
<ele>169.6</ele>
<time>2024-05-08T09:44:49Z</time>
</trkpt>
<trkpt lat="49.24152748659253" lon="9.399834601208568">
<ele>169.6</ele>
<time>2024-05-08T09:44:50Z</time>
</trkpt>
<trkpt lat="49.24155422486365" lon="9.399798391386868">
<ele>169.6</ele>
<time>2024-05-08T09:44:52Z</time>
</trkpt>
<trkpt lat="49.24160761758685" lon="9.39973351545632">
<ele>169.6</ele>
<time>2024-05-08T09:44:53Z</time>
</trkpt>
<trkpt lat="49.24163050018251" lon="9.399704933166504">
<ele>169.6</ele>
<time>2024-05-08T09:44:55Z</time>
</trkpt>
<trkpt lat="49.24166863784194" lon="9.399668639525771">
<ele>169.6</ele>
<time>2024-05-08T09:44:57Z</time>
</trkpt>
<trkpt lat="49.24168389290571" lon="9.399649612605572">
<ele>169.6</ele>
<time>2024-05-08T09:44:58Z</time>
</trkpt>
<trkpt lat="49.2416915204376" lon="9.399626730009912">
<ele>169.6</ele>
<time>2024-05-08T09:44:59Z</time>
</trkpt>
<trkpt lat="49.2416915204376" lon="9.399596136063336">
<ele>169.6</ele>
<time>2024-05-08T09:45:00Z</time>
</trkpt>
<trkpt lat="49.2416915204376" lon="9.399566631764174">
<ele>169.4</ele>
<time>2024-05-08T09:45:01Z</time>
</trkpt>
<trkpt lat="49.241676265373826" lon="9.399535115808249">
<ele>169.4</ele>
<time>2024-05-08T09:45:02Z</time>
</trkpt>
<trkpt lat="49.24165723845363" lon="9.399506533518434">
<ele>169.2</ele>
<time>2024-05-08T09:45:03Z</time>
</trkpt>
<trkpt lat="49.24161524511874" lon="9.39945314079523">
<ele>169.2</ele>
<time>2024-05-08T09:45:05Z</time>
</trkpt>
<trkpt lat="49.24159621819854" lon="9.399421624839306">
<ele>169</ele>
<time>2024-05-08T09:45:06Z</time>
</trkpt>
<trkpt lat="49.24157710745931" lon="9.399388264864683">
<ele>169</ele>
<time>2024-05-08T09:45:07Z</time>
</trkpt>
<trkpt lat="49.24153896979987" lon="9.399321544915438">
<ele>168.8</ele>
<time>2024-05-08T09:45:08Z</time>
</trkpt>
<trkpt lat="49.241523714736104" lon="9.399286257103086">
<ele>168.6</ele>
<time>2024-05-08T09:45:09Z</time>
</trkpt>
<trkpt lat="49.24150460399687" lon="9.399248119443657">
<ele>168.6</ele>
<time>2024-05-08T09:45:10Z</time>
</trkpt>
<trkpt lat="49.2414893489331" lon="9.399211825802922">
<ele>168.4</ele>
<time>2024-05-08T09:45:11Z</time>
</trkpt>
<trkpt lat="49.2414703220129" lon="9.399173688143492">
<ele>168.2</ele>
<time>2024-05-08T09:45:13Z</time>
</trkpt>
<trkpt lat="49.24145506694913" lon="9.399134628474712">
<ele>168.2</ele>
<time>2024-05-08T09:45:14Z</time>
</trkpt>
<trkpt lat="49.241424556821585" lon="9.399047791957855">
<ele>168</ele>
<time>2024-05-08T09:45:15Z</time>
</trkpt>
<trkpt lat="49.241405446082354" lon="9.39900202676654">
<ele>168</ele>
<time>2024-05-08T09:45:16Z</time>
</trkpt>
<trkpt lat="49.24138633534312" lon="9.398953411728144">
<ele>167.8</ele>
<time>2024-05-08T09:45:18Z</time>
</trkpt>
<trkpt lat="49.24135205335915" lon="9.398851320147514">
<ele>167.8</ele>
<time>2024-05-08T09:45:19Z</time>
</trkpt>
<trkpt lat="49.24133294261992" lon="9.398797927424312">
<ele>167.8</ele>
<time>2024-05-08T09:45:20Z</time>
</trkpt>
<trkpt lat="49.24131391569972" lon="9.39874361269176">
<ele>167.6</ele>
<time>2024-05-08T09:45:21Z</time>
</trkpt>
<trkpt lat="49.24129480496049" lon="9.398686364293098">
<ele>167.6</ele>
<time>2024-05-08T09:45:22Z</time>
</trkpt>
<trkpt lat="49.24127577804029" lon="9.398632049560549">
<ele>167.6</ele>
<time>2024-05-08T09:45:23Z</time>
</trkpt>
<trkpt lat="49.24125666730106" lon="9.398576728999616">
<ele>167.6</ele>
<time>2024-05-08T09:45:24Z</time>
</trkpt>
<trkpt lat="49.2412337847054" lon="9.398521408438684">
<ele>167.4</ele>
<time>2024-05-08T09:45:25Z</time>
</trkpt>
<trkpt lat="49.24121852964163" lon="9.3984670098871">
<ele>167.4</ele>
<time>2024-05-08T09:45:26Z</time>
</trkpt>
<trkpt lat="49.24119564704597" lon="9.398409761488438">
<ele>167.2</ele>
<time>2024-05-08T09:45:27Z</time>
</trkpt>
<trkpt lat="49.24117653630674" lon="9.398353518918157">
<ele>167.2</ele>
<time>2024-05-08T09:45:29Z</time>
</trkpt>
<trkpt lat="49.24113839864731" lon="9.398242877796292">
<ele>167.2</ele>
<time>2024-05-08T09:45:30Z</time>
</trkpt>
<trkpt lat="49.24111937172711" lon="9.39818856306374">
<ele>167</ele>
<time>2024-05-08T09:45:31Z</time>
</trkpt>
<trkpt lat="49.24110026098788" lon="9.39813131466508">
<ele>167</ele>
<time>2024-05-08T09:45:32Z</time>
</trkpt>
<trkpt lat="49.24108123406768" lon="9.398075072094798">
<ele>166.8</ele>
<time>2024-05-08T09:45:34Z</time>
</trkpt>
<trkpt lat="49.24106212332845" lon="9.398019751533866">
<ele>166.8</ele>
<time>2024-05-08T09:45:35Z</time>
</trkpt>
<trkpt lat="49.24102398566902" lon="9.397910116240382">
<ele>166.6</ele>
<time>2024-05-08T09:45:36Z</time>
</trkpt>
<trkpt lat="49.241008730605245" lon="9.39785479567945">
<ele>166.6</ele>
<time>2024-05-08T09:45:38Z</time>
</trkpt>
<trkpt lat="49.24100110307336" lon="9.397741304710507">
<ele>166.4</ele>
<time>2024-05-08T09:45:39Z</time>
</trkpt>
<trkpt lat="49.24101250246167" lon="9.397691683843732">
<ele>166.4</ele>
<time>2024-05-08T09:45:40Z</time>
</trkpt>
<trkpt lat="49.2410316132009" lon="9.397649690508842">
<ele>166.4</ele>
<time>2024-05-08T09:45:41Z</time>
</trkpt>
<trkpt lat="49.241046868264675" lon="9.39761540852487">
<ele>166.2</ele>
<time>2024-05-08T09:45:43Z</time>
</trkpt>
<trkpt lat="49.241065979003906" lon="9.397582048550248">
<ele>166.2</ele>
<time>2024-05-08T09:45:44Z</time>
</trkpt>
<trkpt lat="49.24108123406768" lon="9.397548604756594">
<ele>166.2</ele>
<time>2024-05-08T09:45:45Z</time>
</trkpt>
<trkpt lat="49.24109263345599" lon="9.397516250610352">
<ele>166.2</ele>
<time>2024-05-08T09:45:46Z</time>
</trkpt>
<trkpt lat="49.241126999258995" lon="9.397453302517532">
<ele>166.2</ele>
<time>2024-05-08T09:45:48Z</time>
</trkpt>
<trkpt lat="49.24116128124297" lon="9.397381721064448">
<ele>166.2</ele>
<time>2024-05-08T09:45:49Z</time>
</trkpt>
<trkpt lat="49.24117653630674" lon="9.397343583405018">
<ele>166.2</ele>
<time>2024-05-08T09:45:50Z</time>
</trkpt>
<trkpt lat="49.24119179137051" lon="9.397306367754936">
<ele>166.2</ele>
<time>2024-05-08T09:45:52Z</time>
</trkpt>
<trkpt lat="49.241222301498055" lon="9.39722347073257">
<ele>166.2</ele>
<time>2024-05-08T09:45:53Z</time>
</trkpt>
<trkpt lat="49.24124141223729" lon="9.39718147739768">
<ele>166.2</ele>
<time>2024-05-08T09:45:54Z</time>
</trkpt>
<trkpt lat="49.24125666730106" lon="9.39714333973825">
<ele>166.2</ele>
<time>2024-05-08T09:45:55Z</time>
</trkpt>
<trkpt lat="49.24127954989672" lon="9.39710134640336">
<ele>166.2</ele>
<time>2024-05-08T09:45:57Z</time>
</trkpt>
<trkpt lat="49.24129480496049" lon="9.397060358896852">
<ele>166.2</ele>
<time>2024-05-08T09:45:58Z</time>
</trkpt>
<trkpt lat="49.24132917076349" lon="9.396980227902532">
<ele>166.4</ele>
<time>2024-05-08T09:45:59Z</time>
</trkpt>
<trkpt lat="49.24134819768369" lon="9.396940162405372">
<ele>166.4</ele>
<time>2024-05-08T09:46:00Z</time>
</trkpt>
<trkpt lat="49.24136730842292" lon="9.396896325051785">
<ele>166.4</ele>
<time>2024-05-08T09:46:01Z</time>
</trkpt>
<trkpt lat="49.24138633534312" lon="9.396849554032087">
<ele>166.4</ele>
<time>2024-05-08T09:46:03Z</time>
</trkpt>
<trkpt lat="49.24142832867801" lon="9.396755173802376">
<ele>166.4</ele>
<time>2024-05-08T09:46:05Z</time>
</trkpt>
<trkpt lat="49.2414703220129" lon="9.396655010059476">
<ele>166.2</ele>
<time>2024-05-08T09:46:06Z</time>
</trkpt>
<trkpt lat="49.24149320460856" lon="9.396603545174004">
<ele>166.2</ele>
<time>2024-05-08T09:46:07Z</time>
</trkpt>
<trkpt lat="49.241519859060645" lon="9.39655208028853">
<ele>166.2</ele>
<time>2024-05-08T09:46:08Z</time>
</trkpt>
<trkpt lat="49.24153896979987" lon="9.396499609574676">
<ele>166.2</ele>
<time>2024-05-08T09:46:09Z</time>
</trkpt>
<trkpt lat="49.24156562425196" lon="9.396446216851473">
<ele>166.2</ele>
<time>2024-05-08T09:46:10Z</time>
</trkpt>
<trkpt lat="49.24158473499119" lon="9.39639181829989">
<ele>166.4</ele>
<time>2024-05-08T09:46:11Z</time>
</trkpt>
<trkpt lat="49.24161147326231" lon="9.396336497738956">
<ele>166.4</ele>
<time>2024-05-08T09:46:12Z</time>
</trkpt>
<trkpt lat="49.24163435585797" lon="9.396283105015756">
<ele>166.4</ele>
<time>2024-05-08T09:46:13Z</time>
</trkpt>
<trkpt lat="49.241661010310054" lon="9.39623164013028">
<ele>166.6</ele>
<time>2024-05-08T09:46:14Z</time>
</trkpt>
<trkpt lat="49.24168389290571" lon="9.396182019263506">
<ele>166.6</ele>
<time>2024-05-08T09:46:15Z</time>
</trkpt>
<trkpt lat="49.24170677550137" lon="9.396131476387382">
<ele>166.6</ele>
<time>2024-05-08T09:46:16Z</time>
</trkpt>
<trkpt lat="49.24172965809703" lon="9.396080011501908">
<ele>166.8</ele>
<time>2024-05-08T09:46:17Z</time>
</trkpt>
<trkpt lat="49.24175262451172" lon="9.396028462797403">
<ele>166.8</ele>
<time>2024-05-08T09:46:18Z</time>
</trkpt>
<trkpt lat="49.24177165143192" lon="9.39597699791193">
<ele>166.8</ele>
<time>2024-05-08T09:46:20Z</time>
</trkpt>
<trkpt lat="49.24181364476681" lon="9.395870128646491">
<ele>166.8</ele>
<time>2024-05-08T09:46:21Z</time>
</trkpt>
<trkpt lat="49.24183267168701" lon="9.395819585770369">
<ele>166.8</ele>
<time>2024-05-08T09:46:22Z</time>
</trkpt>
<trkpt lat="49.24185178242624" lon="9.395771976560354">
<ele>166.8</ele>
<time>2024-05-08T09:46:23Z</time>
</trkpt>
<trkpt lat="49.24187080934644" lon="9.395723277702928">
<ele>167</ele>
<time>2024-05-08T09:46:24Z</time>
</trkpt>
<trkpt lat="49.24188992008567" lon="9.395673740655184">
<ele>167</ele>
<time>2024-05-08T09:46:25Z</time>
</trkpt>
<trkpt lat="49.24190894700587" lon="9.39562026411295">
<ele>167</ele>
<time>2024-05-08T09:46:26Z</time>
</trkpt>
<trkpt lat="49.2419280577451" lon="9.395565027371047">
<ele>167.2</ele>
<time>2024-05-08T09:46:27Z</time>
</trkpt>
<trkpt lat="49.24195094034076" lon="9.395506856963038">
<ele>167.2</ele>
<time>2024-05-08T09:46:29Z</time>
</trkpt>
<trkpt lat="49.24199293367565" lon="9.39538188278675">
<ele>167.4</ele>
<time>2024-05-08T09:46:30Z</time>
</trkpt>
<trkpt lat="49.242011960595846" lon="9.395318012684584">
<ele>167.4</ele>
<time>2024-05-08T09:46:31Z</time>
</trkpt>
<trkpt lat="49.242034843191504" lon="9.395255064591764">
<ele>167.4</ele>
<time>2024-05-08T09:46:33Z</time>
</trkpt>
<trkpt lat="49.24208446405828" lon="9.39512824639678">
<ele>167.4</ele>
<time>2024-05-08T09:46:35Z</time>
</trkpt>
<trkpt lat="49.2421302292496" lon="9.395003272220492">
<ele>167.2</ele>
<time>2024-05-08T09:46:36Z</time>
</trkpt>
<trkpt lat="49.242153111845255" lon="9.394941329956056">
<ele>167.2</ele>
<time>2024-05-08T09:46:37Z</time>
</trkpt>
<trkpt lat="49.24217599444091" lon="9.394881231710317">
<ele>167.2</ele>
<time>2024-05-08T09:46:38Z</time>
</trkpt>
<trkpt lat="49.242195105180144" lon="9.394822055473924">
<ele>167.2</ele>
<time>2024-05-08T09:46:39Z</time>
</trkpt>
<trkpt lat="49.2422179877758" lon="9.394762963056564">
<ele>167.2</ele>
<time>2024-05-08T09:46:40Z</time>
</trkpt>
<trkpt lat="49.24224087037146" lon="9.394704792648554">
<ele>167.2</ele>
<time>2024-05-08T09:46:41Z</time>
</trkpt>
<trkpt lat="49.24225989729166" lon="9.394646622240543">
<ele>167.2</ele>
<time>2024-05-08T09:46:42Z</time>
</trkpt>
<trkpt lat="49.24228663556278" lon="9.394588451832533">
<ele>167.2</ele>
<time>2024-05-08T09:46:43Z</time>
</trkpt>
<trkpt lat="49.24230951815843" lon="9.394530281424522">
<ele>167</ele>
<time>2024-05-08T09:46:45Z</time>
</trkpt>
<trkpt lat="49.24236291088164" lon="9.39441679045558">
<ele>167</ele>
<time>2024-05-08T09:46:46Z</time>
</trkpt>
<trkpt lat="49.2423857934773" lon="9.39435862004757">
<ele>167</ele>
<time>2024-05-08T09:46:47Z</time>
</trkpt>
<trkpt lat="49.242408676072955" lon="9.39430044963956">
<ele>167</ele>
<time>2024-05-08T09:46:48Z</time>
</trkpt>
<trkpt lat="49.24243155866861" lon="9.39424035139382">
<ele>166.8</ele>
<time>2024-05-08T09:46:49Z</time>
</trkpt>
<trkpt lat="49.24245829693973" lon="9.39418025314808">
<ele>166.8</ele>
<time>2024-05-08T09:46:50Z</time>
</trkpt>
<trkpt lat="49.24248503521085" lon="9.394122082740068">
<ele>166.8</ele>
<time>2024-05-08T09:46:51Z</time>
</trkpt>
<trkpt lat="49.242507917806506" lon="9.394064834341409">
<ele>166.8</ele>
<time>2024-05-08T09:46:52Z</time>
</trkpt>
<trkpt lat="49.24253080040216" lon="9.394006663933396">
<ele>166.8</ele>
<time>2024-05-08T09:46:53Z</time>
</trkpt>
<trkpt lat="49.24255745485425" lon="9.393948493525386">
<ele>166.8</ele>
<time>2024-05-08T09:46:54Z</time>
</trkpt>
<trkpt lat="49.24258033744991" lon="9.393890323117375">
<ele>166.8</ele>
<time>2024-05-08T09:46:55Z</time>
</trkpt>
<trkpt lat="49.242607075721025" lon="9.393831230700016">
<ele>166.8</ele>
<time>2024-05-08T09:46:56Z</time>
</trkpt>
<trkpt lat="49.24263381399214" lon="9.393774904310703">
<ele>166.8</ele>
<time>2024-05-08T09:46:57Z</time>
</trkpt>
<trkpt lat="49.24266046844423" lon="9.393718661740422">
<ele>167</ele>
<time>2024-05-08T09:46:58Z</time>
</trkpt>
<trkpt lat="49.242687206715345" lon="9.39366334117949">
<ele>167</ele>
<time>2024-05-08T09:46:59Z</time>
</trkpt>
<trkpt lat="49.24271008931101" lon="9.39360517077148">
<ele>167</ele>
<time>2024-05-08T09:47:00Z</time>
</trkpt>
<trkpt lat="49.24273674376309" lon="9.39354800619185">
<ele>167</ele>
<time>2024-05-08T09:47:01Z</time>
</trkpt>
<trkpt lat="49.242763482034206" lon="9.393491679802535">
<ele>167</ele>
<time>2024-05-08T09:47:02Z</time>
</trkpt>
<trkpt lat="49.24279022030533" lon="9.393434515222909">
<ele>167</ele>
<time>2024-05-08T09:47:03Z</time>
</trkpt>
<trkpt lat="49.24281687475741" lon="9.393378188833594">
<ele>167</ele>
<time>2024-05-08T09:47:04Z</time>
</trkpt>
<trkpt lat="49.24284738488495" lon="9.393322868272662">
<ele>167</ele>
<time>2024-05-08T09:47:05Z</time>
</trkpt>
<trkpt lat="49.2428778950125" lon="9.39326662570238">
<ele>167.2</ele>
<time>2024-05-08T09:47:06Z</time>
</trkpt>
<trkpt lat="49.24290840514004" lon="9.393211305141447">
<ele>167.2</ele>
<time>2024-05-08T09:47:07Z</time>
</trkpt>
<trkpt lat="49.24293514341116" lon="9.393155062571168">
<ele>167.2</ele>
<time>2024-05-08T09:47:09Z</time>
</trkpt>
<trkpt lat="49.24300001934171" lon="9.393046349287031">
<ele>167.2</ele>
<time>2024-05-08T09:47:10Z</time>
</trkpt>
<trkpt lat="49.24303052946925" lon="9.39299295656383">
<ele>167.2</ele>
<time>2024-05-08T09:47:11Z</time>
</trkpt>
<trkpt lat="49.24306481145322" lon="9.392939563840628">
<ele>167.2</ele>
<time>2024-05-08T09:47:12Z</time>
</trkpt>
<trkpt lat="49.24309532158077" lon="9.392887093126774">
<ele>167.2</ele>
<time>2024-05-08T09:47:13Z</time>
</trkpt>
<trkpt lat="49.243125915527344" lon="9.392833700403571">
<ele>167.2</ele>
<time>2024-05-08T09:47:14Z</time>
</trkpt>
<trkpt lat="49.24315642565489" lon="9.392780223861337">
<ele>167</ele>
<time>2024-05-08T09:47:15Z</time>
</trkpt>
<trkpt lat="49.24319070763886" lon="9.392728758975863">
<ele>167</ele>
<time>2024-05-08T09:47:16Z</time>
</trkpt>
<trkpt lat="49.2432212177664" lon="9.39267628826201">
<ele>167</ele>
<time>2024-05-08T09:47:17Z</time>
</trkpt>
<trkpt lat="49.24325558356941" lon="9.392626751214266">
<ele>166.8</ele>
<time>2024-05-08T09:47:18Z</time>
</trkpt>
<trkpt lat="49.24328986555338" lon="9.39257620833814">
<ele>166.8</ele>
<time>2024-05-08T09:47:19Z</time>
</trkpt>
<trkpt lat="49.24332423135638" lon="9.392526587471366">
<ele>167</ele>
<time>2024-05-08T09:47:20Z</time>
</trkpt>
<trkpt lat="49.243358597159386" lon="9.392477972432973">
<ele>167</ele>
<time>2024-05-08T09:47:21Z</time>
</trkpt>
<trkpt lat="49.24339287914336" lon="9.392430279403923">
<ele>167</ele>
<time>2024-05-08T09:47:22Z</time>
</trkpt>
<trkpt lat="49.24342724494636" lon="9.3923797365278">
<ele>167.2</ele>
<time>2024-05-08T09:47:23Z</time>
</trkpt>
<trkpt lat="49.24346152693033" lon="9.392332043498756">
<ele>167.2</ele>
<time>2024-05-08T09:47:24Z</time>
</trkpt>
<trkpt lat="49.243499748408794" lon="9.39228342846036">
<ele>167.2</ele>
<time>2024-05-08T09:47:25Z</time>
</trkpt>
<trkpt lat="49.243534030392766" lon="9.392234729602931">
<ele>167</ele>
<time>2024-05-08T09:47:26Z</time>
</trkpt>
<trkpt lat="49.24356839619577" lon="9.392187036573889">
<ele>167</ele>
<time>2024-05-08T09:47:27Z</time>
</trkpt>
<trkpt lat="49.24360267817974" lon="9.39214034937322">
<ele>167</ele>
<time>2024-05-08T09:47:28Z</time>
</trkpt>
<trkpt lat="49.243637043982744" lon="9.392093578353524">
<ele>167</ele>
<time>2024-05-08T09:47:29Z</time>
</trkpt>
<trkpt lat="49.24367140978575" lon="9.39204689115286">
<ele>166.8</ele>
<time>2024-05-08T09:47:30Z</time>
</trkpt>
<trkpt lat="49.24370569176972" lon="9.391996348276734">
<ele>166.8</ele>
<time>2024-05-08T09:47:31Z</time>
</trkpt>
<trkpt lat="49.24374005757272" lon="9.391949577257035">
<ele>166.8</ele>
<time>2024-05-08T09:47:32Z</time>
</trkpt>
<trkpt lat="49.243774339556694" lon="9.391901968047025">
<ele>166.8</ele>
<time>2024-05-08T09:47:33Z</time>
</trkpt>
<trkpt lat="49.2438087053597" lon="9.391853269189596">
<ele>166.8</ele>
<time>2024-05-08T09:47:34Z</time>
</trkpt>
<trkpt lat="49.24384684301913" lon="9.39180658198893">
<ele>166.8</ele>
<time>2024-05-08T09:47:35Z</time>
</trkpt>
<trkpt lat="49.24388120882213" lon="9.391761738806965">
<ele>166.8</ele>
<time>2024-05-08T09:47:36Z</time>
</trkpt>
<trkpt lat="49.2439154908061" lon="9.391716895624995">
<ele>166.8</ele>
<time>2024-05-08T09:47:37Z</time>
</trkpt>
<trkpt lat="49.243949856609106" lon="9.39167020842433">
<ele>166.6</ele>
<time>2024-05-08T09:47:38Z</time>
</trkpt>
<trkpt lat="49.24398422241211" lon="9.391625365242362">
<ele>166.8</ele>
<time>2024-05-08T09:47:39Z</time>
</trkpt>
<trkpt lat="49.24401850439608" lon="9.391579600051044">
<ele>166.8</ele>
<time>2024-05-08T09:47:40Z</time>
</trkpt>
<trkpt lat="49.24405664205551" lon="9.391534756869078">
<ele>167</ele>
<time>2024-05-08T09:47:41Z</time>
</trkpt>
<trkpt lat="49.244087152183056" lon="9.391488069668412">
<ele>167</ele>
<time>2024-05-08T09:47:42Z</time>
</trkpt>
<trkpt lat="49.24412151798606" lon="9.391443226486444">
<ele>167.2</ele>
<time>2024-05-08T09:47:44Z</time>
</trkpt>
<trkpt lat="49.244190165773034" lon="9.391347840428352">
<ele>167.4</ele>
<time>2024-05-08T09:47:45Z</time>
</trkpt>
<trkpt lat="49.24421690404415" lon="9.391298219561577">
<ele>167.6</ele>
<time>2024-05-08T09:47:46Z</time>
</trkpt>
<trkpt lat="49.24425118602812" lon="9.391248682513831">
<ele>167.6</ele>
<time>2024-05-08T09:47:47Z</time>
</trkpt>
<trkpt lat="49.24427792429924" lon="9.39119621179998">
<ele>167.6</ele>
<time>2024-05-08T09:47:49Z</time>
</trkpt>
<trkpt lat="49.2443351726979" lon="9.39109319821">
<ele>167.6</ele>
<time>2024-05-08T09:47:50Z</time>
</trkpt>
<trkpt lat="49.24436182714999" lon="9.391043661162255">
<ele>167.6</ele>
<time>2024-05-08T09:47:51Z</time>
</trkpt>
<trkpt lat="49.24439233727753" lon="9.390991190448403">
<ele>167.6</ele>
<time>2024-05-08T09:47:52Z</time>
</trkpt>
<trkpt lat="49.24442284740507" lon="9.390939641743898">
<ele>167.6</ele>
<time>2024-05-08T09:47:53Z</time>
</trkpt>
<trkpt lat="49.24445335753262" lon="9.390888176858423">
<ele>167.6</ele>
<time>2024-05-08T09:47:54Z</time>
</trkpt>
<trkpt lat="49.24448009580374" lon="9.390836711972952">
<ele>167.8</ele>
<time>2024-05-08T09:47:55Z</time>
</trkpt>
<trkpt lat="49.244506834074855" lon="9.390787091106176">
<ele>167.8</ele>
<time>2024-05-08T09:47:56Z</time>
</trkpt>
<trkpt lat="49.24453348852694" lon="9.390734620392324">
<ele>167.8</ele>
<time>2024-05-08T09:47:57Z</time>
</trkpt>
<trkpt lat="49.24456022679806" lon="9.390680305659773">
<ele>167.8</ele>
<time>2024-05-08T09:47:58Z</time>
</trkpt>
<trkpt lat="49.24458310939371" lon="9.39062112942338">
<ele>167.8</ele>
<time>2024-05-08T09:47:59Z</time>
</trkpt>
<trkpt lat="49.244605991989374" lon="9.390566814690828">
<ele>167.8</ele>
<time>2024-05-08T09:48:00Z</time>
</trkpt>
<trkpt lat="49.24462887458503" lon="9.390509566292168">
<ele>167.8</ele>
<time>2024-05-08T09:48:01Z</time>
</trkpt>
<trkpt lat="49.24464790150523" lon="9.390449468046429">
<ele>167.8</ele>
<time>2024-05-08T09:48:02Z</time>
</trkpt>
<trkpt lat="49.24467086791992" lon="9.390391297638416">
<ele>168</ele>
<time>2024-05-08T09:48:03Z</time>
</trkpt>
<trkpt lat="49.24468989484012" lon="9.390333127230406">
<ele>168</ele>
<time>2024-05-08T09:48:04Z</time>
</trkpt>
<trkpt lat="49.24470514990389" lon="9.390274956822395">
<ele>168</ele>
<time>2024-05-08T09:48:05Z</time>
</trkpt>
<trkpt lat="49.244720404967666" lon="9.390214858576655">
<ele>168.2</ele>
<time>2024-05-08T09:48:06Z</time>
</trkpt>
<trkpt lat="49.24472803249955" lon="9.390152916312218">
<ele>168.2</ele>
<time>2024-05-08T09:48:07Z</time>
</trkpt>
<trkpt lat="49.24473188817501" lon="9.390085190534592">
<ele>168.4</ele>
<time>2024-05-08T09:48:09Z</time>
</trkpt>
<trkpt lat="49.24473188817501" lon="9.390016542747617">
<ele>168.4</ele>
<time>2024-05-08T09:48:10Z</time>
</trkpt>
<trkpt lat="49.24473188817501" lon="9.389880169183016">
<ele>168.6</ele>
<time>2024-05-08T09:48:12Z</time>
</trkpt>
<trkpt lat="49.24473188817501" lon="9.389741867780684">
<ele>168.8</ele>
<time>2024-05-08T09:48:13Z</time>
</trkpt>
<trkpt lat="49.24473188817501" lon="9.389668442308905">
<ele>168.8</ele>
<time>2024-05-08T09:48:14Z</time>
</trkpt>
<trkpt lat="49.24473188817501" lon="9.38959501683712">
<ele>169</ele>
<time>2024-05-08T09:48:16Z</time>
</trkpt>
<trkpt lat="49.24473566003144" lon="9.389448165893556">
<ele>169.2</ele>
<time>2024-05-08T09:48:17Z</time>
</trkpt>
<trkpt lat="49.24473566003144" lon="9.38937465660274">
<ele>169.4</ele>
<time>2024-05-08T09:48:18Z</time>
</trkpt>
<trkpt lat="49.2447395157069" lon="9.389300309121609">
<ele>169.6</ele>
<time>2024-05-08T09:48:19Z</time>
</trkpt>
<trkpt lat="49.24474328756333" lon="9.389226883649826">
<ele>169.6</ele>
<time>2024-05-08T09:48:21Z</time>
</trkpt>
<trkpt lat="49.24474328756333" lon="9.389153458178043">
<ele>169.6</ele>
<time>2024-05-08T09:48:22Z</time>
</trkpt>
<trkpt lat="49.24474328756333" lon="9.389006607234478">
<ele>169.8</ele>
<time>2024-05-08T09:48:23Z</time>
</trkpt>
<trkpt lat="49.24474328756333" lon="9.388933181762695">
<ele>169.8</ele>
<time>2024-05-08T09:48:24Z</time>
</trkpt>
<trkpt lat="49.24474328756333" lon="9.388858750462532">
<ele>170</ele>
<time>2024-05-08T09:48:25Z</time>
</trkpt>
<trkpt lat="49.24474714323878" lon="9.38878532499075">
<ele>170</ele>
<time>2024-05-08T09:48:26Z</time>
</trkpt>
<trkpt lat="49.24474714323878" lon="9.388711899518968">
<ele>170</ele>
<time>2024-05-08T09:48:27Z</time>
</trkpt>
<trkpt lat="49.24474714323878" lon="9.388640401884912">
<ele>170</ele>
<time>2024-05-08T09:48:28Z</time>
</trkpt>
<trkpt lat="49.24475091509521" lon="9.3885668925941">
<ele>170</ele>
<time>2024-05-08T09:48:29Z</time>
</trkpt>
<trkpt lat="49.24474714323878" lon="9.38849162310362">
<ele>170</ele>
<time>2024-05-08T09:48:30Z</time>
</trkpt>
<trkpt lat="49.24475091509521" lon="9.388418197631836">
<ele>170</ele>
<time>2024-05-08T09:48:31Z</time>
</trkpt>
<trkpt lat="49.24475091509521" lon="9.388343766331673">
<ele>170</ele>
<time>2024-05-08T09:48:32Z</time>
</trkpt>
<trkpt lat="49.24475091509521" lon="9.38827126286924">
<ele>170</ele>
<time>2024-05-08T09:48:33Z</time>
</trkpt>
<trkpt lat="49.24475477077067" lon="9.388199765235186">
<ele>170</ele>
<time>2024-05-08T09:48:34Z</time>
</trkpt>
<trkpt lat="49.24475477077067" lon="9.388128267601132">
<ele>170</ele>
<time>2024-05-08T09:48:35Z</time>
</trkpt>
<trkpt lat="49.24475477077067" lon="9.388056686148047">
<ele>170</ele>
<time>2024-05-08T09:48:36Z</time>
</trkpt>
<trkpt lat="49.24475477077067" lon="9.387985188513994">
<ele>170</ele>
<time>2024-05-08T09:48:37Z</time>
</trkpt>
<trkpt lat="49.244758542627096" lon="9.387911763042212">
<ele>170</ele>
<time>2024-05-08T09:48:39Z</time>
</trkpt>
<trkpt lat="49.244762398302555" lon="9.387762062251568">
<ele>170</ele>
<time>2024-05-08T09:48:40Z</time>
</trkpt>
<trkpt lat="49.244762398302555" lon="9.387686708942056">
<ele>170</ele>
<time>2024-05-08T09:48:41Z</time>
</trkpt>
<trkpt lat="49.244762398302555" lon="9.387611355632544">
<ele>169.8</ele>
<time>2024-05-08T09:48:42Z</time>
</trkpt>
<trkpt lat="49.244762398302555" lon="9.38753692433238">
<ele>169.8</ele>
<time>2024-05-08T09:48:43Z</time>
</trkpt>
<trkpt lat="49.24476617015898" lon="9.38745972700417">
<ele>169.8</ele>
<time>2024-05-08T09:48:44Z</time>
</trkpt>
<trkpt lat="49.24476617015898" lon="9.387385295704007">
<ele>169.8</ele>
<time>2024-05-08T09:48:45Z</time>
</trkpt>
<trkpt lat="49.24476617015898" lon="9.387310026213529">
<ele>169.8</ele>
<time>2024-05-08T09:48:46Z</time>
</trkpt>
<trkpt lat="49.24477002583444" lon="9.387234672904016">
<ele>169.8</ele>
<time>2024-05-08T09:48:47Z</time>
</trkpt>
<trkpt lat="49.24477002583444" lon="9.387158313766122">
<ele>169.8</ele>
<time>2024-05-08T09:48:48Z</time>
</trkpt>
<trkpt lat="49.24476617015898" lon="9.38708304427564">
<ele>169.8</ele>
<time>2024-05-08T09:48:49Z</time>
</trkpt>
<trkpt lat="49.244762398302555" lon="9.387006685137749">
<ele>169.8</ele>
<time>2024-05-08T09:48:51Z</time>
</trkpt>
<trkpt lat="49.24475477077067" lon="9.386861762031913">
<ele>169.8</ele>
<time>2024-05-08T09:48:52Z</time>
</trkpt>
<trkpt lat="49.24475091509521" lon="9.386784480884671">
<ele>169.8</ele>
<time>2024-05-08T09:48:54Z</time>
</trkpt>
<trkpt lat="49.24474328756333" lon="9.386646263301373">
<ele>169.8</ele>
<time>2024-05-08T09:48:56Z</time>
</trkpt>
<trkpt lat="49.2447395157069" lon="9.386500334367156">
<ele>169.8</ele>
<time>2024-05-08T09:48:57Z</time>
</trkpt>
<trkpt lat="49.2447395157069" lon="9.386421125382183">
<ele>169.8</ele>
<time>2024-05-08T09:48:58Z</time>
</trkpt>
<trkpt lat="49.2447395157069" lon="9.386344850063324">
<ele>169.8</ele>
<time>2024-05-08T09:48:59Z</time>
</trkpt>
<trkpt lat="49.24474328756333" lon="9.386264719069004">
<ele>169.8</ele>
<time>2024-05-08T09:49:00Z</time>
</trkpt>
<trkpt lat="49.2447395157069" lon="9.386181822046638">
<ele>169.6</ele>
<time>2024-05-08T09:49:02Z</time>
</trkpt>
<trkpt lat="49.24473566003144" lon="9.38601678237319">
<ele>169.4</ele>
<time>2024-05-08T09:49:03Z</time>
</trkpt>
<trkpt lat="49.24473566003144" lon="9.385932879522445">
<ele>169.4</ele>
<time>2024-05-08T09:49:04Z</time>
</trkpt>
<trkpt lat="49.24473566003144" lon="9.385851826518774">
<ele>169.2</ele>
<time>2024-05-08T09:49:05Z</time>
</trkpt>
<trkpt lat="49.24473188817501" lon="9.385769767686725">
<ele>169.2</ele>
<time>2024-05-08T09:49:06Z</time>
</trkpt>
<trkpt lat="49.24473188817501" lon="9.385686870664358">
<ele>169.2</ele>
<time>2024-05-08T09:49:07Z</time>
</trkpt>
<trkpt lat="49.24473188817501" lon="9.385606739670038">
<ele>169</ele>
<time>2024-05-08T09:49:08Z</time>
</trkpt>
<trkpt lat="49.24473188817501" lon="9.385524680837989">
<ele>169</ele>
<time>2024-05-08T09:49:09Z</time>
</trkpt>
<trkpt lat="49.24472803249955" lon="9.385446477681398">
<ele>169</ele>
<time>2024-05-08T09:49:10Z</time>
</trkpt>
<trkpt lat="49.24472803249955" lon="9.38536643050611">
<ele>169</ele>
<time>2024-05-08T09:49:11Z</time>
</trkpt>
<trkpt lat="49.244724260643125" lon="9.38528629951179">
<ele>169</ele>
<time>2024-05-08T09:49:12Z</time>
</trkpt>
<trkpt lat="49.244724260643125" lon="9.38520524650812">
<ele>169</ele>
<time>2024-05-08T09:49:14Z</time>
</trkpt>
<trkpt lat="49.24471663311124" lon="9.385044984519482">
<ele>169</ele>
<time>2024-05-08T09:49:15Z</time>
</trkpt>
<trkpt lat="49.24471663311124" lon="9.384966781362891">
<ele>168.8</ele>
<time>2024-05-08T09:49:17Z</time>
</trkpt>
<trkpt lat="49.24470900557935" lon="9.384803753346205">
<ele>168.8</ele>
<time>2024-05-08T09:49:18Z</time>
</trkpt>
<trkpt lat="49.24470900557935" lon="9.384723622351885">
<ele>168.8</ele>
<time>2024-05-08T09:49:19Z</time>
</trkpt>
<trkpt lat="49.24470514990389" lon="9.384641647338867">
<ele>168.8</ele>
<time>2024-05-08T09:49:20Z</time>
</trkpt>
<trkpt lat="49.24470514990389" lon="9.384565288200974">
<ele>169</ele>
<time>2024-05-08T09:49:21Z</time>
</trkpt>
<trkpt lat="49.244701378047466" lon="9.384485241025686">
<ele>168.8</ele>
<time>2024-05-08T09:49:22Z</time>
</trkpt>
<trkpt lat="49.24469752237201" lon="9.384405110031366">
<ele>168.8</ele>
<time>2024-05-08T09:49:23Z</time>
</trkpt>
<trkpt lat="49.24469752237201" lon="9.384326906874776">
<ele>168.8</ele>
<time>2024-05-08T09:49:24Z</time>
</trkpt>
<trkpt lat="49.24469375051558" lon="9.384246775880456">
<ele>168.6</ele>
<time>2024-05-08T09:49:25Z</time>
</trkpt>
<trkpt lat="49.24468989484012" lon="9.384169578552246">
<ele>168.6</ele>
<time>2024-05-08T09:49:26Z</time>
</trkpt>
<trkpt lat="49.24468989484012" lon="9.384093219414352">
<ele>168.6</ele>
<time>2024-05-08T09:49:27Z</time>
</trkpt>
<trkpt lat="49.244686122983694" lon="9.38401979394257">
<ele>168.6</ele>
<time>2024-05-08T09:49:28Z</time>
</trkpt>
<trkpt lat="49.244686122983694" lon="9.38394544646144">
<ele>168.6</ele>
<time>2024-05-08T09:49:30Z</time>
</trkpt>
<trkpt lat="49.244682267308235" lon="9.383872020989656">
<ele>168.6</ele>
<time>2024-05-08T09:49:31Z</time>
</trkpt>
<trkpt lat="49.244682267308235" lon="9.38372508622706">
<ele>168.6</ele>
<time>2024-05-08T09:49:33Z</time>
</trkpt>
<trkpt lat="49.244682267308235" lon="9.383578235283494">
<ele>168.8</ele>
<time>2024-05-08T09:49:34Z</time>
</trkpt>
<trkpt lat="49.24467849545181" lon="9.383504809811711">
<ele>168.8</ele>
<time>2024-05-08T09:49:35Z</time>
</trkpt>
<trkpt lat="49.24467849545181" lon="9.383431384339929">
<ele>168.8</ele>
<time>2024-05-08T09:49:36Z</time>
</trkpt>
<trkpt lat="49.24467463977635" lon="9.383357036858795">
<ele>169</ele>
<time>2024-05-08T09:49:37Z</time>
</trkpt>
<trkpt lat="49.24467463977635" lon="9.383284533396363">
<ele>169</ele>
<time>2024-05-08T09:49:38Z</time>
</trkpt>
<trkpt lat="49.24466701224446" lon="9.38321202993393">
<ele>169</ele>
<time>2024-05-08T09:49:39Z</time>
</trkpt>
<trkpt lat="49.24466315656901" lon="9.383138604462149">
<ele>169</ele>
<time>2024-05-08T09:49:41Z</time>
</trkpt>
<trkpt lat="49.24466315656901" lon="9.38299175351858">
<ele>169.2</ele>
<time>2024-05-08T09:49:42Z</time>
</trkpt>
<trkpt lat="49.24466315656901" lon="9.38291640020907">
<ele>169</ele>
<time>2024-05-08T09:49:43Z</time>
</trkpt>
<trkpt lat="49.24465938471258" lon="9.382771477103232">
<ele>169</ele>
<time>2024-05-08T09:49:46Z</time>
</trkpt>
<trkpt lat="49.24465938471258" lon="9.38269704580307">
<ele>169</ele>
<time>2024-05-08T09:49:47Z</time>
</trkpt>
<trkpt lat="49.24466315656901" lon="9.382623620331287">
<ele>168.8</ele>
<time>2024-05-08T09:49:48Z</time>
</trkpt>
<trkpt lat="49.24466315656901" lon="9.38248154707253">
<ele>168.8</ele>
<time>2024-05-08T09:49:49Z</time>
</trkpt>
<trkpt lat="49.24465938471258" lon="9.382414743304253">
<ele>168.6</ele>
<time>2024-05-08T09:49:51Z</time>
</trkpt>
<trkpt lat="49.24465938471258" lon="9.382354728877544">
<ele>168.6</ele>
<time>2024-05-08T09:49:52Z</time>
</trkpt>
<trkpt lat="49.24465938471258" lon="9.382238388061523">
<ele>168.4</ele>
<time>2024-05-08T09:49:54Z</time>
</trkpt>
<trkpt lat="49.24465552903712" lon="9.382102936506271">
<ele>168.4</ele>
<time>2024-05-08T09:49:55Z</time>
</trkpt>
<trkpt lat="49.24465175718069" lon="9.382036132737994">
<ele>168.4</ele>
<time>2024-05-08T09:49:56Z</time>
</trkpt>
<trkpt lat="49.24465175718069" lon="9.381975112482904">
<ele>168.4</ele>
<time>2024-05-08T09:49:58Z</time>
</trkpt>
<trkpt lat="49.24464790150523" lon="9.381911242380738">
<ele>168.4</ele>
<time>2024-05-08T09:49:59Z</time>
</trkpt>
<trkpt lat="49.244621247053146" lon="9.381805378943682">
<ele>168.6</ele>
<time>2024-05-08T09:50:00Z</time>
</trkpt>
<trkpt lat="49.244605991989374" lon="9.381756763905289">
<ele>168.6</ele>
<time>2024-05-08T09:50:02Z</time>
</trkpt>
<trkpt lat="49.2445907369256" lon="9.381658528000116">
<ele>168.6</ele>
<time>2024-05-08T09:50:03Z</time>
</trkpt>
<trkpt lat="49.24458688125014" lon="9.381614606827496">
<ele>168.6</ele>
<time>2024-05-08T09:50:05Z</time>
</trkpt>
<trkpt lat="49.24458688125014" lon="9.381581246852877">
<ele>168.6</ele>
<time>2024-05-08T09:50:06Z</time>
</trkpt>
<trkpt lat="49.2445907369256" lon="9.381546964868903">
<ele>168.4</ele>
<time>2024-05-08T09:50:07Z</time>
</trkpt>
<trkpt lat="49.2445907369256" lon="9.381509749218822">
<ele>168.4</ele>
<time>2024-05-08T09:50:08Z</time>
</trkpt>
<trkpt lat="49.24459450878203" lon="9.3814763892442">
<ele>168.4</ele>
<time>2024-05-08T09:50:09Z</time>
</trkpt>
<trkpt lat="49.2445907369256" lon="9.381408663466573">
<ele>168.4</ele>
<time>2024-05-08T09:50:11Z</time>
</trkpt>
<trkpt lat="49.24458310939371" lon="9.38133331015706">
<ele>168.4</ele>
<time>2024-05-08T09:50:12Z</time>
</trkpt>
<trkpt lat="49.24458310939371" lon="9.38129710033536">
<ele>168.4</ele>
<time>2024-05-08T09:50:14Z</time>
</trkpt>
<trkpt lat="49.24458310939371" lon="9.381226524710655">
<ele>168.4</ele>
<time>2024-05-08T09:50:15Z</time>
</trkpt>
<trkpt lat="49.24458310939371" lon="9.381190231069922">
<ele>168.4</ele>
<time>2024-05-08T09:50:17Z</time>
</trkpt>
<trkpt lat="49.24457925371826" lon="9.3811568710953">
<ele>168.4</ele>
<time>2024-05-08T09:50:18Z</time>
</trkpt>
<trkpt lat="49.24457925371826" lon="9.381090151146054">
<ele>168.2</ele>
<time>2024-05-08T09:50:19Z</time>
</trkpt>
<trkpt lat="49.24457548186183" lon="9.381050085648894">
<ele>168</ele>
<time>2024-05-08T09:50:20Z</time>
</trkpt>
<trkpt lat="49.24457548186183" lon="9.381012869998813">
<ele>168</ele>
<time>2024-05-08T09:50:21Z</time>
</trkpt>
<trkpt lat="49.24457548186183" lon="9.380976660177112">
<ele>167.8</ele>
<time>2024-05-08T09:50:23Z</time>
</trkpt>
<trkpt lat="49.24457548186183" lon="9.380936594679952">
<ele>167.8</ele>
<time>2024-05-08T09:50:24Z</time>
</trkpt>
<trkpt lat="49.24457162618637" lon="9.380856463685632">
<ele>167.6</ele>
<time>2024-05-08T09:50:25Z</time>
</trkpt>
<trkpt lat="49.24457162618637" lon="9.380816398188472">
<ele>167.6</ele>
<time>2024-05-08T09:50:26Z</time>
</trkpt>
<trkpt lat="49.244563998654485" lon="9.380771555006504">
<ele>167.6</ele>
<time>2024-05-08T09:50:28Z</time>
</trkpt>
<trkpt lat="49.244563998654485" lon="9.38072486780584">
<ele>167.4</ele>
<time>2024-05-08T09:50:29Z</time>
</trkpt>
<trkpt lat="49.24456022679806" lon="9.380618082359431">
<ele>167.4</ele>
<time>2024-05-08T09:50:30Z</time>
</trkpt>
<trkpt lat="49.2445563711226" lon="9.380559911951424">
<ele>167.4</ele>
<time>2024-05-08T09:50:31Z</time>
</trkpt>
<trkpt lat="49.24455259926617" lon="9.380499813705685">
<ele>167.4</ele>
<time>2024-05-08T09:50:32Z</time>
</trkpt>
<trkpt lat="49.24454874359071" lon="9.380437787622212">
<ele>167.4</ele>
<time>2024-05-08T09:50:33Z</time>
</trkpt>
<trkpt lat="49.24454874359071" lon="9.380374839529397">
<ele>167.2</ele>
<time>2024-05-08T09:50:34Z</time>
</trkpt>
<trkpt lat="49.244544971734285" lon="9.38031004741788">
<ele>167.2</ele>
<time>2024-05-08T09:50:35Z</time>
</trkpt>
<trkpt lat="49.244544971734285" lon="9.380243243649602">
<ele>167</ele>
<time>2024-05-08T09:50:36Z</time>
</trkpt>
<trkpt lat="49.2445373442024" lon="9.380176523700356">
<ele>167</ele>
<time>2024-05-08T09:50:38Z</time>
</trkpt>
<trkpt lat="49.244525860995054" lon="9.380036294460297">
<ele>166.8</ele>
<time>2024-05-08T09:50:39Z</time>
</trkpt>
<trkpt lat="49.24451823346317" lon="9.379962868988514">
<ele>166.8</ele>
<time>2024-05-08T09:50:40Z</time>
</trkpt>
<trkpt lat="49.244506834074855" lon="9.37989036552608">
<ele>166.8</ele>
<time>2024-05-08T09:50:41Z</time>
</trkpt>
<trkpt lat="49.24449920654297" lon="9.379816940054296">
<ele>166.6</ele>
<time>2024-05-08T09:50:43Z</time>
</trkpt>
<trkpt lat="49.24449149519205" lon="9.379741586744784">
<ele>166.6</ele>
<time>2024-05-08T09:50:44Z</time>
</trkpt>
<trkpt lat="49.24447624012828" lon="9.379591885954142">
<ele>166.6</ele>
<time>2024-05-08T09:50:45Z</time>
</trkpt>
<trkpt lat="49.244464840739965" lon="9.379514688625932">
<ele>166.6</ele>
<time>2024-05-08T09:50:46Z</time>
</trkpt>
<trkpt lat="49.24445721320808" lon="9.37943832948804">
<ele>166.6</ele>
<time>2024-05-08T09:50:47Z</time>
</trkpt>
<trkpt lat="49.24445335753262" lon="9.379360126331449">
<ele>166.6</ele>
<time>2024-05-08T09:50:48Z</time>
</trkpt>
<trkpt lat="49.24444195814431" lon="9.37928292900324">
<ele>166.6</ele>
<time>2024-05-08T09:50:49Z</time>
</trkpt>
<trkpt lat="49.24443433061242" lon="9.379206653684378">
<ele>166.6</ele>
<time>2024-05-08T09:50:50Z</time>
</trkpt>
<trkpt lat="49.244426703080535" lon="9.379131300374866">
<ele>166.6</ele>
<time>2024-05-08T09:50:51Z</time>
</trkpt>
<trkpt lat="49.24441907554865" lon="9.379056869074702">
<ele>166.6</ele>
<time>2024-05-08T09:50:52Z</time>
</trkpt>
<trkpt lat="49.24441144801676" lon="9.37898151576519">
<ele>166.6</ele>
<time>2024-05-08T09:50:53Z</time>
</trkpt>
<trkpt lat="49.24440382048488" lon="9.37890624627471">
<ele>166.6</ele>
<time>2024-05-08T09:50:54Z</time>
</trkpt>
<trkpt lat="49.24439619295299" lon="9.378831814974546">
<ele>166.6</ele>
<time>2024-05-08T09:50:55Z</time>
</trkpt>
<trkpt lat="49.244388565421104" lon="9.378756461665034">
<ele>166.4</ele>
<time>2024-05-08T09:50:56Z</time>
</trkpt>
<trkpt lat="49.24438093788922" lon="9.378680186346172">
<ele>166.4</ele>
<time>2024-05-08T09:50:57Z</time>
</trkpt>
<trkpt lat="49.24437331035733" lon="9.378602905198932">
<ele>166.4</ele>
<time>2024-05-08T09:50:58Z</time>
</trkpt>
<trkpt lat="49.244365682825446" lon="9.37852470204234">
<ele>166.4</ele>
<time>2024-05-08T09:50:59Z</time>
</trkpt>
<trkpt lat="49.24436182714999" lon="9.37844842672348">
<ele>166.4</ele>
<time>2024-05-08T09:51:00Z</time>
</trkpt>
<trkpt lat="49.24435805529356" lon="9.37837022356689">
<ele>166.4</ele>
<time>2024-05-08T09:51:02Z</time>
</trkpt>
<trkpt lat="49.244346572086215" lon="9.378216667100787">
<ele>166.4</ele>
<time>2024-05-08T09:51:03Z</time>
</trkpt>
<trkpt lat="49.2443351726979" lon="9.378140391781926">
<ele>166.4</ele>
<time>2024-05-08T09:51:04Z</time>
</trkpt>
<trkpt lat="49.24433131702244" lon="9.378063194453716">
<ele>166.2</ele>
<time>2024-05-08T09:51:06Z</time>
</trkpt>
<trkpt lat="49.2443198338151" lon="9.377988763153551">
<ele>166.2</ele>
<time>2024-05-08T09:51:07Z</time>
</trkpt>
<trkpt lat="49.2443008068949" lon="9.377838056534529">
<ele>166</ele>
<time>2024-05-08T09:51:09Z</time>
</trkpt>
<trkpt lat="49.24428169615567" lon="9.377684583887458">
<ele>166</ele>
<time>2024-05-08T09:51:10Z</time>
</trkpt>
<trkpt lat="49.24427406862378" lon="9.377610152587296">
<ele>165.8</ele>
<time>2024-05-08T09:51:11Z</time>
</trkpt>
<trkpt lat="49.24426266923547" lon="9.377532955259085">
<ele>165.8</ele>
<time>2024-05-08T09:51:13Z</time>
</trkpt>
<trkpt lat="49.24424355849624" lon="9.37738317064941">
<ele>165.8</ele>
<time>2024-05-08T09:51:14Z</time>
</trkpt>
<trkpt lat="49.24423593096435" lon="9.377307817339895">
<ele>165.8</ele>
<time>2024-05-08T09:51:15Z</time>
</trkpt>
<trkpt lat="49.244228303432465" lon="9.377231542021036">
<ele>165.8</ele>
<time>2024-05-08T09:51:16Z</time>
</trkpt>
<trkpt lat="49.24421690404415" lon="9.377156188711524">
<ele>166</ele>
<time>2024-05-08T09:51:18Z</time>
</trkpt>
<trkpt lat="49.24420164898038" lon="9.377001710236073">
<ele>166</ele>
<time>2024-05-08T09:51:19Z</time>
</trkpt>
<trkpt lat="49.244190165773034" lon="9.376923507079482">
<ele>166</ele>
<time>2024-05-08T09:51:20Z</time>
</trkpt>
<trkpt lat="49.24417876638472" lon="9.376845303922892">
<ele>165.8</ele>
<time>2024-05-08T09:51:21Z</time>
</trkpt>
<trkpt lat="49.244167283177376" lon="9.376766178756952">
<ele>165.8</ele>
<time>2024-05-08T09:51:22Z</time>
</trkpt>
<trkpt lat="49.24415965564549" lon="9.376687975600362">
<ele>165.6</ele>
<time>2024-05-08T09:51:23Z</time>
</trkpt>
<trkpt lat="49.244148172438145" lon="9.376609772443771">
<ele>165.6</ele>
<time>2024-05-08T09:51:24Z</time>
</trkpt>
<trkpt lat="49.24413677304983" lon="9.37653156928718">
<ele>165.4</ele>
<time>2024-05-08T09:51:25Z</time>
</trkpt>
<trkpt lat="49.244129145517945" lon="9.37645336613059">
<ele>165.4</ele>
<time>2024-05-08T09:51:26Z</time>
</trkpt>
<trkpt lat="49.24412151798606" lon="9.37637709081173">
<ele>165.4</ele>
<time>2024-05-08T09:51:27Z</time>
</trkpt>
<trkpt lat="49.244110034778714" lon="9.37629695981741">
<ele>165.4</ele>
<time>2024-05-08T09:51:28Z</time>
</trkpt>
<trkpt lat="49.24410626292229" lon="9.37621875666082">
<ele>165.2</ele>
<time>2024-05-08T09:51:30Z</time>
</trkpt>
<trkpt lat="49.24408338032663" lon="9.376065200194716">
<ele>164.8</ele>
<time>2024-05-08T09:51:32Z</time>
</trkpt>
<trkpt lat="49.24406812526286" lon="9.375916421413422">
<ele>164.8</ele>
<time>2024-05-08T09:51:33Z</time>
</trkpt>
<trkpt lat="49.24405664205551" lon="9.37584207393229">
<ele>164.8</ele>
<time>2024-05-08T09:51:34Z</time>
</trkpt>
<trkpt lat="49.244049014523625" lon="9.375766720622778">
<ele>164.8</ele>
<time>2024-05-08T09:51:35Z</time>
</trkpt>
<trkpt lat="49.24403761513531" lon="9.375693295150995">
<ele>164.8</ele>
<time>2024-05-08T09:51:37Z</time>
</trkpt>
<trkpt lat="49.24401850439608" lon="9.375543594360352">
<ele>165</ele>
<time>2024-05-08T09:51:38Z</time>
</trkpt>
<trkpt lat="49.244010876864195" lon="9.37546824105084">
<ele>165</ele>
<time>2024-05-08T09:51:39Z</time>
</trkpt>
<trkpt lat="49.24400324933231" lon="9.375392887741327">
<ele>164.8</ele>
<time>2024-05-08T09:51:40Z</time>
</trkpt>
<trkpt lat="49.24399562180042" lon="9.375316612422466">
<ele>164.8</ele>
<time>2024-05-08T09:51:41Z</time>
</trkpt>
<trkpt lat="49.243991849943995" lon="9.375240253284574">
<ele>164.8</ele>
<time>2024-05-08T09:51:42Z</time>
</trkpt>
<trkpt lat="49.24398799426854" lon="9.37516682781279">
<ele>164.8</ele>
<time>2024-05-08T09:51:43Z</time>
</trkpt>
<trkpt lat="49.24398036673665" lon="9.375093402341008">
<ele>164.8</ele>
<time>2024-05-08T09:51:44Z</time>
</trkpt>
<trkpt lat="49.24397651106119" lon="9.375019976869226">
<ele>164.8</ele>
<time>2024-05-08T09:51:46Z</time>
</trkpt>
<trkpt lat="49.24396511167288" lon="9.374877903610468">
<ele>164.8</ele>
<time>2024-05-08T09:51:47Z</time>
</trkpt>
<trkpt lat="49.24395362846553" lon="9.374810177832842">
<ele>164.8</ele>
<time>2024-05-08T09:51:48Z</time>
</trkpt>
<trkpt lat="49.24394600093365" lon="9.374745301902294">
<ele>164.8</ele>
<time>2024-05-08T09:51:49Z</time>
</trkpt>
<trkpt lat="49.24393837340176" lon="9.374678581953049">
<ele>164.8</ele>
<time>2024-05-08T09:51:51Z</time>
</trkpt>
<trkpt lat="49.24391934648156" lon="9.374541202560067">
<ele>165</ele>
<time>2024-05-08T09:51:52Z</time>
</trkpt>
<trkpt lat="49.24390786327422" lon="9.37447540462017">
<ele>165</ele>
<time>2024-05-08T09:51:54Z</time>
</trkpt>
<trkpt lat="49.24390023574233" lon="9.374411534518003">
<ele>165</ele>
<time>2024-05-08T09:51:55Z</time>
</trkpt>
<trkpt lat="49.24390023574233" lon="9.374349592253566">
<ele>165</ele>
<time>2024-05-08T09:51:56Z</time>
</trkpt>
<trkpt lat="49.24390786327422" lon="9.374291338026524">
<ele>165.2</ele>
<time>2024-05-08T09:51:57Z</time>
</trkpt>
<trkpt lat="49.2439154908061" lon="9.374176925048232">
<ele>165.2</ele>
<time>2024-05-08T09:51:59Z</time>
</trkpt>
<trkpt lat="49.2439154908061" lon="9.374059662222862">
<ele>165.2</ele>
<time>2024-05-08T09:52:01Z</time>
</trkpt>
<trkpt lat="49.24391171894968" lon="9.373998641967772">
<ele>165.4</ele>
<time>2024-05-08T09:52:02Z</time>
</trkpt>
<trkpt lat="49.243892608210444" lon="9.373878445476294">
<ele>165.6</ele>
<time>2024-05-08T09:52:03Z</time>
</trkpt>
<trkpt lat="49.24388120882213" lon="9.373821197077632">
<ele>165.6</ele>
<time>2024-05-08T09:52:04Z</time>
</trkpt>
<trkpt lat="49.243869725614786" lon="9.373764954507353">
<ele>165.8</ele>
<time>2024-05-08T09:52:05Z</time>
</trkpt>
<trkpt lat="49.24385832622647" lon="9.373704856261613">
<ele>165.8</ele>
<time>2024-05-08T09:52:06Z</time>
</trkpt>
<trkpt lat="49.24385069869459" lon="9.373644758015873">
<ele>165.8</ele>
<time>2024-05-08T09:52:08Z</time>
</trkpt>
<trkpt lat="49.24383158795536" lon="9.373526573181152">
<ele>165.8</ele>
<time>2024-05-08T09:52:09Z</time>
</trkpt>
<trkpt lat="49.24382018856704" lon="9.373466474935412">
<ele>165.8</ele>
<time>2024-05-08T09:52:10Z</time>
</trkpt>
<trkpt lat="49.24380484968424" lon="9.373403526842594">
<ele>165.8</ele>
<time>2024-05-08T09:52:11Z</time>
</trkpt>
<trkpt lat="49.243793450295925" lon="9.373339572921395">
<ele>166</ele>
<time>2024-05-08T09:52:12Z</time>
</trkpt>
<trkpt lat="49.24377819523215" lon="9.37327285297215">
<ele>166</ele>
<time>2024-05-08T09:52:13Z</time>
</trkpt>
<trkpt lat="49.24376671202481" lon="9.373207055032251">
<ele>166</ele>
<time>2024-05-08T09:52:14Z</time>
</trkpt>
<trkpt lat="49.24375145696104" lon="9.373141257092357">
<ele>166.2</ele>
<time>2024-05-08T09:52:16Z</time>
</trkpt>
<trkpt lat="49.24372480250895" lon="9.373016282916067">
<ele>166.4</ele>
<time>2024-05-08T09:52:17Z</time>
</trkpt>
<trkpt lat="49.243713319301605" lon="9.372960040345788">
<ele>166.4</ele>
<time>2024-05-08T09:52:19Z</time>
</trkpt>
<trkpt lat="49.24369043670595" lon="9.372844621539116">
<ele>166.4</ele>
<time>2024-05-08T09:52:20Z</time>
</trkpt>
<trkpt lat="49.243679037317634" lon="9.372786451131104">
<ele>166.4</ele>
<time>2024-05-08T09:52:21Z</time>
</trkpt>
<trkpt lat="49.24366378225386" lon="9.372726436704395">
<ele>166.4</ele>
<time>2024-05-08T09:52:22Z</time>
</trkpt>
<trkpt lat="49.24364852719009" lon="9.37266348861158">
<ele>166.4</ele>
<time>2024-05-08T09:52:24Z</time>
</trkpt>
<trkpt lat="49.24361793324351" lon="9.372533736750484">
<ele>166.2</ele>
<time>2024-05-08T09:52:25Z</time>
</trkpt>
<trkpt lat="49.243598906323314" lon="9.372467016801238">
<ele>166.2</ele>
<time>2024-05-08T09:52:26Z</time>
</trkpt>
<trkpt lat="49.24357979558408" lon="9.37240306288004">
<ele>166</ele>
<time>2024-05-08T09:52:27Z</time>
</trkpt>
<trkpt lat="49.24356454052031" lon="9.372340198606253">
<ele>166</ele>
<time>2024-05-08T09:52:28Z</time>
</trkpt>
<trkpt lat="49.24354928545654" lon="9.372276244685054">
<ele>165.8</ele>
<time>2024-05-08T09:52:29Z</time>
</trkpt>
<trkpt lat="49.243534030392766" lon="9.372211452573538">
<ele>165.8</ele>
<time>2024-05-08T09:52:30Z</time>
</trkpt>
<trkpt lat="49.24351500347257" lon="9.37214657664299">
<ele>165.8</ele>
<time>2024-05-08T09:52:31Z</time>
</trkpt>
<trkpt lat="49.243499748408794" lon="9.372081700712442">
<ele>165.8</ele>
<time>2024-05-08T09:52:32Z</time>
</trkpt>
<trkpt lat="49.24348449334502" lon="9.372013052925467">
<ele>165.8</ele>
<time>2024-05-08T09:52:33Z</time>
</trkpt>
<trkpt lat="49.24346538260579" lon="9.371946332976222">
<ele>165.8</ele>
<time>2024-05-08T09:52:34Z</time>
</trkpt>
<trkpt lat="49.24345012754202" lon="9.371876679360868">
<ele>165.8</ele>
<time>2024-05-08T09:52:35Z</time>
</trkpt>
<trkpt lat="49.24343487247825" lon="9.371808031573892">
<ele>165.8</ele>
<time>2024-05-08T09:52:36Z</time>
</trkpt>
<trkpt lat="49.243415761739016" lon="9.371740305796266">
<ele>165.8</ele>
<time>2024-05-08T09:52:37Z</time>
</trkpt>
<trkpt lat="49.24340050667524" lon="9.371667802333832">
<ele>165.8</ele>
<time>2024-05-08T09:52:38Z</time>
</trkpt>
<trkpt lat="49.24338147975504" lon="9.371600076556206">
<ele>166</ele>
<time>2024-05-08T09:52:39Z</time>
</trkpt>
<trkpt lat="49.24336622469127" lon="9.37153335660696">
<ele>166</ele>
<time>2024-05-08T09:52:40Z</time>
</trkpt>
<trkpt lat="49.2433509696275" lon="9.371466636657717">
<ele>165.8</ele>
<time>2024-05-08T09:52:41Z</time>
</trkpt>
<trkpt lat="49.24333185888827" lon="9.371399832889438">
<ele>165.8</ele>
<time>2024-05-08T09:52:42Z</time>
</trkpt>
<trkpt lat="49.243316603824496" lon="9.371333112940192">
<ele>165.8</ele>
<time>2024-05-08T09:52:44Z</time>
</trkpt>
<trkpt lat="49.24328223802149" lon="9.371196739375591">
<ele>165.8</ele>
<time>2024-05-08T09:52:45Z</time>
</trkpt>
<trkpt lat="49.24326698295772" lon="9.371128007769585">
<ele>165.8</ele>
<time>2024-05-08T09:52:46Z</time>
</trkpt>
<trkpt lat="49.24325172789395" lon="9.37106036581099">
<ele>165.8</ele>
<time>2024-05-08T09:52:47Z</time>
</trkpt>
<trkpt lat="49.24323270097375" lon="9.370991634204984">
<ele>165.8</ele>
<time>2024-05-08T09:52:48Z</time>
</trkpt>
<trkpt lat="49.24321744590998" lon="9.37092206440866">
<ele>165.8</ele>
<time>2024-05-08T09:52:49Z</time>
</trkpt>
<trkpt lat="49.243198335170746" lon="9.370853416621683">
<ele>165.8</ele>
<time>2024-05-08T09:52:50Z</time>
</trkpt>
<trkpt lat="49.243183080106974" lon="9.37078284099698">
<ele>165.8</ele>
<time>2024-05-08T09:52:52Z</time>
</trkpt>
<trkpt lat="49.24315256997943" lon="9.37064646743238">
<ele>165.8</ele>
<time>2024-05-08T09:52:53Z</time>
</trkpt>
<trkpt lat="49.24313354305923" lon="9.370578741654754">
<ele>165.8</ele>
<time>2024-05-08T09:52:54Z</time>
</trkpt>
<trkpt lat="49.243118204176426" lon="9.37051009386778">
<ele>165.8</ele>
<time>2024-05-08T09:52:56Z</time>
</trkpt>
<trkpt lat="49.243080066516995" lon="9.370371792465448">
<ele>166</ele>
<time>2024-05-08T09:52:57Z</time>
</trkpt>
<trkpt lat="49.2430610395968" lon="9.370303144678472">
<ele>166.2</ele>
<time>2024-05-08T09:52:58Z</time>
</trkpt>
<trkpt lat="49.243041928857565" lon="9.370236340910196">
<ele>166.2</ele>
<time>2024-05-08T09:52:59Z</time>
</trkpt>
<trkpt lat="49.243022901937366" lon="9.370166771113873">
<ele>166.2</ele>
<time>2024-05-08T09:53:00Z</time>
</trkpt>
<trkpt lat="49.243003791198134" lon="9.370098039507866">
<ele>166.2</ele>
<time>2024-05-08T09:53:01Z</time>
</trkpt>
<trkpt lat="49.242984764277935" lon="9.370028469711542">
<ele>166.2</ele>
<time>2024-05-08T09:53:02Z</time>
</trkpt>
<trkpt lat="49.24296188168228" lon="9.369959821924567">
<ele>166.2</ele>
<time>2024-05-08T09:53:03Z</time>
</trkpt>
<trkpt lat="49.24293891526759" lon="9.36989301815629">
<ele>166.2</ele>
<time>2024-05-08T09:53:04Z</time>
</trkpt>
<trkpt lat="49.24291988834739" lon="9.369828142225742">
<ele>166</ele>
<time>2024-05-08T09:53:05Z</time>
</trkpt>
<trkpt lat="49.24289700575173" lon="9.369765277951956">
<ele>166</ele>
<time>2024-05-08T09:53:06Z</time>
</trkpt>
<trkpt lat="49.2428778950125" lon="9.369700402021408">
<ele>166</ele>
<time>2024-05-08T09:53:07Z</time>
</trkpt>
<trkpt lat="49.24285501241684" lon="9.36963653191924">
<ele>166</ele>
<time>2024-05-08T09:53:08Z</time>
</trkpt>
<trkpt lat="49.24283598549664" lon="9.369571655988691">
<ele>166</ele>
<time>2024-05-08T09:53:09Z</time>
</trkpt>
<trkpt lat="49.24281310290098" lon="9.369506780058146">
<ele>166</ele>
<time>2024-05-08T09:53:10Z</time>
</trkpt>
<trkpt lat="49.24279022030533" lon="9.369441904127598">
<ele>166</ele>
<time>2024-05-08T09:53:11Z</time>
</trkpt>
<trkpt lat="49.24277110956609" lon="9.369377112016082">
<ele>166.2</ele>
<time>2024-05-08T09:53:12Z</time>
</trkpt>
<trkpt lat="49.242744371294975" lon="9.369311314076183">
<ele>166.2</ele>
<time>2024-05-08T09:53:14Z</time>
</trkpt>
<trkpt lat="49.24271771684289" lon="9.369251215830444">
<ele>166.2</ele>
<time>2024-05-08T09:53:15Z</time>
</trkpt>
<trkpt lat="49.24269483424723" lon="9.369190195575356">
<ele>166.2</ele>
<time>2024-05-08T09:53:16Z</time>
</trkpt>
<trkpt lat="49.24264144152403" lon="9.369059521704912">
<ele>166.2</ele>
<time>2024-05-08T09:53:18Z</time>
</trkpt>
<trkpt lat="49.24259182065725" lon="9.368929853662848">
<ele>166.2</ele>
<time>2024-05-08T09:53:19Z</time>
</trkpt>
<trkpt lat="49.24256131052971" lon="9.3688649777323">
<ele>166.2</ele>
<time>2024-05-08T09:53:20Z</time>
</trkpt>
<trkpt lat="49.24253457225859" lon="9.368800101801751">
<ele>166.2</ele>
<time>2024-05-08T09:53:21Z</time>
</trkpt>
<trkpt lat="49.242507917806506" lon="9.368736231699586">
<ele>166.2</ele>
<time>2024-05-08T09:53:22Z</time>
</trkpt>
<trkpt lat="49.24248503521085" lon="9.368675211444495">
<ele>166.2</ele>
<time>2024-05-08T09:53:23Z</time>
</trkpt>
<trkpt lat="49.24245829693973" lon="9.368611257523298">
<ele>166.2</ele>
<time>2024-05-08T09:53:24Z</time>
</trkpt>
<trkpt lat="49.242427786812186" lon="9.368546465411782">
<ele>166.2</ele>
<time>2024-05-08T09:53:25Z</time>
</trkpt>
<trkpt lat="49.24239727668464" lon="9.368481589481236">
<ele>166.2</ele>
<time>2024-05-08T09:53:26Z</time>
</trkpt>
<trkpt lat="49.242370538413525" lon="9.368418641388416">
<ele>166.2</ele>
<time>2024-05-08T09:53:27Z</time>
</trkpt>
<trkpt lat="49.24234002828598" lon="9.36835477128625">
<ele>166.2</ele>
<time>2024-05-08T09:53:28Z</time>
</trkpt>
<trkpt lat="49.242313373833895" lon="9.368291823193433">
<ele>166.4</ele>
<time>2024-05-08T09:53:29Z</time>
</trkpt>
<trkpt lat="49.24228286370635" lon="9.368227953091264">
<ele>166.4</ele>
<time>2024-05-08T09:53:30Z</time>
</trkpt>
<trkpt lat="49.24225612543523" lon="9.368165004998446">
<ele>166.4</ele>
<time>2024-05-08T09:53:31Z</time>
</trkpt>
<trkpt lat="49.24222561530769" lon="9.368102056905627">
<ele>166.4</ele>
<time>2024-05-08T09:53:32Z</time>
</trkpt>
<trkpt lat="49.24219887703657" lon="9.368038102984428">
<ele>166.4</ele>
<time>2024-05-08T09:53:34Z</time>
</trkpt>
<trkpt lat="49.24214171245694" lon="9.367910362780094">
<ele>166.6</ele>
<time>2024-05-08T09:53:36Z</time>
</trkpt>
<trkpt lat="49.242114974185824" lon="9.367846408858895">
<ele>166.6</ele>
<time>2024-05-08T09:53:37Z</time>
</trkpt>
<trkpt lat="49.24206158146262" lon="9.367723446339369">
<ele>166.6</ele>
<time>2024-05-08T09:53:38Z</time>
</trkpt>
<trkpt lat="49.242034843191504" lon="9.36765949241817">
<ele>166.6</ele>
<time>2024-05-08T09:53:40Z</time>
</trkpt>
<trkpt lat="49.2419814504683" lon="9.367533680051563">
<ele>166.6</ele>
<time>2024-05-08T09:53:41Z</time>
</trkpt>
<trkpt lat="49.241954796016216" lon="9.367471653968096">
<ele>166.8</ele>
<time>2024-05-08T09:53:42Z</time>
</trkpt>
<trkpt lat="49.2419280577451" lon="9.367408705875278">
<ele>166.8</ele>
<time>2024-05-08T09:53:43Z</time>
</trkpt>
<trkpt lat="49.24190131947398" lon="9.367348607629538">
<ele>166.8</ele>
<time>2024-05-08T09:53:44Z</time>
</trkpt>
<trkpt lat="49.241874665021896" lon="9.3672866653651">
<ele>166.8</ele>
<time>2024-05-08T09:53:45Z</time>
</trkpt>
<trkpt lat="49.24184792675078" lon="9.36722656711936">
<ele>166.8</ele>
<time>2024-05-08T09:53:46Z</time>
</trkpt>
<trkpt lat="49.241817416623235" lon="9.36717032454908">
<ele>166.8</ele>
<time>2024-05-08T09:53:47Z</time>
</trkpt>
<trkpt lat="49.24179076217115" lon="9.36710829846561">
<ele>166.8</ele>
<time>2024-05-08T09:53:48Z</time>
</trkpt>
<trkpt lat="49.241760252043605" lon="9.367052055895329">
<ele>166.8</ele>
<time>2024-05-08T09:53:49Z</time>
</trkpt>
<trkpt lat="49.24172965809703" lon="9.366992879658936">
<ele>166.8</ele>
<time>2024-05-08T09:53:50Z</time>
</trkpt>
<trkpt lat="49.24170300364494" lon="9.366939486935737">
<ele>166.8</ele>
<time>2024-05-08T09:53:51Z</time>
</trkpt>
<trkpt lat="49.241676265373826" lon="9.366885172203183">
<ele>166.8</ele>
<time>2024-05-08T09:53:53Z</time>
</trkpt>
<trkpt lat="49.24161524511874" lon="9.366780230775476">
<ele>166.8</ele>
<time>2024-05-08T09:53:54Z</time>
</trkpt>
<trkpt lat="49.24158859066665" lon="9.366722982376814">
<ele>166.8</ele>
<time>2024-05-08T09:53:56Z</time>
</trkpt>
<trkpt lat="49.24153134226799" lon="9.366609491407871">
<ele>166.8</ele>
<time>2024-05-08T09:53:58Z</time>
</trkpt>
<trkpt lat="49.2414703220129" lon="9.366491306573153">
<ele>166.8</ele>
<time>2024-05-08T09:54:00Z</time>
</trkpt>
<trkpt lat="49.24141307361424" lon="9.366379659622908">
<ele>166.8</ele>
<time>2024-05-08T09:54:02Z</time>
</trkpt>
<trkpt lat="49.24134819768369" lon="9.366268096491694">
<ele>166.8</ele>
<time>2024-05-08T09:54:03Z</time>
</trkpt>
<trkpt lat="49.24131768755615" lon="9.366212775930762">
<ele>166.8</ele>
<time>2024-05-08T09:54:04Z</time>
</trkpt>
<trkpt lat="49.2412871774286" lon="9.36615653336048">
<ele>166.8</ele>
<time>2024-05-08T09:54:06Z</time>
</trkpt>
<trkpt lat="49.24121852964163" lon="9.36604304239154">
<ele>166.8</ele>
<time>2024-05-08T09:54:08Z</time>
</trkpt>
<trkpt lat="49.24114988185465" lon="9.365931479260324">
<ele>166.8</ele>
<time>2024-05-08T09:54:09Z</time>
</trkpt>
<trkpt lat="49.24111937172711" lon="9.365875236690044">
<ele>166.8</ele>
<time>2024-05-08T09:54:10Z</time>
</trkpt>
<trkpt lat="49.241085005924106" lon="9.365819916129112">
<ele>166.8</ele>
<time>2024-05-08T09:54:11Z</time>
</trkpt>
<trkpt lat="49.24105826765299" lon="9.36576652340591">
<ele>166.8</ele>
<time>2024-05-08T09:54:12Z</time>
</trkpt>
<trkpt lat="49.24102398566902" lon="9.365716902539134">
<ele>166.8</ele>
<time>2024-05-08T09:54:13Z</time>
</trkpt>
<trkpt lat="49.24098961986601" lon="9.365665353834627">
<ele>166.8</ele>
<time>2024-05-08T09:54:14Z</time>
</trkpt>
<trkpt lat="49.24095910973847" lon="9.365614810958505">
<ele>166.8</ele>
<time>2024-05-08T09:54:15Z</time>
</trkpt>
<trkpt lat="49.240928599610925" lon="9.36556527391076">
<ele>167</ele>
<time>2024-05-08T09:54:16Z</time>
</trkpt>
<trkpt lat="49.24089808948338" lon="9.365518502891064">
<ele>167</ele>
<time>2024-05-08T09:54:18Z</time>
</trkpt>
<trkpt lat="49.24083321355283" lon="9.365421272814274">
<ele>167.2</ele>
<time>2024-05-08T09:54:19Z</time>
</trkpt>
<trkpt lat="49.2407950758934" lon="9.365367880091071">
<ele>167.2</ele>
<time>2024-05-08T09:54:20Z</time>
</trkpt>
<trkpt lat="49.24076079390943" lon="9.365316331386566">
<ele>167.4</ele>
<time>2024-05-08T09:54:21Z</time>
</trkpt>
<trkpt lat="49.24072642810643" lon="9.365266794338822">
<ele>167.4</ele>
<time>2024-05-08T09:54:22Z</time>
</trkpt>
<trkpt lat="49.240688290447" lon="9.365215245634316">
<ele>167.6</ele>
<time>2024-05-08T09:54:23Z</time>
</trkpt>
<trkpt lat="49.240650152787566" lon="9.365161852911116">
<ele>167.8</ele>
<time>2024-05-08T09:54:24Z</time>
</trkpt>
<trkpt lat="49.24061578698456" lon="9.36511038802564">
<ele>167.8</ele>
<time>2024-05-08T09:54:25Z</time>
</trkpt>
<trkpt lat="49.24058150500059" lon="9.365057917311788">
<ele>167.8</ele>
<time>2024-05-08T09:54:26Z</time>
</trkpt>
<trkpt lat="49.24054328352213" lon="9.365004524588583">
<ele>167.6</ele>
<time>2024-05-08T09:54:27Z</time>
</trkpt>
<trkpt lat="49.2405051458627" lon="9.36495297588408">
<ele>167.6</ele>
<time>2024-05-08T09:54:28Z</time>
</trkpt>
<trkpt lat="49.24047086387873" lon="9.364903438836336">
<ele>167.6</ele>
<time>2024-05-08T09:54:29Z</time>
</trkpt>
<trkpt lat="49.2404327262193" lon="9.364851890131831">
<ele>167.4</ele>
<time>2024-05-08T09:54:30Z</time>
</trkpt>
<trkpt lat="49.24039836041629" lon="9.364800425246358">
<ele>167.4</ele>
<time>2024-05-08T09:54:31Z</time>
</trkpt>
<trkpt lat="49.24036022275686" lon="9.364747032523155">
<ele>167.4</ele>
<time>2024-05-08T09:54:32Z</time>
</trkpt>
<trkpt lat="49.24032585695386" lon="9.3646945618093">
<ele>167.2</ele>
<time>2024-05-08T09:54:33Z</time>
</trkpt>
<trkpt lat="49.24028771929443" lon="9.364643096923828">
<ele>167.2</ele>
<time>2024-05-08T09:54:35Z</time>
</trkpt>
<trkpt lat="49.24021144397557" lon="9.364541927352548">
<ele>167.2</ele>
<time>2024-05-08T09:54:36Z</time>
</trkpt>
<trkpt lat="49.24017330631614" lon="9.364491384476423">
<ele>167</ele>
<time>2024-05-08T09:54:37Z</time>
</trkpt>
<trkpt lat="49.24013516865671" lon="9.36444184742868">
<ele>167</ele>
<time>2024-05-08T09:54:38Z</time>
</trkpt>
<trkpt lat="49.2401008028537" lon="9.364390298724174">
<ele>167</ele>
<time>2024-05-08T09:54:39Z</time>
</trkpt>
<trkpt lat="49.24006266519427" lon="9.36433975584805">
<ele>167</ele>
<time>2024-05-08T09:54:40Z</time>
</trkpt>
<trkpt lat="49.24002829939127" lon="9.364288290962577">
<ele>167</ele>
<time>2024-05-08T09:54:41Z</time>
</trkpt>
<trkpt lat="49.23999016173184" lon="9.3642386700958">
<ele>167</ele>
<time>2024-05-08T09:54:43Z</time>
</trkpt>
<trkpt lat="49.239921513944864" lon="9.364134734496474">
<ele>167</ele>
<time>2024-05-08T09:54:44Z</time>
</trkpt>
<trkpt lat="49.23988723196089" lon="9.364087041467428">
<ele>167</ele>
<time>2024-05-08T09:54:45Z</time>
</trkpt>
<trkpt lat="49.23985286615789" lon="9.364036498591304">
<ele>167</ele>
<time>2024-05-08T09:54:46Z</time>
</trkpt>
<trkpt lat="49.23981472849846" lon="9.363989811390638">
<ele>167</ele>
<time>2024-05-08T09:54:47Z</time>
</trkpt>
<trkpt lat="49.239780362695456" lon="9.363940190523865">
<ele>167</ele>
<time>2024-05-08T09:54:48Z</time>
</trkpt>
<trkpt lat="49.23974608071149" lon="9.363889647647738">
<ele>167</ele>
<time>2024-05-08T09:54:50Z</time>
</trkpt>
<trkpt lat="49.239681204780936" lon="9.363784790039063">
<ele>167</ele>
<time>2024-05-08T09:54:51Z</time>
</trkpt>
<trkpt lat="49.23965069465339" lon="9.363731313496828">
<ele>167</ele>
<time>2024-05-08T09:54:52Z</time>
</trkpt>
<trkpt lat="49.23962018452585" lon="9.363676998764277">
<ele>167</ele>
<time>2024-05-08T09:54:53Z</time>
</trkpt>
<trkpt lat="49.2395896743983" lon="9.363619750365617">
<ele>167</ele>
<time>2024-05-08T09:54:55Z</time>
</trkpt>
<trkpt lat="49.23953242599964" lon="9.363505337387323">
<ele>167</ele>
<time>2024-05-08T09:54:56Z</time>
</trkpt>
<trkpt lat="49.2395019158721" lon="9.363446161150932">
<ele>167</ele>
<time>2024-05-08T09:54:57Z</time>
</trkpt>
<trkpt lat="49.23947140574455" lon="9.363387990742922">
<ele>167</ele>
<time>2024-05-08T09:54:58Z</time>
</trkpt>
<trkpt lat="49.239448523148894" lon="9.363326970487831">
<ele>167</ele>
<time>2024-05-08T09:55:00Z</time>
</trkpt>
<trkpt lat="49.23939890228212" lon="9.363202080130575">
<ele>167</ele>
<time>2024-05-08T09:55:01Z</time>
</trkpt>
<trkpt lat="49.23937224783003" lon="9.363138126209378">
<ele>167</ele>
<time>2024-05-08T09:55:03Z</time>
</trkpt>
<trkpt lat="49.239326398819685" lon="9.363004602491856">
<ele>167</ele>
<time>2024-05-08T09:55:04Z</time>
</trkpt>
<trkpt lat="49.239307371899486" lon="9.36293696053326">
<ele>167</ele>
<time>2024-05-08T09:55:06Z</time>
</trkpt>
<trkpt lat="49.239288261160254" lon="9.362868228927256">
<ele>167.2</ele>
<time>2024-05-08T09:55:07Z</time>
</trkpt>
<trkpt lat="49.239250123500824" lon="9.362731855362654">
<ele>167.2</ele>
<time>2024-05-08T09:55:09Z</time>
</trkpt>
<trkpt lat="49.23921961337328" lon="9.362585004419088">
<ele>167.2</ele>
<time>2024-05-08T09:55:10Z</time>
</trkpt>
<trkpt lat="49.23920058645308" lon="9.36252205632627">
<ele>167.2</ele>
<time>2024-05-08T09:55:11Z</time>
</trkpt>
<trkpt lat="49.23918533138931" lon="9.362460114061832">
<ele>167.2</ele>
<time>2024-05-08T09:55:12Z</time>
</trkpt>
<trkpt lat="49.23916622065008" lon="9.36240672133863">
<ele>167.4</ele>
<time>2024-05-08T09:55:14Z</time>
</trkpt>
<trkpt lat="49.23914333805442" lon="9.36234662309289">
<ele>167.4</ele>
<time>2024-05-08T09:55:15Z</time>
</trkpt>
<trkpt lat="49.23912422731519" lon="9.362250315025449">
<ele>167.6</ele>
<time>2024-05-08T09:55:17Z</time>
</trkpt>
<trkpt lat="49.239128082990646" lon="9.362158700823784">
<ele>167.6</ele>
<time>2024-05-08T09:55:18Z</time>
</trkpt>
<trkpt lat="49.239128082990646" lon="9.362106313928962">
<ele>167.8</ele>
<time>2024-05-08T09:55:19Z</time>
</trkpt>
<trkpt lat="49.23912422731519" lon="9.362049987539647">
<ele>167.8</ele>
<time>2024-05-08T09:55:21Z</time>
</trkpt>
<trkpt lat="49.2391165997833" lon="9.361999444663525">
<ele>167.8</ele>
<time>2024-05-08T09:55:22Z</time>
</trkpt>
<trkpt lat="49.239108972251415" lon="9.361953679472208">
<ele>167.8</ele>
<time>2024-05-08T09:55:23Z</time>
</trkpt>
<trkpt lat="49.23910134471953" lon="9.361920319497584">
<ele>167.8</ele>
<time>2024-05-08T09:55:24Z</time>
</trkpt>
<trkpt lat="49.23910134471953" lon="9.361863071098924">
<ele>168</ele>
<time>2024-05-08T09:55:25Z</time>
</trkpt>
<trkpt lat="49.23910134471953" lon="9.361841194331646">
<ele>168</ele>
<time>2024-05-08T09:55:26Z</time>
</trkpt>
<trkpt lat="49.2390975728631" lon="9.361823005601764">
<ele>168</ele>
<time>2024-05-08T09:55:27Z</time>
</trkpt>
<trkpt lat="49.23910134471953" lon="9.361816383898258">
<ele>168</ele>
<time>2024-05-08T09:55:29Z</time>
</trkpt>
<trkpt lat="49.23910520039499" lon="9.361796351149678">
<ele>168</ele>
<time>2024-05-08T09:55:30Z</time>
</trkpt>
<trkpt lat="49.23913571052253" lon="9.36175343580544">
<ele>167.8</ele>
<time>2024-05-08T09:55:32Z</time>
</trkpt>
<trkpt lat="49.23915473744273" lon="9.361741952598097">
<ele>167.8</ele>
<time>2024-05-08T09:55:33Z</time>
</trkpt>
<trkpt lat="49.23920058645308" lon="9.361718147993088">
<ele>167.6</ele>
<time>2024-05-08T09:55:34Z</time>
</trkpt>
<trkpt lat="49.23922346904874" lon="9.361701887100937">
<ele>167.6</ele>
<time>2024-05-08T09:55:35Z</time>
</trkpt>
<trkpt lat="49.23924249596894" lon="9.361676154658198">
<ele>167.6</ele>
<time>2024-05-08T09:55:36Z</time>
</trkpt>
<trkpt lat="49.23925775103271" lon="9.361644722521303">
<ele>167.6</ele>
<time>2024-05-08T09:55:37Z</time>
</trkpt>
<trkpt lat="49.23927686177194" lon="9.361611362546682">
<ele>167.8</ele>
<time>2024-05-08T09:55:39Z</time>
</trkpt>
<trkpt lat="49.239288261160254" lon="9.36157699674368">
<ele>167.8</ele>
<time>2024-05-08T09:55:40Z</time>
</trkpt>
<trkpt lat="49.23930351622403" lon="9.361501643434169">
<ele>168</ele>
<time>2024-05-08T09:55:41Z</time>
</trkpt>
<trkpt lat="49.23931114375591" lon="9.361461577937009">
<ele>168.2</ele>
<time>2024-05-08T09:55:42Z</time>
</trkpt>
<trkpt lat="49.23931499943137" lon="9.361421512439849">
<ele>168.2</ele>
<time>2024-05-08T09:55:43Z</time>
</trkpt>
<trkpt lat="49.23931499943137" lon="9.361374825239182">
<ele>168.2</ele>
<time>2024-05-08T09:55:45Z</time>
</trkpt>
<trkpt lat="49.239307371899486" lon="9.361271811649203">
<ele>168.4</ele>
<time>2024-05-08T09:55:46Z</time>
</trkpt>
<trkpt lat="49.239307371899486" lon="9.36122126877308">
<ele>168.4</ele>
<time>2024-05-08T09:55:47Z</time>
</trkpt>
<trkpt lat="49.239307371899486" lon="9.361169803887606">
<ele>168.4</ele>
<time>2024-05-08T09:55:48Z</time>
</trkpt>
<trkpt lat="49.239307371899486" lon="9.3611182551831">
<ele>168.4</ele>
<time>2024-05-08T09:55:49Z</time>
</trkpt>
<trkpt lat="49.239307371899486" lon="9.361066790297627">
<ele>168.6</ele>
<time>2024-05-08T09:55:50Z</time>
</trkpt>
<trkpt lat="49.239307371899486" lon="9.361015241593122">
<ele>168.6</ele>
<time>2024-05-08T09:55:51Z</time>
</trkpt>
<trkpt lat="49.23930351622403" lon="9.36096184886992">
<ele>168.6</ele>
<time>2024-05-08T09:55:52Z</time>
</trkpt>
<trkpt lat="49.23930351622403" lon="9.360910383984448">
<ele>168.8</ele>
<time>2024-05-08T09:55:53Z</time>
</trkpt>
<trkpt lat="49.2392997443676" lon="9.360856991261244">
<ele>169</ele>
<time>2024-05-08T09:55:55Z</time>
</trkpt>
<trkpt lat="49.2392997443676" lon="9.360750121995808">
<ele>169.4</ele>
<time>2024-05-08T09:55:56Z</time>
</trkpt>
<trkpt lat="49.2392997443676" lon="9.360694885253906">
<ele>169.4</ele>
<time>2024-05-08T09:55:58Z</time>
</trkpt>
<trkpt lat="49.23929211683571" lon="9.3605899438262">
<ele>169.8</ele>
<time>2024-05-08T09:55:59Z</time>
</trkpt>
<trkpt lat="49.23929211683571" lon="9.360536551102996">
<ele>170</ele>
<time>2024-05-08T09:56:00Z</time>
</trkpt>
<trkpt lat="49.23929211683571" lon="9.360483158379791">
<ele>170</ele>
<time>2024-05-08T09:56:01Z</time>
</trkpt>
<trkpt lat="49.239288261160254" lon="9.36042683199048">
<ele>170</ele>
<time>2024-05-08T09:56:03Z</time>
</trkpt>
<trkpt lat="49.239288261160254" lon="9.360366817563772">
<ele>170.2</ele>
<time>2024-05-08T09:56:04Z</time>
</trkpt>
<trkpt lat="49.23928063362837" lon="9.360308647155762">
<ele>170.2</ele>
<time>2024-05-08T09:56:05Z</time>
</trkpt>
<trkpt lat="49.23927686177194" lon="9.360248548910022">
<ele>170.2</ele>
<time>2024-05-08T09:56:06Z</time>
</trkpt>
<trkpt lat="49.23926537856459" lon="9.360123574733734">
<ele>170.4</ele>
<time>2024-05-08T09:56:07Z</time>
</trkpt>
<trkpt lat="49.23926537856459" lon="9.360059704631569">
<ele>170.4</ele>
<time>2024-05-08T09:56:09Z</time>
</trkpt>
<trkpt lat="49.23926160670817" lon="9.35999290086329">
<ele>170.4</ele>
<time>2024-05-08T09:56:10Z</time>
</trkpt>
<trkpt lat="49.23925397917628" lon="9.359926180914044">
<ele>170.4</ele>
<time>2024-05-08T09:56:11Z</time>
</trkpt>
<trkpt lat="49.239250123500824" lon="9.359861304983497">
<ele>170.4</ele>
<time>2024-05-08T09:56:12Z</time>
</trkpt>
<trkpt lat="49.239250123500824" lon="9.359794585034251">
<ele>170.4</ele>
<time>2024-05-08T09:56:13Z</time>
</trkpt>
<trkpt lat="49.23925397917628" lon="9.359731636941431">
<ele>170.4</ele>
<time>2024-05-08T09:56:14Z</time>
</trkpt>
<trkpt lat="49.23926537856459" lon="9.359606662765144">
<ele>170.2</ele>
<time>2024-05-08T09:56:15Z</time>
</trkpt>
<trkpt lat="49.23926537856459" lon="9.359546648338435">
<ele>170.2</ele>
<time>2024-05-08T09:56:16Z</time>
</trkpt>
<trkpt lat="49.23925775103271" lon="9.359488477930428">
<ele>170</ele>
<time>2024-05-08T09:56:18Z</time>
</trkpt>
<trkpt lat="49.23925397917628" lon="9.359428379684688">
<ele>170</ele>
<time>2024-05-08T09:56:19Z</time>
</trkpt>
<trkpt lat="49.239250123500824" lon="9.359308183193209">
<ele>169.6</ele>
<time>2024-05-08T09:56:21Z</time>
</trkpt>
<trkpt lat="49.239250123500824" lon="9.359248084947469">
<ele>169.6</ele>
<time>2024-05-08T09:56:22Z</time>
</trkpt>
<trkpt lat="49.239250123500824" lon="9.359187064692378">
<ele>169.4</ele>
<time>2024-05-08T09:56:23Z</time>
</trkpt>
<trkpt lat="49.239250123500824" lon="9.35912512242794">
<ele>169.4</ele>
<time>2024-05-08T09:56:24Z</time>
</trkpt>
<trkpt lat="49.2392463516444" lon="9.358998220413923">
<ele>169.2</ele>
<time>2024-05-08T09:56:25Z</time>
</trkpt>
<trkpt lat="49.23924249596894" lon="9.358935356140137">
<ele>169</ele>
<time>2024-05-08T09:56:27Z</time>
</trkpt>
<trkpt lat="49.23923872411251" lon="9.358804682269692">
<ele>169</ele>
<time>2024-05-08T09:56:28Z</time>
</trkpt>
<trkpt lat="49.23923486843705" lon="9.358737878501415">
<ele>169</ele>
<time>2024-05-08T09:56:30Z</time>
</trkpt>
<trkpt lat="49.23921961337328" lon="9.358603432774544">
<ele>168.8</ele>
<time>2024-05-08T09:56:31Z</time>
</trkpt>
<trkpt lat="49.23921198584139" lon="9.358534784987569">
<ele>168.8</ele>
<time>2024-05-08T09:56:33Z</time>
</trkpt>
<trkpt lat="49.23919673077762" lon="9.3583897780627">
<ele>168.6</ele>
<time>2024-05-08T09:56:34Z</time>
</trkpt>
<trkpt lat="49.239192958921194" lon="9.358318280428648">
<ele>168.6</ele>
<time>2024-05-08T09:56:36Z</time>
</trkpt>
<trkpt lat="49.23918147571385" lon="9.358244854956864">
<ele>168.4</ele>
<time>2024-05-08T09:56:37Z</time>
</trkpt>
<trkpt lat="49.23916622065008" lon="9.3580980040133">
<ele>168.6</ele>
<time>2024-05-08T09:56:39Z</time>
</trkpt>
<trkpt lat="49.239150965586305" lon="9.357950147241354">
<ele>168.8</ele>
<time>2024-05-08T09:56:40Z</time>
</trkpt>
<trkpt lat="49.239147109910846" lon="9.357876721769571">
<ele>168.8</ele>
<time>2024-05-08T09:56:41Z</time>
</trkpt>
<trkpt lat="49.23913948237896" lon="9.35780136846006">
<ele>168.8</ele>
<time>2024-05-08T09:56:43Z</time>
</trkpt>
<trkpt lat="49.23912045545876" lon="9.357654517516494">
<ele>168.6</ele>
<time>2024-05-08T09:56:44Z</time>
</trkpt>
<trkpt lat="49.239108972251415" lon="9.35758494772017">
<ele>168.4</ele>
<time>2024-05-08T09:56:45Z</time>
</trkpt>
<trkpt lat="49.2390975728631" lon="9.357521999627352">
<ele>168.2</ele>
<time>2024-05-08T09:56:47Z</time>
</trkpt>
<trkpt lat="49.23907846212387" lon="9.35746475122869">
<ele>168</ele>
<time>2024-05-08T09:56:48Z</time>
</trkpt>
<trkpt lat="49.23905943520367" lon="9.357411358505487">
<ele>167.8</ele>
<time>2024-05-08T09:56:49Z</time>
</trkpt>
<trkpt lat="49.239032696932554" lon="9.35736458748579">
<ele>167.8</ele>
<time>2024-05-08T09:56:50Z</time>
</trkpt>
<trkpt lat="49.23900604248047" lon="9.357321672141552">
<ele>167.8</ele>
<time>2024-05-08T09:56:51Z</time>
</trkpt>
<trkpt lat="49.23894879408181" lon="9.357232991605995">
<ele>167.6</ele>
<time>2024-05-08T09:56:53Z</time>
</trkpt>
<trkpt lat="49.238929683342576" lon="9.35719007626176">
<ele>167.4</ele>
<time>2024-05-08T09:56:54Z</time>
</trkpt>
<trkpt lat="49.2389144282788" lon="9.357156716287136">
<ele>167.4</ele>
<time>2024-05-08T09:56:55Z</time>
</trkpt>
<trkpt lat="49.23890302889049" lon="9.357112878933547">
<ele>167.2</ele>
<time>2024-05-08T09:56:56Z</time>
</trkpt>
<trkpt lat="49.23889917321503" lon="9.357091840356588">
<ele>167.2</ele>
<time>2024-05-08T09:56:58Z</time>
</trkpt>
<trkpt lat="49.238891545683146" lon="9.357023192569612">
<ele>167</ele>
<time>2024-05-08T09:57:00Z</time>
</trkpt>
<trkpt lat="49.23888777382672" lon="9.356980277225375">
<ele>167</ele>
<time>2024-05-08T09:57:01Z</time>
</trkpt>
<trkpt lat="49.23888777382672" lon="9.35693166218698">
<ele>166.8</ele>
<time>2024-05-08T09:57:02Z</time>
</trkpt>
<trkpt lat="49.238891545683146" lon="9.356876341626048">
<ele>166.6</ele>
<time>2024-05-08T09:57:03Z</time>
</trkpt>
<trkpt lat="49.23891828395426" lon="9.356762850657104">
<ele>166.6</ele>
<time>2024-05-08T09:57:04Z</time>
</trkpt>
<trkpt lat="49.238929683342576" lon="9.356711385771632">
<ele>166.4</ele>
<time>2024-05-08T09:57:05Z</time>
</trkpt>
<trkpt lat="49.23893731087446" lon="9.356659837067127">
<ele>166.4</ele>
<time>2024-05-08T09:57:06Z</time>
</trkpt>
<trkpt lat="49.238952565938234" lon="9.356611222028732">
<ele>166.4</ele>
<time>2024-05-08T09:57:08Z</time>
</trkpt>
<trkpt lat="49.238971676677465" lon="9.356506280601025">
<ele>166.2</ele>
<time>2024-05-08T09:57:09Z</time>
</trkpt>
<trkpt lat="49.23898307606578" lon="9.356452887877822">
<ele>166.2</ele>
<time>2024-05-08T09:57:10Z</time>
</trkpt>
<trkpt lat="49.23899833112955" lon="9.35639857314527">
<ele>166.2</ele>
<time>2024-05-08T09:57:11Z</time>
</trkpt>
<trkpt lat="49.23900604248047" lon="9.356343252584338">
<ele>166.2</ele>
<time>2024-05-08T09:57:13Z</time>
</trkpt>
<trkpt lat="49.23902506940067" lon="9.356229761615396">
<ele>166.2</ele>
<time>2024-05-08T09:57:14Z</time>
</trkpt>
<trkpt lat="49.239032696932554" lon="9.356173435226085">
<ele>166</ele>
<time>2024-05-08T09:57:15Z</time>
</trkpt>
<trkpt lat="49.2390441801399" lon="9.356118198484182">
<ele>166</ele>
<time>2024-05-08T09:57:17Z</time>
</trkpt>
<trkpt lat="49.23906706273556" lon="9.35600177384913">
<ele>166</ele>
<time>2024-05-08T09:57:19Z</time>
</trkpt>
<trkpt lat="49.2390975728631" lon="9.35588451102376">
<ele>165.8</ele>
<time>2024-05-08T09:57:20Z</time>
</trkpt>
<trkpt lat="49.2391165997833" lon="9.355833046138288">
<ele>165.6</ele>
<time>2024-05-08T09:57:22Z</time>
</trkpt>
<trkpt lat="49.239150965586305" lon="9.35572810471058">
<ele>165.4</ele>
<time>2024-05-08T09:57:23Z</time>
</trkpt>
<trkpt lat="49.239169992506504" lon="9.355671862140298">
<ele>165.4</ele>
<time>2024-05-08T09:57:25Z</time>
</trkpt>
<trkpt lat="49.23920435830951" lon="9.35554688796401">
<ele>165.4</ele>
<time>2024-05-08T09:57:26Z</time>
</trkpt>
<trkpt lat="49.23922346904874" lon="9.355484945699573">
<ele>165.4</ele>
<time>2024-05-08T09:57:27Z</time>
</trkpt>
<trkpt lat="49.23923872411251" lon="9.355424847453833">
<ele>165.2</ele>
<time>2024-05-08T09:57:28Z</time>
</trkpt>
<trkpt lat="49.23926160670817" lon="9.355361899361014">
<ele>165.2</ele>
<time>2024-05-08T09:57:30Z</time>
</trkpt>
<trkpt lat="49.2392997443676" lon="9.355239858850837">
<ele>165</ele>
<time>2024-05-08T09:57:32Z</time>
</trkpt>
<trkpt lat="49.239330254495144" lon="9.355118740350008">
<ele>165</ele>
<time>2024-05-08T09:57:33Z</time>
</trkpt>
<trkpt lat="49.23934550955891" lon="9.355052942410111">
<ele>165</ele>
<time>2024-05-08T09:57:35Z</time>
</trkpt>
<trkpt lat="49.23937224783003" lon="9.354925118386744">
<ele>165</ele>
<time>2024-05-08T09:57:36Z</time>
</trkpt>
<trkpt lat="49.23938364721835" lon="9.354861248284578">
<ele>165</ele>
<time>2024-05-08T09:57:37Z</time>
</trkpt>
<trkpt lat="49.23939513042569" lon="9.35479637235403">
<ele>165</ele>
<time>2024-05-08T09:57:38Z</time>
</trkpt>
<trkpt lat="49.23942178487778" lon="9.354668548330665">
<ele>165</ele>
<time>2024-05-08T09:57:41Z</time>
</trkpt>
<trkpt lat="49.23945229500532" lon="9.35454173013568">
<ele>165</ele>
<time>2024-05-08T09:57:42Z</time>
</trkpt>
<trkpt lat="49.23947140574455" lon="9.354476854205132">
<ele>165</ele>
<time>2024-05-08T09:57:43Z</time>
</trkpt>
<trkpt lat="49.239486660808325" lon="9.354416839778423">
<ele>165</ele>
<time>2024-05-08T09:57:44Z</time>
</trkpt>
<trkpt lat="49.23949806019664" lon="9.354354813694954">
<ele>165</ele>
<time>2024-05-08T09:57:45Z</time>
</trkpt>
<trkpt lat="49.23951331526041" lon="9.354293793439863">
<ele>165</ele>
<time>2024-05-08T09:57:46Z</time>
</trkpt>
<trkpt lat="49.23953242599964" lon="9.354231767356396">
<ele>165</ele>
<time>2024-05-08T09:57:47Z</time>
</trkpt>
<trkpt lat="49.239547681063414" lon="9.35416697524488">
<ele>165</ele>
<time>2024-05-08T09:57:48Z</time>
</trkpt>
<trkpt lat="49.239562936127186" lon="9.354101177304983">
<ele>165</ele>
<time>2024-05-08T09:57:49Z</time>
</trkpt>
<trkpt lat="49.23957819119096" lon="9.354040073230864">
<ele>165</ele>
<time>2024-05-08T09:57:51Z</time>
</trkpt>
<trkpt lat="49.23961255699396" lon="9.353913255035875">
<ele>165</ele>
<time>2024-05-08T09:57:53Z</time>
</trkpt>
<trkpt lat="49.23964683897793" lon="9.353784509003162">
<ele>165</ele>
<time>2024-05-08T09:57:54Z</time>
</trkpt>
<trkpt lat="49.23965832218528" lon="9.353723488748074">
<ele>165</ele>
<time>2024-05-08T09:57:55Z</time>
</trkpt>
<trkpt lat="49.23967357724905" lon="9.353663390502334">
<ele>165</ele>
<time>2024-05-08T09:57:56Z</time>
</trkpt>
<trkpt lat="49.23968497663736" lon="9.353601448237896">
<ele>165</ele>
<time>2024-05-08T09:57:57Z</time>
</trkpt>
<trkpt lat="49.23970031552017" lon="9.353540344163775">
<ele>165</ele>
<time>2024-05-08T09:57:58Z</time>
</trkpt>
<trkpt lat="49.23971557058394" lon="9.353480329737067">
<ele>165</ele>
<time>2024-05-08T09:57:59Z</time>
</trkpt>
<trkpt lat="49.23973082564771" lon="9.353421153500676">
<ele>165</ele>
<time>2024-05-08T09:58:01Z</time>
</trkpt>
<trkpt lat="49.2397574800998" lon="9.35329626314342">
<ele>165</ele>
<time>2024-05-08T09:58:02Z</time>
</trkpt>
<trkpt lat="49.23977273516357" lon="9.353235242888331">
<ele>165</ele>
<time>2024-05-08T09:58:03Z</time>
</trkpt>
<trkpt lat="49.239784218370914" lon="9.353175144642591">
<ele>165</ele>
<time>2024-05-08T09:58:04Z</time>
</trkpt>
<trkpt lat="49.23979947343469" lon="9.353113118559122">
<ele>165</ele>
<time>2024-05-08T09:58:05Z</time>
</trkpt>
<trkpt lat="49.23981472849846" lon="9.353053020313382">
<ele>165</ele>
<time>2024-05-08T09:58:06Z</time>
</trkpt>
<trkpt lat="49.23982998356223" lon="9.352993005886674">
<ele>165</ele>
<time>2024-05-08T09:58:08Z</time>
</trkpt>
<trkpt lat="49.23985663801432" lon="9.352867109701036">
<ele>165</ele>
<time>2024-05-08T09:58:09Z</time>
</trkpt>
<trkpt lat="49.23986812122166" lon="9.35280315577984">
<ele>165</ele>
<time>2024-05-08T09:58:10Z</time>
</trkpt>
<trkpt lat="49.239883376285434" lon="9.35274020768702">
<ele>165</ele>
<time>2024-05-08T09:58:11Z</time>
</trkpt>
<trkpt lat="49.23989485949278" lon="9.352676337584851">
<ele>165</ele>
<time>2024-05-08T09:58:12Z</time>
</trkpt>
<trkpt lat="49.23991011455655" lon="9.352611461654304">
<ele>165</ele>
<time>2024-05-08T09:58:14Z</time>
</trkpt>
<trkpt lat="49.239921513944864" lon="9.35254859738052">
<ele>165</ele>
<time>2024-05-08T09:58:15Z</time>
</trkpt>
<trkpt lat="49.23994825221598" lon="9.352417923510076">
<ele>165</ele>
<time>2024-05-08T09:58:17Z</time>
</trkpt>
<trkpt lat="49.23997490666807" lon="9.3522853218019">
<ele>165</ele>
<time>2024-05-08T09:58:19Z</time>
</trkpt>
<trkpt lat="49.23999016173184" lon="9.352218601852655">
<ele>165</ele>
<time>2024-05-08T09:58:20Z</time>
</trkpt>
<trkpt lat="49.24000927247107" lon="9.352083150297403">
<ele>165</ele>
<time>2024-05-08T09:58:22Z</time>
</trkpt>
<trkpt lat="49.24002829939127" lon="9.351948704570532">
<ele>165</ele>
<time>2024-05-08T09:58:24Z</time>
</trkpt>
<trkpt lat="49.2400474101305" lon="9.35181518085301">
<ele>165</ele>
<time>2024-05-08T09:58:25Z</time>
</trkpt>
<trkpt lat="49.24005503766239" lon="9.351748460903764">
<ele>165</ele>
<time>2024-05-08T09:58:27Z</time>
</trkpt>
<trkpt lat="49.24006652086973" lon="9.35161678120494">
<ele>165</ele>
<time>2024-05-08T09:58:29Z</time>
</trkpt>
<trkpt lat="49.240081775933504" lon="9.35148141346872">
<ele>165</ele>
<time>2024-05-08T09:58:30Z</time>
</trkpt>
<trkpt lat="49.24008554778993" lon="9.35141653753817">
<ele>165</ele>
<time>2024-05-08T09:58:32Z</time>
</trkpt>
<trkpt lat="49.24008940346539" lon="9.351351661607625">
<ele>165</ele>
<time>2024-05-08T09:58:33Z</time>
</trkpt>
<trkpt lat="49.24009703099728" lon="9.351224843412638">
<ele>165</ele>
<time>2024-05-08T09:58:35Z</time>
</trkpt>
<trkpt lat="49.24012368544936" lon="9.351111352443697">
<ele>165</ele>
<time>2024-05-08T09:58:36Z</time>
</trkpt>
<trkpt lat="49.240138940513134" lon="9.351068437099457">
<ele>165</ele>
<time>2024-05-08T09:58:37Z</time>
</trkpt>
<trkpt lat="49.24016182310879" lon="9.351031221449375">
<ele>165</ele>
<time>2024-05-08T09:58:38Z</time>
</trkpt>
<trkpt lat="49.24018470570445" lon="9.350996939465404">
<ele>164.8</ele>
<time>2024-05-08T09:58:40Z</time>
</trkpt>
<trkpt lat="49.24021529965103" lon="9.350973051041365">
<ele>164.8</ele>
<time>2024-05-08T09:58:41Z</time>
</trkpt>
<trkpt lat="49.240249581635" lon="9.350959723815322">
<ele>164.6</ele>
<time>2024-05-08T09:58:42Z</time>
</trkpt>
<trkpt lat="49.240283947438" lon="9.350956873968244">
<ele>164.6</ele>
<time>2024-05-08T09:58:43Z</time>
</trkpt>
<trkpt lat="49.24034496769309" lon="9.35092544183135">
<ele>164.6</ele>
<time>2024-05-08T09:58:45Z</time>
</trkpt>
<trkpt lat="49.24040598794818" lon="9.35088344849646">
<ele>164.6</ele>
<time>2024-05-08T09:58:46Z</time>
</trkpt>
<trkpt lat="49.24043649807573" lon="9.350870121270418">
<ele>164.6</ele>
<time>2024-05-08T09:58:48Z</time>
</trkpt>
<trkpt lat="49.24046323634684" lon="9.350872971117496">
<ele>164.6</ele>
<time>2024-05-08T09:58:49Z</time>
</trkpt>
<trkpt lat="49.24052040092647" lon="9.350893003866076">
<ele>164.4</ele>
<time>2024-05-08T09:58:50Z</time>
</trkpt>
<trkpt lat="49.240554766729474" lon="9.350894847884774">
<ele>164.4</ele>
<time>2024-05-08T09:58:51Z</time>
</trkpt>
<trkpt lat="49.24058527685702" lon="9.35088629834354">
<ele>164.4</ele>
<time>2024-05-08T09:58:53Z</time>
</trkpt>
<trkpt lat="49.240650152787566" lon="9.350841455161572">
<ele>164.4</ele>
<time>2024-05-08T09:58:54Z</time>
</trkpt>
<trkpt lat="49.24068443477154" lon="9.350811950862408">
<ele>164.4</ele>
<time>2024-05-08T09:58:56Z</time>
</trkpt>
<trkpt lat="49.2407416831702" lon="9.3507432192564">
<ele>164.4</ele>
<time>2024-05-08T09:58:58Z</time>
</trkpt>
<trkpt lat="49.24080270342529" lon="9.350663172081113">
<ele>164.8</ele>
<time>2024-05-08T09:58:59Z</time>
</trkpt>
<trkpt lat="49.240829441696405" lon="9.350623106583951">
<ele>164.8</ele>
<time>2024-05-08T09:59:00Z</time>
</trkpt>
<trkpt lat="49.24085995182395" lon="9.350582119077444">
<ele>164.8</ele>
<time>2024-05-08T09:59:02Z</time>
</trkpt>
<trkpt lat="49.24091334454715" lon="9.350482877343891">
<ele>165.2</ele>
<time>2024-05-08T09:59:03Z</time>
</trkpt>
<trkpt lat="49.240932455286384" lon="9.35043334029615">
<ele>165.2</ele>
<time>2024-05-08T09:59:05Z</time>
</trkpt>
<trkpt lat="49.24097436480224" lon="9.350330326706173">
<ele>165.4</ele>
<time>2024-05-08T09:59:06Z</time>
</trkpt>
<trkpt lat="49.2409972473979" lon="9.350277855992315">
<ele>165.4</ele>
<time>2024-05-08T09:59:07Z</time>
</trkpt>
<trkpt lat="49.24102012999356" lon="9.350225385278463">
<ele>165.4</ele>
<time>2024-05-08T09:59:08Z</time>
</trkpt>
<trkpt lat="49.24103924073279" lon="9.350166292861104">
<ele>165.6</ele>
<time>2024-05-08T09:59:09Z</time>
</trkpt>
<trkpt lat="49.24105826765299" lon="9.350108122453094">
<ele>165.6</ele>
<time>2024-05-08T09:59:10Z</time>
</trkpt>
<trkpt lat="49.24108123406768" lon="9.350048024207354">
<ele>165.6</ele>
<time>2024-05-08T09:59:11Z</time>
</trkpt>
<trkpt lat="49.24110026098788" lon="9.349987003952265">
<ele>165.6</ele>
<time>2024-05-08T09:59:13Z</time>
</trkpt>
<trkpt lat="49.24113839864731" lon="9.349873512983322">
<ele>165.8</ele>
<time>2024-05-08T09:59:14Z</time>
</trkpt>
<trkpt lat="49.24116128124297" lon="9.34981819242239">
<ele>165.8</ele>
<time>2024-05-08T09:59:16Z</time>
</trkpt>
<trkpt lat="49.24117653630674" lon="9.349762871861458">
<ele>165.8</ele>
<time>2024-05-08T09:59:17Z</time>
</trkpt>
<trkpt lat="49.24119564704597" lon="9.349708557128906">
<ele>165.8</ele>
<time>2024-05-08T09:59:18Z</time>
</trkpt>
<trkpt lat="49.24121852964163" lon="9.3496570084244">
<ele>165.8</ele>
<time>2024-05-08T09:59:19Z</time>
</trkpt>
<trkpt lat="49.24123764038086" lon="9.349606465548275">
<ele>165.8</ele>
<time>2024-05-08T09:59:20Z</time>
</trkpt>
<trkpt lat="49.24127577804029" lon="9.349510157480836">
<ele>165.8</ele>
<time>2024-05-08T09:59:22Z</time>
</trkpt>
<trkpt lat="49.24129103310406" lon="9.34946338646114">
<ele>165.8</ele>
<time>2024-05-08T09:59:23Z</time>
</trkpt>
<trkpt lat="49.24131006002426" lon="9.349374705925584">
<ele>165.8</ele>
<time>2024-05-08T09:59:24Z</time>
</trkpt>
<trkpt lat="49.24129480496049" lon="9.349333718419077">
<ele>165.8</ele>
<time>2024-05-08T09:59:26Z</time>
</trkpt>
<trkpt lat="49.2412681505084" lon="9.349294658750296">
<ele>165.8</ele>
<time>2024-05-08T09:59:27Z</time>
</trkpt>
<trkpt lat="49.24119179137051" lon="9.349240260198712">
<ele>165.8</ele>
<time>2024-05-08T09:59:28Z</time>
</trkpt>
<trkpt lat="49.241146026179194" lon="9.349214527755976">
<ele>165.8</ele>
<time>2024-05-08T09:59:29Z</time>
</trkpt>
<trkpt lat="49.24110026098788" lon="9.349191645160316">
<ele>165.6</ele>
<time>2024-05-08T09:59:30Z</time>
</trkpt>
<trkpt lat="49.24105826765299" lon="9.349169684574008">
<ele>165.6</ele>
<time>2024-05-08T09:59:31Z</time>
</trkpt>
<trkpt lat="49.24101250246167" lon="9.349153507500889">
<ele>165.4</ele>
<time>2024-05-08T09:59:32Z</time>
</trkpt>
<trkpt lat="49.240970592945814" lon="9.349138252437116">
<ele>165.4</ele>
<time>2024-05-08T09:59:33Z</time>
</trkpt>
<trkpt lat="49.2409248277545" lon="9.349121991544962">
<ele>165.2</ele>
<time>2024-05-08T09:59:34Z</time>
</trkpt>
<trkpt lat="49.240886606276035" lon="9.34910480864346">
<ele>165.2</ele>
<time>2024-05-08T09:59:35Z</time>
</trkpt>
<trkpt lat="49.24084469676018" lon="9.34908670373261">
<ele>165</ele>
<time>2024-05-08T09:59:36Z</time>
</trkpt>
<trkpt lat="49.24080655910075" lon="9.34906859882176">
<ele>165</ele>
<time>2024-05-08T09:59:37Z</time>
</trkpt>
<trkpt lat="49.24076842144132" lon="9.349053343757989">
<ele>165</ele>
<time>2024-05-08T09:59:39Z</time>
</trkpt>
<trkpt lat="49.240688290447" lon="9.349021911621094">
<ele>164.8</ele>
<time>2024-05-08T09:59:40Z</time>
</trkpt>
<trkpt lat="49.240650152787566" lon="9.349004728719592">
<ele>164.8</ele>
<time>2024-05-08T09:59:41Z</time>
</trkpt>
<trkpt lat="49.24061578698456" lon="9.348990395665169">
<ele>164.8</ele>
<time>2024-05-08T09:59:42Z</time>
</trkpt>
<trkpt lat="49.24057764932513" lon="9.348973212763669">
<ele>164.8</ele>
<time>2024-05-08T09:59:44Z</time>
</trkpt>
<trkpt lat="49.24054328352213" lon="9.34895133599639">
<ele>164.8</ele>
<time>2024-05-08T09:59:45Z</time>
</trkpt>
<trkpt lat="49.2405051458627" lon="9.3489283695817">
<ele>164.8</ele>
<time>2024-05-08T09:59:46Z</time>
</trkpt>
<trkpt lat="49.240451753139496" lon="9.348870199173687">
<ele>164.8</ele>
<time>2024-05-08T09:59:47Z</time>
</trkpt>
<trkpt lat="49.24044035375118" lon="9.348826361820102">
<ele>164.8</ele>
<time>2024-05-08T09:59:49Z</time>
</trkpt>
<trkpt lat="49.24044035375118" lon="9.348778668791056">
<ele>164.8</ele>
<time>2024-05-08T09:59:50Z</time>
</trkpt>
<trkpt lat="49.24044035375118" lon="9.34873198159039">
<ele>164.8</ele>
<time>2024-05-08T09:59:51Z</time>
</trkpt>
<trkpt lat="49.24044412560761" lon="9.348636595532298">
<ele>165</ele>
<time>2024-05-08T09:59:53Z</time>
</trkpt>
<trkpt lat="49.24044798128307" lon="9.3485898245126">
<ele>165</ele>
<time>2024-05-08T09:59:54Z</time>
</trkpt>
<trkpt lat="49.24045938067138" lon="9.348506927490234">
<ele>165</ele>
<time>2024-05-08T09:59:55Z</time>
</trkpt>
<trkpt lat="49.24046700820327" lon="9.348469711840153">
<ele>165</ele>
<time>2024-05-08T09:59:57Z</time>
</trkpt>
<trkpt lat="49.24047086387873" lon="9.34843534603715">
<ele>165</ele>
<time>2024-05-08T09:59:58Z</time>
</trkpt>
<trkpt lat="49.24046700820327" lon="9.348349515348673">
<ele>165</ele>
<time>2024-05-08T09:59:59Z</time>
</trkpt>
<trkpt lat="49.24046323634684" lon="9.34829520061612">
<ele>165</ele>
<time>2024-05-08T10:00:00Z</time>
</trkpt>
<trkpt lat="49.240455608814955" lon="9.34823795221746">
<ele>165</ele>
<time>2024-05-08T10:00:02Z</time>
</trkpt>
<trkpt lat="49.24044412560761" lon="9.348186487331986">
<ele>165</ele>
<time>2024-05-08T10:00:03Z</time>
</trkpt>
<trkpt lat="49.24043649807573" lon="9.348072996363044">
<ele>165</ele>
<time>2024-05-08T10:00:04Z</time>
</trkpt>
<trkpt lat="49.24043649807573" lon="9.348008120432496">
<ele>165</ele>
<time>2024-05-08T10:00:05Z</time>
</trkpt>
<trkpt lat="49.24042887054384" lon="9.347945172339678">
<ele>165</ele>
<time>2024-05-08T10:00:07Z</time>
</trkpt>
<trkpt lat="49.24042509868741" lon="9.34788130223751">
<ele>165</ele>
<time>2024-05-08T10:00:08Z</time>
</trkpt>
<trkpt lat="49.24042509868741" lon="9.347818354144692">
<ele>165</ele>
<time>2024-05-08T10:00:09Z</time>
</trkpt>
<trkpt lat="49.24042124301195" lon="9.347695307806134">
<ele>165</ele>
<time>2024-05-08T10:00:10Z</time>
</trkpt>
<trkpt lat="49.24042124301195" lon="9.347619954496622">
<ele>165</ele>
<time>2024-05-08T10:00:11Z</time>
</trkpt>
<trkpt lat="49.24041747115552" lon="9.347551306709647">
<ele>165</ele>
<time>2024-05-08T10:00:13Z</time>
</trkpt>
<trkpt lat="49.24040984362364" lon="9.347418705001472">
<ele>165</ele>
<time>2024-05-08T10:00:14Z</time>
</trkpt>
<trkpt lat="49.24040984362364" lon="9.347351985052228">
<ele>165</ele>
<time>2024-05-08T10:00:15Z</time>
</trkpt>
<trkpt lat="49.24040221609175" lon="9.347286187112331">
<ele>165</ele>
<time>2024-05-08T10:00:17Z</time>
</trkpt>
<trkpt lat="49.24038696102798" lon="9.347158363088964">
<ele>165</ele>
<time>2024-05-08T10:00:18Z</time>
</trkpt>
<trkpt lat="49.240379333496094" lon="9.34709357097745">
<ele>165</ele>
<time>2024-05-08T10:00:19Z</time>
</trkpt>
<trkpt lat="49.24036785028875" lon="9.347028695046902">
<ele>165</ele>
<time>2024-05-08T10:00:20Z</time>
</trkpt>
<trkpt lat="49.24035636708141" lon="9.346964824944736">
<ele>165</ele>
<time>2024-05-08T10:00:22Z</time>
</trkpt>
<trkpt lat="49.24034496769309" lon="9.346898021176456">
<ele>165</ele>
<time>2024-05-08T10:00:23Z</time>
</trkpt>
<trkpt lat="49.24032971262932" lon="9.346771202981472">
<ele>165</ele>
<time>2024-05-08T10:00:24Z</time>
</trkpt>
<trkpt lat="49.24031822942197" lon="9.346710182726383">
<ele>165</ele>
<time>2024-05-08T10:00:26Z</time>
</trkpt>
<trkpt lat="49.240295346826315" lon="9.346585208550096">
<ele>165</ele>
<time>2024-05-08T10:00:27Z</time>
</trkpt>
<trkpt lat="49.240283947438" lon="9.346521338447928">
<ele>165</ele>
<time>2024-05-08T10:00:29Z</time>
</trkpt>
<trkpt lat="49.24027246423066" lon="9.34645646251738">
<ele>165</ele>
<time>2024-05-08T10:00:30Z</time>
</trkpt>
<trkpt lat="49.24025720916688" lon="9.346391670405865">
<ele>165</ele>
<time>2024-05-08T10:00:31Z</time>
</trkpt>
<trkpt lat="49.24024195410311" lon="9.346326794475315">
<ele>165</ele>
<time>2024-05-08T10:00:32Z</time>
</trkpt>
<trkpt lat="49.24021144397557" lon="9.346197126433252">
<ele>165.2</ele>
<time>2024-05-08T10:00:34Z</time>
</trkpt>
<trkpt lat="49.24019996076822" lon="9.346137028187512">
<ele>165.2</ele>
<time>2024-05-08T10:00:35Z</time>
</trkpt>
<trkpt lat="49.24018856137991" lon="9.346077851951122">
<ele>165.4</ele>
<time>2024-05-08T10:00:36Z</time>
</trkpt>
<trkpt lat="49.24016182310879" lon="9.345956733450294">
<ele>165.4</ele>
<time>2024-05-08T10:00:37Z</time>
</trkpt>
<trkpt lat="49.24014279618859" lon="9.345898563042285">
<ele>165.4</ele>
<time>2024-05-08T10:00:39Z</time>
</trkpt>
<trkpt lat="49.24010843038559" lon="9.345771744847298">
<ele>165.6</ele>
<time>2024-05-08T10:00:40Z</time>
</trkpt>
<trkpt lat="49.24009317532182" lon="9.345711646601558">
<ele>165.6</ele>
<time>2024-05-08T10:00:41Z</time>
</trkpt>
<trkpt lat="49.240081775933504" lon="9.345651548355818">
<ele>165.6</ele>
<time>2024-05-08T10:00:43Z</time>
</trkpt>
<trkpt lat="49.24006652086973" lon="9.345593377947807">
<ele>165.6</ele>
<time>2024-05-08T10:00:44Z</time>
</trkpt>
<trkpt lat="49.24005503766239" lon="9.345542835071685">
<ele>165.6</ele>
<time>2024-05-08T10:00:45Z</time>
</trkpt>
<trkpt lat="49.24002829939127" lon="9.345439905300736">
<ele>165.6</ele>
<time>2024-05-08T10:00:46Z</time>
</trkpt>
<trkpt lat="49.2400130443275" lon="9.345384584739804">
<ele>165.6</ele>
<time>2024-05-08T10:00:47Z</time>
</trkpt>
<trkpt lat="49.240001644939184" lon="9.345328258350492">
<ele>165.8</ele>
<time>2024-05-08T10:00:49Z</time>
</trkpt>
<trkpt lat="49.23997113481164" lon="9.345216695219278">
<ele>165.8</ele>
<time>2024-05-08T10:00:50Z</time>
</trkpt>
<trkpt lat="49.239959651604295" lon="9.345163302496076">
<ele>165.8</ele>
<time>2024-05-08T10:00:51Z</time>
</trkpt>
<trkpt lat="49.23994439654052" lon="9.345109909772871">
<ele>165.8</ele>
<time>2024-05-08T10:00:52Z</time>
</trkpt>
<trkpt lat="49.23993299715221" lon="9.345053667202592">
<ele>166</ele>
<time>2024-05-08T10:00:53Z</time>
</trkpt>
<trkpt lat="49.23991774208844" lon="9.344993568956852">
<ele>166</ele>
<time>2024-05-08T10:00:54Z</time>
</trkpt>
<trkpt lat="49.23990625888109" lon="9.344933470711112">
<ele>166</ele>
<time>2024-05-08T10:00:55Z</time>
</trkpt>
<trkpt lat="49.23988723196089" lon="9.344873372465372">
<ele>166</ele>
<time>2024-05-08T10:00:56Z</time>
</trkpt>
<trkpt lat="49.23987197689712" lon="9.344816207885742">
<ele>166</ele>
<time>2024-05-08T10:00:58Z</time>
</trkpt>
<trkpt lat="49.239841382950544" lon="9.34469978325069">
<ele>165.8</ele>
<time>2024-05-08T10:01:00Z</time>
</trkpt>
<trkpt lat="49.239818500354886" lon="9.344574892893434">
<ele>165.8</ele>
<time>2024-05-08T10:01:01Z</time>
</trkpt>
<trkpt lat="49.239810872823" lon="9.344508089125156">
<ele>165.8</ele>
<time>2024-05-08T10:01:03Z</time>
</trkpt>
<trkpt lat="49.239803245291114" lon="9.344440447166562">
<ele>165.8</ele>
<time>2024-05-08T10:01:04Z</time>
</trkpt>
<trkpt lat="49.23979561775923" lon="9.344298290088773">
<ele>166</ele>
<time>2024-05-08T10:01:06Z</time>
</trkpt>
<trkpt lat="49.2397918459028" lon="9.344158144667745">
<ele>166</ele>
<time>2024-05-08T10:01:08Z</time>
</trkpt>
<trkpt lat="49.23979561775923" lon="9.344021771103144">
<ele>165.8</ele>
<time>2024-05-08T10:01:09Z</time>
</trkpt>
<trkpt lat="49.23979561775923" lon="9.343954967334868">
<ele>165.8</ele>
<time>2024-05-08T10:01:10Z</time>
</trkpt>
<trkpt lat="49.239803245291114" lon="9.34388824738562">
<ele>166</ele>
<time>2024-05-08T10:01:11Z</time>
</trkpt>
<trkpt lat="49.239803245291114" lon="9.343819599598646">
<ele>166</ele>
<time>2024-05-08T10:01:13Z</time>
</trkpt>
<trkpt lat="49.23980710096657" lon="9.34375380165875">
<ele>166</ele>
<time>2024-05-08T10:01:14Z</time>
</trkpt>
<trkpt lat="49.23980710096657" lon="9.343685070052745">
<ele>166</ele>
<time>2024-05-08T10:01:15Z</time>
</trkpt>
<trkpt lat="49.239810872823" lon="9.343556324020028">
<ele>165.8</ele>
<time>2024-05-08T10:01:16Z</time>
</trkpt>
<trkpt lat="49.23981472849846" lon="9.343493459746242">
<ele>165.8</ele>
<time>2024-05-08T10:01:17Z</time>
</trkpt>
<trkpt lat="49.23981472849846" lon="9.343426655977964">
<ele>165.8</ele>
<time>2024-05-08T10:01:19Z</time>
</trkpt>
<trkpt lat="49.23982612788677" lon="9.343291204422712">
<ele>165.8</ele>
<time>2024-05-08T10:01:21Z</time>
</trkpt>
<trkpt lat="49.239841382950544" lon="9.343148209154606">
<ele>165.6</ele>
<time>2024-05-08T10:01:22Z</time>
</trkpt>
<trkpt lat="49.23984901048243" lon="9.34307662770152">
<ele>165.8</ele>
<time>2024-05-08T10:01:23Z</time>
</trkpt>
<trkpt lat="49.23985286615789" lon="9.34300135821104">
<ele>165.8</ele>
<time>2024-05-08T10:01:24Z</time>
</trkpt>
<trkpt lat="49.23985663801432" lon="9.342926926910875">
<ele>165.8</ele>
<time>2024-05-08T10:01:25Z</time>
</trkpt>
<trkpt lat="49.239860493689775" lon="9.342853501439096">
<ele>165.8</ele>
<time>2024-05-08T10:01:26Z</time>
</trkpt>
<trkpt lat="49.239864349365234" lon="9.34278200380504">
<ele>165.8</ele>
<time>2024-05-08T10:01:28Z</time>
</trkpt>
<trkpt lat="49.23987197689712" lon="9.34270665049553">
<ele>165.8</ele>
<time>2024-05-08T10:01:29Z</time>
</trkpt>
<trkpt lat="49.23989100381732" lon="9.34254638850689">
<ele>165.8</ele>
<time>2024-05-08T10:01:30Z</time>
</trkpt>
<trkpt lat="49.239898631349206" lon="9.3424663413316">
<ele>165.8</ele>
<time>2024-05-08T10:01:31Z</time>
</trkpt>
<trkpt lat="49.23990625888109" lon="9.34238813817501">
<ele>165.8</ele>
<time>2024-05-08T10:01:32Z</time>
</trkpt>
<trkpt lat="49.23991388641298" lon="9.34230800718069">
<ele>165.8</ele>
<time>2024-05-08T10:01:34Z</time>
</trkpt>
<trkpt lat="49.23992536962032" lon="9.34214967302978">
<ele>165.8</ele>
<time>2024-05-08T10:01:36Z</time>
</trkpt>
<trkpt lat="49.23993676900864" lon="9.341983795166016">
<ele>165.8</ele>
<time>2024-05-08T10:01:38Z</time>
</trkpt>
<trkpt lat="49.239959651604295" lon="9.341813055798411">
<ele>165.8</ele>
<time>2024-05-08T10:01:40Z</time>
</trkpt>
<trkpt lat="49.23997490666807" lon="9.341648099943995">
<ele>165.6</ele>
<time>2024-05-08T10:01:41Z</time>
</trkpt>
<trkpt lat="49.23998253419995" lon="9.341567968949676">
<ele>165.4</ele>
<time>2024-05-08T10:01:42Z</time>
</trkpt>
<trkpt lat="49.23999016173184" lon="9.341489765793083">
<ele>165.4</ele>
<time>2024-05-08T10:01:44Z</time>
</trkpt>
<trkpt lat="49.24000541679561" lon="9.341349536553023">
<ele>165.2</ele>
<time>2024-05-08T10:01:46Z</time>
</trkpt>
<trkpt lat="49.24003215506673" lon="9.341217940673232">
<ele>165</ele>
<time>2024-05-08T10:01:47Z</time>
</trkpt>
<trkpt lat="49.240043638274074" lon="9.34114451520145">
<ele>164.8</ele>
<time>2024-05-08T10:01:48Z</time>
</trkpt>
<trkpt lat="49.24005126580596" lon="9.341059606522322">
<ele>164.8</ele>
<time>2024-05-08T10:01:50Z</time>
</trkpt>
<trkpt lat="49.24006652086973" lon="9.340887945145369">
<ele>164.4</ele>
<time>2024-05-08T10:01:51Z</time>
</trkpt>
<trkpt lat="49.24007029272616" lon="9.340805048123002">
<ele>164.4</ele>
<time>2024-05-08T10:01:52Z</time>
</trkpt>
<trkpt lat="49.240077920258045" lon="9.340722067281604">
<ele>164.2</ele>
<time>2024-05-08T10:01:53Z</time>
</trkpt>
<trkpt lat="49.24008554778993" lon="9.340640008449554">
<ele>164.2</ele>
<time>2024-05-08T10:01:54Z</time>
</trkpt>
<trkpt lat="49.24009317532182" lon="9.340559877455236">
<ele>164</ele>
<time>2024-05-08T10:01:55Z</time>
</trkpt>
<trkpt lat="49.24010465852916" lon="9.340477902442217">
<ele>164</ele>
<time>2024-05-08T10:01:56Z</time>
</trkpt>
<trkpt lat="49.24010843038559" lon="9.340398777276278">
<ele>164</ele>
<time>2024-05-08T10:01:57Z</time>
</trkpt>
<trkpt lat="49.24011605791747" lon="9.340319568291306">
<ele>163.8</ele>
<time>2024-05-08T10:01:58Z</time>
</trkpt>
<trkpt lat="49.24012368544936" lon="9.340243292972444">
<ele>163.8</ele>
<time>2024-05-08T10:01:59Z</time>
</trkpt>
<trkpt lat="49.24013131298125" lon="9.340167017653584">
<ele>163.8</ele>
<time>2024-05-08T10:02:00Z</time>
</trkpt>
<trkpt lat="49.24013516865671" lon="9.340087808668612">
<ele>163.8</ele>
<time>2024-05-08T10:02:01Z</time>
</trkpt>
<trkpt lat="49.240138940513134" lon="9.340011533349752">
<ele>163.8</ele>
<time>2024-05-08T10:02:02Z</time>
</trkpt>
<trkpt lat="49.24014656804502" lon="9.339935258030891">
<ele>163.8</ele>
<time>2024-05-08T10:02:03Z</time>
</trkpt>
<trkpt lat="49.24014656804502" lon="9.33985797688365">
<ele>163.8</ele>
<time>2024-05-08T10:02:04Z</time>
</trkpt>
<trkpt lat="49.24014656804502" lon="9.339781701564789">
<ele>163.8</ele>
<time>2024-05-08T10:02:05Z</time>
</trkpt>
<trkpt lat="49.24015042372048" lon="9.339708276093006">
<ele>163.8</ele>
<time>2024-05-08T10:02:06Z</time>
</trkpt>
<trkpt lat="49.24015042372048" lon="9.339634850621223">
<ele>163.8</ele>
<time>2024-05-08T10:02:07Z</time>
</trkpt>
<trkpt lat="49.24015042372048" lon="9.33956335298717">
<ele>163.8</ele>
<time>2024-05-08T10:02:08Z</time>
</trkpt>
<trkpt lat="49.24015042372048" lon="9.339486993849276">
<ele>163.8</ele>
<time>2024-05-08T10:02:09Z</time>
</trkpt>
<trkpt lat="49.24015042372048" lon="9.339411724358795">
<ele>163.8</ele>
<time>2024-05-08T10:02:10Z</time>
</trkpt>
<trkpt lat="49.24014656804502" lon="9.339335365220904">
<ele>163.6</ele>
<time>2024-05-08T10:02:12Z</time>
</trkpt>
<trkpt lat="49.24014279618859" lon="9.33918851427734">
<ele>163.6</ele>
<time>2024-05-08T10:02:14Z</time>
</trkpt>
<trkpt lat="49.24014656804502" lon="9.339115088805556">
<ele>163.8</ele>
<time>2024-05-08T10:02:15Z</time>
</trkpt>
<trkpt lat="49.24018093384802" lon="9.33898634277284">
<ele>163.8</ele>
<time>2024-05-08T10:02:16Z</time>
</trkpt>
<trkpt lat="49.24021144397557" lon="9.338934877887368">
<ele>163.6</ele>
<time>2024-05-08T10:02:17Z</time>
</trkpt>
<trkpt lat="49.24025343731046" lon="9.338898584246635">
<ele>163.6</ele>
<time>2024-05-08T10:02:18Z</time>
</trkpt>
<trkpt lat="49.240299202501774" lon="9.33887192979455">
<ele>163.6</ele>
<time>2024-05-08T10:02:20Z</time>
</trkpt>
<trkpt lat="49.24038310535252" lon="9.338845191523433">
<ele>163.4</ele>
<time>2024-05-08T10:02:21Z</time>
</trkpt>
<trkpt lat="49.24041747115552" lon="9.338820381090043">
<ele>163.2</ele>
<time>2024-05-08T10:02:22Z</time>
</trkpt>
<trkpt lat="49.24044035375118" lon="9.338781321421266">
<ele>163.2</ele>
<time>2024-05-08T10:02:23Z</time>
</trkpt>
<trkpt lat="49.24044798128307" lon="9.338729856535792">
<ele>163</ele>
<time>2024-05-08T10:02:25Z</time>
</trkpt>
<trkpt lat="49.24043649807573" lon="9.33861636556685">
<ele>162.8</ele>
<time>2024-05-08T10:02:26Z</time>
</trkpt>
<trkpt lat="49.24042124301195" lon="9.33855819515884">
<ele>162.6</ele>
<time>2024-05-08T10:02:27Z</time>
</trkpt>
<trkpt lat="49.24040984362364" lon="9.338499940931795">
<ele>162.4</ele>
<time>2024-05-08T10:02:28Z</time>
</trkpt>
<trkpt lat="49.24039836041629" lon="9.33843799866736">
<ele>162.2</ele>
<time>2024-05-08T10:02:29Z</time>
</trkpt>
<trkpt lat="49.24038310535252" lon="9.33837697841227">
<ele>162.2</ele>
<time>2024-05-08T10:02:30Z</time>
</trkpt>
<trkpt lat="49.240371622145176" lon="9.338312102481725">
<ele>162</ele>
<time>2024-05-08T10:02:31Z</time>
</trkpt>
<trkpt lat="49.24035636708141" lon="9.338245382532476">
<ele>162</ele>
<time>2024-05-08T10:02:32Z</time>
</trkpt>
<trkpt lat="49.24034496769309" lon="9.33817958459258">
<ele>161.8</ele>
<time>2024-05-08T10:02:33Z</time>
</trkpt>
<trkpt lat="49.240333484485745" lon="9.338113702833652">
<ele>161.8</ele>
<time>2024-05-08T10:02:34Z</time>
</trkpt>
<trkpt lat="49.24031822942197" lon="9.338046982884409">
<ele>161.8</ele>
<time>2024-05-08T10:02:35Z</time>
</trkpt>
<trkpt lat="49.24030683003366" lon="9.33798118494451">
<ele>161.6</ele>
<time>2024-05-08T10:02:36Z</time>
</trkpt>
<trkpt lat="49.240295346826315" lon="9.337915387004614">
<ele>161.6</ele>
<time>2024-05-08T10:02:37Z</time>
</trkpt>
<trkpt lat="49.24028009176254" lon="9.33784673921764">
<ele>161.6</ele>
<time>2024-05-08T10:02:38Z</time>
</trkpt>
<trkpt lat="49.24026869237423" lon="9.337779935449362">
<ele>161.6</ele>
<time>2024-05-08T10:02:39Z</time>
</trkpt>
<trkpt lat="49.24025720916688" lon="9.337711287662389">
<ele>161.6</ele>
<time>2024-05-08T10:02:40Z</time>
</trkpt>
<trkpt lat="49.24024580977857" lon="9.337641634047031">
<ele>161.6</ele>
<time>2024-05-08T10:02:41Z</time>
</trkpt>
<trkpt lat="49.240234326571226" lon="9.337572986260056">
<ele>161.6</ele>
<time>2024-05-08T10:02:42Z</time>
</trkpt>
<trkpt lat="49.24022292718291" lon="9.33750526048243">
<ele>161.6</ele>
<time>2024-05-08T10:02:43Z</time>
</trkpt>
<trkpt lat="49.24021144397557" lon="9.337436612695456">
<ele>161.6</ele>
<time>2024-05-08T10:02:44Z</time>
</trkpt>
<trkpt lat="49.24019996076822" lon="9.337367042899132">
<ele>161.6</ele>
<time>2024-05-08T10:02:45Z</time>
</trkpt>
<trkpt lat="49.24018856137991" lon="9.337296467274427">
<ele>161.6</ele>
<time>2024-05-08T10:02:46Z</time>
</trkpt>
<trkpt lat="49.240177078172565" lon="9.337226813659072">
<ele>161.6</ele>
<time>2024-05-08T10:02:47Z</time>
</trkpt>
<trkpt lat="49.24016567878425" lon="9.337156238034368">
<ele>161.6</ele>
<time>2024-05-08T10:02:48Z</time>
</trkpt>
<trkpt lat="49.240154195576906" lon="9.337084740400314">
<ele>161.6</ele>
<time>2024-05-08T10:02:49Z</time>
</trkpt>
<trkpt lat="49.24014279618859" lon="9.33701324276626">
<ele>161.6</ele>
<time>2024-05-08T10:02:50Z</time>
</trkpt>
<trkpt lat="49.24013516865671" lon="9.336941661313176">
<ele>161.4</ele>
<time>2024-05-08T10:02:51Z</time>
</trkpt>
<trkpt lat="49.240119913592935" lon="9.336870163679125">
<ele>161.4</ele>
<time>2024-05-08T10:02:52Z</time>
</trkpt>
<trkpt lat="49.24010843038559" lon="9.33679866604507">
<ele>161.2</ele>
<time>2024-05-08T10:02:53Z</time>
</trkpt>
<trkpt lat="49.24009317532182" lon="9.336728090420364">
<ele>161.2</ele>
<time>2024-05-08T10:02:54Z</time>
</trkpt>
<trkpt lat="49.240077920258045" lon="9.33665650896728">
<ele>161.2</ele>
<time>2024-05-08T10:02:55Z</time>
</trkpt>
<trkpt lat="49.24006652086973" lon="9.336586939170957">
<ele>161.2</ele>
<time>2024-05-08T10:02:57Z</time>
</trkpt>
<trkpt lat="49.24005126580596" lon="9.336515357717872">
<ele>161.2</ele>
<time>2024-05-08T10:02:58Z</time>
</trkpt>
<trkpt lat="49.24002829939127" lon="9.336370434612036">
<ele>161.2</ele>
<time>2024-05-08T10:02:59Z</time>
</trkpt>
<trkpt lat="49.24001690000296" lon="9.336297931149602">
<ele>161.4</ele>
<time>2024-05-08T10:03:00Z</time>
</trkpt>
<trkpt lat="49.24000541679561" lon="9.336226433515549">
<ele>161.4</ele>
<time>2024-05-08T10:03:01Z</time>
</trkpt>
<trkpt lat="49.2399940174073" lon="9.336154935881495">
<ele>161.4</ele>
<time>2024-05-08T10:03:02Z</time>
</trkpt>
<trkpt lat="49.239978762343526" lon="9.33608528226614">
<ele>161.6</ele>
<time>2024-05-08T10:03:03Z</time>
</trkpt>
<trkpt lat="49.239963507279754" lon="9.336016634479163">
<ele>161.6</ele>
<time>2024-05-08T10:03:04Z</time>
</trkpt>
<trkpt lat="49.23994825221598" lon="9.33594698086381">
<ele>161.6</ele>
<time>2024-05-08T10:03:05Z</time>
</trkpt>
<trkpt lat="49.23993299715221" lon="9.335878333076836">
<ele>161.6</ele>
<time>2024-05-08T10:03:06Z</time>
</trkpt>
<trkpt lat="49.23991388641298" lon="9.33580968528986">
<ele>161.6</ele>
<time>2024-05-08T10:03:08Z</time>
</trkpt>
<trkpt lat="49.23987197689712" lon="9.335679933428764">
<ele>161.8</ele>
<time>2024-05-08T10:03:09Z</time>
</trkpt>
<trkpt lat="49.23984901048243" lon="9.335616985335946">
<ele>161.8</ele>
<time>2024-05-08T10:03:10Z</time>
</trkpt>
<trkpt lat="49.23982612788677" lon="9.33555311523378">
<ele>161.8</ele>
<time>2024-05-08T10:03:11Z</time>
</trkpt>
<trkpt lat="49.239803245291114" lon="9.335488239303231">
<ele>161.8</ele>
<time>2024-05-08T10:03:12Z</time>
</trkpt>
<trkpt lat="49.239780362695456" lon="9.335426297038794">
<ele>161.8</ele>
<time>2024-05-08T10:03:13Z</time>
</trkpt>
<trkpt lat="49.239761335775256" lon="9.335365276783705">
<ele>161.8</ele>
<time>2024-05-08T10:03:14Z</time>
</trkpt>
<trkpt lat="49.2397384531796" lon="9.335301322862506">
<ele>161.8</ele>
<time>2024-05-08T10:03:15Z</time>
</trkpt>
<trkpt lat="49.23971557058394" lon="9.33523653075099">
<ele>161.8</ele>
<time>2024-05-08T10:03:17Z</time>
</trkpt>
<trkpt lat="49.23968497663736" lon="9.335100157186387">
<ele>161.8</ele>
<time>2024-05-08T10:03:18Z</time>
</trkpt>
<trkpt lat="49.23966972157359" lon="9.335033353418112">
<ele>161.8</ele>
<time>2024-05-08T10:03:19Z</time>
</trkpt>
<trkpt lat="49.23965832218528" lon="9.334968561306596">
<ele>161.8</ele>
<time>2024-05-08T10:03:20Z</time>
</trkpt>
<trkpt lat="49.239643067121506" lon="9.334908463060856">
<ele>161.8</ele>
<time>2024-05-08T10:03:21Z</time>
</trkpt>
<trkpt lat="49.23963158391416" lon="9.334851214662194">
<ele>161.8</ele>
<time>2024-05-08T10:03:22Z</time>
</trkpt>
<trkpt lat="49.239623956382275" lon="9.334803521633148">
<ele>161.8</ele>
<time>2024-05-08T10:03:23Z</time>
</trkpt>
<trkpt lat="49.23962018452585" lon="9.33475968427956">
<ele>162</ele>
<time>2024-05-08T10:03:25Z</time>
</trkpt>
<trkpt lat="49.239604929462075" lon="9.3346834089607">
<ele>162.2</ele>
<time>2024-05-08T10:03:27Z</time>
</trkpt>
<trkpt lat="49.2395896743983" lon="9.3346194550395">
<ele>162.6</ele>
<time>2024-05-08T10:03:29Z</time>
</trkpt>
<trkpt lat="49.23957441933453" lon="9.334593722596765">
<ele>162.8</ele>
<time>2024-05-08T10:03:30Z</time>
</trkpt>
<trkpt lat="49.23954005353153" lon="9.334569917991756">
<ele>163.2</ele>
<time>2024-05-08T10:03:32Z</time>
</trkpt>
<trkpt lat="49.23953242599964" lon="9.334571762010455">
<ele>163.4</ele>
<time>2024-05-08T10:03:33Z</time>
</trkpt>
<trkpt lat="49.23952102661133" lon="9.334571762010455">
<ele>163.8</ele>
<time>2024-05-08T10:03:35Z</time>
</trkpt>
<trkpt lat="49.23951331526041" lon="9.334573689848185">
<ele>164</ele>
<time>2024-05-08T10:03:36Z</time>
</trkpt>
<trkpt lat="49.23949806019664" lon="9.334578467532992">
<ele>164.4</ele>
<time>2024-05-08T10:03:37Z</time>
</trkpt>
<trkpt lat="49.239482805132866" lon="9.334587017074227">
<ele>164.6</ele>
<time>2024-05-08T10:03:39Z</time>
</trkpt>
<trkpt lat="49.23946377821267" lon="9.334593722596765">
<ele>164.6</ele>
<time>2024-05-08T10:03:40Z</time>
</trkpt>
<trkpt lat="49.239444667473435" lon="9.334596572443845">
<ele>164.6</ele>
<time>2024-05-08T10:03:41Z</time>
</trkpt>
<trkpt lat="49.23942178487778" lon="9.334600428119302">
<ele>164.8</ele>
<time>2024-05-08T10:03:42Z</time>
</trkpt>
<trkpt lat="49.23939890228212" lon="9.334608055651188">
<ele>164.8</ele>
<time>2024-05-08T10:03:43Z</time>
</trkpt>
<trkpt lat="49.23937987536192" lon="9.334611827507617">
<ele>164.8</ele>
<time>2024-05-08T10:03:44Z</time>
</trkpt>
<trkpt lat="49.23934165388346" lon="9.334576539695265">
<ele>165</ele>
<time>2024-05-08T10:03:45Z</time>
</trkpt>
<trkpt lat="49.23932262696326" lon="9.334553657099605">
<ele>165</ele>
<time>2024-05-08T10:03:46Z</time>
</trkpt>
<trkpt lat="49.23930351622403" lon="9.334531780332329">
<ele>165</ele>
<time>2024-05-08T10:03:47Z</time>
</trkpt>
<trkpt lat="49.23928448930383" lon="9.334513591602445">
<ele>165</ele>
<time>2024-05-08T10:03:49Z</time>
</trkpt>
<trkpt lat="49.2392463516444" lon="9.33448500931263">
<ele>165.2</ele>
<time>2024-05-08T10:03:50Z</time>
</trkpt>
<trkpt lat="49.239231096580625" lon="9.334469754248856">
<ele>165.4</ele>
<time>2024-05-08T10:03:52Z</time>
</trkpt>
<trkpt lat="49.23920058645308" lon="9.334429688751698">
<ele>165.6</ele>
<time>2024-05-08T10:03:54Z</time>
</trkpt>
<trkpt lat="49.23918147571385" lon="9.334373446181417">
<ele>165.8</ele>
<time>2024-05-08T10:03:55Z</time>
</trkpt>
<trkpt lat="49.23917384818196" lon="9.334340086206794">
<ele>166</ele>
<time>2024-05-08T10:03:57Z</time>
</trkpt>
<trkpt lat="49.23915859311819" lon="9.334318125620484">
<ele>166</ele>
<time>2024-05-08T10:03:58Z</time>
</trkpt>
<trkpt lat="49.239128082990646" lon="9.334302870556712">
<ele>166.2</ele>
<time>2024-05-08T10:03:59Z</time>
</trkpt>
<trkpt lat="49.239108972251415" lon="9.334302870556712">
<ele>166.2</ele>
<time>2024-05-08T10:04:01Z</time>
</trkpt>
<trkpt lat="49.23907469026744" lon="9.334296165034177">
<ele>166.2</ele>
<time>2024-05-08T10:04:03Z</time>
</trkpt>
<trkpt lat="49.23905557952821" lon="9.334295243024826">
<ele>166.2</ele>
<time>2024-05-08T10:04:04Z</time>
</trkpt>
<trkpt lat="49.23903655260801" lon="9.334293315187097">
<ele>166.2</ele>
<time>2024-05-08T10:04:05Z</time>
</trkpt>
<trkpt lat="49.239013670012355" lon="9.33428954333067">
<ele>166.2</ele>
<time>2024-05-08T10:04:06Z</time>
</trkpt>
<trkpt lat="49.238971676677465" lon="9.334281915798783">
<ele>166.4</ele>
<time>2024-05-08T10:04:08Z</time>
</trkpt>
<trkpt lat="49.23892591148615" lon="9.334264732897282">
<ele>166.6</ele>
<time>2024-05-08T10:04:10Z</time>
</trkpt>
<trkpt lat="49.23888391815126" lon="9.334241850301623">
<ele>166.8</ele>
<time>2024-05-08T10:04:11Z</time>
</trkpt>
<trkpt lat="49.23886489123106" lon="9.334226595237851">
<ele>167</ele>
<time>2024-05-08T10:04:12Z</time>
</trkpt>
<trkpt lat="49.2388420086354" lon="9.334210334345698">
<ele>167</ele>
<time>2024-05-08T10:04:14Z</time>
</trkpt>
<trkpt lat="49.2388076428324" lon="9.33416842482984">
<ele>167.2</ele>
<time>2024-05-08T10:04:15Z</time>
</trkpt>
<trkpt lat="49.238792387768626" lon="9.334146464243531">
<ele>167.4</ele>
<time>2024-05-08T10:04:17Z</time>
</trkpt>
<trkpt lat="49.23875802196562" lon="9.33409022167325">
<ele>167.6</ele>
<time>2024-05-08T10:04:18Z</time>
</trkpt>
<trkpt lat="49.23873899504542" lon="9.334058705717323">
<ele>167.8</ele>
<time>2024-05-08T10:04:19Z</time>
</trkpt>
<trkpt lat="49.23872373998165" lon="9.334025345742702">
<ele>168</ele>
<time>2024-05-08T10:04:21Z</time>
</trkpt>
<trkpt lat="49.238697001710534" lon="9.333952842280269">
<ele>168.4</ele>
<time>2024-05-08T10:04:22Z</time>
</trkpt>
<trkpt lat="49.23868174664676" lon="9.333914704620838">
<ele>168.6</ele>
<time>2024-05-08T10:04:23Z</time>
</trkpt>
<trkpt lat="49.23867034725845" lon="9.333874639123678">
<ele>168.8</ele>
<time>2024-05-08T10:04:24Z</time>
</trkpt>
<trkpt lat="49.23866271972656" lon="9.33383365161717">
<ele>169</ele>
<time>2024-05-08T10:04:25Z</time>
</trkpt>
<trkpt lat="49.23865123651922" lon="9.33379165828228">
<ele>169.2</ele>
<time>2024-05-08T10:04:26Z</time>
</trkpt>
<trkpt lat="49.23863975331187" lon="9.333746898919344">
<ele>169.2</ele>
<time>2024-05-08T10:04:27Z</time>
</trkpt>
<trkpt lat="49.2386244982481" lon="9.333702055737376">
<ele>169.4</ele>
<time>2024-05-08T10:04:28Z</time>
</trkpt>
<trkpt lat="49.23861309885979" lon="9.33365629054606">
<ele>169.4</ele>
<time>2024-05-08T10:04:29Z</time>
</trkpt>
<trkpt lat="49.2386054713279" lon="9.333608597517014">
<ele>169.6</ele>
<time>2024-05-08T10:04:30Z</time>
</trkpt>
<trkpt lat="49.23859398812056" lon="9.33355998247862">
<ele>169.6</ele>
<time>2024-05-08T10:04:31Z</time>
</trkpt>
<trkpt lat="49.23858636058867" lon="9.333511283621192">
<ele>169.6</ele>
<time>2024-05-08T10:04:32Z</time>
</trkpt>
<trkpt lat="49.23857496120036" lon="9.333463590592146">
<ele>169.8</ele>
<time>2024-05-08T10:04:33Z</time>
</trkpt>
<trkpt lat="49.2385711055249" lon="9.333413047716022">
<ele>169.8</ele>
<time>2024-05-08T10:04:34Z</time>
</trkpt>
<trkpt lat="49.238559706136584" lon="9.333361582830548">
<ele>169.8</ele>
<time>2024-05-08T10:04:35Z</time>
</trkpt>
<trkpt lat="49.2385520786047" lon="9.333310117945077">
<ele>169.8</ele>
<time>2024-05-08T10:04:36Z</time>
</trkpt>
<trkpt lat="49.23854445107281" lon="9.33325957506895">
<ele>170</ele>
<time>2024-05-08T10:04:37Z</time>
</trkpt>
<trkpt lat="49.238536823540926" lon="9.333208026364446">
<ele>170</ele>
<time>2024-05-08T10:04:38Z</time>
</trkpt>
<trkpt lat="49.23852534033358" lon="9.333158489316702">
<ele>170.2</ele>
<time>2024-05-08T10:04:39Z</time>
</trkpt>
<trkpt lat="49.238517712801695" lon="9.333107946440578">
<ele>170.2</ele>
<time>2024-05-08T10:04:40Z</time>
</trkpt>
<trkpt lat="49.23851008526981" lon="9.333056397736073">
<ele>170.4</ele>
<time>2024-05-08T10:04:41Z</time>
</trkpt>
<trkpt lat="49.23849483020604" lon="9.3330049328506">
<ele>170.4</ele>
<time>2024-05-08T10:04:42Z</time>
</trkpt>
<trkpt lat="49.23848334699869" lon="9.332953384146094">
<ele>170.4</ele>
<time>2024-05-08T10:04:44Z</time>
</trkpt>
<trkpt lat="49.23846432007849" lon="9.332851376384497">
<ele>170.6</ele>
<time>2024-05-08T10:04:45Z</time>
</trkpt>
<trkpt lat="49.23845283687115" lon="9.332797983661294">
<ele>170.6</ele>
<time>2024-05-08T10:04:46Z</time>
</trkpt>
<trkpt lat="49.238441437482834" lon="9.332744590938091">
<ele>170.6</ele>
<time>2024-05-08T10:04:47Z</time>
</trkpt>
<trkpt lat="49.23842995427549" lon="9.332694970071316">
<ele>170.8</ele>
<time>2024-05-08T10:04:48Z</time>
</trkpt>
<trkpt lat="49.238418554887176" lon="9.332643505185844">
<ele>170.8</ele>
<time>2024-05-08T10:04:49Z</time>
</trkpt>
<trkpt lat="49.23840707167983" lon="9.332592962309718">
<ele>171</ele>
<time>2024-05-08T10:04:50Z</time>
</trkpt>
<trkpt lat="49.23839567229152" lon="9.332541413605211">
<ele>171</ele>
<time>2024-05-08T10:04:52Z</time>
</trkpt>
<trkpt lat="49.238376561552286" lon="9.332434628158808">
<ele>171.2</ele>
<time>2024-05-08T10:04:54Z</time>
</trkpt>
<trkpt lat="49.23835367895663" lon="9.3323296867311">
<ele>171.4</ele>
<time>2024-05-08T10:04:55Z</time>
</trkpt>
<trkpt lat="49.238342279568315" lon="9.332280149683356">
<ele>171.4</ele>
<time>2024-05-08T10:04:56Z</time>
</trkpt>
<trkpt lat="49.23832702450454" lon="9.332226673141122">
<ele>171.6</ele>
<time>2024-05-08T10:04:57Z</time>
</trkpt>
<trkpt lat="49.2383155412972" lon="9.33217143639922">
<ele>171.6</ele>
<time>2024-05-08T10:04:59Z</time>
</trkpt>
<trkpt lat="49.23828880302608" lon="9.332070350646973">
<ele>171.6</ele>
<time>2024-05-08T10:05:00Z</time>
</trkpt>
<trkpt lat="49.23827354796231" lon="9.332016874104738">
<ele>171.6</ele>
<time>2024-05-08T10:05:01Z</time>
</trkpt>
<trkpt lat="49.238258292898536" lon="9.331965409219263">
<ele>171.6</ele>
<time>2024-05-08T10:05:02Z</time>
</trkpt>
<trkpt lat="49.23824303783476" lon="9.331912938505411">
<ele>171.6</ele>
<time>2024-05-08T10:05:03Z</time>
</trkpt>
<trkpt lat="49.23822778277099" lon="9.331859545782208">
<ele>171.8</ele>
<time>2024-05-08T10:05:05Z</time>
</trkpt>
<trkpt lat="49.23821638338268" lon="9.331805147230623">
<ele>171.8</ele>
<time>2024-05-08T10:05:06Z</time>
</trkpt>
<trkpt lat="49.23818964511156" lon="9.33170028962195">
<ele>172</ele>
<time>2024-05-08T10:05:08Z</time>
</trkpt>
<trkpt lat="49.23815536312759" lon="9.331593504175544">
<ele>172.2</ele>
<time>2024-05-08T10:05:09Z</time>
</trkpt>
<trkpt lat="49.238140024244785" lon="9.331538183614612">
<ele>172.2</ele>
<time>2024-05-08T10:05:10Z</time>
</trkpt>
<trkpt lat="49.23812476918101" lon="9.331484790891407">
<ele>172.4</ele>
<time>2024-05-08T10:05:11Z</time>
</trkpt>
<trkpt lat="49.2381133697927" lon="9.331430392339826">
<ele>172.4</ele>
<time>2024-05-08T10:05:12Z</time>
</trkpt>
<trkpt lat="49.23809811472893" lon="9.331376999616625">
<ele>172.4</ele>
<time>2024-05-08T10:05:13Z</time>
</trkpt>
<trkpt lat="49.23808663152158" lon="9.33132360689342">
<ele>172.6</ele>
<time>2024-05-08T10:05:14Z</time>
</trkpt>
<trkpt lat="49.23807137645781" lon="9.331268286332488">
<ele>172.6</ele>
<time>2024-05-08T10:05:16Z</time>
</trkpt>
<trkpt lat="49.238040866330266" lon="9.33116334490478">
<ele>172.8</ele>
<time>2024-05-08T10:05:17Z</time>
</trkpt>
<trkpt lat="49.238025611266494" lon="9.331109952181578">
<ele>173</ele>
<time>2024-05-08T10:05:18Z</time>
</trkpt>
<trkpt lat="49.23801035620272" lon="9.331056559458377">
<ele>173</ele>
<time>2024-05-08T10:05:19Z</time>
</trkpt>
<trkpt lat="49.23799510113895" lon="9.331003166735172">
<ele>173.2</ele>
<time>2024-05-08T10:05:20Z</time>
</trkpt>
<trkpt lat="49.23798747360706" lon="9.33094784617424">
<ele>173.2</ele>
<time>2024-05-08T10:05:21Z</time>
</trkpt>
<trkpt lat="49.23797607421875" lon="9.330895375460386">
<ele>173.2</ele>
<time>2024-05-08T10:05:22Z</time>
</trkpt>
<trkpt lat="49.237964591011405" lon="9.330841982737184">
<ele>173.2</ele>
<time>2024-05-08T10:05:23Z</time>
</trkpt>
<trkpt lat="49.23795310780406" lon="9.33078859001398">
<ele>173.2</ele>
<time>2024-05-08T10:05:24Z</time>
</trkpt>
<trkpt lat="49.23793785274029" lon="9.330738047137856">
<ele>173.4</ele>
<time>2024-05-08T10:05:25Z</time>
</trkpt>
<trkpt lat="49.237926453351974" lon="9.33068842627108">
<ele>173.4</ele>
<time>2024-05-08T10:05:26Z</time>
</trkpt>
<trkpt lat="49.23790734261274" lon="9.330639811232686">
<ele>173.4</ele>
<time>2024-05-08T10:05:28Z</time>
</trkpt>
<trkpt lat="49.23789208754897" lon="9.33059019036591">
<ele>173.4</ele>
<time>2024-05-08T10:05:29Z</time>
</trkpt>
<trkpt lat="49.2378768324852" lon="9.330541575327516">
<ele>173.4</ele>
<time>2024-05-08T10:05:30Z</time>
</trkpt>
<trkpt lat="49.23785017803311" lon="9.330450044944882">
<ele>173.6</ele>
<time>2024-05-08T10:05:31Z</time>
</trkpt>
<trkpt lat="49.23783492296934" lon="9.330405201762916">
<ele>173.6</ele>
<time>2024-05-08T10:05:32Z</time>
</trkpt>
<trkpt lat="49.23781966790557" lon="9.330365136265756">
<ele>173.6</ele>
<time>2024-05-08T10:05:33Z</time>
</trkpt>
<trkpt lat="49.2378044128418" lon="9.330321298912168">
<ele>173.8</ele>
<time>2024-05-08T10:05:35Z</time>
</trkpt>
<trkpt lat="49.237770047038794" lon="9.33023639023304">
<ele>174</ele>
<time>2024-05-08T10:05:36Z</time>
</trkpt>
<trkpt lat="49.23775479197502" lon="9.330195402726533">
<ele>174</ele>
<time>2024-05-08T10:05:38Z</time>
</trkpt>
<trkpt lat="49.23772042617202" lon="9.330115271732211">
<ele>174.2</ele>
<time>2024-05-08T10:05:39Z</time>
</trkpt>
<trkpt lat="49.23770139925182" lon="9.330081911757588">
<ele>174.2</ele>
<time>2024-05-08T10:05:40Z</time>
</trkpt>
<trkpt lat="49.23768228851259" lon="9.330044696107509">
<ele>174.4</ele>
<time>2024-05-08T10:05:42Z</time>
</trkpt>
<trkpt lat="49.23765177838504" lon="9.329963643103838">
<ele>174.6</ele>
<time>2024-05-08T10:05:44Z</time>
</trkpt>
<trkpt lat="49.23763275146485" lon="9.32987974025309">
<ele>174.8</ele>
<time>2024-05-08T10:05:45Z</time>
</trkpt>
<trkpt lat="49.23763275146485" lon="9.329843446612358">
<ele>175</ele>
<time>2024-05-08T10:05:47Z</time>
</trkpt>
<trkpt lat="49.237628895789385" lon="9.329792903736234">
<ele>175.2</ele>
<time>2024-05-08T10:05:48Z</time>
</trkpt>
<trkpt lat="49.2376212682575" lon="9.32972333393991">
<ele>175.4</ele>
<time>2024-05-08T10:05:49Z</time>
</trkpt>
<trkpt lat="49.2376212682575" lon="9.329713778570294">
<ele>175.4</ele>
<time>2024-05-08T10:05:51Z</time>
</trkpt>
<trkpt lat="49.2376212682575" lon="9.329711850732563">
<ele>175.4</ele>
<time>2024-05-08T10:05:53Z</time>
</trkpt>
<trkpt lat="49.23761741258204" lon="9.329710006713867">
<ele>175.2</ele>
<time>2024-05-08T10:05:54Z</time>
</trkpt>
<trkpt lat="49.23761741258204" lon="9.329708078876138">
<ele>175</ele>
<time>2024-05-08T10:05:57Z</time>
</trkpt>
<trkpt lat="49.23761364072561" lon="9.3297013733536">
<ele>175</ele>
<time>2024-05-08T10:05:58Z</time>
</trkpt>
<trkpt lat="49.237609785050154" lon="9.329698523506522">
<ele>174.8</ele>
<time>2024-05-08T10:05:59Z</time>
</trkpt>
<trkpt lat="49.237609785050154" lon="9.329696595668793">
<ele>174.6</ele>
<time>2024-05-08T10:06:00Z</time>
</trkpt>
<trkpt lat="49.237609785050154" lon="9.329691817983983">
<ele>174.4</ele>
<time>2024-05-08T10:06:01Z</time>
</trkpt>
<trkpt lat="49.23760601319373" lon="9.329693745821714">
<ele>174.2</ele>
<time>2024-05-08T10:06:02Z</time>
</trkpt>
<trkpt lat="49.23760215751827" lon="9.329698523506522">
<ele>174</ele>
<time>2024-05-08T10:06:03Z</time>
</trkpt>
<trkpt lat="49.23760601319373" lon="9.329700451344252">
<ele>174</ele>
<time>2024-05-08T10:06:04Z</time>
</trkpt>
<trkpt lat="49.23760215751827" lon="9.329700451344252">
<ele>173.8</ele>
<time>2024-05-08T10:06:05Z</time>
</trkpt>
<trkpt lat="49.23760215751827" lon="9.32970522902906">
<ele>173.8</ele>
<time>2024-05-08T10:06:06Z</time>
</trkpt>
<trkpt lat="49.23760601319373" lon="9.329711850732563">
<ele>173.8</ele>
<time>2024-05-08T10:06:07Z</time>
</trkpt>
<trkpt lat="49.23760601319373" lon="9.32972333393991">
<ele>173.8</ele>
<time>2024-05-08T10:06:08Z</time>
</trkpt>
<trkpt lat="49.237609785050154" lon="9.329734733328223">
<ele>173.8</ele>
<time>2024-05-08T10:06:09Z</time>
</trkpt>
<trkpt lat="49.237609785050154" lon="9.32974336668849">
<ele>173.8</ele>
<time>2024-05-08T10:06:10Z</time>
</trkpt>
<trkpt lat="49.23761364072561" lon="9.329754766076803">
<ele>173.8</ele>
<time>2024-05-08T10:06:11Z</time>
</trkpt>
<trkpt lat="49.23761364072561" lon="9.329759543761613">
<ele>173.8</ele>
<time>2024-05-08T10:06:12Z</time>
</trkpt>
<trkpt lat="49.23761741258204" lon="9.329766249284148">
<ele>173.8</ele>
<time>2024-05-08T10:06:13Z</time>
</trkpt>
<trkpt lat="49.23761741258204" lon="9.329774798825383">
<ele>174</ele>
<time>2024-05-08T10:06:14Z</time>
</trkpt>
<trkpt lat="49.23761741258204" lon="9.32978150434792">
<ele>174</ele>
<time>2024-05-08T10:06:15Z</time>
</trkpt>
<trkpt lat="49.23761741258204" lon="9.32978343218565">
<ele>174</ele>
<time>2024-05-08T10:06:16Z</time>
</trkpt>
<trkpt lat="49.2376212682575" lon="9.329788126051426">
<ele>174</ele>
<time>2024-05-08T10:06:17Z</time>
</trkpt>
<trkpt lat="49.2376212682575" lon="9.329798687249422">
<ele>174.2</ele>
<time>2024-05-08T10:06:18Z</time>
</trkpt>
<trkpt lat="49.2376212682575" lon="9.329808158800006">
<ele>174.2</ele>
<time>2024-05-08T10:06:19Z</time>
</trkpt>
<trkpt lat="49.2376212682575" lon="9.329810086637735">
<ele>174.2</ele>
<time>2024-05-08T10:06:20Z</time>
</trkpt>
<trkpt lat="49.2376212682575" lon="9.329814864322543">
<ele>174.2</ele>
<time>2024-05-08T10:06:21Z</time>
</trkpt>
<trkpt lat="49.23761364072561" lon="9.329826347529888">
<ele>174.4</ele>
<time>2024-05-08T10:06:22Z</time>
</trkpt>
<trkpt lat="49.237609785050154" lon="9.329836824908853">
<ele>174.4</ele>
<time>2024-05-08T10:06:24Z</time>
</trkpt>
<trkpt lat="49.23760215751827" lon="9.329843446612358">
<ele>174.6</ele>
<time>2024-05-08T10:06:25Z</time>
</trkpt>
<trkpt lat="49.23759838566184" lon="9.329848224297166">
<ele>174.8</ele>
<time>2024-05-08T10:06:26Z</time>
</trkpt>
<trkpt lat="49.23759838566184" lon="9.329850152134895">
<ele>175</ele>
<time>2024-05-08T10:06:27Z</time>
</trkpt>
<trkpt lat="49.23759838566184" lon="9.329852079972625">
<ele>175</ele>
<time>2024-05-08T10:06:28Z</time>
</trkpt>
<trkpt lat="49.23759838566184" lon="9.329850152134895">
<ele>175.2</ele>
<time>2024-05-08T10:06:30Z</time>
</trkpt>
<trkpt lat="49.23759838566184" lon="9.329853001981974">
<ele>175.2</ele>
<time>2024-05-08T10:06:31Z</time>
</trkpt>
<trkpt lat="49.23759452998638" lon="9.329854929819705">
<ele>175.4</ele>
<time>2024-05-08T10:06:34Z</time>
</trkpt>
<trkpt lat="49.237586902454495" lon="9.329853001981974">
<ele>175.4</ele>
<time>2024-05-08T10:06:35Z</time>
</trkpt>
<trkpt lat="49.23758313059807" lon="9.329854929819705">
<ele>175.6</ele>
<time>2024-05-08T10:06:36Z</time>
</trkpt>
<trkpt lat="49.23757550306618" lon="9.329854929819705">
<ele>175.8</ele>
<time>2024-05-08T10:06:37Z</time>
</trkpt>
<trkpt lat="49.23755262047053" lon="9.329853001981974">
<ele>176</ele>
<time>2024-05-08T10:06:38Z</time>
</trkpt>
<trkpt lat="49.237529737874866" lon="9.329848224297166">
<ele>176</ele>
<time>2024-05-08T10:06:39Z</time>
</trkpt>
<trkpt lat="49.23750299960375" lon="9.329846380278468">
<ele>176.2</ele>
<time>2024-05-08T10:06:40Z</time>
</trkpt>
<trkpt lat="49.23747634515166" lon="9.329846380278468">
<ele>176.2</ele>
<time>2024-05-08T10:06:41Z</time>
</trkpt>
<trkpt lat="49.237449606880546" lon="9.329850152134895">
<ele>176.4</ele>
<time>2024-05-08T10:06:43Z</time>
</trkpt>
<trkpt lat="49.23739235848189" lon="9.32987974025309">
<ele>176.6</ele>
<time>2024-05-08T10:06:44Z</time>
</trkpt>
<trkpt lat="49.23736184835434" lon="9.329896923154593">
<ele>176.6</ele>
<time>2024-05-08T10:06:45Z</time>
</trkpt>
<trkpt lat="49.237335193902254" lon="9.329910250380635">
<ele>176.8</ele>
<time>2024-05-08T10:06:46Z</time>
</trkpt>
<trkpt lat="49.23731608316302" lon="9.329910250380635">
<ele>176.8</ele>
<time>2024-05-08T10:06:47Z</time>
</trkpt>
<trkpt lat="49.237293200567365" lon="9.329910250380635">
<ele>176.8</ele>
<time>2024-05-08T10:06:49Z</time>
</trkpt>
<trkpt lat="49.237251207232475" lon="9.32990455068648">
<ele>177</ele>
<time>2024-05-08T10:06:50Z</time>
</trkpt>
<trkpt lat="49.2372359521687" lon="9.329896923154593">
<ele>177</ele>
<time>2024-05-08T10:06:51Z</time>
</trkpt>
<trkpt lat="49.23722455278039" lon="9.329885439947248">
<ele>177</ele>
<time>2024-05-08T10:06:52Z</time>
</trkpt>
<trkpt lat="49.237216925248504" lon="9.329872112721205">
<ele>177</ele>
<time>2024-05-08T10:06:54Z</time>
</trkpt>
<trkpt lat="49.237213069573045" lon="9.329853001981974">
<ele>177</ele>
<time>2024-05-08T10:06:55Z</time>
</trkpt>
<trkpt lat="49.23720544204116" lon="9.329832969233394">
<ele>177.2</ele>
<time>2024-05-08T10:06:56Z</time>
</trkpt>
<trkpt lat="49.23720167018473" lon="9.329812014475465">
<ele>177.2</ele>
<time>2024-05-08T10:06:57Z</time>
</trkpt>
<trkpt lat="49.237194042652845" lon="9.329776726663113">
<ele>177.2</ele>
<time>2024-05-08T10:06:59Z</time>
</trkpt>
<trkpt lat="49.23718641512096" lon="9.329745210707188">
<ele>177.2</ele>
<time>2024-05-08T10:07:01Z</time>
</trkpt>
<trkpt lat="49.2371825594455" lon="9.329728111624718">
<ele>177</ele>
<time>2024-05-08T10:07:02Z</time>
</trkpt>
<trkpt lat="49.2371635325253" lon="9.329696595668793">
<ele>177</ele>
<time>2024-05-08T10:07:04Z</time>
</trkpt>
<trkpt lat="49.23714442178607" lon="9.329673713073134">
<ele>177</ele>
<time>2024-05-08T10:07:05Z</time>
</trkpt>
<trkpt lat="49.23714064992964" lon="9.32966323569417">
<ele>177</ele>
<time>2024-05-08T10:07:07Z</time>
</trkpt>
<trkpt lat="49.23714064992964" lon="9.329649908468127">
<ele>177</ele>
<time>2024-05-08T10:07:08Z</time>
</trkpt>
<trkpt lat="49.23714064992964" lon="9.329629875719547">
<ele>177</ele>
<time>2024-05-08T10:07:10Z</time>
</trkpt>
<trkpt lat="49.23714064992964" lon="9.329613614827394">
<ele>177</ele>
<time>2024-05-08T10:07:11Z</time>
</trkpt>
<trkpt lat="49.23714064992964" lon="9.329606993123887">
<ele>177</ele>
<time>2024-05-08T10:07:12Z</time>
</trkpt>
<trkpt lat="49.237136794254184" lon="9.329598359763622">
<ele>177</ele>
<time>2024-05-08T10:07:13Z</time>
</trkpt>
<trkpt lat="49.23713302239776" lon="9.329589810222387">
<ele>177</ele>
<time>2024-05-08T10:07:14Z</time>
</trkpt>
<trkpt lat="49.2371291667223" lon="9.329578327015042">
<ele>177</ele>
<time>2024-05-08T10:07:15Z</time>
</trkpt>
<trkpt lat="49.23713302239776" lon="9.329561227932572">
<ele>177</ele>
<time>2024-05-08T10:07:17Z</time>
</trkpt>
<trkpt lat="49.23713302239776" lon="9.329534489661455">
<ele>177</ele>
<time>2024-05-08T10:07:18Z</time>
</trkpt>
<trkpt lat="49.23713302239776" lon="9.329521162435412">
<ele>177</ele>
<time>2024-05-08T10:07:19Z</time>
</trkpt>
<trkpt lat="49.23713302239776" lon="9.329516384750605">
<ele>177</ele>
<time>2024-05-08T10:07:20Z</time>
</trkpt>
<trkpt lat="49.23713302239776" lon="9.329515378922224">
<ele>177</ele>
<time>2024-05-08T10:07:22Z</time>
</trkpt>
<trkpt lat="49.2371291667223" lon="9.329515378922224">
<ele>177</ele>
<time>2024-05-08T10:07:23Z</time>
</trkpt>
<trkpt lat="49.23713302239776" lon="9.329515378922224">
<ele>177</ele>
<time>2024-05-08T10:07:24Z</time>
</trkpt>
<trkpt lat="49.23713302239776" lon="9.329516384750605">
<ele>177</ele>
<time>2024-05-08T10:07:25Z</time>
</trkpt>
<trkpt lat="49.23713302239776" lon="9.329518312588334">
<ele>177</ele>
<time>2024-05-08T10:07:26Z</time>
</trkpt>
<trkpt lat="49.23713302239776" lon="9.329511607065797">
<ele>177</ele>
<time>2024-05-08T10:07:27Z</time>
</trkpt>
<trkpt lat="49.237136794254184" lon="9.329500123858452">
<ele>177</ele>
<time>2024-05-08T10:07:28Z</time>
</trkpt>
<trkpt lat="49.237136794254184" lon="9.329486796632407">
<ele>177</ele>
<time>2024-05-08T10:07:29Z</time>
</trkpt>
<trkpt lat="49.23714442178607" lon="9.329475397244096">
<ele>176.8</ele>
<time>2024-05-08T10:07:30Z</time>
</trkpt>
<trkpt lat="49.23714827746153" lon="9.3294648360461">
<ele>176.8</ele>
<time>2024-05-08T10:07:31Z</time>
</trkpt>
<trkpt lat="49.23714827746153" lon="9.329451508820055">
<ele>176.6</ele>
<time>2024-05-08T10:07:32Z</time>
</trkpt>
<trkpt lat="49.23714827746153" lon="9.32944480329752">
<ele>176.6</ele>
<time>2024-05-08T10:07:33Z</time>
</trkpt>
<trkpt lat="49.23714827746153" lon="9.329442959278822">
<ele>176.6</ele>
<time>2024-05-08T10:07:34Z</time>
</trkpt>
<trkpt lat="49.23715204931795" lon="9.32944195345044">
<ele>176.6</ele>
<time>2024-05-08T10:07:35Z</time>
</trkpt>
<trkpt lat="49.237155904993415" lon="9.329440109431744">
<ele>176.6</ele>
<time>2024-05-08T10:07:37Z</time>
</trkpt>
<trkpt lat="49.237155904993415" lon="9.329436253756285">
<ele>176.4</ele>
<time>2024-05-08T10:07:39Z</time>
</trkpt>
<trkpt lat="49.237155904993415" lon="9.329435331746936">
<ele>176.4</ele>
<time>2024-05-08T10:07:40Z</time>
</trkpt>
<trkpt lat="49.237155904993415" lon="9.329433403909206">
<ele>176.4</ele>
<time>2024-05-08T10:07:42Z</time>
</trkpt>
<trkpt lat="49.237155904993415" lon="9.329431476071475">
<ele>176.4</ele>
<time>2024-05-08T10:07:44Z</time>
</trkpt>
<trkpt lat="49.237155904993415" lon="9.329433403909206">
<ele>176.4</ele>
<time>2024-05-08T10:07:46Z</time>
</trkpt>
<trkpt lat="49.237155904993415" lon="9.329431476071475">
<ele>176.4</ele>
<time>2024-05-08T10:07:55Z</time>
</trkpt>
<trkpt lat="49.237155904993415" lon="9.329433403909206">
<ele>176.4</ele>
<time>2024-05-08T10:07:56Z</time>
</trkpt>
<trkpt lat="49.237155904993415" lon="9.329431476071475">
<ele>176.4</ele>
<time>2024-05-08T10:07:57Z</time>
</trkpt>
<trkpt lat="49.237155904993415" lon="9.329433403909206">
<ele>176.4</ele>
<time>2024-05-08T10:07:58Z</time>
</trkpt>
<trkpt lat="49.237155904993415" lon="9.329431476071475">
<ele>176.4</ele>
<time>2024-05-08T10:08:09Z</time>
</trkpt>
<trkpt lat="49.23715204931795" lon="9.329431476071475">
<ele>176.4</ele>
<time>2024-05-08T10:08:13Z</time>
</trkpt>
<trkpt lat="49.237155904993415" lon="9.329431476071475">
<ele>176.4</ele>
<time>2024-05-08T10:08:14Z</time>
</trkpt>
<trkpt lat="49.237155904993415" lon="9.329433403909206">
<ele>176.4</ele>
<time>2024-05-08T10:08:16Z</time>
</trkpt>
<trkpt lat="49.23715204931795" lon="9.329433403909206">
<ele>176.4</ele>
<time>2024-05-08T10:08:19Z</time>
</trkpt>
<trkpt lat="49.237155904993415" lon="9.329435331746936">
<ele>176.4</ele>
<time>2024-05-08T10:08:20Z</time>
</trkpt>
<trkpt lat="49.237155904993415" lon="9.329433403909206">
<ele>176.4</ele>
<time>2024-05-08T10:08:21Z</time>
</trkpt>
<trkpt lat="49.237155904993415" lon="9.329435331746936">
<ele>176.4</ele>
<time>2024-05-08T10:08:22Z</time>
</trkpt>
<trkpt lat="49.237155904993415" lon="9.329433403909206">
<ele>176.4</ele>
<time>2024-05-08T10:08:23Z</time>
</trkpt>
<trkpt lat="49.237155904993415" lon="9.329435331746936">
<ele>176.4</ele>
<time>2024-05-08T10:08:24Z</time>
</trkpt>
<trkpt lat="49.237155904993415" lon="9.329436253756285">
<ele>176.4</ele>
<time>2024-05-08T10:08:26Z</time>
</trkpt>
<trkpt lat="49.237155904993415" lon="9.329435331746936">
<ele>176.4</ele>
<time>2024-05-08T10:08:27Z</time>
</trkpt>
<trkpt lat="49.237155904993415" lon="9.329436253756285">
<ele>176.4</ele>
<time>2024-05-08T10:08:28Z</time>
</trkpt>
<trkpt lat="49.237155904993415" lon="9.329438181594014">
<ele>176.4</ele>
<time>2024-05-08T10:08:34Z</time>
</trkpt>
<trkpt lat="49.237155904993415" lon="9.329436253756285">
<ele>176.4</ele>
<time>2024-05-08T10:08:35Z</time>
</trkpt>
<trkpt lat="49.23715967684984" lon="9.329436253756285">
<ele>176.4</ele>
<time>2024-05-08T10:08:37Z</time>
</trkpt>
<trkpt lat="49.237155904993415" lon="9.329436253756285">
<ele>176.4</ele>
<time>2024-05-08T10:08:40Z</time>
</trkpt>
<trkpt lat="49.237155904993415" lon="9.329435331746936">
<ele>176.4</ele>
<time>2024-05-08T10:08:44Z</time>
</trkpt>
<trkpt lat="49.23715967684984" lon="9.329435331746936">
<ele>176.4</ele>
<time>2024-05-08T10:08:46Z</time>
</trkpt>
<trkpt lat="49.237155904993415" lon="9.329435331746936">
<ele>176.4</ele>
<time>2024-05-08T10:08:47Z</time>
</trkpt>
<trkpt lat="49.237155904993415" lon="9.329433403909206">
<ele>176.4</ele>
<time>2024-05-08T10:08:48Z</time>
</trkpt>
<trkpt lat="49.23715967684984" lon="9.329433403909206">
<ele>176.4</ele>
<time>2024-05-08T10:08:49Z</time>
</trkpt>
<trkpt lat="49.23715967684984" lon="9.329431476071475">
<ele>176.4</ele>
<time>2024-05-08T10:08:50Z</time>
</trkpt>
<trkpt lat="49.23715967684984" lon="9.329429548233747">
<ele>176.4</ele>
<time>2024-05-08T10:08:54Z</time>
</trkpt>
<trkpt lat="49.237155904993415" lon="9.3294286262244">
<ele>176.4</ele>
<time>2024-05-08T10:08:58Z</time>
</trkpt>
<trkpt lat="49.23715967684984" lon="9.3294286262244">
<ele>176.4</ele>
<time>2024-05-08T10:08:59Z</time>
</trkpt>
<trkpt lat="49.23715967684984" lon="9.32942669838667">
<ele>176.4</ele>
<time>2024-05-08T10:09:03Z</time>
</trkpt>
<trkpt lat="49.237155904993415" lon="9.32942669838667">
<ele>176.4</ele>
<time>2024-05-08T10:09:04Z</time>
</trkpt>
<trkpt lat="49.23715967684984" lon="9.32942669838667">
<ele>176.6</ele>
<time>2024-05-08T10:09:05Z</time>
</trkpt>
<trkpt lat="49.237155904993415" lon="9.329424854367971">
<ele>176.6</ele>
<time>2024-05-08T10:09:08Z</time>
</trkpt>
<trkpt lat="49.23715967684984" lon="9.329424854367971">
<ele>176.6</ele>
<time>2024-05-08T10:09:09Z</time>
</trkpt>
<trkpt lat="49.237155904993415" lon="9.329424854367971">
<ele>176.6</ele>
<time>2024-05-08T10:09:10Z</time>
</trkpt>
<trkpt lat="49.237155904993415" lon="9.32942669838667">
<ele>176.6</ele>
<time>2024-05-08T10:09:15Z</time>
</trkpt>
<trkpt lat="49.23715967684984" lon="9.3294286262244">
<ele>176.6</ele>
<time>2024-05-08T10:09:17Z</time>
</trkpt>
<trkpt lat="49.23715967684984" lon="9.32942669838667">
<ele>176.6</ele>
<time>2024-05-08T10:09:21Z</time>
</trkpt>
<trkpt lat="49.23715967684984" lon="9.329424854367971">
<ele>176.6</ele>
<time>2024-05-08T10:09:23Z</time>
</trkpt>
<trkpt lat="49.23715967684984" lon="9.32942669838667">
<ele>176.6</ele>
<time>2024-05-08T10:09:24Z</time>
</trkpt>
<trkpt lat="49.23715967684984" lon="9.329424854367971">
<ele>176.6</ele>
<time>2024-05-08T10:09:27Z</time>
</trkpt>
<trkpt lat="49.2371635325253" lon="9.32942192070186">
<ele>176.6</ele>
<time>2024-05-08T10:09:30Z</time>
</trkpt>
<trkpt lat="49.2371635325253" lon="9.329420076683164">
<ele>176.6</ele>
<time>2024-05-08T10:09:32Z</time>
</trkpt>
<trkpt lat="49.2371635325253" lon="9.329418148845434">
<ele>176.6</ele>
<time>2024-05-08T10:09:33Z</time>
</trkpt>
<trkpt lat="49.2371635325253" lon="9.329416221007705">
<ele>176.6</ele>
<time>2024-05-08T10:09:34Z</time>
</trkpt>
<trkpt lat="49.2371635325253" lon="9.329415298998356">
<ele>176.6</ele>
<time>2024-05-08T10:09:37Z</time>
</trkpt>
<trkpt lat="49.2371635325253" lon="9.329413371160626">
<ele>176.6</ele>
<time>2024-05-08T10:09:40Z</time>
</trkpt>
<trkpt lat="49.2371635325253" lon="9.329411443322895">
<ele>176.6</ele>
<time>2024-05-08T10:09:43Z</time>
</trkpt>
<trkpt lat="49.23716730438173" lon="9.329411443322895">
<ele>176.6</ele>
<time>2024-05-08T10:09:50Z</time>
</trkpt>
<trkpt lat="49.23716730438173" lon="9.329413371160626">
<ele>176.6</ele>
<time>2024-05-08T10:09:51Z</time>
</trkpt>
<trkpt lat="49.23716730438173" lon="9.329411443322895">
<ele>176.6</ele>
<time>2024-05-08T10:09:53Z</time>
</trkpt>
<trkpt lat="49.23717116005719" lon="9.3294095993042">
<ele>176.6</ele>
<time>2024-05-08T10:09:59Z</time>
</trkpt>
<trkpt lat="49.23717116005719" lon="9.329411443322895">
<ele>176.6</ele>
<time>2024-05-08T10:10:02Z</time>
</trkpt>
<trkpt lat="49.23717116005719" lon="9.3294095993042">
<ele>176.6</ele>
<time>2024-05-08T10:10:03Z</time>
</trkpt>
<trkpt lat="49.23717116005719" lon="9.329411443322895">
<ele>176.6</ele>
<time>2024-05-08T10:10:07Z</time>
</trkpt>
<trkpt lat="49.237174931913614" lon="9.329411443322895">
<ele>176.6</ele>
<time>2024-05-08T10:10:10Z</time>
</trkpt>
<trkpt lat="49.237174931913614" lon="9.3294095993042">
<ele>176.6</ele>
<time>2024-05-08T10:10:15Z</time>
</trkpt>
<trkpt lat="49.237174931913614" lon="9.329411443322895">
<ele>176.8</ele>
<time>2024-05-08T10:10:24Z</time>
</trkpt>
<trkpt lat="49.23717878758907" lon="9.329411443322895">
<ele>176.8</ele>
<time>2024-05-08T10:10:36Z</time>
</trkpt>
<trkpt lat="49.23717878758907" lon="9.3294095993042">
<ele>176.8</ele>
<time>2024-05-08T10:10:42Z</time>
</trkpt>
<trkpt lat="49.23717878758907" lon="9.32940859347582">
<ele>176.8</ele>
<time>2024-05-08T10:10:43Z</time>
</trkpt>
<trkpt lat="49.23717878758907" lon="9.32940666563809">
<ele>176.8</ele>
<time>2024-05-08T10:10:46Z</time>
</trkpt>
<trkpt lat="49.23717878758907" lon="9.329404821619391">
<ele>176.8</ele>
<time>2024-05-08T10:10:50Z</time>
</trkpt>
<trkpt lat="49.237174931913614" lon="9.329404821619391">
<ele>177</ele>
<time>2024-05-08T10:10:51Z</time>
</trkpt>
<trkpt lat="49.237174931913614" lon="9.329402893781662">
<ele>177</ele>
<time>2024-05-08T10:10:54Z</time>
</trkpt>
<trkpt lat="49.237174931913614" lon="9.32940188795328">
<ele>177</ele>
<time>2024-05-08T10:10:57Z</time>
</trkpt>
<trkpt lat="49.237174931913614" lon="9.329400043934584">
<ele>177</ele>
<time>2024-05-08T10:11:01Z</time>
</trkpt>
<trkpt lat="49.237174931913614" lon="9.329398116096854">
<ele>177</ele>
<time>2024-05-08T10:11:04Z</time>
</trkpt>
<trkpt lat="49.237174931913614" lon="9.329396188259125">
<ele>177</ele>
<time>2024-05-08T10:11:06Z</time>
</trkpt>
<trkpt lat="49.237174931913614" lon="9.329395266249776">
<ele>177</ele>
<time>2024-05-08T10:11:09Z</time>
</trkpt>
<trkpt lat="49.23717116005719" lon="9.329395266249776">
<ele>176.8</ele>
<time>2024-05-08T10:11:10Z</time>
</trkpt>
<trkpt lat="49.23717116005719" lon="9.329393338412046">
<ele>176.8</ele>
<time>2024-05-08T10:11:17Z</time>
</trkpt>
<trkpt lat="49.23717116005719" lon="9.329395266249776">
<ele>176.8</ele>
<time>2024-05-08T10:11:23Z</time>
</trkpt>
<trkpt lat="49.23716730438173" lon="9.329395266249776">
<ele>176.6</ele>
<time>2024-05-08T10:11:24Z</time>
</trkpt>
<trkpt lat="49.23717116005719" lon="9.329395266249776">
<ele>176.6</ele>
<time>2024-05-08T10:11:28Z</time>
</trkpt>
<trkpt lat="49.23717116005719" lon="9.329396188259125">
<ele>176.6</ele>
<time>2024-05-08T10:11:29Z</time>
</trkpt>
<trkpt lat="49.23716730438173" lon="9.329398116096854">
<ele>176.6</ele>
<time>2024-05-08T10:11:31Z</time>
</trkpt>
<trkpt lat="49.23717116005719" lon="9.329398116096854">
<ele>176.6</ele>
<time>2024-05-08T10:11:33Z</time>
</trkpt>
<trkpt lat="49.23717116005719" lon="9.329400043934584">
<ele>176.6</ele>
<time>2024-05-08T10:11:38Z</time>
</trkpt>
<trkpt lat="49.23717116005719" lon="9.32940188795328">
<ele>176.6</ele>
<time>2024-05-08T10:11:41Z</time>
</trkpt>
<trkpt lat="49.237174931913614" lon="9.32940188795328">
<ele>176.6</ele>
<time>2024-05-08T10:11:45Z</time>
</trkpt>
<trkpt lat="49.237174931913614" lon="9.329402893781662">
<ele>176.8</ele>
<time>2024-05-08T10:11:46Z</time>
</trkpt>
<trkpt lat="49.237174931913614" lon="9.329404821619391">
<ele>176.8</ele>
<time>2024-05-08T10:11:50Z</time>
</trkpt>
<trkpt lat="49.237174931913614" lon="9.32940666563809">
<ele>176.8</ele>
<time>2024-05-08T10:11:53Z</time>
</trkpt>
<trkpt lat="49.237174931913614" lon="9.32940859347582">
<ele>176.8</ele>
<time>2024-05-08T10:11:55Z</time>
</trkpt>
<trkpt lat="49.237174931913614" lon="9.3294095993042">
<ele>177</ele>
<time>2024-05-08T10:12:07Z</time>
</trkpt>
<trkpt lat="49.237174931913614" lon="9.329411443322895">
<ele>177</ele>
<time>2024-05-08T10:12:12Z</time>
</trkpt>
<trkpt lat="49.237174931913614" lon="9.329413371160626">
<ele>177</ele>
<time>2024-05-08T10:12:15Z</time>
</trkpt>
<trkpt lat="49.237174931913614" lon="9.329411443322895">
<ele>177</ele>
<time>2024-05-08T10:12:20Z</time>
</trkpt>
<trkpt lat="49.237174931913614" lon="9.329413371160626">
<ele>177</ele>
<time>2024-05-08T10:12:22Z</time>
</trkpt>
<trkpt lat="49.237174931913614" lon="9.329415298998356">
<ele>177</ele>
<time>2024-05-08T10:12:25Z</time>
</trkpt>
<trkpt lat="49.237174931913614" lon="9.329416221007705">
<ele>177.2</ele>
<time>2024-05-08T10:12:27Z</time>
</trkpt>
<trkpt lat="49.237174931913614" lon="9.329418148845434">
<ele>177.2</ele>
<time>2024-05-08T10:12:30Z</time>
</trkpt>
<trkpt lat="49.237174931913614" lon="9.329420076683164">
<ele>177.2</ele>
<time>2024-05-08T10:12:40Z</time>
</trkpt>
<trkpt lat="49.23717116005719" lon="9.329420076683164">
<ele>177.2</ele>
<time>2024-05-08T10:12:45Z</time>
</trkpt>
<trkpt lat="49.23717116005719" lon="9.329418148845434">
<ele>177.2</ele>
<time>2024-05-08T10:12:46Z</time>
</trkpt>
<trkpt lat="49.23717116005719" lon="9.329416221007705">
<ele>177.2</ele>
<time>2024-05-08T10:12:48Z</time>
</trkpt>
<trkpt lat="49.23717116005719" lon="9.329415298998356">
<ele>177.2</ele>
<time>2024-05-08T10:12:52Z</time>
</trkpt>
<trkpt lat="49.23717116005719" lon="9.329416221007705">
<ele>177.2</ele>
<time>2024-05-08T10:12:53Z</time>
</trkpt>
<trkpt lat="49.23717116005719" lon="9.329415298998356">
<ele>177.2</ele>
<time>2024-05-08T10:12:55Z</time>
</trkpt>
<trkpt lat="49.23717116005719" lon="9.329416221007705">
<ele>177.2</ele>
<time>2024-05-08T10:12:58Z</time>
</trkpt>
<trkpt lat="49.23717116005719" lon="9.329415298998356">
<ele>177.2</ele>
<time>2024-05-08T10:12:59Z</time>
</trkpt>
<trkpt lat="49.23717116005719" lon="9.329413371160626">
<ele>177.2</ele>
<time>2024-05-08T10:13:05Z</time>
</trkpt>
<trkpt lat="49.23716730438173" lon="9.329413371160626">
<ele>177.2</ele>
<time>2024-05-08T10:13:09Z</time>
</trkpt>
<trkpt lat="49.23716730438173" lon="9.329411443322895">
<ele>177.2</ele>
<time>2024-05-08T10:13:11Z</time>
</trkpt>
<trkpt lat="49.23716730438173" lon="9.329413371160626">
<ele>177.2</ele>
<time>2024-05-08T10:13:12Z</time>
</trkpt>
<trkpt lat="49.23716730438173" lon="9.329411443322895">
<ele>177.2</ele>
<time>2024-05-08T10:13:13Z</time>
</trkpt>
<trkpt lat="49.23716730438173" lon="9.329413371160626">
<ele>177.2</ele>
<time>2024-05-08T10:13:16Z</time>
</trkpt>
<trkpt lat="49.2371635325253" lon="9.329413371160626">
<ele>177.2</ele>
<time>2024-05-08T10:13:23Z</time>
</trkpt>
<trkpt lat="49.2371635325253" lon="9.329415298998356">
<ele>177.2</ele>
<time>2024-05-08T10:13:28Z</time>
</trkpt>
<trkpt lat="49.2371635325253" lon="9.329416221007705">
<ele>177.2</ele>
<time>2024-05-08T10:13:33Z</time>
</trkpt>
<trkpt lat="49.2371635325253" lon="9.329418148845434">
<ele>177.2</ele>
<time>2024-05-08T10:13:35Z</time>
</trkpt>
<trkpt lat="49.2371635325253" lon="9.329420076683164">
<ele>177.2</ele>
<time>2024-05-08T10:13:36Z</time>
</trkpt>
<trkpt lat="49.2371635325253" lon="9.32942192070186">
<ele>177.2</ele>
<time>2024-05-08T10:13:39Z</time>
</trkpt>
<trkpt lat="49.2371635325253" lon="9.329422926530242">
<ele>177.2</ele>
<time>2024-05-08T10:13:40Z</time>
</trkpt>
<trkpt lat="49.2371635325253" lon="9.329424854367971">
<ele>177.2</ele>
<time>2024-05-08T10:13:42Z</time>
</trkpt>
<trkpt lat="49.2371635325253" lon="9.32942669838667">
<ele>177.2</ele>
<time>2024-05-08T10:13:43Z</time>
</trkpt>
<trkpt lat="49.23715967684984" lon="9.32942669838667">
<ele>177.2</ele>
<time>2024-05-08T10:13:44Z</time>
</trkpt>
<trkpt lat="49.23715967684984" lon="9.3294286262244">
<ele>177.2</ele>
<time>2024-05-08T10:13:45Z</time>
</trkpt>
<trkpt lat="49.23715967684984" lon="9.329429548233747">
<ele>177.2</ele>
<time>2024-05-08T10:13:47Z</time>
</trkpt>
<trkpt lat="49.23715967684984" lon="9.329431476071475">
<ele>177.2</ele>
<time>2024-05-08T10:13:49Z</time>
</trkpt>
<trkpt lat="49.237155904993415" lon="9.329431476071475">
<ele>177.2</ele>
<time>2024-05-08T10:13:52Z</time>
</trkpt>
<trkpt lat="49.237155904993415" lon="9.329433403909206">
<ele>177.2</ele>
<time>2024-05-08T10:13:53Z</time>
</trkpt>
<trkpt lat="49.23715967684984" lon="9.329435331746936">
<ele>177.2</ele>
<time>2024-05-08T10:13:55Z</time>
</trkpt>
<trkpt lat="49.237155904993415" lon="9.329435331746936">
<ele>177.2</ele>
<time>2024-05-08T10:13:56Z</time>
</trkpt>
<trkpt lat="49.237155904993415" lon="9.329436253756285">
<ele>177.2</ele>
<time>2024-05-08T10:13:57Z</time>
</trkpt>
<trkpt lat="49.237155904993415" lon="9.329438181594014">
<ele>177.2</ele>
<time>2024-05-08T10:14:00Z</time>
</trkpt>
<trkpt lat="49.237155904993415" lon="9.329440109431744">
<ele>177.2</ele>
<time>2024-05-08T10:14:03Z</time>
</trkpt>
<trkpt lat="49.23715204931795" lon="9.329440109431744">
<ele>177.2</ele>
<time>2024-05-08T10:14:08Z</time>
</trkpt>
<trkpt lat="49.23715204931795" lon="9.32944195345044">
<ele>177.2</ele>
<time>2024-05-08T10:14:09Z</time>
</trkpt>
<trkpt lat="49.23715204931795" lon="9.329440109431744">
<ele>177.2</ele>
<time>2024-05-08T10:14:11Z</time>
</trkpt>
<trkpt lat="49.23715204931795" lon="9.32944195345044">
<ele>177.2</ele>
<time>2024-05-08T10:14:13Z</time>
</trkpt>
<trkpt lat="49.23715204931795" lon="9.329440109431744">
<ele>177.2</ele>
<time>2024-05-08T10:14:14Z</time>
</trkpt>
<trkpt lat="49.23715204931795" lon="9.329438181594014">
<ele>177.2</ele>
<time>2024-05-08T10:14:17Z</time>
</trkpt>
<trkpt lat="49.23714827746153" lon="9.329438181594014">
<ele>177.2</ele>
<time>2024-05-08T10:14:18Z</time>
</trkpt>
<trkpt lat="49.23714827746153" lon="9.329440109431744">
<ele>177.2</ele>
<time>2024-05-08T10:14:20Z</time>
</trkpt>
<trkpt lat="49.23715204931795" lon="9.329440109431744">
<ele>177.2</ele>
<time>2024-05-08T10:14:21Z</time>
</trkpt>
<trkpt lat="49.23715204931795" lon="9.32944195345044">
<ele>177.2</ele>
<time>2024-05-08T10:14:23Z</time>
</trkpt>
<trkpt lat="49.23715204931795" lon="9.329440109431744">
<ele>177.2</ele>
<time>2024-05-08T10:14:25Z</time>
</trkpt>
<trkpt lat="49.23715204931795" lon="9.329438181594014">
<ele>177.2</ele>
<time>2024-05-08T10:14:26Z</time>
</trkpt>
<trkpt lat="49.23715204931795" lon="9.329436253756285">
<ele>177.2</ele>
<time>2024-05-08T10:14:28Z</time>
</trkpt>
<trkpt lat="49.23715204931795" lon="9.329435331746936">
<ele>177.2</ele>
<time>2024-05-08T10:14:29Z</time>
</trkpt>
<trkpt lat="49.23715204931795" lon="9.329433403909206">
<ele>177.2</ele>
<time>2024-05-08T10:14:30Z</time>
</trkpt>
<trkpt lat="49.23715204931795" lon="9.329431476071475">
<ele>177.2</ele>
<time>2024-05-08T10:14:32Z</time>
</trkpt>
<trkpt lat="49.23715204931795" lon="9.329429548233747">
<ele>177.2</ele>
<time>2024-05-08T10:14:35Z</time>
</trkpt>
<trkpt lat="49.237155904993415" lon="9.3294286262244">
<ele>177.2</ele>
<time>2024-05-08T10:14:38Z</time>
</trkpt>
<trkpt lat="49.237155904993415" lon="9.32942669838667">
<ele>177.2</ele>
<time>2024-05-08T10:14:41Z</time>
</trkpt>
<trkpt lat="49.237155904993415" lon="9.329424854367971">
<ele>177.2</ele>
<time>2024-05-08T10:14:43Z</time>
</trkpt>
<trkpt lat="49.23715967684984" lon="9.329424854367971">
<ele>177.2</ele>
<time>2024-05-08T10:14:56Z</time>
</trkpt>
<trkpt lat="49.23715967684984" lon="9.32942669838667">
<ele>177.2</ele>
<time>2024-05-08T10:15:00Z</time>
</trkpt>
<trkpt lat="49.2371635325253" lon="9.329424854367971">
<ele>177.2</ele>
<time>2024-05-08T10:15:01Z</time>
</trkpt>
<trkpt lat="49.2371635325253" lon="9.32942669838667">
<ele>177.2</ele>
<time>2024-05-08T10:15:02Z</time>
</trkpt>
<trkpt lat="49.2371635325253" lon="9.329424854367971">
<ele>177.2</ele>
<time>2024-05-08T10:15:03Z</time>
</trkpt>
<trkpt lat="49.2371635325253" lon="9.32942669838667">
<ele>177.2</ele>
<time>2024-05-08T10:15:04Z</time>
</trkpt>
<trkpt lat="49.2371635325253" lon="9.329424854367971">
<ele>177.2</ele>
<time>2024-05-08T10:15:06Z</time>
</trkpt>
<trkpt lat="49.23716730438173" lon="9.329424854367971">
<ele>177.2</ele>
<time>2024-05-08T10:15:08Z</time>
</trkpt>
<trkpt lat="49.23717116005719" lon="9.329424854367971">
<ele>177.2</ele>
<time>2024-05-08T10:15:12Z</time>
</trkpt>
<trkpt lat="49.23717116005719" lon="9.32942669838667">
<ele>177.2</ele>
<time>2024-05-08T10:15:14Z</time>
</trkpt>
<trkpt lat="49.237174931913614" lon="9.32942669838667">
<ele>177.2</ele>
<time>2024-05-08T10:15:16Z</time>
</trkpt>
<trkpt lat="49.23717878758907" lon="9.3294286262244">
<ele>177.2</ele>
<time>2024-05-08T10:15:23Z</time>
</trkpt>
<trkpt lat="49.23717878758907" lon="9.329429548233747">
<ele>177.2</ele>
<time>2024-05-08T10:15:25Z</time>
</trkpt>
<trkpt lat="49.23717878758907" lon="9.329431476071475">
<ele>177.2</ele>
<time>2024-05-08T10:15:28Z</time>
</trkpt>
<trkpt lat="49.2371825594455" lon="9.329431476071475">
<ele>177.2</ele>
<time>2024-05-08T10:15:30Z</time>
</trkpt>
<trkpt lat="49.2371825594455" lon="9.329433403909206">
<ele>177.2</ele>
<time>2024-05-08T10:15:31Z</time>
</trkpt>
<trkpt lat="49.2371825594455" lon="9.329435331746936">
<ele>177.2</ele>
<time>2024-05-08T10:15:34Z</time>
</trkpt>
<trkpt lat="49.23718641512096" lon="9.329436253756285">
<ele>177.2</ele>
<time>2024-05-08T10:15:39Z</time>
</trkpt>
<trkpt lat="49.23718641512096" lon="9.329438181594014">
<ele>177.2</ele>
<time>2024-05-08T10:15:42Z</time>
</trkpt>
<trkpt lat="49.23718641512096" lon="9.329440109431744">
<ele>177.2</ele>
<time>2024-05-08T10:15:47Z</time>
</trkpt>
<trkpt lat="49.23718641512096" lon="9.32944195345044">
<ele>177.2</ele>
<time>2024-05-08T10:15:52Z</time>
</trkpt>
<trkpt lat="49.23718641512096" lon="9.329440109431744">
<ele>177.2</ele>
<time>2024-05-08T10:15:53Z</time>
</trkpt>
<trkpt lat="49.23718641512096" lon="9.329438181594014">
<ele>177.2</ele>
<time>2024-05-08T10:15:58Z</time>
</trkpt>
<trkpt lat="49.2371825594455" lon="9.329436253756285">
<ele>177.2</ele>
<time>2024-05-08T10:16:00Z</time>
</trkpt>
<trkpt lat="49.2371825594455" lon="9.329435331746936">
<ele>177.2</ele>
<time>2024-05-08T10:16:02Z</time>
</trkpt>
<trkpt lat="49.2371825594455" lon="9.329433403909206">
<ele>177.2</ele>
<time>2024-05-08T10:16:05Z</time>
</trkpt>
<trkpt lat="49.2371825594455" lon="9.329431476071475">
<ele>177.2</ele>
<time>2024-05-08T10:16:07Z</time>
</trkpt>
<trkpt lat="49.2371825594455" lon="9.329429548233747">
<ele>177.2</ele>
<time>2024-05-08T10:16:08Z</time>
</trkpt>
<trkpt lat="49.2371825594455" lon="9.3294286262244">
<ele>177.2</ele>
<time>2024-05-08T10:16:10Z</time>
</trkpt>
<trkpt lat="49.23717878758907" lon="9.32942669838667">
<ele>177.2</ele>
<time>2024-05-08T10:16:12Z</time>
</trkpt>
<trkpt lat="49.23717878758907" lon="9.329424854367971">
<ele>177.2</ele>
<time>2024-05-08T10:16:13Z</time>
</trkpt>
<trkpt lat="49.23717878758907" lon="9.329422926530242">
<ele>177.2</ele>
<time>2024-05-08T10:16:14Z</time>
</trkpt>
<trkpt lat="49.23717878758907" lon="9.32942192070186">
<ele>177.2</ele>
<time>2024-05-08T10:16:16Z</time>
</trkpt>
<trkpt lat="49.23717878758907" lon="9.329420076683164">
<ele>177.2</ele>
<time>2024-05-08T10:16:17Z</time>
</trkpt>
<trkpt lat="49.23717878758907" lon="9.329418148845434">
<ele>177.2</ele>
<time>2024-05-08T10:16:18Z</time>
</trkpt>
<trkpt lat="49.23717878758907" lon="9.329416221007705">
<ele>177.2</ele>
<time>2024-05-08T10:16:20Z</time>
</trkpt>
<trkpt lat="49.23717878758907" lon="9.329415298998356">
<ele>177.2</ele>
<time>2024-05-08T10:16:21Z</time>
</trkpt>
<trkpt lat="49.23717878758907" lon="9.329413371160626">
<ele>177.2</ele>
<time>2024-05-08T10:16:23Z</time>
</trkpt>
<trkpt lat="49.23717878758907" lon="9.329411443322895">
<ele>177.2</ele>
<time>2024-05-08T10:16:24Z</time>
</trkpt>
<trkpt lat="49.2371825594455" lon="9.3294095993042">
<ele>177.2</ele>
<time>2024-05-08T10:16:25Z</time>
</trkpt>
<trkpt lat="49.23717878758907" lon="9.3294095993042">
<ele>177.2</ele>
<time>2024-05-08T10:16:26Z</time>
</trkpt>
<trkpt lat="49.23717878758907" lon="9.32940859347582">
<ele>177.2</ele>
<time>2024-05-08T10:16:28Z</time>
</trkpt>
<trkpt lat="49.23717878758907" lon="9.32940666563809">
<ele>177.2</ele>
<time>2024-05-08T10:16:30Z</time>
</trkpt>
<trkpt lat="49.23717878758907" lon="9.32940859347582">
<ele>177.2</ele>
<time>2024-05-08T10:16:38Z</time>
</trkpt>
<trkpt lat="49.23717878758907" lon="9.32940666563809">
<ele>177.2</ele>
<time>2024-05-08T10:16:47Z</time>
</trkpt>
<trkpt lat="49.23717878758907" lon="9.329404821619391">
<ele>177.2</ele>
<time>2024-05-08T10:16:49Z</time>
</trkpt>
<trkpt lat="49.23717878758907" lon="9.32940666563809">
<ele>177.2</ele>
<time>2024-05-08T10:16:50Z</time>
</trkpt>
<trkpt lat="49.2371825594455" lon="9.32940666563809">
<ele>177.2</ele>
<time>2024-05-08T10:16:53Z</time>
</trkpt>
<trkpt lat="49.23717878758907" lon="9.32940666563809">
<ele>177.2</ele>
<time>2024-05-08T10:16:55Z</time>
</trkpt>
<trkpt lat="49.23717878758907" lon="9.32940859347582">
<ele>177.2</ele>
<time>2024-05-08T10:16:58Z</time>
</trkpt>
<trkpt lat="49.2371825594455" lon="9.32940666563809">
<ele>177.2</ele>
<time>2024-05-08T10:16:59Z</time>
</trkpt>
<trkpt lat="49.2371825594455" lon="9.32940859347582">
<ele>177.2</ele>
<time>2024-05-08T10:17:00Z</time>
</trkpt>
<trkpt lat="49.23717878758907" lon="9.32940859347582">
<ele>177.2</ele>
<time>2024-05-08T10:17:03Z</time>
</trkpt>
<trkpt lat="49.2371825594455" lon="9.32940859347582">
<ele>177.2</ele>
<time>2024-05-08T10:17:04Z</time>
</trkpt>
<trkpt lat="49.2371825594455" lon="9.3294095993042">
<ele>177.2</ele>
<time>2024-05-08T10:17:06Z</time>
</trkpt>
<trkpt lat="49.23717878758907" lon="9.329411443322895">
<ele>177.2</ele>
<time>2024-05-08T10:17:10Z</time>
</trkpt>
<trkpt lat="49.2371825594455" lon="9.329411443322895">
<ele>177.2</ele>
<time>2024-05-08T10:17:14Z</time>
</trkpt>
<trkpt lat="49.23717878758907" lon="9.329411443322895">
<ele>177.2</ele>
<time>2024-05-08T10:17:16Z</time>
</trkpt>
<trkpt lat="49.23717878758907" lon="9.329413371160626">
<ele>177.2</ele>
<time>2024-05-08T10:17:27Z</time>
</trkpt>
<trkpt lat="49.237174931913614" lon="9.329415298998356">
<ele>177.2</ele>
<time>2024-05-08T10:17:30Z</time>
</trkpt>
<trkpt lat="49.237174931913614" lon="9.329416221007705">
<ele>177.2</ele>
<time>2024-05-08T10:17:31Z</time>
</trkpt>
<trkpt lat="49.23717878758907" lon="9.329416221007705">
<ele>177.2</ele>
<time>2024-05-08T10:17:32Z</time>
</trkpt>
<trkpt lat="49.23717878758907" lon="9.329418148845434">
<ele>177.2</ele>
<time>2024-05-08T10:17:34Z</time>
</trkpt>
<trkpt lat="49.23717878758907" lon="9.329420076683164">
<ele>177.2</ele>
<time>2024-05-08T10:17:36Z</time>
</trkpt>
<trkpt lat="49.23717878758907" lon="9.32942192070186">
<ele>177.2</ele>
<time>2024-05-08T10:17:37Z</time>
</trkpt>
<trkpt lat="49.23717878758907" lon="9.329422926530242">
<ele>177.2</ele>
<time>2024-05-08T10:17:38Z</time>
</trkpt>
<trkpt lat="49.237174931913614" lon="9.329422926530242">
<ele>177.2</ele>
<time>2024-05-08T10:17:40Z</time>
</trkpt>
<trkpt lat="49.237174931913614" lon="9.329424854367971">
<ele>177.2</ele>
<time>2024-05-08T10:17:42Z</time>
</trkpt>
<trkpt lat="49.237174931913614" lon="9.32942669838667">
<ele>177.2</ele>
<time>2024-05-08T10:17:43Z</time>
</trkpt>
<trkpt lat="49.237174931913614" lon="9.3294286262244">
<ele>177.2</ele>
<time>2024-05-08T10:17:46Z</time>
</trkpt>
<trkpt lat="49.237174931913614" lon="9.329429548233747">
<ele>177.2</ele>
<time>2024-05-08T10:17:48Z</time>
</trkpt>
<trkpt lat="49.237174931913614" lon="9.329431476071475">
<ele>177.2</ele>
<time>2024-05-08T10:17:51Z</time>
</trkpt>
<trkpt lat="49.237174931913614" lon="9.329433403909206">
<ele>177.2</ele>
<time>2024-05-08T10:17:53Z</time>
</trkpt>
<trkpt lat="49.237174931913614" lon="9.329431476071475">
<ele>177.2</ele>
<time>2024-05-08T10:17:58Z</time>
</trkpt>
<trkpt lat="49.23717878758907" lon="9.329431476071475">
<ele>177.2</ele>
<time>2024-05-08T10:18:03Z</time>
</trkpt>
<trkpt lat="49.23717878758907" lon="9.329429548233747">
<ele>177.2</ele>
<time>2024-05-08T10:18:06Z</time>
</trkpt>
<trkpt lat="49.23717878758907" lon="9.32942669838667">
<ele>177.2</ele>
<time>2024-05-08T10:18:09Z</time>
</trkpt>
<trkpt lat="49.23717878758907" lon="9.329422926530242">
<ele>177.2</ele>
<time>2024-05-08T10:18:11Z</time>
</trkpt>
<trkpt lat="49.23717878758907" lon="9.32942192070186">
<ele>177.2</ele>
<time>2024-05-08T10:18:13Z</time>
</trkpt>
<trkpt lat="49.23717878758907" lon="9.329420076683164">
<ele>177.2</ele>
<time>2024-05-08T10:18:14Z</time>
</trkpt>
<trkpt lat="49.23717878758907" lon="9.329418148845434">
<ele>177.2</ele>
<time>2024-05-08T10:18:15Z</time>
</trkpt>
<trkpt lat="49.23717878758907" lon="9.329416221007705">
<ele>177.2</ele>
<time>2024-05-08T10:18:16Z</time>
</trkpt>
<trkpt lat="49.23717878758907" lon="9.329415298998356">
<ele>177.2</ele>
<time>2024-05-08T10:18:17Z</time>
</trkpt>
<trkpt lat="49.23717878758907" lon="9.329413371160626">
<ele>177.2</ele>
<time>2024-05-08T10:18:18Z</time>
</trkpt>
<trkpt lat="49.237174931913614" lon="9.3294095993042">
<ele>177.2</ele>
<time>2024-05-08T10:18:19Z</time>
</trkpt>
<trkpt lat="49.237174931913614" lon="9.32940859347582">
<ele>177.2</ele>
<time>2024-05-08T10:18:20Z</time>
</trkpt>
<trkpt lat="49.237174931913614" lon="9.32940666563809">
<ele>177.2</ele>
<time>2024-05-08T10:18:21Z</time>
</trkpt>
<trkpt lat="49.237174931913614" lon="9.329402893781662">
<ele>177.2</ele>
<time>2024-05-08T10:18:22Z</time>
</trkpt>
<trkpt lat="49.237174931913614" lon="9.32940188795328">
<ele>177.2</ele>
<time>2024-05-08T10:18:23Z</time>
</trkpt>
<trkpt lat="49.237174931913614" lon="9.329398116096854">
<ele>177.2</ele>
<time>2024-05-08T10:18:24Z</time>
</trkpt>
<trkpt lat="49.237174931913614" lon="9.329396188259125">
<ele>177.2</ele>
<time>2024-05-08T10:18:25Z</time>
</trkpt>
<trkpt lat="49.237174931913614" lon="9.329395266249776">
<ele>177.2</ele>
<time>2024-05-08T10:18:26Z</time>
</trkpt>
<trkpt lat="49.237174931913614" lon="9.329393338412046">
<ele>177.2</ele>
<time>2024-05-08T10:18:27Z</time>
</trkpt>
<trkpt lat="49.237174931913614" lon="9.329391410574315">
<ele>177.2</ele>
<time>2024-05-08T10:18:30Z</time>
</trkpt>
<trkpt lat="49.237174931913614" lon="9.32938956655562">
<ele>177.2</ele>
<time>2024-05-08T10:18:33Z</time>
</trkpt>
<trkpt lat="49.237174931913614" lon="9.32938856072724">
<ele>177.2</ele>
<time>2024-05-08T10:18:34Z</time>
</trkpt>
<trkpt lat="49.237174931913614" lon="9.32938663288951">
<ele>177.2</ele>
<time>2024-05-08T10:18:35Z</time>
</trkpt>
<trkpt lat="49.23717878758907" lon="9.329384788870811">
<ele>177.2</ele>
<time>2024-05-08T10:18:37Z</time>
</trkpt>
<trkpt lat="49.23717878758907" lon="9.329382861033082">
<ele>177.2</ele>
<time>2024-05-08T10:18:39Z</time>
</trkpt>
<trkpt lat="49.23717878758907" lon="9.329384788870811">
<ele>177.2</ele>
<time>2024-05-08T10:18:40Z</time>
</trkpt>
<trkpt lat="49.23717878758907" lon="9.329382861033082">
<ele>177.2</ele>
<time>2024-05-08T10:18:41Z</time>
</trkpt>
<trkpt lat="49.237174931913614" lon="9.329384788870811">
<ele>177.2</ele>
<time>2024-05-08T10:18:42Z</time>
</trkpt>
<trkpt lat="49.237174931913614" lon="9.329382861033082">
<ele>177.2</ele>
<time>2024-05-08T10:18:43Z</time>
</trkpt>
<trkpt lat="49.237174931913614" lon="9.329381939023731">
<ele>177.2</ele>
<time>2024-05-08T10:18:44Z</time>
</trkpt>
<trkpt lat="49.237174931913614" lon="9.329380011186004">
<ele>177.2</ele>
<time>2024-05-08T10:18:45Z</time>
</trkpt>
<trkpt lat="49.237174931913614" lon="9.329378083348274">
<ele>177.2</ele>
<time>2024-05-08T10:18:46Z</time>
</trkpt>
<trkpt lat="49.237174931913614" lon="9.329376155510545">
<ele>177.2</ele>
<time>2024-05-08T10:18:50Z</time>
</trkpt>
<trkpt lat="49.23717116005719" lon="9.329376155510545">
<ele>177.2</ele>
<time>2024-05-08T10:18:54Z</time>
</trkpt>
<trkpt lat="49.23717116005719" lon="9.329378083348274">
<ele>177.2</ele>
<time>2024-05-08T10:18:55Z</time>
</trkpt>
<trkpt lat="49.23716730438173" lon="9.329378083348274">
<ele>177.2</ele>
<time>2024-05-08T10:19:04Z</time>
</trkpt>
<trkpt lat="49.23716730438173" lon="9.329380011186004">
<ele>177.2</ele>
<time>2024-05-08T10:19:06Z</time>
</trkpt>
<trkpt lat="49.23716730438173" lon="9.329381939023731">
<ele>177.2</ele>
<time>2024-05-08T10:19:10Z</time>
</trkpt>
<trkpt lat="49.23716730438173" lon="9.329382861033082">
<ele>177.2</ele>
<time>2024-05-08T10:19:17Z</time>
</trkpt>
<trkpt lat="49.23716730438173" lon="9.329384788870811">
<ele>177.2</ele>
<time>2024-05-08T10:19:19Z</time>
</trkpt>
<trkpt lat="49.23716730438173" lon="9.32938663288951">
<ele>177.2</ele>
<time>2024-05-08T10:19:21Z</time>
</trkpt>
<trkpt lat="49.23716730438173" lon="9.32938856072724">
<ele>177.2</ele>
<time>2024-05-08T10:19:22Z</time>
</trkpt>
<trkpt lat="49.2371635325253" lon="9.32938856072724">
<ele>177.2</ele>
<time>2024-05-08T10:19:23Z</time>
</trkpt>
<trkpt lat="49.2371635325253" lon="9.32938956655562">
<ele>177.2</ele>
<time>2024-05-08T10:19:24Z</time>
</trkpt>
<trkpt lat="49.2371635325253" lon="9.329391410574315">
<ele>177.2</ele>
<time>2024-05-08T10:19:26Z</time>
</trkpt>
<trkpt lat="49.2371635325253" lon="9.329393338412046">
<ele>177.2</ele>
<time>2024-05-08T10:19:28Z</time>
</trkpt>
<trkpt lat="49.2371635325253" lon="9.329395266249776">
<ele>177.2</ele>
<time>2024-05-08T10:19:30Z</time>
</trkpt>
<trkpt lat="49.2371635325253" lon="9.329396188259125">
<ele>177.2</ele>
<time>2024-05-08T10:19:33Z</time>
</trkpt>
<trkpt lat="49.2371635325253" lon="9.329398116096854">
<ele>177.2</ele>
<time>2024-05-08T10:19:35Z</time>
</trkpt>
<trkpt lat="49.2371635325253" lon="9.329400043934584">
<ele>177.2</ele>
<time>2024-05-08T10:19:40Z</time>
</trkpt>
<trkpt lat="49.2371635325253" lon="9.32940188795328">
<ele>177.2</ele>
<time>2024-05-08T10:19:45Z</time>
</trkpt>
<trkpt lat="49.2371635325253" lon="9.329402893781662">
<ele>177.2</ele>
<time>2024-05-08T10:19:47Z</time>
</trkpt>
<trkpt lat="49.23716730438173" lon="9.329404821619391">
<ele>177.2</ele>
<time>2024-05-08T10:19:51Z</time>
</trkpt>
<trkpt lat="49.23716730438173" lon="9.32940666563809">
<ele>177.2</ele>
<time>2024-05-08T10:19:52Z</time>
</trkpt>
<trkpt lat="49.2371635325253" lon="9.32940859347582">
<ele>177.2</ele>
<time>2024-05-08T10:19:56Z</time>
</trkpt>
<trkpt lat="49.2371635325253" lon="9.32940666563809">
<ele>177.2</ele>
<time>2024-05-08T10:20:08Z</time>
</trkpt>
<trkpt lat="49.23716730438173" lon="9.32940859347582">
<ele>177.2</ele>
<time>2024-05-08T10:20:09Z</time>
</trkpt>
<trkpt lat="49.23716730438173" lon="9.3294095993042">
<ele>177.2</ele>
<time>2024-05-08T10:20:13Z</time>
</trkpt>
<trkpt lat="49.23716730438173" lon="9.329411443322895">
<ele>177.2</ele>
<time>2024-05-08T10:20:20Z</time>
</trkpt>
<trkpt lat="49.23716730438173" lon="9.329413371160626">
<ele>177.2</ele>
<time>2024-05-08T10:20:22Z</time>
</trkpt>
<trkpt lat="49.2371635325253" lon="9.329413371160626">
<ele>177.2</ele>
<time>2024-05-08T10:20:25Z</time>
</trkpt>
<trkpt lat="49.2371635325253" lon="9.329415298998356">
<ele>177.2</ele>
<time>2024-05-08T10:20:29Z</time>
</trkpt>
<trkpt lat="49.2371635325253" lon="9.329416221007705">
<ele>177.2</ele>
<time>2024-05-08T10:20:32Z</time>
</trkpt>
<trkpt lat="49.2371635325253" lon="9.329415298998356">
<ele>177.2</ele>
<time>2024-05-08T10:20:34Z</time>
</trkpt>
<trkpt lat="49.2371635325253" lon="9.329416221007705">
<ele>177.2</ele>
<time>2024-05-08T10:20:35Z</time>
</trkpt>
<trkpt lat="49.2371635325253" lon="9.329418148845434">
<ele>177.2</ele>
<time>2024-05-08T10:20:36Z</time>
</trkpt>
<trkpt lat="49.2371635325253" lon="9.329420076683164">
<ele>177.2</ele>
<time>2024-05-08T10:20:38Z</time>
</trkpt>
<trkpt lat="49.2371635325253" lon="9.32942192070186">
<ele>177.2</ele>
<time>2024-05-08T10:20:41Z</time>
</trkpt>
<trkpt lat="49.2371635325253" lon="9.329422926530242">
<ele>177.2</ele>
<time>2024-05-08T10:20:43Z</time>
</trkpt>
<trkpt lat="49.2371635325253" lon="9.329424854367971">
<ele>177.2</ele>
<time>2024-05-08T10:20:46Z</time>
</trkpt>
<trkpt lat="49.2371635325253" lon="9.329422926530242">
<ele>177.2</ele>
<time>2024-05-08T10:20:51Z</time>
</trkpt>
<trkpt lat="49.2371635325253" lon="9.32942192070186">
<ele>177.2</ele>
<time>2024-05-08T10:20:55Z</time>
</trkpt>
<trkpt lat="49.2371635325253" lon="9.329422926530242">
<ele>177.2</ele>
<time>2024-05-08T10:20:56Z</time>
</trkpt>
<trkpt lat="49.2371635325253" lon="9.32942192070186">
<ele>177.2</ele>
<time>2024-05-08T10:20:59Z</time>
</trkpt>
<trkpt lat="49.2371635325253" lon="9.329422926530242">
<ele>177.2</ele>
<time>2024-05-08T10:21:02Z</time>
</trkpt>
<trkpt lat="49.2371635325253" lon="9.32942192070186">
<ele>177.2</ele>
<time>2024-05-08T10:21:03Z</time>
</trkpt>
<trkpt lat="49.2371635325253" lon="9.329420076683164">
<ele>177.2</ele>
<time>2024-05-08T10:21:06Z</time>
</trkpt>
<trkpt lat="49.2371635325253" lon="9.32942192070186">
<ele>177.2</ele>
<time>2024-05-08T10:21:08Z</time>
</trkpt>
<trkpt lat="49.23716730438173" lon="9.32942192070186">
<ele>177.2</ele>
<time>2024-05-08T10:21:12Z</time>
</trkpt>
<trkpt lat="49.23716730438173" lon="9.329422926530242">
<ele>177.2</ele>
<time>2024-05-08T10:21:14Z</time>
</trkpt>
<trkpt lat="49.23717116005719" lon="9.329422926530242">
<ele>177.2</ele>
<time>2024-05-08T10:21:16Z</time>
</trkpt>
<trkpt lat="49.237174931913614" lon="9.329422926530242">
<ele>177.2</ele>
<time>2024-05-08T10:21:24Z</time>
</trkpt>
<trkpt lat="49.23717116005719" lon="9.329422926530242">
<ele>177.2</ele>
<time>2024-05-08T10:21:26Z</time>
</trkpt>
<trkpt lat="49.237174931913614" lon="9.329422926530242">
<ele>177.2</ele>
<time>2024-05-08T10:21:27Z</time>
</trkpt>
<trkpt lat="49.237174931913614" lon="9.329424854367971">
<ele>177.2</ele>
<time>2024-05-08T10:21:32Z</time>
</trkpt>
<trkpt lat="49.237174931913614" lon="9.32942669838667">
<ele>177.2</ele>
<time>2024-05-08T10:21:36Z</time>
</trkpt>
<trkpt lat="49.237174931913614" lon="9.3294286262244">
<ele>177.2</ele>
<time>2024-05-08T10:21:41Z</time>
</trkpt>
<trkpt lat="49.237174931913614" lon="9.32942669838667">
<ele>177.2</ele>
<time>2024-05-08T10:21:45Z</time>
</trkpt>
<trkpt lat="49.237174931913614" lon="9.3294286262244">
<ele>177.2</ele>
<time>2024-05-08T10:21:49Z</time>
</trkpt>
<trkpt lat="49.237174931913614" lon="9.329429548233747">
<ele>177.2</ele>
<time>2024-05-08T10:21:56Z</time>
</trkpt>
<trkpt lat="49.237174931913614" lon="9.3294286262244">
<ele>177.2</ele>
<time>2024-05-08T10:21:58Z</time>
</trkpt>
<trkpt lat="49.23717116005719" lon="9.3294286262244">
<ele>177.2</ele>
<time>2024-05-08T10:22:11Z</time>
</trkpt>
<trkpt lat="49.23717116005719" lon="9.329429548233747">
<ele>177.2</ele>
<time>2024-05-08T10:22:14Z</time>
</trkpt>
<trkpt lat="49.23717116005719" lon="9.3294286262244">
<ele>177.2</ele>
<time>2024-05-08T10:22:24Z</time>
</trkpt>
<trkpt lat="49.23717116005719" lon="9.329429548233747">
<ele>177.2</ele>
<time>2024-05-08T10:22:25Z</time>
</trkpt>
<trkpt lat="49.23717116005719" lon="9.329431476071475">
<ele>177.2</ele>
<time>2024-05-08T10:22:30Z</time>
</trkpt>
<trkpt lat="49.23717116005719" lon="9.329429548233747">
<ele>177.2</ele>
<time>2024-05-08T10:22:31Z</time>
</trkpt>
<trkpt lat="49.23717116005719" lon="9.329431476071475">
<ele>177.2</ele>
<time>2024-05-08T10:22:35Z</time>
</trkpt>
<trkpt lat="49.23717116005719" lon="9.329433403909206">
<ele>177.2</ele>
<time>2024-05-08T10:22:50Z</time>
</trkpt>
<trkpt lat="49.23717116005719" lon="9.329431476071475">
<ele>177.2</ele>
<time>2024-05-08T10:22:57Z</time>
</trkpt>
<trkpt lat="49.23717116005719" lon="9.329433403909206">
<ele>177.2</ele>
<time>2024-05-08T10:23:01Z</time>
</trkpt>
<trkpt lat="49.237174931913614" lon="9.329433403909206">
<ele>177.2</ele>
<time>2024-05-08T10:23:04Z</time>
</trkpt>
<trkpt lat="49.237174931913614" lon="9.329435331746936">
<ele>177.2</ele>
<time>2024-05-08T10:23:09Z</time>
</trkpt>
<trkpt lat="49.237174931913614" lon="9.329436253756285">
<ele>177.2</ele>
<time>2024-05-08T10:23:18Z</time>
</trkpt>
<trkpt lat="49.23717878758907" lon="9.329436253756285">
<ele>177.2</ele>
<time>2024-05-08T10:23:20Z</time>
</trkpt>
<trkpt lat="49.23717878758907" lon="9.329435331746936">
<ele>177.2</ele>
<time>2024-05-08T10:23:26Z</time>
</trkpt>
<trkpt lat="49.23717878758907" lon="9.329433403909206">
<ele>177.2</ele>
<time>2024-05-08T10:23:27Z</time>
</trkpt>
<trkpt lat="49.23717878758907" lon="9.329431476071475">
<ele>177.2</ele>
<time>2024-05-08T10:23:28Z</time>
</trkpt>
<trkpt lat="49.23717878758907" lon="9.3294286262244">
<ele>177.2</ele>
<time>2024-05-08T10:23:29Z</time>
</trkpt>
<trkpt lat="49.237174931913614" lon="9.329422926530242">
<ele>177.2</ele>
<time>2024-05-08T10:23:30Z</time>
</trkpt>
<trkpt lat="49.237174931913614" lon="9.329416221007705">
<ele>177.2</ele>
<time>2024-05-08T10:23:31Z</time>
</trkpt>
<trkpt lat="49.23716730438173" lon="9.32940859347582">
<ele>177.2</ele>
<time>2024-05-08T10:23:32Z</time>
</trkpt>
<trkpt lat="49.2371635325253" lon="9.329400043934584">
<ele>177.2</ele>
<time>2024-05-08T10:23:33Z</time>
</trkpt>
<trkpt lat="49.23715967684984" lon="9.329382861033082">
<ele>177.2</ele>
<time>2024-05-08T10:23:34Z</time>
</trkpt>
<trkpt lat="49.23715967684984" lon="9.329371377825735">
<ele>177.2</ele>
<time>2024-05-08T10:23:35Z</time>
</trkpt>
<trkpt lat="49.23715967684984" lon="9.329364756122231">
<ele>177.2</ele>
<time>2024-05-08T10:23:36Z</time>
</trkpt>
<trkpt lat="49.2371635325253" lon="9.329359978437424">
<ele>177.2</ele>
<time>2024-05-08T10:23:37Z</time>
</trkpt>
<trkpt lat="49.2371635325253" lon="9.329358050599694">
<ele>177.2</ele>
<time>2024-05-08T10:23:38Z</time>
</trkpt>
<trkpt lat="49.2371635325253" lon="9.329355200752616">
<ele>177.2</ele>
<time>2024-05-08T10:23:40Z</time>
</trkpt>
<trkpt lat="49.2371635325253" lon="9.329351345077155">
<ele>177.2</ele>
<time>2024-05-08T10:23:43Z</time>
</trkpt>
<trkpt lat="49.2371635325253" lon="9.32934849523008">
<ele>177.2</ele>
<time>2024-05-08T10:23:44Z</time>
</trkpt>
<trkpt lat="49.2371635325253" lon="9.329344723373652">
<ele>177.2</ele>
<time>2024-05-08T10:23:45Z</time>
</trkpt>
<trkpt lat="49.2371635325253" lon="9.329341873526571">
<ele>177.2</ele>
<time>2024-05-08T10:23:46Z</time>
</trkpt>
<trkpt lat="49.2371635325253" lon="9.329338017851114">
<ele>177.2</ele>
<time>2024-05-08T10:23:47Z</time>
</trkpt>
<trkpt lat="49.23715967684984" lon="9.329337095841764">
<ele>177.2</ele>
<time>2024-05-08T10:23:48Z</time>
</trkpt>
<trkpt lat="49.23715967684984" lon="9.329335168004036">
<ele>177.2</ele>
<time>2024-05-08T10:23:49Z</time>
</trkpt>
<trkpt lat="49.23715967684984" lon="9.329333240166306">
<ele>177.2</ele>
<time>2024-05-08T10:23:51Z</time>
</trkpt>
<trkpt lat="49.23715967684984" lon="9.329330390319228">
<ele>177.2</ele>
<time>2024-05-08T10:23:52Z</time>
</trkpt>
<trkpt lat="49.237155904993415" lon="9.3293266184628">
<ele>177.2</ele>
<time>2024-05-08T10:23:53Z</time>
</trkpt>
<trkpt lat="49.23715204931795" lon="9.329323768615724">
<ele>177.2</ele>
<time>2024-05-08T10:23:54Z</time>
</trkpt>
<trkpt lat="49.23715204931795" lon="9.329311363399029">
<ele>177.2</ele>
<time>2024-05-08T10:23:55Z</time>
</trkpt>
<trkpt lat="49.23714827746153" lon="9.32928655296564">
<ele>177.2</ele>
<time>2024-05-08T10:23:56Z</time>
</trkpt>
<trkpt lat="49.23714827746153" lon="9.32926844805479">
<ele>177.2</ele>
<time>2024-05-08T10:23:57Z</time>
</trkpt>
<trkpt lat="49.23714827746153" lon="9.329253192991018">
<ele>177.2</ele>
<time>2024-05-08T10:23:58Z</time>
</trkpt>
<trkpt lat="49.23714827746153" lon="9.329233160242438">
<ele>177.2</ele>
<time>2024-05-08T10:23:59Z</time>
</trkpt>
<trkpt lat="49.23714442178607" lon="9.329217905178666">
<ele>177.2</ele>
<time>2024-05-08T10:24:00Z</time>
</trkpt>
<trkpt lat="49.23714064992964" lon="9.329204494133592">
<ele>177.2</ele>
<time>2024-05-08T10:24:02Z</time>
</trkpt>
<trkpt lat="49.237136794254184" lon="9.329193094745278">
<ele>177.2</ele>
<time>2024-05-08T10:24:03Z</time>
</trkpt>
<trkpt lat="49.237136794254184" lon="9.329191166907547">
<ele>177.2</ele>
<time>2024-05-08T10:24:05Z</time>
</trkpt>
<trkpt lat="49.237136794254184" lon="9.32918831706047">
<ele>177.2</ele>
<time>2024-05-08T10:24:06Z</time>
</trkpt>
<trkpt lat="49.237136794254184" lon="9.32918638922274">
<ele>177.2</ele>
<time>2024-05-08T10:24:07Z</time>
</trkpt>
<trkpt lat="49.237136794254184" lon="9.329185467213392">
<ele>177.2</ele>
<time>2024-05-08T10:24:09Z</time>
</trkpt>
<trkpt lat="49.237136794254184" lon="9.329179683700204">
<ele>177.2</ele>
<time>2024-05-08T10:24:10Z</time>
</trkpt>
<trkpt lat="49.23713302239776" lon="9.329174989834428">
<ele>177.2</ele>
<time>2024-05-08T10:24:11Z</time>
</trkpt>
<trkpt lat="49.23713302239776" lon="9.329173061996698">
<ele>177.2</ele>
<time>2024-05-08T10:24:12Z</time>
</trkpt>
<trkpt lat="49.2371291667223" lon="9.329172056168318">
<ele>177.2</ele>
<time>2024-05-08T10:24:13Z</time>
</trkpt>
<trkpt lat="49.2371291667223" lon="9.32916828431189">
<ele>177.2</ele>
<time>2024-05-08T10:24:14Z</time>
</trkpt>
<trkpt lat="49.23713302239776" lon="9.32916635647416">
<ele>177.2</ele>
<time>2024-05-08T10:24:15Z</time>
</trkpt>
<trkpt lat="49.2371291667223" lon="9.329165434464812">
<ele>177.2</ele>
<time>2024-05-08T10:24:16Z</time>
</trkpt>
<trkpt lat="49.2371291667223" lon="9.329163506627085">
<ele>177.2</ele>
<time>2024-05-08T10:24:17Z</time>
</trkpt>
<trkpt lat="49.2371291667223" lon="9.329159734770656">
<ele>177.2</ele>
<time>2024-05-08T10:24:18Z</time>
</trkpt>
<trkpt lat="49.2371291667223" lon="9.329153029248118">
<ele>177.2</ele>
<time>2024-05-08T10:24:19Z</time>
</trkpt>
<trkpt lat="49.23712539486587" lon="9.329132996499538">
<ele>177.2</ele>
<time>2024-05-08T10:24:20Z</time>
</trkpt>
<trkpt lat="49.23712153919041" lon="9.329121513292192">
<ele>177.2</ele>
<time>2024-05-08T10:24:21Z</time>
</trkpt>
<trkpt lat="49.237113911658525" lon="9.329105336219072">
<ele>177.2</ele>
<time>2024-05-08T10:24:22Z</time>
</trkpt>
<trkpt lat="49.23711005598307" lon="9.329065270721912">
<ele>177.2</ele>
<time>2024-05-08T10:24:23Z</time>
</trkpt>
<trkpt lat="49.237113911658525" lon="9.329021433368323">
<ele>177.2</ele>
<time>2024-05-08T10:24:25Z</time>
</trkpt>
<trkpt lat="49.23711005598307" lon="9.328988073393704">
<ele>177.2</ele>
<time>2024-05-08T10:24:26Z</time>
</trkpt>
<trkpt lat="49.23711005598307" lon="9.32893174700439">
<ele>177.2</ele>
<time>2024-05-08T10:24:27Z</time>
</trkpt>
<trkpt lat="49.23710628412664" lon="9.328903164714577">
<ele>177.2</ele>
<time>2024-05-08T10:24:28Z</time>
</trkpt>
<trkpt lat="49.23710242845118" lon="9.328869804739952">
<ele>177.2</ele>
<time>2024-05-08T10:24:30Z</time>
</trkpt>
<trkpt lat="49.237094800919294" lon="9.328798223286867">
<ele>177.2</ele>
<time>2024-05-08T10:24:31Z</time>
</trkpt>
<trkpt lat="49.23709102906287" lon="9.328762935474517">
<ele>177.2</ele>
<time>2024-05-08T10:24:33Z</time>
</trkpt>
<trkpt lat="49.23708717338741" lon="9.328689510002732">
<ele>177.2</ele>
<time>2024-05-08T10:24:34Z</time>
</trkpt>
<trkpt lat="49.23708340153098" lon="9.32865522801876">
<ele>177.2</ele>
<time>2024-05-08T10:24:36Z</time>
</trkpt>
<trkpt lat="49.23708340153098" lon="9.328619940206409">
<ele>177.2</ele>
<time>2024-05-08T10:24:37Z</time>
</trkpt>
<trkpt lat="49.23708340153098" lon="9.328548358753324">
<ele>177.2</ele>
<time>2024-05-08T10:24:39Z</time>
</trkpt>
<trkpt lat="49.23707191832363" lon="9.32847778312862">
<ele>177.2</ele>
<time>2024-05-08T10:24:41Z</time>
</trkpt>
<trkpt lat="49.23706429079175" lon="9.328445428982375">
<ele>177.2</ele>
<time>2024-05-08T10:24:42Z</time>
</trkpt>
<trkpt lat="49.237056663259864" lon="9.32837669737637">
<ele>177.2</ele>
<time>2024-05-08T10:24:44Z</time>
</trkpt>
<trkpt lat="49.23704903572798" lon="9.328336715698242">
<ele>177.2</ele>
<time>2024-05-08T10:24:45Z</time>
</trkpt>
<trkpt lat="49.23704140819609" lon="9.32829849421978">
<ele>177.2</ele>
<time>2024-05-08T10:24:46Z</time>
</trkpt>
<trkpt lat="49.237037636339664" lon="9.328258512541652">
<ele>177.2</ele>
<time>2024-05-08T10:24:47Z</time>
</trkpt>
<trkpt lat="49.23703000880778" lon="9.32822129689157">
<ele>177.2</ele>
<time>2024-05-08T10:24:48Z</time>
</trkpt>
<trkpt lat="49.23701852560043" lon="9.328149715438483">
<ele>177.2</ele>
<time>2024-05-08T10:24:49Z</time>
</trkpt>
<trkpt lat="49.23701089806855" lon="9.328113505616784">
<ele>177.2</ele>
<time>2024-05-08T10:24:50Z</time>
</trkpt>
<trkpt lat="49.23700327053666" lon="9.328075367957354">
<ele>177.2</ele>
<time>2024-05-08T10:24:51Z</time>
</trkpt>
<trkpt lat="49.236999498680234" lon="9.328035302460194">
<ele>177.2</ele>
<time>2024-05-08T10:24:53Z</time>
</trkpt>
<trkpt lat="49.23699187114835" lon="9.327998086810112">
<ele>177.2</ele>
<time>2024-05-08T10:24:54Z</time>
</trkpt>
<trkpt lat="49.236976616084576" lon="9.327915189787744">
<ele>177</ele>
<time>2024-05-08T10:24:55Z</time>
</trkpt>
<trkpt lat="49.23697276040912" lon="9.327876968309283">
<ele>176.8</ele>
<time>2024-05-08T10:24:56Z</time>
</trkpt>
<trkpt lat="49.236957505345345" lon="9.32784645818174">
<ele>176.6</ele>
<time>2024-05-08T10:24:58Z</time>
</trkpt>
<trkpt lat="49.23693839460611" lon="9.327808320522308">
<ele>176.6</ele>
<time>2024-05-08T10:24:59Z</time>
</trkpt>
<trkpt lat="49.23692313954234" lon="9.32772533968091">
<ele>176.2</ele>
<time>2024-05-08T10:25:00Z</time>
</trkpt>
<trkpt lat="49.236915512010455" lon="9.327681502327325">
<ele>176.2</ele>
<time>2024-05-08T10:25:01Z</time>
</trkpt>
<trkpt lat="49.23690025694668" lon="9.327645292505622">
<ele>176</ele>
<time>2024-05-08T10:25:03Z</time>
</trkpt>
<trkpt lat="49.236896485090256" lon="9.327563233673573">
<ele>176</ele>
<time>2024-05-08T10:25:04Z</time>
</trkpt>
<trkpt lat="49.2368926294148" lon="9.327521324157717">
<ele>175.8</ele>
<time>2024-05-08T10:25:05Z</time>
</trkpt>
<trkpt lat="49.23688500188291" lon="9.327478408813477">
<ele>175.8</ele>
<time>2024-05-08T10:25:06Z</time>
</trkpt>
<trkpt lat="49.236877374351025" lon="9.327433565631509">
<ele>175.8</ele>
<time>2024-05-08T10:25:07Z</time>
</trkpt>
<trkpt lat="49.23686974681914" lon="9.327383022755384">
<ele>175.6</ele>
<time>2024-05-08T10:25:08Z</time>
</trkpt>
<trkpt lat="49.23686597496271" lon="9.327335329726338">
<ele>175.6</ele>
<time>2024-05-08T10:25:09Z</time>
</trkpt>
<trkpt lat="49.236854491755366" lon="9.32729140855372">
<ele>175.4</ele>
<time>2024-05-08T10:25:10Z</time>
</trkpt>
<trkpt lat="49.23685071989894" lon="9.327241871505976">
<ele>175.2</ele>
<time>2024-05-08T10:25:11Z</time>
</trkpt>
<trkpt lat="49.23684309236705" lon="9.32719325646758">
<ele>175</ele>
<time>2024-05-08T10:25:13Z</time>
</trkpt>
<trkpt lat="49.23682783730328" lon="9.327106419950724">
<ele>174.6</ele>
<time>2024-05-08T10:25:14Z</time>
</trkpt>
<trkpt lat="49.23682398162782" lon="9.327066354453564">
<ele>174.4</ele>
<time>2024-05-08T10:25:16Z</time>
</trkpt>
<trkpt lat="49.236820209771395" lon="9.327021595090628">
<ele>174.2</ele>
<time>2024-05-08T10:25:17Z</time>
</trkpt>
<trkpt lat="49.236820209771395" lon="9.32697867974639">
<ele>174</ele>
<time>2024-05-08T10:25:18Z</time>
</trkpt>
<trkpt lat="49.236816354095936" lon="9.32689469307661">
<ele>173.2</ele>
<time>2024-05-08T10:25:19Z</time>
</trkpt>
<trkpt lat="49.236820209771395" lon="9.326851777732372">
<ele>173</ele>
<time>2024-05-08T10:25:21Z</time>
</trkpt>
<trkpt lat="49.236820209771395" lon="9.326807940378783">
<ele>172.6</ele>
<time>2024-05-08T10:25:22Z</time>
</trkpt>
<trkpt lat="49.236820209771395" lon="9.326763097196816">
<ele>172.4</ele>
<time>2024-05-08T10:25:23Z</time>
</trkpt>
<trkpt lat="49.236820209771395" lon="9.32672018185258">
<ele>172</ele>
<time>2024-05-08T10:25:24Z</time>
</trkpt>
<trkpt lat="49.23681258223951" lon="9.326633429154754">
<ele>171.6</ele>
<time>2024-05-08T10:25:26Z</time>
</trkpt>
<trkpt lat="49.23680495470762" lon="9.326539970934393">
<ele>171.2</ele>
<time>2024-05-08T10:25:27Z</time>
</trkpt>
<trkpt lat="49.23680495470762" lon="9.326493199914694">
<ele>171</ele>
<time>2024-05-08T10:25:28Z</time>
</trkpt>
<trkpt lat="49.23680495470762" lon="9.32644366286695">
<ele>170.8</ele>
<time>2024-05-08T10:25:29Z</time>
</trkpt>
<trkpt lat="49.23680495470762" lon="9.32638448663056">
<ele>170.4</ele>
<time>2024-05-08T10:25:30Z</time>
</trkpt>
<trkpt lat="49.23680495470762" lon="9.32632153853774">
<ele>170.2</ele>
<time>2024-05-08T10:25:31Z</time>
</trkpt>
<trkpt lat="49.23680495470762" lon="9.326254818588495">
<ele>170</ele>
<time>2024-05-08T10:25:32Z</time>
</trkpt>
<trkpt lat="49.23680109903216" lon="9.326188014820218">
<ele>169.8</ele>
<time>2024-05-08T10:25:33Z</time>
</trkpt>
<trkpt lat="49.23680109903216" lon="9.32612699456513">
<ele>169.6</ele>
<time>2024-05-08T10:25:34Z</time>
</trkpt>
<trkpt lat="49.236797327175736" lon="9.326063124462962">
<ele>169.4</ele>
<time>2024-05-08T10:25:35Z</time>
</trkpt>
<trkpt lat="49.236797327175736" lon="9.326004954054952">
<ele>169.2</ele>
<time>2024-05-08T10:25:36Z</time>
</trkpt>
<trkpt lat="49.236797327175736" lon="9.32594678364694">
<ele>169</ele>
<time>2024-05-08T10:25:38Z</time>
</trkpt>
<trkpt lat="49.23680495470762" lon="9.325835220515728">
<ele>168.4</ele>
<time>2024-05-08T10:25:40Z</time>
</trkpt>
<trkpt lat="49.23680495470762" lon="9.325777972117066">
<ele>168.2</ele>
<time>2024-05-08T10:25:41Z</time>
</trkpt>
<trkpt lat="49.23680495470762" lon="9.325663559138777">
<ele>167.6</ele>
<time>2024-05-08T10:25:42Z</time>
</trkpt>
<trkpt lat="49.23680495470762" lon="9.32561008259654">
<ele>167.2</ele>
<time>2024-05-08T10:25:44Z</time>
</trkpt>
<trkpt lat="49.23680495470762" lon="9.325559539720416">
<ele>167</ele>
<time>2024-05-08T10:25:45Z</time>
</trkpt>
<trkpt lat="49.23679347150028" lon="9.325468009337785">
<ele>166.4</ele>
<time>2024-05-08T10:25:46Z</time>
</trkpt>
<trkpt lat="49.23678207211197" lon="9.325429871678352">
<ele>166</ele>
<time>2024-05-08T10:25:47Z</time>
</trkpt>
<trkpt lat="49.236778216436505" lon="9.325391734018922">
<ele>165.8</ele>
<time>2024-05-08T10:25:48Z</time>
</trkpt>
<trkpt lat="49.23677444458008" lon="9.325353596359491">
<ele>165.6</ele>
<time>2024-05-08T10:25:49Z</time>
</trkpt>
<trkpt lat="49.23676673322916" lon="9.32531638070941">
<ele>165.4</ele>
<time>2024-05-08T10:25:50Z</time>
</trkpt>
<trkpt lat="49.23675147816539" lon="9.325284948572516">
<ele>165.4</ele>
<time>2024-05-08T10:25:51Z</time>
</trkpt>
<trkpt lat="49.236736223101616" lon="9.325253432616591">
<ele>165.2</ele>
<time>2024-05-08T10:25:52Z</time>
</trkpt>
<trkpt lat="49.23672096803784" lon="9.325224850326777">
<ele>165</ele>
<time>2024-05-08T10:25:53Z</time>
</trkpt>
<trkpt lat="49.23670194111765" lon="9.32519618421793">
<ele>164.8</ele>
<time>2024-05-08T10:25:54Z</time>
</trkpt>
<trkpt lat="49.23668668605387" lon="9.325169529765844">
<ele>164.6</ele>
<time>2024-05-08T10:25:55Z</time>
</trkpt>
<trkpt lat="49.2366714309901" lon="9.325139941647649">
<ele>164.6</ele>
<time>2024-05-08T10:25:56Z</time>
</trkpt>
<trkpt lat="49.23665232025087" lon="9.32511513121426">
<ele>164.4</ele>
<time>2024-05-08T10:25:58Z</time>
</trkpt>
<trkpt lat="49.23662181012333" lon="9.325079843401909">
<ele>164.4</ele>
<time>2024-05-08T10:26:00Z</time>
</trkpt>
<trkpt lat="49.23660655505955" lon="9.325028378516436">
<ele>164.2</ele>
<time>2024-05-08T10:26:02Z</time>
</trkpt>
<trkpt lat="49.2366180382669" lon="9.324963502585888">
<ele>164.2</ele>
<time>2024-05-08T10:26:03Z</time>
</trkpt>
<trkpt lat="49.23662566579878" lon="9.324928214773536">
<ele>164</ele>
<time>2024-05-08T10:26:05Z</time>
</trkpt>
<trkpt lat="49.23664092086256" lon="9.324892004951836">
<ele>164</ele>
<time>2024-05-08T10:26:06Z</time>
</trkpt>
<trkpt lat="49.236659947782755" lon="9.324856717139482">
<ele>163.8</ele>
<time>2024-05-08T10:26:07Z</time>
</trkpt>
<trkpt lat="49.236679058521986" lon="9.32482142932713">
<ele>163.8</ele>
<time>2024-05-08T10:26:08Z</time>
</trkpt>
<trkpt lat="49.23670956864953" lon="9.324747081846">
<ele>163.6</ele>
<time>2024-05-08T10:26:09Z</time>
</trkpt>
<trkpt lat="49.23672096803784" lon="9.324707938358188">
<ele>163.6</ele>
<time>2024-05-08T10:26:10Z</time>
</trkpt>
<trkpt lat="49.23673245124519" lon="9.324671728536488">
<ele>163.6</ele>
<time>2024-05-08T10:26:11Z</time>
</trkpt>
<trkpt lat="49.2367438506335" lon="9.324631663039328">
<ele>163.6</ele>
<time>2024-05-08T10:26:12Z</time>
</trkpt>
<trkpt lat="49.23675533384085" lon="9.324588747695088">
<ele>163.6</ele>
<time>2024-05-08T10:26:13Z</time>
</trkpt>
<trkpt lat="49.23677058890462" lon="9.32454482652247">
<ele>163.6</ele>
<time>2024-05-08T10:26:14Z</time>
</trkpt>
<trkpt lat="49.23678207211197" lon="9.324501911178231">
<ele>163.4</ele>
<time>2024-05-08T10:26:16Z</time>
</trkpt>
<trkpt lat="49.23678969964385" lon="9.324401831254365">
<ele>163.4</ele>
<time>2024-05-08T10:26:17Z</time>
</trkpt>
<trkpt lat="49.23679347150028" lon="9.324341733008623">
<ele>163.4</ele>
<time>2024-05-08T10:26:18Z</time>
</trkpt>
<trkpt lat="49.23679347150028" lon="9.324279706925154">
<ele>163.4</ele>
<time>2024-05-08T10:26:20Z</time>
</trkpt>
<trkpt lat="49.236797327175736" lon="9.324226314201953">
<ele>163.2</ele>
<time>2024-05-08T10:26:21Z</time>
</trkpt>
<trkpt lat="49.23681258223951" lon="9.324118606746197">
<ele>163</ele>
<time>2024-05-08T10:26:22Z</time>
</trkpt>
<trkpt lat="49.23682398162782" lon="9.3240718357265">
<ele>163</ele>
<time>2024-05-08T10:26:23Z</time>
</trkpt>
<trkpt lat="49.236839236691594" lon="9.32402984239161">
<ele>162.8</ele>
<time>2024-05-08T10:26:24Z</time>
</trkpt>
<trkpt lat="49.23686211928725" lon="9.324006959795952">
<ele>162.8</ele>
<time>2024-05-08T10:26:25Z</time>
</trkpt>
<trkpt lat="49.23688500188291" lon="9.324009893462062">
<ele>162.6</ele>
<time>2024-05-08T10:26:26Z</time>
</trkpt>
<trkpt lat="49.23690788447857" lon="9.324020370841026">
<ele>162.6</ele>
<time>2024-05-08T10:26:28Z</time>
</trkpt>
<trkpt lat="49.23693076707423" lon="9.324047025293112">
<ele>162.6</ele>
<time>2024-05-08T10:26:29Z</time>
</trkpt>
<trkpt lat="49.23695373348892" lon="9.324079463258386">
<ele>162.4</ele>
<time>2024-05-08T10:26:30Z</time>
</trkpt>
<trkpt lat="49.23699187114835" lon="9.324156744405627">
<ele>162.6</ele>
<time>2024-05-08T10:26:31Z</time>
</trkpt>
<trkpt lat="49.23700327053666" lon="9.324198653921483">
<ele>162.6</ele>
<time>2024-05-08T10:26:32Z</time>
</trkpt>
<trkpt lat="49.237014753744006" lon="9.324245424941182">
<ele>162.8</ele>
<time>2024-05-08T10:26:34Z</time>
</trkpt>
<trkpt lat="49.23704140819609" lon="9.32432840578258">
<ele>163</ele>
<time>2024-05-08T10:26:35Z</time>
</trkpt>
<trkpt lat="49.237056663259864" lon="9.32436461560428">
<ele>163.2</ele>
<time>2024-05-08T10:26:37Z</time>
</trkpt>
<trkpt lat="49.23707954585552" lon="9.324433263391256">
<ele>163.6</ele>
<time>2024-05-08T10:26:38Z</time>
</trkpt>
<trkpt lat="49.23709102906287" lon="9.32446477934718">
<ele>163.8</ele>
<time>2024-05-08T10:26:40Z</time>
</trkpt>
<trkpt lat="49.23710242845118" lon="9.324495289474726">
<ele>164</ele>
<time>2024-05-08T10:26:41Z</time>
</trkpt>
<trkpt lat="49.237117767333984" lon="9.324516244232656">
<ele>164</ele>
<time>2024-05-08T10:26:42Z</time>
</trkpt>
<trkpt lat="49.237136794254184" lon="9.324536276981236">
<ele>164.2</ele>
<time>2024-05-08T10:26:43Z</time>
</trkpt>
<trkpt lat="49.23716730438173" lon="9.324563015252352">
<ele>164.6</ele>
<time>2024-05-08T10:26:45Z</time>
</trkpt>
<trkpt lat="49.23720167018473" lon="9.324569636955856">
<ele>164.8</ele>
<time>2024-05-08T10:26:46Z</time>
</trkpt>
<trkpt lat="49.237216925248504" lon="9.324558237567544">
<ele>164.8</ele>
<time>2024-05-08T10:26:48Z</time>
</trkpt>
<trkpt lat="49.237251207232475" lon="9.324521943926811">
<ele>164.8</ele>
<time>2024-05-08T10:26:49Z</time>
</trkpt>
<trkpt lat="49.23726646229625" lon="9.324502917006612">
<ele>164.8</ele>
<time>2024-05-08T10:26:50Z</time>
</trkpt>
<trkpt lat="49.23728557303548" lon="9.324481962248685">
<ele>164.8</ele>
<time>2024-05-08T10:26:51Z</time>
</trkpt>
<trkpt lat="49.23730468377471" lon="9.324456145986916">
<ele>164.8</ele>
<time>2024-05-08T10:26:53Z</time>
</trkpt>
<trkpt lat="49.23734282143414" lon="9.324403759092093">
<ele>164.8</ele>
<time>2024-05-08T10:26:55Z</time>
</trkpt>
<trkpt lat="49.23738473095" lon="9.324343660846353">
<ele>165</ele>
<time>2024-05-08T10:26:56Z</time>
</trkpt>
<trkpt lat="49.23740384168923" lon="9.324313150718808">
<ele>165.2</ele>
<time>2024-05-08T10:26:58Z</time>
</trkpt>
<trkpt lat="49.23745337873697" lon="9.324252046644688">
<ele>165.4</ele>
<time>2024-05-08T10:26:59Z</time>
</trkpt>
<trkpt lat="49.23747634515166" lon="9.324221536517143">
<ele>165.4</ele>
<time>2024-05-08T10:27:00Z</time>
</trkpt>
<trkpt lat="49.23749922774732" lon="9.32419010438025">
<ele>165.6</ele>
<time>2024-05-08T10:27:01Z</time>
</trkpt>
<trkpt lat="49.23752588219941" lon="9.324156744405627">
<ele>165.4</ele>
<time>2024-05-08T10:27:02Z</time>
</trkpt>
<trkpt lat="49.23755262047053" lon="9.324118606746197">
<ele>165.6</ele>
<time>2024-05-08T10:27:03Z</time>
</trkpt>
<trkpt lat="49.23757550306618" lon="9.324078541249037">
<ele>165.6</ele>
<time>2024-05-08T10:27:04Z</time>
</trkpt>
<trkpt lat="49.23760215751827" lon="9.324040403589606">
<ele>165.6</ele>
<time>2024-05-08T10:27:05Z</time>
</trkpt>
<trkpt lat="49.237628895789385" lon="9.324001260101795">
<ele>165.6</ele>
<time>2024-05-08T10:27:06Z</time>
</trkpt>
<trkpt lat="49.23765177838504" lon="9.323960272595286">
<ele>165.6</ele>
<time>2024-05-08T10:27:08Z</time>
</trkpt>
<trkpt lat="49.23770139925182" lon="9.323869664222002">
<ele>165.8</ele>
<time>2024-05-08T10:27:10Z</time>
</trkpt>
<trkpt lat="49.23772428184748" lon="9.3238162714988">
<ele>165.8</ele>
<time>2024-05-08T10:27:11Z</time>
</trkpt>
<trkpt lat="49.23777767457068" lon="9.323686519637704">
<ele>165.8</ele>
<time>2024-05-08T10:27:12Z</time>
</trkpt>
<trkpt lat="49.237808184698224" lon="9.323610244318845">
<ele>165.8</ele>
<time>2024-05-08T10:27:13Z</time>
</trkpt>
<trkpt lat="49.23783492296934" lon="9.323525419458749">
<ele>165.6</ele>
<time>2024-05-08T10:27:14Z</time>
</trkpt>
<trkpt lat="49.237865433096886" lon="9.32343958877027">
<ele>165.4</ele>
<time>2024-05-08T10:27:15Z</time>
</trkpt>
<trkpt lat="49.23790357075632" lon="9.323358535766602">
<ele>165.2</ele>
<time>2024-05-08T10:27:17Z</time>
</trkpt>
<trkpt lat="49.23797984607518" lon="9.32320305146277">
<ele>164.6</ele>
<time>2024-05-08T10:27:18Z</time>
</trkpt>
<trkpt lat="49.23802183941007" lon="9.323131553828716">
<ele>164.4</ele>
<time>2024-05-08T10:27:19Z</time>
</trkpt>
<trkpt lat="49.23805612139404" lon="9.323059972375631">
<ele>164</ele>
<time>2024-05-08T10:27:21Z</time>
</trkpt>
<trkpt lat="49.23812476918101" lon="9.322917899116874">
<ele>163.8</ele>
<time>2024-05-08T10:27:22Z</time>
</trkpt>
<trkpt lat="49.23815536312759" lon="9.322850173339248">
<ele>163.6</ele>
<time>2024-05-08T10:27:23Z</time>
</trkpt>
<trkpt lat="49.238185873255134" lon="9.322783453390002">
<ele>163.6</ele>
<time>2024-05-08T10:27:24Z</time>
</trkpt>
<trkpt lat="49.238220155239105" lon="9.322718577459456">
<ele>163.4</ele>
<time>2024-05-08T10:27:25Z</time>
</trkpt>
<trkpt lat="49.23825066536665" lon="9.322653701528909">
<ele>163.4</ele>
<time>2024-05-08T10:27:26Z</time>
</trkpt>
<trkpt lat="49.23828503116965" lon="9.32258698157966">
<ele>163.2</ele>
<time>2024-05-08T10:27:27Z</time>
</trkpt>
<trkpt lat="49.23831168562174" lon="9.322524955496192">
<ele>163.2</ele>
<time>2024-05-08T10:27:28Z</time>
</trkpt>
<trkpt lat="49.23834605142474" lon="9.322462007403374">
<ele>163</ele>
<time>2024-05-08T10:27:30Z</time>
</trkpt>
<trkpt lat="49.23841092735529" lon="9.322335189208388">
<ele>163</ele>
<time>2024-05-08T10:27:31Z</time>
</trkpt>
<trkpt lat="49.238441437482834" lon="9.32227131910622">
<ele>163</ele>
<time>2024-05-08T10:27:32Z</time>
</trkpt>
<trkpt lat="49.23846809193492" lon="9.322208371013405">
<ele>163</ele>
<time>2024-05-08T10:27:33Z</time>
</trkpt>
<trkpt lat="49.23849483020604" lon="9.322146344929934">
<ele>163</ele>
<time>2024-05-08T10:27:35Z</time>
</trkpt>
<trkpt lat="49.23852534033358" lon="9.322086330503224">
<ele>163</ele>
<time>2024-05-08T10:27:36Z</time>
</trkpt>
<trkpt lat="49.23859021626413" lon="9.321968061849477">
<ele>163</ele>
<time>2024-05-08T10:27:37Z</time>
</trkpt>
<trkpt lat="49.2386244982481" lon="9.321907963603737">
<ele>163.2</ele>
<time>2024-05-08T10:27:39Z</time>
</trkpt>
<trkpt lat="49.23866271972656" lon="9.321851721033454">
<ele>163.2</ele>
<time>2024-05-08T10:27:40Z</time>
</trkpt>
<trkpt lat="49.23874276690185" lon="9.321740074083207">
<ele>163.2</ele>
<time>2024-05-08T10:27:42Z</time>
</trkpt>
<trkpt lat="49.23878476023674" lon="9.321684837341309">
<ele>163.2</ele>
<time>2024-05-08T10:27:43Z</time>
</trkpt>
<trkpt lat="49.23886489123106" lon="9.321575118228791">
<ele>163</ele>
<time>2024-05-08T10:27:45Z</time>
</trkpt>
<trkpt lat="49.23890680074692" lon="9.32152365334332">
<ele>163</ele>
<time>2024-05-08T10:27:46Z</time>
</trkpt>
<trkpt lat="49.23898307606578" lon="9.321426339447498">
<ele>163</ele>
<time>2024-05-08T10:27:47Z</time>
</trkpt>
<trkpt lat="49.23902129754424" lon="9.321378646418452">
<ele>163</ele>
<time>2024-05-08T10:27:49Z</time>
</trkpt>
<trkpt lat="49.2390632070601" lon="9.321331959217789">
<ele>163</ele>
<time>2024-05-08T10:27:50Z</time>
</trkpt>
<trkpt lat="49.23914333805442" lon="9.321240345016122">
<ele>162.8</ele>
<time>2024-05-08T10:27:51Z</time>
</trkpt>
<trkpt lat="49.23918147571385" lon="9.321194579824803">
<ele>162.8</ele>
<time>2024-05-08T10:27:52Z</time>
</trkpt>
<trkpt lat="49.23921961337328" lon="9.321153592318296">
<ele>162.8</ele>
<time>2024-05-08T10:27:53Z</time>
</trkpt>
<trkpt lat="49.23925775103271" lon="9.32110782712698">
<ele>162.8</ele>
<time>2024-05-08T10:27:54Z</time>
</trkpt>
<trkpt lat="49.23929588869214" lon="9.321062983945012">
<ele>162.8</ele>
<time>2024-05-08T10:27:55Z</time>
</trkpt>
<trkpt lat="49.23933402635157" lon="9.321016296744348">
<ele>162.8</ele>
<time>2024-05-08T10:27:56Z</time>
</trkpt>
<trkpt lat="49.239368392154574" lon="9.32097145356238">
<ele>163</ele>
<time>2024-05-08T10:27:57Z</time>
</trkpt>
<trkpt lat="49.239406529814005" lon="9.320921832695603">
<ele>163</ele>
<time>2024-05-08T10:27:59Z</time>
</trkpt>
<trkpt lat="49.239467550069094" lon="9.320816975086927">
<ele>163.2</ele>
<time>2024-05-08T10:28:01Z</time>
</trkpt>
<trkpt lat="49.23949428834021" lon="9.320758804678915">
<ele>163.4</ele>
<time>2024-05-08T10:28:02Z</time>
</trkpt>
<trkpt lat="49.23951717093587" lon="9.320694850757718">
<ele>163.4</ele>
<time>2024-05-08T10:28:03Z</time>
</trkpt>
<trkpt lat="49.2395553085953" lon="9.32055369950831">
<ele>163.6</ele>
<time>2024-05-08T10:28:05Z</time>
</trkpt>
<trkpt lat="49.2395896743983" lon="9.320406848564744">
<ele>163.8</ele>
<time>2024-05-08T10:28:06Z</time>
</trkpt>
<trkpt lat="49.239604929462075" lon="9.32033342309296">
<ele>163.8</ele>
<time>2024-05-08T10:28:07Z</time>
</trkpt>
<trkpt lat="49.23962018452585" lon="9.32025806978345">
<ele>163.8</ele>
<time>2024-05-08T10:28:08Z</time>
</trkpt>
<trkpt lat="49.23963543958962" lon="9.320184644311666">
<ele>163.8</ele>
<time>2024-05-08T10:28:09Z</time>
</trkpt>
<trkpt lat="49.23965446650982" lon="9.320110296830537">
<ele>163.8</ele>
<time>2024-05-08T10:28:11Z</time>
</trkpt>
<trkpt lat="49.23968883231282" lon="9.319958668202162">
<ele>164</ele>
<time>2024-05-08T10:28:12Z</time>
</trkpt>
<trkpt lat="49.239704087376595" lon="9.31988524273038">
<ele>164</ele>
<time>2024-05-08T10:28:14Z</time>
</trkpt>
<trkpt lat="49.2397384531796" lon="9.319746941328049">
<ele>164</ele>
<time>2024-05-08T10:28:15Z</time>
</trkpt>
<trkpt lat="49.2397574800998" lon="9.319680137559772">
<ele>164</ele>
<time>2024-05-08T10:28:16Z</time>
</trkpt>
<trkpt lat="49.23977659083903" lon="9.319613417610526">
<ele>164</ele>
<time>2024-05-08T10:28:17Z</time>
</trkpt>
<trkpt lat="49.23979947343469" lon="9.319548541679978">
<ele>164</ele>
<time>2024-05-08T10:28:19Z</time>
</trkpt>
<trkpt lat="49.239841382950544" lon="9.319433206692338">
<ele>164</ele>
<time>2024-05-08T10:28:20Z</time>
</trkpt>
<trkpt lat="49.23986812122166" lon="9.319383585825562">
<ele>164</ele>
<time>2024-05-08T10:28:21Z</time>
</trkpt>
<trkpt lat="49.239898631349206" lon="9.319334970787168">
<ele>164</ele>
<time>2024-05-08T10:28:22Z</time>
</trkpt>
<trkpt lat="49.23992914147675" lon="9.31928819976747">
<ele>164</ele>
<time>2024-05-08T10:28:24Z</time>
</trkpt>
<trkpt lat="49.240001644939184" lon="9.319198597222568">
<ele>164</ele>
<time>2024-05-08T10:28:25Z</time>
</trkpt>
<trkpt lat="49.240039782598615" lon="9.319158531725408">
<ele>164</ele>
<time>2024-05-08T10:28:27Z</time>
</trkpt>
<trkpt lat="49.240119913592935" lon="9.319100361317396">
<ele>164.2</ele>
<time>2024-05-08T10:28:29Z</time>
</trkpt>
<trkpt lat="49.24019996076822" lon="9.3190535902977">
<ele>164.4</ele>
<time>2024-05-08T10:28:30Z</time>
</trkpt>
<trkpt lat="49.24024195410311" lon="9.319029785692692">
<ele>164.4</ele>
<time>2024-05-08T10:28:31Z</time>
</trkpt>
<trkpt lat="49.24028009176254" lon="9.319006903097034">
<ele>164.4</ele>
<time>2024-05-08T10:28:32Z</time>
</trkpt>
<trkpt lat="49.24031822942197" lon="9.318984942510724">
<ele>164.4</ele>
<time>2024-05-08T10:28:33Z</time>
</trkpt>
<trkpt lat="49.24035636708141" lon="9.318962059915066">
<ele>164.4</ele>
<time>2024-05-08T10:28:35Z</time>
</trkpt>
<trkpt lat="49.24042887054384" lon="9.31891151703894">
<ele>164.6</ele>
<time>2024-05-08T10:28:36Z</time>
</trkpt>
<trkpt lat="49.24046700820327" lon="9.318884778767824">
<ele>164.6</ele>
<time>2024-05-08T10:28:38Z</time>
</trkpt>
<trkpt lat="49.24050137400627" lon="9.318853346630933">
<ele>164.6</ele>
<time>2024-05-08T10:28:39Z</time>
</trkpt>
<trkpt lat="49.240531884133816" lon="9.31881805881858">
<ele>164.6</ele>
<time>2024-05-08T10:28:40Z</time>
</trkpt>
<trkpt lat="49.240592904388905" lon="9.318728372454643">
<ele>164.6</ele>
<time>2024-05-08T10:28:41Z</time>
</trkpt>
<trkpt lat="49.24061964266002" lon="9.31867497973144">
<ele>164.8</ele>
<time>2024-05-08T10:28:42Z</time>
</trkpt>
<trkpt lat="49.240650152787566" lon="9.31861873716116">
<ele>164.8</ele>
<time>2024-05-08T10:28:43Z</time>
</trkpt>
<trkpt lat="49.24067680723965" lon="9.31855671107769">
<ele>164.8</ele>
<time>2024-05-08T10:28:44Z</time>
</trkpt>
<trkpt lat="49.24069968983531" lon="9.318494768813252">
<ele>165</ele>
<time>2024-05-08T10:28:45Z</time>
</trkpt>
<trkpt lat="49.24072642810643" lon="9.318429892882705">
<ele>165</ele>
<time>2024-05-08T10:28:47Z</time>
</trkpt>
<trkpt lat="49.240772193297744" lon="9.318298297002912">
<ele>165.2</ele>
<time>2024-05-08T10:28:48Z</time>
</trkpt>
<trkpt lat="49.24079893156886" lon="9.318231577053666">
<ele>165.4</ele>
<time>2024-05-08T10:28:49Z</time>
</trkpt>
<trkpt lat="49.24082181416452" lon="9.31816192343831">
<ele>165.4</ele>
<time>2024-05-08T10:28:50Z</time>
</trkpt>
<trkpt lat="49.240848468616605" lon="9.318093275651336">
<ele>165.6</ele>
<time>2024-05-08T10:28:51Z</time>
</trkpt>
<trkpt lat="49.24087520688772" lon="9.31802462786436">
<ele>165.6</ele>
<time>2024-05-08T10:28:52Z</time>
</trkpt>
<trkpt lat="49.24089808948338" lon="9.317957824096084">
<ele>165.4</ele>
<time>2024-05-08T10:28:53Z</time>
</trkpt>
<trkpt lat="49.2409248277545" lon="9.317890098318458">
<ele>165.4</ele>
<time>2024-05-08T10:28:54Z</time>
</trkpt>
<trkpt lat="49.24095148220658" lon="9.317825306206942">
<ele>165.4</ele>
<time>2024-05-08T10:28:55Z</time>
</trkpt>
<trkpt lat="49.24097436480224" lon="9.317760430276394">
<ele>165.6</ele>
<time>2024-05-08T10:28:56Z</time>
</trkpt>
<trkpt lat="49.2409972473979" lon="9.317694632336496">
<ele>165.6</ele>
<time>2024-05-08T10:28:57Z</time>
</trkpt>
<trkpt lat="49.24102398566902" lon="9.31763168424368">
<ele>165.6</ele>
<time>2024-05-08T10:28:58Z</time>
</trkpt>
<trkpt lat="49.241046868264675" lon="9.31756873615086">
<ele>165.6</ele>
<time>2024-05-08T10:28:59Z</time>
</trkpt>
<trkpt lat="49.24107360653579" lon="9.317502938210964">
<ele>165.6</ele>
<time>2024-05-08T10:29:00Z</time>
</trkpt>
<trkpt lat="49.24109648913145" lon="9.31743621826172">
<ele>165.6</ele>
<time>2024-05-08T10:29:01Z</time>
</trkpt>
<trkpt lat="49.241123143583536" lon="9.31737033650279">
<ele>165.6</ele>
<time>2024-05-08T10:29:02Z</time>
</trkpt>
<trkpt lat="49.241146026179194" lon="9.317299760878086">
<ele>165.4</ele>
<time>2024-05-08T10:29:04Z</time>
</trkpt>
<trkpt lat="49.24118801951408" lon="9.31715676560998">
<ele>165.4</ele>
<time>2024-05-08T10:29:06Z</time>
</trkpt>
<trkpt lat="49.24120704643428" lon="9.317081412300467">
<ele>165.2</ele>
<time>2024-05-08T10:29:07Z</time>
</trkpt>
<trkpt lat="49.24123764038086" lon="9.316926933825016">
<ele>165.2</ele>
<time>2024-05-08T10:29:08Z</time>
</trkpt>
<trkpt lat="49.24125289544463" lon="9.316846802830696">
<ele>165</ele>
<time>2024-05-08T10:29:10Z</time>
</trkpt>
<trkpt lat="49.241283405572176" lon="9.316690396517515">
<ele>165</ele>
<time>2024-05-08T10:29:11Z</time>
</trkpt>
<trkpt lat="49.241302432492375" lon="9.316613115370274">
<ele>165</ele>
<time>2024-05-08T10:29:12Z</time>
</trkpt>
<trkpt lat="49.24131768755615" lon="9.316536840051413">
<ele>165</ele>
<time>2024-05-08T10:29:14Z</time>
</trkpt>
<trkpt lat="49.24134819768369" lon="9.316376661881804">
<ele>164.8</ele>
<time>2024-05-08T10:29:16Z</time>
</trkpt>
<trkpt lat="49.241382563486695" lon="9.316214555874469">
<ele>164.6</ele>
<time>2024-05-08T10:29:17Z</time>
</trkpt>
<trkpt lat="49.24139781855047" lon="9.316133419051766">
<ele>164.6</ele>
<time>2024-05-08T10:29:18Z</time>
</trkpt>
<trkpt lat="49.24141307361424" lon="9.316051444038749">
<ele>164.6</ele>
<time>2024-05-08T10:29:20Z</time>
</trkpt>
<trkpt lat="49.24145121127367" lon="9.315884560346603">
<ele>164.4</ele>
<time>2024-05-08T10:29:22Z</time>
</trkpt>
<trkpt lat="49.2414893489331" lon="9.315719604492188">
<ele>164.4</ele>
<time>2024-05-08T10:29:24Z</time>
</trkpt>
<trkpt lat="49.24152748659253" lon="9.31555456481874">
<ele>164.4</ele>
<time>2024-05-08T10:29:25Z</time>
</trkpt>
<trkpt lat="49.24154659733176" lon="9.315471583977342">
<ele>164.4</ele>
<time>2024-05-08T10:29:26Z</time>
</trkpt>
<trkpt lat="49.241561852395535" lon="9.315389608964324">
<ele>164.4</ele>
<time>2024-05-08T10:29:27Z</time>
</trkpt>
<trkpt lat="49.241580963134766" lon="9.315306628122926">
<ele>164.4</ele>
<time>2024-05-08T10:29:28Z</time>
</trkpt>
<trkpt lat="49.241599990054965" lon="9.315223647281528">
<ele>164.4</ele>
<time>2024-05-08T10:29:30Z</time>
</trkpt>
<trkpt lat="49.24162287265062" lon="9.315144522115588">
<ele>164.4</ele>
<time>2024-05-08T10:29:31Z</time>
</trkpt>
<trkpt lat="49.24166486598551" lon="9.314990043640137">
<ele>164.4</ele>
<time>2024-05-08T10:29:32Z</time>
</trkpt>
<trkpt lat="49.24168774858117" lon="9.314913684502244">
<ele>164.4</ele>
<time>2024-05-08T10:29:33Z</time>
</trkpt>
<trkpt lat="49.24171063117683" lon="9.31484025903046">
<ele>164.4</ele>
<time>2024-05-08T10:29:34Z</time>
</trkpt>
<trkpt lat="49.24173351377249" lon="9.314768761396408">
<ele>164.4</ele>
<time>2024-05-08T10:29:35Z</time>
</trkpt>
<trkpt lat="49.241756396368146" lon="9.314693408086896">
<ele>164.4</ele>
<time>2024-05-08T10:29:37Z</time>
</trkpt>
<trkpt lat="49.24180216155946" lon="9.31454848498106">
<ele>164.4</ele>
<time>2024-05-08T10:29:38Z</time>
</trkpt>
<trkpt lat="49.24182504415512" lon="9.314475059509276">
<ele>164.4</ele>
<time>2024-05-08T10:29:39Z</time>
</trkpt>
<trkpt lat="49.24185178242624" lon="9.314403478056192">
<ele>164.4</ele>
<time>2024-05-08T10:29:40Z</time>
</trkpt>
<trkpt lat="49.241874665021896" lon="9.31433005258441">
<ele>164.4</ele>
<time>2024-05-08T10:29:42Z</time>
</trkpt>
<trkpt lat="49.2419280577451" lon="9.314187979325652">
<ele>164.4</ele>
<time>2024-05-08T10:29:43Z</time>
</trkpt>
<trkpt lat="49.241954796016216" lon="9.314116397872567">
<ele>164.4</ele>
<time>2024-05-08T10:29:44Z</time>
</trkpt>
<trkpt lat="49.2419814504683" lon="9.314046828076243">
<ele>164.2</ele>
<time>2024-05-08T10:29:46Z</time>
</trkpt>
<trkpt lat="49.24203869886696" lon="9.313906598836184">
<ele>164</ele>
<time>2024-05-08T10:29:47Z</time>
</trkpt>
<trkpt lat="49.24206535331905" lon="9.31383702903986">
<ele>164</ele>
<time>2024-05-08T10:29:48Z</time>
</trkpt>
<trkpt lat="49.242092091590166" lon="9.313770225271584">
<ele>163.8</ele>
<time>2024-05-08T10:29:50Z</time>
</trkpt>
<trkpt lat="49.24212260171771" lon="9.313703505322335">
<ele>163.8</ele>
<time>2024-05-08T10:29:51Z</time>
</trkpt>
<trkpt lat="49.24214933998883" lon="9.31363670155406">
<ele>163.6</ele>
<time>2024-05-08T10:29:52Z</time>
</trkpt>
<trkpt lat="49.24217985011637" lon="9.313571909442544">
<ele>163.6</ele>
<time>2024-05-08T10:29:53Z</time>
</trkpt>
<trkpt lat="49.24222938716411" lon="9.31343838572502">
<ele>163.4</ele>
<time>2024-05-08T10:29:54Z</time>
</trkpt>
<trkpt lat="49.24225612543523" lon="9.313373509794474">
<ele>163.4</ele>
<time>2024-05-08T10:29:56Z</time>
</trkpt>
<trkpt lat="49.24228286370635" lon="9.313309639692308">
<ele>163.4</ele>
<time>2024-05-08T10:29:57Z</time>
</trkpt>
<trkpt lat="49.24233625642955" lon="9.31318374350667">
<ele>163.2</ele>
<time>2024-05-08T10:29:59Z</time>
</trkpt>
<trkpt lat="49.2423667665571" lon="9.31312364526093">
<ele>163.2</ele>
<time>2024-05-08T10:30:00Z</time>
</trkpt>
<trkpt lat="49.24242393113673" lon="9.313008226454258">
<ele>163.2</ele>
<time>2024-05-08T10:30:01Z</time>
</trkpt>
<trkpt lat="49.2424545250833" lon="9.312950056046247">
<ele>163.2</ele>
<time>2024-05-08T10:30:02Z</time>
</trkpt>
<trkpt lat="49.24248117953539" lon="9.312892891466618">
<ele>163.2</ele>
<time>2024-05-08T10:30:03Z</time>
</trkpt>
<trkpt lat="49.242507917806506" lon="9.312834721058609">
<ele>163.2</ele>
<time>2024-05-08T10:30:04Z</time>
</trkpt>
<trkpt lat="49.24253457225859" lon="9.312778394669294">
<ele>163.2</ele>
<time>2024-05-08T10:30:05Z</time>
</trkpt>
<trkpt lat="49.24256131052971" lon="9.312721230089664">
<ele>163.2</ele>
<time>2024-05-08T10:30:06Z</time>
</trkpt>
<trkpt lat="49.242587964981794" lon="9.312667837366462">
<ele>163.2</ele>
<time>2024-05-08T10:30:07Z</time>
</trkpt>
<trkpt lat="49.24261855892837" lon="9.312616288661957">
<ele>163.2</ele>
<time>2024-05-08T10:30:09Z</time>
</trkpt>
<trkpt lat="49.242675723508" lon="9.312515202909708">
<ele>163.4</ele>
<time>2024-05-08T10:30:10Z</time>
</trkpt>
<trkpt lat="49.24270246177912" lon="9.31247035972774">
<ele>163.4</ele>
<time>2024-05-08T10:30:12Z</time>
</trkpt>
<trkpt lat="49.24275585450232" lon="9.312386456876991">
<ele>163.6</ele>
<time>2024-05-08T10:30:13Z</time>
</trkpt>
<trkpt lat="49.24278259277344" lon="9.312346391379831">
<ele>163.8</ele>
<time>2024-05-08T10:30:14Z</time>
</trkpt>
<trkpt lat="49.24281310290098" lon="9.312303476035597">
<ele>163.8</ele>
<time>2024-05-08T10:30:15Z</time>
</trkpt>
<trkpt lat="49.24283975735307" lon="9.312259638682008">
<ele>164</ele>
<time>2024-05-08T10:30:17Z</time>
</trkpt>
<trkpt lat="49.24290077760816" lon="9.312168108299376">
<ele>164</ele>
<time>2024-05-08T10:30:18Z</time>
</trkpt>
<trkpt lat="49.2429312877357" lon="9.312125192955136">
<ele>164.2</ele>
<time>2024-05-08T10:30:19Z</time>
</trkpt>
<trkpt lat="49.24296188168228" lon="9.312085127457976">
<ele>164.2</ele>
<time>2024-05-08T10:30:21Z</time>
</trkpt>
<trkpt lat="49.24302667379379" lon="9.312011701986194">
<ele>164.4</ele>
<time>2024-05-08T10:30:22Z</time>
</trkpt>
<trkpt lat="49.2430610395968" lon="9.31197641417384">
<ele>164.4</ele>
<time>2024-05-08T10:30:24Z</time>
</trkpt>
<trkpt lat="49.24312968738377" lon="9.311908688396215">
<ele>164.6</ele>
<time>2024-05-08T10:30:26Z</time>
</trkpt>
<trkpt lat="49.24319456331432" lon="9.311844818294048">
<ele>164.6</ele>
<time>2024-05-08T10:30:27Z</time>
</trkpt>
<trkpt lat="49.24322507344186" lon="9.311815230175853">
<ele>164.8</ele>
<time>2024-05-08T10:30:29Z</time>
</trkpt>
<trkpt lat="49.2432975769043" lon="9.311748426407576">
<ele>164.8</ele>
<time>2024-05-08T10:30:30Z</time>
</trkpt>
<trkpt lat="49.24333185888827" lon="9.311711294576526">
<ele>164.8</ele>
<time>2024-05-08T10:30:31Z</time>
</trkpt>
<trkpt lat="49.24336622469127" lon="9.311676928773522">
<ele>164.8</ele>
<time>2024-05-08T10:30:32Z</time>
</trkpt>
<trkpt lat="49.24340050667524" lon="9.31164164096117">
<ele>164.8</ele>
<time>2024-05-08T10:30:33Z</time>
</trkpt>
<trkpt lat="49.24343487247825" lon="9.31160350330174">
<ele>164.8</ele>
<time>2024-05-08T10:30:34Z</time>
</trkpt>
<trkpt lat="49.24346538260579" lon="9.31156536564231">
<ele>164.8</ele>
<time>2024-05-08T10:30:36Z</time>
</trkpt>
<trkpt lat="49.243495892733335" lon="9.31152337230742">
<ele>164.8</ele>
<time>2024-05-08T10:30:37Z</time>
</trkpt>
<trkpt lat="49.24356076866388" lon="9.311443325132132">
<ele>164.8</ele>
<time>2024-05-08T10:30:39Z</time>
</trkpt>
<trkpt lat="49.24358742311597" lon="9.3114070314914">
<ele>164.8</ele>
<time>2024-05-08T10:30:40Z</time>
</trkpt>
<trkpt lat="49.243637043982744" lon="9.311341233551502">
<ele>164.8</ele>
<time>2024-05-08T10:30:41Z</time>
</trkpt>
<trkpt lat="49.2436599265784" lon="9.311309801414607">
<ele>165</ele>
<time>2024-05-08T10:30:42Z</time>
</trkpt>
<trkpt lat="49.24368666484952" lon="9.311280213296412">
<ele>165</ele>
<time>2024-05-08T10:30:43Z</time>
</trkpt>
<trkpt lat="49.24370954744518" lon="9.311249703168867">
<ele>165</ele>
<time>2024-05-08T10:30:44Z</time>
</trkpt>
<trkpt lat="49.24372857436538" lon="9.311222042888405">
<ele>165.2</ele>
<time>2024-05-08T10:30:45Z</time>
</trkpt>
<trkpt lat="49.24374768510461" lon="9.311195304617286">
<ele>165.2</ele>
<time>2024-05-08T10:30:46Z</time>
</trkpt>
<trkpt lat="49.24375908449292" lon="9.31116479448974">
<ele>165.4</ele>
<time>2024-05-08T10:30:48Z</time>
</trkpt>
<trkpt lat="49.24376671202481" lon="9.31113143451512">
<ele>165.6</ele>
<time>2024-05-08T10:30:49Z</time>
</trkpt>
<trkpt lat="49.24376294016838" lon="9.311093296855688">
<ele>165.8</ele>
<time>2024-05-08T10:30:50Z</time>
</trkpt>
<trkpt lat="49.24374768510461" lon="9.311057087033989">
<ele>166</ele>
<time>2024-05-08T10:30:51Z</time>
</trkpt>
<trkpt lat="49.243679037317634" lon="9.310959773138164">
<ele>166.2</ele>
<time>2024-05-08T10:30:53Z</time>
</trkpt>
<trkpt lat="49.24362941645086" lon="9.310908308252692">
<ele>166.2</ele>
<time>2024-05-08T10:30:54Z</time>
</trkpt>
<trkpt lat="49.24352640286088" lon="9.310798589140177">
<ele>166.2</ele>
<time>2024-05-08T10:30:56Z</time>
</trkpt>
<trkpt lat="49.24341198988259" lon="9.310680320486426">
<ele>166</ele>
<time>2024-05-08T10:30:57Z</time>
</trkpt>
<trkpt lat="49.24335474148393" lon="9.310621228069069">
<ele>165.8</ele>
<time>2024-05-08T10:30:58Z</time>
</trkpt>
<trkpt lat="49.2432975769043" lon="9.310563057661057">
<ele>165.6</ele>
<time>2024-05-08T10:30:59Z</time>
</trkpt>
<trkpt lat="49.243240328505635" lon="9.310504887253046">
<ele>165.4</ele>
<time>2024-05-08T10:31:00Z</time>
</trkpt>
<trkpt lat="49.243183080106974" lon="9.310449566692114">
<ele>165.2</ele>
<time>2024-05-08T10:31:01Z</time>
</trkpt>
<trkpt lat="49.243125915527344" lon="9.31039516814053">
<ele>165</ele>
<time>2024-05-08T10:31:02Z</time>
</trkpt>
<trkpt lat="49.24306866712868" lon="9.3103380035609">
<ele>164.8</ele>
<time>2024-05-08T10:31:03Z</time>
</trkpt>
<trkpt lat="49.24301527440548" lon="9.310281677171588">
<ele>164.6</ele>
<time>2024-05-08T10:31:04Z</time>
</trkpt>
<trkpt lat="49.24296188168228" lon="9.310224512591958">
<ele>164.2</ele>
<time>2024-05-08T10:31:05Z</time>
</trkpt>
<trkpt lat="49.24290840514004" lon="9.310166342183948">
<ele>164.2</ele>
<time>2024-05-08T10:31:06Z</time>
</trkpt>
<trkpt lat="49.24285501241684" lon="9.310110015794637">
<ele>164</ele>
<time>2024-05-08T10:31:07Z</time>
</trkpt>
<trkpt lat="49.24281310290098" lon="9.31005947291851">
<ele>164</ele>
<time>2024-05-08T10:31:09Z</time>
</trkpt>
<trkpt lat="49.24273674376309" lon="9.309971798211336">
<ele>163.6</ele>
<time>2024-05-08T10:31:10Z</time>
</trkpt>
<trkpt lat="49.24270246177912" lon="9.309931732714176">
<ele>163.4</ele>
<time>2024-05-08T10:31:11Z</time>
</trkpt>
<trkpt lat="49.242668095976114" lon="9.309896444901824">
<ele>163.2</ele>
<time>2024-05-08T10:31:12Z</time>
</trkpt>
<trkpt lat="49.24263758584857" lon="9.30986207909882">
<ele>163</ele>
<time>2024-05-08T10:31:14Z</time>
</trkpt>
<trkpt lat="49.24260322004557" lon="9.309778176248074">
<ele>162.8</ele>
<time>2024-05-08T10:31:15Z</time>
</trkpt>
<trkpt lat="49.24261470325291" lon="9.309728555381298">
<ele>162.6</ele>
<time>2024-05-08T10:31:17Z</time>
</trkpt>
<trkpt lat="49.24266432411969" lon="9.309637947008014">
<ele>162.4</ele>
<time>2024-05-08T10:31:19Z</time>
</trkpt>
<trkpt lat="49.24269860610366" lon="9.309597965329884">
<ele>162.4</ele>
<time>2024-05-08T10:31:20Z</time>
</trkpt>
<trkpt lat="49.24277488142252" lon="9.309501573443413">
<ele>162.2</ele>
<time>2024-05-08T10:31:21Z</time>
</trkpt>
<trkpt lat="49.24280924722552" lon="9.30945010855794">
<ele>162</ele>
<time>2024-05-08T10:31:22Z</time>
</trkpt>
<trkpt lat="49.24284738488495" lon="9.309394787997007">
<ele>161.8</ele>
<time>2024-05-08T10:31:23Z</time>
</trkpt>
<trkpt lat="49.242885522544384" lon="9.309339467436075">
<ele>161.8</ele>
<time>2024-05-08T10:31:25Z</time>
</trkpt>
<trkpt lat="49.24295802600682" lon="9.30923360399902">
<ele>161.6</ele>
<time>2024-05-08T10:31:27Z</time>
</trkpt>
<trkpt lat="49.24301904626191" lon="9.309135368093848">
<ele>161.4</ele>
<time>2024-05-08T10:31:29Z</time>
</trkpt>
<trkpt lat="49.24307243898511" lon="9.309046687558292">
<ele>161.2</ele>
<time>2024-05-08T10:31:30Z</time>
</trkpt>
<trkpt lat="49.24309917725623" lon="9.309008549898865">
<ele>161.2</ele>
<time>2024-05-08T10:31:32Z</time>
</trkpt>
<trkpt lat="49.243125915527344" lon="9.308970412239432">
<ele>161.2</ele>
<time>2024-05-08T10:31:33Z</time>
</trkpt>
<trkpt lat="49.24318693578243" lon="9.308888353407385">
<ele>161</ele>
<time>2024-05-08T10:31:34Z</time>
</trkpt>
<trkpt lat="49.24321744590998" lon="9.308841666206716">
<ele>161</ele>
<time>2024-05-08T10:31:36Z</time>
</trkpt>
<trkpt lat="49.24328609369695" lon="9.30873965844512">
<ele>161</ele>
<time>2024-05-08T10:31:37Z</time>
</trkpt>
<trkpt lat="49.243320459499955" lon="9.308688109740617">
<ele>161</ele>
<time>2024-05-08T10:31:38Z</time>
</trkpt>
<trkpt lat="49.24335474148393" lon="9.308636644855142">
<ele>160.8</ele>
<time>2024-05-08T10:31:39Z</time>
</trkpt>
<trkpt lat="49.24338910728693" lon="9.30858325213194">
<ele>160.8</ele>
<time>2024-05-08T10:31:40Z</time>
</trkpt>
<trkpt lat="49.2434233892709" lon="9.308529775589705">
<ele>160.6</ele>
<time>2024-05-08T10:31:41Z</time>
</trkpt>
<trkpt lat="49.243457755073905" lon="9.308474538847804">
<ele>160.6</ele>
<time>2024-05-08T10:31:42Z</time>
</trkpt>
<trkpt lat="49.24348826520145" lon="9.30842014029622">
<ele>160.8</ele>
<time>2024-05-08T10:31:43Z</time>
</trkpt>
<trkpt lat="49.24352640286088" lon="9.308366747573018">
<ele>160.8</ele>
<time>2024-05-08T10:31:45Z</time>
</trkpt>
<trkpt lat="49.243595050647855" lon="9.308258034288883">
<ele>161</ele>
<time>2024-05-08T10:31:46Z</time>
</trkpt>
<trkpt lat="49.2436255607754" lon="9.30820464156568">
<ele>161</ele>
<time>2024-05-08T10:31:47Z</time>
</trkpt>
<trkpt lat="49.2436599265784" lon="9.308151165023446">
<ele>161.2</ele>
<time>2024-05-08T10:31:48Z</time>
</trkpt>
<trkpt lat="49.24369043670595" lon="9.308096850290896">
<ele>161.2</ele>
<time>2024-05-08T10:31:49Z</time>
</trkpt>
<trkpt lat="49.24372480250895" lon="9.308041529729962">
<ele>161.4</ele>
<time>2024-05-08T10:31:51Z</time>
</trkpt>
<trkpt lat="49.243793450295925" lon="9.307936588302256">
<ele>161.6</ele>
<time>2024-05-08T10:31:52Z</time>
</trkpt>
<trkpt lat="49.24382781609893" lon="9.307883195579052">
<ele>161.6</ele>
<time>2024-05-08T10:31:53Z</time>
</trkpt>
<trkpt lat="49.2438620980829" lon="9.307833658531308">
<ele>161.6</ele>
<time>2024-05-08T10:31:54Z</time>
</trkpt>
<trkpt lat="49.2438964638859" lon="9.307783115655184">
<ele>161.6</ele>
<time>2024-05-08T10:31:55Z</time>
</trkpt>
<trkpt lat="49.243930745869875" lon="9.30772963911295">
<ele>161.6</ele>
<time>2024-05-08T10:31:56Z</time>
</trkpt>
<trkpt lat="49.24396511167288" lon="9.307676246389748">
<ele>161.8</ele>
<time>2024-05-08T10:31:57Z</time>
</trkpt>
<trkpt lat="49.24399947747588" lon="9.307622853666544">
<ele>161.8</ele>
<time>2024-05-08T10:31:58Z</time>
</trkpt>
<trkpt lat="49.24403375945985" lon="9.307566611096265">
<ele>161.8</ele>
<time>2024-05-08T10:31:59Z</time>
</trkpt>
<trkpt lat="49.24406812526286" lon="9.307510368525982">
<ele>161.8</ele>
<time>2024-05-08T10:32:00Z</time>
</trkpt>
<trkpt lat="49.24410626292229" lon="9.30745312012732">
<ele>161.8</ele>
<time>2024-05-08T10:32:01Z</time>
</trkpt>
<trkpt lat="49.24414054490626" lon="9.307399727404118">
<ele>161.8</ele>
<time>2024-05-08T10:32:03Z</time>
</trkpt>
<trkpt lat="49.24422067590058" lon="9.307299563661218">
<ele>161.6</ele>
<time>2024-05-08T10:32:05Z</time>
</trkpt>
<trkpt lat="49.24429695121944" lon="9.307201327756047">
<ele>161.4</ele>
<time>2024-05-08T10:32:06Z</time>
</trkpt>
<trkpt lat="49.24433894455433" lon="9.307154640555382">
<ele>161.2</ele>
<time>2024-05-08T10:32:07Z</time>
</trkpt>
<trkpt lat="49.24438093788922" lon="9.307109797373414">
<ele>161</ele>
<time>2024-05-08T10:32:08Z</time>
</trkpt>
<trkpt lat="49.24442284740507" lon="9.307062104344368">
<ele>161</ele>
<time>2024-05-08T10:32:10Z</time>
</trkpt>
<trkpt lat="49.24450297839939" lon="9.306969568133354">
<ele>161</ele>
<time>2024-05-08T10:32:11Z</time>
</trkpt>
<trkpt lat="49.244544971734285" lon="9.306926652789116">
<ele>161</ele>
<time>2024-05-08T10:32:13Z</time>
</trkpt>
<trkpt lat="49.24462887458503" lon="9.30683797225356">
<ele>161.2</ele>
<time>2024-05-08T10:32:15Z</time>
</trkpt>
<trkpt lat="49.24470514990389" lon="9.306751219555736">
<ele>161.2</ele>
<time>2024-05-08T10:32:16Z</time>
</trkpt>
<trkpt lat="49.24474328756333" lon="9.306708304211496">
<ele>161.4</ele>
<time>2024-05-08T10:32:17Z</time>
</trkpt>
<trkpt lat="49.244781425222754" lon="9.306659689173102">
<ele>161.4</ele>
<time>2024-05-08T10:32:19Z</time>
</trkpt>
<trkpt lat="49.24485778436065" lon="9.30656522512436">
<ele>161.4</ele>
<time>2024-05-08T10:32:20Z</time>
</trkpt>
<trkpt lat="49.24489592202008" lon="9.306520381942391">
<ele>161.4</ele>
<time>2024-05-08T10:32:21Z</time>
</trkpt>
<trkpt lat="49.244937831535935" lon="9.306480400264263">
<ele>161.4</ele>
<time>2024-05-08T10:32:22Z</time>
</trkpt>
<trkpt lat="49.244975969195366" lon="9.306441256776452">
<ele>161.4</ele>
<time>2024-05-08T10:32:23Z</time>
</trkpt>
<trkpt lat="49.24501033499837" lon="9.306403119117022">
<ele>161.4</ele>
<time>2024-05-08T10:32:24Z</time>
</trkpt>
<trkpt lat="49.24504470080137" lon="9.30636690929532">
<ele>161.4</ele>
<time>2024-05-08T10:32:26Z</time>
</trkpt>
<trkpt lat="49.24509423784912" lon="9.306300105527043">
<ele>161.6</ele>
<time>2024-05-08T10:32:27Z</time>
</trkpt>
<trkpt lat="49.24511334858835" lon="9.306271523237228">
<ele>161.6</ele>
<time>2024-05-08T10:32:29Z</time>
</trkpt>
<trkpt lat="49.24512860365212" lon="9.30624671280384">
<ele>161.6</ele>
<time>2024-05-08T10:32:30Z</time>
</trkpt>
<trkpt lat="49.245159113779664" lon="9.306193320080638">
<ele>161.6</ele>
<time>2024-05-08T10:32:31Z</time>
</trkpt>
<trkpt lat="49.24517051316798" lon="9.306161804124711">
<ele>161.6</ele>
<time>2024-05-08T10:32:33Z</time>
</trkpt>
<trkpt lat="49.24517436884344" lon="9.306124672293665">
<ele>161.6</ele>
<time>2024-05-08T10:32:34Z</time>
</trkpt>
<trkpt lat="49.24516674131155" lon="9.306084606796505">
<ele>161.6</ele>
<time>2024-05-08T10:32:35Z</time>
</trkpt>
<trkpt lat="49.24515148624778" lon="9.306039763614535">
<ele>161.6</ele>
<time>2024-05-08T10:32:36Z</time>
</trkpt>
<trkpt lat="49.24512474797666" lon="9.305997770279646">
<ele>161.6</ele>
<time>2024-05-08T10:32:37Z</time>
</trkpt>
<trkpt lat="49.245098093524575" lon="9.305958710610868">
<ele>161.6</ele>
<time>2024-05-08T10:32:38Z</time>
</trkpt>
<trkpt lat="49.245037073269486" lon="9.30587195791304">
<ele>161.6</ele>
<time>2024-05-08T10:32:39Z</time>
</trkpt>
<trkpt lat="49.24500270746648" lon="9.305826108902693">
<ele>161.6</ele>
<time>2024-05-08T10:32:41Z</time>
</trkpt>
<trkpt lat="49.24496834166348" lon="9.305785121396184">
<ele>161.6</ele>
<time>2024-05-08T10:32:42Z</time>
</trkpt>
<trkpt lat="49.24493405967951" lon="9.305746983736752">
<ele>161.6</ele>
<time>2024-05-08T10:32:43Z</time>
</trkpt>
<trkpt lat="49.24486918374896" lon="9.305666852742434">
<ele>161.4</ele>
<time>2024-05-08T10:32:45Z</time>
</trkpt>
<trkpt lat="49.2448463011533" lon="9.30561538785696">
<ele>161.4</ele>
<time>2024-05-08T10:32:46Z</time>
</trkpt>
<trkpt lat="49.244819562882185" lon="9.305511452257631">
<ele>161.2</ele>
<time>2024-05-08T10:32:48Z</time>
</trkpt>
<trkpt lat="49.244800535961986" lon="9.305466609075664">
<ele>161</ele>
<time>2024-05-08T10:32:49Z</time>
</trkpt>
<trkpt lat="49.24474328756333" lon="9.305383628234267">
<ele>160.8</ele>
<time>2024-05-08T10:32:50Z</time>
</trkpt>
<trkpt lat="49.24471277743578" lon="9.30534171871841">
<ele>160.6</ele>
<time>2024-05-08T10:32:52Z</time>
</trkpt>
<trkpt lat="49.244640273973346" lon="9.305250104516745">
<ele>160.4</ele>
<time>2024-05-08T10:32:53Z</time>
</trkpt>
<trkpt lat="49.244605991989374" lon="9.305206267163156">
<ele>160.4</ele>
<time>2024-05-08T10:32:55Z</time>
</trkpt>
<trkpt lat="49.24452971667051" lon="9.305118508636951">
<ele>160.4</ele>
<time>2024-05-08T10:32:56Z</time>
</trkpt>
<trkpt lat="49.24449149519205" lon="9.305073665454984">
<ele>160.4</ele>
<time>2024-05-08T10:32:57Z</time>
</trkpt>
<trkpt lat="49.24445335753262" lon="9.305031755939126">
<ele>160.4</ele>
<time>2024-05-08T10:32:59Z</time>
</trkpt>
<trkpt lat="49.24437708221376" lon="9.304944919422269">
<ele>160.4</ele>
<time>2024-05-08T10:33:00Z</time>
</trkpt>
<trkpt lat="49.24433894455433" lon="9.30490200407803">
<ele>160.4</ele>
<time>2024-05-08T10:33:01Z</time>
</trkpt>
<trkpt lat="49.2443008068949" lon="9.304860094562171">
<ele>160.4</ele>
<time>2024-05-08T10:33:02Z</time>
</trkpt>
<trkpt lat="49.24426266923547" lon="9.304821956902742">
<ele>160.4</ele>
<time>2024-05-08T10:33:04Z</time>
</trkpt>
<trkpt lat="49.24422453157604" lon="9.30478474125266">
<ele>160.4</ele>
<time>2024-05-08T10:33:05Z</time>
</trkpt>
<trkpt lat="49.244148172438145" lon="9.304723720997572">
<ele>160.4</ele>
<time>2024-05-08T10:33:07Z</time>
</trkpt>
<trkpt lat="49.24407952465117" lon="9.304679799824951">
<ele>160.6</ele>
<time>2024-05-08T10:33:08Z</time>
</trkpt>
<trkpt lat="49.2440452426672" lon="9.304656917229297">
<ele>160.8</ele>
<time>2024-05-08T10:33:09Z</time>
</trkpt>
<trkpt lat="49.244010876864195" lon="9.304633112624288">
<ele>161</ele>
<time>2024-05-08T10:33:10Z</time>
</trkpt>
<trkpt lat="49.24397651106119" lon="9.304611152037978">
<ele>161</ele>
<time>2024-05-08T10:33:12Z</time>
</trkpt>
<trkpt lat="49.24390409141779" lon="9.30457016453147">
<ele>161.4</ele>
<time>2024-05-08T10:33:14Z</time>
</trkpt>
<trkpt lat="49.243869725614786" lon="9.30455013178289">
<ele>161.6</ele>
<time>2024-05-08T10:33:15Z</time>
</trkpt>
<trkpt lat="49.24383158795536" lon="9.30452817119658">
<ele>161.8</ele>
<time>2024-05-08T10:33:16Z</time>
</trkpt>
<trkpt lat="49.24376294016838" lon="9.30449196137488">
<ele>162.2</ele>
<time>2024-05-08T10:33:18Z</time>
</trkpt>
<trkpt lat="49.24368666484952" lon="9.304452817887068">
<ele>162.4</ele>
<time>2024-05-08T10:33:19Z</time>
</trkpt>
<trkpt lat="49.24365229904651" lon="9.304433790966868">
<ele>162.6</ele>
<time>2024-05-08T10:33:20Z</time>
</trkpt>
<trkpt lat="49.24361793324351" lon="9.30440990254283">
<ele>162.8</ele>
<time>2024-05-08T10:33:21Z</time>
</trkpt>
<trkpt lat="49.24357979558408" lon="9.304388025775552">
<ele>163</ele>
<time>2024-05-08T10:33:23Z</time>
</trkpt>
<trkpt lat="49.24354165792465" lon="9.304367993026972">
<ele>163.2</ele>
<time>2024-05-08T10:33:24Z</time>
</trkpt>
<trkpt lat="49.24346538260579" lon="9.304327927529812">
<ele>163.2</ele>
<time>2024-05-08T10:33:25Z</time>
</trkpt>
<trkpt lat="49.24343101680279" lon="9.304307894781232">
<ele>163.4</ele>
<time>2024-05-08T10:33:26Z</time>
</trkpt>
<trkpt lat="49.24339287914336" lon="9.30428978987038">
<ele>163.4</ele>
<time>2024-05-08T10:33:27Z</time>
</trkpt>
<trkpt lat="49.24335474148393" lon="9.3042697571218">
<ele>163.4</ele>
<time>2024-05-08T10:33:29Z</time>
</trkpt>
<trkpt lat="49.243278466165066" lon="9.30423161946237">
<ele>163.4</ele>
<time>2024-05-08T10:33:30Z</time>
</trkpt>
<trkpt lat="49.243240328505635" lon="9.30421351455152">
<ele>163.4</ele>
<time>2024-05-08T10:33:31Z</time>
</trkpt>
<trkpt lat="49.24320596270263" lon="9.304195325821638">
<ele>163.4</ele>
<time>2024-05-08T10:33:32Z</time>
</trkpt>
<trkpt lat="49.24317545257509" lon="9.30417537689209">
<ele>163.4</ele>
<time>2024-05-08T10:33:33Z</time>
</trkpt>
<trkpt lat="49.24315256997943" lon="9.304149560630322">
<ele>163.4</ele>
<time>2024-05-08T10:33:35Z</time>
</trkpt>
<trkpt lat="49.24314117059112" lon="9.30411335080862">
<ele>163.4</ele>
<time>2024-05-08T10:33:36Z</time>
</trkpt>
<trkpt lat="49.24313731491566" lon="9.30407521314919">
<ele>163.4</ele>
<time>2024-05-08T10:33:37Z</time>
</trkpt>
<trkpt lat="49.2431678250432" lon="9.303984604775906">
<ele>163.2</ele>
<time>2024-05-08T10:33:39Z</time>
</trkpt>
<trkpt lat="49.24320981837809" lon="9.303885446861386">
<ele>163.2</ele>
<time>2024-05-08T10:33:40Z</time>
</trkpt>
<trkpt lat="49.243236472830176" lon="9.303834903985262">
<ele>163</ele>
<time>2024-05-08T10:33:41Z</time>
</trkpt>
<trkpt lat="49.243263211101294" lon="9.303781427443027">
<ele>163</ele>
<time>2024-05-08T10:33:42Z</time>
</trkpt>
<trkpt lat="49.24328986555338" lon="9.303726190701129">
<ele>162.8</ele>
<time>2024-05-08T10:33:43Z</time>
</trkpt>
<trkpt lat="49.24331283196807" lon="9.303669864311814">
<ele>162.6</ele>
<time>2024-05-08T10:33:44Z</time>
</trkpt>
<trkpt lat="49.243339486420155" lon="9.303613621741532">
<ele>162.4</ele>
<time>2024-05-08T10:33:45Z</time>
</trkpt>
<trkpt lat="49.24336236901581" lon="9.3035583011806">
<ele>162.2</ele>
<time>2024-05-08T10:33:46Z</time>
</trkpt>
<trkpt lat="49.24338910728693" lon="9.303502980619667">
<ele>162.2</ele>
<time>2024-05-08T10:33:47Z</time>
</trkpt>
<trkpt lat="49.24340813420713" lon="9.303448665887116">
<ele>162</ele>
<time>2024-05-08T10:33:49Z</time>
</trkpt>
<trkpt lat="49.24343101680279" lon="9.303389489650726">
<ele>162</ele>
<time>2024-05-08T10:33:50Z</time>
</trkpt>
<trkpt lat="49.24346923828125" lon="9.303268371149898">
<ele>162</ele>
<time>2024-05-08T10:33:51Z</time>
</trkpt>
<trkpt lat="49.24348826520145" lon="9.30320642888546">
<ele>161.8</ele>
<time>2024-05-08T10:33:52Z</time>
</trkpt>
<trkpt lat="49.24350352026522" lon="9.303143480792642">
<ele>161.8</ele>
<time>2024-05-08T10:33:54Z</time>
</trkpt>
<trkpt lat="49.243534030392766" lon="9.303023284301162">
<ele>161.6</ele>
<time>2024-05-08T10:33:55Z</time>
</trkpt>
<trkpt lat="49.24354928545654" lon="9.302961342036724">
<ele>161.6</ele>
<time>2024-05-08T10:33:57Z</time>
</trkpt>
<trkpt lat="49.24357979558408" lon="9.302838295698166">
<ele>161.4</ele>
<time>2024-05-08T10:33:58Z</time>
</trkpt>
<trkpt lat="49.243595050647855" lon="9.302780125290155">
<ele>161.2</ele>
<time>2024-05-08T10:34:00Z</time>
</trkpt>
<trkpt lat="49.243633188307285" lon="9.302661856636403">
<ele>161.2</ele>
<time>2024-05-08T10:34:02Z</time>
</trkpt>
<trkpt lat="49.24366378225386" lon="9.302543587982656">
<ele>161</ele>
<time>2024-05-08T10:34:03Z</time>
</trkpt>
<trkpt lat="49.243679037317634" lon="9.302484495565295">
<ele>161</ele>
<time>2024-05-08T10:34:05Z</time>
</trkpt>
<trkpt lat="49.243713319301605" lon="9.3023719266057">
<ele>161</ele>
<time>2024-05-08T10:34:06Z</time>
</trkpt>
<trkpt lat="49.24372857436538" lon="9.302311828359962">
<ele>161</ele>
<time>2024-05-08T10:34:07Z</time>
</trkpt>
<trkpt lat="49.24374768510461" lon="9.302251813933252">
<ele>161</ele>
<time>2024-05-08T10:34:08Z</time>
</trkpt>
<trkpt lat="49.24376671202481" lon="9.302189787849784">
<ele>161</ele>
<time>2024-05-08T10:34:09Z</time>
</trkpt>
<trkpt lat="49.24378196708858" lon="9.302126839756966">
<ele>161</ele>
<time>2024-05-08T10:34:10Z</time>
</trkpt>
<trkpt lat="49.24380484968424" lon="9.3020629696548">
<ele>161</ele>
<time>2024-05-08T10:34:11Z</time>
</trkpt>
<trkpt lat="49.24382396042347" lon="9.30200194939971">
<ele>161</ele>
<time>2024-05-08T10:34:12Z</time>
</trkpt>
<trkpt lat="49.2438430711627" lon="9.30193799547851">
<ele>161.2</ele>
<time>2024-05-08T10:34:14Z</time>
</trkpt>
<trkpt lat="49.24388498067856" lon="9.301810255274177">
<ele>161.4</ele>
<time>2024-05-08T10:34:15Z</time>
</trkpt>
<trkpt lat="49.24390023574233" lon="9.3017434515059">
<ele>161.6</ele>
<time>2024-05-08T10:34:16Z</time>
</trkpt>
<trkpt lat="49.24392311833799" lon="9.301678575575352">
<ele>161.8</ele>
<time>2024-05-08T10:34:17Z</time>
</trkpt>
<trkpt lat="49.24394222907722" lon="9.301612777635455">
<ele>161.8</ele>
<time>2024-05-08T10:34:18Z</time>
</trkpt>
<trkpt lat="49.24396125599742" lon="9.30154513567686">
<ele>162</ele>
<time>2024-05-08T10:34:19Z</time>
</trkpt>
<trkpt lat="49.24398422241211" lon="9.301476404070854">
<ele>162</ele>
<time>2024-05-08T10:34:20Z</time>
</trkpt>
<trkpt lat="49.24400324933231" lon="9.301409684121609">
<ele>162.2</ele>
<time>2024-05-08T10:34:21Z</time>
</trkpt>
<trkpt lat="49.24402236007154" lon="9.301341958343984">
<ele>162.2</ele>
<time>2024-05-08T10:34:23Z</time>
</trkpt>
<trkpt lat="49.24406812526286" lon="9.30120843462646">
<ele>162.2</ele>
<time>2024-05-08T10:34:24Z</time>
</trkpt>
<trkpt lat="49.244087152183056" lon="9.301141714677216">
<ele>162.2</ele>
<time>2024-05-08T10:34:25Z</time>
</trkpt>
<trkpt lat="49.244110034778714" lon="9.30107306689024">
<ele>162.2</ele>
<time>2024-05-08T10:34:26Z</time>
</trkpt>
<trkpt lat="49.244129145517945" lon="9.301005341112614">
<ele>162</ele>
<time>2024-05-08T10:34:27Z</time>
</trkpt>
<trkpt lat="49.2441520281136" lon="9.30093669332564">
<ele>162</ele>
<time>2024-05-08T10:34:28Z</time>
</trkpt>
<trkpt lat="49.24417491070926" lon="9.300867039710283">
<ele>162</ele>
<time>2024-05-08T10:34:29Z</time>
</trkpt>
<trkpt lat="49.24419402144849" lon="9.30079646408558">
<ele>161.8</ele>
<time>2024-05-08T10:34:30Z</time>
</trkpt>
<trkpt lat="49.24421690404415" lon="9.300726810470223">
<ele>161.8</ele>
<time>2024-05-08T10:34:31Z</time>
</trkpt>
<trkpt lat="49.24423978663981" lon="9.30065631866455">
<ele>161.8</ele>
<time>2024-05-08T10:34:32Z</time>
</trkpt>
<trkpt lat="49.24426266923547" lon="9.300584737211466">
<ele>161.6</ele>
<time>2024-05-08T10:34:33Z</time>
</trkpt>
<trkpt lat="49.244285551831126" lon="9.300515167415142">
<ele>161.6</ele>
<time>2024-05-08T10:34:34Z</time>
</trkpt>
<trkpt lat="49.244308434426785" lon="9.300444591790438">
<ele>161.6</ele>
<time>2024-05-08T10:34:35Z</time>
</trkpt>
<trkpt lat="49.24433131702244" lon="9.300373010337353">
<ele>161.6</ele>
<time>2024-05-08T10:34:36Z</time>
</trkpt>
<trkpt lat="49.2443541996181" lon="9.300303440541027">
<ele>161.4</ele>
<time>2024-05-08T10:34:37Z</time>
</trkpt>
<trkpt lat="49.24437708221376" lon="9.300232864916325">
<ele>161.4</ele>
<time>2024-05-08T10:34:38Z</time>
</trkpt>
<trkpt lat="49.24439996480942" lon="9.30016321130097">
<ele>161.4</ele>
<time>2024-05-08T10:34:39Z</time>
</trkpt>
<trkpt lat="49.24442284740507" lon="9.300093641504644">
<ele>161.2</ele>
<time>2024-05-08T10:34:40Z</time>
</trkpt>
<trkpt lat="49.244445730000734" lon="9.30002206005156">
<ele>161</ele>
<time>2024-05-08T10:34:41Z</time>
</trkpt>
<trkpt lat="49.244464840739965" lon="9.299949640408158">
<ele>161</ele>
<time>2024-05-08T10:34:42Z</time>
</trkpt>
<trkpt lat="49.244487723335624" lon="9.299879986792805">
<ele>160.8</ele>
<time>2024-05-08T10:34:44Z</time>
</trkpt>
<trkpt lat="49.24453348852694" lon="9.299737913534043">
<ele>160.6</ele>
<time>2024-05-08T10:34:45Z</time>
</trkpt>
<trkpt lat="49.24456022679806" lon="9.29966633208096">
<ele>160.8</ele>
<time>2024-05-08T10:34:47Z</time>
</trkpt>
<trkpt lat="49.2446097638458" lon="9.299523336812854">
<ele>160.8</ele>
<time>2024-05-08T10:34:48Z</time>
</trkpt>
<trkpt lat="49.24463264644146" lon="9.299449911341071">
<ele>160.8</ele>
<time>2024-05-08T10:34:49Z</time>
</trkpt>
<trkpt lat="49.24465552903712" lon="9.29937455803156">
<ele>160.8</ele>
<time>2024-05-08T10:34:50Z</time>
</trkpt>
<trkpt lat="49.244682267308235" lon="9.299300126731396">
<ele>161</ele>
<time>2024-05-08T10:34:51Z</time>
</trkpt>
<trkpt lat="49.24470900557935" lon="9.299226701259611">
<ele>160.8</ele>
<time>2024-05-08T10:34:52Z</time>
</trkpt>
<trkpt lat="49.24473566003144" lon="9.2991513479501">
<ele>160.8</ele>
<time>2024-05-08T10:34:53Z</time>
</trkpt>
<trkpt lat="49.244762398302555" lon="9.29907507263124">
<ele>160.8</ele>
<time>2024-05-08T10:34:54Z</time>
</trkpt>
<trkpt lat="49.24478905275464" lon="9.29899787530303">
<ele>160.8</ele>
<time>2024-05-08T10:34:55Z</time>
</trkpt>
<trkpt lat="49.24481579102576" lon="9.298921516165136">
<ele>160.6</ele>
<time>2024-05-08T10:34:56Z</time>
</trkpt>
<trkpt lat="49.244842529296875" lon="9.298850018531084">
<ele>160.6</ele>
<time>2024-05-08T10:34:57Z</time>
</trkpt>
<trkpt lat="49.24486918374896" lon="9.2987765930593">
<ele>160.6</ele>
<time>2024-05-08T10:34:58Z</time>
</trkpt>
<trkpt lat="49.24489206634462" lon="9.298705095425248">
<ele>160.6</ele>
<time>2024-05-08T10:34:59Z</time>
</trkpt>
<trkpt lat="49.24492257647216" lon="9.298633513972163">
<ele>160.4</ele>
<time>2024-05-08T10:35:00Z</time>
</trkpt>
<trkpt lat="49.24494545906782" lon="9.298564866185188">
<ele>160.4</ele>
<time>2024-05-08T10:35:01Z</time>
</trkpt>
<trkpt lat="49.24497219733894" lon="9.298496218398212">
<ele>160.4</ele>
<time>2024-05-08T10:35:02Z</time>
</trkpt>
<trkpt lat="49.244998851791024" lon="9.298426564782858">
<ele>160.4</ele>
<time>2024-05-08T10:35:04Z</time>
</trkpt>
<trkpt lat="49.245059955865145" lon="9.298297818750145">
<ele>160.4</ele>
<time>2024-05-08T10:35:06Z</time>
</trkpt>
<trkpt lat="49.24514000304043" lon="9.298181477934122">
<ele>160.4</ele>
<time>2024-05-08T10:35:07Z</time>
</trkpt>
<trkpt lat="49.24518585205078" lon="9.29812523536384">
<ele>160.6</ele>
<time>2024-05-08T10:35:08Z</time>
</trkpt>
<trkpt lat="49.245235389098525" lon="9.298069914802907">
<ele>160.6</ele>
<time>2024-05-08T10:35:10Z</time>
</trkpt>
<trkpt lat="49.2452850099653" lon="9.298020293936132">
<ele>160.6</ele>
<time>2024-05-08T10:35:11Z</time>
</trkpt>
<trkpt lat="49.24538802355528" lon="9.297933541238308">
<ele>160.6</ele>
<time>2024-05-08T10:35:13Z</time>
</trkpt>
<trkpt lat="49.24548332579434" lon="9.297855338081716">
<ele>160.4</ele>
<time>2024-05-08T10:35:14Z</time>
</trkpt>
<trkpt lat="49.245532946661115" lon="9.297815272584558">
<ele>160.4</ele>
<time>2024-05-08T10:35:16Z</time>
</trkpt>
<trkpt lat="49.24561684951186" lon="9.297719886526464">
<ele>160.2</ele>
<time>2024-05-08T10:35:17Z</time>
</trkpt>
<trkpt lat="49.24565498717129" lon="9.297657944262028">
<ele>160.2</ele>
<time>2024-05-08T10:35:18Z</time>
</trkpt>
<trkpt lat="49.24568549729884" lon="9.297590218484402">
<ele>160</ele>
<time>2024-05-08T10:35:19Z</time>
</trkpt>
<trkpt lat="49.245712235569954" lon="9.29751679301262">
<ele>160</ele>
<time>2024-05-08T10:35:20Z</time>
</trkpt>
<trkpt lat="49.24573511816561" lon="9.297438589856029">
<ele>160</ele>
<time>2024-05-08T10:35:22Z</time>
</trkpt>
<trkpt lat="49.24575800076127" lon="9.297358458861709">
<ele>160</ele>
<time>2024-05-08T10:35:23Z</time>
</trkpt>
<trkpt lat="49.24579999409616" lon="9.297195430845022">
<ele>159.8</ele>
<time>2024-05-08T10:35:24Z</time>
</trkpt>
<trkpt lat="49.24581902101636" lon="9.297115299850702">
<ele>159.8</ele>
<time>2024-05-08T10:35:25Z</time>
</trkpt>
<trkpt lat="49.24584190361202" lon="9.297035168856382">
<ele>159.8</ele>
<time>2024-05-08T10:35:26Z</time>
</trkpt>
<trkpt lat="49.24586478620768" lon="9.296955037862062">
<ele>159.8</ele>
<time>2024-05-08T10:35:27Z</time>
</trkpt>
<trkpt lat="49.245887752622366" lon="9.296874990686774">
<ele>159.8</ele>
<time>2024-05-08T10:35:28Z</time>
</trkpt>
<trkpt lat="49.245910635218024" lon="9.296796787530184">
<ele>159.8</ele>
<time>2024-05-08T10:35:30Z</time>
</trkpt>
<trkpt lat="49.24595640040934" lon="9.296638453379272">
<ele>159.8</ele>
<time>2024-05-08T10:35:31Z</time>
</trkpt>
<trkpt lat="49.245979283005" lon="9.296560250222685">
<ele>159.8</ele>
<time>2024-05-08T10:35:32Z</time>
</trkpt>
<trkpt lat="49.246005937457085" lon="9.296482047066092">
<ele>159.8</ele>
<time>2024-05-08T10:35:34Z</time>
</trkpt>
<trkpt lat="49.24605178646743" lon="9.29632656276226">
<ele>159.8</ele>
<time>2024-05-08T10:35:35Z</time>
</trkpt>
<trkpt lat="49.24607466906309" lon="9.29624835960567">
<ele>159.8</ele>
<time>2024-05-08T10:35:36Z</time>
</trkpt>
<trkpt lat="49.24609755165875" lon="9.29617015644908">
<ele>159.8</ele>
<time>2024-05-08T10:35:37Z</time>
</trkpt>
<trkpt lat="49.24611657857895" lon="9.296091953292487">
<ele>159.8</ele>
<time>2024-05-08T10:35:38Z</time>
</trkpt>
<trkpt lat="49.24613946117461" lon="9.2960119061172">
<ele>159.8</ele>
<time>2024-05-08T10:35:40Z</time>
</trkpt>
<trkpt lat="49.24616997130215" lon="9.295846866443751">
<ele>159.8</ele>
<time>2024-05-08T10:35:41Z</time>
</trkpt>
<trkpt lat="49.24618908204138" lon="9.295762963593006">
<ele>159.8</ele>
<time>2024-05-08T10:35:42Z</time>
</trkpt>
<trkpt lat="49.246204337105155" lon="9.295681910589336">
<ele>159.8</ele>
<time>2024-05-08T10:35:43Z</time>
</trkpt>
<trkpt lat="49.246223447844386" lon="9.295601779595016">
<ele>159.8</ele>
<time>2024-05-08T10:35:44Z</time>
</trkpt>
<trkpt lat="49.2462348472327" lon="9.295519804582">
<ele>159.8</ele>
<time>2024-05-08T10:35:45Z</time>
</trkpt>
<trkpt lat="49.24625395797193" lon="9.29544160142541">
<ele>159.8</ele>
<time>2024-05-08T10:35:46Z</time>
</trkpt>
<trkpt lat="49.24627298489213" lon="9.29536147043109">
<ele>159.8</ele>
<time>2024-05-08T10:35:47Z</time>
</trkpt>
<trkpt lat="49.24629209563136" lon="9.2952832672745">
<ele>159.8</ele>
<time>2024-05-08T10:35:48Z</time>
</trkpt>
<trkpt lat="49.24631112255156" lon="9.295206991955638">
<ele>159.8</ele>
<time>2024-05-08T10:35:49Z</time>
</trkpt>
<trkpt lat="49.24633023329079" lon="9.295126860961318">
<ele>159.8</ele>
<time>2024-05-08T10:35:50Z</time>
</trkpt>
<trkpt lat="49.24634926021099" lon="9.295049663633108">
<ele>159.8</ele>
<time>2024-05-08T10:35:51Z</time>
</trkpt>
<trkpt lat="49.24637214280665" lon="9.294976154342294">
<ele>159.8</ele>
<time>2024-05-08T10:35:52Z</time>
</trkpt>
<trkpt lat="49.246402736753225" lon="9.29490658454597">
<ele>159.8</ele>
<time>2024-05-08T10:35:54Z</time>
</trkpt>
<trkpt lat="49.24643324688077" lon="9.294836930930614">
<ele>159.8</ele>
<time>2024-05-08T10:35:55Z</time>
</trkpt>
<trkpt lat="49.246459901332855" lon="9.29476543329656">
<ele>159.8</ele>
<time>2024-05-08T10:35:56Z</time>
</trkpt>
<trkpt lat="49.246520921587944" lon="9.2946252040565">
<ele>159.8</ele>
<time>2024-05-08T10:35:57Z</time>
</trkpt>
<trkpt lat="49.24655143171549" lon="9.294556556269526">
<ele>159.8</ele>
<time>2024-05-08T10:35:58Z</time>
</trkpt>
<trkpt lat="49.246582025662065" lon="9.29449176415801">
<ele>159.8</ele>
<time>2024-05-08T10:35:59Z</time>
</trkpt>
<trkpt lat="49.24661253578961" lon="9.294426888227465">
<ele>159.8</ele>
<time>2024-05-08T10:36:00Z</time>
</trkpt>
<trkpt lat="49.24664681777358" lon="9.294362012296917">
<ele>159.8</ele>
<time>2024-05-08T10:36:01Z</time>
</trkpt>
<trkpt lat="49.246677327901125" lon="9.29429336450994">
<ele>159.8</ele>
<time>2024-05-08T10:36:02Z</time>
</trkpt>
<trkpt lat="49.24671169370413" lon="9.294226644560696">
<ele>159.8</ele>
<time>2024-05-08T10:36:03Z</time>
</trkpt>
<trkpt lat="49.24674220383167" lon="9.294157912954688">
<ele>159.8</ele>
<time>2024-05-08T10:36:05Z</time>
</trkpt>
<trkpt lat="49.24680707976222" lon="9.294025395065546">
<ele>159.8</ele>
<time>2024-05-08T10:36:07Z</time>
</trkpt>
<trkpt lat="49.24688335508108" lon="9.29389949887991">
<ele>159.8</ele>
<time>2024-05-08T10:36:08Z</time>
</trkpt>
<trkpt lat="49.24692149274051" lon="9.2938413284719">
<ele>159.8</ele>
<time>2024-05-08T10:36:10Z</time>
</trkpt>
<trkpt lat="49.24700539559126" lon="9.2937221378088">
<ele>159.8</ele>
<time>2024-05-08T10:36:11Z</time>
</trkpt>
<trkpt lat="49.247051160782576" lon="9.29366203956306">
<ele>159.8</ele>
<time>2024-05-08T10:36:12Z</time>
</trkpt>
<trkpt lat="49.247093154117465" lon="9.293602863326669">
<ele>159.8</ele>
<time>2024-05-08T10:36:13Z</time>
</trkpt>
<trkpt lat="49.24713891930878" lon="9.29354284889996">
<ele>159.8</ele>
<time>2024-05-08T10:36:14Z</time>
</trkpt>
<trkpt lat="49.2471846845001" lon="9.29348367266357">
<ele>159.8</ele>
<time>2024-05-08T10:36:16Z</time>
</trkpt>
<trkpt lat="49.247272443026304" lon="9.29336540400982">
<ele>159.8</ele>
<time>2024-05-08T10:36:18Z</time>
</trkpt>
<trkpt lat="49.24731820821762" lon="9.29330631159246">
<ele>159.8</ele>
<time>2024-05-08T10:36:19Z</time>
</trkpt>
<trkpt lat="49.24740211106837" lon="9.293194748461246">
<ele>159.8</ele>
<time>2024-05-08T10:36:20Z</time>
</trkpt>
<trkpt lat="49.24744410440326" lon="9.293141355738044">
<ele>159.8</ele>
<time>2024-05-08T10:36:21Z</time>
</trkpt>
<trkpt lat="49.24748609773815" lon="9.293085029348733">
<ele>159.8</ele>
<time>2024-05-08T10:36:22Z</time>
</trkpt>
<trkpt lat="49.247528007254" lon="9.293031636625528">
<ele>159.8</ele>
<time>2024-05-08T10:36:23Z</time>
</trkpt>
<trkpt lat="49.247570000588894" lon="9.292978243902326">
<ele>159.8</ele>
<time>2024-05-08T10:36:24Z</time>
</trkpt>
<trkpt lat="49.24761576578021" lon="9.29292862303555">
<ele>159.8</ele>
<time>2024-05-08T10:36:25Z</time>
</trkpt>
<trkpt lat="49.24766153097153" lon="9.292878080159426">
<ele>159.6</ele>
<time>2024-05-08T10:36:26Z</time>
</trkpt>
<trkpt lat="49.24770352430642" lon="9.292826615273952">
<ele>159.6</ele>
<time>2024-05-08T10:36:27Z</time>
</trkpt>
<trkpt lat="49.24775306135416" lon="9.292776994407175">
<ele>159.6</ele>
<time>2024-05-08T10:36:28Z</time>
</trkpt>
<trkpt lat="49.24779891036451" lon="9.292730307206511">
<ele>159.6</ele>
<time>2024-05-08T10:36:30Z</time>
</trkpt>
<trkpt lat="49.24789806827903" lon="9.292641626670957">
<ele>159.6</ele>
<time>2024-05-08T10:36:31Z</time>
</trkpt>
<trkpt lat="49.2479476891458" lon="9.292599633336067">
<ele>159.6</ele>
<time>2024-05-08T10:36:32Z</time>
</trkpt>
<trkpt lat="49.24799722619355" lon="9.292561495676637">
<ele>159.6</ele>
<time>2024-05-08T10:36:33Z</time>
</trkpt>
<trkpt lat="49.24804684706032" lon="9.292523358017206">
<ele>159.6</ele>
<time>2024-05-08T10:36:35Z</time>
</trkpt>
<trkpt lat="49.2481498606503" lon="9.292448004707694">
<ele>159.6</ele>
<time>2024-05-08T10:36:36Z</time>
</trkpt>
<trkpt lat="49.248199397698045" lon="9.292407939210534">
<ele>159.6</ele>
<time>2024-05-08T10:36:37Z</time>
</trkpt>
<trkpt lat="49.24824516288936" lon="9.292363096028566">
<ele>159.6</ele>
<time>2024-05-08T10:36:38Z</time>
</trkpt>
<trkpt lat="49.248279528692365" lon="9.2923164088279">
<ele>159.6</ele>
<time>2024-05-08T10:36:40Z</time>
</trkpt>
<trkpt lat="49.24831003881991" lon="9.292264860123396">
<ele>159.6</ele>
<time>2024-05-08T10:36:41Z</time>
</trkpt>
<trkpt lat="49.2483520321548" lon="9.292126642540095">
<ele>159.8</ele>
<time>2024-05-08T10:36:42Z</time>
</trkpt>
<trkpt lat="49.248371059075" lon="9.292051289230583">
<ele>159.8</ele>
<time>2024-05-08T10:36:43Z</time>
</trkpt>
<trkpt lat="49.24838631413877" lon="9.291975013911724">
<ele>159.8</ele>
<time>2024-05-08T10:36:44Z</time>
</trkpt>
<trkpt lat="49.248397797346115" lon="9.29190158843994">
<ele>159.8</ele>
<time>2024-05-08T10:36:45Z</time>
</trkpt>
<trkpt lat="49.24841305240989" lon="9.291830006986856">
<ele>159.8</ele>
<time>2024-05-08T10:36:46Z</time>
</trkpt>
<trkpt lat="49.2484244517982" lon="9.291756581515074">
<ele>160</ele>
<time>2024-05-08T10:36:48Z</time>
</trkpt>
<trkpt lat="49.24846644513309" lon="9.29162691347301">
<ele>160.2</ele>
<time>2024-05-08T10:36:49Z</time>
</trkpt>
<trkpt lat="49.248496955260634" lon="9.291573520749807">
<ele>160.2</ele>
<time>2024-05-08T10:36:51Z</time>
</trkpt>
<trkpt lat="49.24856560304761" lon="9.291489534080029">
<ele>160.4</ele>
<time>2024-05-08T10:36:53Z</time>
</trkpt>
<trkpt lat="49.2486419621855" lon="9.291419964283705">
<ele>160.6</ele>
<time>2024-05-08T10:36:55Z</time>
</trkpt>
<trkpt lat="49.24872963689267" lon="9.29135131649673">
<ele>160.8</ele>
<time>2024-05-08T10:36:56Z</time>
</trkpt>
<trkpt lat="49.24877925775945" lon="9.291321728378534">
<ele>160.8</ele>
<time>2024-05-08T10:36:57Z</time>
</trkpt>
<trkpt lat="49.24882887862623" lon="9.291294990107415">
<ele>160.8</ele>
<time>2024-05-08T10:36:58Z</time>
</trkpt>
<trkpt lat="49.24887841567397" lon="9.291263557970524">
<ele>160.8</ele>
<time>2024-05-08T10:37:00Z</time>
</trkpt>
<trkpt lat="49.24897380173206" lon="9.29119298234582">
<ele>160.8</ele>
<time>2024-05-08T10:37:02Z</time>
</trkpt>
<trkpt lat="49.24907681532204" lon="9.291128106415272">
<ele>161</ele>
<time>2024-05-08T10:37:03Z</time>
</trkpt>
<trkpt lat="49.24913020804525" lon="9.291099524125457">
<ele>161</ele>
<time>2024-05-08T10:37:04Z</time>
</trkpt>
<trkpt lat="49.24918360076845" lon="9.291065158322452">
<ele>161</ele>
<time>2024-05-08T10:37:06Z</time>
</trkpt>
<trkpt lat="49.24929038621485" lon="9.291001288220286">
<ele>161.2</ele>
<time>2024-05-08T10:37:07Z</time>
</trkpt>
<trkpt lat="49.24934000708163" lon="9.29097362793982">
<ele>161.2</ele>
<time>2024-05-08T10:37:08Z</time>
</trkpt>
<trkpt lat="49.24939339980483" lon="9.290943117812276">
<ele>161.2</ele>
<time>2024-05-08T10:37:09Z</time>
</trkpt>
<trkpt lat="49.24944679252803" lon="9.29091637954116">
<ele>161</ele>
<time>2024-05-08T10:37:10Z</time>
</trkpt>
<trkpt lat="49.24949641339481" lon="9.290886875241997">
<ele>161</ele>
<time>2024-05-08T10:37:11Z</time>
</trkpt>
<trkpt lat="49.24954980611801" lon="9.29085535928607">
<ele>160.8</ele>
<time>2024-05-08T10:37:12Z</time>
</trkpt>
<trkpt lat="49.249603198841214" lon="9.290824849158524">
<ele>160.8</ele>
<time>2024-05-08T10:37:14Z</time>
</trkpt>
<trkpt lat="49.24965281970799" lon="9.29079626686871">
<ele>160.6</ele>
<time>2024-05-08T10:37:15Z</time>
</trkpt>
<trkpt lat="49.24970621243119" lon="9.290768606588244">
<ele>160.6</ele>
<time>2024-05-08T10:37:16Z</time>
</trkpt>
<trkpt lat="49.24980922602117" lon="9.290711358189585">
<ele>160.6</ele>
<time>2024-05-08T10:37:17Z</time>
</trkpt>
<trkpt lat="49.249858846887946" lon="9.290683697909117">
<ele>160.6</ele>
<time>2024-05-08T10:37:18Z</time>
</trkpt>
<trkpt lat="49.24990838393569" lon="9.290653187781572">
<ele>160.6</ele>
<time>2024-05-08T10:37:19Z</time>
</trkpt>
<trkpt lat="49.24995414912701" lon="9.290623599663377">
<ele>160.6</ele>
<time>2024-05-08T10:37:21Z</time>
</trkpt>
<trkpt lat="49.2500495351851" lon="9.290574984624982">
<ele>160.4</ele>
<time>2024-05-08T10:37:23Z</time>
</trkpt>
<trkpt lat="49.25014869309962" lon="9.290525363758206">
<ele>160.4</ele>
<time>2024-05-08T10:37:24Z</time>
</trkpt>
<trkpt lat="49.25020216964185" lon="9.2905015591532">
<ele>160.4</ele>
<time>2024-05-08T10:37:25Z</time>
</trkpt>
<trkpt lat="49.250255562365055" lon="9.290474820882082">
<ele>160.4</ele>
<time>2024-05-08T10:37:26Z</time>
</trkpt>
<trkpt lat="49.2503050994128" lon="9.290448166429996">
<ele>160.4</ele>
<time>2024-05-08T10:37:27Z</time>
</trkpt>
<trkpt lat="49.25036234781146" lon="9.290423355996609">
<ele>160.4</ele>
<time>2024-05-08T10:37:28Z</time>
</trkpt>
<trkpt lat="49.25041574053466" lon="9.29039854556322">
<ele>160.4</ele>
<time>2024-05-08T10:37:29Z</time>
</trkpt>
<trkpt lat="49.250469133257866" lon="9.290368035435677">
<ele>160.4</ele>
<time>2024-05-08T10:37:30Z</time>
</trkpt>
<trkpt lat="49.2505226098001" lon="9.29034037515521">
<ele>160.4</ele>
<time>2024-05-08T10:37:31Z</time>
</trkpt>
<trkpt lat="49.2505760025233" lon="9.290313720703123">
<ele>160.4</ele>
<time>2024-05-08T10:37:32Z</time>
</trkpt>
<trkpt lat="49.25063316710293" lon="9.290287904441357">
<ele>160.4</ele>
<time>2024-05-08T10:37:33Z</time>
</trkpt>
<trkpt lat="49.25068664364517" lon="9.290265021845698">
<ele>160.4</ele>
<time>2024-05-08T10:37:35Z</time>
</trkpt>
<trkpt lat="49.250789573416114" lon="9.290216406807303">
<ele>160.2</ele>
<time>2024-05-08T10:37:37Z</time>
</trkpt>
<trkpt lat="49.250888815149665" lon="9.290158236399291">
<ele>160.2</ele>
<time>2024-05-08T10:37:38Z</time>
</trkpt>
<trkpt lat="49.25094220787287" lon="9.290129654109478">
<ele>160</ele>
<time>2024-05-08T10:37:40Z</time>
</trkpt>
<trkpt lat="49.25104136578739" lon="9.290075255557896">
<ele>159.8</ele>
<time>2024-05-08T10:37:41Z</time>
</trkpt>
<trkpt lat="49.25109475851059" lon="9.29004667326808">
<ele>159.8</ele>
<time>2024-05-08T10:37:43Z</time>
</trkpt>
<trkpt lat="49.25120162777603" lon="9.289990346878769">
<ele>159.6</ele>
<time>2024-05-08T10:37:44Z</time>
</trkpt>
<trkpt lat="49.25125502049923" lon="9.289959836751224">
<ele>159.6</ele>
<time>2024-05-08T10:37:46Z</time>
</trkpt>
<trkpt lat="49.251361805945635" lon="9.289903594180942">
<ele>159.4</ele>
<time>2024-05-08T10:37:47Z</time>
</trkpt>
<trkpt lat="49.25141519866884" lon="9.289875011891128">
<ele>159.2</ele>
<time>2024-05-08T10:37:48Z</time>
</trkpt>
<trkpt lat="49.25146481953561" lon="9.28984827362001">
<ele>159.2</ele>
<time>2024-05-08T10:37:49Z</time>
</trkpt>
<trkpt lat="49.251518212258816" lon="9.289819691330194">
<ele>159.2</ele>
<time>2024-05-08T10:37:50Z</time>
</trkpt>
<trkpt lat="49.25157160498202" lon="9.289792031049728">
<ele>159.2</ele>
<time>2024-05-08T10:37:51Z</time>
</trkpt>
<trkpt lat="49.25162499770522" lon="9.289763448759912">
<ele>159.2</ele>
<time>2024-05-08T10:37:52Z</time>
</trkpt>
<trkpt lat="49.251678390428424" lon="9.289734782651069">
<ele>159.2</ele>
<time>2024-05-08T10:37:53Z</time>
</trkpt>
<trkpt lat="49.251739494502544" lon="9.289706200361252">
<ele>159.4</ele>
<time>2024-05-08T10:37:54Z</time>
</trkpt>
<trkpt lat="49.25180051475763" lon="9.289680467918515">
<ele>159.4</ele>
<time>2024-05-08T10:37:56Z</time>
</trkpt>
<trkpt lat="49.251914927735925" lon="9.289618441835046">
<ele>159.4</ele>
<time>2024-05-08T10:37:57Z</time>
</trkpt>
<trkpt lat="49.25197594799101" lon="9.28958985954523">
<ele>159.2</ele>
<time>2024-05-08T10:37:58Z</time>
</trkpt>
<trkpt lat="49.252033196389675" lon="9.289560271427035">
<ele>159.2</ele>
<time>2024-05-08T10:37:59Z</time>
</trkpt>
<trkpt lat="49.25208658911288" lon="9.28953168913722">
<ele>159</ele>
<time>2024-05-08T10:38:00Z</time>
</trkpt>
<trkpt lat="49.25214383751154" lon="9.289504950866103">
<ele>159</ele>
<time>2024-05-08T10:38:02Z</time>
</trkpt>
<trkpt lat="49.25225447863341" lon="9.289448708295822">
<ele>158.8</ele>
<time>2024-05-08T10:38:03Z</time>
</trkpt>
<trkpt lat="49.252311643213034" lon="9.289421970024703">
<ele>158.6</ele>
<time>2024-05-08T10:38:04Z</time>
</trkpt>
<trkpt lat="49.25236503593624" lon="9.28939338773489">
<ele>158.6</ele>
<time>2024-05-08T10:38:06Z</time>
</trkpt>
<trkpt lat="49.252468049526215" lon="9.289338067173958">
<ele>158.4</ele>
<time>2024-05-08T10:38:08Z</time>
</trkpt>
<trkpt lat="49.25257491879165" lon="9.289283752441406">
<ele>158.4</ele>
<time>2024-05-08T10:38:09Z</time>
</trkpt>
<trkpt lat="49.252628311514854" lon="9.289257014170287">
<ele>158.4</ele>
<time>2024-05-08T10:38:10Z</time>
</trkpt>
<trkpt lat="49.25268170423806" lon="9.289228431880474">
<ele>158.4</ele>
<time>2024-05-08T10:38:11Z</time>
</trkpt>
<trkpt lat="49.25273895263672" lon="9.289199765771627">
<ele>158.2</ele>
<time>2024-05-08T10:38:13Z</time>
</trkpt>
<trkpt lat="49.25279234535992" lon="9.289164477959275">
<ele>158.2</ele>
<time>2024-05-08T10:38:14Z</time>
</trkpt>
<trkpt lat="49.252902902662754" lon="9.289088202640414">
<ele>158</ele>
<time>2024-05-08T10:38:16Z</time>
</trkpt>
<trkpt lat="49.253002144396305" lon="9.289014777168632">
<ele>158</ele>
<time>2024-05-08T10:38:17Z</time>
</trkpt>
<trkpt lat="49.25305168144405" lon="9.28897856734693">
<ele>157.8</ele>
<time>2024-05-08T10:38:19Z</time>
</trkpt>
<trkpt lat="49.25314706750214" lon="9.288903214037418">
<ele>157.6</ele>
<time>2024-05-08T10:38:20Z</time>
</trkpt>
<trkpt lat="49.25319668836892" lon="9.288865076377988">
<ele>157.4</ele>
<time>2024-05-08T10:38:21Z</time>
</trkpt>
<trkpt lat="49.25324245356023" lon="9.288827860727906">
<ele>157.4</ele>
<time>2024-05-08T10:38:22Z</time>
</trkpt>
<trkpt lat="49.25328821875155" lon="9.288793494924905">
<ele>157.2</ele>
<time>2024-05-08T10:38:23Z</time>
</trkpt>
<trkpt lat="49.25332635641098" lon="9.288756363093851">
<ele>157.2</ele>
<time>2024-05-08T10:38:24Z</time>
</trkpt>
<trkpt lat="49.25336834974587" lon="9.2887229193002">
<ele>157</ele>
<time>2024-05-08T10:38:26Z</time>
</trkpt>
<trkpt lat="49.25344848074019" lon="9.288664748892188">
<ele>157</ele>
<time>2024-05-08T10:38:27Z</time>
</trkpt>
<trkpt lat="49.25349039025605" lon="9.288631388917564">
<ele>156.8</ele>
<time>2024-05-08T10:38:28Z</time>
</trkpt>
<trkpt lat="49.25353238359094" lon="9.288597106933594">
<ele>156.8</ele>
<time>2024-05-08T10:38:30Z</time>
</trkpt>
<trkpt lat="49.253574293106794" lon="9.28856366313994">
<ele>157</ele>
<time>2024-05-08T10:38:31Z</time>
</trkpt>
<trkpt lat="49.253662051633" lon="9.288493087515237">
<ele>157</ele>
<time>2024-05-08T10:38:32Z</time>
</trkpt>
<trkpt lat="49.25370404496789" lon="9.288457799702885">
<ele>157</ele>
<time>2024-05-08T10:38:34Z</time>
</trkpt>
<trkpt lat="49.25374595448375" lon="9.288419662043452">
<ele>157</ele>
<time>2024-05-08T10:38:35Z</time>
</trkpt>
<trkpt lat="49.25382231362164" lon="9.288354869931936">
<ele>157.2</ele>
<time>2024-05-08T10:38:37Z</time>
</trkpt>
<trkpt lat="49.2538985889405" lon="9.288294771686196">
<ele>157.6</ele>
<time>2024-05-08T10:38:39Z</time>
</trkpt>
<trkpt lat="49.25393672659993" lon="9.288269961252809">
<ele>157.8</ele>
<time>2024-05-08T10:38:40Z</time>
</trkpt>
<trkpt lat="49.253971092402935" lon="9.28824515081942">
<ele>158</ele>
<time>2024-05-08T10:38:41Z</time>
</trkpt>
<trkpt lat="49.25400537438691" lon="9.288218496367335">
<ele>158.2</ele>
<time>2024-05-08T10:38:42Z</time>
</trkpt>
<trkpt lat="49.25403974018991" lon="9.288191758096218">
<ele>158.2</ele>
<time>2024-05-08T10:38:43Z</time>
</trkpt>
<trkpt lat="49.25411601550877" lon="9.288129732012749">
<ele>158.4</ele>
<time>2024-05-08T10:38:45Z</time>
</trkpt>
<trkpt lat="49.25419991835952" lon="9.288058234378695">
<ele>158.6</ele>
<time>2024-05-08T10:38:47Z</time>
</trkpt>
<trkpt lat="49.2542839050293" lon="9.287986736744642">
<ele>158.8</ele>
<time>2024-05-08T10:38:48Z</time>
</trkpt>
<trkpt lat="49.25433344207704" lon="9.287948599085212">
<ele>158.8</ele>
<time>2024-05-08T10:38:49Z</time>
</trkpt>
<trkpt lat="49.25437920726836" lon="9.28791331127286">
<ele>158.8</ele>
<time>2024-05-08T10:38:50Z</time>
</trkpt>
<trkpt lat="49.25443259999156" lon="9.2878732457757">
<ele>158.8</ele>
<time>2024-05-08T10:38:51Z</time>
</trkpt>
<trkpt lat="49.25447844900191" lon="9.287837957963347">
<ele>158.8</ele>
<time>2024-05-08T10:38:52Z</time>
</trkpt>
<trkpt lat="49.254524214193225" lon="9.287803592160344">
<ele>158.8</ele>
<time>2024-05-08T10:38:53Z</time>
</trkpt>
<trkpt lat="49.25456612370908" lon="9.28777500987053">
<ele>158.8</ele>
<time>2024-05-08T10:38:54Z</time>
</trkpt>
<trkpt lat="49.25459663383663" lon="9.28775212727487">
<ele>158.8</ele>
<time>2024-05-08T10:38:56Z</time>
</trkpt>
<trkpt lat="49.25463485531509" lon="9.287723461166024">
<ele>158.8</ele>
<time>2024-05-08T10:38:57Z</time>
</trkpt>
<trkpt lat="49.25467299297452" lon="9.28769487887621">
<ele>158.8</ele>
<time>2024-05-08T10:38:58Z</time>
</trkpt>
<trkpt lat="49.25474541261792" lon="9.287628158926964">
<ele>159</ele>
<time>2024-05-08T10:38:59Z</time>
</trkpt>
<trkpt lat="49.25478740595281" lon="9.28759471513331">
<ele>159</ele>
<time>2024-05-08T10:39:00Z</time>
</trkpt>
<trkpt lat="49.2548293992877" lon="9.287565210834146">
<ele>159</ele>
<time>2024-05-08T10:39:01Z</time>
</trkpt>
<trkpt lat="49.25486753694713" lon="9.2875347007066">
<ele>159</ele>
<time>2024-05-08T10:39:02Z</time>
</trkpt>
<trkpt lat="49.25491330213845" lon="9.287505112588406">
<ele>159.2</ele>
<time>2024-05-08T10:39:03Z</time>
</trkpt>
<trkpt lat="49.254955211654305" lon="9.28747653029859">
<ele>159.4</ele>
<time>2024-05-08T10:39:04Z</time>
</trkpt>
<trkpt lat="49.255001060664654" lon="9.287447864189744">
<ele>159.6</ele>
<time>2024-05-08T10:39:05Z</time>
</trkpt>
<trkpt lat="49.25504682585597" lon="9.28741835989058">
<ele>159.6</ele>
<time>2024-05-08T10:39:06Z</time>
</trkpt>
<trkpt lat="49.25508873537183" lon="9.287387765944004">
<ele>159.8</ele>
<time>2024-05-08T10:39:07Z</time>
</trkpt>
<trkpt lat="49.25513072870672" lon="9.28736018948257">
<ele>160</ele>
<time>2024-05-08T10:39:08Z</time>
</trkpt>
<trkpt lat="49.25517272204161" lon="9.287329595535994">
<ele>160.4</ele>
<time>2024-05-08T10:39:09Z</time>
</trkpt>
<trkpt lat="49.255214631557465" lon="9.287304868921638">
<ele>160.6</ele>
<time>2024-05-08T10:39:10Z</time>
</trkpt>
<trkpt lat="49.255252769216895" lon="9.287275280803442">
<ele>160.8</ele>
<time>2024-05-08T10:39:12Z</time>
</trkpt>
<trkpt lat="49.25532912835479" lon="9.28721996024251">
<ele>161</ele>
<time>2024-05-08T10:39:13Z</time>
</trkpt>
<trkpt lat="49.25536726601422" lon="9.287191377952697">
<ele>161.2</ele>
<time>2024-05-08T10:39:14Z</time>
</trkpt>
<trkpt lat="49.25540154799819" lon="9.28715793415904">
<ele>161.2</ele>
<time>2024-05-08T10:39:15Z</time>
</trkpt>
<trkpt lat="49.255432058125734" lon="9.28712172433734">
<ele>161.4</ele>
<time>2024-05-08T10:39:17Z</time>
</trkpt>
<trkpt lat="49.25547782331705" lon="9.287025416269898">
<ele>161.6</ele>
<time>2024-05-08T10:39:18Z</time>
</trkpt>
<trkpt lat="49.2554893065244" lon="9.286968167871237">
<ele>161.8</ele>
<time>2024-05-08T10:39:19Z</time>
</trkpt>
<trkpt lat="49.255493162199855" lon="9.286911925300956">
<ele>161.8</ele>
<time>2024-05-08T10:39:21Z</time>
</trkpt>
<trkpt lat="49.25549693405628" lon="9.286854676902294">
<ele>162</ele>
<time>2024-05-08T10:39:22Z</time>
</trkpt>
<trkpt lat="49.25549693405628" lon="9.286798434332011">
<ele>162</ele>
<time>2024-05-08T10:39:23Z</time>
</trkpt>
<trkpt lat="49.255493162199855" lon="9.286687793210149">
<ele>162.2</ele>
<time>2024-05-08T10:39:24Z</time>
</trkpt>
<trkpt lat="49.255493162199855" lon="9.286635322496297">
<ele>162.2</ele>
<time>2024-05-08T10:39:25Z</time>
</trkpt>
<trkpt lat="49.2554893065244" lon="9.286582935601473">
<ele>162.4</ele>
<time>2024-05-08T10:39:27Z</time>
</trkpt>
<trkpt lat="49.25548167899251" lon="9.286477994173763">
<ele>162.6</ele>
<time>2024-05-08T10:39:28Z</time>
</trkpt>
<trkpt lat="49.255474051460624" lon="9.286426529288292">
<ele>162.8</ele>
<time>2024-05-08T10:39:29Z</time>
</trkpt>
<trkpt lat="49.25546642392874" lon="9.286374980583789">
<ele>163</ele>
<time>2024-05-08T10:39:30Z</time>
</trkpt>
<trkpt lat="49.25546256825328" lon="9.286326365545392">
<ele>163</ele>
<time>2024-05-08T10:39:31Z</time>
</trkpt>
<trkpt lat="49.25545494072139" lon="9.286278672516346">
<ele>163.2</ele>
<time>2024-05-08T10:39:32Z</time>
</trkpt>
<trkpt lat="49.25544731318951" lon="9.286228129640222">
<ele>163.4</ele>
<time>2024-05-08T10:39:33Z</time>
</trkpt>
<trkpt lat="49.25544354133308" lon="9.286178508773446">
<ele>163.4</ele>
<time>2024-05-08T10:39:35Z</time>
</trkpt>
<trkpt lat="49.25542828626931" lon="9.286081278696656">
<ele>163.8</ele>
<time>2024-05-08T10:39:36Z</time>
</trkpt>
<trkpt lat="49.25541680306196" lon="9.28603358566761">
<ele>163.8</ele>
<time>2024-05-08T10:39:37Z</time>
</trkpt>
<trkpt lat="49.25540540367365" lon="9.285982120782135">
<ele>164</ele>
<time>2024-05-08T10:39:38Z</time>
</trkpt>
<trkpt lat="49.255393920466304" lon="9.285931577906013">
<ele>164.2</ele>
<time>2024-05-08T10:39:39Z</time>
</trkpt>
<trkpt lat="49.25538252107799" lon="9.285880029201508">
<ele>164.4</ele>
<time>2024-05-08T10:39:40Z</time>
</trkpt>
<trkpt lat="49.255374893546104" lon="9.285829486325383">
<ele>164.6</ele>
<time>2024-05-08T10:39:41Z</time>
</trkpt>
<trkpt lat="49.25536341033876" lon="9.28577994927764">
<ele>164.8</ele>
<time>2024-05-08T10:39:43Z</time>
</trkpt>
<trkpt lat="49.255352010950446" lon="9.285728400573134">
<ele>165.2</ele>
<time>2024-05-08T10:39:44Z</time>
</trkpt>
<trkpt lat="49.2553405277431" lon="9.28567785769701">
<ele>165.4</ele>
<time>2024-05-08T10:39:45Z</time>
</trkpt>
<trkpt lat="49.25532912835479" lon="9.285628236830236">
<ele>165.6</ele>
<time>2024-05-08T10:39:46Z</time>
</trkpt>
<trkpt lat="49.255313873291016" lon="9.285525307059288">
<ele>166</ele>
<time>2024-05-08T10:39:47Z</time>
</trkpt>
<trkpt lat="49.25531001761556" lon="9.285471914336084">
<ele>166</ele>
<time>2024-05-08T10:39:49Z</time>
</trkpt>
<trkpt lat="49.25530239008367" lon="9.28536311723292">
<ele>166.4</ele>
<time>2024-05-08T10:39:51Z</time>
</trkpt>
<trkpt lat="49.2553061619401" lon="9.285306874662638">
<ele>166.6</ele>
<time>2024-05-08T10:39:52Z</time>
</trkpt>
<trkpt lat="49.25531001761556" lon="9.285251554101706">
<ele>166.8</ele>
<time>2024-05-08T10:39:53Z</time>
</trkpt>
<trkpt lat="49.255336755886674" lon="9.285138063132765">
<ele>167.2</ele>
<time>2024-05-08T10:39:54Z</time>
</trkpt>
<trkpt lat="49.25534815527499" lon="9.285081820562482">
<ele>167.2</ele>
<time>2024-05-08T10:39:55Z</time>
</trkpt>
<trkpt lat="49.25536341033876" lon="9.28502457216382">
<ele>167.4</ele>
<time>2024-05-08T10:39:56Z</time>
</trkpt>
<trkpt lat="49.25537866540253" lon="9.28496640175581">
<ele>167.6</ele>
<time>2024-05-08T10:39:58Z</time>
</trkpt>
<trkpt lat="49.25540540367365" lon="9.28484813310206">
<ele>168</ele>
<time>2024-05-08T10:39:59Z</time>
</trkpt>
<trkpt lat="49.25542065873742" lon="9.284788118675351">
<ele>168</ele>
<time>2024-05-08T10:40:01Z</time>
</trkpt>
<trkpt lat="49.25544731318951" lon="9.284661216661334">
<ele>168.2</ele>
<time>2024-05-08T10:40:02Z</time>
</trkpt>
<trkpt lat="49.25545879639685" lon="9.284600196406243">
<ele>168.2</ele>
<time>2024-05-08T10:40:04Z</time>
</trkpt>
<trkpt lat="49.255474051460624" lon="9.284538254141808">
<ele>168.2</ele>
<time>2024-05-08T10:40:05Z</time>
</trkpt>
<trkpt lat="49.2554893065244" lon="9.284480083733795">
<ele>168.2</ele>
<time>2024-05-08T10:40:06Z</time>
</trkpt>
<trkpt lat="49.25550456158817" lon="9.284424763172863">
<ele>168.2</ele>
<time>2024-05-08T10:40:07Z</time>
</trkpt>
<trkpt lat="49.255527444183826" lon="9.284371370449662">
<ele>168.2</ele>
<time>2024-05-08T10:40:08Z</time>
</trkpt>
<trkpt lat="49.25556180998683" lon="9.284326527267694">
<ele>168.2</ele>
<time>2024-05-08T10:40:09Z</time>
</trkpt>
<trkpt lat="49.25563808530569" lon="9.284261651337149">
<ele>168.2</ele>
<time>2024-05-08T10:40:10Z</time>
</trkpt>
<trkpt lat="49.25568385049701" lon="9.28423499688506">
<ele>168.2</ele>
<time>2024-05-08T10:40:11Z</time>
</trkpt>
<trkpt lat="49.25574109889567" lon="9.284206330776216">
<ele>168.2</ele>
<time>2024-05-08T10:40:13Z</time>
</trkpt>
<trkpt lat="49.25580211915076" lon="9.284179676324127">
<ele>168.2</ele>
<time>2024-05-08T10:40:14Z</time>
</trkpt>
<trkpt lat="49.25593564286828" lon="9.284132905304432">
<ele>167.8</ele>
<time>2024-05-08T10:40:16Z</time>
</trkpt>
<trkpt lat="49.256088193506" lon="9.28409954532981">
<ele>167.4</ele>
<time>2024-05-08T10:40:18Z</time>
</trkpt>
<trkpt lat="49.25624845549464" lon="9.284068029373884">
<ele>166.6</ele>
<time>2024-05-08T10:40:19Z</time>
</trkpt>
<trkpt lat="49.25633235834539" lon="9.284053780138493">
<ele>166.2</ele>
<time>2024-05-08T10:40:20Z</time>
</trkpt>
<trkpt lat="49.25641248933971" lon="9.284036597236993">
<ele>166</ele>
<time>2024-05-08T10:40:21Z</time>
</trkpt>
<trkpt lat="49.256496392190456" lon="9.28402134217322">
<ele>165.6</ele>
<time>2024-05-08T10:40:22Z</time>
</trkpt>
<trkpt lat="49.256576523184776" lon="9.284008014947176">
<ele>165.2</ele>
<time>2024-05-08T10:40:23Z</time>
</trkpt>
<trkpt lat="49.256656570360065" lon="9.283993681892753">
<ele>165</ele>
<time>2024-05-08T10:40:24Z</time>
</trkpt>
<trkpt lat="49.256736701354384" lon="9.28397842682898">
<ele>164.6</ele>
<time>2024-05-08T10:40:25Z</time>
</trkpt>
<trkpt lat="49.256816832348704" lon="9.283965099602938">
<ele>164.2</ele>
<time>2024-05-08T10:40:26Z</time>
</trkpt>
<trkpt lat="49.256893107667565" lon="9.283949844539164">
<ele>163.8</ele>
<time>2024-05-08T10:40:27Z</time>
</trkpt>
<trkpt lat="49.256969382986426" lon="9.283936433494093">
<ele>163.4</ele>
<time>2024-05-08T10:40:28Z</time>
</trkpt>
<trkpt lat="49.25704574212432" lon="9.283923106268048">
<ele>163.2</ele>
<time>2024-05-08T10:40:29Z</time>
</trkpt>
<trkpt lat="49.25711816176772" lon="9.283907851204276">
<ele>163</ele>
<time>2024-05-08T10:40:30Z</time>
</trkpt>
<trkpt lat="49.25719443708658" lon="9.283893518149853">
<ele>162.8</ele>
<time>2024-05-08T10:40:31Z</time>
</trkpt>
<trkpt lat="49.257266940549016" lon="9.28387826308608">
<ele>162.6</ele>
<time>2024-05-08T10:40:32Z</time>
</trkpt>
<trkpt lat="49.25733944401145" lon="9.283863008022308">
<ele>162.2</ele>
<time>2024-05-08T10:40:33Z</time>
</trkpt>
<trkpt lat="49.257408091798425" lon="9.283846830949187">
<ele>162</ele>
<time>2024-05-08T10:40:34Z</time>
</trkpt>
<trkpt lat="49.25748059526086" lon="9.283831575885417">
<ele>161.6</ele>
<time>2024-05-08T10:40:35Z</time>
</trkpt>
<trkpt lat="49.25755309872329" lon="9.28381816484034">
<ele>161.4</ele>
<time>2024-05-08T10:40:36Z</time>
</trkpt>
<trkpt lat="49.25762174651027" lon="9.283804837614298">
<ele>161.2</ele>
<time>2024-05-08T10:40:37Z</time>
</trkpt>
<trkpt lat="49.25769039429724" lon="9.283789582550526">
<ele>161</ele>
<time>2024-05-08T10:40:38Z</time>
</trkpt>
<trkpt lat="49.25775904208422" lon="9.283775249496102">
<ele>160.8</ele>
<time>2024-05-08T10:40:39Z</time>
</trkpt>
<trkpt lat="49.25782768987119" lon="9.28376192227006">
<ele>160.6</ele>
<time>2024-05-08T10:40:40Z</time>
</trkpt>
<trkpt lat="49.25789256580174" lon="9.283749517053366">
<ele>160.2</ele>
<time>2024-05-08T10:40:41Z</time>
</trkpt>
<trkpt lat="49.25795744173229" lon="9.283738117665052">
<ele>160</ele>
<time>2024-05-08T10:40:42Z</time>
</trkpt>
<trkpt lat="49.2580222338438" lon="9.283724706619978">
<ele>159.8</ele>
<time>2024-05-08T10:40:43Z</time>
</trkpt>
<trkpt lat="49.25808333791792" lon="9.283716157078745">
<ele>159.6</ele>
<time>2024-05-08T10:40:44Z</time>
</trkpt>
<trkpt lat="49.25814813002944" lon="9.283706601709127">
<ele>159.4</ele>
<time>2024-05-08T10:40:45Z</time>
</trkpt>
<trkpt lat="49.25820915028453" lon="9.283697046339512">
<ele>159.2</ele>
<time>2024-05-08T10:40:47Z</time>
</trkpt>
<trkpt lat="49.25832741893828" lon="9.283675169572234">
<ele>158.8</ele>
<time>2024-05-08T10:40:48Z</time>
</trkpt>
<trkpt lat="49.25838466733694" lon="9.28366469219327">
<ele>158.8</ele>
<time>2024-05-08T10:40:49Z</time>
</trkpt>
<trkpt lat="49.25843806006014" lon="9.283653208985925">
<ele>158.6</ele>
<time>2024-05-08T10:40:50Z</time>
</trkpt>
<trkpt lat="49.25848768092692" lon="9.28364365361631">
<ele>158.4</ele>
<time>2024-05-08T10:40:51Z</time>
</trkpt>
<trkpt lat="49.25852959044278" lon="9.283619849011302">
<ele>158.2</ele>
<time>2024-05-08T10:40:53Z</time>
</trkpt>
<trkpt lat="49.25858306698501" lon="9.283528318628669">
<ele>158</ele>
<time>2024-05-08T10:40:55Z</time>
</trkpt>
<trkpt lat="49.2585906945169" lon="9.28340334445238">
<ele>157.8</ele>
<time>2024-05-08T10:40:56Z</time>
</trkpt>
<trkpt lat="49.25858683884144" lon="9.283338468521832">
<ele>157.8</ele>
<time>2024-05-08T10:40:58Z</time>
</trkpt>
<trkpt lat="49.25857921130955" lon="9.283276526257396">
<ele>157.6</ele>
<time>2024-05-08T10:40:59Z</time>
</trkpt>
<trkpt lat="49.258571583777666" lon="9.283160185441377">
<ele>157.6</ele>
<time>2024-05-08T10:41:01Z</time>
</trkpt>
<trkpt lat="49.258571583777666" lon="9.283102015033364">
<ele>157.6</ele>
<time>2024-05-08T10:41:02Z</time>
</trkpt>
<trkpt lat="49.25856395624578" lon="9.282978046685455">
<ele>157.6</ele>
<time>2024-05-08T10:41:03Z</time>
</trkpt>
<trkpt lat="49.25856010057032" lon="9.28291509859264">
<ele>157.6</ele>
<time>2024-05-08T10:41:04Z</time>
</trkpt>
<trkpt lat="49.258556328713894" lon="9.282848294824362">
<ele>157.6</ele>
<time>2024-05-08T10:41:06Z</time>
</trkpt>
<trkpt lat="49.25854484550655" lon="9.28271292708814">
<ele>157.6</ele>
<time>2024-05-08T10:41:07Z</time>
</trkpt>
<trkpt lat="49.25854107365012" lon="9.282646123319864">
<ele>157.4</ele>
<time>2024-05-08T10:41:08Z</time>
</trkpt>
<trkpt lat="49.25853344611824" lon="9.282578397542238">
<ele>157.4</ele>
<time>2024-05-08T10:41:09Z</time>
</trkpt>
<trkpt lat="49.25852959044278" lon="9.282507821917534">
<ele>157.4</ele>
<time>2024-05-08T10:41:10Z</time>
</trkpt>
<trkpt lat="49.25852581858635" lon="9.282443029806018">
<ele>157.4</ele>
<time>2024-05-08T10:41:11Z</time>
</trkpt>
<trkpt lat="49.25851819105446" lon="9.282375304028392">
<ele>157.4</ele>
<time>2024-05-08T10:41:12Z</time>
</trkpt>
<trkpt lat="49.258514335379004" lon="9.282304728403687">
<ele>157.4</ele>
<time>2024-05-08T10:41:14Z</time>
</trkpt>
<trkpt lat="49.25851056352258" lon="9.282235074788332">
<ele>157.4</ele>
<time>2024-05-08T10:41:15Z</time>
</trkpt>
<trkpt lat="49.25850670784712" lon="9.282093001529574">
<ele>157.6</ele>
<time>2024-05-08T10:41:16Z</time>
</trkpt>
<trkpt lat="49.25850293599069" lon="9.28202334791422">
<ele>157.6</ele>
<time>2024-05-08T10:41:17Z</time>
</trkpt>
<trkpt lat="49.25849908031523" lon="9.281951850280166">
<ele>157.6</ele>
<time>2024-05-08T10:41:19Z</time>
</trkpt>
<trkpt lat="49.258491452783346" lon="9.281809777021408">
<ele>157.8</ele>
<time>2024-05-08T10:41:20Z</time>
</trkpt>
<trkpt lat="49.25848768092692" lon="9.281736351549624">
<ele>157.6</ele>
<time>2024-05-08T10:41:21Z</time>
</trkpt>
<trkpt lat="49.25848005339503" lon="9.281662926077844">
<ele>157.6</ele>
<time>2024-05-08T10:41:22Z</time>
</trkpt>
<trkpt lat="49.258476197719574" lon="9.281590422615407">
<ele>157.6</ele>
<time>2024-05-08T10:41:24Z</time>
</trkpt>
<trkpt lat="49.25846479833126" lon="9.281437871977689">
<ele>157.4</ele>
<time>2024-05-08T10:41:25Z</time>
</trkpt>
<trkpt lat="49.25846479833126" lon="9.281359668821096">
<ele>157.2</ele>
<time>2024-05-08T10:41:26Z</time>
</trkpt>
<trkpt lat="49.258457170799375" lon="9.281283309683204">
<ele>157.2</ele>
<time>2024-05-08T10:41:28Z</time>
</trkpt>
<trkpt lat="49.25844954326749" lon="9.281123131513596">
<ele>157.2</ele>
<time>2024-05-08T10:41:29Z</time>
</trkpt>
<trkpt lat="49.2584419157356" lon="9.281044928357003">
<ele>157.2</ele>
<time>2024-05-08T10:41:30Z</time>
</trkpt>
<trkpt lat="49.25843806006014" lon="9.280964797362683">
<ele>157.2</ele>
<time>2024-05-08T10:41:31Z</time>
</trkpt>
<trkpt lat="49.25843043252826" lon="9.280886594206097">
<ele>157.2</ele>
<time>2024-05-08T10:41:32Z</time>
</trkpt>
<trkpt lat="49.25842666067183" lon="9.280808391049504">
<ele>157.2</ele>
<time>2024-05-08T10:41:33Z</time>
</trkpt>
<trkpt lat="49.25842280499637" lon="9.280731193721294">
<ele>157.2</ele>
<time>2024-05-08T10:41:34Z</time>
</trkpt>
<trkpt lat="49.258419033139944" lon="9.280654834583402">
<ele>157.2</ele>
<time>2024-05-08T10:41:35Z</time>
</trkpt>
<trkpt lat="49.258415177464485" lon="9.280576631426811">
<ele>157.2</ele>
<time>2024-05-08T10:41:36Z</time>
</trkpt>
<trkpt lat="49.25841140560806" lon="9.28049842827022">
<ele>157.4</ele>
<time>2024-05-08T10:41:37Z</time>
</trkpt>
<trkpt lat="49.25840377807617" lon="9.28042123094201">
<ele>157.4</ele>
<time>2024-05-08T10:41:39Z</time>
</trkpt>
<trkpt lat="49.258396066725254" lon="9.2802628967911">
<ele>157.4</ele>
<time>2024-05-08T10:41:40Z</time>
</trkpt>
<trkpt lat="49.25838843919337" lon="9.28018469363451">
<ele>157.4</ele>
<time>2024-05-08T10:41:41Z</time>
</trkpt>
<trkpt lat="49.25838466733694" lon="9.28010456264019">
<ele>157.4</ele>
<time>2024-05-08T10:41:42Z</time>
</trkpt>
<trkpt lat="49.25838081166148" lon="9.28002350963652">
<ele>157.4</ele>
<time>2024-05-08T10:41:43Z</time>
</trkpt>
<trkpt lat="49.2583731841296" lon="9.279943462461231">
<ele>157.4</ele>
<time>2024-05-08T10:41:45Z</time>
</trkpt>
<trkpt lat="49.25836178474128" lon="9.279781272634864">
<ele>157.4</ele>
<time>2024-05-08T10:41:46Z</time>
</trkpt>
<trkpt lat="49.25835415720939" lon="9.279698291793466">
<ele>157.4</ele>
<time>2024-05-08T10:41:48Z</time>
</trkpt>
<trkpt lat="49.25834652967751" lon="9.2796153947711">
<ele>157.4</ele>
<time>2024-05-08T10:41:49Z</time>
</trkpt>
<trkpt lat="49.258335046470165" lon="9.27953333593905">
<ele>157.4</ele>
<time>2024-05-08T10:41:50Z</time>
</trkpt>
<trkpt lat="49.258316019549966" lon="9.279366452246904">
<ele>157.4</ele>
<time>2024-05-08T10:41:51Z</time>
</trkpt>
<trkpt lat="49.25830453634262" lon="9.279281543567777">
<ele>157.4</ele>
<time>2024-05-08T10:41:52Z</time>
</trkpt>
<trkpt lat="49.258296908810735" lon="9.27919864654541">
<ele>157.4</ele>
<time>2024-05-08T10:41:53Z</time>
</trkpt>
<trkpt lat="49.25828550942242" lon="9.279113737866282">
<ele>157.4</ele>
<time>2024-05-08T10:41:54Z</time>
</trkpt>
<trkpt lat="49.258277881890535" lon="9.279031679034231">
<ele>157.4</ele>
<time>2024-05-08T10:41:55Z</time>
</trkpt>
<trkpt lat="49.25826639868319" lon="9.278948782011868">
<ele>157.4</ele>
<time>2024-05-08T10:41:56Z</time>
</trkpt>
<trkpt lat="49.258258771151304" lon="9.278864795342088">
<ele>157.4</ele>
<time>2024-05-08T10:41:57Z</time>
</trkpt>
<trkpt lat="49.25825114361942" lon="9.27878181450069">
<ele>157.4</ele>
<time>2024-05-08T10:41:58Z</time>
</trkpt>
<trkpt lat="49.25822826102376" lon="9.278616858646274">
<ele>157.4</ele>
<time>2024-05-08T10:42:00Z</time>
</trkpt>
<trkpt lat="49.258220633491874" lon="9.278531949967146">
<ele>157.4</ele>
<time>2024-05-08T10:42:01Z</time>
</trkpt>
<trkpt lat="49.25820915028453" lon="9.2784480471164">
<ele>157.4</ele>
<time>2024-05-08T10:42:02Z</time>
</trkpt>
<trkpt lat="49.258197750896215" lon="9.278365066275">
<ele>157.4</ele>
<time>2024-05-08T10:42:03Z</time>
</trkpt>
<trkpt lat="49.25819012336433" lon="9.278280241414905">
<ele>157.4</ele>
<time>2024-05-08T10:42:04Z</time>
</trkpt>
<trkpt lat="49.258178640156984" lon="9.278198182582855">
<ele>157.4</ele>
<time>2024-05-08T10:42:05Z</time>
</trkpt>
<trkpt lat="49.25816724076867" lon="9.278115201741455">
<ele>157.4</ele>
<time>2024-05-08T10:42:06Z</time>
</trkpt>
<trkpt lat="49.258159613236785" lon="9.27803322672844">
<ele>157.4</ele>
<time>2024-05-08T10:42:07Z</time>
</trkpt>
<trkpt lat="49.25814813002944" lon="9.27795116789639">
<ele>157.4</ele>
<time>2024-05-08T10:42:08Z</time>
</trkpt>
<trkpt lat="49.25813673064113" lon="9.27787204273045">
<ele>157.4</ele>
<time>2024-05-08T10:42:09Z</time>
</trkpt>
<trkpt lat="49.25812910310924" lon="9.27779191173613">
<ele>157.4</ele>
<time>2024-05-08T10:42:10Z</time>
</trkpt>
<trkpt lat="49.258117619901896" lon="9.277711864560844">
<ele>157.2</ele>
<time>2024-05-08T10:42:11Z</time>
</trkpt>
<trkpt lat="49.25810999237001" lon="9.277629805728791">
<ele>157.2</ele>
<time>2024-05-08T10:42:12Z</time>
</trkpt>
<trkpt lat="49.25809473730624" lon="9.277546824887397">
<ele>157</ele>
<time>2024-05-08T10:42:13Z</time>
</trkpt>
<trkpt lat="49.25808333791792" lon="9.277462922036648">
<ele>157</ele>
<time>2024-05-08T10:42:14Z</time>
</trkpt>
<trkpt lat="49.25807185471058" lon="9.27738186903298">
<ele>156.8</ele>
<time>2024-05-08T10:42:15Z</time>
</trkpt>
<trkpt lat="49.25806422717869" lon="9.27729981020093">
<ele>156.8</ele>
<time>2024-05-08T10:42:16Z</time>
</trkpt>
<trkpt lat="49.25805274397135" lon="9.277217835187912">
<ele>156.6</ele>
<time>2024-05-08T10:42:17Z</time>
</trkpt>
<trkpt lat="49.25804511643946" lon="9.277136782184243">
<ele>156.6</ele>
<time>2024-05-08T10:42:18Z</time>
</trkpt>
<trkpt lat="49.25803371705115" lon="9.277054723352194">
<ele>156.6</ele>
<time>2024-05-08T10:42:19Z</time>
</trkpt>
<trkpt lat="49.2580222338438" lon="9.276971742510796">
<ele>156.6</ele>
<time>2024-05-08T10:42:20Z</time>
</trkpt>
<trkpt lat="49.25801083445549" lon="9.276889767497778">
<ele>156.6</ele>
<time>2024-05-08T10:42:21Z</time>
</trkpt>
<trkpt lat="49.257999351248145" lon="9.27680871449411">
<ele>156.6</ele>
<time>2024-05-08T10:42:22Z</time>
</trkpt>
<trkpt lat="49.25798795185983" lon="9.27672665566206">
<ele>156.6</ele>
<time>2024-05-08T10:42:23Z</time>
</trkpt>
<trkpt lat="49.25797646865249" lon="9.276644680649042">
<ele>156.6</ele>
<time>2024-05-08T10:42:24Z</time>
</trkpt>
<trkpt lat="49.25796506926417" lon="9.276561699807644">
<ele>156.6</ele>
<time>2024-05-08T10:42:25Z</time>
</trkpt>
<trkpt lat="49.25795358605683" lon="9.276478718966246">
<ele>156.6</ele>
<time>2024-05-08T10:42:26Z</time>
</trkpt>
<trkpt lat="49.257942186668515" lon="9.276396743953228">
<ele>156.6</ele>
<time>2024-05-08T10:42:27Z</time>
</trkpt>
<trkpt lat="49.25793070346117" lon="9.27631376311183">
<ele>156.8</ele>
<time>2024-05-08T10:42:28Z</time>
</trkpt>
<trkpt lat="49.25792307592928" lon="9.27623363211751">
<ele>156.8</ele>
<time>2024-05-08T10:42:29Z</time>
</trkpt>
<trkpt lat="49.25791167654097" lon="9.27615350112319">
<ele>156.8</ele>
<time>2024-05-08T10:42:30Z</time>
</trkpt>
<trkpt lat="49.2578964214772" lon="9.276071526110172">
<ele>156.8</ele>
<time>2024-05-08T10:42:31Z</time>
</trkpt>
<trkpt lat="49.257884938269854" lon="9.275991395115852">
<ele>156.8</ele>
<time>2024-05-08T10:42:32Z</time>
</trkpt>
<trkpt lat="49.25787731073797" lon="9.275911264121532">
<ele>156.6</ele>
<time>2024-05-08T10:42:33Z</time>
</trkpt>
<trkpt lat="49.25786968320608" lon="9.275830211117864">
<ele>156.6</ele>
<time>2024-05-08T10:42:34Z</time>
</trkpt>
<trkpt lat="49.257858199998736" lon="9.275748236104846">
<ele>156.6</ele>
<time>2024-05-08T10:42:35Z</time>
</trkpt>
<trkpt lat="49.25784680061042" lon="9.275666177272797">
<ele>156.6</ele>
<time>2024-05-08T10:42:36Z</time>
</trkpt>
<trkpt lat="49.25783531740308" lon="9.275585124269128">
<ele>156.6</ele>
<time>2024-05-08T10:42:37Z</time>
</trkpt>
<trkpt lat="49.257823918014765" lon="9.275504993274808">
<ele>156.6</ele>
<time>2024-05-08T10:42:38Z</time>
</trkpt>
<trkpt lat="49.25781243480742" lon="9.27542301826179">
<ele>156.6</ele>
<time>2024-05-08T10:42:39Z</time>
</trkpt>
<trkpt lat="49.25780103541911" lon="9.27534196525812">
<ele>156.6</ele>
<time>2024-05-08T10:42:41Z</time>
</trkpt>
<trkpt lat="49.25777815282345" lon="9.275175081565976">
<ele>156.4</ele>
<time>2024-05-08T10:42:42Z</time>
</trkpt>
<trkpt lat="49.25777052529156" lon="9.275092100724578">
<ele>156.4</ele>
<time>2024-05-08T10:42:43Z</time>
</trkpt>
<trkpt lat="49.25775904208422" lon="9.27500819787383">
<ele>156.4</ele>
<time>2024-05-08T10:42:44Z</time>
</trkpt>
<trkpt lat="49.257747642695904" lon="9.27492706105113">
<ele>156.4</ele>
<time>2024-05-08T10:42:46Z</time>
</trkpt>
<trkpt lat="49.257724760100245" lon="9.274766882881522">
<ele>156.4</ele>
<time>2024-05-08T10:42:47Z</time>
</trkpt>
<trkpt lat="49.2577132768929" lon="9.274686751887202">
<ele>156.4</ele>
<time>2024-05-08T10:42:48Z</time>
</trkpt>
<trkpt lat="49.257701793685555" lon="9.274606704711914">
<ele>156.2</ele>
<time>2024-05-08T10:42:49Z</time>
</trkpt>
<trkpt lat="49.25768653862178" lon="9.27453034557402">
<ele>156.2</ele>
<time>2024-05-08T10:42:50Z</time>
</trkpt>
<trkpt lat="49.257663656026125" lon="9.274453148245811">
<ele>156.2</ele>
<time>2024-05-08T10:42:52Z</time>
</trkpt>
<trkpt lat="49.25761026330292" lon="9.274310069158672">
<ele>156.2</ele>
<time>2024-05-08T10:42:53Z</time>
</trkpt>
<trkpt lat="49.25757598131895" lon="9.274241421371698">
<ele>156.2</ele>
<time>2024-05-08T10:42:54Z</time>
</trkpt>
<trkpt lat="49.25753775984049" lon="9.27418040111661">
<ele>156.2</ele>
<time>2024-05-08T10:42:55Z</time>
</trkpt>
<trkpt lat="49.25749585032463" lon="9.274125080555676">
<ele>156.2</ele>
<time>2024-05-08T10:42:56Z</time>
</trkpt>
<trkpt lat="49.257450085133314" lon="9.274074537679551">
<ele>156.2</ele>
<time>2024-05-08T10:42:58Z</time>
</trkpt>
<trkpt lat="49.25735847093165" lon="9.27398007363081">
<ele>156.2</ele>
<time>2024-05-08T10:42:59Z</time>
</trkpt>
<trkpt lat="49.257308933883905" lon="9.273933386430144">
<ele>156.2</ele>
<time>2024-05-08T10:43:00Z</time>
</trkpt>
<trkpt lat="49.25726316869259" lon="9.273888543248177">
<ele>156.2</ele>
<time>2024-05-08T10:43:01Z</time>
</trkpt>
<trkpt lat="49.25721354782581" lon="9.273841856047513">
<ele>156.4</ele>
<time>2024-05-08T10:43:02Z</time>
</trkpt>
<trkpt lat="49.25716392695904" lon="9.273797012865543">
<ele>156.4</ele>
<time>2024-05-08T10:43:03Z</time>
</trkpt>
<trkpt lat="49.25711816176772" lon="9.273751247674229">
<ele>156.4</ele>
<time>2024-05-08T10:43:04Z</time>
</trkpt>
<trkpt lat="49.257072396576405" lon="9.27370640449226">
<ele>156.4</ele>
<time>2024-05-08T10:43:05Z</time>
</trkpt>
<trkpt lat="49.25702663138509" lon="9.27366348914802">
<ele>156.4</ele>
<time>2024-05-08T10:43:06Z</time>
</trkpt>
<trkpt lat="49.25698086619377" lon="9.273618645966051">
<ele>156.4</ele>
<time>2024-05-08T10:43:08Z</time>
</trkpt>
<trkpt lat="49.256893107667565" lon="9.273516638204455">
<ele>156.4</ele>
<time>2024-05-08T10:43:09Z</time>
</trkpt>
<trkpt lat="49.256858825683594" lon="9.273453690111635">
<ele>156.4</ele>
<time>2024-05-08T10:43:10Z</time>
</trkpt>
<trkpt lat="49.25682823173702" lon="9.273381186649203">
<ele>156.2</ele>
<time>2024-05-08T10:43:11Z</time>
</trkpt>
<trkpt lat="49.256812976673245" lon="9.273300133645536">
<ele>156.2</ele>
<time>2024-05-08T10:43:12Z</time>
</trkpt>
<trkpt lat="49.256793949753046" lon="9.273216230794787">
<ele>156</ele>
<time>2024-05-08T10:43:14Z</time>
</trkpt>
<trkpt lat="49.25677106715739" lon="9.27304834127426">
<ele>156</ele>
<time>2024-05-08T10:43:15Z</time>
</trkpt>
<trkpt lat="49.25675958395004" lon="9.272965360432863">
<ele>156</ele>
<time>2024-05-08T10:43:16Z</time>
</trkpt>
<trkpt lat="49.25674818456173" lon="9.272883385419846">
<ele>156</ele>
<time>2024-05-08T10:43:18Z</time>
</trkpt>
<trkpt lat="49.25673292949796" lon="9.272800404578447">
<ele>156</ele>
<time>2024-05-08T10:43:19Z</time>
</trkpt>
<trkpt lat="49.25670619122684" lon="9.272635448724031">
<ele>156</ele>
<time>2024-05-08T10:43:21Z</time>
</trkpt>
<trkpt lat="49.256675681099296" lon="9.272473258897662">
<ele>156</ele>
<time>2024-05-08T10:43:23Z</time>
</trkpt>
<trkpt lat="49.25664894282818" lon="9.272310230880976">
<ele>155.8</ele>
<time>2024-05-08T10:43:24Z</time>
</trkpt>
<trkpt lat="49.256633687764406" lon="9.272226328030229">
<ele>155.8</ele>
<time>2024-05-08T10:43:25Z</time>
</trkpt>
<trkpt lat="49.256618432700634" lon="9.27214334718883">
<ele>156</ele>
<time>2024-05-08T10:43:26Z</time>
</trkpt>
<trkpt lat="49.25660317763686" lon="9.27206128835678">
<ele>156</ele>
<time>2024-05-08T10:43:27Z</time>
</trkpt>
<trkpt lat="49.25658792257309" lon="9.27198115736246">
<ele>156</ele>
<time>2024-05-08T10:43:28Z</time>
</trkpt>
<trkpt lat="49.256576523184776" lon="9.271903038024902">
<ele>156</ele>
<time>2024-05-08T10:43:29Z</time>
</trkpt>
<trkpt lat="49.25656503997743" lon="9.271824834868312">
<ele>156</ele>
<time>2024-05-08T10:43:30Z</time>
</trkpt>
<trkpt lat="49.25654978491366" lon="9.271743698045611">
<ele>156</ele>
<time>2024-05-08T10:43:31Z</time>
</trkpt>
<trkpt lat="49.25653452984989" lon="9.271664572879672">
<ele>156</ele>
<time>2024-05-08T10:43:32Z</time>
</trkpt>
<trkpt lat="49.256523130461574" lon="9.271588297560813">
<ele>156</ele>
<time>2024-05-08T10:43:33Z</time>
</trkpt>
<trkpt lat="49.25651164725423" lon="9.27151009440422">
<ele>156</ele>
<time>2024-05-08T10:43:35Z</time>
</trkpt>
<trkpt lat="49.256477281451225" lon="9.27135176025331">
<ele>155.8</ele>
<time>2024-05-08T10:43:36Z</time>
</trkpt>
<trkpt lat="49.25646202638745" lon="9.2712745629251">
<ele>155.8</ele>
<time>2024-05-08T10:43:37Z</time>
</trkpt>
<trkpt lat="49.25644677132368" lon="9.27119635976851">
<ele>155.8</ele>
<time>2024-05-08T10:43:39Z</time>
</trkpt>
<trkpt lat="49.256420116871595" lon="9.27103701978922">
<ele>155.8</ele>
<time>2024-05-08T10:43:40Z</time>
</trkpt>
<trkpt lat="49.25640486180782" lon="9.2709550447762">
<ele>155.8</ele>
<time>2024-05-08T10:43:41Z</time>
</trkpt>
<trkpt lat="49.25638960674405" lon="9.27087491378188">
<ele>156</ele>
<time>2024-05-08T10:43:42Z</time>
</trkpt>
<trkpt lat="49.25637435168028" lon="9.270792938768864">
<ele>156</ele>
<time>2024-05-08T10:43:44Z</time>
</trkpt>
<trkpt lat="49.256343841552734" lon="9.270627899095416">
<ele>156</ele>
<time>2024-05-08T10:43:45Z</time>
</trkpt>
<trkpt lat="49.2563247308135" lon="9.270549695938826">
<ele>155.8</ele>
<time>2024-05-08T10:43:46Z</time>
</trkpt>
<trkpt lat="49.25630947574973" lon="9.270468642935157">
<ele>155.8</ele>
<time>2024-05-08T10:43:47Z</time>
</trkpt>
<trkpt lat="49.25629422068596" lon="9.27038666792214">
<ele>155.8</ele>
<time>2024-05-08T10:43:48Z</time>
</trkpt>
<trkpt lat="49.25627896562219" lon="9.27030368708074">
<ele>155.8</ele>
<time>2024-05-08T10:43:49Z</time>
</trkpt>
<trkpt lat="49.256263710558414" lon="9.270219784229994">
<ele>155.8</ele>
<time>2024-05-08T10:43:50Z</time>
</trkpt>
<trkpt lat="49.25625222735107" lon="9.270138731226323">
<ele>155.8</ele>
<time>2024-05-08T10:43:51Z</time>
</trkpt>
<trkpt lat="49.25623320043087" lon="9.270056672394276">
<ele>155.8</ele>
<time>2024-05-08T10:43:52Z</time>
</trkpt>
<trkpt lat="49.256221717223525" lon="9.269976541399956">
<ele>155.8</ele>
<time>2024-05-08T10:43:54Z</time>
</trkpt>
<trkpt lat="49.25618743523955" lon="9.269820135086777">
<ele>155.8</ele>
<time>2024-05-08T10:43:55Z</time>
</trkpt>
<trkpt lat="49.25617595203221" lon="9.269740087911488">
<ele>155.8</ele>
<time>2024-05-08T10:43:56Z</time>
</trkpt>
<trkpt lat="49.25616446882486" lon="9.269662806764243">
<ele>155.8</ele>
<time>2024-05-08T10:43:57Z</time>
</trkpt>
<trkpt lat="49.25615306943655" lon="9.269586531445384">
<ele>156</ele>
<time>2024-05-08T10:43:58Z</time>
</trkpt>
<trkpt lat="49.25613781437278" lon="9.269510256126525">
<ele>156</ele>
<time>2024-05-08T10:43:59Z</time>
</trkpt>
<trkpt lat="49.256122559309006" lon="9.26943490281701">
<ele>156</ele>
<time>2024-05-08T10:44:00Z</time>
</trkpt>
<trkpt lat="49.25611107610166" lon="9.2693595495075">
<ele>156.2</ele>
<time>2024-05-08T10:44:01Z</time>
</trkpt>
<trkpt lat="49.25609582103789" lon="9.269288051873446">
<ele>156.2</ele>
<time>2024-05-08T10:44:02Z</time>
</trkpt>
<trkpt lat="49.25608056597411" lon="9.269214626401665">
<ele>156.2</ele>
<time>2024-05-08T10:44:04Z</time>
</trkpt>
<trkpt lat="49.25605005584657" lon="9.269064841791987">
<ele>156.4</ele>
<time>2024-05-08T10:44:05Z</time>
</trkpt>
<trkpt lat="49.2560348007828" lon="9.268991416320205">
<ele>156.4</ele>
<time>2024-05-08T10:44:06Z</time>
</trkpt>
<trkpt lat="49.25601954571903" lon="9.26892184652388">
<ele>156.2</ele>
<time>2024-05-08T10:44:07Z</time>
</trkpt>
<trkpt lat="49.256004290655255" lon="9.268851270899177">
<ele>156.2</ele>
<time>2024-05-08T10:44:08Z</time>
</trkpt>
<trkpt lat="49.25599280744791" lon="9.268777845427394">
<ele>156</ele>
<time>2024-05-08T10:44:09Z</time>
</trkpt>
<trkpt lat="49.25597755238414" lon="9.26870534196496">
<ele>156</ele>
<time>2024-05-08T10:44:10Z</time>
</trkpt>
<trkpt lat="49.255962297320366" lon="9.268629988655448">
<ele>156</ele>
<time>2024-05-08T10:44:11Z</time>
</trkpt>
<trkpt lat="49.255947042256594" lon="9.268558491021397">
<ele>155.8</ele>
<time>2024-05-08T10:44:12Z</time>
</trkpt>
<trkpt lat="49.25593178719282" lon="9.26848690956831">
<ele>155.8</ele>
<time>2024-05-08T10:44:14Z</time>
</trkpt>
<trkpt lat="49.25588987767696" lon="9.268346764147282">
<ele>155.6</ele>
<time>2024-05-08T10:44:15Z</time>
</trkpt>
<trkpt lat="49.25587076693773" lon="9.268275182694197">
<ele>155.6</ele>
<time>2024-05-08T10:44:16Z</time>
</trkpt>
<trkpt lat="49.25585174001753" lon="9.268201757222414">
<ele>155.6</ele>
<time>2024-05-08T10:44:17Z</time>
</trkpt>
<trkpt lat="49.255828857421875" lon="9.26813118159771">
<ele>155.6</ele>
<time>2024-05-08T10:44:19Z</time>
</trkpt>
<trkpt lat="49.25578300841153" lon="9.268005369231105">
<ele>155.6</ele>
<time>2024-05-08T10:44:20Z</time>
</trkpt>
<trkpt lat="49.25576012581587" lon="9.267943343147635">
<ele>155.6</ele>
<time>2024-05-08T10:44:21Z</time>
</trkpt>
<trkpt lat="49.25573347136378" lon="9.267880395054815">
<ele>155.6</ele>
<time>2024-05-08T10:44:22Z</time>
</trkpt>
<trkpt lat="49.25570296123624" lon="9.267818368971348">
<ele>155.6</ele>
<time>2024-05-08T10:44:24Z</time>
</trkpt>
<trkpt lat="49.255630457773805" lon="9.267700184136627">
<ele>155.6</ele>
<time>2024-05-08T10:44:25Z</time>
</trkpt>
<trkpt lat="49.2555960919708" lon="9.267644863575695">
<ele>155.6</ele>
<time>2024-05-08T10:44:27Z</time>
</trkpt>
<trkpt lat="49.255512189120054" lon="9.26754184998572">
<ele>155.6</ele>
<time>2024-05-08T10:44:28Z</time>
</trkpt>
<trkpt lat="49.25542065873742" lon="9.267448391765356">
<ele>155.6</ele>
<time>2024-05-08T10:44:30Z</time>
</trkpt>
<trkpt lat="49.255374893546104" lon="9.267403548583388">
<ele>155.6</ele>
<time>2024-05-08T10:44:31Z</time>
</trkpt>
<trkpt lat="49.255332900211215" lon="9.26736163906753">
<ele>155.6</ele>
<time>2024-05-08T10:44:32Z</time>
</trkpt>
<trkpt lat="49.25528327934444" lon="9.267325345426798">
<ele>155.6</ele>
<time>2024-05-08T10:44:33Z</time>
</trkpt>
<trkpt lat="49.25524136982858" lon="9.267288129776716">
<ele>155.6</ele>
<time>2024-05-08T10:44:34Z</time>
</trkpt>
<trkpt lat="49.255191748961806" lon="9.267251919955015">
<ele>155.6</ele>
<time>2024-05-08T10:44:35Z</time>
</trkpt>
<trkpt lat="49.25514983944595" lon="9.267214704304934">
<ele>155.8</ele>
<time>2024-05-08T10:44:36Z</time>
</trkpt>
<trkpt lat="49.2551039904356" lon="9.267178494483232">
<ele>155.8</ele>
<time>2024-05-08T10:44:37Z</time>
</trkpt>
<trkpt lat="49.25505822524429" lon="9.26714320667088">
<ele>155.8</ele>
<time>2024-05-08T10:44:38Z</time>
</trkpt>
<trkpt lat="49.255016315728426" lon="9.267109846696258">
<ele>155.8</ele>
<time>2024-05-08T10:44:39Z</time>
</trkpt>
<trkpt lat="49.25497055053711" lon="9.267074558883904">
<ele>155.8</ele>
<time>2024-05-08T10:44:41Z</time>
</trkpt>
<trkpt lat="49.2548827920109" lon="9.267000127583742">
<ele>155.8</ele>
<time>2024-05-08T10:44:42Z</time>
</trkpt>
<trkpt lat="49.25483702681959" lon="9.26696483977139">
<ele>155.8</ele>
<time>2024-05-08T10:44:43Z</time>
</trkpt>
<trkpt lat="49.2547950334847" lon="9.266931479796767">
<ele>156</ele>
<time>2024-05-08T10:44:44Z</time>
</trkpt>
<trkpt lat="49.25475304014981" lon="9.266896191984417">
<ele>156</ele>
<time>2024-05-08T10:44:45Z</time>
</trkpt>
<trkpt lat="49.25471113063395" lon="9.266862832009792">
<ele>156</ele>
<time>2024-05-08T10:44:46Z</time>
</trkpt>
<trkpt lat="49.254665365442634" lon="9.266828466206787">
<ele>156</ele>
<time>2024-05-08T10:44:47Z</time>
</trkpt>
<trkpt lat="49.254623372107744" lon="9.266795106232166">
<ele>156</ele>
<time>2024-05-08T10:44:48Z</time>
</trkpt>
<trkpt lat="49.254581378772855" lon="9.266763674095271">
<ele>156</ele>
<time>2024-05-08T10:44:49Z</time>
</trkpt>
<trkpt lat="49.254543241113424" lon="9.26673023030162">
<ele>156.2</ele>
<time>2024-05-08T10:44:50Z</time>
</trkpt>
<trkpt lat="49.25449747592211" lon="9.266697876155376">
<ele>156.4</ele>
<time>2024-05-08T10:44:51Z</time>
</trkpt>
<trkpt lat="49.25445171073079" lon="9.266663510352371">
<ele>156.4</ele>
<time>2024-05-08T10:44:52Z</time>
</trkpt>
<trkpt lat="49.254405945539474" lon="9.26662822254002">
<ele>156.6</ele>
<time>2024-05-08T10:44:53Z</time>
</trkpt>
<trkpt lat="49.25436018034816" lon="9.266592934727669">
<ele>156.6</ele>
<time>2024-05-08T10:44:54Z</time>
</trkpt>
<trkpt lat="49.25431818701327" lon="9.266559574753046">
<ele>156.8</ele>
<time>2024-05-08T10:44:55Z</time>
</trkpt>
<trkpt lat="49.25426856614649" lon="9.266526214778423">
<ele>156.8</ele>
<time>2024-05-08T10:44:56Z</time>
</trkpt>
<trkpt lat="49.254226656630635" lon="9.26648992113769">
<ele>156.8</ele>
<time>2024-05-08T10:44:57Z</time>
</trkpt>
<trkpt lat="49.25418089143932" lon="9.26645371131599">
<ele>157</ele>
<time>2024-05-08T10:44:58Z</time>
</trkpt>
<trkpt lat="49.254135126248" lon="9.266416495665908">
<ele>157</ele>
<time>2024-05-08T10:44:59Z</time>
</trkpt>
<trkpt lat="49.25408550538123" lon="9.266380285844209">
<ele>157</ele>
<time>2024-05-08T10:45:00Z</time>
</trkpt>
<trkpt lat="49.25403974018991" lon="9.266343070194123">
<ele>157</ele>
<time>2024-05-08T10:45:01Z</time>
</trkpt>
<trkpt lat="49.25399397499859" lon="9.266306860372424">
<ele>157</ele>
<time>2024-05-08T10:45:02Z</time>
</trkpt>
<trkpt lat="49.25394820980728" lon="9.266271572560072">
<ele>157</ele>
<time>2024-05-08T10:45:03Z</time>
</trkpt>
<trkpt lat="49.25390236079693" lon="9.26623527891934">
<ele>157</ele>
<time>2024-05-08T10:45:04Z</time>
</trkpt>
<trkpt lat="49.25385659560561" lon="9.266199991106989">
<ele>157</ele>
<time>2024-05-08T10:45:05Z</time>
</trkpt>
<trkpt lat="49.25380705855787" lon="9.266161853447556">
<ele>157.2</ele>
<time>2024-05-08T10:45:06Z</time>
</trkpt>
<trkpt lat="49.25376120954752" lon="9.266126565635204">
<ele>157.2</ele>
<time>2024-05-08T10:45:07Z</time>
</trkpt>
<trkpt lat="49.2537154443562" lon="9.266090355813503">
<ele>157.2</ele>
<time>2024-05-08T10:45:08Z</time>
</trkpt>
<trkpt lat="49.25366967916489" lon="9.266051212325692">
<ele>157</ele>
<time>2024-05-08T10:45:09Z</time>
</trkpt>
<trkpt lat="49.25362014211714" lon="9.26601693034172">
<ele>157</ele>
<time>2024-05-08T10:45:10Z</time>
</trkpt>
<trkpt lat="49.25357052125037" lon="9.265981642529368">
<ele>157</ele>
<time>2024-05-08T10:45:11Z</time>
</trkpt>
<trkpt lat="49.25352090038359" lon="9.265945432707667">
<ele>157</ele>
<time>2024-05-08T10:45:12Z</time>
</trkpt>
<trkpt lat="49.25347136333585" lon="9.265908217057586">
<ele>157</ele>
<time>2024-05-08T10:45:14Z</time>
</trkpt>
<trkpt lat="49.2533721216023" lon="9.26583956927061">
<ele>157</ele>
<time>2024-05-08T10:45:15Z</time>
</trkpt>
<trkpt lat="49.25332258455455" lon="9.265809981152415">
<ele>157</ele>
<time>2024-05-08T10:45:16Z</time>
</trkpt>
<trkpt lat="49.25327296368778" lon="9.2657813988626">
<ele>156.8</ele>
<time>2024-05-08T10:45:17Z</time>
</trkpt>
<trkpt lat="49.253223342821" lon="9.265753738582134">
<ele>156.6</ele>
<time>2024-05-08T10:45:18Z</time>
</trkpt>
<trkpt lat="49.2531699500978" lon="9.265727000311015">
<ele>156.6</ele>
<time>2024-05-08T10:45:19Z</time>
</trkpt>
<trkpt lat="49.25312418490648" lon="9.265696490183473">
<ele>156.6</ele>
<time>2024-05-08T10:45:20Z</time>
</trkpt>
<trkpt lat="49.25307456403971" lon="9.265666902065275">
<ele>156.6</ele>
<time>2024-05-08T10:45:21Z</time>
</trkpt>
<trkpt lat="49.25302502699196" lon="9.265638319775462">
<ele>156.6</ele>
<time>2024-05-08T10:45:22Z</time>
</trkpt>
<trkpt lat="49.25297163426876" lon="9.265609737485647">
<ele>156.6</ele>
<time>2024-05-08T10:45:23Z</time>
</trkpt>
<trkpt lat="49.252922013401985" lon="9.26558207720518">
<ele>156.6</ele>
<time>2024-05-08T10:45:24Z</time>
</trkpt>
<trkpt lat="49.25287239253521" lon="9.265551567077637">
<ele>156.6</ele>
<time>2024-05-08T10:45:25Z</time>
</trkpt>
<trkpt lat="49.252822855487466" lon="9.26552290096879">
<ele>156.6</ele>
<time>2024-05-08T10:45:26Z</time>
</trkpt>
<trkpt lat="49.25277323462069" lon="9.265495240688324">
<ele>156.6</ele>
<time>2024-05-08T10:45:27Z</time>
</trkpt>
<trkpt lat="49.252723613753915" lon="9.26546473056078">
<ele>156.8</ele>
<time>2024-05-08T10:45:28Z</time>
</trkpt>
<trkpt lat="49.25267407670617" lon="9.265433298423886">
<ele>156.8</ele>
<time>2024-05-08T10:45:29Z</time>
</trkpt>
<trkpt lat="49.252628311514854" lon="9.26540371030569">
<ele>156.8</ele>
<time>2024-05-08T10:45:30Z</time>
</trkpt>
<trkpt lat="49.25257869064808" lon="9.265370350331068">
<ele>156.8</ele>
<time>2024-05-08T10:45:31Z</time>
</trkpt>
<trkpt lat="49.2525290697813" lon="9.265337912365794">
<ele>156.8</ele>
<time>2024-05-08T10:45:32Z</time>
</trkpt>
<trkpt lat="49.25248330458999" lon="9.26530639640987">
<ele>156.8</ele>
<time>2024-05-08T10:45:33Z</time>
</trkpt>
<trkpt lat="49.25243376754224" lon="9.265272114425898">
<ele>156.8</ele>
<time>2024-05-08T10:45:34Z</time>
</trkpt>
<trkpt lat="49.25238414667547" lon="9.265236826613544">
<ele>156.8</ele>
<time>2024-05-08T10:45:35Z</time>
</trkpt>
<trkpt lat="49.25233452580869" lon="9.265203466638924">
<ele>156.8</ele>
<time>2024-05-08T10:45:36Z</time>
</trkpt>
<trkpt lat="49.25228498876095" lon="9.265165328979492">
<ele>156.8</ele>
<time>2024-05-08T10:45:37Z</time>
</trkpt>
<trkpt lat="49.25223922356963" lon="9.26512811332941">
<ele>156.8</ele>
<time>2024-05-08T10:45:38Z</time>
</trkpt>
<trkpt lat="49.252189602702856" lon="9.265091819688678">
<ele>156.8</ele>
<time>2024-05-08T10:45:39Z</time>
</trkpt>
<trkpt lat="49.25213998183608" lon="9.265054687857628">
<ele>156.8</ele>
<time>2024-05-08T10:45:41Z</time>
</trkpt>
<trkpt lat="49.25204845145345" lon="9.264980256557465">
<ele>156.8</ele>
<time>2024-05-08T10:45:42Z</time>
</trkpt>
<trkpt lat="49.25200268626213" lon="9.264941196888683">
<ele>156.8</ele>
<time>2024-05-08T10:45:43Z</time>
</trkpt>
<trkpt lat="49.25196069292724" lon="9.264898281544449">
<ele>156.8</ele>
<time>2024-05-08T10:45:44Z</time>
</trkpt>
<trkpt lat="49.251914927735925" lon="9.264856288209558">
<ele>156.8</ele>
<time>2024-05-08T10:45:45Z</time>
</trkpt>
<trkpt lat="49.25186916254461" lon="9.26481337286532">
<ele>156.8</ele>
<time>2024-05-08T10:45:46Z</time>
</trkpt>
<trkpt lat="49.25182339735329" lon="9.26477137953043">
<ele>156.6</ele>
<time>2024-05-08T10:45:47Z</time>
</trkpt>
<trkpt lat="49.251777632161975" lon="9.264726620167494">
<ele>156.6</ele>
<time>2024-05-08T10:45:49Z</time>
</trkpt>
<trkpt lat="49.25168601796031" lon="9.26463793963194">
<ele>156.4</ele>
<time>2024-05-08T10:45:50Z</time>
</trkpt>
<trkpt lat="49.25164410844445" lon="9.264593096449971">
<ele>156.2</ele>
<time>2024-05-08T10:45:51Z</time>
</trkpt>
<trkpt lat="49.251598343253136" lon="9.264552108943462">
<ele>156.2</ele>
<time>2024-05-08T10:45:52Z</time>
</trkpt>
<trkpt lat="49.251556349918246" lon="9.264510115608571">
<ele>156</ele>
<time>2024-05-08T10:45:53Z</time>
</trkpt>
<trkpt lat="49.25151435658336" lon="9.264470050111411">
<ele>156</ele>
<time>2024-05-08T10:45:54Z</time>
</trkpt>
<trkpt lat="49.2514724470675" lon="9.264431912451982">
<ele>156</ele>
<time>2024-05-08T10:45:55Z</time>
</trkpt>
<trkpt lat="49.25143045373261" lon="9.2643946968019">
<ele>156</ele>
<time>2024-05-08T10:45:56Z</time>
</trkpt>
<trkpt lat="49.25138854421675" lon="9.2643584869802">
<ele>156</ele>
<time>2024-05-08T10:45:57Z</time>
</trkpt>
<trkpt lat="49.2513426952064" lon="9.264323199167848">
<ele>156</ele>
<time>2024-05-08T10:45:59Z</time>
</trkpt>
<trkpt lat="49.25129693001509" lon="9.264286989346148">
<ele>156</ele>
<time>2024-05-08T10:46:00Z</time>
</trkpt>
<trkpt lat="49.25120925530791" lon="9.264206858351828">
<ele>156</ele>
<time>2024-05-08T10:46:01Z</time>
</trkpt>
<trkpt lat="49.251163406297565" lon="9.264169642701743">
<ele>156</ele>
<time>2024-05-08T10:46:02Z</time>
</trkpt>
<trkpt lat="49.25111386924982" lon="9.264131505042316">
<ele>156.2</ele>
<time>2024-05-08T10:46:03Z</time>
</trkpt>
<trkpt lat="49.251068104058504" lon="9.264093367382884">
<ele>156.2</ele>
<time>2024-05-08T10:46:04Z</time>
</trkpt>
<trkpt lat="49.251026110723615" lon="9.264051374047996">
<ele>156.2</ele>
<time>2024-05-08T10:46:06Z</time>
</trkpt>
<trkpt lat="49.25093835219741" lon="9.2639665491879">
<ele>156.2</ele>
<time>2024-05-08T10:46:07Z</time>
</trkpt>
<trkpt lat="49.25089258700609" lon="9.26392648369074">
<ele>156.2</ele>
<time>2024-05-08T10:46:08Z</time>
</trkpt>
<trkpt lat="49.250846821814775" lon="9.26388449035585">
<ele>156</ele>
<time>2024-05-08T10:46:09Z</time>
</trkpt>
<trkpt lat="49.250804828479886" lon="9.26384350284934">
<ele>156</ele>
<time>2024-05-08T10:46:10Z</time>
</trkpt>
<trkpt lat="49.25075906328857" lon="9.263801509514453">
<ele>156</ele>
<time>2024-05-08T10:46:11Z</time>
</trkpt>
<trkpt lat="49.25071329809725" lon="9.263761444017293">
<ele>156</ele>
<time>2024-05-08T10:46:12Z</time>
</trkpt>
<trkpt lat="49.25067130476236" lon="9.263718528673053">
<ele>155.8</ele>
<time>2024-05-08T10:46:13Z</time>
</trkpt>
<trkpt lat="49.250629395246506" lon="9.263674691319466">
<ele>155.8</ele>
<time>2024-05-08T10:46:14Z</time>
</trkpt>
<trkpt lat="49.25058363005519" lon="9.263631775975227">
<ele>155.8</ele>
<time>2024-05-08T10:46:15Z</time>
</trkpt>
<trkpt lat="49.2505416367203" lon="9.26358693279326">
<ele>155.6</ele>
<time>2024-05-08T10:46:16Z</time>
</trkpt>
<trkpt lat="49.25049964338541" lon="9.263540245592594">
<ele>155.6</ele>
<time>2024-05-08T10:46:17Z</time>
</trkpt>
<trkpt lat="49.250453878194094" lon="9.263495402410626">
<ele>155.6</ele>
<time>2024-05-08T10:46:19Z</time>
</trkpt>
<trkpt lat="49.25036620348692" lon="9.263400016352534">
<ele>155.6</ele>
<time>2024-05-08T10:46:20Z</time>
</trkpt>
<trkpt lat="49.25032421015203" lon="9.263353329151869">
<ele>155.4</ele>
<time>2024-05-08T10:46:21Z</time>
</trkpt>
<trkpt lat="49.25028221681714" lon="9.263304630294442">
<ele>155.4</ele>
<time>2024-05-08T10:46:23Z</time>
</trkpt>
<trkpt lat="49.25024030730128" lon="9.263259870931506">
<ele>155.4</ele>
<time>2024-05-08T10:46:24Z</time>
</trkpt>
<trkpt lat="49.25015254877508" lon="9.263174962252378">
<ele>155.2</ele>
<time>2024-05-08T10:46:25Z</time>
</trkpt>
<trkpt lat="49.25010678358376" lon="9.26313204690814">
<ele>155.2</ele>
<time>2024-05-08T10:46:26Z</time>
</trkpt>
<trkpt lat="49.25006479024887" lon="9.263086281716824">
<ele>155</ele>
<time>2024-05-08T10:46:27Z</time>
</trkpt>
<trkpt lat="49.250019025057554" lon="9.263045294210317">
<ele>155</ele>
<time>2024-05-08T10:46:29Z</time>
</trkpt>
<trkpt lat="49.24993126653135" lon="9.262961307540536">
<ele>154.8</ele>
<time>2024-05-08T10:46:30Z</time>
</trkpt>
<trkpt lat="49.24988550134003" lon="9.262921325862408">
<ele>154.8</ele>
<time>2024-05-08T10:46:31Z</time>
</trkpt>
<trkpt lat="49.249839736148715" lon="9.262880254536867">
<ele>155</ele>
<time>2024-05-08T10:46:32Z</time>
</trkpt>
<trkpt lat="49.2497939709574" lon="9.262843122705815">
<ele>155</ele>
<time>2024-05-08T10:46:33Z</time>
</trkpt>
<trkpt lat="49.24974820576608" lon="9.262804985046388">
<ele>155</ele>
<time>2024-05-08T10:46:34Z</time>
</trkpt>
<trkpt lat="49.24970621243119" lon="9.262766763567924">
<ele>155</ele>
<time>2024-05-08T10:46:35Z</time>
</trkpt>
<trkpt lat="49.24966044723987" lon="9.262729631736876">
<ele>155</ele>
<time>2024-05-08T10:46:36Z</time>
</trkpt>
<trkpt lat="49.24961468204856" lon="9.262695265933871">
<ele>155.2</ele>
<time>2024-05-08T10:46:37Z</time>
</trkpt>
<trkpt lat="49.24956891685724" lon="9.26265805028379">
<ele>155.2</ele>
<time>2024-05-08T10:46:38Z</time>
</trkpt>
<trkpt lat="49.249523151665926" lon="9.26261798478663">
<ele>155.2</ele>
<time>2024-05-08T10:46:39Z</time>
</trkpt>
<trkpt lat="49.24947738647461" lon="9.2625780031085">
<ele>155.2</ele>
<time>2024-05-08T10:46:40Z</time>
</trkpt>
<trkpt lat="49.24943153746426" lon="9.26253793761134">
<ele>155.2</ele>
<time>2024-05-08T10:46:42Z</time>
</trkpt>
<trkpt lat="49.24934000708163" lon="9.262454956769943">
<ele>155.2</ele>
<time>2024-05-08T10:46:43Z</time>
</trkpt>
<trkpt lat="49.24929038621485" lon="9.262414891272783">
<ele>155.2</ele>
<time>2024-05-08T10:46:44Z</time>
</trkpt>
<trkpt lat="49.24924084916711" lon="9.262372897937894">
<ele>155.2</ele>
<time>2024-05-08T10:46:45Z</time>
</trkpt>
<trkpt lat="49.24919508397579" lon="9.262329982593656">
<ele>155.2</ele>
<time>2024-05-08T10:46:46Z</time>
</trkpt>
<trkpt lat="49.24914169125259" lon="9.262287067249416">
<ele>155.2</ele>
<time>2024-05-08T10:46:47Z</time>
</trkpt>
<trkpt lat="49.249092070385814" lon="9.2622413020581">
<ele>155.2</ele>
<time>2024-05-08T10:46:48Z</time>
</trkpt>
<trkpt lat="49.24904244951904" lon="9.262194614857435">
<ele>155.4</ele>
<time>2024-05-08T10:46:49Z</time>
</trkpt>
<trkpt lat="49.248992912471294" lon="9.262149771675467">
<ele>155.4</ele>
<time>2024-05-08T10:46:50Z</time>
</trkpt>
<trkpt lat="49.24893943592906" lon="9.26210300065577">
<ele>155.4</ele>
<time>2024-05-08T10:46:52Z</time>
</trkpt>
<trkpt lat="49.24884027801454" lon="9.262011470273135">
<ele>155.2</ele>
<time>2024-05-08T10:46:53Z</time>
</trkpt>
<trkpt lat="49.248794512823224" lon="9.261964783072472">
<ele>155.2</ele>
<time>2024-05-08T10:46:54Z</time>
</trkpt>
<trkpt lat="49.24874874763191" lon="9.261918012052774">
<ele>155</ele>
<time>2024-05-08T10:46:55Z</time>
</trkpt>
<trkpt lat="49.24869912676513" lon="9.261873168870808">
<ele>155</ele>
<time>2024-05-08T10:46:56Z</time>
</trkpt>
<trkpt lat="49.248653361573815" lon="9.261830253526568">
<ele>154.8</ele>
<time>2024-05-08T10:46:58Z</time>
</trkpt>
<trkpt lat="49.24855797551572" lon="9.261745428666472">
<ele>154.6</ele>
<time>2024-05-08T10:46:59Z</time>
</trkpt>
<trkpt lat="49.24850843846798" lon="9.261703435331585">
<ele>154.6</ele>
<time>2024-05-08T10:47:00Z</time>
</trkpt>
<trkpt lat="49.24845504574478" lon="9.261665297672153">
<ele>154.6</ele>
<time>2024-05-08T10:47:01Z</time>
</trkpt>
<trkpt lat="49.248405424878" lon="9.261626238003371">
<ele>154.4</ele>
<time>2024-05-08T10:47:02Z</time>
</trkpt>
<trkpt lat="49.248355804011226" lon="9.261587094515562">
<ele>154.4</ele>
<time>2024-05-08T10:47:04Z</time>
</trkpt>
<trkpt lat="49.248256646096706" lon="9.26151174120605">
<ele>154.4</ele>
<time>2024-05-08T10:47:05Z</time>
</trkpt>
<trkpt lat="49.24820702522993" lon="9.261476453393698">
<ele>154.4</ele>
<time>2024-05-08T10:47:06Z</time>
</trkpt>
<trkpt lat="49.24815748818219" lon="9.261441165581346">
<ele>154.4</ele>
<time>2024-05-08T10:47:07Z</time>
</trkpt>
<trkpt lat="49.24810786731541" lon="9.261406883597374">
<ele>154.4</ele>
<time>2024-05-08T10:47:08Z</time>
</trkpt>
<trkpt lat="49.24805824644864" lon="9.261369667947292">
<ele>154.4</ele>
<time>2024-05-08T10:47:09Z</time>
</trkpt>
<trkpt lat="49.24800870940089" lon="9.261333458125591">
<ele>154.4</ele>
<time>2024-05-08T10:47:10Z</time>
</trkpt>
<trkpt lat="49.24795908853412" lon="9.26129817031324">
<ele>154.4</ele>
<time>2024-05-08T10:47:11Z</time>
</trkpt>
<trkpt lat="49.24790946766734" lon="9.261261876672506">
<ele>154.4</ele>
<time>2024-05-08T10:47:12Z</time>
</trkpt>
<trkpt lat="49.2478599306196" lon="9.261224744841456">
<ele>154.4</ele>
<time>2024-05-08T10:47:13Z</time>
</trkpt>
<trkpt lat="49.247806537896395" lon="9.261190379038451">
<ele>154.2</ele>
<time>2024-05-08T10:47:14Z</time>
</trkpt>
<trkpt lat="49.24775691702962" lon="9.2611550912261">
<ele>154.2</ele>
<time>2024-05-08T10:47:15Z</time>
</trkpt>
<trkpt lat="49.24770352430642" lon="9.261121731251478">
<ele>154.2</ele>
<time>2024-05-08T10:47:16Z</time>
</trkpt>
<trkpt lat="49.24765390343964" lon="9.261088371276855">
<ele>154.2</ele>
<time>2024-05-08T10:47:17Z</time>
</trkpt>
<trkpt lat="49.24760051071644" lon="9.2610549274832">
<ele>154.2</ele>
<time>2024-05-08T10:47:19Z</time>
</trkpt>
<trkpt lat="49.24749372527003" lon="9.26099482923746">
<ele>154.2</ele>
<time>2024-05-08T10:47:20Z</time>
</trkpt>
<trkpt lat="49.24744033254683" lon="9.260965324938295">
<ele>154.2</ele>
<time>2024-05-08T10:47:21Z</time>
</trkpt>
<trkpt lat="49.24738685600459" lon="9.260934814810753">
<ele>154.2</ele>
<time>2024-05-08T10:47:22Z</time>
</trkpt>
<trkpt lat="49.24733346328139" lon="9.260905226692556">
<ele>154.2</ele>
<time>2024-05-08T10:47:23Z</time>
</trkpt>
<trkpt lat="49.247234305366874" lon="9.260847978293896">
<ele>154.2</ele>
<time>2024-05-08T10:47:25Z</time>
</trkpt>
<trkpt lat="49.2471846845001" lon="9.26082031801343">
<ele>154.4</ele>
<time>2024-05-08T10:47:26Z</time>
</trkpt>
<trkpt lat="49.247135147452354" lon="9.260791735723616">
<ele>154.4</ele>
<time>2024-05-08T10:47:28Z</time>
</trkpt>
<trkpt lat="49.2470359057188" lon="9.26074027083814">
<ele>154.2</ele>
<time>2024-05-08T10:47:29Z</time>
</trkpt>
<trkpt lat="49.24698636867106" lon="9.260713532567024">
<ele>154.2</ele>
<time>2024-05-08T10:47:30Z</time>
</trkpt>
<trkpt lat="49.24693674780429" lon="9.260686794295909">
<ele>154.2</ele>
<time>2024-05-08T10:47:31Z</time>
</trkpt>
<trkpt lat="49.24689098261297" lon="9.260655362159014">
<ele>154.2</ele>
<time>2024-05-08T10:47:32Z</time>
</trkpt>
<trkpt lat="49.24684136174619" lon="9.26062485203147">
<ele>154</ele>
<time>2024-05-08T10:47:33Z</time>
</trkpt>
<trkpt lat="49.24679182469845" lon="9.260598113760352">
<ele>154</ele>
<time>2024-05-08T10:47:34Z</time>
</trkpt>
<trkpt lat="49.246738431975245" lon="9.260568609461188">
<ele>154</ele>
<time>2024-05-08T10:47:35Z</time>
</trkpt>
<trkpt lat="49.24668881110847" lon="9.260541871190073">
<ele>154</ele>
<time>2024-05-08T10:47:37Z</time>
</trkpt>
<trkpt lat="49.246582025662065" lon="9.260491328313949">
<ele>154</ele>
<time>2024-05-08T10:47:39Z</time>
</trkpt>
<trkpt lat="49.246479012072086" lon="9.26044464111328">
<ele>154.2</ele>
<time>2024-05-08T10:47:40Z</time>
</trkpt>
<trkpt lat="49.24642561934888" lon="9.2604246083647">
<ele>154.2</ele>
<time>2024-05-08T10:47:41Z</time>
</trkpt>
<trkpt lat="49.24637599848211" lon="9.260408347472548">
<ele>154.4</ele>
<time>2024-05-08T10:47:42Z</time>
</trkpt>
<trkpt lat="49.246322605758905" lon="9.260390242561698">
<ele>154.4</ele>
<time>2024-05-08T10:47:43Z</time>
</trkpt>
<trkpt lat="49.24627298489213" lon="9.260371131822469">
<ele>154.6</ele>
<time>2024-05-08T10:47:44Z</time>
</trkpt>
<trkpt lat="49.24621959216893" lon="9.260353026911616">
<ele>154.6</ele>
<time>2024-05-08T10:47:45Z</time>
</trkpt>
<trkpt lat="49.246166199445724" lon="9.260332994163036">
<ele>154.8</ele>
<time>2024-05-08T10:47:46Z</time>
</trkpt>
<trkpt lat="49.24611280672252" lon="9.260314889252186">
<ele>154.8</ele>
<time>2024-05-08T10:47:47Z</time>
</trkpt>
<trkpt lat="49.24605941399932" lon="9.260298712179065">
<ele>154.8</ele>
<time>2024-05-08T10:47:49Z</time>
</trkpt>
<trkpt lat="49.245948772877455" lon="9.26026526838541">
<ele>154.8</ele>
<time>2024-05-08T10:47:50Z</time>
</trkpt>
<trkpt lat="49.24589152447879" lon="9.26024816930294">
<ele>155</ele>
<time>2024-05-08T10:47:51Z</time>
</trkpt>
<trkpt lat="49.24583813175559" lon="9.260231908410788">
<ele>155</ele>
<time>2024-05-08T10:47:53Z</time>
</trkpt>
<trkpt lat="49.245727490633726" lon="9.260191842913628">
<ele>155</ele>
<time>2024-05-08T10:47:54Z</time>
</trkpt>
<trkpt lat="49.245670242235065" lon="9.26016996614635">
<ele>155</ele>
<time>2024-05-08T10:47:55Z</time>
</trkpt>
<trkpt lat="49.24561684951186" lon="9.26014993339777">
<ele>155</ele>
<time>2024-05-08T10:47:56Z</time>
</trkpt>
<trkpt lat="49.24556345678866" lon="9.26012797281146">
<ele>155</ele>
<time>2024-05-08T10:47:57Z</time>
</trkpt>
<trkpt lat="49.24550620839" lon="9.260103162378073">
<ele>155</ele>
<time>2024-05-08T10:47:58Z</time>
</trkpt>
<trkpt lat="49.245452815666795" lon="9.260080279782414">
<ele>155</ele>
<time>2024-05-08T10:47:59Z</time>
</trkpt>
<trkpt lat="49.24539942294359" lon="9.260053625330327">
<ele>155</ele>
<time>2024-05-08T10:48:00Z</time>
</trkpt>
<trkpt lat="49.24534603022039" lon="9.26002973690629">
<ele>155</ele>
<time>2024-05-08T10:48:01Z</time>
</trkpt>
<trkpt lat="49.24529263749719" lon="9.260006854310632">
<ele>155</ele>
<time>2024-05-08T10:48:02Z</time>
</trkpt>
<trkpt lat="49.245239244773984" lon="9.259984893724322">
<ele>155</ele>
<time>2024-05-08T10:48:03Z</time>
</trkpt>
<trkpt lat="49.24518962390721" lon="9.259962011128664">
<ele>155</ele>
<time>2024-05-08T10:48:05Z</time>
</trkpt>
<trkpt lat="49.245136231184006" lon="9.259940134361386">
<ele>155</ele>
<time>2024-05-08T10:48:06Z</time>
</trkpt>
<trkpt lat="49.24503321759403" lon="9.259896213188767">
<ele>155</ele>
<time>2024-05-08T10:48:07Z</time>
</trkpt>
<trkpt lat="49.244979824870825" lon="9.259876180440187">
<ele>155</ele>
<time>2024-05-08T10:48:08Z</time>
</trkpt>
<trkpt lat="49.24493020400405" lon="9.259858075529335">
<ele>155</ele>
<time>2024-05-08T10:48:09Z</time>
</trkpt>
<trkpt lat="49.244880666956306" lon="9.259839970618486">
<ele>155</ele>
<time>2024-05-08T10:48:10Z</time>
</trkpt>
<trkpt lat="49.24482719041407" lon="9.259821865707636">
<ele>155</ele>
<time>2024-05-08T10:48:11Z</time>
</trkpt>
<trkpt lat="49.24477379769087" lon="9.259803760796784">
<ele>155</ele>
<time>2024-05-08T10:48:12Z</time>
</trkpt>
<trkpt lat="49.244720404967666" lon="9.259783728048204">
<ele>155.2</ele>
<time>2024-05-08T10:48:14Z</time>
</trkpt>
<trkpt lat="49.24461361952126" lon="9.259750284254553">
<ele>155.4</ele>
<time>2024-05-08T10:48:15Z</time>
</trkpt>
<trkpt lat="49.244563998654485" lon="9.25973502919078">
<ele>155.4</ele>
<time>2024-05-08T10:48:16Z</time>
</trkpt>
<trkpt lat="49.24451446160674" lon="9.259717930108309">
<ele>155.6</ele>
<time>2024-05-08T10:48:18Z</time>
</trkpt>
<trkpt lat="49.24441521987319" lon="9.259679792448878">
<ele>155.8</ele>
<time>2024-05-08T10:48:19Z</time>
</trkpt>
<trkpt lat="49.24436945468187" lon="9.259661603718996">
<ele>155.8</ele>
<time>2024-05-08T10:48:20Z</time>
</trkpt>
<trkpt lat="49.2443198338151" lon="9.259645426645877">
<ele>155.8</ele>
<time>2024-05-08T10:48:21Z</time>
</trkpt>
<trkpt lat="49.244270296767354" lon="9.259626315906644">
<ele>155.8</ele>
<time>2024-05-08T10:48:22Z</time>
</trkpt>
<trkpt lat="49.24422453157604" lon="9.259610138833525">
<ele>155.8</ele>
<time>2024-05-08T10:48:24Z</time>
</trkpt>
<trkpt lat="49.24417876638472" lon="9.259592033922672">
<ele>155.6</ele>
<time>2024-05-08T10:48:25Z</time>
</trkpt>
<trkpt lat="49.244087152183056" lon="9.259548112750052">
<ele>155.4</ele>
<time>2024-05-08T10:48:26Z</time>
</trkpt>
<trkpt lat="49.24404138699174" lon="9.25951668061316">
<ele>155.4</ele>
<time>2024-05-08T10:48:27Z</time>
</trkpt>
<trkpt lat="49.24400324933231" lon="9.25947468727827">
<ele>155.4</ele>
<time>2024-05-08T10:48:28Z</time>
</trkpt>
<trkpt lat="49.243968883529305" lon="9.259423222392796">
<ele>155.4</ele>
<time>2024-05-08T10:48:29Z</time>
</trkpt>
<trkpt lat="49.24393837340176" lon="9.259367901831864">
<ele>155.4</ele>
<time>2024-05-08T10:48:31Z</time>
</trkpt>
<trkpt lat="49.24387735314667" lon="9.25924301147461">
<ele>155.2</ele>
<time>2024-05-08T10:48:32Z</time>
</trkpt>
<trkpt lat="49.24384684301913" lon="9.259178135544062">
<ele>155.2</ele>
<time>2024-05-08T10:48:33Z</time>
</trkpt>
<trkpt lat="49.24381633289158" lon="9.259115187451243">
<ele>155.2</ele>
<time>2024-05-08T10:48:34Z</time>
</trkpt>
<trkpt lat="49.24378196708858" lon="9.259057939052582">
<ele>155.2</ele>
<time>2024-05-08T10:48:35Z</time>
</trkpt>
<trkpt lat="49.24374005757272" lon="9.259008402004838">
<ele>155</ele>
<time>2024-05-08T10:48:36Z</time>
</trkpt>
<trkpt lat="49.24369806423783" lon="9.258966408669949">
<ele>155</ele>
<time>2024-05-08T10:48:37Z</time>
</trkpt>
<trkpt lat="49.243656154721975" lon="9.258934892714024">
<ele>155.2</ele>
<time>2024-05-08T10:48:39Z</time>
</trkpt>
<trkpt lat="49.24361030571163" lon="9.258914943784475">
<ele>155</ele>
<time>2024-05-08T10:48:40Z</time>
</trkpt>
<trkpt lat="49.24356839619577" lon="9.2589015327394">
<ele>155</ele>
<time>2024-05-08T10:48:41Z</time>
</trkpt>
<trkpt lat="49.24352263100445" lon="9.258894911035895">
<ele>155</ele>
<time>2024-05-08T10:48:42Z</time>
</trkpt>
<trkpt lat="49.243476865813136" lon="9.258891977369784">
<ele>155</ele>
<time>2024-05-08T10:48:43Z</time>
</trkpt>
<trkpt lat="49.24338910728693" lon="9.258890133351088">
<ele>155.2</ele>
<time>2024-05-08T10:48:44Z</time>
</trkpt>
<trkpt lat="49.24334711395204" lon="9.258888205513358">
<ele>155.2</ele>
<time>2024-05-08T10:48:45Z</time>
</trkpt>
<trkpt lat="49.24330520443618" lon="9.25888342782855">
<ele>155.2</ele>
<time>2024-05-08T10:48:46Z</time>
</trkpt>
<trkpt lat="49.24326698295772" lon="9.25888149999082">
<ele>155.2</ele>
<time>2024-05-08T10:48:48Z</time>
</trkpt>
<trkpt lat="49.24319456331432" lon="9.25888342782855">
<ele>155.2</ele>
<time>2024-05-08T10:48:49Z</time>
</trkpt>
<trkpt lat="49.243160197511315" lon="9.258878650143744">
<ele>155.4</ele>
<time>2024-05-08T10:48:50Z</time>
</trkpt>
<trkpt lat="49.243125915527344" lon="9.25886146724224">
<ele>155.4</ele>
<time>2024-05-08T10:48:52Z</time>
</trkpt>
<trkpt lat="49.24306481145322" lon="9.258796675130723">
<ele>155.6</ele>
<time>2024-05-08T10:48:53Z</time>
</trkpt>
<trkpt lat="49.24303815700114" lon="9.258756609633563">
<ele>155.6</ele>
<time>2024-05-08T10:48:54Z</time>
</trkpt>
<trkpt lat="49.243003791198134" lon="9.258716544136403">
<ele>155.8</ele>
<time>2024-05-08T10:48:55Z</time>
</trkpt>
<trkpt lat="49.24297328107059" lon="9.258674550801516">
<ele>156</ele>
<time>2024-05-08T10:48:56Z</time>
</trkpt>
<trkpt lat="49.24294654279947" lon="9.258633563295009">
<ele>156</ele>
<time>2024-05-08T10:48:58Z</time>
</trkpt>
<trkpt lat="49.24288937821984" lon="9.258551588281987">
<ele>156.2</ele>
<time>2024-05-08T10:48:59Z</time>
</trkpt>
<trkpt lat="49.2428588680923" lon="9.2585095949471">
<ele>156.2</ele>
<time>2024-05-08T10:49:00Z</time>
</trkpt>
<trkpt lat="49.242828357964754" lon="9.25846952944994">
<ele>156.2</ele>
<time>2024-05-08T10:49:01Z</time>
</trkpt>
<trkpt lat="49.24280161969364" lon="9.258428541943433">
<ele>156.4</ele>
<time>2024-05-08T10:49:02Z</time>
</trkpt>
<trkpt lat="49.24277110956609" lon="9.258388476446273">
<ele>156.4</ele>
<time>2024-05-08T10:49:03Z</time>
</trkpt>
<trkpt lat="49.24273674376309" lon="9.258343633264303">
<ele>156.4</ele>
<time>2024-05-08T10:49:04Z</time>
</trkpt>
<trkpt lat="49.24271008931101" lon="9.258297868072988">
<ele>156.4</ele>
<time>2024-05-08T10:49:05Z</time>
</trkpt>
<trkpt lat="49.242675723508" lon="9.25825118087232">
<ele>156.4</ele>
<time>2024-05-08T10:49:07Z</time>
</trkpt>
<trkpt lat="49.24261855892837" lon="9.258165350183845">
<ele>156.6</ele>
<time>2024-05-08T10:49:09Z</time>
</trkpt>
<trkpt lat="49.24255368299782" lon="9.258063258603215">
<ele>156.6</ele>
<time>2024-05-08T10:49:11Z</time>
</trkpt>
<trkpt lat="49.24249643459916" lon="9.257960245013235">
<ele>156.8</ele>
<time>2024-05-08T10:49:12Z</time>
</trkpt>
<trkpt lat="49.24246592447162" lon="9.25791447982192">
<ele>157</ele>
<time>2024-05-08T10:49:13Z</time>
</trkpt>
<trkpt lat="49.24243155866861" lon="9.257869720458984">
<ele>157</ele>
<time>2024-05-08T10:49:14Z</time>
</trkpt>
<trkpt lat="49.24239727668464" lon="9.257822027429938">
<ele>157.2</ele>
<time>2024-05-08T10:49:15Z</time>
</trkpt>
<trkpt lat="49.24236291088164" lon="9.257773328572512">
<ele>157.2</ele>
<time>2024-05-08T10:49:16Z</time>
</trkpt>
<trkpt lat="49.24232862889767" lon="9.257722785696387">
<ele>157.2</ele>
<time>2024-05-08T10:49:17Z</time>
</trkpt>
<trkpt lat="49.242294263094664" lon="9.25767509266734">
<ele>157.4</ele>
<time>2024-05-08T10:49:19Z</time>
</trkpt>
<trkpt lat="49.24225989729166" lon="9.257623627781868">
<ele>157.4</ele>
<time>2024-05-08T10:49:20Z</time>
</trkpt>
<trkpt lat="49.242195105180144" lon="9.257525391876698">
<ele>157.4</ele>
<time>2024-05-08T10:49:21Z</time>
</trkpt>
<trkpt lat="49.2421645950526" lon="9.257474849000571">
<ele>157.4</ele>
<time>2024-05-08T10:49:23Z</time>
</trkpt>
<trkpt lat="49.242092091590166" lon="9.25737946294248">
<ele>157.2</ele>
<time>2024-05-08T10:49:24Z</time>
</trkpt>
<trkpt lat="49.24205772578716" lon="9.257333697751164">
<ele>157.2</ele>
<time>2024-05-08T10:49:25Z</time>
</trkpt>
<trkpt lat="49.24202344380319" lon="9.2572870105505">
<ele>157.2</ele>
<time>2024-05-08T10:49:26Z</time>
</trkpt>
<trkpt lat="49.24198530614376" lon="9.257238311693072">
<ele>157</ele>
<time>2024-05-08T10:49:27Z</time>
</trkpt>
<trkpt lat="49.241954796016216" lon="9.257191624492409">
<ele>157</ele>
<time>2024-05-08T10:49:28Z</time>
</trkpt>
<trkpt lat="49.24192043021321" lon="9.257140159606934">
<ele>156.8</ele>
<time>2024-05-08T10:49:29Z</time>
</trkpt>
<trkpt lat="49.24188606441021" lon="9.2570866830647">
<ele>156.8</ele>
<time>2024-05-08T10:49:31Z</time>
</trkpt>
<trkpt lat="49.24181364476681" lon="9.256981825456023">
<ele>156.6</ele>
<time>2024-05-08T10:49:32Z</time>
</trkpt>
<trkpt lat="49.24177165143192" lon="9.256935054436326">
<ele>156.6</ele>
<time>2024-05-08T10:49:33Z</time>
</trkpt>
<trkpt lat="49.24173351377249" lon="9.256884511560202">
<ele>156.6</ele>
<time>2024-05-08T10:49:35Z</time>
</trkpt>
<trkpt lat="49.24169914796949" lon="9.256834974512458">
<ele>156.6</ele>
<time>2024-05-08T10:49:36Z</time>
</trkpt>
<trkpt lat="49.24166486598551" lon="9.256785353645682">
<ele>156.6</ele>
<time>2024-05-08T10:49:37Z</time>
</trkpt>
<trkpt lat="49.241599990054965" lon="9.256696673110127">
<ele>156.6</ele>
<time>2024-05-08T10:49:39Z</time>
</trkpt>
<trkpt lat="49.24153511412442" lon="9.256605142727494">
<ele>156.8</ele>
<time>2024-05-08T10:49:40Z</time>
</trkpt>
<trkpt lat="49.24149697646499" lon="9.25655459985137">
<ele>157</ele>
<time>2024-05-08T10:49:42Z</time>
</trkpt>
<trkpt lat="49.241420701146126" lon="9.25645351409912">
<ele>157</ele>
<time>2024-05-08T10:49:44Z</time>
</trkpt>
<trkpt lat="49.24135205335915" lon="9.25635527819395">
<ele>157.2</ele>
<time>2024-05-08T10:49:46Z</time>
</trkpt>
<trkpt lat="49.24129103310406" lon="9.256257964298127">
<ele>157.4</ele>
<time>2024-05-08T10:49:47Z</time>
</trkpt>
<trkpt lat="49.24126052297652" lon="9.256211277097464">
<ele>157.6</ele>
<time>2024-05-08T10:49:48Z</time>
</trkpt>
<trkpt lat="49.24122992902994" lon="9.256163584068418">
<ele>157.6</ele>
<time>2024-05-08T10:49:49Z</time>
</trkpt>
<trkpt lat="49.24119564704597" lon="9.256114885210993">
<ele>157.6</ele>
<time>2024-05-08T10:49:50Z</time>
</trkpt>
<trkpt lat="49.241165136918426" lon="9.256066270172596">
<ele>157.6</ele>
<time>2024-05-08T10:49:52Z</time>
</trkpt>
<trkpt lat="49.24109648913145" lon="9.255968034267426">
<ele>157.4</ele>
<time>2024-05-08T10:49:54Z</time>
</trkpt>
<trkpt lat="49.24106212332845" lon="9.255918497219682">
<ele>157.4</ele>
<time>2024-05-08T10:49:55Z</time>
</trkpt>
<trkpt lat="49.24100110307336" lon="9.255818333476782">
<ele>157.2</ele>
<time>2024-05-08T10:49:56Z</time>
</trkpt>
<trkpt lat="49.240970592945814" lon="9.255766868591309">
<ele>157.2</ele>
<time>2024-05-08T10:49:57Z</time>
</trkpt>
<trkpt lat="49.24094008281827" lon="9.255713392049074">
<ele>157</ele>
<time>2024-05-08T10:49:58Z</time>
</trkpt>
<trkpt lat="49.240909572690725" lon="9.255659999325871">
<ele>157</ele>
<time>2024-05-08T10:49:59Z</time>
</trkpt>
<trkpt lat="49.24087897874415" lon="9.25560375675559">
<ele>157</ele>
<time>2024-05-08T10:50:01Z</time>
</trkpt>
<trkpt lat="49.24082181416452" lon="9.255486410111187">
<ele>156.8</ele>
<time>2024-05-08T10:50:02Z</time>
</trkpt>
<trkpt lat="49.240791304036975" lon="9.255428239703178">
<ele>156.8</ele>
<time>2024-05-08T10:50:03Z</time>
</trkpt>
<trkpt lat="49.24076456576586" lon="9.25536822527647">
<ele>156.8</ele>
<time>2024-05-08T10:50:05Z</time>
</trkpt>
<trkpt lat="49.24071494489908" lon="9.25525188446045">
<ele>156.8</ele>
<time>2024-05-08T10:50:06Z</time>
</trkpt>
<trkpt lat="49.240688290447" lon="9.25519178621471">
<ele>156.8</ele>
<time>2024-05-08T10:50:07Z</time>
</trkpt>
<trkpt lat="49.24066155217588" lon="9.25513168796897">
<ele>156.8</ele>
<time>2024-05-08T10:50:08Z</time>
</trkpt>
<trkpt lat="49.24063866958022" lon="9.2550696618855">
<ele>156.8</ele>
<time>2024-05-08T10:50:09Z</time>
</trkpt>
<trkpt lat="49.24061578698456" lon="9.25501149147749">
<ele>156.8</ele>
<time>2024-05-08T10:50:10Z</time>
</trkpt>
<trkpt lat="49.24059676006436" lon="9.25495332106948">
<ele>156.8</ele>
<time>2024-05-08T10:50:11Z</time>
</trkpt>
<trkpt lat="49.240570021793246" lon="9.254895150661469">
<ele>156.8</ele>
<time>2024-05-08T10:50:12Z</time>
</trkpt>
<trkpt lat="49.24055099487305" lon="9.254835052415729">
<ele>157</ele>
<time>2024-05-08T10:50:14Z</time>
</trkpt>
<trkpt lat="49.24052802845836" lon="9.254773110151293">
<ele>157</ele>
<time>2024-05-08T10:50:15Z</time>
</trkpt>
<trkpt lat="49.24047849141061" lon="9.25465484149754">
<ele>157.2</ele>
<time>2024-05-08T10:50:16Z</time>
</trkpt>
<trkpt lat="49.240451753139496" lon="9.254591893404722">
<ele>157.2</ele>
<time>2024-05-08T10:50:17Z</time>
</trkpt>
<trkpt lat="49.24042509868741" lon="9.254531795158982">
<ele>157.2</ele>
<time>2024-05-08T10:50:19Z</time>
</trkpt>
<trkpt lat="49.240371622145176" lon="9.254413526505232">
<ele>157.2</ele>
<time>2024-05-08T10:50:20Z</time>
</trkpt>
<trkpt lat="49.24034873954952" lon="9.25435535609722">
<ele>157.2</ele>
<time>2024-05-08T10:50:21Z</time>
</trkpt>
<trkpt lat="49.24032585695386" lon="9.254296263679862">
<ele>157.2</ele>
<time>2024-05-08T10:50:23Z</time>
</trkpt>
<trkpt lat="49.2403029743582" lon="9.254235243424771">
<ele>157.2</ele>
<time>2024-05-08T10:50:24Z</time>
</trkpt>
<trkpt lat="49.24028009176254" lon="9.254171289503574">
<ele>157.2</ele>
<time>2024-05-08T10:50:25Z</time>
</trkpt>
<trkpt lat="49.2402305547148" lon="9.254046399146318">
<ele>157.2</ele>
<time>2024-05-08T10:50:26Z</time>
</trkpt>
<trkpt lat="49.24020767211914" lon="9.25398537889123">
<ele>157.2</ele>
<time>2024-05-08T10:50:27Z</time>
</trkpt>
<trkpt lat="49.24018470570445" lon="9.25392335280776">
<ele>157.2</ele>
<time>2024-05-08T10:50:28Z</time>
</trkpt>
<trkpt lat="49.240158051252365" lon="9.253861410543324">
<ele>157.2</ele>
<time>2024-05-08T10:50:29Z</time>
</trkpt>
<trkpt lat="49.24013516865671" lon="9.253800390288234">
<ele>157.2</ele>
<time>2024-05-08T10:50:30Z</time>
</trkpt>
<trkpt lat="49.24010843038559" lon="9.253741214051844">
<ele>157.2</ele>
<time>2024-05-08T10:50:31Z</time>
</trkpt>
<trkpt lat="49.240081775933504" lon="9.253681115806105">
<ele>157</ele>
<time>2024-05-08T10:50:32Z</time>
</trkpt>
<trkpt lat="49.240058893337846" lon="9.253622945398092">
<ele>157</ele>
<time>2024-05-08T10:50:34Z</time>
</trkpt>
<trkpt lat="49.24000541679561" lon="9.25351138226688">
<ele>157</ele>
<time>2024-05-08T10:50:35Z</time>
</trkpt>
<trkpt lat="49.23998253419995" lon="9.253457989543676">
<ele>157</ele>
<time>2024-05-08T10:50:36Z</time>
</trkpt>
<trkpt lat="49.23995587974787" lon="9.253406524658203">
<ele>157</ele>
<time>2024-05-08T10:50:37Z</time>
</trkpt>
<trkpt lat="49.23993299715221" lon="9.253354975953698">
<ele>156.8</ele>
<time>2024-05-08T10:50:39Z</time>
</trkpt>
<trkpt lat="49.23991011455655" lon="9.253305355086924">
<ele>156.8</ele>
<time>2024-05-08T10:50:40Z</time>
</trkpt>
<trkpt lat="49.23988723196089" lon="9.253254812210798">
<ele>156.6</ele>
<time>2024-05-08T10:50:41Z</time>
</trkpt>
<trkpt lat="49.239841382950544" lon="9.253163281828163">
<ele>156.4</ele>
<time>2024-05-08T10:50:42Z</time>
</trkpt>
<trkpt lat="49.239818500354886" lon="9.2531165946275">
<ele>156.2</ele>
<time>2024-05-08T10:50:44Z</time>
</trkpt>
<trkpt lat="49.23977659083903" lon="9.253023136407135">
<ele>156</ele>
<time>2024-05-08T10:50:46Z</time>
</trkpt>
<trkpt lat="49.23974985256791" lon="9.25297829322517">
<ele>156</ele>
<time>2024-05-08T10:50:47Z</time>
</trkpt>
<trkpt lat="49.23973082564771" lon="9.252935377880933">
<ele>156</ele>
<time>2024-05-08T10:50:48Z</time>
</trkpt>
<trkpt lat="49.23968883231282" lon="9.252829514443874">
<ele>155.8</ele>
<time>2024-05-08T10:50:49Z</time>
</trkpt>
<trkpt lat="49.23967357724905" lon="9.252770422026517">
<ele>155.8</ele>
<time>2024-05-08T10:50:51Z</time>
</trkpt>
<trkpt lat="49.23965832218528" lon="9.252710323780777">
<ele>155.8</ele>
<time>2024-05-08T10:50:52Z</time>
</trkpt>
<trkpt lat="49.239643067121506" lon="9.252648297697306">
<ele>155.8</ele>
<time>2024-05-08T10:50:53Z</time>
</trkpt>
<trkpt lat="49.2396087013185" lon="9.252530029043555">
<ele>155.8</ele>
<time>2024-05-08T10:50:54Z</time>
</trkpt>
<trkpt lat="49.23959344625473" lon="9.252471858635545">
<ele>155.8</ele>
<time>2024-05-08T10:50:56Z</time>
</trkpt>
<trkpt lat="49.23957441933453" lon="9.252414694055917">
<ele>155.8</ele>
<time>2024-05-08T10:50:57Z</time>
</trkpt>
<trkpt lat="49.239543909206986" lon="9.252301203086972">
<ele>155.8</ele>
<time>2024-05-08T10:50:59Z</time>
</trkpt>
<trkpt lat="49.23951331526041" lon="9.252178156748414">
<ele>155.8</ele>
<time>2024-05-08T10:51:01Z</time>
</trkpt>
<trkpt lat="49.239486660808325" lon="9.252061815932391">
<ele>155.8</ele>
<time>2024-05-08T10:51:03Z</time>
</trkpt>
<trkpt lat="49.239448523148894" lon="9.251951174810529">
<ele>156</ele>
<time>2024-05-08T10:51:04Z</time>
</trkpt>
<trkpt lat="49.23943326808512" lon="9.251893004402518">
<ele>156</ele>
<time>2024-05-08T10:51:05Z</time>
</trkpt>
<trkpt lat="49.23941801302135" lon="9.251834833994508">
<ele>156</ele>
<time>2024-05-08T10:51:06Z</time>
</trkpt>
<trkpt lat="49.23940275795758" lon="9.251779513433576">
<ele>156</ele>
<time>2024-05-08T10:51:07Z</time>
</trkpt>
<trkpt lat="49.239387502893806" lon="9.25173182040453">
<ele>155.8</ele>
<time>2024-05-08T10:51:09Z</time>
</trkpt>
<trkpt lat="49.23936462029815" lon="9.251658394932749">
<ele>155.6</ele>
<time>2024-05-08T10:51:10Z</time>
</trkpt>
<trkpt lat="49.2393531370908" lon="9.25163165666163">
<ele>155.6</ele>
<time>2024-05-08T10:51:12Z</time>
</trkpt>
<trkpt lat="49.23933402635157" lon="9.251600224524736">
<ele>155.4</ele>
<time>2024-05-08T10:51:14Z</time>
</trkpt>
<trkpt lat="49.239330254495144" lon="9.251586897298694">
<ele>155.2</ele>
<time>2024-05-08T10:51:15Z</time>
</trkpt>
<trkpt lat="49.239326398819685" lon="9.251569714397192">
<ele>155.2</ele>
<time>2024-05-08T10:51:16Z</time>
</trkpt>
<trkpt lat="49.239326398819685" lon="9.251566864550114">
<ele>155.2</ele>
<time>2024-05-08T10:51:17Z</time>
</trkpt>
<trkpt lat="49.239330254495144" lon="9.251562086865306">
<ele>155</ele>
<time>2024-05-08T10:51:18Z</time>
</trkpt>
<trkpt lat="49.239330254495144" lon="9.25155345350504">
<ele>155</ele>
<time>2024-05-08T10:51:19Z</time>
</trkpt>
<trkpt lat="49.239330254495144" lon="9.251529648900032">
<ele>154.8</ele>
<time>2024-05-08T10:51:21Z</time>
</trkpt>
<trkpt lat="49.239326398819685" lon="9.251473406329753">
<ele>154.8</ele>
<time>2024-05-08T10:51:22Z</time>
</trkpt>
<trkpt lat="49.239326398819685" lon="9.25143619067967">
<ele>154.6</ele>
<time>2024-05-08T10:51:24Z</time>
</trkpt>
<trkpt lat="49.239326398819685" lon="9.251399980857968">
<ele>154.6</ele>
<time>2024-05-08T10:51:25Z</time>
</trkpt>
<trkpt lat="49.239330254495144" lon="9.251331249251962">
<ele>154.4</ele>
<time>2024-05-08T10:51:27Z</time>
</trkpt>
<trkpt lat="49.23931499943137" lon="9.251266457140446">
<ele>154.4</ele>
<time>2024-05-08T10:51:29Z</time>
</trkpt>
<trkpt lat="49.23931114375591" lon="9.251205436885355">
<ele>154.4</ele>
<time>2024-05-08T10:51:30Z</time>
</trkpt>
<trkpt lat="49.239307371899486" lon="9.251174926757813">
<ele>154.4</ele>
<time>2024-05-08T10:51:31Z</time>
</trkpt>
<trkpt lat="49.23930351622403" lon="9.251143410801888">
<ele>154.4</ele>
<time>2024-05-08T10:51:33Z</time>
</trkpt>
<trkpt lat="49.2392997443676" lon="9.251083312556148">
<ele>154.4</ele>
<time>2024-05-08T10:51:34Z</time>
</trkpt>
<trkpt lat="49.23929588869214" lon="9.251052802428603">
<ele>154.4</ele>
<time>2024-05-08T10:51:35Z</time>
</trkpt>
<trkpt lat="49.23929588869214" lon="9.251025142148135">
<ele>154.2</ele>
<time>2024-05-08T10:51:37Z</time>
</trkpt>
<trkpt lat="49.239288261160254" lon="9.250993710011244">
<ele>154.2</ele>
<time>2024-05-08T10:51:38Z</time>
</trkpt>
<trkpt lat="49.239288261160254" lon="9.2509631998837">
<ele>154.2</ele>
<time>2024-05-08T10:51:39Z</time>
</trkpt>
<trkpt lat="49.23928063362837" lon="9.250898323953152">
<ele>154.2</ele>
<time>2024-05-08T10:51:40Z</time>
</trkpt>
<trkpt lat="49.23927686177194" lon="9.2508630361408">
<ele>154.2</ele>
<time>2024-05-08T10:51:41Z</time>
</trkpt>
<trkpt lat="49.23927686177194" lon="9.250828670337796">
<ele>154.2</ele>
<time>2024-05-08T10:51:43Z</time>
</trkpt>
<trkpt lat="49.23927300609648" lon="9.250793382525444">
<ele>154.2</ele>
<time>2024-05-08T10:51:44Z</time>
</trkpt>
<trkpt lat="49.23925775103271" lon="9.250709479674695">
<ele>154.2</ele>
<time>2024-05-08T10:51:45Z</time>
</trkpt>
<trkpt lat="49.23924249596894" lon="9.25066371448338">
<ele>154.2</ele>
<time>2024-05-08T10:51:47Z</time>
</trkpt>
<trkpt lat="49.239231096580625" lon="9.25056640058756">
<ele>154.2</ele>
<time>2024-05-08T10:51:49Z</time>
</trkpt>
<trkpt lat="49.23921961337328" lon="9.25046824850142">
<ele>154</ele>
<time>2024-05-08T10:51:50Z</time>
</trkpt>
<trkpt lat="49.23921198584139" lon="9.250423405319452">
<ele>154</ele>
<time>2024-05-08T10:51:51Z</time>
</trkpt>
<trkpt lat="49.23920058645308" lon="9.250378562137485">
<ele>154</ele>
<time>2024-05-08T10:51:52Z</time>
</trkpt>
<trkpt lat="49.23919673077762" lon="9.250333718955517">
<ele>154</ele>
<time>2024-05-08T10:51:53Z</time>
</trkpt>
<trkpt lat="49.239189103245735" lon="9.2502879537642">
<ele>154</ele>
<time>2024-05-08T10:51:55Z</time>
</trkpt>
<trkpt lat="49.23917770385742" lon="9.25019164569676">
<ele>154</ele>
<time>2024-05-08T10:51:57Z</time>
</trkpt>
<trkpt lat="49.23917384818196" lon="9.25014873035252">
<ele>154.2</ele>
<time>2024-05-08T10:51:58Z</time>
</trkpt>
<trkpt lat="49.23916622065008" lon="9.250060049816966">
<ele>154.2</ele>
<time>2024-05-08T10:52:00Z</time>
</trkpt>
<trkpt lat="49.23916622065008" lon="9.25001621246338">
<ele>154.2</ele>
<time>2024-05-08T10:52:01Z</time>
</trkpt>
<trkpt lat="49.23915473744273" lon="9.249919820576906">
<ele>154.4</ele>
<time>2024-05-08T10:52:02Z</time>
</trkpt>
<trkpt lat="49.239150965586305" lon="9.24987313337624">
<ele>154.4</ele>
<time>2024-05-08T10:52:04Z</time>
</trkpt>
<trkpt lat="49.23913948237896" lon="9.24977296963334">
<ele>154.2</ele>
<time>2024-05-08T10:52:05Z</time>
</trkpt>
<trkpt lat="49.23913571052253" lon="9.249730054289104">
<ele>154.2</ele>
<time>2024-05-08T10:52:06Z</time>
</trkpt>
<trkpt lat="49.23913571052253" lon="9.249681439250708">
<ele>154.2</ele>
<time>2024-05-08T10:52:08Z</time>
</trkpt>
<trkpt lat="49.239128082990646" lon="9.249587059020996">
<ele>154.4</ele>
<time>2024-05-08T10:52:10Z</time>
</trkpt>
<trkpt lat="49.239128082990646" lon="9.2495402880013">
<ele>154.4</ele>
<time>2024-05-08T10:52:11Z</time>
</trkpt>
<trkpt lat="49.239128082990646" lon="9.249491672962904">
<ele>154.4</ele>
<time>2024-05-08T10:52:12Z</time>
</trkpt>
<trkpt lat="49.239128082990646" lon="9.2494401242584">
<ele>154.4</ele>
<time>2024-05-08T10:52:13Z</time>
</trkpt>
<trkpt lat="49.239128082990646" lon="9.249329566955566">
<ele>154.2</ele>
<time>2024-05-08T10:52:15Z</time>
</trkpt>
<trkpt lat="49.239128082990646" lon="9.249275168403983">
<ele>154.2</ele>
<time>2024-05-08T10:52:16Z</time>
</trkpt>
<trkpt lat="49.23912045545876" lon="9.24916452728212">
<ele>154.2</ele>
<time>2024-05-08T10:52:17Z</time>
</trkpt>
<trkpt lat="49.2391165997833" lon="9.24910543486476">
<ele>154.2</ele>
<time>2024-05-08T10:52:18Z</time>
</trkpt>
<trkpt lat="49.239112827926874" lon="9.249046258628368">
<ele>154</ele>
<time>2024-05-08T10:52:19Z</time>
</trkpt>
<trkpt lat="49.239108972251415" lon="9.24898331053555">
<ele>154</ele>
<time>2024-05-08T10:52:20Z</time>
</trkpt>
<trkpt lat="49.23910134471953" lon="9.248918518424034">
<ele>154</ele>
<time>2024-05-08T10:52:21Z</time>
</trkpt>
<trkpt lat="49.23909371718764" lon="9.248853642493486">
<ele>154</ele>
<time>2024-05-08T10:52:22Z</time>
</trkpt>
<trkpt lat="49.239089945331216" lon="9.24878784455359">
<ele>154</ele>
<time>2024-05-08T10:52:23Z</time>
</trkpt>
<trkpt lat="49.23908231779933" lon="9.248722046613691">
<ele>154</ele>
<time>2024-05-08T10:52:24Z</time>
</trkpt>
<trkpt lat="49.23907469026744" lon="9.248656248673797">
<ele>154</ele>
<time>2024-05-08T10:52:25Z</time>
</trkpt>
<trkpt lat="49.239070834591985" lon="9.248591372743247">
<ele>154</ele>
<time>2024-05-08T10:52:26Z</time>
</trkpt>
<trkpt lat="49.2390632070601" lon="9.24852842465043">
<ele>154</ele>
<time>2024-05-08T10:52:27Z</time>
</trkpt>
<trkpt lat="49.23905943520367" lon="9.248464554548264">
<ele>153.8</ele>
<time>2024-05-08T10:52:29Z</time>
</trkpt>
<trkpt lat="49.239047951996326" lon="9.248339580371976">
<ele>153.8</ele>
<time>2024-05-08T10:52:30Z</time>
</trkpt>
<trkpt lat="49.23903655260801" lon="9.24827286042273">
<ele>153.8</ele>
<time>2024-05-08T10:52:32Z</time>
</trkpt>
<trkpt lat="49.23902506940067" lon="9.24813648685813">
<ele>153.8</ele>
<time>2024-05-08T10:52:33Z</time>
</trkpt>
<trkpt lat="49.23901744186878" lon="9.248067839071156">
<ele>153.8</ele>
<time>2024-05-08T10:52:34Z</time>
</trkpt>
<trkpt lat="49.23900604248047" lon="9.248002041131258">
<ele>153.8</ele>
<time>2024-05-08T10:52:35Z</time>
</trkpt>
<trkpt lat="49.23899833112955" lon="9.247933309525251">
<ele>153.8</ele>
<time>2024-05-08T10:52:36Z</time>
</trkpt>
<trkpt lat="49.23898307606578" lon="9.247866589576006">
<ele>153.8</ele>
<time>2024-05-08T10:52:37Z</time>
</trkpt>
<trkpt lat="49.238971676677465" lon="9.24779986962676">
<ele>154</ele>
<time>2024-05-08T10:52:39Z</time>
</trkpt>
<trkpt lat="49.23894493840635" lon="9.247672967612743">
<ele>154</ele>
<time>2024-05-08T10:52:41Z</time>
</trkpt>
<trkpt lat="49.23892591148615" lon="9.247611947357656">
<ele>154</ele>
<time>2024-05-08T10:52:42Z</time>
</trkpt>
<trkpt lat="49.23888391815126" lon="9.247494684532285">
<ele>154</ele>
<time>2024-05-08T10:52:43Z</time>
</trkpt>
<trkpt lat="49.23886489123106" lon="9.247438358142972">
<ele>154</ele>
<time>2024-05-08T10:52:44Z</time>
</trkpt>
<trkpt lat="49.23883815295994" lon="9.247381193563342">
<ele>153.8</ele>
<time>2024-05-08T10:52:46Z</time>
</trkpt>
<trkpt lat="49.23879615962505" lon="9.24726485274732">
<ele>153.6</ele>
<time>2024-05-08T10:52:48Z</time>
</trkpt>
<trkpt lat="49.238773277029395" lon="9.247208526358008">
<ele>153.6</ele>
<time>2024-05-08T10:52:49Z</time>
</trkpt>
<trkpt lat="49.23875039443374" lon="9.2471485119313">
<ele>153.4</ele>
<time>2024-05-08T10:52:50Z</time>
</trkpt>
<trkpt lat="49.238735139369965" lon="9.24708841368556">
<ele>153.4</ele>
<time>2024-05-08T10:52:51Z</time>
</trkpt>
<trkpt lat="49.23869322985411" lon="9.246965367347002">
<ele>153.2</ele>
<time>2024-05-08T10:52:52Z</time>
</trkpt>
<trkpt lat="49.238677974790335" lon="9.246903341263533">
<ele>153.2</ele>
<time>2024-05-08T10:52:54Z</time>
</trkpt>
<trkpt lat="49.23864738084376" lon="9.246781300753357">
<ele>153.4</ele>
<time>2024-05-08T10:52:56Z</time>
</trkpt>
<trkpt lat="49.23861309885979" lon="9.246663032099605">
<ele>153.4</ele>
<time>2024-05-08T10:52:57Z</time>
</trkpt>
<trkpt lat="49.238597843796015" lon="9.246606789529324">
<ele>153.6</ele>
<time>2024-05-08T10:52:59Z</time>
</trkpt>
<trkpt lat="49.23856347799301" lon="9.246488520875571">
<ele>153.6</ele>
<time>2024-05-08T10:53:00Z</time>
</trkpt>
<trkpt lat="49.23854059539735" lon="9.246431272476912">
<ele>153.8</ele>
<time>2024-05-08T10:53:02Z</time>
</trkpt>
<trkpt lat="49.23851008526981" lon="9.246384585276246">
<ele>153.8</ele>
<time>2024-05-08T10:53:03Z</time>
</trkpt>
<trkpt lat="49.23847194761038" lon="9.246351225301623">
<ele>153.8</ele>
<time>2024-05-08T10:53:04Z</time>
</trkpt>
<trkpt lat="49.23842618241906" lon="9.246330186724665">
<ele>153.8</ele>
<time>2024-05-08T10:53:05Z</time>
</trkpt>
<trkpt lat="49.238380417227745" lon="9.246313087642193">
<ele>153.8</ele>
<time>2024-05-08T10:53:06Z</time>
</trkpt>
<trkpt lat="49.23828880302608" lon="9.246286349371076">
<ele>153.8</ele>
<time>2024-05-08T10:53:07Z</time>
</trkpt>
<trkpt lat="49.23824689351022" lon="9.24627872183919">
<ele>153.8</ele>
<time>2024-05-08T10:53:08Z</time>
</trkpt>
<trkpt lat="49.23820490017533" lon="9.246273022145033">
<ele>153.8</ele>
<time>2024-05-08T10:53:09Z</time>
</trkpt>
<trkpt lat="49.238162990659475" lon="9.246259611099958">
<ele>153.8</ele>
<time>2024-05-08T10:53:10Z</time>
</trkpt>
<trkpt lat="49.23812476918101" lon="9.246246283873916">
<ele>153.8</ele>
<time>2024-05-08T10:53:12Z</time>
</trkpt>
<trkpt lat="49.2380599770695" lon="9.246191969141364">
<ele>153.6</ele>
<time>2024-05-08T10:53:14Z</time>
</trkpt>
<trkpt lat="49.23803709447384" lon="9.246094655245544">
<ele>153.8</ele>
<time>2024-05-08T10:53:16Z</time>
</trkpt>
<trkpt lat="49.23803323879838" lon="9.246034556999804">
<ele>153.8</ele>
<time>2024-05-08T10:53:17Z</time>
</trkpt>
<trkpt lat="49.23803709447384" lon="9.245974458754064">
<ele>153.8</ele>
<time>2024-05-08T10:53:18Z</time>
</trkpt>
<trkpt lat="49.23803709447384" lon="9.245909666642548">
<ele>154</ele>
<time>2024-05-08T10:53:19Z</time>
</trkpt>
<trkpt lat="49.23803323879838" lon="9.24584194086492">
<ele>154</ele>
<time>2024-05-08T10:53:20Z</time>
</trkpt>
<trkpt lat="49.23803323879838" lon="9.245773293077946">
<ele>154.2</ele>
<time>2024-05-08T10:53:21Z</time>
</trkpt>
<trkpt lat="49.23803323879838" lon="9.245706489309669">
<ele>154.2</ele>
<time>2024-05-08T10:53:22Z</time>
</trkpt>
<trkpt lat="49.23802946694195" lon="9.245576821267605">
<ele>154.4</ele>
<time>2024-05-08T10:53:23Z</time>
</trkpt>
<trkpt lat="49.23802946694195" lon="9.245516723021863">
<ele>154.6</ele>
<time>2024-05-08T10:53:24Z</time>
</trkpt>
<trkpt lat="49.238025611266494" lon="9.245454780757427">
<ele>154.8</ele>
<time>2024-05-08T10:53:26Z</time>
</trkpt>
<trkpt lat="49.238025611266494" lon="9.245393676683308">
<ele>155</ele>
<time>2024-05-08T10:53:27Z</time>
</trkpt>
<trkpt lat="49.23802946694195" lon="9.245267864316702">
<ele>155.2</ele>
<time>2024-05-08T10:53:28Z</time>
</trkpt>
<trkpt lat="49.23802946694195" lon="9.245202988386154">
<ele>155.4</ele>
<time>2024-05-08T10:53:30Z</time>
</trkpt>
<trkpt lat="49.238025611266494" lon="9.245136184617875">
<ele>155.4</ele>
<time>2024-05-08T10:53:31Z</time>
</trkpt>
<trkpt lat="49.238025611266494" lon="9.24507038667798">
<ele>155.6</ele>
<time>2024-05-08T10:53:32Z</time>
</trkpt>
<trkpt lat="49.238025611266494" lon="9.244946418330072">
<ele>155.8</ele>
<time>2024-05-08T10:53:34Z</time>
</trkpt>
<trkpt lat="49.238025611266494" lon="9.244892103597522">
<ele>156</ele>
<time>2024-05-08T10:53:35Z</time>
</trkpt>
<trkpt lat="49.238025611266494" lon="9.244843404740095">
<ele>156.2</ele>
<time>2024-05-08T10:53:36Z</time>
</trkpt>
<trkpt lat="49.23802946694195" lon="9.24479286186397">
<ele>156.2</ele>
<time>2024-05-08T10:53:37Z</time>
</trkpt>
<trkpt lat="49.23803323879838" lon="9.244681298732758">
<ele>156.4</ele>
<time>2024-05-08T10:53:38Z</time>
</trkpt>
<trkpt lat="49.23803323879838" lon="9.244626984000206">
<ele>156.4</ele>
<time>2024-05-08T10:53:40Z</time>
</trkpt>
<trkpt lat="49.238044722005725" lon="9.244511565193534">
<ele>156.4</ele>
<time>2024-05-08T10:53:41Z</time>
</trkpt>
<trkpt lat="49.23805234953761" lon="9.244449539110065">
<ele>156.6</ele>
<time>2024-05-08T10:53:43Z</time>
</trkpt>
<trkpt lat="49.23805612139404" lon="9.244386591017246">
<ele>156.6</ele>
<time>2024-05-08T10:53:44Z</time>
</trkpt>
<trkpt lat="49.23807137645781" lon="9.24425977282226">
<ele>156.4</ele>
<time>2024-05-08T10:53:45Z</time>
</trkpt>
<trkpt lat="49.23807523213327" lon="9.244196824729444">
<ele>156.4</ele>
<time>2024-05-08T10:53:47Z</time>
</trkpt>
<trkpt lat="49.23809048719704" lon="9.244074784219263">
<ele>156.2</ele>
<time>2024-05-08T10:53:49Z</time>
</trkpt>
<trkpt lat="49.23810951411724" lon="9.24396514892578">
<ele>156.2</ele>
<time>2024-05-08T10:53:50Z</time>
</trkpt>
<trkpt lat="49.23811714164913" lon="9.24390790052712">
<ele>156.2</ele>
<time>2024-05-08T10:53:51Z</time>
</trkpt>
<trkpt lat="49.23812476918101" lon="9.243854507803915">
<ele>156.2</ele>
<time>2024-05-08T10:53:52Z</time>
</trkpt>
<trkpt lat="49.2381323967129" lon="9.243802959099412">
<ele>156.2</ele>
<time>2024-05-08T10:53:54Z</time>
</trkpt>
<trkpt lat="49.23814387992024" lon="9.243695251643658">
<ele>156.4</ele>
<time>2024-05-08T10:53:55Z</time>
</trkpt>
<trkpt lat="49.23815150745213" lon="9.243638003244996">
<ele>156.4</ele>
<time>2024-05-08T10:53:57Z</time>
</trkpt>
<trkpt lat="49.2381667625159" lon="9.243575055152178">
<ele>156.4</ele>
<time>2024-05-08T10:53:58Z</time>
</trkpt>
<trkpt lat="49.23817824572325" lon="9.243514956906438">
<ele>156.6</ele>
<time>2024-05-08T10:53:59Z</time>
</trkpt>
<trkpt lat="49.238201128318906" lon="9.24339191056788">
<ele>156.6</ele>
<time>2024-05-08T10:54:00Z</time>
</trkpt>
<trkpt lat="49.23821252770722" lon="9.243328040465713">
<ele>156.6</ele>
<time>2024-05-08T10:54:01Z</time>
</trkpt>
<trkpt lat="49.23822778277099" lon="9.243269870057702">
<ele>156.8</ele>
<time>2024-05-08T10:54:03Z</time>
</trkpt>
<trkpt lat="49.238239265978336" lon="9.243207927793264">
<ele>156.8</ele>
<time>2024-05-08T10:54:04Z</time>
</trkpt>
<trkpt lat="49.23826592043042" lon="9.24309343099594">
<ele>156.8</ele>
<time>2024-05-08T10:54:06Z</time>
</trkpt>
<trkpt lat="49.23828880302608" lon="9.242991423234344">
<ele>156.8</ele>
<time>2024-05-08T10:54:07Z</time>
</trkpt>
<trkpt lat="49.238296430557966" lon="9.242943730205296">
<ele>156.8</ele>
<time>2024-05-08T10:54:08Z</time>
</trkpt>
<trkpt lat="49.23831168562174" lon="9.24289796501398">
<ele>156.8</ele>
<time>2024-05-08T10:54:09Z</time>
</trkpt>
<trkpt lat="49.23832316882908" lon="9.242856977507472">
<ele>156.8</ele>
<time>2024-05-08T10:54:10Z</time>
</trkpt>
<trkpt lat="49.23833465203643" lon="9.242813056334851">
<ele>156.8</ele>
<time>2024-05-08T10:54:11Z</time>
</trkpt>
<trkpt lat="49.23834605142474" lon="9.24276351928711">
<ele>156.8</ele>
<time>2024-05-08T10:54:13Z</time>
</trkpt>
<trkpt lat="49.23835753463209" lon="9.242708198726175">
<ele>156.8</ele>
<time>2024-05-08T10:54:14Z</time>
</trkpt>
<trkpt lat="49.23838418908417" lon="9.242596551775932">
<ele>156.6</ele>
<time>2024-05-08T10:54:15Z</time>
</trkpt>
<trkpt lat="49.23839567229152" lon="9.24254315905273">
<ele>156.6</ele>
<time>2024-05-08T10:54:16Z</time>
</trkpt>
<trkpt lat="49.23841092735529" lon="9.242493622004986">
<ele>156.6</ele>
<time>2024-05-08T10:54:17Z</time>
</trkpt>
<trkpt lat="49.2384223267436" lon="9.24244307912886">
<ele>156.6</ele>
<time>2024-05-08T10:54:18Z</time>
</trkpt>
<trkpt lat="49.23843380995095" lon="9.242393458262086">
<ele>156.6</ele>
<time>2024-05-08T10:54:19Z</time>
</trkpt>
<trkpt lat="49.23844520933926" lon="9.242344843223693">
<ele>156.6</ele>
<time>2024-05-08T10:54:20Z</time>
</trkpt>
<trkpt lat="49.23846046440303" lon="9.242298072203994">
<ele>156.4</ele>
<time>2024-05-08T10:54:21Z</time>
</trkpt>
<trkpt lat="49.238475719466805" lon="9.242251385003328">
<ele>156.4</ele>
<time>2024-05-08T10:54:23Z</time>
</trkpt>
<trkpt lat="49.23849105834961" lon="9.242203691974282">
<ele>156.4</ele>
<time>2024-05-08T10:54:24Z</time>
</trkpt>
<trkpt lat="49.23852534033358" lon="9.242101600393651">
<ele>156.6</ele>
<time>2024-05-08T10:54:25Z</time>
</trkpt>
<trkpt lat="49.23854445107281" lon="9.24205013550818">
<ele>156.6</ele>
<time>2024-05-08T10:54:26Z</time>
</trkpt>
<trkpt lat="49.23856347799301" lon="9.241996742784975">
<ele>156.6</ele>
<time>2024-05-08T10:54:27Z</time>
</trkpt>
<trkpt lat="49.238578733056784" lon="9.241938572376966">
<ele>156.6</ele>
<time>2024-05-08T10:54:29Z</time>
</trkpt>
<trkpt lat="49.238616870716214" lon="9.24183363094926">
<ele>156.6</ele>
<time>2024-05-08T10:54:30Z</time>
</trkpt>
<trkpt lat="49.23863975331187" lon="9.241780238226056">
<ele>156.6</ele>
<time>2024-05-08T10:54:32Z</time>
</trkpt>
<trkpt lat="49.23867411911488" lon="9.24167345277965">
<ele>156.6</ele>
<time>2024-05-08T10:54:33Z</time>
</trkpt>
<trkpt lat="49.23869322985411" lon="9.241620060056448">
<ele>156.6</ele>
<time>2024-05-08T10:54:34Z</time>
</trkpt>
<trkpt lat="49.238712256774306" lon="9.241566583514214">
<ele>156.6</ele>
<time>2024-05-08T10:54:35Z</time>
</trkpt>
<trkpt lat="49.23873136751354" lon="9.24151126295328">
<ele>156.6</ele>
<time>2024-05-08T10:54:36Z</time>
</trkpt>
<trkpt lat="49.23875039443374" lon="9.24145787023008">
<ele>156.6</ele>
<time>2024-05-08T10:54:37Z</time>
</trkpt>
<trkpt lat="49.238773277029395" lon="9.241401627659798">
<ele>156.6</ele>
<time>2024-05-08T10:54:38Z</time>
</trkpt>
<trkpt lat="49.23878853209317" lon="9.241350162774324">
<ele>156.6</ele>
<time>2024-05-08T10:54:39Z</time>
</trkpt>
<trkpt lat="49.238811414688826" lon="9.24129861406982">
<ele>156.6</ele>
<time>2024-05-08T10:54:40Z</time>
</trkpt>
<trkpt lat="49.23883438110352" lon="9.241246143355966">
<ele>156.6</ele>
<time>2024-05-08T10:54:41Z</time>
</trkpt>
<trkpt lat="49.238853408023715" lon="9.241193756461143">
<ele>156.6</ele>
<time>2024-05-08T10:54:43Z</time>
</trkpt>
<trkpt lat="49.23889540135861" lon="9.241087893024089">
<ele>156.6</ele>
<time>2024-05-08T10:54:44Z</time>
</trkpt>
<trkpt lat="49.23891828395426" lon="9.241036344319582">
<ele>156.8</ele>
<time>2024-05-08T10:54:45Z</time>
</trkpt>
<trkpt lat="49.23893731087446" lon="9.24098202958703">
<ele>156.8</ele>
<time>2024-05-08T10:54:46Z</time>
</trkpt>
<trkpt lat="49.23895642161369" lon="9.240928636863828">
<ele>156.8</ele>
<time>2024-05-08T10:54:47Z</time>
</trkpt>
<trkpt lat="49.23897930420935" lon="9.240876166149974">
<ele>157</ele>
<time>2024-05-08T10:54:49Z</time>
</trkpt>
<trkpt lat="49.23902129754424" lon="9.240770302712916">
<ele>157.2</ele>
<time>2024-05-08T10:54:50Z</time>
</trkpt>
<trkpt lat="49.23904032446444" lon="9.240716909989716">
<ele>157.2</ele>
<time>2024-05-08T10:54:51Z</time>
</trkpt>
<trkpt lat="49.23905943520367" lon="9.24066636711359">
<ele>157.2</ele>
<time>2024-05-08T10:54:53Z</time>
</trkpt>
<trkpt lat="49.23908231779933" lon="9.240616746246817">
<ele>157.4</ele>
<time>2024-05-08T10:54:54Z</time>
</trkpt>
<trkpt lat="49.23910520039499" lon="9.24056528136134">
<ele>157.4</ele>
<time>2024-05-08T10:54:55Z</time>
</trkpt>
<trkpt lat="49.239147109910846" lon="9.240465117618442">
<ele>157.4</ele>
<time>2024-05-08T10:54:57Z</time>
</trkpt>
<trkpt lat="49.23916622065008" lon="9.240414574742315">
<ele>157.6</ele>
<time>2024-05-08T10:54:58Z</time>
</trkpt>
<trkpt lat="49.239208213984966" lon="9.240315416827798">
<ele>157.6</ele>
<time>2024-05-08T10:54:59Z</time>
</trkpt>
<trkpt lat="49.23922346904874" lon="9.240262946113944">
<ele>157.6</ele>
<time>2024-05-08T10:55:00Z</time>
</trkpt>
<trkpt lat="49.23924249596894" lon="9.240213325247169">
<ele>157.6</ele>
<time>2024-05-08T10:55:01Z</time>
</trkpt>
<trkpt lat="49.23926160670817" lon="9.240166638046505">
<ele>157.6</ele>
<time>2024-05-08T10:55:02Z</time>
</trkpt>
<trkpt lat="49.23928063362837" lon="9.240117017179728">
<ele>157.4</ele>
<time>2024-05-08T10:55:04Z</time>
</trkpt>
<trkpt lat="49.23932262696326" lon="9.24001693725586">
<ele>157.4</ele>
<time>2024-05-08T10:55:06Z</time>
</trkpt>
<trkpt lat="49.23935699276626" lon="9.239910067990422">
<ele>157.4</ele>
<time>2024-05-08T10:55:08Z</time>
</trkpt>
<trkpt lat="49.239387502893806" lon="9.23979657702148">
<ele>157.4</ele>
<time>2024-05-08T10:55:09Z</time>
</trkpt>
<trkpt lat="49.239406529814005" lon="9.239743184298275">
<ele>157.4</ele>
<time>2024-05-08T10:55:10Z</time>
</trkpt>
<trkpt lat="49.23942564055323" lon="9.239686941727996">
<ele>157.4</ele>
<time>2024-05-08T10:55:11Z</time>
</trkpt>
<trkpt lat="49.239444667473435" lon="9.239628771319984">
<ele>157.6</ele>
<time>2024-05-08T10:55:12Z</time>
</trkpt>
<trkpt lat="49.23945992253721" lon="9.239569595083594">
<ele>157.4</ele>
<time>2024-05-08T10:55:13Z</time>
</trkpt>
<trkpt lat="49.23947903327644" lon="9.239511424675584">
<ele>157.4</ele>
<time>2024-05-08T10:55:14Z</time>
</trkpt>
<trkpt lat="49.23949428834021" lon="9.239457109943032">
<ele>157.4</ele>
<time>2024-05-08T10:55:15Z</time>
</trkpt>
<trkpt lat="49.23950954340398" lon="9.23940371721983">
<ele>157.4</ele>
<time>2024-05-08T10:55:16Z</time>
</trkpt>
<trkpt lat="49.239524798467755" lon="9.239351246505976">
<ele>157.4</ele>
<time>2024-05-08T10:55:17Z</time>
</trkpt>
<trkpt lat="49.2395362816751" lon="9.239293076097963">
<ele>157.4</ele>
<time>2024-05-08T10:55:18Z</time>
</trkpt>
<trkpt lat="49.23955153673887" lon="9.239232055842876">
<ele>157.4</ele>
<time>2024-05-08T10:55:19Z</time>
</trkpt>
<trkpt lat="49.23955916427076" lon="9.239170029759409">
<ele>157.4</ele>
<time>2024-05-08T10:55:20Z</time>
</trkpt>
<trkpt lat="49.23957056365907" lon="9.239107081666589">
<ele>157.4</ele>
<time>2024-05-08T10:55:22Z</time>
</trkpt>
<trkpt lat="49.23959344625473" lon="9.23898696899414">
<ele>157.4</ele>
<time>2024-05-08T10:55:24Z</time>
</trkpt>
<trkpt lat="49.239601073786616" lon="9.23892972059548">
<ele>157.2</ele>
<time>2024-05-08T10:55:25Z</time>
</trkpt>
<trkpt lat="49.2396087013185" lon="9.238873478025198">
<ele>157.2</ele>
<time>2024-05-08T10:55:26Z</time>
</trkpt>
<trkpt lat="49.23963158391416" lon="9.238755209371448">
<ele>157.2</ele>
<time>2024-05-08T10:55:27Z</time>
</trkpt>
<trkpt lat="49.23963543958962" lon="9.238695111125708">
<ele>157.2</ele>
<time>2024-05-08T10:55:28Z</time>
</trkpt>
<trkpt lat="49.23964683897793" lon="9.238636940717695">
<ele>157.2</ele>
<time>2024-05-08T10:55:29Z</time>
</trkpt>
<trkpt lat="49.23965069465339" lon="9.238568292930722">
<ele>157.4</ele>
<time>2024-05-08T10:55:30Z</time>
</trkpt>
<trkpt lat="49.23965446650982" lon="9.238496711477636">
<ele>157.4</ele>
<time>2024-05-08T10:55:31Z</time>
</trkpt>
<trkpt lat="49.23965832218528" lon="9.2384347692132">
<ele>157.4</ele>
<time>2024-05-08T10:55:33Z</time>
</trkpt>
<trkpt lat="49.239662094041705" lon="9.23837374895811">
<ele>157.6</ele>
<time>2024-05-08T10:55:34Z</time>
</trkpt>
<trkpt lat="49.239662094041705" lon="9.238247852772474">
<ele>157.6</ele>
<time>2024-05-08T10:55:36Z</time>
</trkpt>
<trkpt lat="49.239662094041705" lon="9.23811810091138">
<ele>157.8</ele>
<time>2024-05-08T10:55:37Z</time>
</trkpt>
<trkpt lat="49.239662094041705" lon="9.238053308799865">
<ele>157.8</ele>
<time>2024-05-08T10:55:38Z</time>
</trkpt>
<trkpt lat="49.23965832218528" lon="9.237983655184507">
<ele>157.8</ele>
<time>2024-05-08T10:55:40Z</time>
</trkpt>
<trkpt lat="49.23965069465339" lon="9.237836804240942">
<ele>158</ele>
<time>2024-05-08T10:55:42Z</time>
</trkpt>
<trkpt lat="49.23964683897793" lon="9.237766228616238">
<ele>158</ele>
<time>2024-05-08T10:55:43Z</time>
</trkpt>
<trkpt lat="49.239643067121506" lon="9.23770043067634">
<ele>158</ele>
<time>2024-05-08T10:55:44Z</time>
</trkpt>
<trkpt lat="49.23962781205773" lon="9.237558357417583">
<ele>158</ele>
<time>2024-05-08T10:55:46Z</time>
</trkpt>
<trkpt lat="49.23962018452585" lon="9.2374867759645">
<ele>157.8</ele>
<time>2024-05-08T10:55:47Z</time>
</trkpt>
<trkpt lat="49.23961255699396" lon="9.23742483370006">
<ele>157.8</ele>
<time>2024-05-08T10:55:48Z</time>
</trkpt>
<trkpt lat="49.23959344625473" lon="9.237293237820268">
<ele>157.8</ele>
<time>2024-05-08T10:55:49Z</time>
</trkpt>
<trkpt lat="49.23958204686642" lon="9.237233139574528">
<ele>157.8</ele>
<time>2024-05-08T10:55:51Z</time>
</trkpt>
<trkpt lat="49.23957441933453" lon="9.23716826364398">
<ele>157.8</ele>
<time>2024-05-08T10:55:52Z</time>
</trkpt>
<trkpt lat="49.239562936127186" lon="9.2371120210737">
<ele>157.8</ele>
<time>2024-05-08T10:55:53Z</time>
</trkpt>
<trkpt lat="49.23955153673887" lon="9.237052844837308">
<ele>157.8</ele>
<time>2024-05-08T10:55:54Z</time>
</trkpt>
<trkpt lat="49.239528654143214" lon="9.236943209543824">
<ele>158</ele>
<time>2024-05-08T10:55:56Z</time>
</trkpt>
<trkpt lat="49.2395019158721" lon="9.236838268116117">
<ele>158</ele>
<time>2024-05-08T10:55:57Z</time>
</trkpt>
<trkpt lat="49.23949428834021" lon="9.23679350875318">
<ele>157.8</ele>
<time>2024-05-08T10:55:59Z</time>
</trkpt>
<trkpt lat="49.23947140574455" lon="9.236709522083402">
<ele>157.8</ele>
<time>2024-05-08T10:56:01Z</time>
</trkpt>
<trkpt lat="49.23945615068078" lon="9.23663710244">
<ele>157.6</ele>
<time>2024-05-08T10:56:02Z</time>
</trkpt>
<trkpt lat="49.239448523148894" lon="9.236599886789918">
<ele>157.4</ele>
<time>2024-05-08T10:56:03Z</time>
</trkpt>
<trkpt lat="49.23944089561701" lon="9.236563676968215">
<ele>157.4</ele>
<time>2024-05-08T10:56:04Z</time>
</trkpt>
<trkpt lat="49.23943326808512" lon="9.236531239002945">
<ele>157.4</ele>
<time>2024-05-08T10:56:05Z</time>
</trkpt>
<trkpt lat="49.23942564055323" lon="9.236503578722475">
<ele>157.2</ele>
<time>2024-05-08T10:56:06Z</time>
</trkpt>
<trkpt lat="49.23942178487778" lon="9.236473068594933">
<ele>157</ele>
<time>2024-05-08T10:56:07Z</time>
</trkpt>
<trkpt lat="49.23941415734589" lon="9.236446330323815">
<ele>157</ele>
<time>2024-05-08T10:56:08Z</time>
</trkpt>
<trkpt lat="49.239410385489464" lon="9.23641867004335">
<ele>157</ele>
<time>2024-05-08T10:56:09Z</time>
</trkpt>
<trkpt lat="49.239406529814005" lon="9.236390087753534">
<ele>157</ele>
<time>2024-05-08T10:56:10Z</time>
</trkpt>
<trkpt lat="49.23939890228212" lon="9.236365277320148">
<ele>157</ele>
<time>2024-05-08T10:56:12Z</time>
</trkpt>
<trkpt lat="49.23939127475023" lon="9.23633853904903">
<ele>157</ele>
<time>2024-05-08T10:56:13Z</time>
</trkpt>
<trkpt lat="49.239368392154574" lon="9.236287996172903">
<ele>156.8</ele>
<time>2024-05-08T10:56:14Z</time>
</trkpt>
<trkpt lat="49.23935699276626" lon="9.236263269558547">
<ele>156.8</ele>
<time>2024-05-08T10:56:15Z</time>
</trkpt>
<trkpt lat="49.23934550955891" lon="9.236245080828668">
<ele>156.8</ele>
<time>2024-05-08T10:56:17Z</time>
</trkpt>
<trkpt lat="49.239326398819685" lon="9.236213648691772">
<ele>156.6</ele>
<time>2024-05-08T10:56:18Z</time>
</trkpt>
<trkpt lat="49.23931499943137" lon="9.236194537952542">
<ele>156.6</ele>
<time>2024-05-08T10:56:19Z</time>
</trkpt>
<trkpt lat="49.239307371899486" lon="9.236176433041692">
<ele>156.6</ele>
<time>2024-05-08T10:56:21Z</time>
</trkpt>
<trkpt lat="49.23929588869214" lon="9.23614022321999">
<ele>156.6</ele>
<time>2024-05-08T10:56:23Z</time>
</trkpt>
<trkpt lat="49.23928063362837" lon="9.236111640930176">
<ele>156.6</ele>
<time>2024-05-08T10:56:24Z</time>
</trkpt>
<trkpt lat="49.23927686177194" lon="9.2360982298851">
<ele>156.6</ele>
<time>2024-05-08T10:56:26Z</time>
</trkpt>
<trkpt lat="49.23927300609648" lon="9.23608012497425">
<ele>156.4</ele>
<time>2024-05-08T10:56:27Z</time>
</trkpt>
<trkpt lat="49.23925397917628" lon="9.236029582098126">
<ele>156.2</ele>
<time>2024-05-08T10:56:29Z</time>
</trkpt>
<trkpt lat="49.23924249596894" lon="9.23600284382701">
<ele>156.2</ele>
<time>2024-05-08T10:56:30Z</time>
</trkpt>
<trkpt lat="49.239227240905166" lon="9.235969483852386">
<ele>156</ele>
<time>2024-05-08T10:56:31Z</time>
</trkpt>
<trkpt lat="49.239208213984966" lon="9.235931346192956">
<ele>156</ele>
<time>2024-05-08T10:56:32Z</time>
</trkpt>
<trkpt lat="49.23919673077762" lon="9.235897986218331">
<ele>155.8</ele>
<time>2024-05-08T10:56:33Z</time>
</trkpt>
<trkpt lat="49.23918147571385" lon="9.235856998711824">
<ele>155.8</ele>
<time>2024-05-08T10:56:34Z</time>
</trkpt>
<trkpt lat="49.23914333805442" lon="9.235770162194967">
<ele>155.8</ele>
<time>2024-05-08T10:56:36Z</time>
</trkpt>
<trkpt lat="49.239108972251415" lon="9.23569011501968">
<ele>156</ele>
<time>2024-05-08T10:56:37Z</time>
</trkpt>
<trkpt lat="49.239089945331216" lon="9.23565004952252">
<ele>156</ele>
<time>2024-05-08T10:56:38Z</time>
</trkpt>
<trkpt lat="49.239070834591985" lon="9.235611911863089">
<ele>156</ele>
<time>2024-05-08T10:56:40Z</time>
</trkpt>
<trkpt lat="49.23903655260801" lon="9.235540330410004">
<ele>156.2</ele>
<time>2024-05-08T10:56:41Z</time>
</trkpt>
<trkpt lat="49.239013670012355" lon="9.235503114759922">
<ele>156.2</ele>
<time>2024-05-08T10:56:42Z</time>
</trkpt>
<trkpt lat="49.23899455927312" lon="9.235467910766602">
<ele>156.2</ele>
<time>2024-05-08T10:56:43Z</time>
</trkpt>
<trkpt lat="49.23897544853389" lon="9.235431617125869">
<ele>156.2</ele>
<time>2024-05-08T10:56:44Z</time>
</trkpt>
<trkpt lat="49.238952565938234" lon="9.235393479466438">
<ele>156.2</ele>
<time>2024-05-08T10:56:46Z</time>
</trkpt>
<trkpt lat="49.238933539018035" lon="9.235353413969278">
<ele>156.4</ele>
<time>2024-05-08T10:56:47Z</time>
</trkpt>
<trkpt lat="49.23888777382672" lon="9.235275210812688">
<ele>156.4</ele>
<time>2024-05-08T10:56:48Z</time>
</trkpt>
<trkpt lat="49.23886489123106" lon="9.23523330129683">
<ele>156.4</ele>
<time>2024-05-08T10:56:50Z</time>
</trkpt>
<trkpt lat="49.2388420086354" lon="9.23519130796194">
<ele>156.4</ele>
<time>2024-05-08T10:56:51Z</time>
</trkpt>
<trkpt lat="49.23880001530051" lon="9.235108327120544">
<ele>156.4</ele>
<time>2024-05-08T10:56:52Z</time>
</trkpt>
<trkpt lat="49.238773277029395" lon="9.235068261623384">
<ele>156.4</ele>
<time>2024-05-08T10:56:53Z</time>
</trkpt>
<trkpt lat="49.23875039443374" lon="9.235028196126224">
<ele>156.4</ele>
<time>2024-05-08T10:56:54Z</time>
</trkpt>
<trkpt lat="49.23872751183808" lon="9.234986286610363">
<ele>156.4</ele>
<time>2024-05-08T10:56:56Z</time>
</trkpt>
<trkpt lat="49.23868560232222" lon="9.23489660024643">
<ele>156.4</ele>
<time>2024-05-08T10:56:57Z</time>
</trkpt>
<trkpt lat="49.23866271972656" lon="9.23485653474927">
<ele>156.6</ele>
<time>2024-05-08T10:56:59Z</time>
</trkpt>
<trkpt lat="49.238616870716214" lon="9.234781265258787">
<ele>156.6</ele>
<time>2024-05-08T10:57:00Z</time>
</trkpt>
<trkpt lat="49.23859398812056" lon="9.234744971618056">
<ele>156.6</ele>
<time>2024-05-08T10:57:01Z</time>
</trkpt>
<trkpt lat="49.23857496120036" lon="9.234708761796355">
<ele>156.8</ele>
<time>2024-05-08T10:57:02Z</time>
</trkpt>
<trkpt lat="49.238555850461125" lon="9.234671546146274">
<ele>156.8</ele>
<time>2024-05-08T10:57:03Z</time>
</trkpt>
<trkpt lat="49.238536823540926" lon="9.23463625833392">
<ele>156.8</ele>
<time>2024-05-08T10:57:05Z</time>
</trkpt>
<trkpt lat="49.23850245773792" lon="9.234564760699868">
<ele>156.6</ele>
<time>2024-05-08T10:57:07Z</time>
</trkpt>
<trkpt lat="49.23846809193492" lon="9.23450374044478">
<ele>156.4</ele>
<time>2024-05-08T10:57:08Z</time>
</trkpt>
<trkpt lat="49.23845283687115" lon="9.234473146498203">
<ele>156.4</ele>
<time>2024-05-08T10:57:09Z</time>
</trkpt>
<trkpt lat="49.23843380995095" lon="9.23444171436131">
<ele>156.2</ele>
<time>2024-05-08T10:57:10Z</time>
</trkpt>
<trkpt lat="49.238418554887176" lon="9.234410282224417">
<ele>156.2</ele>
<time>2024-05-08T10:57:11Z</time>
</trkpt>
<trkpt lat="49.2384032998234" lon="9.234378766268492">
<ele>156.2</ele>
<time>2024-05-08T10:57:12Z</time>
</trkpt>
<trkpt lat="49.23839181661606" lon="9.234352111816406">
<ele>156.2</ele>
<time>2024-05-08T10:57:13Z</time>
</trkpt>
<trkpt lat="49.238376561552286" lon="9.23432344570756">
<ele>156.2</ele>
<time>2024-05-08T10:57:14Z</time>
</trkpt>
<trkpt lat="49.238361306488514" lon="9.234298635274172">
<ele>156.2</ele>
<time>2024-05-08T10:57:16Z</time>
</trkpt>
<trkpt lat="49.238338423892856" lon="9.234254797920585">
<ele>156.4</ele>
<time>2024-05-08T10:57:17Z</time>
</trkpt>
<trkpt lat="49.23833465203643" lon="9.23424524255097">
<ele>156.4</ele>
<time>2024-05-08T10:57:19Z</time>
</trkpt>
<trkpt lat="49.23833465203643" lon="9.234239542856812">
<ele>156.4</ele>
<time>2024-05-08T10:57:21Z</time>
</trkpt>
<trkpt lat="49.23833465203643" lon="9.234238620847464">
<ele>156.6</ele>
<time>2024-05-08T10:57:23Z</time>
</trkpt>
<trkpt lat="49.23833465203643" lon="9.234236693009734">
<ele>156.6</ele>
<time>2024-05-08T10:57:24Z</time>
</trkpt>
<trkpt lat="49.23833465203643" lon="9.234234765172005">
<ele>156.6</ele>
<time>2024-05-08T10:57:25Z</time>
</trkpt>
<trkpt lat="49.23833465203643" lon="9.234231915324926">
<ele>156.6</ele>
<time>2024-05-08T10:57:27Z</time>
</trkpt>
<trkpt lat="49.23833465203643" lon="9.234228059649467">
<ele>156.6</ele>
<time>2024-05-08T10:57:28Z</time>
</trkpt>
<trkpt lat="49.23833465203643" lon="9.234211882576346">
<ele>156.6</ele>
<time>2024-05-08T10:57:29Z</time>
</trkpt>
<trkpt lat="49.23833079636097" lon="9.234208026900887">
<ele>156.6</ele>
<time>2024-05-08T10:57:30Z</time>
</trkpt>
<trkpt lat="49.23833079636097" lon="9.23420618288219">
<ele>156.6</ele>
<time>2024-05-08T10:57:31Z</time>
</trkpt>
<trkpt lat="49.23833079636097" lon="9.23420517705381">
<ele>156.6</ele>
<time>2024-05-08T10:57:32Z</time>
</trkpt>
<trkpt lat="49.23833079636097" lon="9.234203333035111">
<ele>156.6</ele>
<time>2024-05-08T10:57:33Z</time>
</trkpt>
<trkpt lat="49.23833079636097" lon="9.234201405197382">
<ele>156.6</ele>
<time>2024-05-08T10:57:34Z</time>
</trkpt>
<trkpt lat="49.23833079636097" lon="9.234199477359653">
<ele>156.6</ele>
<time>2024-05-08T10:57:35Z</time>
</trkpt>
<trkpt lat="49.23832702450454" lon="9.234199477359653">
<ele>156.6</ele>
<time>2024-05-08T10:57:36Z</time>
</trkpt>
<trkpt lat="49.23832702450454" lon="9.234198555350304">
<ele>156.6</ele>
<time>2024-05-08T10:57:42Z</time>
</trkpt>
<trkpt lat="49.23832702450454" lon="9.234199477359653">
<ele>156.6</ele>
<time>2024-05-08T10:57:43Z</time>
</trkpt>
<trkpt lat="49.23832702450454" lon="9.234198555350304">
<ele>156.6</ele>
<time>2024-05-08T10:57:48Z</time>
</trkpt>
<trkpt lat="49.23832702450454" lon="9.234199477359653">
<ele>156.6</ele>
<time>2024-05-08T10:57:50Z</time>
</trkpt>
<trkpt lat="49.23832316882908" lon="9.234199477359653">
<ele>156.6</ele>
<time>2024-05-08T10:57:52Z</time>
</trkpt>
<trkpt lat="49.23832316882908" lon="9.234198555350304">
<ele>156.6</ele>
<time>2024-05-08T10:57:53Z</time>
</trkpt>
<trkpt lat="49.23832316882908" lon="9.234199477359653">
<ele>156.6</ele>
<time>2024-05-08T10:57:56Z</time>
</trkpt>
<trkpt lat="49.23832316882908" lon="9.234198555350304">
<ele>156.6</ele>
<time>2024-05-08T10:57:57Z</time>
</trkpt>
<trkpt lat="49.23832316882908" lon="9.234199477359653">
<ele>156.6</ele>
<time>2024-05-08T10:58:00Z</time>
</trkpt>
<trkpt lat="49.23832316882908" lon="9.234201405197382">
<ele>156.6</ele>
<time>2024-05-08T10:58:09Z</time>
</trkpt>
<trkpt lat="49.238319396972656" lon="9.234203333035111">
<ele>156.6</ele>
<time>2024-05-08T10:58:16Z</time>
</trkpt>
<trkpt lat="49.238319396972656" lon="9.23420517705381">
<ele>156.6</ele>
<time>2024-05-08T10:58:34Z</time>
</trkpt>
<trkpt lat="49.238319396972656" lon="9.234203333035111">
<ele>156.6</ele>
<time>2024-05-08T10:58:45Z</time>
</trkpt>
<trkpt lat="49.238319396972656" lon="9.234201405197382">
<ele>156.6</ele>
<time>2024-05-08T10:58:50Z</time>
</trkpt>
<trkpt lat="49.238319396972656" lon="9.234199477359653">
<ele>156.4</ele>
<time>2024-05-08T10:58:55Z</time>
</trkpt>
<trkpt lat="49.238319396972656" lon="9.234198555350304">
<ele>156.4</ele>
<time>2024-05-08T10:58:57Z</time>
</trkpt>
<trkpt lat="49.238319396972656" lon="9.234196627512574">
<ele>156.4</ele>
<time>2024-05-08T10:59:21Z</time>
</trkpt>
<trkpt lat="49.238319396972656" lon="9.234194699674845">
<ele>156.4</ele>
<time>2024-05-08T10:59:33Z</time>
</trkpt>
<trkpt lat="49.238319396972656" lon="9.234193777665496">
<ele>156.2</ele>
<time>2024-05-08T10:59:47Z</time>
</trkpt>
<trkpt lat="49.238319396972656" lon="9.234191849827766">
<ele>156.2</ele>
<time>2024-05-08T10:59:50Z</time>
</trkpt>
<trkpt lat="49.238319396972656" lon="9.234189921990035">
<ele>156.2</ele>
<time>2024-05-08T11:00:03Z</time>
</trkpt>
<trkpt lat="49.238319396972656" lon="9.234191849827766">
<ele>156.2</ele>
<time>2024-05-08T11:00:04Z</time>
</trkpt>
<trkpt lat="49.2383155412972" lon="9.234191849827766">
<ele>156.2</ele>
<time>2024-05-08T11:00:24Z</time>
</trkpt>
<trkpt lat="49.2383155412972" lon="9.234189921990035">
<ele>156.2</ele>
<time>2024-05-08T11:00:25Z</time>
</trkpt>
<trkpt lat="49.2383155412972" lon="9.234193777665496">
<ele>156.2</ele>
<time>2024-05-08T11:00:27Z</time>
</trkpt>
<trkpt lat="49.2383155412972" lon="9.234191849827766">
<ele>156.2</ele>
<time>2024-05-08T11:00:28Z</time>
</trkpt>
<trkpt lat="49.23831168562174" lon="9.234189921990035">
<ele>156.2</ele>
<time>2024-05-08T11:00:30Z</time>
</trkpt>
<trkpt lat="49.23831168562174" lon="9.23418514430523">
<ele>156.2</ele>
<time>2024-05-08T11:00:31Z</time>
</trkpt>
<trkpt lat="49.23830405808985" lon="9.234178522601724">
<ele>156.4</ele>
<time>2024-05-08T11:00:32Z</time>
</trkpt>
<trkpt lat="49.23830405808985" lon="9.23416804522276">
<ele>156.4</ele>
<time>2024-05-08T11:00:33Z</time>
</trkpt>
<trkpt lat="49.238296430557966" lon="9.234160417690871">
<ele>156.4</ele>
<time>2024-05-08T11:00:34Z</time>
</trkpt>
<trkpt lat="49.23829265870154" lon="9.23414801247418">
<ele>156.4</ele>
<time>2024-05-08T11:00:35Z</time>
</trkpt>
<trkpt lat="49.23828880302608" lon="9.234138457104564">
<ele>156.4</ele>
<time>2024-05-08T11:00:36Z</time>
</trkpt>
<trkpt lat="49.23827740363777" lon="9.234123202040792">
<ele>156.4</ele>
<time>2024-05-08T11:00:38Z</time>
</trkpt>
<trkpt lat="49.23824689351022" lon="9.234080286696551">
<ele>156.4</ele>
<time>2024-05-08T11:00:39Z</time>
</trkpt>
<trkpt lat="49.23823163844645" lon="9.234053548425436">
<ele>156.4</ele>
<time>2024-05-08T11:00:41Z</time>
</trkpt>
<trkpt lat="49.238201128318906" lon="9.23400493338704">
<ele>156.4</ele>
<time>2024-05-08T11:00:43Z</time>
</trkpt>
<trkpt lat="49.2381667625159" lon="9.2339448351413">
<ele>156.4</ele>
<time>2024-05-08T11:00:44Z</time>
</trkpt>
<trkpt lat="49.23814387992024" lon="9.233913403004408">
<ele>156.4</ele>
<time>2024-05-08T11:00:46Z</time>
</trkpt>
<trkpt lat="49.238105742260814" lon="9.23385045491159">
<ele>156.4</ele>
<time>2024-05-08T11:00:48Z</time>
</trkpt>
<trkpt lat="49.23808663152158" lon="9.233815167099236">
<ele>156.4</ele>
<time>2024-05-08T11:00:49Z</time>
</trkpt>
<trkpt lat="49.23807137645781" lon="9.233777951449156">
<ele>156.4</ele>
<time>2024-05-08T11:00:50Z</time>
</trkpt>
<trkpt lat="49.23802946694195" lon="9.23371123149991">
<ele>156.6</ele>
<time>2024-05-08T11:00:51Z</time>
</trkpt>
<trkpt lat="49.238006584346294" lon="9.233676865696909">
<ele>156.8</ele>
<time>2024-05-08T11:00:52Z</time>
</trkpt>
<trkpt lat="49.23799132928252" lon="9.233639650046824">
<ele>157</ele>
<time>2024-05-08T11:00:54Z</time>
</trkpt>
<trkpt lat="49.23795696347952" lon="9.23357485793531">
<ele>157.2</ele>
<time>2024-05-08T11:00:55Z</time>
</trkpt>
<trkpt lat="49.23794170841575" lon="9.233548119664192">
<ele>157.2</ele>
<time>2024-05-08T11:00:56Z</time>
</trkpt>
<trkpt lat="49.2379302252084" lon="9.233521381393077">
<ele>157.2</ele>
<time>2024-05-08T11:00:57Z</time>
</trkpt>
<trkpt lat="49.23791497014463" lon="9.23349380493164">
<ele>157.4</ele>
<time>2024-05-08T11:00:59Z</time>
</trkpt>
<trkpt lat="49.237884460017085" lon="9.233423229306936">
<ele>157.4</ele>
<time>2024-05-08T11:01:00Z</time>
</trkpt>
<trkpt lat="49.23786157742143" lon="9.233389785513282">
<ele>157.4</ele>
<time>2024-05-08T11:01:01Z</time>
</trkpt>
<trkpt lat="49.23784255050123" lon="9.23335357569158">
<ele>157.6</ele>
<time>2024-05-08T11:01:02Z</time>
</trkpt>
<trkpt lat="49.237823439762" lon="9.23331351019442">
<ele>157.6</ele>
<time>2024-05-08T11:01:04Z</time>
</trkpt>
<trkpt lat="49.23780055716634" lon="9.23327537253499">
<ele>157.6</ele>
<time>2024-05-08T11:01:05Z</time>
</trkpt>
<trkpt lat="49.23775856383145" lon="9.233202869072556">
<ele>157.6</ele>
<time>2024-05-08T11:01:07Z</time>
</trkpt>
<trkpt lat="49.23771665431559" lon="9.233131371438503">
<ele>157.6</ele>
<time>2024-05-08T11:01:09Z</time>
</trkpt>
<trkpt lat="49.237670889124274" lon="9.233066495507956">
<ele>157.6</ele>
<time>2024-05-08T11:01:11Z</time>
</trkpt>
<trkpt lat="49.237628895789385" lon="9.232990220189096">
<ele>157.8</ele>
<time>2024-05-08T11:01:12Z</time>
</trkpt>
<trkpt lat="49.23760601319373" lon="9.23293967731297">
<ele>157.8</ele>
<time>2024-05-08T11:01:14Z</time>
</trkpt>
<trkpt lat="49.23757927492261" lon="9.23290153965354">
<ele>158</ele>
<time>2024-05-08T11:01:15Z</time>
</trkpt>
<trkpt lat="49.23754113726318" lon="9.232814786955714">
<ele>158.2</ele>
<time>2024-05-08T11:01:17Z</time>
</trkpt>
<trkpt lat="49.23749922774732" lon="9.232740355655553">
<ele>158.4</ele>
<time>2024-05-08T11:01:18Z</time>
</trkpt>
<trkpt lat="49.23748011700809" lon="9.2327050678432">
<ele>158.4</ele>
<time>2024-05-08T11:01:19Z</time>
</trkpt>
<trkpt lat="49.23745723441243" lon="9.232671707868576">
<ele>158.4</ele>
<time>2024-05-08T11:01:20Z</time>
</trkpt>
<trkpt lat="49.2374381236732" lon="9.232636420056224">
<ele>158.4</ele>
<time>2024-05-08T11:01:22Z</time>
</trkpt>
<trkpt lat="49.23739998601377" lon="9.232560144737365">
<ele>158.4</ele>
<time>2024-05-08T11:01:23Z</time>
</trkpt>
<trkpt lat="49.23737710341811" lon="9.23252292908728">
<ele>158.4</ele>
<time>2024-05-08T11:01:25Z</time>
</trkpt>
<trkpt lat="49.23734282143414" lon="9.232453275471926">
<ele>158.4</ele>
<time>2024-05-08T11:01:26Z</time>
</trkpt>
<trkpt lat="49.23732371069491" lon="9.232417987659574">
<ele>158.4</ele>
<time>2024-05-08T11:01:28Z</time>
</trkpt>
<trkpt lat="49.23728557303548" lon="9.232351267710328">
<ele>158.4</ele>
<time>2024-05-08T11:01:29Z</time>
</trkpt>
<trkpt lat="49.23726646229625" lon="9.232319751754403">
<ele>158.4</ele>
<time>2024-05-08T11:01:30Z</time>
</trkpt>
<trkpt lat="49.23724743537605" lon="9.23229024745524">
<ele>158.4</ele>
<time>2024-05-08T11:01:31Z</time>
</trkpt>
<trkpt lat="49.23722832463682" lon="9.232254959642887">
<ele>158.4</ele>
<time>2024-05-08T11:01:32Z</time>
</trkpt>
<trkpt lat="49.23720929771662" lon="9.232223443686962">
<ele>158.4</ele>
<time>2024-05-08T11:01:33Z</time>
</trkpt>
<trkpt lat="49.23719018697739" lon="9.232192933559418">
<ele>158.4</ele>
<time>2024-05-08T11:01:34Z</time>
</trkpt>
<trkpt lat="49.237174931913614" lon="9.232165273278952">
<ele>158.4</ele>
<time>2024-05-08T11:01:36Z</time>
</trkpt>
<trkpt lat="49.237155904993415" lon="9.232134763151407">
<ele>158.4</ele>
<time>2024-05-08T11:01:37Z</time>
</trkpt>
<trkpt lat="49.23712153919041" lon="9.232074664905667">
<ele>158.4</ele>
<time>2024-05-08T11:01:39Z</time>
</trkpt>
<trkpt lat="49.23708717338741" lon="9.232009872794151">
<ele>158.2</ele>
<time>2024-05-08T11:01:40Z</time>
</trkpt>
<trkpt lat="49.23706814646721" lon="9.23197357915342">
<ele>158.2</ele>
<time>2024-05-08T11:01:41Z</time>
</trkpt>
<trkpt lat="49.23704526387155" lon="9.23193451948464">
<ele>158.2</ele>
<time>2024-05-08T11:01:42Z</time>
</trkpt>
<trkpt lat="49.23702615313232" lon="9.231898225843906">
<ele>158.2</ele>
<time>2024-05-08T11:01:43Z</time>
</trkpt>
<trkpt lat="49.23700327053666" lon="9.231855310499668">
<ele>158.4</ele>
<time>2024-05-08T11:01:45Z</time>
</trkpt>
<trkpt lat="49.236980387941" lon="9.23181532882154">
<ele>158.4</ele>
<time>2024-05-08T11:01:46Z</time>
</trkpt>
<trkpt lat="49.2369613610208" lon="9.23177526332438">
<ele>158.2</ele>
<time>2024-05-08T11:01:47Z</time>
</trkpt>
<trkpt lat="49.23693839460611" lon="9.231738047674298">
<ele>158.2</ele>
<time>2024-05-08T11:01:48Z</time>
</trkpt>
<trkpt lat="49.2368926294148" lon="9.231666550040243">
<ele>158</ele>
<time>2024-05-08T11:01:49Z</time>
</trkpt>
<trkpt lat="49.23686974681914" lon="9.23163310624659">
<ele>158</ele>
<time>2024-05-08T11:01:50Z</time>
</trkpt>
<trkpt lat="49.23685071989894" lon="9.231599746271968">
<ele>157.8</ele>
<time>2024-05-08T11:01:51Z</time>
</trkpt>
<trkpt lat="49.23683546483517" lon="9.231565464287996">
<ele>157.8</ele>
<time>2024-05-08T11:01:53Z</time>
</trkpt>
<trkpt lat="49.236820209771395" lon="9.231533026322722">
<ele>157.8</ele>
<time>2024-05-08T11:01:54Z</time>
</trkpt>
<trkpt lat="49.23678584396839" lon="9.231470078229904">
<ele>157.6</ele>
<time>2024-05-08T11:01:56Z</time>
</trkpt>
<trkpt lat="49.23674770630896" lon="9.23140143044293">
<ele>157.4</ele>
<time>2024-05-08T11:01:58Z</time>
</trkpt>
<trkpt lat="49.23670571297407" lon="9.23132322728634">
<ele>157.4</ele>
<time>2024-05-08T11:01:59Z</time>
</trkpt>
<trkpt lat="49.23668668605387" lon="9.23128316178918">
<ele>157.4</ele>
<time>2024-05-08T11:02:01Z</time>
</trkpt>
<trkpt lat="49.236663803458214" lon="9.23124116845429">
<ele>157.4</ele>
<time>2024-05-08T11:02:02Z</time>
</trkpt>
<trkpt lat="49.2366180382669" lon="9.231158187612891">
<ele>157.4</ele>
<time>2024-05-08T11:02:04Z</time>
</trkpt>
<trkpt lat="49.23657218925655" lon="9.231069507077336">
<ele>157.6</ele>
<time>2024-05-08T11:02:05Z</time>
</trkpt>
<trkpt lat="49.23654553480446" lon="9.231024663895369">
<ele>157.8</ele>
<time>2024-05-08T11:02:06Z</time>
</trkpt>
<trkpt lat="49.236518796533346" lon="9.23098174855113">
<ele>157.8</ele>
<time>2024-05-08T11:02:07Z</time>
</trkpt>
<trkpt lat="49.23649591393769" lon="9.230937911197543">
<ele>158</ele>
<time>2024-05-08T11:02:08Z</time>
</trkpt>
<trkpt lat="49.2364692594856" lon="9.230890218168495">
<ele>158</ele>
<time>2024-05-08T11:02:09Z</time>
</trkpt>
<trkpt lat="49.236446376889944" lon="9.23084537498653">
<ele>158</ele>
<time>2024-05-08T11:02:10Z</time>
</trkpt>
<trkpt lat="49.23641963861883" lon="9.230799609795213">
<ele>158.2</ele>
<time>2024-05-08T11:02:11Z</time>
</trkpt>
<trkpt lat="49.23639675602317" lon="9.230756694450974">
<ele>158.2</ele>
<time>2024-05-08T11:02:12Z</time>
</trkpt>
<trkpt lat="49.23637001775205" lon="9.230710007250307">
<ele>158.2</ele>
<time>2024-05-08T11:02:13Z</time>
</trkpt>
<trkpt lat="49.236343363299966" lon="9.230663236230612">
<ele>158.2</ele>
<time>2024-05-08T11:02:14Z</time>
</trkpt>
<trkpt lat="49.23631662502885" lon="9.230618476867676">
<ele>158.4</ele>
<time>2024-05-08T11:02:15Z</time>
</trkpt>
<trkpt lat="49.23628997057676" lon="9.23057170584798">
<ele>158.4</ele>
<time>2024-05-08T11:02:16Z</time>
</trkpt>
<trkpt lat="49.236267087981105" lon="9.23052686266601">
<ele>158.4</ele>
<time>2024-05-08T11:02:17Z</time>
</trkpt>
<trkpt lat="49.236244121566415" lon="9.230483025312424">
<ele>158.4</ele>
<time>2024-05-08T11:02:18Z</time>
</trkpt>
<trkpt lat="49.23622123897076" lon="9.230438182130456">
<ele>158.4</ele>
<time>2024-05-08T11:02:20Z</time>
</trkpt>
<trkpt lat="49.23617170192301" lon="9.230348579585552">
<ele>158.4</ele>
<time>2024-05-08T11:02:22Z</time>
</trkpt>
<trkpt lat="49.236148819327354" lon="9.230303736403584">
<ele>158.4</ele>
<time>2024-05-08T11:02:23Z</time>
</trkpt>
<trkpt lat="49.23609919846058" lon="9.230219833552836">
<ele>158.4</ele>
<time>2024-05-08T11:02:24Z</time>
</trkpt>
<trkpt lat="49.23608008772135" lon="9.230181612074375">
<ele>158.4</ele>
<time>2024-05-08T11:02:25Z</time>
</trkpt>
<trkpt lat="49.23605720512569" lon="9.230145402252674">
<ele>158.4</ele>
<time>2024-05-08T11:02:26Z</time>
</trkpt>
<trkpt lat="49.23603817820549" lon="9.230105336755514">
<ele>158.4</ele>
<time>2024-05-08T11:02:27Z</time>
</trkpt>
<trkpt lat="49.23601143993437" lon="9.230061499401929">
<ele>158.4</ele>
<time>2024-05-08T11:02:28Z</time>
</trkpt>
<trkpt lat="49.23598478548229" lon="9.23001472838223">
<ele>158.4</ele>
<time>2024-05-08T11:02:29Z</time>
</trkpt>
<trkpt lat="49.23595804721117" lon="9.229967035353184">
<ele>158.6</ele>
<time>2024-05-08T11:02:30Z</time>
</trkpt>
<trkpt lat="49.23593516461551" lon="9.229921270161867">
<ele>158.6</ele>
<time>2024-05-08T11:02:32Z</time>
</trkpt>
<trkpt lat="49.23588177189231" lon="9.229829739779234">
<ele>158.8</ele>
<time>2024-05-08T11:02:34Z</time>
</trkpt>
<trkpt lat="49.23582837916911" lon="9.22972010448575">
<ele>158.8</ele>
<time>2024-05-08T11:02:35Z</time>
</trkpt>
<trkpt lat="49.23580164089799" lon="9.229668555781243">
<ele>158.8</ele>
<time>2024-05-08T11:02:36Z</time>
</trkpt>
<trkpt lat="49.235774986445904" lon="9.229617090895772">
<ele>158.8</ele>
<time>2024-05-08T11:02:38Z</time>
</trkpt>
<trkpt lat="49.23572150990367" lon="9.229516927152872">
<ele>159</ele>
<time>2024-05-08T11:02:40Z</time>
</trkpt>
<trkpt lat="49.23566811718047" lon="9.229418691247702">
<ele>159.2</ele>
<time>2024-05-08T11:02:42Z</time>
</trkpt>
<trkpt lat="49.23561858013272" lon="9.229318611323832">
<ele>159.2</ele>
<time>2024-05-08T11:02:43Z</time>
</trkpt>
<trkpt lat="49.235591841861606" lon="9.229268068447707">
<ele>159.2</ele>
<time>2024-05-08T11:02:44Z</time>
</trkpt>
<trkpt lat="49.23556895926595" lon="9.229221297428012">
<ele>159.2</ele>
<time>2024-05-08T11:02:45Z</time>
</trkpt>
<trkpt lat="49.23554607667029" lon="9.229174610227346">
<ele>159.2</ele>
<time>2024-05-08T11:02:46Z</time>
</trkpt>
<trkpt lat="49.235515566542745" lon="9.22912976704538">
<ele>159.2</ele>
<time>2024-05-08T11:02:48Z</time>
</trkpt>
<trkpt lat="49.23546594567597" lon="9.229035302996635">
<ele>159.4</ele>
<time>2024-05-08T11:02:50Z</time>
</trkpt>
<trkpt lat="49.235412552952766" lon="9.228937067091463">
<ele>159.4</ele>
<time>2024-05-08T11:02:52Z</time>
</trkpt>
<trkpt lat="49.23536293208599" lon="9.228844614699485">
<ele>159.4</ele>
<time>2024-05-08T11:02:53Z</time>
</trkpt>
<trkpt lat="49.235336277633905" lon="9.228796921670437">
<ele>159.4</ele>
<time>2024-05-08T11:02:54Z</time>
</trkpt>
<trkpt lat="49.23530953936279" lon="9.22875015065074">
<ele>159.4</ele>
<time>2024-05-08T11:02:56Z</time>
</trkpt>
<trkpt lat="49.23526000231504" lon="9.228656692430375">
<ele>159.4</ele>
<time>2024-05-08T11:02:57Z</time>
</trkpt>
<trkpt lat="49.23523326404393" lon="9.22861193306744">
<ele>159.4</ele>
<time>2024-05-08T11:02:59Z</time>
</trkpt>
<trkpt lat="49.23517987132072" lon="9.228520318865776">
<ele>159.4</ele>
<time>2024-05-08T11:03:01Z</time>
</trkpt>
<trkpt lat="49.23515313304961" lon="9.22847170382738">
<ele>159.4</ele>
<time>2024-05-08T11:03:02Z</time>
</trkpt>
<trkpt lat="49.23512262292206" lon="9.228420238941908">
<ele>159.4</ele>
<time>2024-05-08T11:03:03Z</time>
</trkpt>
<trkpt lat="49.23509211279452" lon="9.228368690237405">
<ele>159.4</ele>
<time>2024-05-08T11:03:04Z</time>
</trkpt>
<trkpt lat="49.23503486439586" lon="9.228264754638076">
<ele>159.4</ele>
<time>2024-05-08T11:03:05Z</time>
</trkpt>
<trkpt lat="49.23500820994377" lon="9.228211361914871">
<ele>159.4</ele>
<time>2024-05-08T11:03:06Z</time>
</trkpt>
<trkpt lat="49.234981471672654" lon="9.228164590895176">
<ele>159.4</ele>
<time>2024-05-08T11:03:08Z</time>
</trkpt>
<trkpt lat="49.23495481722057" lon="9.22811790369451">
<ele>159.4</ele>
<time>2024-05-08T11:03:09Z</time>
</trkpt>
<trkpt lat="49.23490519635379" lon="9.228016817942262">
<ele>159.2</ele>
<time>2024-05-08T11:03:10Z</time>
</trkpt>
<trkpt lat="49.23487845808267" lon="9.227965353056788">
<ele>159.2</ele>
<time>2024-05-08T11:03:12Z</time>
</trkpt>
<trkpt lat="49.234821293503046" lon="9.227868039160969">
<ele>159.2</ele>
<time>2024-05-08T11:03:13Z</time>
</trkpt>
<trkpt lat="49.23479841090739" lon="9.227818418294191">
<ele>159.2</ele>
<time>2024-05-08T11:03:14Z</time>
</trkpt>
<trkpt lat="49.23477167263627" lon="9.22776309773326">
<ele>159.2</ele>
<time>2024-05-08T11:03:15Z</time>
</trkpt>
<trkpt lat="49.234741162508726" lon="9.227713560685515">
<ele>159.2</ele>
<time>2024-05-08T11:03:17Z</time>
</trkpt>
<trkpt lat="49.23468776978552" lon="9.227620102465153">
<ele>159.2</ele>
<time>2024-05-08T11:03:18Z</time>
</trkpt>
<trkpt lat="49.23465725965798" lon="9.227571487426758">
<ele>159.2</ele>
<time>2024-05-08T11:03:19Z</time>
</trkpt>
<trkpt lat="49.23463052138686" lon="9.227519938722253">
<ele>159.4</ele>
<time>2024-05-08T11:03:21Z</time>
</trkpt>
<trkpt lat="49.23457335680723" lon="9.227421702817082">
<ele>159.4</ele>
<time>2024-05-08T11:03:22Z</time>
</trkpt>
<trkpt lat="49.234546618536115" lon="9.227371159940958">
<ele>159.4</ele>
<time>2024-05-08T11:03:24Z</time>
</trkpt>
<trkpt lat="49.23449322581291" lon="9.22727007418871">
<ele>159.4</ele>
<time>2024-05-08T11:03:25Z</time>
</trkpt>
<trkpt lat="49.234466487541795" lon="9.227219531312585">
<ele>159.4</ele>
<time>2024-05-08T11:03:27Z</time>
</trkpt>
<trkpt lat="49.23441309481859" lon="9.2271117400378">
<ele>159.6</ele>
<time>2024-05-08T11:03:29Z</time>
</trkpt>
<trkpt lat="49.23435970209539" lon="9.227006882429125">
<ele>159.8</ele>
<time>2024-05-08T11:03:30Z</time>
</trkpt>
<trkpt lat="49.234329191967845" lon="9.226956339553">
<ele>159.8</ele>
<time>2024-05-08T11:03:31Z</time>
</trkpt>
<trkpt lat="49.2342986818403" lon="9.226902946829796">
<ele>160</ele>
<time>2024-05-08T11:03:33Z</time>
</trkpt>
<trkpt lat="49.23424143344164" lon="9.22679708339274">
<ele>160</ele>
<time>2024-05-08T11:03:34Z</time>
</trkpt>
<trkpt lat="49.234210923314095" lon="9.226744612678884">
<ele>160</ele>
<time>2024-05-08T11:03:35Z</time>
</trkpt>
<trkpt lat="49.23418041318655" lon="9.226691219955685">
<ele>160</ele>
<time>2024-05-08T11:03:36Z</time>
</trkpt>
<trkpt lat="49.23415367491543" lon="9.226639671251178">
<ele>160</ele>
<time>2024-05-08T11:03:38Z</time>
</trkpt>
<trkpt lat="49.23408888280392" lon="9.226532885804772">
<ele>159.8</ele>
<time>2024-05-08T11:03:39Z</time>
</trkpt>
<trkpt lat="49.23405837267637" lon="9.22648041509092">
<ele>159.8</ele>
<time>2024-05-08T11:03:40Z</time>
</trkpt>
<trkpt lat="49.234031634405255" lon="9.226427022367716">
<ele>159.8</ele>
<time>2024-05-08T11:03:42Z</time>
</trkpt>
<trkpt lat="49.23400489613414" lon="9.226374551653862">
<ele>159.6</ele>
<time>2024-05-08T11:03:43Z</time>
</trkpt>
<trkpt lat="49.233974386006594" lon="9.22631830908358">
<ele>159.6</ele>
<time>2024-05-08T11:03:44Z</time>
</trkpt>
<trkpt lat="49.233913365751505" lon="9.226206745952368">
<ele>159.4</ele>
<time>2024-05-08T11:03:46Z</time>
</trkpt>
<trkpt lat="49.23384848982096" lon="9.226098032668231">
<ele>159.4</ele>
<time>2024-05-08T11:03:47Z</time>
</trkpt>
<trkpt lat="49.23382183536887" lon="9.226039862260222">
<ele>159.4</ele>
<time>2024-05-08T11:03:48Z</time>
</trkpt>
<trkpt lat="49.23379132524133" lon="9.22598646953702">
<ele>159.4</ele>
<time>2024-05-08T11:03:50Z</time>
</trkpt>
<trkpt lat="49.233734076842666" lon="9.225879600271584">
<ele>159.4</ele>
<time>2024-05-08T11:03:51Z</time>
</trkpt>
<trkpt lat="49.23370742239058" lon="9.225823357701302">
<ele>159.4</ele>
<time>2024-05-08T11:03:53Z</time>
</trkpt>
<trkpt lat="49.23365017399192" lon="9.225714644417168">
<ele>159.4</ele>
<time>2024-05-08T11:03:54Z</time>
</trkpt>
<trkpt lat="49.233619663864374" lon="9.225663179531692">
<ele>159.4</ele>
<time>2024-05-08T11:03:56Z</time>
</trkpt>
<trkpt lat="49.233558643609285" lon="9.225555388256907">
<ele>159.2</ele>
<time>2024-05-08T11:03:57Z</time>
</trkpt>
<trkpt lat="49.23352813348174" lon="9.225498139858246">
<ele>159.2</ele>
<time>2024-05-08T11:03:59Z</time>
</trkpt>
<trkpt lat="49.23347465693951" lon="9.225381799042225">
<ele>159.2</ele>
<time>2024-05-08T11:04:01Z</time>
</trkpt>
<trkpt lat="49.23344800248742" lon="9.225321700796483">
<ele>159</ele>
<time>2024-05-08T11:04:02Z</time>
</trkpt>
<trkpt lat="49.23339460976422" lon="9.225201588124037">
<ele>158.8</ele>
<time>2024-05-08T11:04:03Z</time>
</trkpt>
<trkpt lat="49.23337172716856" lon="9.225141489878297">
<ele>158.8</ele>
<time>2024-05-08T11:04:04Z</time>
</trkpt>
<trkpt lat="49.23334498889744" lon="9.225081391632555">
<ele>158.6</ele>
<time>2024-05-08T11:04:06Z</time>
</trkpt>
<trkpt lat="49.233299223706126" lon="9.224963122978806">
<ele>158.4</ele>
<time>2024-05-08T11:04:08Z</time>
</trkpt>
<trkpt lat="49.23325723037124" lon="9.224842004477978">
<ele>158.2</ele>
<time>2024-05-08T11:04:10Z</time>
</trkpt>
<trkpt lat="49.233219092711806" lon="9.224715186282992">
<ele>158.2</ele>
<time>2024-05-08T11:04:12Z</time>
</trkpt>
<trkpt lat="49.233184810727835" lon="9.224591217935084">
<ele>158.2</ele>
<time>2024-05-08T11:04:13Z</time>
</trkpt>
<trkpt lat="49.23316955566406" lon="9.224530197679996">
<ele>158.2</ele>
<time>2024-05-08T11:04:14Z</time>
</trkpt>
<trkpt lat="49.23315421678126" lon="9.224468171596529">
<ele>158.2</ele>
<time>2024-05-08T11:04:16Z</time>
</trkpt>
<trkpt lat="49.233138961717486" lon="9.224405223503709">
<ele>158.2</ele>
<time>2024-05-08T11:04:17Z</time>
</trkpt>
<trkpt lat="49.23311607912183" lon="9.224281255155802">
<ele>158.2</ele>
<time>2024-05-08T11:04:18Z</time>
</trkpt>
<trkpt lat="49.233104679733515" lon="9.224218307062984">
<ele>158.2</ele>
<time>2024-05-08T11:04:19Z</time>
</trkpt>
<trkpt lat="49.23309319652617" lon="9.224155358970163">
<ele>158.2</ele>
<time>2024-05-08T11:04:20Z</time>
</trkpt>
<trkpt lat="49.23308179713786" lon="9.224089561030269">
<ele>158.2</ele>
<time>2024-05-08T11:04:21Z</time>
</trkpt>
<trkpt lat="49.23306654207408" lon="9.22402854077518">
<ele>158.2</ele>
<time>2024-05-08T11:04:23Z</time>
</trkpt>
<trkpt lat="49.23304743133485" lon="9.223903650417924">
<ele>158.2</ele>
<time>2024-05-08T11:04:25Z</time>
</trkpt>
<trkpt lat="49.233024548739195" lon="9.2237719707191">
<ele>158.2</ele>
<time>2024-05-08T11:04:26Z</time>
</trkpt>
<trkpt lat="49.23301314935088" lon="9.223705250769854">
<ele>158.2</ele>
<time>2024-05-08T11:04:27Z</time>
</trkpt>
<trkpt lat="49.233005521818995" lon="9.223638530820608">
<ele>158.2</ele>
<time>2024-05-08T11:04:28Z</time>
</trkpt>
<trkpt lat="49.23299403861165" lon="9.223571727052333">
<ele>158.2</ele>
<time>2024-05-08T11:04:30Z</time>
</trkpt>
<trkpt lat="49.23297492787242" lon="9.22343627549708">
<ele>158.2</ele>
<time>2024-05-08T11:04:32Z</time>
</trkpt>
<trkpt lat="49.23295204527676" lon="9.22329805791378">
<ele>158.2</ele>
<time>2024-05-08T11:04:33Z</time>
</trkpt>
<trkpt lat="49.232944417744875" lon="9.223230332136154">
<ele>158.2</ele>
<time>2024-05-08T11:04:34Z</time>
</trkpt>
<trkpt lat="49.2329291626811" lon="9.223164534196258">
<ele>158.4</ele>
<time>2024-05-08T11:04:35Z</time>
</trkpt>
<trkpt lat="49.23291776329279" lon="9.22309965826571">
<ele>158.4</ele>
<time>2024-05-08T11:04:36Z</time>
</trkpt>
<trkpt lat="49.23290628008544" lon="9.223034782335162">
<ele>158.4</ele>
<time>2024-05-08T11:04:37Z</time>
</trkpt>
<trkpt lat="49.23289488069713" lon="9.222969990223646">
<ele>158.4</ele>
<time>2024-05-08T11:04:38Z</time>
</trkpt>
<trkpt lat="49.232887253165245" lon="9.222905114293098">
<ele>158.4</ele>
<time>2024-05-08T11:04:39Z</time>
</trkpt>
<trkpt lat="49.2328757699579" lon="9.222838394343851">
<ele>158.4</ele>
<time>2024-05-08T11:04:40Z</time>
</trkpt>
<trkpt lat="49.232868142426014" lon="9.222769662737846">
<ele>158.4</ele>
<time>2024-05-08T11:04:41Z</time>
</trkpt>
<trkpt lat="49.2328567430377" lon="9.222702020779252">
<ele>158.4</ele>
<time>2024-05-08T11:04:42Z</time>
</trkpt>
<trkpt lat="49.232849115505815" lon="9.222635217010977">
<ele>158.4</ele>
<time>2024-05-08T11:04:43Z</time>
</trkpt>
<trkpt lat="49.23283763229847" lon="9.22256849706173">
<ele>158.4</ele>
<time>2024-05-08T11:04:44Z</time>
</trkpt>
<trkpt lat="49.23283000476658" lon="9.222501693293452">
<ele>158.4</ele>
<time>2024-05-08T11:04:46Z</time>
</trkpt>
<trkpt lat="49.232803266495466" lon="9.22236816957593">
<ele>158.4</ele>
<time>2024-05-08T11:04:47Z</time>
</trkpt>
<trkpt lat="49.23279186710715" lon="9.222299521788957">
<ele>158.4</ele>
<time>2024-05-08T11:04:49Z</time>
</trkpt>
<trkpt lat="49.23277275636792" lon="9.222163148224354">
<ele>158.4</ele>
<time>2024-05-08T11:04:50Z</time>
</trkpt>
<trkpt lat="49.23276512883603" lon="9.222096428275108">
<ele>158.4</ele>
<time>2024-05-08T11:04:51Z</time>
</trkpt>
<trkpt lat="49.23275372944772" lon="9.222029624506831">
<ele>158.4</ele>
<time>2024-05-08T11:04:52Z</time>
</trkpt>
<trkpt lat="49.23274610191584" lon="9.221962904557586">
<ele>158.4</ele>
<time>2024-05-08T11:04:53Z</time>
</trkpt>
<trkpt lat="49.23273847438395" lon="9.221898028627038">
<ele>158.4</ele>
<time>2024-05-08T11:04:54Z</time>
</trkpt>
<trkpt lat="49.232726991176605" lon="9.22183508053422">
<ele>158.4</ele>
<time>2024-05-08T11:04:56Z</time>
</trkpt>
<trkpt lat="49.23271173611283" lon="9.221708262339234">
<ele>158.4</ele>
<time>2024-05-08T11:04:57Z</time>
</trkpt>
<trkpt lat="49.23269648104906" lon="9.221646236255763">
<ele>158.4</ele>
<time>2024-05-08T11:04:58Z</time>
</trkpt>
<trkpt lat="49.232692709192634" lon="9.221586221829057">
<ele>158.4</ele>
<time>2024-05-08T11:04:59Z</time>
</trkpt>
<trkpt lat="49.23269648104906" lon="9.22153660096228">
<ele>158.4</ele>
<time>2024-05-08T11:05:01Z</time>
</trkpt>
<trkpt lat="49.23271559178829" lon="9.22149653546512">
<ele>158.4</ele>
<time>2024-05-08T11:05:02Z</time>
</trkpt>
<trkpt lat="49.23274610191584" lon="9.221433587372305">
<ele>158.6</ele>
<time>2024-05-08T11:05:04Z</time>
</trkpt>
<trkpt lat="49.23275750130415" lon="9.221406932920218">
<ele>158.8</ele>
<time>2024-05-08T11:05:05Z</time>
</trkpt>
<trkpt lat="49.23278038389981" lon="9.221346834674478">
<ele>158.6</ele>
<time>2024-05-08T11:05:06Z</time>
</trkpt>
<trkpt lat="49.23279186710715" lon="9.221313474699857">
<ele>158.6</ele>
<time>2024-05-08T11:05:08Z</time>
</trkpt>
<trkpt lat="49.232788011431694" lon="9.22128288075328">
<ele>158.4</ele>
<time>2024-05-08T11:05:09Z</time>
</trkpt>
<trkpt lat="49.23278038389981" lon="9.22126192599535">
<ele>158.4</ele>
<time>2024-05-08T11:05:10Z</time>
</trkpt>
<trkpt lat="49.23276512883603" lon="9.221244743093848">
<ele>158.2</ele>
<time>2024-05-08T11:05:11Z</time>
</trkpt>
<trkpt lat="49.23274224624038" lon="9.221218088641765">
<ele>158</ele>
<time>2024-05-08T11:05:13Z</time>
</trkpt>
<trkpt lat="49.23273461870849" lon="9.22120182774961">
<ele>158</ele>
<time>2024-05-08T11:05:14Z</time>
</trkpt>
<trkpt lat="49.23271173611283" lon="9.22116469591856">
<ele>157.8</ele>
<time>2024-05-08T11:05:15Z</time>
</trkpt>
<trkpt lat="49.23270033672452" lon="9.2211436573416">
<ele>157.6</ele>
<time>2024-05-08T11:05:17Z</time>
</trkpt>
<trkpt lat="49.232688853517175" lon="9.221119852736592">
<ele>157.6</ele>
<time>2024-05-08T11:05:18Z</time>
</trkpt>
<trkpt lat="49.23267745412886" lon="9.221101747825742">
<ele>157.6</ele>
<time>2024-05-08T11:05:19Z</time>
</trkpt>
<trkpt lat="49.23264308832586" lon="9.22106646001339">
<ele>157.6</ele>
<time>2024-05-08T11:05:20Z</time>
</trkpt>
<trkpt lat="49.232627833262086" lon="9.22104449942708">
<ele>157.6</ele>
<time>2024-05-08T11:05:21Z</time>
</trkpt>
<trkpt lat="49.232608722522855" lon="9.221021616831422">
<ele>157.6</ele>
<time>2024-05-08T11:05:23Z</time>
</trkpt>
<trkpt lat="49.23258206807077" lon="9.220978701487184">
<ele>157.4</ele>
<time>2024-05-08T11:05:25Z</time>
</trkpt>
<trkpt lat="49.23257444053888" lon="9.220954813063145">
<ele>157.2</ele>
<time>2024-05-08T11:05:26Z</time>
</trkpt>
<trkpt lat="49.23256295733154" lon="9.22092815861106">
<ele>157.2</ele>
<time>2024-05-08T11:05:27Z</time>
</trkpt>
<trkpt lat="49.232547702267766" lon="9.220871916040778">
<ele>157</ele>
<time>2024-05-08T11:05:29Z</time>
</trkpt>
<trkpt lat="49.232547702267766" lon="9.22084517776966">
<ele>156.8</ele>
<time>2024-05-08T11:05:30Z</time>
</trkpt>
<trkpt lat="49.232551557943225" lon="9.220791785046458">
<ele>156.6</ele>
<time>2024-05-08T11:05:31Z</time>
</trkpt>
<trkpt lat="49.23255532979965" lon="9.22076504677534">
<ele>156.6</ele>
<time>2024-05-08T11:05:33Z</time>
</trkpt>
<trkpt lat="49.232551557943225" lon="9.220713581889868">
<ele>156.6</ele>
<time>2024-05-08T11:05:35Z</time>
</trkpt>
<trkpt lat="49.232547702267766" lon="9.220683071762323">
<ele>156.6</ele>
<time>2024-05-08T11:05:36Z</time>
</trkpt>
<trkpt lat="49.23253630287945" lon="9.220620123669503">
<ele>156.4</ele>
<time>2024-05-08T11:05:37Z</time>
</trkpt>
<trkpt lat="49.232532447203994" lon="9.22058860771358">
<ele>156.4</ele>
<time>2024-05-08T11:05:39Z</time>
</trkpt>
<trkpt lat="49.23252867534757" lon="9.22055147588253">
<ele>156.2</ele>
<time>2024-05-08T11:05:40Z</time>
</trkpt>
<trkpt lat="49.23252481967211" lon="9.2205133382231">
<ele>156.2</ele>
<time>2024-05-08T11:05:41Z</time>
</trkpt>
<trkpt lat="49.23250579275191" lon="9.2204303573817">
<ele>155.8</ele>
<time>2024-05-08T11:05:42Z</time>
</trkpt>
<trkpt lat="49.23249816522002" lon="9.220386436209084">
<ele>155.8</ele>
<time>2024-05-08T11:05:44Z</time>
</trkpt>
<trkpt lat="49.23249430954456" lon="9.220344526693223">
<ele>155.6</ele>
<time>2024-05-08T11:05:45Z</time>
</trkpt>
<trkpt lat="49.23248668201268" lon="9.220301611348988">
<ele>155.6</ele>
<time>2024-05-08T11:05:46Z</time>
</trkpt>
<trkpt lat="49.232471426948905" lon="9.220218630507588">
<ele>155.6</ele>
<time>2024-05-08T11:05:48Z</time>
</trkpt>
<trkpt lat="49.23245994374156" lon="9.22013657167554">
<ele>155.6</ele>
<time>2024-05-08T11:05:49Z</time>
</trkpt>
<trkpt lat="49.23245617188513" lon="9.22009650617838">
<ele>155.8</ele>
<time>2024-05-08T11:05:50Z</time>
</trkpt>
<trkpt lat="49.23244854435325" lon="9.22005652450025">
<ele>155.8</ele>
<time>2024-05-08T11:05:51Z</time>
</trkpt>
<trkpt lat="49.23244468867779" lon="9.22001645900309">
<ele>156</ele>
<time>2024-05-08T11:05:53Z</time>
</trkpt>
<trkpt lat="49.2324370611459" lon="9.2199744656682">
<ele>156</ele>
<time>2024-05-08T11:05:54Z</time>
</trkpt>
<trkpt lat="49.23242180608213" lon="9.219893412664533">
<ele>156.2</ele>
<time>2024-05-08T11:05:55Z</time>
</trkpt>
<trkpt lat="49.2324180342257" lon="9.219851419329643">
<ele>156.2</ele>
<time>2024-05-08T11:05:56Z</time>
</trkpt>
<trkpt lat="49.232410406693816" lon="9.219806659966707">
<ele>156.2</ele>
<time>2024-05-08T11:05:57Z</time>
</trkpt>
<trkpt lat="49.23240277916193" lon="9.21976181678474">
<ele>156.2</ele>
<time>2024-05-08T11:05:58Z</time>
</trkpt>
<trkpt lat="49.23239515163005" lon="9.219711273908615">
<ele>156.2</ele>
<time>2024-05-08T11:05:59Z</time>
</trkpt>
<trkpt lat="49.23238752409816" lon="9.21965972520411">
<ele>156.2</ele>
<time>2024-05-08T11:06:00Z</time>
</trkpt>
<trkpt lat="49.23237989656627" lon="9.219606332480907">
<ele>156.2</ele>
<time>2024-05-08T11:06:02Z</time>
</trkpt>
<trkpt lat="49.23236078582704" lon="9.219499547034502">
<ele>156.2</ele>
<time>2024-05-08T11:06:03Z</time>
</trkpt>
<trkpt lat="49.232353158295155" lon="9.21944514848292">
<ele>156.4</ele>
<time>2024-05-08T11:06:05Z</time>
</trkpt>
<trkpt lat="49.23233790323138" lon="9.219333585351706">
<ele>156.4</ele>
<time>2024-05-08T11:06:07Z</time>
</trkpt>
<trkpt lat="49.23231887631118" lon="9.219218250364063">
<ele>156.4</ele>
<time>2024-05-08T11:06:08Z</time>
</trkpt>
<trkpt lat="49.2323112487793" lon="9.219162929803131">
<ele>156.4</ele>
<time>2024-05-08T11:06:09Z</time>
</trkpt>
<trkpt lat="49.23229976557195" lon="9.21910660341382">
<ele>156.4</ele>
<time>2024-05-08T11:06:10Z</time>
</trkpt>
<trkpt lat="49.232292138040066" lon="9.219051282852888">
<ele>156.4</ele>
<time>2024-05-08T11:06:11Z</time>
</trkpt>
<trkpt lat="49.23228451050818" lon="9.218995040282609">
<ele>156.4</ele>
<time>2024-05-08T11:06:12Z</time>
</trkpt>
<trkpt lat="49.232273027300835" lon="9.218937791883944">
<ele>156.4</ele>
<time>2024-05-08T11:06:14Z</time>
</trkpt>
<trkpt lat="49.23225777223706" lon="9.218823378905654">
<ele>156.4</ele>
<time>2024-05-08T11:06:15Z</time>
</trkpt>
<trkpt lat="49.232250144705176" lon="9.218765208497643">
<ele>156.2</ele>
<time>2024-05-08T11:06:17Z</time>
</trkpt>
<trkpt lat="49.23223111778498" lon="9.218646939843891">
<ele>156</ele>
<time>2024-05-08T11:06:19Z</time>
</trkpt>
<trkpt lat="49.23220823518932" lon="9.218522971495986">
<ele>155.8</ele>
<time>2024-05-08T11:06:21Z</time>
</trkpt>
<trkpt lat="49.23220060765743" lon="9.218458095565438">
<ele>155.8</ele>
<time>2024-05-08T11:06:22Z</time>
</trkpt>
<trkpt lat="49.23219298012555" lon="9.21839707531035">
<ele>155.8</ele>
<time>2024-05-08T11:06:23Z</time>
</trkpt>
<trkpt lat="49.232173869386315" lon="9.218273106962442">
<ele>155.6</ele>
<time>2024-05-08T11:06:25Z</time>
</trkpt>
<trkpt lat="49.23215484246611" lon="9.218150060623884">
<ele>155.6</ele>
<time>2024-05-08T11:06:26Z</time>
</trkpt>
<trkpt lat="49.23214335925877" lon="9.218086190521715">
<ele>155.6</ele>
<time>2024-05-08T11:06:27Z</time>
</trkpt>
<trkpt lat="49.232131876051426" lon="9.2180232424289">
<ele>155.6</ele>
<time>2024-05-08T11:06:28Z</time>
</trkpt>
<trkpt lat="49.23212424851954" lon="9.21796029433608">
<ele>155.6</ele>
<time>2024-05-08T11:06:29Z</time>
</trkpt>
<trkpt lat="49.232116620987654" lon="9.217894496396184">
<ele>155.6</ele>
<time>2024-05-08T11:06:30Z</time>
</trkpt>
<trkpt lat="49.23210136592388" lon="9.217833476141095">
<ele>155.6</ele>
<time>2024-05-08T11:06:31Z</time>
</trkpt>
<trkpt lat="49.232093738391995" lon="9.217771450057626">
<ele>155.4</ele>
<time>2024-05-08T11:06:33Z</time>
</trkpt>
<trkpt lat="49.23206708393991" lon="9.21764463186264">
<ele>155.4</ele>
<time>2024-05-08T11:06:34Z</time>
</trkpt>
<trkpt lat="49.232055600732565" lon="9.217579839751124">
<ele>155.4</ele>
<time>2024-05-08T11:06:35Z</time>
</trkpt>
<trkpt lat="49.23204797320068" lon="9.217516891658306">
<ele>155.4</ele>
<time>2024-05-08T11:06:37Z</time>
</trkpt>
<trkpt lat="49.23202509060502" lon="9.217391917482018">
<ele>155.6</ele>
<time>2024-05-08T11:06:38Z</time>
</trkpt>
<trkpt lat="49.23200983554125" lon="9.21733181923628">
<ele>155.6</ele>
<time>2024-05-08T11:06:39Z</time>
</trkpt>
<trkpt lat="49.231998436152935" lon="9.217273648828268">
<ele>155.6</ele>
<time>2024-05-08T11:06:41Z</time>
</trkpt>
<trkpt lat="49.23198318108916" lon="9.217155380174518">
<ele>155.6</ele>
<time>2024-05-08T11:06:43Z</time>
</trkpt>
<trkpt lat="49.23197169788182" lon="9.21709536574781">
<ele>155.6</ele>
<time>2024-05-08T11:06:44Z</time>
</trkpt>
<trkpt lat="49.231956442818046" lon="9.21697516925633">
<ele>155.6</ele>
<time>2024-05-08T11:06:45Z</time>
</trkpt>
<trkpt lat="49.2319449596107" lon="9.21691507101059">
<ele>155.6</ele>
<time>2024-05-08T11:06:46Z</time>
</trkpt>
<trkpt lat="49.231937332078815" lon="9.216851200908422">
<ele>155.6</ele>
<time>2024-05-08T11:06:48Z</time>
</trkpt>
<trkpt lat="49.23191444948315" lon="9.216723376885056">
<ele>155.6</ele>
<time>2024-05-08T11:06:50Z</time>
</trkpt>
<trkpt lat="49.23190682195127" lon="9.21665858477354">
<ele>155.6</ele>
<time>2024-05-08T11:06:51Z</time>
</trkpt>
<trkpt lat="49.2318915668875" lon="9.216529838740826">
<ele>155.6</ele>
<time>2024-05-08T11:06:53Z</time>
</trkpt>
<trkpt lat="49.23188393935561" lon="9.216464962810278">
<ele>155.6</ele>
<time>2024-05-08T11:06:54Z</time>
</trkpt>
<trkpt lat="49.231880167499185" lon="9.21640008687973">
<ele>155.6</ele>
<time>2024-05-08T11:06:55Z</time>
</trkpt>
<trkpt lat="49.23186105675995" lon="9.216268490999935">
<ele>155.6</ele>
<time>2024-05-08T11:06:56Z</time>
</trkpt>
<trkpt lat="49.23184965737164" lon="9.21620361506939">
<ele>155.6</ele>
<time>2024-05-08T11:06:57Z</time>
</trkpt>
<trkpt lat="49.231838174164295" lon="9.216137817129493">
<ele>155.6</ele>
<time>2024-05-08T11:06:58Z</time>
</trkpt>
<trkpt lat="49.23182677477598" lon="9.216074869036674">
<ele>155.6</ele>
<time>2024-05-08T11:06:59Z</time>
</trkpt>
<trkpt lat="49.23181529156864" lon="9.216011920943856">
<ele>155.6</ele>
<time>2024-05-08T11:07:01Z</time>
</trkpt>
<trkpt lat="49.23180389218032" lon="9.215948050841687">
<ele>155.6</ele>
<time>2024-05-08T11:07:02Z</time>
</trkpt>
<trkpt lat="49.23178478144109" lon="9.215820310637357">
<ele>155.6</ele>
<time>2024-05-08T11:07:03Z</time>
</trkpt>
<trkpt lat="49.231777153909206" lon="9.215755434706807">
<ele>155.6</ele>
<time>2024-05-08T11:07:04Z</time>
</trkpt>
<trkpt lat="49.23176952637732" lon="9.21569156460464">
<ele>155.6</ele>
<time>2024-05-08T11:07:06Z</time>
</trkpt>
<trkpt lat="49.231758043169975" lon="9.215624760836365">
<ele>155.6</ele>
<time>2024-05-08T11:07:07Z</time>
</trkpt>
<trkpt lat="49.23175041563809" lon="9.215561812743545">
<ele>155.6</ele>
<time>2024-05-08T11:07:08Z</time>
</trkpt>
<trkpt lat="49.23173516057432" lon="9.21543306671083">
<ele>155.6</ele>
<time>2024-05-08T11:07:10Z</time>
</trkpt>
<trkpt lat="49.231719905510545" lon="9.215303398668766">
<ele>155.6</ele>
<time>2024-05-08T11:07:12Z</time>
</trkpt>
<trkpt lat="49.23171227797866" lon="9.215238522738218">
<ele>155.6</ele>
<time>2024-05-08T11:07:13Z</time>
</trkpt>
<trkpt lat="49.23169325105846" lon="9.215107848867774">
<ele>155.4</ele>
<time>2024-05-08T11:07:14Z</time>
</trkpt>
<trkpt lat="49.231681767851114" lon="9.215044900774956">
<ele>155.2</ele>
<time>2024-05-08T11:07:16Z</time>
</trkpt>
<trkpt lat="49.231662740930915" lon="9.21492193825543">
<ele>155</ele>
<time>2024-05-08T11:07:18Z</time>
</trkpt>
<trkpt lat="49.23165511339903" lon="9.21485991217196">
<ele>155</ele>
<time>2024-05-08T11:07:19Z</time>
</trkpt>
<trkpt lat="49.23164363019168" lon="9.214804591611028">
<ele>154.8</ele>
<time>2024-05-08T11:07:20Z</time>
</trkpt>
<trkpt lat="49.2316360026598" lon="9.214750276878476">
<ele>154.8</ele>
<time>2024-05-08T11:07:21Z</time>
</trkpt>
<trkpt lat="49.23162460327149" lon="9.214650113135576">
<ele>154.6</ele>
<time>2024-05-08T11:07:22Z</time>
</trkpt>
<trkpt lat="49.231620747596025" lon="9.214608119800689">
<ele>154.6</ele>
<time>2024-05-08T11:07:23Z</time>
</trkpt>
<trkpt lat="49.23161689192057" lon="9.214569982141256">
<ele>154.6</ele>
<time>2024-05-08T11:07:24Z</time>
</trkpt>
<trkpt lat="49.23161312006414" lon="9.214540477842093">
<ele>154.6</ele>
<time>2024-05-08T11:07:26Z</time>
</trkpt>
<trkpt lat="49.23159400932491" lon="9.21450519002974">
<ele>154.4</ele>
<time>2024-05-08T11:07:27Z</time>
</trkpt>
<trkpt lat="49.23158638179302" lon="9.214493706822395">
<ele>154.4</ele>
<time>2024-05-08T11:07:29Z</time>
</trkpt>
<trkpt lat="49.231578754261136" lon="9.2144813016057">
<ele>154.4</ele>
<time>2024-05-08T11:07:31Z</time>
</trkpt>
<trkpt lat="49.23157498240471" lon="9.214476523920894">
<ele>154.4</ele>
<time>2024-05-08T11:07:33Z</time>
</trkpt>
<trkpt lat="49.23157498240471" lon="9.214474596083164">
<ele>154.4</ele>
<time>2024-05-08T11:07:34Z</time>
</trkpt>
<trkpt lat="49.23157112672925" lon="9.214474596083164">
<ele>154.4</ele>
<time>2024-05-08T11:07:35Z</time>
</trkpt>
<trkpt lat="49.23156735487282" lon="9.21446512453258">
<ele>154.4</ele>
<time>2024-05-08T11:07:39Z</time>
</trkpt>
<trkpt lat="49.23155972734094" lon="9.214456491172314">
<ele>154.4</ele>
<time>2024-05-08T11:07:40Z</time>
</trkpt>
<trkpt lat="49.23155587166548" lon="9.214443163946273">
<ele>154.4</ele>
<time>2024-05-08T11:07:41Z</time>
</trkpt>
<trkpt lat="49.23155587166548" lon="9.214429836720228">
<ele>154.4</ele>
<time>2024-05-08T11:07:42Z</time>
</trkpt>
<trkpt lat="49.23153684474528" lon="9.214420281350613">
<ele>154.4</ele>
<time>2024-05-08T11:07:44Z</time>
</trkpt>
<trkpt lat="49.23151396214962" lon="9.214411731809378">
<ele>154.4</ele>
<time>2024-05-08T11:07:45Z</time>
</trkpt>
<trkpt lat="49.2314872238785" lon="9.214400248602033">
<ele>154.2</ele>
<time>2024-05-08T11:07:46Z</time>
</trkpt>
<trkpt lat="49.23146056942642" lon="9.21438692137599">
<ele>154.2</ele>
<time>2024-05-08T11:07:47Z</time>
</trkpt>
<trkpt lat="49.23143760301173" lon="9.214369738474488">
<ele>154</ele>
<time>2024-05-08T11:07:48Z</time>
</trkpt>
<trkpt lat="49.23139569349587" lon="9.214335372671483">
<ele>154</ele>
<time>2024-05-08T11:07:50Z</time>
</trkpt>
<trkpt lat="49.231365183368325" lon="9.214282985776665">
<ele>153.8</ele>
<time>2024-05-08T11:07:52Z</time>
</trkpt>
<trkpt lat="49.231346072629094" lon="9.214222887530925">
<ele>153.8</ele>
<time>2024-05-08T11:07:53Z</time>
</trkpt>
<trkpt lat="49.23133467324078" lon="9.2141895275563">
<ele>153.8</ele>
<time>2024-05-08T11:07:55Z</time>
</trkpt>
<trkpt lat="49.23132319003344" lon="9.214155161753297">
<ele>153.8</ele>
<time>2024-05-08T11:07:56Z</time>
</trkpt>
<trkpt lat="49.231307934969664" lon="9.21408835798502">
<ele>153.6</ele>
<time>2024-05-08T11:07:58Z</time>
</trkpt>
<trkpt lat="49.23129653558135" lon="9.214026415720582">
<ele>153.6</ele>
<time>2024-05-08T11:08:00Z</time>
</trkpt>
<trkpt lat="49.231288908049464" lon="9.213996827602386">
<ele>153.6</ele>
<time>2024-05-08T11:08:01Z</time>
</trkpt>
<trkpt lat="49.23128128051758" lon="9.213938657194376">
<ele>153.6</ele>
<time>2024-05-08T11:08:03Z</time>
</trkpt>
<trkpt lat="49.23127742484212" lon="9.213908147066832">
<ele>153.6</ele>
<time>2024-05-08T11:08:04Z</time>
</trkpt>
<trkpt lat="49.23126979731023" lon="9.21384997665882">
<ele>153.8</ele>
<time>2024-05-08T11:08:05Z</time>
</trkpt>
<trkpt lat="49.231265941634774" lon="9.213821394369006">
<ele>153.8</ele>
<time>2024-05-08T11:08:07Z</time>
</trkpt>
<trkpt lat="49.23125831410289" lon="9.213758446276188">
<ele>153.8</ele>
<time>2024-05-08T11:08:08Z</time>
</trkpt>
<trkpt lat="49.23125454224646" lon="9.213726930320265">
<ele>153.8</ele>
<time>2024-05-08T11:08:09Z</time>
</trkpt>
<trkpt lat="49.231246914714575" lon="9.21369164250791">
<ele>153.6</ele>
<time>2024-05-08T11:08:11Z</time>
</trkpt>
<trkpt lat="49.23124305903912" lon="9.213660210371016">
<ele>153.6</ele>
<time>2024-05-08T11:08:12Z</time>
</trkpt>
<trkpt lat="49.23123543150723" lon="9.213628694415092">
<ele>153.4</ele>
<time>2024-05-08T11:08:13Z</time>
</trkpt>
<trkpt lat="49.2312316596508" lon="9.21359533444047">
<ele>153.4</ele>
<time>2024-05-08T11:08:14Z</time>
</trkpt>
<trkpt lat="49.23122403211892" lon="9.213561974465849">
<ele>153.4</ele>
<time>2024-05-08T11:08:15Z</time>
</trkpt>
<trkpt lat="49.23121254891157" lon="9.213489471003411">
<ele>153.2</ele>
<time>2024-05-08T11:08:16Z</time>
</trkpt>
<trkpt lat="49.231208777055144" lon="9.213455189019442">
<ele>153</ele>
<time>2024-05-08T11:08:17Z</time>
</trkpt>
<trkpt lat="49.231204921379685" lon="9.21341797336936">
<ele>153</ele>
<time>2024-05-08T11:08:18Z</time>
</trkpt>
<trkpt lat="49.2311972938478" lon="9.21338176354766">
<ele>153.2</ele>
<time>2024-05-08T11:08:19Z</time>
</trkpt>
<trkpt lat="49.23119352199137" lon="9.213348319754004">
<ele>153.2</ele>
<time>2024-05-08T11:08:20Z</time>
</trkpt>
<trkpt lat="49.23118966631591" lon="9.213313031941652">
<ele>153.2</ele>
<time>2024-05-08T11:08:21Z</time>
</trkpt>
<trkpt lat="49.231185894459486" lon="9.21327874995768">
<ele>153.4</ele>
<time>2024-05-08T11:08:22Z</time>
</trkpt>
<trkpt lat="49.2311782669276" lon="9.213243462145329">
<ele>153.4</ele>
<time>2024-05-08T11:08:24Z</time>
</trkpt>
<trkpt lat="49.231166783720255" lon="9.213172886520624">
<ele>153.6</ele>
<time>2024-05-08T11:08:26Z</time>
</trkpt>
<trkpt lat="49.23115152865648" lon="9.21310130506754">
<ele>153.6</ele>
<time>2024-05-08T11:08:27Z</time>
</trkpt>
<trkpt lat="49.231147756800056" lon="9.213067023083568">
<ele>153.8</ele>
<time>2024-05-08T11:08:28Z</time>
</trkpt>
<trkpt lat="49.23114012926817" lon="9.213031735271215">
<ele>153.8</ele>
<time>2024-05-08T11:08:29Z</time>
</trkpt>
<trkpt lat="49.23113627359271" lon="9.21300021931529">
<ele>153.8</ele>
<time>2024-05-08T11:08:31Z</time>
</trkpt>
<trkpt lat="49.2311248742044" lon="9.212938277050853">
<ele>153.8</ele>
<time>2024-05-08T11:08:32Z</time>
</trkpt>
<trkpt lat="49.23111724667251" lon="9.21290491707623">
<ele>153.8</ele>
<time>2024-05-08T11:08:33Z</time>
</trkpt>
<trkpt lat="49.23111339099705" lon="9.212868623435496">
<ele>153.8</ele>
<time>2024-05-08T11:08:35Z</time>
</trkpt>
<trkpt lat="49.23111339099705" lon="9.212828557938336">
<ele>153.8</ele>
<time>2024-05-08T11:08:36Z</time>
</trkpt>
<trkpt lat="49.231109619140625" lon="9.212757982313631">
<ele>153.6</ele>
<time>2024-05-08T11:08:37Z</time>
</trkpt>
<trkpt lat="49.231109619140625" lon="9.21272655017674">
<ele>153.6</ele>
<time>2024-05-08T11:08:38Z</time>
</trkpt>
<trkpt lat="49.23111339099705" lon="9.21269034035504">
<ele>153.6</ele>
<time>2024-05-08T11:08:40Z</time>
</trkpt>
<trkpt lat="49.23113250173628" lon="9.21260828152299">
<ele>153.6</ele>
<time>2024-05-08T11:08:42Z</time>
</trkpt>
<trkpt lat="49.23115152865648" lon="9.212539633736014">
<ele>153.6</ele>
<time>2024-05-08T11:08:43Z</time>
</trkpt>
<trkpt lat="49.23115915618837" lon="9.212516751140356">
<ele>153.6</ele>
<time>2024-05-08T11:08:44Z</time>
</trkpt>
<trkpt lat="49.23115915618837" lon="9.212499568238854">
<ele>153.4</ele>
<time>2024-05-08T11:08:45Z</time>
</trkpt>
<trkpt lat="49.231166783720255" lon="9.212481463328004">
<ele>153.4</ele>
<time>2024-05-08T11:08:46Z</time>
</trkpt>
<trkpt lat="49.231170639395714" lon="9.212466208264232">
<ele>153.2</ele>
<time>2024-05-08T11:08:47Z</time>
</trkpt>
<trkpt lat="49.23117441125214" lon="9.212452881038187">
<ele>153.2</ele>
<time>2024-05-08T11:08:48Z</time>
</trkpt>
<trkpt lat="49.231170639395714" lon="9.212436620146036">
<ele>153</ele>
<time>2024-05-08T11:08:50Z</time>
</trkpt>
<trkpt lat="49.23115152865648" lon="9.21244994737208">
<ele>152.8</ele>
<time>2024-05-08T11:08:52Z</time>
</trkpt>
<trkpt lat="49.2311439011246" lon="9.212471907958388">
<ele>152.8</ele>
<time>2024-05-08T11:08:53Z</time>
</trkpt>
<trkpt lat="49.23114012926817" lon="9.212491940706968">
<ele>152.8</ele>
<time>2024-05-08T11:08:54Z</time>
</trkpt>
<trkpt lat="49.23113250173628" lon="9.212519600987434">
<ele>152.8</ele>
<time>2024-05-08T11:08:55Z</time>
</trkpt>
<trkpt lat="49.2311248742044" lon="9.212543405592442">
<ele>152.8</ele>
<time>2024-05-08T11:08:56Z</time>
</trkpt>
<trkpt lat="49.23112101852894" lon="9.21260350383818">
<ele>152.6</ele>
<time>2024-05-08T11:08:58Z</time>
</trkpt>
<trkpt lat="49.2311248742044" lon="9.212631164118648">
<ele>152.6</ele>
<time>2024-05-08T11:08:59Z</time>
</trkpt>
<trkpt lat="49.23113627359271" lon="9.212677935138345">
<ele>152.6</ele>
<time>2024-05-08T11:09:01Z</time>
</trkpt>
<trkpt lat="49.23115152865648" lon="9.212711295112967">
<ele>152.6</ele>
<time>2024-05-08T11:09:03Z</time>
</trkpt>
<trkpt lat="49.23116301186383" lon="9.212716994807124">
<ele>152.6</ele>
<time>2024-05-08T11:09:04Z</time>
</trkpt>
<trkpt lat="49.23117441125214" lon="9.212716994807124">
<ele>152.6</ele>
<time>2024-05-08T11:09:05Z</time>
</trkpt>
<trkpt lat="49.231204921379685" lon="9.212695118039846">
<ele>152.8</ele>
<time>2024-05-08T11:09:06Z</time>
</trkpt>
<trkpt lat="49.23122017644346" lon="9.212676929309964">
<ele>153</ele>
<time>2024-05-08T11:09:07Z</time>
</trkpt>
<trkpt lat="49.23123543150723" lon="9.21265027485788">
<ele>153</ele>
<time>2024-05-08T11:09:09Z</time>
</trkpt>
<trkpt lat="49.23125831410289" lon="9.212576849386096">
<ele>153.2</ele>
<time>2024-05-08T11:09:10Z</time>
</trkpt>
<trkpt lat="49.231265941634774" lon="9.212532928213475">
<ele>153.4</ele>
<time>2024-05-08T11:09:11Z</time>
</trkpt>
<trkpt lat="49.23126979731023" lon="9.212486241012812">
<ele>153.4</ele>
<time>2024-05-08T11:09:13Z</time>
</trkpt>
<trkpt lat="49.231265941634774" lon="9.212434692308308">
<ele>153.4</ele>
<time>2024-05-08T11:09:14Z</time>
</trkpt>
<trkpt lat="49.231246914714575" lon="9.212318351492286">
<ele>153.6</ele>
<time>2024-05-08T11:09:15Z</time>
</trkpt>
<trkpt lat="49.23123928718269" lon="9.21225163154304">
<ele>153.6</ele>
<time>2024-05-08T11:09:17Z</time>
</trkpt>
<trkpt lat="49.23121640458703" lon="9.212101930752397">
<ele>153.8</ele>
<time>2024-05-08T11:09:18Z</time>
</trkpt>
<trkpt lat="49.231204921379685" lon="9.21201509423554">
<ele>153.8</ele>
<time>2024-05-08T11:09:20Z</time>
</trkpt>
<trkpt lat="49.23119352199137" lon="9.211924485862257">
<ele>154</ele>
<time>2024-05-08T11:09:21Z</time>
</trkpt>
<trkpt lat="49.231166783720255" lon="9.211752824485302">
<ele>154.2</ele>
<time>2024-05-08T11:09:22Z</time>
</trkpt>
<trkpt lat="49.23115538433194" lon="9.211673699319364">
<ele>154.4</ele>
<time>2024-05-08T11:09:24Z</time>
</trkpt>
<trkpt lat="49.23114012926817" lon="9.21152014285326">
<ele>154.4</ele>
<time>2024-05-08T11:09:25Z</time>
</trkpt>
<trkpt lat="49.231128646060824" lon="9.211446717381476">
<ele>154.6</ele>
<time>2024-05-08T11:09:26Z</time>
</trkpt>
<trkpt lat="49.23112101852894" lon="9.211376141756771">
<ele>154.6</ele>
<time>2024-05-08T11:09:27Z</time>
</trkpt>
<trkpt lat="49.231109619140625" lon="9.211310343816876">
<ele>154.6</ele>
<time>2024-05-08T11:09:28Z</time>
</trkpt>
<trkpt lat="49.23110190778971" lon="9.21124454587698">
<ele>154.8</ele>
<time>2024-05-08T11:09:29Z</time>
</trkpt>
<trkpt lat="49.23109428025782" lon="9.211181597784162">
<ele>154.8</ele>
<time>2024-05-08T11:09:30Z</time>
</trkpt>
<trkpt lat="49.231086652725935" lon="9.211111944168806">
<ele>155</ele>
<time>2024-05-08T11:09:32Z</time>
</trkpt>
<trkpt lat="49.23107139766216" lon="9.210960315540431">
<ele>155.2</ele>
<time>2024-05-08T11:09:34Z</time>
</trkpt>
<trkpt lat="49.23106377013028" lon="9.210878340527415">
<ele>155.2</ele>
<time>2024-05-08T11:09:35Z</time>
</trkpt>
<trkpt lat="49.231048515066504" lon="9.210696201771498">
<ele>155.4</ele>
<time>2024-05-08T11:09:36Z</time>
</trkpt>
<trkpt lat="49.23104474321008" lon="9.210601737722754">
<ele>155.4</ele>
<time>2024-05-08T11:09:37Z</time>
</trkpt>
<trkpt lat="49.23104474321008" lon="9.210508279502392">
<ele>155.6</ele>
<time>2024-05-08T11:09:38Z</time>
</trkpt>
<trkpt lat="49.23104474321008" lon="9.210428232327104">
<ele>155.6</ele>
<time>2024-05-08T11:09:40Z</time>
</trkpt>
<trkpt lat="49.23104474321008" lon="9.210300408303738">
<ele>155.6</ele>
<time>2024-05-08T11:09:41Z</time>
</trkpt>
<trkpt lat="49.23104088753462" lon="9.210243159905076">
<ele>155.6</ele>
<time>2024-05-08T11:09:42Z</time>
</trkpt>
<trkpt lat="49.23103326000273" lon="9.210201250389218">
<ele>155.6</ele>
<time>2024-05-08T11:09:44Z</time>
</trkpt>
<trkpt lat="49.231029488146305" lon="9.210144923999906">
<ele>155.6</ele>
<time>2024-05-08T11:09:45Z</time>
</trkpt>
<trkpt lat="49.23103326000273" lon="9.20998189598322">
<ele>155.6</ele>
<time>2024-05-08T11:09:46Z</time>
</trkpt>
<trkpt lat="49.23103326000273" lon="9.209884582087398">
<ele>155.6</ele>
<time>2024-05-08T11:09:47Z</time>
</trkpt>
<trkpt lat="49.231029488146305" lon="9.209774946793914">
<ele>155.6</ele>
<time>2024-05-08T11:09:48Z</time>
</trkpt>
<trkpt lat="49.231029488146305" lon="9.209661455824971">
<ele>155.6</ele>
<time>2024-05-08T11:09:50Z</time>
</trkpt>
<trkpt lat="49.231029488146305" lon="9.209556514397264">
<ele>155.6</ele>
<time>2024-05-08T11:09:51Z</time>
</trkpt>
<trkpt lat="49.231029488146305" lon="9.209453500807284">
<ele>155.6</ele>
<time>2024-05-08T11:09:52Z</time>
</trkpt>
<trkpt lat="49.231029488146305" lon="9.209349565207958">
<ele>155.6</ele>
<time>2024-05-08T11:09:53Z</time>
</trkpt>
<trkpt lat="49.23103326000273" lon="9.209253257140515">
<ele>155.6</ele>
<time>2024-05-08T11:09:54Z</time>
</trkpt>
<trkpt lat="49.23103326000273" lon="9.209156949073076">
<ele>155.6</ele>
<time>2024-05-08T11:09:55Z</time>
</trkpt>
<trkpt lat="49.23103711567819" lon="9.208976738154888">
<ele>155.6</ele>
<time>2024-05-08T11:09:57Z</time>
</trkpt>
<trkpt lat="49.23103711567819" lon="9.20889375731349">
<ele>155.6</ele>
<time>2024-05-08T11:09:58Z</time>
</trkpt>
<trkpt lat="49.23103326000273" lon="9.208809770643713">
<ele>155.6</ele>
<time>2024-05-08T11:09:59Z</time>
</trkpt>
<trkpt lat="49.23104474321008" lon="9.208648670464754">
<ele>155.6</ele>
<time>2024-05-08T11:10:01Z</time>
</trkpt>
<trkpt lat="49.23106377013028" lon="9.20847985893488">
<ele>155.6</ele>
<time>2024-05-08T11:10:02Z</time>
</trkpt>
<trkpt lat="49.23107525333762" lon="9.208406433463097">
<ele>155.6</ele>
<time>2024-05-08T11:10:04Z</time>
</trkpt>
<trkpt lat="49.23107902519405" lon="9.208330074325204">
<ele>155.8</ele>
<time>2024-05-08T11:10:05Z</time>
</trkpt>
<trkpt lat="49.23107525333762" lon="9.208259582519531">
<ele>155.8</ele>
<time>2024-05-08T11:10:06Z</time>
</trkpt>
<trkpt lat="49.23107525333762" lon="9.208193700760605">
<ele>156</ele>
<time>2024-05-08T11:10:07Z</time>
</trkpt>
<trkpt lat="49.23107525333762" lon="9.208033522590997">
<ele>156.2</ele>
<time>2024-05-08T11:10:09Z</time>
</trkpt>
<trkpt lat="49.23107525333762" lon="9.20786278322339">
<ele>156.4</ele>
<time>2024-05-08T11:10:11Z</time>
</trkpt>
<trkpt lat="49.23106377013028" lon="9.207773180678489">
<ele>156.4</ele>
<time>2024-05-08T11:10:12Z</time>
</trkpt>
<trkpt lat="49.23105237074196" lon="9.207601519301534">
<ele>156.6</ele>
<time>2024-05-08T11:10:14Z</time>
</trkpt>
<trkpt lat="49.23104474321008" lon="9.207513760775328">
<ele>156.6</ele>
<time>2024-05-08T11:10:15Z</time>
</trkpt>
<trkpt lat="49.23103326000273" lon="9.20733162201941">
<ele>156.6</ele>
<time>2024-05-08T11:10:16Z</time>
</trkpt>
<trkpt lat="49.23102186061442" lon="9.207229614257813">
<ele>156.6</ele>
<time>2024-05-08T11:10:17Z</time>
</trkpt>
<trkpt lat="49.23101423308253" lon="9.207139927893875">
<ele>156.4</ele>
<time>2024-05-08T11:10:19Z</time>
</trkpt>
<trkpt lat="49.23100274987519" lon="9.207048397511244">
<ele>156.4</ele>
<time>2024-05-08T11:10:20Z</time>
</trkpt>
<trkpt lat="49.2309951223433" lon="9.206961560994388">
<ele>156.6</ele>
<time>2024-05-08T11:10:21Z</time>
</trkpt>
<trkpt lat="49.2309951223433" lon="9.20687480829656">
<ele>156.6</ele>
<time>2024-05-08T11:10:22Z</time>
</trkpt>
<trkpt lat="49.2309951223433" lon="9.206703146919608">
<ele>156.6</ele>
<time>2024-05-08T11:10:24Z</time>
</trkpt>
<trkpt lat="49.230991350486875" lon="9.206536263227465">
<ele>156.6</ele>
<time>2024-05-08T11:10:25Z</time>
</trkpt>
<trkpt lat="49.230987494811416" lon="9.206455210223794">
<ele>156.6</ele>
<time>2024-05-08T11:10:27Z</time>
</trkpt>
<trkpt lat="49.2309760954231" lon="9.206377007067204">
<ele>156.8</ele>
<time>2024-05-08T11:10:28Z</time>
</trkpt>
<trkpt lat="49.230968467891216" lon="9.206218672916291">
<ele>157</ele>
<time>2024-05-08T11:10:29Z</time>
</trkpt>
<trkpt lat="49.23096084035933" lon="9.206132842227817">
<ele>157</ele>
<time>2024-05-08T11:10:31Z</time>
</trkpt>
<trkpt lat="49.23095321282744" lon="9.206051789224148">
<ele>157.2</ele>
<time>2024-05-08T11:10:32Z</time>
</trkpt>
<trkpt lat="49.230949357151985" lon="9.205978363752363">
<ele>157.2</ele>
<time>2024-05-08T11:10:33Z</time>
</trkpt>
<trkpt lat="49.230930246412754" lon="9.205838134512303">
<ele>157.2</ele>
<time>2024-05-08T11:10:35Z</time>
</trkpt>
<trkpt lat="49.23091499134898" lon="9.205690361559393">
<ele>157</ele>
<time>2024-05-08T11:10:37Z</time>
</trkpt>
<trkpt lat="49.230888336896896" lon="9.20553487725556">
<ele>156.8</ele>
<time>2024-05-08T11:10:38Z</time>
</trkpt>
<trkpt lat="49.23087308183312" lon="9.20545189641416">
<ele>156.8</ele>
<time>2024-05-08T11:10:39Z</time>
</trkpt>
<trkpt lat="49.23085397109389" lon="9.205371849238873">
<ele>156.8</ele>
<time>2024-05-08T11:10:40Z</time>
</trkpt>
<trkpt lat="49.23083871603012" lon="9.20529649592936">
<ele>156.6</ele>
<time>2024-05-08T11:10:41Z</time>
</trkpt>
<trkpt lat="49.23081968910992" lon="9.2052202206105">
<ele>156.4</ele>
<time>2024-05-08T11:10:42Z</time>
</trkpt>
<trkpt lat="49.23080057837069" lon="9.205149644985797">
<ele>156.4</ele>
<time>2024-05-08T11:10:43Z</time>
</trkpt>
<trkpt lat="49.23078155145049" lon="9.205071441829205">
<ele>156.2</ele>
<time>2024-05-08T11:10:44Z</time>
</trkpt>
<trkpt lat="49.2307585850358" lon="9.204993238672614">
<ele>156.2</ele>
<time>2024-05-08T11:10:45Z</time>
</trkpt>
<trkpt lat="49.2307395581156" lon="9.204913107678294">
<ele>156.2</ele>
<time>2024-05-08T11:10:46Z</time>
</trkpt>
<trkpt lat="49.23071667551994" lon="9.204832054674624">
<ele>156.2</ele>
<time>2024-05-08T11:10:47Z</time>
</trkpt>
<trkpt lat="49.23069756478071" lon="9.204751923680304">
<ele>156.2</ele>
<time>2024-05-08T11:10:49Z</time>
</trkpt>
<trkpt lat="49.230655655264854" lon="9.204593589529397">
<ele>156.2</ele>
<time>2024-05-08T11:10:51Z</time>
</trkpt>
<trkpt lat="49.23063654452562" lon="9.204516392201183">
<ele>156</ele>
<time>2024-05-08T11:10:52Z</time>
</trkpt>
<trkpt lat="49.230617517605424" lon="9.204441960901022">
<ele>156</ele>
<time>2024-05-08T11:10:53Z</time>
</trkpt>
<trkpt lat="49.23058315180242" lon="9.204286560416222">
<ele>155.6</ele>
<time>2024-05-08T11:10:54Z</time>
</trkpt>
<trkpt lat="49.23057166859507" lon="9.204208357259631">
<ele>155.6</ele>
<time>2024-05-08T11:10:55Z</time>
</trkpt>
<trkpt lat="49.2305564135313" lon="9.20413015410304">
<ele>155.4</ele>
<time>2024-05-08T11:10:56Z</time>
</trkpt>
<trkpt lat="49.23054501414299" lon="9.20405195094645">
<ele>155.2</ele>
<time>2024-05-08T11:10:57Z</time>
</trkpt>
<trkpt lat="49.230533530935645" lon="9.203974669799209">
<ele>155.2</ele>
<time>2024-05-08T11:10:59Z</time>
</trkpt>
<trkpt lat="49.23052975907922" lon="9.203898394480348">
<ele>155</ele>
<time>2024-05-08T11:11:00Z</time>
</trkpt>
<trkpt lat="49.23052590340376" lon="9.20375632122159">
<ele>155</ele>
<time>2024-05-08T11:11:01Z</time>
</trkpt>
<trkpt lat="49.23052590340376" lon="9.20369815081358">
<ele>155</ele>
<time>2024-05-08T11:11:03Z</time>
</trkpt>
<trkpt lat="49.23051827587187" lon="9.20355699956417">
<ele>154.8</ele>
<time>2024-05-08T11:11:04Z</time>
</trkpt>
<trkpt lat="49.230514504015446" lon="9.203484496101735">
<ele>154.8</ele>
<time>2024-05-08T11:11:05Z</time>
</trkpt>
<trkpt lat="49.23051064833999" lon="9.20341869816184">
<ele>154.8</ele>
<time>2024-05-08T11:11:07Z</time>
</trkpt>
<trkpt lat="49.230514504015446" lon="9.2033585999161">
<ele>154.8</ele>
<time>2024-05-08T11:11:08Z</time>
</trkpt>
<trkpt lat="49.23052213154733" lon="9.203309984877706">
<ele>154.8</ele>
<time>2024-05-08T11:11:09Z</time>
</trkpt>
<trkpt lat="49.2305564135313" lon="9.203227926045656">
<ele>154.8</ele>
<time>2024-05-08T11:11:10Z</time>
</trkpt>
<trkpt lat="49.23057166859507" lon="9.203187860548496">
<ele>154.8</ele>
<time>2024-05-08T11:11:11Z</time>
</trkpt>
<trkpt lat="49.23058315180242" lon="9.203144945204258">
<ele>154.8</ele>
<time>2024-05-08T11:11:13Z</time>
</trkpt>
<trkpt lat="49.23060989007354" lon="9.203069675713778">
<ele>154.8</ele>
<time>2024-05-08T11:11:14Z</time>
</trkpt>
<trkpt lat="49.23062891699374" lon="9.203038159757853">
<ele>154.8</ele>
<time>2024-05-08T11:11:16Z</time>
</trkpt>
<trkpt lat="49.23066328279674" lon="9.202971439808609">
<ele>154.8</ele>
<time>2024-05-08T11:11:18Z</time>
</trkpt>
<trkpt lat="49.23068230971694" lon="9.202941851690412">
<ele>154.8</ele>
<time>2024-05-08T11:11:19Z</time>
</trkpt>
<trkpt lat="49.23069756478071" lon="9.202910419553518">
<ele>154.6</ele>
<time>2024-05-08T11:11:20Z</time>
</trkpt>
<trkpt lat="49.230731930583715" lon="9.202848393470047">
<ele>154.4</ele>
<time>2024-05-08T11:11:22Z</time>
</trkpt>
<trkpt lat="49.230770068243146" lon="9.202776895835996">
<ele>154.4</ele>
<time>2024-05-08T11:11:23Z</time>
</trkpt>
<trkpt lat="49.23078917898238" lon="9.202739680185914">
<ele>154.4</ele>
<time>2024-05-08T11:11:25Z</time>
</trkpt>
<trkpt lat="49.23082346096635" lon="9.202674804255366">
<ele>154.4</ele>
<time>2024-05-08T11:11:26Z</time>
</trkpt>
<trkpt lat="49.23084257170558" lon="9.202646221965551">
<ele>154.4</ele>
<time>2024-05-08T11:11:28Z</time>
</trkpt>
<trkpt lat="49.230869226157665" lon="9.202591823413968">
<ele>154.4</ele>
<time>2024-05-08T11:11:29Z</time>
</trkpt>
<trkpt lat="49.23088448122144" lon="9.202565168961884">
<ele>154.4</ele>
<time>2024-05-08T11:11:30Z</time>
</trkpt>
<trkpt lat="49.23089596442878" lon="9.202540358528497">
<ele>154.4</ele>
<time>2024-05-08T11:11:31Z</time>
</trkpt>
<trkpt lat="49.230907363817096" lon="9.202516553923488">
<ele>154.4</ele>
<time>2024-05-08T11:11:33Z</time>
</trkpt>
<trkpt lat="49.2309417296201" lon="9.20245360583067">
<ele>154.4</ele>
<time>2024-05-08T11:11:34Z</time>
</trkpt>
<trkpt lat="49.23096084035933" lon="9.202418318018315">
<ele>154.4</ele>
<time>2024-05-08T11:11:36Z</time>
</trkpt>
<trkpt lat="49.23097986727953" lon="9.202380180358888">
<ele>154.4</ele>
<time>2024-05-08T11:11:37Z</time>
</trkpt>
<trkpt lat="49.23098372295499" lon="9.202298121526836">
<ele>154.4</ele>
<time>2024-05-08T11:11:39Z</time>
</trkpt>
<trkpt lat="49.23097223974764" lon="9.202264761552216">
<ele>154.4</ele>
<time>2024-05-08T11:11:40Z</time>
</trkpt>
<trkpt lat="49.23092647455633" lon="9.202210363000631">
<ele>154.4</ele>
<time>2024-05-08T11:11:41Z</time>
</trkpt>
<trkpt lat="49.230911219492555" lon="9.20217507518828">
<ele>154.4</ele>
<time>2024-05-08T11:11:43Z</time>
</trkpt>
<trkpt lat="49.23089973628521" lon="9.20213500969112">
<ele>154.4</ele>
<time>2024-05-08T11:11:44Z</time>
</trkpt>
<trkpt lat="49.23091884702444" lon="9.202054962515833">
<ele>154.2</ele>
<time>2024-05-08T11:11:46Z</time>
</trkpt>
<trkpt lat="49.230930246412754" lon="9.202014897018673">
<ele>154.2</ele>
<time>2024-05-08T11:11:47Z</time>
</trkpt>
<trkpt lat="49.23095321282744" lon="9.201968125998974">
<ele>154</ele>
<time>2024-05-08T11:11:48Z</time>
</trkpt>
<trkpt lat="49.2309760954231" lon="9.201923366636038">
<ele>154</ele>
<time>2024-05-08T11:11:49Z</time>
</trkpt>
<trkpt lat="49.23101423308253" lon="9.20184038579464">
<ele>153.8</ele>
<time>2024-05-08T11:11:50Z</time>
</trkpt>
<trkpt lat="49.23103326000273" lon="9.20179839245975">
<ele>153.8</ele>
<time>2024-05-08T11:11:51Z</time>
</trkpt>
<trkpt lat="49.23105237074196" lon="9.20175639912486">
<ele>153.6</ele>
<time>2024-05-08T11:11:53Z</time>
</trkpt>
<trkpt lat="49.23107139766216" lon="9.201716417446733">
<ele>153.6</ele>
<time>2024-05-08T11:11:54Z</time>
</trkpt>
<trkpt lat="49.23109428025782" lon="9.201676351949573">
<ele>153.6</ele>
<time>2024-05-08T11:11:55Z</time>
</trkpt>
<trkpt lat="49.23114012926817" lon="9.201596220955253">
<ele>153.4</ele>
<time>2024-05-08T11:11:56Z</time>
</trkpt>
<trkpt lat="49.23116301186383" lon="9.201556155458093">
<ele>153.4</ele>
<time>2024-05-08T11:11:57Z</time>
</trkpt>
<trkpt lat="49.23118966631591" lon="9.201517095789312">
<ele>153.4</ele>
<time>2024-05-08T11:11:58Z</time>
</trkpt>
<trkpt lat="49.23121254891157" lon="9.201477030292152">
<ele>153.4</ele>
<time>2024-05-08T11:11:59Z</time>
</trkpt>
<trkpt lat="49.23123543150723" lon="9.201437886804342">
<ele>153.4</ele>
<time>2024-05-08T11:12:01Z</time>
</trkpt>
<trkpt lat="49.23127356916666" lon="9.201373094692826">
<ele>153.4</ele>
<time>2024-05-08T11:12:03Z</time>
</trkpt>
<trkpt lat="49.23132319003344" lon="9.20132540166378">
<ele>153.6</ele>
<time>2024-05-08T11:12:04Z</time>
</trkpt>
<trkpt lat="49.23134992830455" lon="9.20130821876228">
<ele>153.6</ele>
<time>2024-05-08T11:12:06Z</time>
</trkpt>
<trkpt lat="49.23141094855964" lon="9.201251976191998">
<ele>153.6</ele>
<time>2024-05-08T11:12:08Z</time>
</trkpt>
<trkpt lat="49.2314681969583" lon="9.201173773035409">
<ele>153.6</ele>
<time>2024-05-08T11:12:10Z</time>
</trkpt>
<trkpt lat="49.23149485141039" lon="9.201131779700518">
<ele>153.6</ele>
<time>2024-05-08T11:12:11Z</time>
</trkpt>
<trkpt lat="49.231544472277164" lon="9.2010498046875">
<ele>153.6</ele>
<time>2024-05-08T11:12:12Z</time>
</trkpt>
<trkpt lat="49.23157112672925" lon="9.20100973919034">
<ele>153.6</ele>
<time>2024-05-08T11:12:13Z</time>
</trkpt>
<trkpt lat="49.23159400932491" lon="9.2009686678648">
<ele>153.8</ele>
<time>2024-05-08T11:12:15Z</time>
</trkpt>
<trkpt lat="49.23163985833526" lon="9.200886692851782">
<ele>153.8</ele>
<time>2024-05-08T11:12:16Z</time>
</trkpt>
<trkpt lat="49.23166651278734" lon="9.200843777507544">
<ele>154</ele>
<time>2024-05-08T11:12:18Z</time>
</trkpt>
<trkpt lat="49.231689395383" lon="9.200801784172654">
<ele>154</ele>
<time>2024-05-08T11:12:19Z</time>
</trkpt>
<trkpt lat="49.231739016249776" lon="9.200717881321909">
<ele>154.2</ele>
<time>2024-05-08T11:12:21Z</time>
</trkpt>
<trkpt lat="49.231780925765634" lon="9.200628278777003">
<ele>154.2</ele>
<time>2024-05-08T11:12:22Z</time>
</trkpt>
<trkpt lat="49.231800036504865" lon="9.200581507757306">
<ele>154.2</ele>
<time>2024-05-08T11:12:23Z</time>
</trkpt>
<trkpt lat="49.23182291910052" lon="9.200536664575338">
<ele>154.2</ele>
<time>2024-05-08T11:12:25Z</time>
</trkpt>
<trkpt lat="49.23185342922807" lon="9.200443206354976">
<ele>154.2</ele>
<time>2024-05-08T11:12:26Z</time>
</trkpt>
<trkpt lat="49.2318725399673" lon="9.20039459131658">
<ele>154.2</ele>
<time>2024-05-08T11:12:28Z</time>
</trkpt>
<trkpt lat="49.23188779503107" lon="9.200344970449803">
<ele>154</ele>
<time>2024-05-08T11:12:29Z</time>
</trkpt>
<trkpt lat="49.23190682195127" lon="9.20029828324914">
<ele>154</ele>
<time>2024-05-08T11:12:30Z</time>
</trkpt>
<trkpt lat="49.23196021467447" lon="9.20021622441709">
<ele>154.2</ele>
<time>2024-05-08T11:12:31Z</time>
</trkpt>
<trkpt lat="49.23198695294559" lon="9.200175236910582">
<ele>154.2</ele>
<time>2024-05-08T11:12:32Z</time>
</trkpt>
<trkpt lat="49.23201369121671" lon="9.200133243575692">
<ele>154.4</ele>
<time>2024-05-08T11:12:33Z</time>
</trkpt>
<trkpt lat="49.23204034566879" lon="9.200093261897564">
<ele>154.4</ele>
<time>2024-05-08T11:12:34Z</time>
</trkpt>
<trkpt lat="49.23206708393991" lon="9.200055040419102">
<ele>154.4</ele>
<time>2024-05-08T11:12:35Z</time>
</trkpt>
<trkpt lat="49.23208996653557" lon="9.200017908588052">
<ele>154.6</ele>
<time>2024-05-08T11:12:36Z</time>
</trkpt>
<trkpt lat="49.23210899345577" lon="9.199983542785048">
<ele>154.6</ele>
<time>2024-05-08T11:12:37Z</time>
</trkpt>
<trkpt lat="49.232128104195" lon="9.199950182810426">
<ele>154.6</ele>
<time>2024-05-08T11:12:39Z</time>
</trkpt>
<trkpt lat="49.23216624185443" lon="9.19987960718572">
<ele>154.6</ele>
<time>2024-05-08T11:12:40Z</time>
</trkpt>
<trkpt lat="49.2321814969182" lon="9.199848175048828">
<ele>154.8</ele>
<time>2024-05-08T11:12:41Z</time>
</trkpt>
<trkpt lat="49.23220437951386" lon="9.199821436777713">
<ele>154.8</ele>
<time>2024-05-08T11:12:42Z</time>
</trkpt>
<trkpt lat="49.23222726210952" lon="9.199794698506594">
<ele>154.8</ele>
<time>2024-05-08T11:12:44Z</time>
</trkpt>
<trkpt lat="49.232250144705176" lon="9.1997632663697">
<ele>154.8</ele>
<time>2024-05-08T11:12:45Z</time>
</trkpt>
<trkpt lat="49.23229590989649" lon="9.199694618582726">
<ele>154.8</ele>
<time>2024-05-08T11:12:46Z</time>
</trkpt>
<trkpt lat="49.23231502063573" lon="9.199654553085566">
<ele>154.8</ele>
<time>2024-05-08T11:12:47Z</time>
</trkpt>
<trkpt lat="49.23233790323138" lon="9.199609709903598">
<ele>154.8</ele>
<time>2024-05-08T11:12:48Z</time>
</trkpt>
<trkpt lat="49.232353158295155" lon="9.19956679455936">
<ele>154.8</ele>
<time>2024-05-08T11:12:50Z</time>
</trkpt>
<trkpt lat="49.23237604089081" lon="9.199521951377392">
<ele>154.8</ele>
<time>2024-05-08T11:12:51Z</time>
</trkpt>
<trkpt lat="49.2324180342257" lon="9.199435198679566">
<ele>154.8</ele>
<time>2024-05-08T11:12:53Z</time>
</trkpt>
<trkpt lat="49.2324370611459" lon="9.19939136132598">
<ele>154.8</ele>
<time>2024-05-08T11:12:54Z</time>
</trkpt>
<trkpt lat="49.23247519880533" lon="9.199303602799771">
<ele>155</ele>
<time>2024-05-08T11:12:55Z</time>
</trkpt>
<trkpt lat="49.232490537688136" lon="9.199258759617804">
<ele>155</ele>
<time>2024-05-08T11:12:56Z</time>
</trkpt>
<trkpt lat="49.232513420283794" lon="9.199216766282916">
<ele>155</ele>
<time>2024-05-08T11:12:58Z</time>
</trkpt>
<trkpt lat="49.23252867534757" lon="9.199172928929327">
<ele>155.2</ele>
<time>2024-05-08T11:12:59Z</time>
</trkpt>
<trkpt lat="49.232570584863424" lon="9.199081398546696">
<ele>155.4</ele>
<time>2024-05-08T11:13:00Z</time>
</trkpt>
<trkpt lat="49.23259346745908" lon="9.199036555364728">
<ele>155.4</ele>
<time>2024-05-08T11:13:01Z</time>
</trkpt>
<trkpt lat="49.232612578198314" lon="9.198989868164063">
<ele>155.6</ele>
<time>2024-05-08T11:13:02Z</time>
</trkpt>
<trkpt lat="49.23263160511851" lon="9.198943097144364">
<ele>155.6</ele>
<time>2024-05-08T11:13:04Z</time>
</trkpt>
<trkpt lat="49.2326545715332" lon="9.198896326124668">
<ele>155.6</ele>
<time>2024-05-08T11:13:05Z</time>
</trkpt>
<trkpt lat="49.232692709192634" lon="9.198804795742037">
<ele>155.8</ele>
<time>2024-05-08T11:13:07Z</time>
</trkpt>
<trkpt lat="49.23272321932018" lon="9.198711337521672">
<ele>156</ele>
<time>2024-05-08T11:13:08Z</time>
</trkpt>
<trkpt lat="49.23274224624038" lon="9.198663644492626">
<ele>156.2</ele>
<time>2024-05-08T11:13:09Z</time>
</trkpt>
<trkpt lat="49.23276512883603" lon="9.198615029454231">
<ele>156.4</ele>
<time>2024-05-08T11:13:11Z</time>
</trkpt>
<trkpt lat="49.23278423957527" lon="9.198564486578109">
<ele>156.6</ele>
<time>2024-05-08T11:13:12Z</time>
</trkpt>
<trkpt lat="49.2328223772347" lon="9.198466250672936">
<ele>156.8</ele>
<time>2024-05-08T11:13:13Z</time>
</trkpt>
<trkpt lat="49.23284525983035" lon="9.19841662980616">
<ele>156.8</ele>
<time>2024-05-08T11:13:14Z</time>
</trkpt>
<trkpt lat="49.23286437056959" lon="9.198369942605495">
<ele>157</ele>
<time>2024-05-08T11:13:16Z</time>
</trkpt>
<trkpt lat="49.23290628008544" lon="9.198276484385133">
<ele>157.2</ele>
<time>2024-05-08T11:13:17Z</time>
</trkpt>
<trkpt lat="49.2329291626811" lon="9.198227869346738">
<ele>157.4</ele>
<time>2024-05-08T11:13:19Z</time>
</trkpt>
<trkpt lat="49.23297115601599" lon="9.198133405297996">
<ele>157.8</ele>
<time>2024-05-08T11:13:21Z</time>
</trkpt>
<trkpt lat="49.23301314935088" lon="9.198038019239902">
<ele>158</ele>
<time>2024-05-08T11:13:22Z</time>
</trkpt>
<trkpt lat="49.23303217627108" lon="9.197991332039235">
<ele>158.2</ele>
<time>2024-05-08T11:13:24Z</time>
</trkpt>
<trkpt lat="49.23307416960597" lon="9.197895023971796">
<ele>158.4</ele>
<time>2024-05-08T11:13:25Z</time>
</trkpt>
<trkpt lat="49.23309319652617" lon="9.1978464089334">
<ele>158.6</ele>
<time>2024-05-08T11:13:26Z</time>
</trkpt>
<trkpt lat="49.23311607912183" lon="9.197796788066626">
<ele>158.6</ele>
<time>2024-05-08T11:13:27Z</time>
</trkpt>
<trkpt lat="49.23313518986106" lon="9.19774817302823">
<ele>158.8</ele>
<time>2024-05-08T11:13:28Z</time>
</trkpt>
<trkpt lat="49.23315421678126" lon="9.197701402008532">
<ele>158.8</ele>
<time>2024-05-08T11:13:30Z</time>
</trkpt>
<trkpt lat="49.23320006579161" lon="9.197607021778822">
<ele>159.2</ele>
<time>2024-05-08T11:13:31Z</time>
</trkpt>
<trkpt lat="49.233219092711806" lon="9.197561256587504">
<ele>159.4</ele>
<time>2024-05-08T11:13:33Z</time>
</trkpt>
<trkpt lat="49.23325345851481" lon="9.197480119764805">
<ele>159.6</ele>
<time>2024-05-08T11:13:34Z</time>
</trkpt>
<trkpt lat="49.23326485790312" lon="9.197441982105374">
<ele>159.6</ele>
<time>2024-05-08T11:13:35Z</time>
</trkpt>
<trkpt lat="49.23327634111047" lon="9.197402922436597">
<ele>159.8</ele>
<time>2024-05-08T11:13:36Z</time>
</trkpt>
<trkpt lat="49.233283968642354" lon="9.197366712614894">
<ele>159.8</ele>
<time>2024-05-08T11:13:38Z</time>
</trkpt>
<trkpt lat="49.23329159617424" lon="9.197277948260307">
<ele>159.8</ele>
<time>2024-05-08T11:13:39Z</time>
</trkpt>
<trkpt lat="49.23329159617424" lon="9.197231261059642">
<ele>159.8</ele>
<time>2024-05-08T11:13:40Z</time>
</trkpt>
<trkpt lat="49.233283968642354" lon="9.197181640192866">
<ele>159.8</ele>
<time>2024-05-08T11:13:42Z</time>
</trkpt>
<trkpt lat="49.233280112966895" lon="9.197128247469664">
<ele>160</ele>
<time>2024-05-08T11:13:43Z</time>
</trkpt>
<trkpt lat="49.23326871357858" lon="9.19707485474646">
<ele>160</ele>
<time>2024-05-08T11:13:44Z</time>
</trkpt>
<trkpt lat="49.233261086046696" lon="9.197023389860988">
<ele>160</ele>
<time>2024-05-08T11:13:45Z</time>
</trkpt>
<trkpt lat="49.23324960283935" lon="9.196971841156484">
<ele>160</ele>
<time>2024-05-08T11:13:46Z</time>
</trkpt>
<trkpt lat="49.233241975307465" lon="9.19691844843328">
<ele>160</ele>
<time>2024-05-08T11:13:47Z</time>
</trkpt>
<trkpt lat="49.23322672024369" lon="9.196814512833951">
<ele>160.2</ele>
<time>2024-05-08T11:13:49Z</time>
</trkpt>
<trkpt lat="49.233203837648034" lon="9.196709571406243">
<ele>160.4</ele>
<time>2024-05-08T11:13:50Z</time>
</trkpt>
<trkpt lat="49.23319621011615" lon="9.196658106520772">
<ele>160.4</ele>
<time>2024-05-08T11:13:51Z</time>
</trkpt>
<trkpt lat="49.23318858258426" lon="9.19660471379757">
<ele>160.4</ele>
<time>2024-05-08T11:13:52Z</time>
</trkpt>
<trkpt lat="49.233180955052376" lon="9.196553165093064">
<ele>160.6</ele>
<time>2024-05-08T11:13:54Z</time>
</trkpt>
<trkpt lat="49.23316955566406" lon="9.196499772369862">
<ele>160.6</ele>
<time>2024-05-08T11:13:55Z</time>
</trkpt>
<trkpt lat="49.23315421678126" lon="9.196401536464691">
<ele>160.6</ele>
<time>2024-05-08T11:13:56Z</time>
</trkpt>
<trkpt lat="49.23314658924937" lon="9.196356693282723">
<ele>160.8</ele>
<time>2024-05-08T11:13:57Z</time>
</trkpt>
<trkpt lat="49.23313518986106" lon="9.196314783766866">
<ele>160.8</ele>
<time>2024-05-08T11:13:58Z</time>
</trkpt>
<trkpt lat="49.23312756232917" lon="9.196274718269706">
<ele>160.8</ele>
<time>2024-05-08T11:14:00Z</time>
</trkpt>
<trkpt lat="49.23310845158994" lon="9.196196515113115">
<ele>160.6</ele>
<time>2024-05-08T11:14:02Z</time>
</trkpt>
<trkpt lat="49.233104679733515" lon="9.196120239794254">
<ele>160.4</ele>
<time>2024-05-08T11:14:03Z</time>
</trkpt>
<trkpt lat="49.23310845158994" lon="9.196078246459363">
<ele>160.4</ele>
<time>2024-05-08T11:14:05Z</time>
</trkpt>
<trkpt lat="49.2331123072654" lon="9.195980010554194">
<ele>160.4</ele>
<time>2024-05-08T11:14:06Z</time>
</trkpt>
<trkpt lat="49.23310845158994" lon="9.195922845974565">
<ele>160.4</ele>
<time>2024-05-08T11:14:08Z</time>
</trkpt>
<trkpt lat="49.23309319652617" lon="9.195804577320814">
<ele>160.2</ele>
<time>2024-05-08T11:14:09Z</time>
</trkpt>
<trkpt lat="49.23308179713786" lon="9.195745401084425">
<ele>160.2</ele>
<time>2024-05-08T11:14:10Z</time>
</trkpt>
<trkpt lat="49.23307031393051" lon="9.195686308667064">
<ele>160.2</ele>
<time>2024-05-08T11:14:11Z</time>
</trkpt>
<trkpt lat="49.2330589145422" lon="9.195630066096784">
<ele>160</ele>
<time>2024-05-08T11:14:12Z</time>
</trkpt>
<trkpt lat="49.23304743133485" lon="9.19557373970747">
<ele>159.8</ele>
<time>2024-05-08T11:14:14Z</time>
</trkpt>
<trkpt lat="49.233024548739195" lon="9.19545454904437">
<ele>159.6</ele>
<time>2024-05-08T11:14:15Z</time>
</trkpt>
<trkpt lat="49.23301314935088" lon="9.19539637863636">
<ele>159.4</ele>
<time>2024-05-08T11:14:17Z</time>
</trkpt>
<trkpt lat="49.23298641107976" lon="9.19527810998261">
<ele>159.2</ele>
<time>2024-05-08T11:14:18Z</time>
</trkpt>
<trkpt lat="49.23297878354788" lon="9.19521801173687">
<ele>159</ele>
<time>2024-05-08T11:14:19Z</time>
</trkpt>
<trkpt lat="49.23296730034053" lon="9.19515699148178">
<ele>159</ele>
<time>2024-05-08T11:14:20Z</time>
</trkpt>
<trkpt lat="49.23295967280865" lon="9.195095049217343">
<ele>159</ele>
<time>2024-05-08T11:14:21Z</time>
</trkpt>
<trkpt lat="49.232948273420334" lon="9.195033023133874">
<ele>158.8</ele>
<time>2024-05-08T11:14:23Z</time>
</trkpt>
<trkpt lat="49.23292539082467" lon="9.194909976795316">
<ele>158.8</ele>
<time>2024-05-08T11:14:25Z</time>
</trkpt>
<trkpt lat="49.23291390761733" lon="9.194848034530878">
<ele>158.8</ele>
<time>2024-05-08T11:14:26Z</time>
</trkpt>
<trkpt lat="49.23290628008544" lon="9.19478701427579">
<ele>158.8</ele>
<time>2024-05-08T11:14:27Z</time>
</trkpt>
<trkpt lat="49.232887253165245" lon="9.194658268243074">
<ele>158.8</ele>
<time>2024-05-08T11:14:29Z</time>
</trkpt>
<trkpt lat="49.232868142426014" lon="9.194536143913863">
<ele>158.6</ele>
<time>2024-05-08T11:14:30Z</time>
</trkpt>
<trkpt lat="49.2328567430377" lon="9.194479901343584">
<ele>158.6</ele>
<time>2024-05-08T11:14:32Z</time>
</trkpt>
<trkpt lat="49.23283386044204" lon="9.19436833821237">
<ele>158.8</ele>
<time>2024-05-08T11:14:33Z</time>
</trkpt>
<trkpt lat="49.23282623291016" lon="9.19431016780436">
<ele>158.8</ele>
<time>2024-05-08T11:14:34Z</time>
</trkpt>
<trkpt lat="49.23281474970281" lon="9.1942529194057">
<ele>158.8</ele>
<time>2024-05-08T11:14:35Z</time>
</trkpt>
<trkpt lat="49.232803266495466" lon="9.194194748997688">
<ele>158.8</ele>
<time>2024-05-08T11:14:36Z</time>
</trkpt>
<trkpt lat="49.232788011431694" lon="9.194138506427407">
<ele>158.8</ele>
<time>2024-05-08T11:14:38Z</time>
</trkpt>
<trkpt lat="49.23278038389981" lon="9.194083185866477">
<ele>158.8</ele>
<time>2024-05-08T11:14:39Z</time>
</trkpt>
<trkpt lat="49.232768984511495" lon="9.194029793143272">
<ele>158.8</ele>
<time>2024-05-08T11:14:40Z</time>
</trkpt>
<trkpt lat="49.23275372944772" lon="9.193942034617066">
<ele>158.8</ele>
<time>2024-05-08T11:14:41Z</time>
</trkpt>
<trkpt lat="49.23274224624038" lon="9.193906746804714">
<ele>158.8</ele>
<time>2024-05-08T11:14:43Z</time>
</trkpt>
<trkpt lat="49.232730846852064" lon="9.19387523084879">
<ele>158.8</ele>
<time>2024-05-08T11:14:44Z</time>
</trkpt>
<trkpt lat="49.23271559178829" lon="9.193851426243782">
<ele>158.8</ele>
<time>2024-05-08T11:14:45Z</time>
</trkpt>
<trkpt lat="49.23268508166075" lon="9.193813288584352">
<ele>158.8</ele>
<time>2024-05-08T11:14:46Z</time>
</trkpt>
<trkpt lat="49.232669826596975" lon="9.19379711151123">
<ele>158.8</ele>
<time>2024-05-08T11:14:48Z</time>
</trkpt>
<trkpt lat="49.23266219906509" lon="9.193779928609729">
<ele>158.8</ele>
<time>2024-05-08T11:14:49Z</time>
</trkpt>
<trkpt lat="49.23263160511851" lon="9.193723602220416">
<ele>158.8</ele>
<time>2024-05-08T11:14:50Z</time>
</trkpt>
<trkpt lat="49.23261635005474" lon="9.193683620542288">
<ele>158.8</ele>
<time>2024-05-08T11:14:51Z</time>
</trkpt>
<trkpt lat="49.23260109499097" lon="9.193643555045128">
<ele>158.6</ele>
<time>2024-05-08T11:14:52Z</time>
</trkpt>
<trkpt lat="49.2325858399272" lon="9.193599633872507">
<ele>158.4</ele>
<time>2024-05-08T11:14:53Z</time>
</trkpt>
<trkpt lat="49.232570584863424" lon="9.19355671852827">
<ele>158.4</ele>
<time>2024-05-08T11:14:54Z</time>
</trkpt>
<trkpt lat="49.23255532979965" lon="9.193510031327603">
<ele>158.2</ele>
<time>2024-05-08T11:14:56Z</time>
</trkpt>
<trkpt lat="49.23253630287945" lon="9.19346141628921">
<ele>158</ele>
<time>2024-05-08T11:14:57Z</time>
</trkpt>
<trkpt lat="49.23250579275191" lon="9.193371729925277">
<ele>157.6</ele>
<time>2024-05-08T11:14:59Z</time>
</trkpt>
<trkpt lat="49.23248291015625" lon="9.193286821246147">
<ele>157.2</ele>
<time>2024-05-08T11:15:01Z</time>
</trkpt>
<trkpt lat="49.23244468867779" lon="9.193200068548322">
<ele>156.4</ele>
<time>2024-05-08T11:15:02Z</time>
</trkpt>
<trkpt lat="49.23242566175759" lon="9.193153381347656">
<ele>156.2</ele>
<time>2024-05-08T11:15:03Z</time>
</trkpt>
<trkpt lat="49.23240655101836" lon="9.19310468249023">
<ele>155.8</ele>
<time>2024-05-08T11:15:04Z</time>
</trkpt>
<trkpt lat="49.2323836684227" lon="9.193059839308262">
<ele>155.4</ele>
<time>2024-05-08T11:15:05Z</time>
</trkpt>
<trkpt lat="49.2323646415025" lon="9.193008374422789">
<ele>155</ele>
<time>2024-05-08T11:15:07Z</time>
</trkpt>
<trkpt lat="49.23231502063573" lon="9.192906366661193">
<ele>154.6</ele>
<time>2024-05-08T11:15:08Z</time>
</trkpt>
<trkpt lat="49.232292138040066" lon="9.192854817956686">
<ele>154.4</ele>
<time>2024-05-08T11:15:09Z</time>
</trkpt>
<trkpt lat="49.23226925544441" lon="9.192805280908942">
<ele>154.2</ele>
<time>2024-05-08T11:15:10Z</time>
</trkpt>
<trkpt lat="49.232250144705176" lon="9.192754738032818">
<ele>154</ele>
<time>2024-05-08T11:15:11Z</time>
</trkpt>
<trkpt lat="49.23222349025309" lon="9.192705117166042">
<ele>153.8</ele>
<time>2024-05-08T11:15:12Z</time>
</trkpt>
<trkpt lat="49.23220437951386" lon="9.192653652280567">
<ele>153.6</ele>
<time>2024-05-08T11:15:13Z</time>
</trkpt>
<trkpt lat="49.2321814969182" lon="9.192604953423142">
<ele>153.6</ele>
<time>2024-05-08T11:15:15Z</time>
</trkpt>
<trkpt lat="49.232162469998" lon="9.192560194060206">
<ele>153.4</ele>
<time>2024-05-08T11:15:16Z</time>
</trkpt>
<trkpt lat="49.23212047666311" lon="9.192466735839844">
<ele>153.4</ele>
<time>2024-05-08T11:15:17Z</time>
</trkpt>
<trkpt lat="49.23210136592388" lon="9.192424742504954">
<ele>153.4</ele>
<time>2024-05-08T11:15:18Z</time>
</trkpt>
<trkpt lat="49.23208233900368" lon="9.192379899322988">
<ele>153.2</ele>
<time>2024-05-08T11:15:19Z</time>
</trkpt>
<trkpt lat="49.23206322826445" lon="9.192339833825828">
<ele>153.2</ele>
<time>2024-05-08T11:15:20Z</time>
</trkpt>
<trkpt lat="49.23204797320068" lon="9.192297924309967">
<ele>153</ele>
<time>2024-05-08T11:15:21Z</time>
</trkpt>
<trkpt lat="49.23202894628048" lon="9.192251153290272">
<ele>153</ele>
<time>2024-05-08T11:15:22Z</time>
</trkpt>
<trkpt lat="49.23200983554125" lon="9.192205388098955">
<ele>153</ele>
<time>2024-05-08T11:15:24Z</time>
</trkpt>
<trkpt lat="49.23196792602539" lon="9.19211285188794">
<ele>153</ele>
<time>2024-05-08T11:15:25Z</time>
</trkpt>
<trkpt lat="49.23194881528616" lon="9.192066164687276">
<ele>153</ele>
<time>2024-05-08T11:15:26Z</time>
</trkpt>
<trkpt lat="49.23192970454693" lon="9.192023249343038">
<ele>153</ele>
<time>2024-05-08T11:15:27Z</time>
</trkpt>
<trkpt lat="49.23191067762673" lon="9.1919803339988">
<ele>153</ele>
<time>2024-05-08T11:15:28Z</time>
</trkpt>
<trkpt lat="49.2318915668875" lon="9.19193641282618">
<ele>153</ele>
<time>2024-05-08T11:15:29Z</time>
</trkpt>
<trkpt lat="49.2318725399673" lon="9.191891653463244">
<ele>152.8</ele>
<time>2024-05-08T11:15:31Z</time>
</trkpt>
<trkpt lat="49.23183440230787" lon="9.19180003926158">
<ele>152.8</ele>
<time>2024-05-08T11:15:33Z</time>
</trkpt>
<trkpt lat="49.23179626464844" lon="9.191713286563754">
<ele>152.8</ele>
<time>2024-05-08T11:15:34Z</time>
</trkpt>
<trkpt lat="49.231777153909206" lon="9.191668443381786">
<ele>152.8</ele>
<time>2024-05-08T11:15:35Z</time>
</trkpt>
<trkpt lat="49.231758043169975" lon="9.1916246060282">
<ele>152.8</ele>
<time>2024-05-08T11:15:37Z</time>
</trkpt>
<trkpt lat="49.231723761186" lon="9.191537853330374">
<ele>152.8</ele>
<time>2024-05-08T11:15:38Z</time>
</trkpt>
<trkpt lat="49.23170465044677" lon="9.191496782004831">
<ele>153</ele>
<time>2024-05-08T11:15:40Z</time>
</trkpt>
<trkpt lat="49.23166651278734" lon="9.191410029307008">
<ele>153</ele>
<time>2024-05-08T11:15:41Z</time>
</trkpt>
<trkpt lat="49.23164748586714" lon="9.191369963809848">
<ele>153</ele>
<time>2024-05-08T11:15:42Z</time>
</trkpt>
<trkpt lat="49.23162837512791" lon="9.191327970474958">
<ele>153</ele>
<time>2024-05-08T11:15:43Z</time>
</trkpt>
<trkpt lat="49.23160926438868" lon="9.191283211112022">
<ele>153</ele>
<time>2024-05-08T11:15:44Z</time>
</trkpt>
<trkpt lat="49.23159023746848" lon="9.191240295767784">
<ele>153</ele>
<time>2024-05-08T11:15:45Z</time>
</trkpt>
<trkpt lat="49.23157112672925" lon="9.191194530576468">
<ele>153</ele>
<time>2024-05-08T11:15:47Z</time>
</trkpt>
<trkpt lat="49.23153684474528" lon="9.191102916374804">
<ele>153</ele>
<time>2024-05-08T11:15:48Z</time>
</trkpt>
<trkpt lat="49.23151396214962" lon="9.191058157011868">
<ele>153</ele>
<time>2024-05-08T11:15:49Z</time>
</trkpt>
<trkpt lat="49.23149485141039" lon="9.19101138599217">
<ele>153</ele>
<time>2024-05-08T11:15:50Z</time>
</trkpt>
<trkpt lat="49.23147582449019" lon="9.190966542810202">
<ele>153</ele>
<time>2024-05-08T11:15:52Z</time>
</trkpt>
<trkpt lat="49.23143760301173" lon="9.190877862274649">
<ele>153</ele>
<time>2024-05-08T11:15:53Z</time>
</trkpt>
<trkpt lat="49.23141857609153" lon="9.190836874768138">
<ele>153</ele>
<time>2024-05-08T11:15:54Z</time>
</trkpt>
<trkpt lat="49.23140332102776" lon="9.19079303741455">
<ele>153</ele>
<time>2024-05-08T11:15:55Z</time>
</trkpt>
<trkpt lat="49.23138806596398" lon="9.19075196608901">
<ele>153</ele>
<time>2024-05-08T11:15:57Z</time>
</trkpt>
<trkpt lat="49.23136895522475" lon="9.190710056573153">
<ele>153</ele>
<time>2024-05-08T11:15:58Z</time>
</trkpt>
<trkpt lat="49.23133467324078" lon="9.190627075731754">
<ele>153</ele>
<time>2024-05-08T11:16:00Z</time>
</trkpt>
<trkpt lat="49.23130030743778" lon="9.190545016899703">
<ele>152.8</ele>
<time>2024-05-08T11:16:01Z</time>
</trkpt>
<trkpt lat="49.231285052374005" lon="9.190504951402543">
<ele>152.8</ele>
<time>2024-05-08T11:16:03Z</time>
</trkpt>
<trkpt lat="49.23125831410289" lon="9.19043538160622">
<ele>152.8</ele>
<time>2024-05-08T11:16:05Z</time>
</trkpt>
<trkpt lat="49.23123928718269" lon="9.19036195613444">
<ele>152.6</ele>
<time>2024-05-08T11:16:07Z</time>
</trkpt>
<trkpt lat="49.23121640458703" lon="9.190278053283691">
<ele>152.4</ele>
<time>2024-05-08T11:16:08Z</time>
</trkpt>
<trkpt lat="49.23121254891157" lon="9.190237987786531">
<ele>152.4</ele>
<time>2024-05-08T11:16:10Z</time>
</trkpt>
<trkpt lat="49.23119352199137" lon="9.190164562314749">
<ele>152</ele>
<time>2024-05-08T11:16:12Z</time>
</trkpt>
<trkpt lat="49.2311782669276" lon="9.190105386078358">
<ele>151.6</ele>
<time>2024-05-08T11:16:13Z</time>
</trkpt>
<trkpt lat="49.231170639395714" lon="9.19007965363562">
<ele>151.4</ele>
<time>2024-05-08T11:16:15Z</time>
</trkpt>
<trkpt lat="49.231170639395714" lon="9.19006154872477">
<ele>151</ele>
<time>2024-05-08T11:16:16Z</time>
</trkpt>
<trkpt lat="49.23117441125214" lon="9.190046293660998">
<ele>150.6</ele>
<time>2024-05-08T11:16:17Z</time>
</trkpt>
<trkpt lat="49.23117441125214" lon="9.190030032768846">
<ele>150</ele>
<time>2024-05-08T11:16:18Z</time>
</trkpt>
<trkpt lat="49.231185894459486" lon="9.190034810453652">
<ele>149.6</ele>
<time>2024-05-08T11:16:19Z</time>
</trkpt>
<trkpt lat="49.23120114952326" lon="9.190046293660998">
<ele>149.2</ele>
<time>2024-05-08T11:16:21Z</time>
</trkpt>
<trkpt lat="49.23123928718269" lon="9.190078731626272">
<ele>148.6</ele>
<time>2024-05-08T11:16:23Z</time>
</trkpt>
<trkpt lat="49.23127356916666" lon="9.190072026103737">
<ele>148.2</ele>
<time>2024-05-08T11:16:24Z</time>
</trkpt>
<trkpt lat="49.231327045708895" lon="9.190028188750148">
<ele>147.6</ele>
<time>2024-05-08T11:16:26Z</time>
</trkpt>
<trkpt lat="49.23133844509721" lon="9.190010000020266">
<ele>147.4</ele>
<time>2024-05-08T11:16:27Z</time>
</trkpt>
<trkpt lat="49.23133844509721" lon="9.189996672794225">
<ele>146.8</ele>
<time>2024-05-08T11:16:29Z</time>
</trkpt>
<trkpt lat="49.23134230077267" lon="9.189994744956492">
<ele>146.6</ele>
<time>2024-05-08T11:16:30Z</time>
</trkpt>
<trkpt lat="49.23134230077267" lon="9.189992900937796">
<ele>146.6</ele>
<time>2024-05-08T11:16:31Z</time>
</trkpt>
<trkpt lat="49.23134230077267" lon="9.189994744956492">
<ele>146.4</ele>
<time>2024-05-08T11:16:32Z</time>
</trkpt>
<trkpt lat="49.23134230077267" lon="9.189992900937796">
<ele>146.2</ele>
<time>2024-05-08T11:16:34Z</time>
</trkpt>
<trkpt lat="49.231346072629094" lon="9.18998527340591">
<ele>146</ele>
<time>2024-05-08T11:16:36Z</time>
</trkpt>
<trkpt lat="49.231346072629094" lon="9.18998334556818">
<ele>145.8</ele>
<time>2024-05-08T11:16:38Z</time>
</trkpt>
<trkpt lat="49.231346072629094" lon="9.18998141773045">
<ele>145.6</ele>
<time>2024-05-08T11:16:39Z</time>
</trkpt>
<trkpt lat="49.231346072629094" lon="9.18997948989272">
<ele>145.4</ele>
<time>2024-05-08T11:16:42Z</time>
</trkpt>
<trkpt lat="49.231346072629094" lon="9.189978567883372">
<ele>145.4</ele>
<time>2024-05-08T11:16:47Z</time>
</trkpt>
<trkpt lat="49.23134992830455" lon="9.189976640045645">
<ele>145.2</ele>
<time>2024-05-08T11:16:48Z</time>
</trkpt>
<trkpt lat="49.23134992830455" lon="9.189974712207912">
<ele>145.2</ele>
<time>2024-05-08T11:16:49Z</time>
</trkpt>
<trkpt lat="49.23134992830455" lon="9.189972868189216">
<ele>145</ele>
<time>2024-05-08T11:16:50Z</time>
</trkpt>
<trkpt lat="49.231346072629094" lon="9.189972868189216">
<ele>145</ele>
<time>2024-05-08T11:16:51Z</time>
</trkpt>
<trkpt lat="49.231346072629094" lon="9.189971862360837">
<ele>145</ele>
<time>2024-05-08T11:16:54Z</time>
</trkpt>
<trkpt lat="49.231346072629094" lon="9.189969934523106">
<ele>145</ele>
<time>2024-05-08T11:16:55Z</time>
</trkpt>
<trkpt lat="49.231346072629094" lon="9.189968090504408">
<ele>145</ele>
<time>2024-05-08T11:17:00Z</time>
</trkpt>
<trkpt lat="49.231346072629094" lon="9.18996524065733">
<ele>145</ele>
<time>2024-05-08T11:17:03Z</time>
</trkpt>
<trkpt lat="49.231346072629094" lon="9.18996138498187">
<ele>145.2</ele>
<time>2024-05-08T11:17:04Z</time>
</trkpt>
<trkpt lat="49.23134230077267" lon="9.189960462972522">
<ele>145.2</ele>
<time>2024-05-08T11:17:05Z</time>
</trkpt>
<trkpt lat="49.23134230077267" lon="9.189956607297065">
<ele>145.2</ele>
<time>2024-05-08T11:17:06Z</time>
</trkpt>
<trkpt lat="49.23134230077267" lon="9.189954679459332">
<ele>145.2</ele>
<time>2024-05-08T11:17:07Z</time>
</trkpt>
<trkpt lat="49.231346072629094" lon="9.189952835440636">
<ele>145.2</ele>
<time>2024-05-08T11:17:08Z</time>
</trkpt>
<trkpt lat="49.23134992830455" lon="9.189948057755828">
<ele>145.2</ele>
<time>2024-05-08T11:17:09Z</time>
</trkpt>
<trkpt lat="49.23134992830455" lon="9.189938502386212">
<ele>145.4</ele>
<time>2024-05-08T11:17:10Z</time>
</trkpt>
<trkpt lat="49.23135370016098" lon="9.18992517516017">
<ele>145.4</ele>
<time>2024-05-08T11:17:11Z</time>
</trkpt>
<trkpt lat="49.23135755583644" lon="9.189909920096396">
<ele>145.4</ele>
<time>2024-05-08T11:17:12Z</time>
</trkpt>
<trkpt lat="49.231361327692866" lon="9.189889887347816">
<ele>145.2</ele>
<time>2024-05-08T11:17:13Z</time>
</trkpt>
<trkpt lat="49.231365183368325" lon="9.18988125398755">
<ele>145.2</ele>
<time>2024-05-08T11:17:14Z</time>
</trkpt>
<trkpt lat="49.231365183368325" lon="9.18986700475216">
<ele>145.2</ele>
<time>2024-05-08T11:17:15Z</time>
</trkpt>
<trkpt lat="49.23137658275664" lon="9.189860299229622">
<ele>145</ele>
<time>2024-05-08T11:17:16Z</time>
</trkpt>
<trkpt lat="49.2313804384321" lon="9.189854599535463">
<ele>145</ele>
<time>2024-05-08T11:17:17Z</time>
</trkpt>
<trkpt lat="49.231384210288525" lon="9.189854599535463">
<ele>145</ele>
<time>2024-05-08T11:17:18Z</time>
</trkpt>
<trkpt lat="49.2313804384321" lon="9.189853593707085">
<ele>145</ele>
<time>2024-05-08T11:17:20Z</time>
</trkpt>
<trkpt lat="49.231384210288525" lon="9.189853593707085">
<ele>145</ele>
<time>2024-05-08T11:17:21Z</time>
</trkpt>
<trkpt lat="49.2313804384321" lon="9.189853593707085">
<ele>145</ele>
<time>2024-05-08T11:17:23Z</time>
</trkpt>
<trkpt lat="49.2313804384321" lon="9.189851749688389">
<ele>145</ele>
<time>2024-05-08T11:17:29Z</time>
</trkpt>
<trkpt lat="49.2313804384321" lon="9.189853593707085">
<ele>145</ele>
<time>2024-05-08T11:17:38Z</time>
</trkpt>
<trkpt lat="49.2313804384321" lon="9.189851749688389">
<ele>145</ele>
<time>2024-05-08T11:17:40Z</time>
</trkpt>
<trkpt lat="49.2313804384321" lon="9.189849821850656">
<ele>145</ele>
<time>2024-05-08T11:17:42Z</time>
</trkpt>
<trkpt lat="49.2313804384321" lon="9.189851749688389">
<ele>145</ele>
<time>2024-05-08T11:17:44Z</time>
</trkpt>
<trkpt lat="49.2313804384321" lon="9.189849821850656">
<ele>145</ele>
<time>2024-05-08T11:17:46Z</time>
</trkpt>
<trkpt lat="49.2313804384321" lon="9.189851749688389">
<ele>145</ele>
<time>2024-05-08T11:17:55Z</time>
</trkpt>
<trkpt lat="49.2313804384321" lon="9.189849821850656">
<ele>145</ele>
<time>2024-05-08T11:18:02Z</time>
</trkpt>
<trkpt lat="49.23137658275664" lon="9.189849821850656">
<ele>145</ele>
<time>2024-05-08T11:18:06Z</time>
</trkpt>
<trkpt lat="49.23137658275664" lon="9.189847894012928">
<ele>145</ele>
<time>2024-05-08T11:18:10Z</time>
</trkpt>
<trkpt lat="49.23137658275664" lon="9.189849821850656">
<ele>144.8</ele>
<time>2024-05-08T11:18:12Z</time>
</trkpt>
<trkpt lat="49.23137658275664" lon="9.189847894012928">
<ele>144.8</ele>
<time>2024-05-08T11:18:14Z</time>
</trkpt>
<trkpt lat="49.23137658275664" lon="9.189849821850656">
<ele>144.8</ele>
<time>2024-05-08T11:18:21Z</time>
</trkpt>
<trkpt lat="49.23137658275664" lon="9.189847894012928">
<ele>144.8</ele>
<time>2024-05-08T11:18:22Z</time>
</trkpt>
<trkpt lat="49.23137658275664" lon="9.189849821850656">
<ele>144.8</ele>
<time>2024-05-08T11:18:23Z</time>
</trkpt>
<trkpt lat="49.23137658275664" lon="9.189847894012928">
<ele>144.8</ele>
<time>2024-05-08T11:18:24Z</time>
</trkpt>
<trkpt lat="49.23137658275664" lon="9.18984697200358">
<ele>144.8</ele>
<time>2024-05-08T11:18:27Z</time>
</trkpt>
<trkpt lat="49.23137658275664" lon="9.18984504416585">
<ele>144.8</ele>
<time>2024-05-08T11:18:31Z</time>
</trkpt>
<trkpt lat="49.23137658275664" lon="9.18984311632812">
<ele>144.8</ele>
<time>2024-05-08T11:18:34Z</time>
</trkpt>
<trkpt lat="49.23137658275664" lon="9.18984118849039">
<ele>144.8</ele>
<time>2024-05-08T11:18:39Z</time>
</trkpt>
<trkpt lat="49.23137658275664" lon="9.189840266481042">
<ele>144.8</ele>
<time>2024-05-08T11:18:42Z</time>
</trkpt>
<trkpt lat="49.23137658275664" lon="9.189838338643312">
<ele>144.8</ele>
<time>2024-05-08T11:18:55Z</time>
</trkpt>
<trkpt lat="49.23137658275664" lon="9.189834566786883">
<ele>144.8</ele>
<time>2024-05-08T11:18:57Z</time>
</trkpt>
<trkpt lat="49.23137658275664" lon="9.189833560958505">
<ele>144.8</ele>
<time>2024-05-08T11:18:58Z</time>
</trkpt>
<trkpt lat="49.23137281090021" lon="9.189831716939809">
<ele>144.8</ele>
<time>2024-05-08T11:18:59Z</time>
</trkpt>
<trkpt lat="49.23137281090021" lon="9.189827861264348">
<ele>144.8</ele>
<time>2024-05-08T11:19:00Z</time>
</trkpt>
<trkpt lat="49.23137658275664" lon="9.189818305894732">
<ele>144.8</ele>
<time>2024-05-08T11:19:01Z</time>
</trkpt>
<trkpt lat="49.231384210288525" lon="9.18980305083096">
<ele>144.8</ele>
<time>2024-05-08T11:19:02Z</time>
</trkpt>
<trkpt lat="49.23139183782041" lon="9.189780168235302">
<ele>144.8</ele>
<time>2024-05-08T11:19:04Z</time>
</trkpt>
<trkpt lat="49.23140709288418" lon="9.189731553196909">
<ele>144.8</ele>
<time>2024-05-08T11:19:05Z</time>
</trkpt>
<trkpt lat="49.23141857609153" lon="9.189693415537477">
<ele>144.8</ele>
<time>2024-05-08T11:19:07Z</time>
</trkpt>
<trkpt lat="49.2314338311553" lon="9.189648572355509">
<ele>144.8</ele>
<time>2024-05-08T11:19:08Z</time>
</trkpt>
<trkpt lat="49.231464341282845" lon="9.189537931233644">
<ele>144.8</ele>
<time>2024-05-08T11:19:09Z</time>
</trkpt>
<trkpt lat="49.23147582449019" lon="9.189473139122128">
<ele>144.8</ele>
<time>2024-05-08T11:19:10Z</time>
</trkpt>
<trkpt lat="49.2314872238785" lon="9.189401557669044">
<ele>145</ele>
<time>2024-05-08T11:19:12Z</time>
</trkpt>
<trkpt lat="49.23151773400605" lon="9.189248085021973">
<ele>145</ele>
<time>2024-05-08T11:19:14Z</time>
</trkpt>
<trkpt lat="49.23153684474528" lon="9.189165104180574">
<ele>145</ele>
<time>2024-05-08T11:19:15Z</time>
</trkpt>
<trkpt lat="49.23155209980905" lon="9.189078267663715">
<ele>145</ele>
<time>2024-05-08T11:19:16Z</time>
</trkpt>
<trkpt lat="49.231578754261136" lon="9.188897050917149">
<ele>145</ele>
<time>2024-05-08T11:19:18Z</time>
</trkpt>
<trkpt lat="49.23158638179302" lon="9.188803592696786">
<ele>145</ele>
<time>2024-05-08T11:19:19Z</time>
</trkpt>
<trkpt lat="49.23159786500037" lon="9.188710134476423">
<ele>145</ele>
<time>2024-05-08T11:19:20Z</time>
</trkpt>
<trkpt lat="49.23161312006414" lon="9.188521374017">
<ele>145</ele>
<time>2024-05-08T11:19:22Z</time>
</trkpt>
<trkpt lat="49.23161689192057" lon="9.188426909968255">
<ele>145</ele>
<time>2024-05-08T11:19:23Z</time>
</trkpt>
<trkpt lat="49.231620747596025" lon="9.188329679891469">
<ele>145</ele>
<time>2024-05-08T11:19:24Z</time>
</trkpt>
<trkpt lat="49.23162837512791" lon="9.188137985765934">
<ele>145</ele>
<time>2024-05-08T11:19:25Z</time>
</trkpt>
<trkpt lat="49.23162837512791" lon="9.18804352171719">
<ele>145</ele>
<time>2024-05-08T11:19:26Z</time>
</trkpt>
<trkpt lat="49.2316360026598" lon="9.187950063496828">
<ele>145.2</ele>
<time>2024-05-08T11:19:27Z</time>
</trkpt>
<trkpt lat="49.23163985833526" lon="9.187856605276464">
<ele>145.2</ele>
<time>2024-05-08T11:19:28Z</time>
</trkpt>
<trkpt lat="49.23164363019168" lon="9.187763147056105">
<ele>145.4</ele>
<time>2024-05-08T11:19:30Z</time>
</trkpt>
<trkpt lat="49.23165125772357" lon="9.1875733807683">
<ele>145.6</ele>
<time>2024-05-08T11:19:31Z</time>
</trkpt>
<trkpt lat="49.23165511339903" lon="9.187477072700858">
<ele>145.6</ele>
<time>2024-05-08T11:19:32Z</time>
</trkpt>
<trkpt lat="49.231658885255456" lon="9.187381686642766">
<ele>145.8</ele>
<time>2024-05-08T11:19:33Z</time>
</trkpt>
<trkpt lat="49.231662740930915" lon="9.187283450737596">
<ele>145.8</ele>
<time>2024-05-08T11:19:34Z</time>
</trkpt>
<trkpt lat="49.231662740930915" lon="9.187181442975998">
<ele>146</ele>
<time>2024-05-08T11:19:35Z</time>
</trkpt>
<trkpt lat="49.231658885255456" lon="9.18707650154829">
<ele>146.2</ele>
<time>2024-05-08T11:19:37Z</time>
</trkpt>
<trkpt lat="49.23164363019168" lon="9.186858152970672">
<ele>146.2</ele>
<time>2024-05-08T11:19:38Z</time>
</trkpt>
<trkpt lat="49.23163223080337" lon="9.186746589839458">
<ele>146</ele>
<time>2024-05-08T11:19:39Z</time>
</trkpt>
<trkpt lat="49.231620747596025" lon="9.186633098870516">
<ele>146</ele>
<time>2024-05-08T11:19:40Z</time>
</trkpt>
<trkpt lat="49.23160926438868" lon="9.186521451920273">
<ele>146</ele>
<time>2024-05-08T11:19:41Z</time>
</trkpt>
<trkpt lat="49.231601636856794" lon="9.186407960951328">
<ele>146</ele>
<time>2024-05-08T11:19:42Z</time>
</trkpt>
<trkpt lat="49.23159023746848" lon="9.186296397820117">
<ele>145.8</ele>
<time>2024-05-08T11:19:43Z</time>
</trkpt>
<trkpt lat="49.231578754261136" lon="9.186182906851172">
<ele>145.8</ele>
<time>2024-05-08T11:19:44Z</time>
</trkpt>
<trkpt lat="49.23156735487282" lon="9.186073271557689">
<ele>145.8</ele>
<time>2024-05-08T11:19:46Z</time>
</trkpt>
<trkpt lat="49.23155972734094" lon="9.185963552445171">
<ele>145.8</ele>
<time>2024-05-08T11:19:47Z</time>
</trkpt>
<trkpt lat="49.231544472277164" lon="9.185749981552362">
<ele>145.6</ele>
<time>2024-05-08T11:19:49Z</time>
</trkpt>
<trkpt lat="49.231540616601706" lon="9.185645040124657">
<ele>145.8</ele>
<time>2024-05-08T11:19:50Z</time>
</trkpt>
<trkpt lat="49.23153684474528" lon="9.185431469231844">
<ele>145.8</ele>
<time>2024-05-08T11:19:51Z</time>
</trkpt>
<trkpt lat="49.231540616601706" lon="9.185321750119328">
<ele>145.8</ele>
<time>2024-05-08T11:19:52Z</time>
</trkpt>
<trkpt lat="49.23154824413359" lon="9.185210186988115">
<ele>145.8</ele>
<time>2024-05-08T11:19:53Z</time>
</trkpt>
<trkpt lat="49.23155972734094" lon="9.185098623856902">
<ele>145.8</ele>
<time>2024-05-08T11:19:54Z</time>
</trkpt>
<trkpt lat="49.23155972734094" lon="9.1849812772125">
<ele>145.6</ele>
<time>2024-05-08T11:19:55Z</time>
</trkpt>
<trkpt lat="49.23156349919736" lon="9.184866864234207">
<ele>145.6</ele>
<time>2024-05-08T11:19:56Z</time>
</trkpt>
<trkpt lat="49.23156735487282" lon="9.184753373265266">
<ele>145.4</ele>
<time>2024-05-08T11:19:58Z</time>
</trkpt>
<trkpt lat="49.231578754261136" lon="9.184643737971784">
<ele>145.4</ele>
<time>2024-05-08T11:19:59Z</time>
</trkpt>
<trkpt lat="49.23159786500037" lon="9.184537874534726">
<ele>145.4</ele>
<time>2024-05-08T11:20:00Z</time>
</trkpt>
<trkpt lat="49.23164363019168" lon="9.18432991951704">
<ele>145.2</ele>
<time>2024-05-08T11:20:02Z</time>
</trkpt>
<trkpt lat="49.23166651278734" lon="9.1842336114496">
<ele>145.2</ele>
<time>2024-05-08T11:20:03Z</time>
</trkpt>
<trkpt lat="49.23171613365412" lon="9.184044767171144">
<ele>145.2</ele>
<time>2024-05-08T11:20:04Z</time>
</trkpt>
<trkpt lat="49.231739016249776" lon="9.183953236788511">
<ele>145.2</ele>
<time>2024-05-08T11:20:05Z</time>
</trkpt>
<trkpt lat="49.23176567070186" lon="9.183861706405878">
<ele>145.2</ele>
<time>2024-05-08T11:20:06Z</time>
</trkpt>
<trkpt lat="49.23178855329752" lon="9.18377486988902">
<ele>145.2</ele>
<time>2024-05-08T11:20:07Z</time>
</trkpt>
<trkpt lat="49.23181151971221" lon="9.183691972866654">
<ele>145.2</ele>
<time>2024-05-08T11:20:09Z</time>
</trkpt>
<trkpt lat="49.231838174164295" lon="9.183609914034603">
<ele>145.2</ele>
<time>2024-05-08T11:20:10Z</time>
</trkpt>
<trkpt lat="49.23188393935561" lon="9.183453507721424">
<ele>145</ele>
<time>2024-05-08T11:20:12Z</time>
</trkpt>
<trkpt lat="49.23192207701504" lon="9.183299951255322">
<ele>144.6</ele>
<time>2024-05-08T11:20:14Z</time>
</trkpt>
<trkpt lat="49.23196792602539" lon="9.183168355375528">
<ele>144.4</ele>
<time>2024-05-08T11:20:15Z</time>
</trkpt>
<trkpt lat="49.231998436152935" lon="9.183113034814596">
<ele>144.2</ele>
<time>2024-05-08T11:20:17Z</time>
</trkpt>
<trkpt lat="49.232055600732565" lon="9.182996693998575">
<ele>144.2</ele>
<time>2024-05-08T11:20:18Z</time>
</trkpt>
<trkpt lat="49.23208611086011" lon="9.182936595752835">
<ele>144.2</ele>
<time>2024-05-08T11:20:19Z</time>
</trkpt>
<trkpt lat="49.23211284913123" lon="9.182881275191903">
<ele>144.2</ele>
<time>2024-05-08T11:20:20Z</time>
</trkpt>
<trkpt lat="49.23214335925877" lon="9.18282981030643">
<ele>144.2</ele>
<time>2024-05-08T11:20:21Z</time>
</trkpt>
<trkpt lat="49.2321814969182" lon="9.18277163989842">
<ele>144.2</ele>
<time>2024-05-08T11:20:22Z</time>
</trkpt>
<trkpt lat="49.232212007045746" lon="9.182704919949174">
<ele>144.2</ele>
<time>2024-05-08T11:20:24Z</time>
</trkpt>
<trkpt lat="49.232273027300835" lon="9.1825532913208">
<ele>144.4</ele>
<time>2024-05-08T11:20:25Z</time>
</trkpt>
<trkpt lat="49.23230739310384" lon="9.18247508816421">
<ele>144.6</ele>
<time>2024-05-08T11:20:26Z</time>
</trkpt>
<trkpt lat="49.23234175890684" lon="9.182390179485084">
<ele>144.6</ele>
<time>2024-05-08T11:20:27Z</time>
</trkpt>
<trkpt lat="49.23237989656627" lon="9.182305270805957">
<ele>144.6</ele>
<time>2024-05-08T11:20:29Z</time>
</trkpt>
<trkpt lat="49.23244091682136" lon="9.182134615257382">
<ele>144.4</ele>
<time>2024-05-08T11:20:30Z</time>
</trkpt>
<trkpt lat="49.232471426948905" lon="9.182054484263062">
<ele>144.4</ele>
<time>2024-05-08T11:20:32Z</time>
</trkpt>
<trkpt lat="49.23253630287945" lon="9.181898077949882">
<ele>144.4</ele>
<time>2024-05-08T11:20:34Z</time>
</trkpt>
<trkpt lat="49.23259346745908" lon="9.181757848709822">
<ele>144.2</ele>
<time>2024-05-08T11:20:35Z</time>
</trkpt>
<trkpt lat="49.2326202057302" lon="9.181693056598306">
<ele>144.2</ele>
<time>2024-05-08T11:20:36Z</time>
</trkpt>
<trkpt lat="49.232646860182285" lon="9.181630108505487">
<ele>144.2</ele>
<time>2024-05-08T11:20:38Z</time>
</trkpt>
<trkpt lat="49.2326735984534" lon="9.181568082422018">
<ele>144.2</ele>
<time>2024-05-08T11:20:39Z</time>
</trkpt>
<trkpt lat="49.23269648104906" lon="9.181513767689466">
<ele>144.2</ele>
<time>2024-05-08T11:20:40Z</time>
</trkpt>
<trkpt lat="49.23274610191584" lon="9.181401198729873">
<ele>144</ele>
<time>2024-05-08T11:20:41Z</time>
</trkpt>
<trkpt lat="49.232768984511495" lon="9.181343028321862">
<ele>144</ele>
<time>2024-05-08T11:20:43Z</time>
</trkpt>
<trkpt lat="49.232788011431694" lon="9.181282008066772">
<ele>144</ele>
<time>2024-05-08T11:20:44Z</time>
</trkpt>
<trkpt lat="49.232803266495466" lon="9.18120950460434">
<ele>144</ele>
<time>2024-05-08T11:20:45Z</time>
</trkpt>
<trkpt lat="49.2328223772347" lon="9.181059803813696">
<ele>144.2</ele>
<time>2024-05-08T11:20:47Z</time>
</trkpt>
<trkpt lat="49.23283000476658" lon="9.18093298561871">
<ele>144.2</ele>
<time>2024-05-08T11:20:48Z</time>
</trkpt>
<trkpt lat="49.23283386044204" lon="9.18087188154459">
<ele>144.2</ele>
<time>2024-05-08T11:20:49Z</time>
</trkpt>
<trkpt lat="49.23283386044204" lon="9.180803233757617">
<ele>144.2</ele>
<time>2024-05-08T11:20:51Z</time>
</trkpt>
<trkpt lat="49.23284148797393" lon="9.180640205740929">
<ele>144.2</ele>
<time>2024-05-08T11:20:52Z</time>
</trkpt>
<trkpt lat="49.23284148797393" lon="9.180553369224072">
<ele>144.2</ele>
<time>2024-05-08T11:20:54Z</time>
</trkpt>
<trkpt lat="49.23284148797393" lon="9.180448511615396">
<ele>144.2</ele>
<time>2024-05-08T11:20:55Z</time>
</trkpt>
<trkpt lat="49.23283763229847" lon="9.180252961814404">
<ele>144</ele>
<time>2024-05-08T11:20:57Z</time>
</trkpt>
<trkpt lat="49.23283386044204" lon="9.180168136954308">
<ele>144</ele>
<time>2024-05-08T11:20:58Z</time>
</trkpt>
<trkpt lat="49.23283000476658" lon="9.18008322827518">
<ele>144</ele>
<time>2024-05-08T11:20:59Z</time>
</trkpt>
<trkpt lat="49.23283000476658" lon="9.179998319596052">
<ele>144</ele>
<time>2024-05-08T11:21:00Z</time>
</trkpt>
<trkpt lat="49.23283000476658" lon="9.179913494735956">
<ele>144</ele>
<time>2024-05-08T11:21:01Z</time>
</trkpt>
<trkpt lat="49.23282623291016" lon="9.1798266582191">
<ele>143.8</ele>
<time>2024-05-08T11:21:02Z</time>
</trkpt>
<trkpt lat="49.2328223772347" lon="9.179653152823448">
<ele>143.8</ele>
<time>2024-05-08T11:21:04Z</time>
</trkpt>
<trkpt lat="49.232807122170925" lon="9.179476713761687">
<ele>143.8</ele>
<time>2024-05-08T11:21:05Z</time>
</trkpt>
<trkpt lat="49.23279949463904" lon="9.17938987724483">
<ele>143.8</ele>
<time>2024-05-08T11:21:06Z</time>
</trkpt>
<trkpt lat="49.23279186710715" lon="9.179307902231812">
<ele>143.8</ele>
<time>2024-05-08T11:21:08Z</time>
</trkpt>
<trkpt lat="49.23277275636792" lon="9.179146718233824">
<ele>143.8</ele>
<time>2024-05-08T11:21:09Z</time>
</trkpt>
<trkpt lat="49.23276512883603" lon="9.17907522059977">
<ele>143.6</ele>
<time>2024-05-08T11:21:10Z</time>
</trkpt>
<trkpt lat="49.23275372944772" lon="9.179010344669225">
<ele>143.6</ele>
<time>2024-05-08T11:21:11Z</time>
</trkpt>
<trkpt lat="49.23274610191584" lon="9.17893691919744">
<ele>143.6</ele>
<time>2024-05-08T11:21:12Z</time>
</trkpt>
<trkpt lat="49.232730846852064" lon="9.1788596380502">
<ele>143.6</ele>
<time>2024-05-08T11:21:14Z</time>
</trkpt>
<trkpt lat="49.23270033672452" lon="9.178694682195784">
<ele>143.8</ele>
<time>2024-05-08T11:21:15Z</time>
</trkpt>
<trkpt lat="49.23268508166075" lon="9.178606923669577">
<ele>143.8</ele>
<time>2024-05-08T11:21:17Z</time>
</trkpt>
<trkpt lat="49.23264308832586" lon="9.178433418273926">
<ele>143.8</ele>
<time>2024-05-08T11:21:18Z</time>
</trkpt>
<trkpt lat="49.232627833262086" lon="9.178348509594798">
<ele>143.8</ele>
<time>2024-05-08T11:21:19Z</time>
</trkpt>
<trkpt lat="49.232608722522855" lon="9.178264606744053">
<ele>143.8</ele>
<time>2024-05-08T11:21:20Z</time>
</trkpt>
<trkpt lat="49.23259346745908" lon="9.178183553740382">
<ele>143.8</ele>
<time>2024-05-08T11:21:22Z</time>
</trkpt>
<trkpt lat="49.23257821239531" lon="9.178105350583792">
<ele>143.8</ele>
<time>2024-05-08T11:21:23Z</time>
</trkpt>
<trkpt lat="49.232551557943225" lon="9.177971826866267">
<ele>143.8</ele>
<time>2024-05-08T11:21:24Z</time>
</trkpt>
<trkpt lat="49.23254007473588" lon="9.17791172862053">
<ele>143.8</ele>
<time>2024-05-08T11:21:25Z</time>
</trkpt>
<trkpt lat="49.23252481967211" lon="9.17785355821252">
<ele>143.8</ele>
<time>2024-05-08T11:21:26Z</time>
</trkpt>
<trkpt lat="49.232509564608335" lon="9.17779345996678">
<ele>143.8</ele>
<time>2024-05-08T11:21:28Z</time>
</trkpt>
<trkpt lat="49.23248668201268" lon="9.17773143388331">
<ele>143.8</ele>
<time>2024-05-08T11:21:29Z</time>
</trkpt>
<trkpt lat="49.23245994374156" lon="9.177658008411528">
<ele>143.8</ele>
<time>2024-05-08T11:21:30Z</time>
</trkpt>
<trkpt lat="49.23239892348647" lon="9.17749305255711">
<ele>143.8</ele>
<time>2024-05-08T11:21:31Z</time>
</trkpt>
<trkpt lat="49.23236841335893" lon="9.177408143877985">
<ele>143.8</ele>
<time>2024-05-08T11:21:33Z</time>
</trkpt>
<trkpt lat="49.23231502063573" lon="9.177231788635254">
<ele>143.8</ele>
<time>2024-05-08T11:21:34Z</time>
</trkpt>
<trkpt lat="49.23228828236461" lon="9.177146879956126">
<ele>143.6</ele>
<time>2024-05-08T11:21:35Z</time>
</trkpt>
<trkpt lat="49.23226162791252" lon="9.17706297710538">
<ele>143.6</ele>
<time>2024-05-08T11:21:36Z</time>
</trkpt>
<trkpt lat="49.23223488964141" lon="9.176978068426251">
<ele>143.4</ele>
<time>2024-05-08T11:21:38Z</time>
</trkpt>
<trkpt lat="49.23220437951386" lon="9.176897937431931">
<ele>143.4</ele>
<time>2024-05-08T11:21:39Z</time>
</trkpt>
<trkpt lat="49.23214335925877" lon="9.17674345895648">
<ele>143.4</ele>
<time>2024-05-08T11:21:40Z</time>
</trkpt>
<trkpt lat="49.232116620987654" lon="9.176670033484696">
<ele>143.4</ele>
<time>2024-05-08T11:21:41Z</time>
</trkpt>
<trkpt lat="49.23208611086011" lon="9.176598535850644">
<ele>143.2</ele>
<time>2024-05-08T11:21:42Z</time>
</trkpt>
<trkpt lat="49.232059456408024" lon="9.176531732082369">
<ele>143.2</ele>
<time>2024-05-08T11:21:44Z</time>
</trkpt>
<trkpt lat="49.23200983554125" lon="9.176422096788883">
<ele>143.4</ele>
<time>2024-05-08T11:21:45Z</time>
</trkpt>
<trkpt lat="49.23198318108916" lon="9.176373481750488">
<ele>143.4</ele>
<time>2024-05-08T11:21:46Z</time>
</trkpt>
<trkpt lat="49.23196021467447" lon="9.176326710730793">
<ele>143.4</ele>
<time>2024-05-08T11:21:47Z</time>
</trkpt>
<trkpt lat="49.231937332078815" lon="9.176281867548823">
<ele>143.6</ele>
<time>2024-05-08T11:21:48Z</time>
</trkpt>
<trkpt lat="49.23191444948315" lon="9.1762313246727">
<ele>143.6</ele>
<time>2024-05-08T11:21:49Z</time>
</trkpt>
<trkpt lat="49.23188779503107" lon="9.176179859787226">
<ele>143.6</ele>
<time>2024-05-08T11:21:51Z</time>
</trkpt>
<trkpt lat="49.23186105675995" lon="9.176126467064025">
<ele>143.8</ele>
<time>2024-05-08T11:21:52Z</time>
</trkpt>
<trkpt lat="49.231838174164295" lon="9.176076846197248">
<ele>143.8</ele>
<time>2024-05-08T11:21:53Z</time>
</trkpt>
<trkpt lat="49.23179240897298" lon="9.175985315814614">
<ele>143.8</ele>
<time>2024-05-08T11:21:54Z</time>
</trkpt>
<trkpt lat="49.23177329823375" lon="9.175939550623298">
<ele>143.8</ele>
<time>2024-05-08T11:21:56Z</time>
</trkpt>
<trkpt lat="49.23173516057432" lon="9.175847014412284">
<ele>144</ele>
<time>2024-05-08T11:21:58Z</time>
</trkpt>
<trkpt lat="49.23169702291489" lon="9.175751628354192">
<ele>143.8</ele>
<time>2024-05-08T11:22:00Z</time>
</trkpt>
<trkpt lat="49.231658885255456" lon="9.175662947818635">
<ele>144</ele>
<time>2024-05-08T11:22:01Z</time>
</trkpt>
<trkpt lat="49.23164363019168" lon="9.175621960312128">
<ele>144</ele>
<time>2024-05-08T11:22:02Z</time>
</trkpt>
<trkpt lat="49.23162460327149" lon="9.175582816824315">
<ele>144</ele>
<time>2024-05-08T11:22:04Z</time>
</trkpt>
<trkpt lat="49.23158638179302" lon="9.17549983598292">
<ele>144</ele>
<time>2024-05-08T11:22:05Z</time>
</trkpt>
<trkpt lat="49.23156735487282" lon="9.17545792646706">
<ele>143.8</ele>
<time>2024-05-08T11:22:06Z</time>
</trkpt>
<trkpt lat="49.23154824413359" lon="9.1754178609699">
<ele>143.8</ele>
<time>2024-05-08T11:22:07Z</time>
</trkpt>
<trkpt lat="49.23153298906982" lon="9.1753816511482">
<ele>143.6</ele>
<time>2024-05-08T11:22:09Z</time>
</trkpt>
<trkpt lat="49.231506334617734" lon="9.17532348074019">
<ele>143.6</ele>
<time>2024-05-08T11:22:10Z</time>
</trkpt>
<trkpt lat="49.23149485141039" lon="9.17530152015388">
<ele>143.6</ele>
<time>2024-05-08T11:22:11Z</time>
</trkpt>
<trkpt lat="49.2314872238785" lon="9.175292886793612">
<ele>143.6</ele>
<time>2024-05-08T11:22:13Z</time>
</trkpt>
<trkpt lat="49.23148345202208" lon="9.175290036946537">
<ele>143.6</ele>
<time>2024-05-08T11:22:14Z</time>
</trkpt>
<trkpt lat="49.23148345202208" lon="9.175288192927836">
<ele>143.6</ele>
<time>2024-05-08T11:22:16Z</time>
</trkpt>
<trkpt lat="49.23148345202208" lon="9.175285259261727">
<ele>143.6</ele>
<time>2024-05-08T11:22:18Z</time>
</trkpt>
<trkpt lat="49.23148345202208" lon="9.175286265090108">
<ele>143.4</ele>
<time>2024-05-08T11:22:19Z</time>
</trkpt>
<trkpt lat="49.23148345202208" lon="9.175288192927836">
<ele>143.4</ele>
<time>2024-05-08T11:22:22Z</time>
</trkpt>
<trkpt lat="49.23148345202208" lon="9.175290036946537">
<ele>143.4</ele>
<time>2024-05-08T11:22:31Z</time>
</trkpt>
<trkpt lat="49.23148345202208" lon="9.175288192927836">
<ele>143.4</ele>
<time>2024-05-08T11:22:32Z</time>
</trkpt>
<trkpt lat="49.23148345202208" lon="9.175286265090108">
<ele>143.4</ele>
<time>2024-05-08T11:22:40Z</time>
</trkpt>
<trkpt lat="49.23148345202208" lon="9.175285259261727">
<ele>143.2</ele>
<time>2024-05-08T11:22:48Z</time>
</trkpt>
<trkpt lat="49.23148345202208" lon="9.17528341524303">
<ele>143.2</ele>
<time>2024-05-08T11:22:52Z</time>
</trkpt>
<trkpt lat="49.23148345202208" lon="9.1752814874053">
<ele>143.2</ele>
<time>2024-05-08T11:23:00Z</time>
</trkpt>
<trkpt lat="49.23148345202208" lon="9.17527955956757">
<ele>143</ele>
<time>2024-05-08T11:23:05Z</time>
</trkpt>
<trkpt lat="49.23148345202208" lon="9.175278637558222">
<ele>143</ele>
<time>2024-05-08T11:23:08Z</time>
</trkpt>
<trkpt lat="49.23148345202208" lon="9.175276709720492">
<ele>142.8</ele>
<time>2024-05-08T11:23:13Z</time>
</trkpt>
<trkpt lat="49.23148345202208" lon="9.175274781882765">
<ele>142.8</ele>
<time>2024-05-08T11:23:16Z</time>
</trkpt>
<trkpt lat="49.2314872238785" lon="9.175274781882765">
<ele>142.8</ele>
<time>2024-05-08T11:23:30Z</time>
</trkpt>
<trkpt lat="49.2314872238785" lon="9.175272937864063">
<ele>142.8</ele>
<time>2024-05-08T11:23:39Z</time>
</trkpt>
<trkpt lat="49.2314872238785" lon="9.175274781882765">
<ele>142.6</ele>
<time>2024-05-08T11:23:49Z</time>
</trkpt>
<trkpt lat="49.23149107955396" lon="9.175274781882765">
<ele>142.6</ele>
<time>2024-05-08T11:23:51Z</time>
</trkpt>
<trkpt lat="49.23149107955396" lon="9.175276709720492">
<ele>142.6</ele>
<time>2024-05-08T11:24:13Z</time>
</trkpt>
<trkpt lat="49.23149107955396" lon="9.175278637558222">
<ele>142.6</ele>
<time>2024-05-08T11:24:20Z</time>
</trkpt>
<trkpt lat="49.23149107955396" lon="9.17527955956757">
<ele>142.6</ele>
<time>2024-05-08T11:24:25Z</time>
</trkpt>
<trkpt lat="49.23149485141039" lon="9.17527955956757">
<ele>142.6</ele>
<time>2024-05-08T11:24:30Z</time>
</trkpt>
<trkpt lat="49.23149485141039" lon="9.175278637558222">
<ele>142.6</ele>
<time>2024-05-08T11:24:35Z</time>
</trkpt>
<trkpt lat="49.23149485141039" lon="9.175276709720492">
<ele>142.6</ele>
<time>2024-05-08T11:24:47Z</time>
</trkpt>
<trkpt lat="49.23149485141039" lon="9.175274781882765">
<ele>142.6</ele>
<time>2024-05-08T11:24:52Z</time>
</trkpt>
<trkpt lat="49.23149870708585" lon="9.175274781882765">
<ele>142.6</ele>
<time>2024-05-08T11:24:54Z</time>
</trkpt>
<trkpt lat="49.23149485141039" lon="9.175272937864063">
<ele>142.6</ele>
<time>2024-05-08T11:25:01Z</time>
</trkpt>
<trkpt lat="49.23149485141039" lon="9.175274781882765">
<ele>142.6</ele>
<time>2024-05-08T11:25:07Z</time>
</trkpt>
<trkpt lat="49.23149485141039" lon="9.175272937864063">
<ele>142.6</ele>
<time>2024-05-08T11:25:23Z</time>
</trkpt>
<trkpt lat="49.23149485141039" lon="9.175271932035685">
<ele>142.8</ele>
<time>2024-05-08T11:25:27Z</time>
</trkpt>
<trkpt lat="49.23149485141039" lon="9.175270004197955">
<ele>142.8</ele>
<time>2024-05-08T11:25:32Z</time>
</trkpt>
<trkpt lat="49.23149107955396" lon="9.175270004197955">
<ele>142.8</ele>
<time>2024-05-08T11:25:33Z</time>
</trkpt>
<trkpt lat="49.2314872238785" lon="9.175270004197955">
<ele>143</ele>
<time>2024-05-08T11:25:57Z</time>
</trkpt>
<trkpt lat="49.2314872238785" lon="9.175268160179256">
<ele>143</ele>
<time>2024-05-08T11:26:01Z</time>
</trkpt>
<trkpt lat="49.2314872238785" lon="9.175266232341528">
<ele>143</ele>
<time>2024-05-08T11:26:23Z</time>
</trkpt>
<trkpt lat="49.2314872238785" lon="9.175268160179256">
<ele>143</ele>
<time>2024-05-08T11:26:25Z</time>
</trkpt>
<trkpt lat="49.2314872238785" lon="9.175270004197955">
<ele>143</ele>
<time>2024-05-08T11:26:31Z</time>
</trkpt>
<trkpt lat="49.2314872238785" lon="9.175271932035685">
<ele>143</ele>
<time>2024-05-08T11:26:40Z</time>
</trkpt>
<trkpt lat="49.2314872238785" lon="9.175272937864063">
<ele>143</ele>
<time>2024-05-08T11:26:44Z</time>
</trkpt>
<trkpt lat="49.2314872238785" lon="9.175274781882765">
<ele>143</ele>
<time>2024-05-08T11:26:47Z</time>
</trkpt>
<trkpt lat="49.2314872238785" lon="9.175276709720492">
<ele>143</ele>
<time>2024-05-08T11:26:53Z</time>
</trkpt>
<trkpt lat="49.2314872238785" lon="9.175278637558222">
<ele>143</ele>
<time>2024-05-08T11:27:09Z</time>
</trkpt>
<trkpt lat="49.2314872238785" lon="9.175276709720492">
<ele>143</ele>
<time>2024-05-08T11:27:10Z</time>
</trkpt>
<trkpt lat="49.2314872238785" lon="9.175274781882765">
<ele>142.8</ele>
<time>2024-05-08T11:27:15Z</time>
</trkpt>
<trkpt lat="49.2314872238785" lon="9.175272937864063">
<ele>142.8</ele>
<time>2024-05-08T11:27:34Z</time>
</trkpt>
<trkpt lat="49.2314872238785" lon="9.175270004197955">
<ele>142.8</ele>
<time>2024-05-08T11:27:37Z</time>
</trkpt>
<trkpt lat="49.23148345202208" lon="9.175249971449375">
<ele>142.8</ele>
<time>2024-05-08T11:27:46Z</time>
</trkpt>
<trkpt lat="49.23148345202208" lon="9.17522524483502">
<ele>142.8</ele>
<time>2024-05-08T11:27:47Z</time>
</trkpt>
<trkpt lat="49.23147582449019" lon="9.17520135641098">
<ele>142.8</ele>
<time>2024-05-08T11:27:48Z</time>
</trkpt>
<trkpt lat="49.2314681969583" lon="9.175174701958897">
<ele>142.8</ele>
<time>2024-05-08T11:27:50Z</time>
</trkpt>
<trkpt lat="49.23144523054361" lon="9.175107898190618">
<ele>142.8</ele>
<time>2024-05-08T11:27:52Z</time>
</trkpt>
<trkpt lat="49.23142997547984" lon="9.175073616206646">
<ele>142.8</ele>
<time>2024-05-08T11:27:53Z</time>
</trkpt>
<trkpt lat="49.2313994653523" lon="9.175003040581942">
<ele>142.8</ele>
<time>2024-05-08T11:27:55Z</time>
</trkpt>
<trkpt lat="49.2313804384321" lon="9.174973452463746">
<ele>142.8</ele>
<time>2024-05-08T11:27:56Z</time>
</trkpt>
<trkpt lat="49.231365183368325" lon="9.17494193650782">
<ele>142.8</ele>
<time>2024-05-08T11:27:57Z</time>
</trkpt>
<trkpt lat="49.23135370016098" lon="9.174906648695467">
<ele>142.8</ele>
<time>2024-05-08T11:27:58Z</time>
</trkpt>
<trkpt lat="49.231346072629094" lon="9.17486666701734">
<ele>142.8</ele>
<time>2024-05-08T11:27:59Z</time>
</trkpt>
<trkpt lat="49.23132319003344" lon="9.174777902662754">
<ele>142.8</ele>
<time>2024-05-08T11:28:01Z</time>
</trkpt>
<trkpt lat="49.231307934969664" lon="9.174684444442391">
<ele>142.8</ele>
<time>2024-05-08T11:28:03Z</time>
</trkpt>
<trkpt lat="49.23130416311323" lon="9.174632979556918">
<ele>142.8</ele>
<time>2024-05-08T11:28:04Z</time>
</trkpt>
<trkpt lat="49.23130416311323" lon="9.174578664824368">
<ele>142.8</ele>
<time>2024-05-08T11:28:05Z</time>
</trkpt>
<trkpt lat="49.23129653558135" lon="9.174463246017694">
<ele>143</ele>
<time>2024-05-08T11:28:07Z</time>
</trkpt>
<trkpt lat="49.23129267990589" lon="9.174403147771956">
<ele>143</ele>
<time>2024-05-08T11:28:08Z</time>
</trkpt>
<trkpt lat="49.23128128051758" lon="9.17427155189216">
<ele>143.4</ele>
<time>2024-05-08T11:28:09Z</time>
</trkpt>
<trkpt lat="49.23127356916666" lon="9.17419812642038">
<ele>143.4</ele>
<time>2024-05-08T11:28:10Z</time>
</trkpt>
<trkpt lat="49.23126979731023" lon="9.174123695120215">
<ele>143.6</ele>
<time>2024-05-08T11:28:11Z</time>
</trkpt>
<trkpt lat="49.23126216977835" lon="9.174044569954276">
<ele>143.8</ele>
<time>2024-05-08T11:28:13Z</time>
</trkpt>
<trkpt lat="49.231250686571" lon="9.173885313794017">
<ele>144</ele>
<time>2024-05-08T11:28:14Z</time>
</trkpt>
<trkpt lat="49.23124305903912" lon="9.173803254961967">
<ele>144</ele>
<time>2024-05-08T11:28:15Z</time>
</trkpt>
<trkpt lat="49.2312316596508" lon="9.1737203579396">
<ele>144</ele>
<time>2024-05-08T11:28:17Z</time>
</trkpt>
<trkpt lat="49.23121640458703" lon="9.17364114895463">
<ele>144</ele>
<time>2024-05-08T11:28:18Z</time>
</trkpt>
<trkpt lat="49.23120114952326" lon="9.173564873635767">
<ele>143.8</ele>
<time>2024-05-08T11:28:19Z</time>
</trkpt>
<trkpt lat="49.231166783720255" lon="9.173411317169666">
<ele>143.8</ele>
<time>2024-05-08T11:28:20Z</time>
</trkpt>
<trkpt lat="49.2311439011246" lon="9.173335041850804">
<ele>143.8</ele>
<time>2024-05-08T11:28:22Z</time>
</trkpt>
<trkpt lat="49.2311248742044" lon="9.173259688541291">
<ele>143.8</ele>
<time>2024-05-08T11:28:23Z</time>
</trkpt>
<trkpt lat="49.231105763465166" lon="9.173185341060162">
<ele>143.8</ele>
<time>2024-05-08T11:28:24Z</time>
</trkpt>
<trkpt lat="49.231067625805736" lon="9.173033712431788">
<ele>143.8</ele>
<time>2024-05-08T11:28:25Z</time>
</trkpt>
<trkpt lat="49.231048515066504" lon="9.172956431284549">
<ele>143.8</ele>
<time>2024-05-08T11:28:27Z</time>
</trkpt>
<trkpt lat="49.23101423308253" lon="9.172806730493903">
<ele>143.8</ele>
<time>2024-05-08T11:28:28Z</time>
</trkpt>
<trkpt lat="49.2309951223433" lon="9.172737076878548">
<ele>143.8</ele>
<time>2024-05-08T11:28:30Z</time>
</trkpt>
<trkpt lat="49.23095321282744" lon="9.172597853466868">
<ele>143.8</ele>
<time>2024-05-08T11:28:31Z</time>
</trkpt>
<trkpt lat="49.23093795776367" lon="9.172528199851511">
<ele>143.8</ele>
<time>2024-05-08T11:28:32Z</time>
</trkpt>
<trkpt lat="49.23091884702444" lon="9.17245670221746">
<ele>143.8</ele>
<time>2024-05-08T11:28:34Z</time>
</trkpt>
<trkpt lat="49.23089973628521" lon="9.172383276745675">
<ele>143.8</ele>
<time>2024-05-08T11:28:35Z</time>
</trkpt>
<trkpt lat="49.23086545430124" lon="9.17224019765854">
<ele>143.8</ele>
<time>2024-05-08T11:28:37Z</time>
</trkpt>
<trkpt lat="49.23082731664181" lon="9.172096196562052">
<ele>143.8</ele>
<time>2024-05-08T11:28:38Z</time>
</trkpt>
<trkpt lat="49.230808205902576" lon="9.172024698928">
<ele>143.8</ele>
<time>2024-05-08T11:28:39Z</time>
</trkpt>
<trkpt lat="49.23078917898238" lon="9.171953201293944">
<ele>143.8</ele>
<time>2024-05-08T11:28:40Z</time>
</trkpt>
<trkpt lat="49.230770068243146" lon="9.17188161984086">
<ele>143.8</ele>
<time>2024-05-08T11:28:41Z</time>
</trkpt>
<trkpt lat="49.230750957503915" lon="9.171808194369078">
<ele>143.8</ele>
<time>2024-05-08T11:28:43Z</time>
</trkpt>
<trkpt lat="49.23071667551994" lon="9.171661343425512">
<ele>143.8</ele>
<time>2024-05-08T11:28:44Z</time>
</trkpt>
<trkpt lat="49.23069756478071" lon="9.171591689810157">
<ele>143.8</ele>
<time>2024-05-08T11:28:45Z</time>
</trkpt>
<trkpt lat="49.23067853786051" lon="9.171522120013831">
<ele>143.8</ele>
<time>2024-05-08T11:28:46Z</time>
</trkpt>
<trkpt lat="49.23065942712128" lon="9.171455316245556">
<ele>143.8</ele>
<time>2024-05-08T11:28:48Z</time>
</trkpt>
<trkpt lat="49.23062128946185" lon="9.171323720365764">
<ele>143.6</ele>
<time>2024-05-08T11:28:49Z</time>
</trkpt>
<trkpt lat="49.23060226254165" lon="9.171257000416515">
<ele>143.6</ele>
<time>2024-05-08T11:28:50Z</time>
</trkpt>
<trkpt lat="49.23058315180242" lon="9.171193046495318">
<ele>143.6</ele>
<time>2024-05-08T11:28:51Z</time>
</trkpt>
<trkpt lat="49.23056789673865" lon="9.1711300984025">
<ele>143.6</ele>
<time>2024-05-08T11:28:52Z</time>
</trkpt>
<trkpt lat="49.23054878599942" lon="9.171066228300331">
<ele>143.6</ele>
<time>2024-05-08T11:28:54Z</time>
</trkpt>
<trkpt lat="49.23051827587187" lon="9.170945109799504">
<ele>143.6</ele>
<time>2024-05-08T11:28:55Z</time>
</trkpt>
<trkpt lat="49.2305030208081" lon="9.17087646201253">
<ele>143.8</ele>
<time>2024-05-08T11:28:56Z</time>
</trkpt>
<trkpt lat="49.23048013821244" lon="9.170804964378476">
<ele>143.6</ele>
<time>2024-05-08T11:28:58Z</time>
</trkpt>
<trkpt lat="49.23046111129224" lon="9.17073623277247">
<ele>143.6</ele>
<time>2024-05-08T11:28:59Z</time>
</trkpt>
<trkpt lat="49.23044200055301" lon="9.170668590813875">
<ele>143.6</ele>
<time>2024-05-08T11:29:00Z</time>
</trkpt>
<trkpt lat="49.23040763475001" lon="9.170531211420894">
<ele>143.6</ele>
<time>2024-05-08T11:29:01Z</time>
</trkpt>
<trkpt lat="49.23038860782981" lon="9.170468263328075">
<ele>143.8</ele>
<time>2024-05-08T11:29:02Z</time>
</trkpt>
<trkpt lat="49.23037335276604" lon="9.170406321063638">
<ele>143.8</ele>
<time>2024-05-08T11:29:03Z</time>
</trkpt>
<trkpt lat="49.230358097702265" lon="9.17033951729536">
<ele>143.8</ele>
<time>2024-05-08T11:29:04Z</time>
</trkpt>
<trkpt lat="49.23034661449492" lon="9.170271791517736">
<ele>144</ele>
<time>2024-05-08T11:29:06Z</time>
</trkpt>
<trkpt lat="49.230338986963034" lon="9.17020314373076">
<ele>144</ele>
<time>2024-05-08T11:29:07Z</time>
</trkpt>
<trkpt lat="49.23033521510661" lon="9.170075403526424">
<ele>144</ele>
<time>2024-05-08T11:29:09Z</time>
</trkpt>
<trkpt lat="49.23033135943115" lon="9.170016227290034">
<ele>144</ele>
<time>2024-05-08T11:29:10Z</time>
</trkpt>
<trkpt lat="49.2303008493036" lon="9.16990659199655">
<ele>144.2</ele>
<time>2024-05-08T11:29:12Z</time>
</trkpt>
<trkpt lat="49.230258939787745" lon="9.16979025118053">
<ele>144.2</ele>
<time>2024-05-08T11:29:13Z</time>
</trkpt>
<trkpt lat="49.23023220151663" lon="9.169736858457329">
<ele>144.2</ele>
<time>2024-05-08T11:29:14Z</time>
</trkpt>
<trkpt lat="49.23020169138909" lon="9.169685309752822">
<ele>144.2</ele>
<time>2024-05-08T11:29:15Z</time>
</trkpt>
<trkpt lat="49.230178808793426" lon="9.169636694714429">
<ele>144.2</ele>
<time>2024-05-08T11:29:16Z</time>
</trkpt>
<trkpt lat="49.23015207052231" lon="9.16959185153246">
<ele>144.2</ele>
<time>2024-05-08T11:29:18Z</time>
</trkpt>
<trkpt lat="49.23011016100645" lon="9.169523203745484">
<ele>144.4</ele>
<time>2024-05-08T11:29:19Z</time>
</trkpt>
<trkpt lat="49.23008727841079" lon="9.169487915933132">
<ele>144.6</ele>
<time>2024-05-08T11:29:21Z</time>
</trkpt>
<trkpt lat="49.2300643119961" lon="9.169449778273702">
<ele>144.6</ele>
<time>2024-05-08T11:29:22Z</time>
</trkpt>
<trkpt lat="49.230022402480245" lon="9.169391607865691">
<ele>144.8</ele>
<time>2024-05-08T11:29:23Z</time>
</trkpt>
<trkpt lat="49.23000329174101" lon="9.16937350295484">
<ele>145</ele>
<time>2024-05-08T11:29:25Z</time>
</trkpt>
<trkpt lat="49.22996138222515" lon="9.169358247891068">
<ele>145</ele>
<time>2024-05-08T11:29:27Z</time>
</trkpt>
<trkpt lat="49.229946127161384" lon="9.169380124658346">
<ele>145</ele>
<time>2024-05-08T11:29:28Z</time>
</trkpt>
<trkpt lat="49.2299384996295" lon="9.16941449046135">
<ele>145.2</ele>
<time>2024-05-08T11:29:29Z</time>
</trkpt>
<trkpt lat="49.2299384996295" lon="9.169487915933132">
<ele>145.2</ele>
<time>2024-05-08T11:29:31Z</time>
</trkpt>
<trkpt lat="49.2299384996295" lon="9.169567041099072">
<ele>145.4</ele>
<time>2024-05-08T11:29:33Z</time>
</trkpt>
<trkpt lat="49.229942271485925" lon="9.169643400236964">
<ele>145.6</ele>
<time>2024-05-08T11:29:34Z</time>
</trkpt>
<trkpt lat="49.22994989901781" lon="9.169679610058663">
<ele>145.8</ele>
<time>2024-05-08T11:29:36Z</time>
</trkpt>
<trkpt lat="49.2299575265497" lon="9.169714897871016">
<ele>145.8</ele>
<time>2024-05-08T11:29:37Z</time>
</trkpt>
<trkpt lat="49.22996515408158" lon="9.169753035530448">
<ele>146</ele>
<time>2024-05-08T11:29:38Z</time>
</trkpt>
<trkpt lat="49.22996900975704" lon="9.16979025118053">
<ele>146</ele>
<time>2024-05-08T11:29:39Z</time>
</trkpt>
<trkpt lat="49.22997278161347" lon="9.16986652649939">
<ele>146.4</ele>
<time>2024-05-08T11:29:41Z</time>
</trkpt>
<trkpt lat="49.22996515408158" lon="9.169901814311745">
<ele>146.6</ele>
<time>2024-05-08T11:29:42Z</time>
</trkpt>
<trkpt lat="49.22993087209761" lon="9.169942801818252">
<ele>146.8</ele>
<time>2024-05-08T11:29:43Z</time>
</trkpt>
<trkpt lat="49.22991561703384" lon="9.169958056882024">
<ele>147</ele>
<time>2024-05-08T11:29:44Z</time>
</trkpt>
<trkpt lat="49.22989650629461" lon="9.169969540089369">
<ele>147.4</ele>
<time>2024-05-08T11:29:46Z</time>
</trkpt>
<trkpt lat="49.22988502308726" lon="9.169975239783524">
<ele>147.4</ele>
<time>2024-05-08T11:29:47Z</time>
</trkpt>
<trkpt lat="49.229862140491605" lon="9.169968534260988">
<ele>147.8</ele>
<time>2024-05-08T11:29:48Z</time>
</trkpt>
<trkpt lat="49.22984688542783" lon="9.169956129044294">
<ele>148</ele>
<time>2024-05-08T11:29:49Z</time>
</trkpt>
<trkpt lat="49.22983548603952" lon="9.169931402429938">
<ele>148</ele>
<time>2024-05-08T11:29:50Z</time>
</trkpt>
<trkpt lat="49.22982023097575" lon="9.169897958636284">
<ele>148.2</ele>
<time>2024-05-08T11:29:52Z</time>
</trkpt>
<trkpt lat="49.22979734838009" lon="9.169861748814585">
<ele>148.4</ele>
<time>2024-05-08T11:29:53Z</time>
</trkpt>
<trkpt lat="49.22975158318877" lon="9.16980642825365">
<ele>148.8</ele>
<time>2024-05-08T11:29:54Z</time>
</trkpt>
<trkpt lat="49.22972861677408" lon="9.169779773801563">
<ele>149</ele>
<time>2024-05-08T11:29:55Z</time>
</trkpt>
<trkpt lat="49.229705734178424" lon="9.169745407998562">
<ele>149.2</ele>
<time>2024-05-08T11:29:56Z</time>
</trkpt>
<trkpt lat="49.229682851582766" lon="9.169714897871016">
<ele>149.2</ele>
<time>2024-05-08T11:29:57Z</time>
</trkpt>
<trkpt lat="49.229663824662566" lon="9.169683381915092">
<ele>149.2</ele>
<time>2024-05-08T11:29:59Z</time>
</trkpt>
<trkpt lat="49.229625687003136" lon="9.169616661965849">
<ele>149.4</ele>
<time>2024-05-08T11:30:00Z</time>
</trkpt>
<trkpt lat="49.229606576263905" lon="9.169583301991224">
<ele>149.6</ele>
<time>2024-05-08T11:30:01Z</time>
</trkpt>
<trkpt lat="49.229587549343705" lon="9.169549942016602">
<ele>149.6</ele>
<time>2024-05-08T11:30:02Z</time>
</trkpt>
<trkpt lat="49.229568438604474" lon="9.169516498222947">
<ele>149.6</ele>
<time>2024-05-08T11:30:03Z</time>
</trkpt>
<trkpt lat="49.229545556008816" lon="9.169486993923783">
<ele>149.8</ele>
<time>2024-05-08T11:30:05Z</time>
</trkpt>
<trkpt lat="49.229526445269585" lon="9.169458327814937">
<ele>150</ele>
<time>2024-05-08T11:30:06Z</time>
</trkpt>
<trkpt lat="49.229503562673926" lon="9.169429745525122">
<ele>150.2</ele>
<time>2024-05-08T11:30:07Z</time>
</trkpt>
<trkpt lat="49.22948453575373" lon="9.169400157406926">
<ele>150.2</ele>
<time>2024-05-08T11:30:08Z</time>
</trkpt>
<trkpt lat="49.229465425014496" lon="9.169369647279382">
<ele>150.4</ele>
<time>2024-05-08T11:30:09Z</time>
</trkpt>
<trkpt lat="49.22943491488695" lon="9.169304771348834">
<ele>150.8</ele>
<time>2024-05-08T11:30:10Z</time>
</trkpt>
<trkpt lat="49.22942351549864" lon="9.169269483536482">
<ele>151</ele>
<time>2024-05-08T11:30:12Z</time>
</trkpt>
<trkpt lat="49.229385294020176" lon="9.169197985902429">
<ele>151.4</ele>
<time>2024-05-08T11:30:14Z</time>
</trkpt>
<trkpt lat="49.22935101203621" lon="9.169121710583568">
<ele>151.8</ele>
<time>2024-05-08T11:30:15Z</time>
</trkpt>
<trkpt lat="49.22933952882886" lon="9.169081645086408">
<ele>152</ele>
<time>2024-05-08T11:30:17Z</time>
</trkpt>
<trkpt lat="49.229328129440546" lon="9.169048285111783">
<ele>152.2</ele>
<time>2024-05-08T11:30:18Z</time>
</trkpt>
<trkpt lat="49.229312874376774" lon="9.169012997299433">
<ele>152.4</ele>
<time>2024-05-08T11:30:19Z</time>
</trkpt>
<trkpt lat="49.22928236424923" lon="9.168956754729152">
<ele>152.8</ele>
<time>2024-05-08T11:30:20Z</time>
</trkpt>
<trkpt lat="49.22926325351" lon="9.168914761394262">
<ele>153.2</ele>
<time>2024-05-08T11:30:22Z</time>
</trkpt>
<trkpt lat="49.22922511585057" lon="9.168813675642014">
<ele>153.6</ele>
<time>2024-05-08T11:30:23Z</time>
</trkpt>
<trkpt lat="49.2292098607868" lon="9.168769754469396">
<ele>153.8</ele>
<time>2024-05-08T11:30:24Z</time>
</trkpt>
<trkpt lat="49.22919460572302" lon="9.16872499510646">
<ele>154.2</ele>
<time>2024-05-08T11:30:26Z</time>
</trkpt>
<trkpt lat="49.22918312251568" lon="9.168680151924493">
<ele>154.4</ele>
<time>2024-05-08T11:30:27Z</time>
</trkpt>
<trkpt lat="49.22915646806359" lon="9.168595243245363">
<ele>154.8</ele>
<time>2024-05-08T11:30:29Z</time>
</trkpt>
<trkpt lat="49.229133585467935" lon="9.168510418385267">
<ele>155.2</ele>
<time>2024-05-08T11:30:31Z</time>
</trkpt>
<trkpt lat="49.22911833040416" lon="9.168431209400296">
<ele>155.6</ele>
<time>2024-05-08T11:30:32Z</time>
</trkpt>
<trkpt lat="49.22910684719682" lon="9.168393071740866">
<ele>155.8</ele>
<time>2024-05-08T11:30:33Z</time>
</trkpt>
<trkpt lat="49.229095447808504" lon="9.168353006243706">
<ele>156.2</ele>
<time>2024-05-08T11:30:34Z</time>
</trkpt>
<trkpt lat="49.22908782027662" lon="9.168313024565578">
<ele>156.4</ele>
<time>2024-05-08T11:30:35Z</time>
</trkpt>
<trkpt lat="49.22907633706927" lon="9.168274803087115">
<ele>156.6</ele>
<time>2024-05-08T11:30:37Z</time>
</trkpt>
<trkpt lat="49.229072565212846" lon="9.168238593265414">
<ele>156.8</ele>
<time>2024-05-08T11:30:38Z</time>
</trkpt>
<trkpt lat="49.22906493768096" lon="9.168198527768254">
<ele>156.8</ele>
<time>2024-05-08T11:30:39Z</time>
</trkpt>
<trkpt lat="49.229057310149074" lon="9.168158462271094">
<ele>157</ele>
<time>2024-05-08T11:30:40Z</time>
</trkpt>
<trkpt lat="49.22904968261719" lon="9.168118396773934">
<ele>157.2</ele>
<time>2024-05-08T11:30:41Z</time>
</trkpt>
<trkpt lat="49.22904968261719" lon="9.168073637410998">
<ele>157.4</ele>
<time>2024-05-08T11:30:42Z</time>
</trkpt>
<trkpt lat="49.22904582694173" lon="9.168033571913838">
<ele>157.6</ele>
<time>2024-05-08T11:30:43Z</time>
</trkpt>
<trkpt lat="49.22904197126627" lon="9.168000211939216">
<ele>158</ele>
<time>2024-05-08T11:30:44Z</time>
</trkpt>
<trkpt lat="49.22904197126627" lon="9.16792863048613">
<ele>158.4</ele>
<time>2024-05-08T11:30:46Z</time>
</trkpt>
<trkpt lat="49.22904197126627" lon="9.16789149865508">
<ele>158.6</ele>
<time>2024-05-08T11:30:47Z</time>
</trkpt>
<trkpt lat="49.22904197126627" lon="9.16785143315792">
<ele>158.8</ele>
<time>2024-05-08T11:30:48Z</time>
</trkpt>
<trkpt lat="49.22903819940984" lon="9.16777323000133">
<ele>159</ele>
<time>2024-05-08T11:30:50Z</time>
</trkpt>
<trkpt lat="49.22903819940984" lon="9.1677350923419">
<ele>159.2</ele>
<time>2024-05-08T11:30:51Z</time>
</trkpt>
<trkpt lat="49.22904197126627" lon="9.167696870863438">
<ele>159.4</ele>
<time>2024-05-08T11:30:52Z</time>
</trkpt>
<trkpt lat="49.22904197126627" lon="9.167663510888817">
<ele>159.6</ele>
<time>2024-05-08T11:30:53Z</time>
</trkpt>
<trkpt lat="49.22904197126627" lon="9.167630150914192">
<ele>159.8</ele>
<time>2024-05-08T11:30:54Z</time>
</trkpt>
<trkpt lat="49.22904582694173" lon="9.167566280812023">
<ele>160</ele>
<time>2024-05-08T11:30:56Z</time>
</trkpt>
<trkpt lat="49.22904582694173" lon="9.167529987171292">
<ele>160.2</ele>
<time>2024-05-08T11:30:57Z</time>
</trkpt>
<trkpt lat="49.229053454473615" lon="9.16745848953724">
<ele>160.8</ele>
<time>2024-05-08T11:30:59Z</time>
</trkpt>
<trkpt lat="49.2290610820055" lon="9.167385064065456">
<ele>161.2</ele>
<time>2024-05-08T11:31:01Z</time>
</trkpt>
<trkpt lat="49.22908019274473" lon="9.167327815666797">
<ele>161.4</ele>
<time>2024-05-08T11:31:03Z</time>
</trkpt>
<trkpt lat="49.22910307534039" lon="9.167275428771973">
<ele>161.6</ele>
<time>2024-05-08T11:31:04Z</time>
</trkpt>
<trkpt lat="49.22911833040416" lon="9.167251540347934">
<ele>161.8</ele>
<time>2024-05-08T11:31:06Z</time>
</trkpt>
<trkpt lat="49.22912972979248" lon="9.167228657752275">
<ele>162</ele>
<time>2024-05-08T11:31:07Z</time>
</trkpt>
<trkpt lat="49.22914121299982" lon="9.167201919481158">
<ele>162.2</ele>
<time>2024-05-08T11:31:08Z</time>
</trkpt>
<trkpt lat="49.22915646806359" lon="9.16713997721672">
<ele>162.6</ele>
<time>2024-05-08T11:31:09Z</time>
</trkpt>
<trkpt lat="49.22916409559548" lon="9.167110389098523">
<ele>162.8</ele>
<time>2024-05-08T11:31:11Z</time>
</trkpt>
<trkpt lat="49.229171723127365" lon="9.167044591158628">
<ele>163.2</ele>
<time>2024-05-08T11:31:12Z</time>
</trkpt>
<trkpt lat="49.22917549498379" lon="9.167013159021735">
<ele>163.4</ele>
<time>2024-05-08T11:31:13Z</time>
</trkpt>
<trkpt lat="49.22918312251568" lon="9.16698164306581">
<ele>163.6</ele>
<time>2024-05-08T11:31:14Z</time>
</trkpt>
<trkpt lat="49.22918312251568" lon="9.166948283091187">
<ele>163.8</ele>
<time>2024-05-08T11:31:16Z</time>
</trkpt>
<trkpt lat="49.229190750047565" lon="9.16688147932291">
<ele>164</ele>
<time>2024-05-08T11:31:18Z</time>
</trkpt>
<trkpt lat="49.22919460572302" lon="9.166811909526588">
<ele>164.4</ele>
<time>2024-05-08T11:31:20Z</time>
</trkpt>
<trkpt lat="49.229190750047565" lon="9.166774693876503">
<ele>164.6</ele>
<time>2024-05-08T11:31:21Z</time>
</trkpt>
<trkpt lat="49.22918312251568" lon="9.166696490719914">
<ele>165</ele>
<time>2024-05-08T11:31:23Z</time>
</trkpt>
<trkpt lat="49.229171723127365" lon="9.166614515706897">
<ele>165.4</ele>
<time>2024-05-08T11:31:25Z</time>
</trkpt>
<trkpt lat="49.229167867451906" lon="9.166578222066164">
<ele>165.6</ele>
<time>2024-05-08T11:31:26Z</time>
</trkpt>
<trkpt lat="49.22916409559548" lon="9.166501946747305">
<ele>165.8</ele>
<time>2024-05-08T11:31:28Z</time>
</trkpt>
<trkpt lat="49.22916409559548" lon="9.16642944328487">
<ele>166.2</ele>
<time>2024-05-08T11:31:30Z</time>
</trkpt>
<trkpt lat="49.229167867451906" lon="9.166395161300898">
<ele>166.6</ele>
<time>2024-05-08T11:31:31Z</time>
</trkpt>
<trkpt lat="49.229167867451906" lon="9.166363645344973">
<ele>166.8</ele>
<time>2024-05-08T11:31:32Z</time>
</trkpt>
<trkpt lat="49.229171723127365" lon="9.166293069720268">
<ele>167.2</ele>
<time>2024-05-08T11:31:34Z</time>
</trkpt>
<trkpt lat="49.229171723127365" lon="9.166263565421104">
<ele>167.4</ele>
<time>2024-05-08T11:31:35Z</time>
</trkpt>
<trkpt lat="49.22917935065925" lon="9.166210172697902">
<ele>167.8</ele>
<time>2024-05-08T11:31:36Z</time>
</trkpt>
<trkpt lat="49.22918312251568" lon="9.166179578751326">
<ele>168</ele>
<time>2024-05-08T11:31:37Z</time>
</trkpt>
<trkpt lat="49.229190750047565" lon="9.166150074452162">
<ele>168.2</ele>
<time>2024-05-08T11:31:39Z</time>
</trkpt>
<trkpt lat="49.2292098607868" lon="9.166088048368692">
<ele>168.8</ele>
<time>2024-05-08T11:31:40Z</time>
</trkpt>
<trkpt lat="49.22921748831868" lon="9.166058460250497">
<ele>169</ele>
<time>2024-05-08T11:31:41Z</time>
</trkpt>
<trkpt lat="49.229232743382454" lon="9.166029877960682">
<ele>169.2</ele>
<time>2024-05-08T11:31:43Z</time>
</trkpt>
<trkpt lat="49.229251854121685" lon="9.165965002030134">
<ele>169.8</ele>
<time>2024-05-08T11:31:44Z</time>
</trkpt>
<trkpt lat="49.22925948165357" lon="9.16593449190259">
<ele>170</ele>
<time>2024-05-08T11:31:46Z</time>
</trkpt>
<trkpt lat="49.22927850857377" lon="9.16587539948523">
<ele>170.4</ele>
<time>2024-05-08T11:31:47Z</time>
</trkpt>
<trkpt lat="49.22928999178112" lon="9.165844889357686">
<ele>170.6</ele>
<time>2024-05-08T11:31:48Z</time>
</trkpt>
<trkpt lat="49.229297619313" lon="9.16581530123949">
<ele>171</ele>
<time>2024-05-08T11:31:49Z</time>
</trkpt>
<trkpt lat="49.22930139116943" lon="9.165780013427138">
<ele>171.2</ele>
<time>2024-05-08T11:31:51Z</time>
</trkpt>
<trkpt lat="49.22930524684489" lon="9.165746653452516">
<ele>171.4</ele>
<time>2024-05-08T11:31:52Z</time>
</trkpt>
<trkpt lat="49.2293166462332" lon="9.165684627369046">
<ele>172.2</ele>
<time>2024-05-08T11:31:53Z</time>
</trkpt>
<trkpt lat="49.22932427376509" lon="9.16565990075469">
<ele>172.6</ele>
<time>2024-05-08T11:31:55Z</time>
</trkpt>
<trkpt lat="49.22933952882886" lon="9.16560173034668">
<ele>173.4</ele>
<time>2024-05-08T11:31:57Z</time>
</trkpt>
<trkpt lat="49.22934338450432" lon="9.165576919913292">
<ele>173.8</ele>
<time>2024-05-08T11:31:58Z</time>
</trkpt>
<trkpt lat="49.22935478389263" lon="9.165556887164712">
<ele>174</ele>
<time>2024-05-08T11:31:59Z</time>
</trkpt>
<trkpt lat="49.2293700389564" lon="9.165512965992091">
<ele>174.4</ele>
<time>2024-05-08T11:32:00Z</time>
</trkpt>
<trkpt lat="49.2293700389564" lon="9.165486311540008">
<ele>174.6</ele>
<time>2024-05-08T11:32:02Z</time>
</trkpt>
<trkpt lat="49.22937389463186" lon="9.165426213294268">
<ele>174.8</ele>
<time>2024-05-08T11:32:03Z</time>
</trkpt>
<trkpt lat="49.22937766648829" lon="9.165394781157374">
<ele>175</ele>
<time>2024-05-08T11:32:04Z</time>
</trkpt>
<trkpt lat="49.22938152216375" lon="9.16536326520145">
<ele>175.2</ele>
<time>2024-05-08T11:32:06Z</time>
</trkpt>
<trkpt lat="49.22938152216375" lon="9.165301322937012">
<ele>175.6</ele>
<time>2024-05-08T11:32:08Z</time>
</trkpt>
<trkpt lat="49.22938152216375" lon="9.165266957134008">
<ele>175.8</ele>
<time>2024-05-08T11:32:09Z</time>
</trkpt>
<trkpt lat="49.22938152216375" lon="9.165233597159386">
<ele>176</ele>
<time>2024-05-08T11:32:10Z</time>
</trkpt>
<trkpt lat="49.229385294020176" lon="9.165200153365731">
<ele>176.2</ele>
<time>2024-05-08T11:32:11Z</time>
</trkpt>
<trkpt lat="49.229389149695635" lon="9.16514198295772">
<ele>176</ele>
<time>2024-05-08T11:32:13Z</time>
</trkpt>
<trkpt lat="49.22939677722752" lon="9.16508481837809">
<ele>176</ele>
<time>2024-05-08T11:32:14Z</time>
</trkpt>
<trkpt lat="49.22940063290298" lon="9.165058080106974">
<ele>176.4</ele>
<time>2024-05-08T11:32:16Z</time>
</trkpt>
<trkpt lat="49.229408260434866" lon="9.165001837536693">
<ele>177</ele>
<time>2024-05-08T11:32:18Z</time>
</trkpt>
<trkpt lat="49.22941203229129" lon="9.164939811453223">
<ele>177.6</ele>
<time>2024-05-08T11:32:19Z</time>
</trkpt>
<trkpt lat="49.22941203229129" lon="9.16490837931633">
<ele>177.8</ele>
<time>2024-05-08T11:32:20Z</time>
</trkpt>
<trkpt lat="49.22941588796675" lon="9.164876863360403">
<ele>178</ele>
<time>2024-05-08T11:32:22Z</time>
</trkpt>
<trkpt lat="49.22941965982318" lon="9.164818692952394">
<ele>177.8</ele>
<time>2024-05-08T11:32:23Z</time>
</trkpt>
<trkpt lat="49.22941965982318" lon="9.16479011066258">
<ele>178</ele>
<time>2024-05-08T11:32:25Z</time>
</trkpt>
<trkpt lat="49.22942351549864" lon="9.164763372391462">
<ele>178.2</ele>
<time>2024-05-08T11:32:26Z</time>
</trkpt>
<trkpt lat="49.22943114303053" lon="9.164711907505987">
<ele>178.4</ele>
<time>2024-05-08T11:32:27Z</time>
</trkpt>
<trkpt lat="49.22943491488695" lon="9.164686175063252">
<ele>178.4</ele>
<time>2024-05-08T11:32:28Z</time>
</trkpt>
<trkpt lat="49.22943491488695" lon="9.164661364629865">
<ele>178.4</ele>
<time>2024-05-08T11:32:30Z</time>
</trkpt>
<trkpt lat="49.22943491488695" lon="9.164634626358747">
<ele>178.6</ele>
<time>2024-05-08T11:32:31Z</time>
</trkpt>
<trkpt lat="49.22943877056241" lon="9.164607971906662">
<ele>179</ele>
<time>2024-05-08T11:32:32Z</time>
</trkpt>
<trkpt lat="49.22943877056241" lon="9.164578383788466">
<ele>179.2</ele>
<time>2024-05-08T11:32:33Z</time>
</trkpt>
<trkpt lat="49.22943877056241" lon="9.164549801498652">
<ele>179.4</ele>
<time>2024-05-08T11:32:34Z</time>
</trkpt>
<trkpt lat="49.22943877056241" lon="9.164521135389805">
<ele>179.6</ele>
<time>2024-05-08T11:32:35Z</time>
</trkpt>
<trkpt lat="49.22943491488695" lon="9.164488781243564">
<ele>179.8</ele>
<time>2024-05-08T11:32:36Z</time>
</trkpt>
<trkpt lat="49.22943491488695" lon="9.164456343278289">
<ele>180</ele>
<time>2024-05-08T11:32:37Z</time>
</trkpt>
<trkpt lat="49.229427287355065" lon="9.164388617500665">
<ele>180.4</ele>
<time>2024-05-08T11:32:39Z</time>
</trkpt>
<trkpt lat="49.229427287355065" lon="9.16435332968831">
<ele>180.4</ele>
<time>2024-05-08T11:32:40Z</time>
</trkpt>
<trkpt lat="49.22943491488695" lon="9.164284681901336">
<ele>181</ele>
<time>2024-05-08T11:32:42Z</time>
</trkpt>
<trkpt lat="49.22943877056241" lon="9.164251321926711">
<ele>181</ele>
<time>2024-05-08T11:32:43Z</time>
</trkpt>
<trkpt lat="49.2294463980943" lon="9.16421787813306">
<ele>181.2</ele>
<time>2024-05-08T11:32:44Z</time>
</trkpt>
<trkpt lat="49.22945402562618" lon="9.164159707725048">
<ele>181.2</ele>
<time>2024-05-08T11:32:45Z</time>
</trkpt>
<trkpt lat="49.22945779748261" lon="9.164132047444582">
<ele>181.4</ele>
<time>2024-05-08T11:32:46Z</time>
</trkpt>
<trkpt lat="49.22946165315807" lon="9.164101537317038">
<ele>181.8</ele>
<time>2024-05-08T11:32:47Z</time>
</trkpt>
<trkpt lat="49.229465425014496" lon="9.164074882864952">
<ele>182.2</ele>
<time>2024-05-08T11:32:49Z</time>
</trkpt>
<trkpt lat="49.22947305254638" lon="9.16402149014175">
<ele>182.8</ele>
<time>2024-05-08T11:32:50Z</time>
</trkpt>
<trkpt lat="49.22947690822184" lon="9.163994751870632">
<ele>182.8</ele>
<time>2024-05-08T11:32:52Z</time>
</trkpt>
<trkpt lat="49.22948068007827" lon="9.163968013599517">
<ele>183</ele>
<time>2024-05-08T11:32:53Z</time>
</trkpt>
<trkpt lat="49.22948068007827" lon="9.16394135914743">
<ele>183.2</ele>
<time>2024-05-08T11:32:54Z</time>
</trkpt>
<trkpt lat="49.22948453575373" lon="9.163887966424229">
<ele>183.4</ele>
<time>2024-05-08T11:32:56Z</time>
</trkpt>
<trkpt lat="49.22948453575373" lon="9.163834489881992">
<ele>183.6</ele>
<time>2024-05-08T11:32:58Z</time>
</trkpt>
<trkpt lat="49.229488307610154" lon="9.163798280060291">
<ele>184</ele>
<time>2024-05-08T11:32:59Z</time>
</trkpt>
<trkpt lat="49.229488307610154" lon="9.16378210298717">
<ele>184.2</ele>
<time>2024-05-08T11:33:00Z</time>
</trkpt>
<trkpt lat="49.229488307610154" lon="9.163768691942096">
<ele>184.2</ele>
<time>2024-05-08T11:33:01Z</time>
</trkpt>
<trkpt lat="49.229488307610154" lon="9.163746815174818">
<ele>184.4</ele>
<time>2024-05-08T11:33:03Z</time>
</trkpt>
<trkpt lat="49.2294997908175" lon="9.16370004415512">
<ele>184.6</ele>
<time>2024-05-08T11:33:05Z</time>
</trkpt>
<trkpt lat="49.229503562673926" lon="9.163678167387843">
<ele>184.8</ele>
<time>2024-05-08T11:33:06Z</time>
</trkpt>
<trkpt lat="49.229503562673926" lon="9.163658134639263">
<ele>185.2</ele>
<time>2024-05-08T11:33:07Z</time>
</trkpt>
<trkpt lat="49.2294997908175" lon="9.163629468530416">
<ele>185.4</ele>
<time>2024-05-08T11:33:08Z</time>
</trkpt>
<trkpt lat="49.229503562673926" lon="9.163599964231253">
<ele>185.4</ele>
<time>2024-05-08T11:33:09Z</time>
</trkpt>
<trkpt lat="49.2294997908175" lon="9.163568448275328">
<ele>185.6</ele>
<time>2024-05-08T11:33:10Z</time>
</trkpt>
<trkpt lat="49.2294997908175" lon="9.16354363784194">
<ele>185.6</ele>
<time>2024-05-08T11:33:11Z</time>
</trkpt>
<trkpt lat="49.22949216328561" lon="9.16348647326231">
<ele>185.6</ele>
<time>2024-05-08T11:33:13Z</time>
</trkpt>
<trkpt lat="49.22948068007827" lon="9.163450179621575">
<ele>185.8</ele>
<time>2024-05-08T11:33:14Z</time>
</trkpt>
<trkpt lat="49.22947690822184" lon="9.163419669494033">
<ele>185.8</ele>
<time>2024-05-08T11:33:15Z</time>
</trkpt>
<trkpt lat="49.22947305254638" lon="9.163350099697707">
<ele>185.8</ele>
<time>2024-05-08T11:33:17Z</time>
</trkpt>
<trkpt lat="49.229465425014496" lon="9.163319505751131">
<ele>185.8</ele>
<time>2024-05-08T11:33:18Z</time>
</trkpt>
<trkpt lat="49.22945016995072" lon="9.163274746388195">
<ele>185.8</ele>
<time>2024-05-08T11:33:19Z</time>
</trkpt>
<trkpt lat="49.22943877056241" lon="9.163233675062656">
<ele>185.6</ele>
<time>2024-05-08T11:33:20Z</time>
</trkpt>
<trkpt lat="49.229427287355065" lon="9.163153627887368">
<ele>185</ele>
<time>2024-05-08T11:33:22Z</time>
</trkpt>
<trkpt lat="49.22942351549864" lon="9.1630916018039">
<ele>184.6</ele>
<time>2024-05-08T11:33:23Z</time>
</trkpt>
<trkpt lat="49.229427287355065" lon="9.163066791370513">
<ele>184.4</ele>
<time>2024-05-08T11:33:24Z</time>
</trkpt>
<trkpt lat="49.229427287355065" lon="9.163040136918426">
<ele>184.4</ele>
<time>2024-05-08T11:33:26Z</time>
</trkpt>
<trkpt lat="49.229427287355065" lon="9.163013398647308">
<ele>184.6</ele>
<time>2024-05-08T11:33:27Z</time>
</trkpt>
<trkpt lat="49.229427287355065" lon="9.162961933761837">
<ele>184.4</ele>
<time>2024-05-08T11:33:28Z</time>
</trkpt>
<trkpt lat="49.229427287355065" lon="9.16292949579656">
<ele>184.4</ele>
<time>2024-05-08T11:33:30Z</time>
</trkpt>
<trkpt lat="49.229427287355065" lon="9.162904685363172">
<ele>184.4</ele>
<time>2024-05-08T11:33:31Z</time>
</trkpt>
<trkpt lat="49.22943114303053" lon="9.16289135813713">
<ele>184.4</ele>
<time>2024-05-08T11:33:32Z</time>
</trkpt>
<trkpt lat="49.22943491488695" lon="9.162884652614594">
<ele>184.4</ele>
<time>2024-05-08T11:33:34Z</time>
</trkpt>
<trkpt lat="49.22943491488695" lon="9.162881802767515">
<ele>184.4</ele>
<time>2024-05-08T11:33:35Z</time>
</trkpt>
<trkpt lat="49.22943877056241" lon="9.162879874929786">
<ele>184.6</ele>
<time>2024-05-08T11:33:36Z</time>
</trkpt>
<trkpt lat="49.22944254241884" lon="9.162868475541472">
<ele>184.6</ele>
<time>2024-05-08T11:33:37Z</time>
</trkpt>
<trkpt lat="49.2294463980943" lon="9.162856992334127">
<ele>184.4</ele>
<time>2024-05-08T11:33:39Z</time>
</trkpt>
<trkpt lat="49.2294463980943" lon="9.162837965413928">
<ele>184.2</ele>
<time>2024-05-08T11:33:40Z</time>
</trkpt>
<trkpt lat="49.2294463980943" lon="9.162841737270355">
<ele>184.2</ele>
<time>2024-05-08T11:33:41Z</time>
</trkpt>
<trkpt lat="49.2294463980943" lon="9.162839809432626">
<ele>184.2</ele>
<time>2024-05-08T11:33:42Z</time>
</trkpt>
<trkpt lat="49.22944254241884" lon="9.162837965413928">
<ele>184</ele>
<time>2024-05-08T11:33:43Z</time>
</trkpt>
<trkpt lat="49.22944254241884" lon="9.16283511556685">
<ele>184</ele>
<time>2024-05-08T11:33:44Z</time>
</trkpt>
<trkpt lat="49.22945016995072" lon="9.162828410044312">
<ele>184</ele>
<time>2024-05-08T11:33:45Z</time>
</trkpt>
<trkpt lat="49.22945016995072" lon="9.162826482206585">
<ele>184</ele>
<time>2024-05-08T11:33:46Z</time>
</trkpt>
<trkpt lat="49.22945016995072" lon="9.162824554368854">
<ele>184.2</ele>
<time>2024-05-08T11:33:47Z</time>
</trkpt>
<trkpt lat="49.22945016995072" lon="9.162823632359505">
<ele>184.2</ele>
<time>2024-05-08T11:33:50Z</time>
</trkpt>
<trkpt lat="49.22945016995072" lon="9.16281315498054">
<ele>184.2</ele>
<time>2024-05-08T11:33:51Z</time>
</trkpt>
<trkpt lat="49.22945016995072" lon="9.162810305133462">
<ele>184.4</ele>
<time>2024-05-08T11:33:52Z</time>
</trkpt>
<trkpt lat="49.22945016995072" lon="9.162808377295732">
<ele>184.4</ele>
<time>2024-05-08T11:33:54Z</time>
</trkpt>
<trkpt lat="49.22945016995072" lon="9.162806449458005">
<ele>184.4</ele>
<time>2024-05-08T11:33:56Z</time>
</trkpt>
<trkpt lat="49.22945016995072" lon="9.162808377295732">
<ele>184.4</ele>
<time>2024-05-08T11:33:57Z</time>
</trkpt>
<trkpt lat="49.22945016995072" lon="9.162810305133462">
<ele>184.6</ele>
<time>2024-05-08T11:33:59Z</time>
</trkpt>
<trkpt lat="49.22945016995072" lon="9.162808377295732">
<ele>184.6</ele>
<time>2024-05-08T11:34:00Z</time>
</trkpt>
<trkpt lat="49.22945016995072" lon="9.162810305133462">
<ele>184.6</ele>
<time>2024-05-08T11:34:03Z</time>
</trkpt>
<trkpt lat="49.22945016995072" lon="9.162808377295732">
<ele>184.4</ele>
<time>2024-05-08T11:34:05Z</time>
</trkpt>
<trkpt lat="49.22945016995072" lon="9.162804521620274">
<ele>184.4</ele>
<time>2024-05-08T11:34:06Z</time>
</trkpt>
<trkpt lat="49.22945016995072" lon="9.162803599610925">
<ele>184.2</ele>
<time>2024-05-08T11:34:07Z</time>
</trkpt>
<trkpt lat="49.22945016995072" lon="9.162804521620274">
<ele>184.2</ele>
<time>2024-05-08T11:34:10Z</time>
</trkpt>
<trkpt lat="49.22945016995072" lon="9.162803599610925">
<ele>184</ele>
<time>2024-05-08T11:34:19Z</time>
</trkpt>
<trkpt lat="49.22945016995072" lon="9.162804521620274">
<ele>184</ele>
<time>2024-05-08T11:34:23Z</time>
</trkpt>
<trkpt lat="49.22945016995072" lon="9.162803599610925">
<ele>184</ele>
<time>2024-05-08T11:34:24Z</time>
</trkpt>
<trkpt lat="49.22945016995072" lon="9.162804521620274">
<ele>184</ele>
<time>2024-05-08T11:34:26Z</time>
</trkpt>
<trkpt lat="49.2294463980943" lon="9.162804521620274">
<ele>184</ele>
<time>2024-05-08T11:34:28Z</time>
</trkpt>
<trkpt lat="49.22945016995072" lon="9.162803599610925">
<ele>183.8</ele>
<time>2024-05-08T11:34:31Z</time>
</trkpt>
<trkpt lat="49.2294463980943" lon="9.162803599610925">
<ele>183.8</ele>
<time>2024-05-08T11:34:32Z</time>
</trkpt>
<trkpt lat="49.2294463980943" lon="9.162804521620274">
<ele>183.8</ele>
<time>2024-05-08T11:34:37Z</time>
</trkpt>
<trkpt lat="49.2294463980943" lon="9.162803599610925">
<ele>183.8</ele>
<time>2024-05-08T11:34:38Z</time>
</trkpt>
<trkpt lat="49.2294463980943" lon="9.162804521620274">
<ele>183.8</ele>
<time>2024-05-08T11:34:39Z</time>
</trkpt>
<trkpt lat="49.22945016995072" lon="9.162803599610925">
<ele>183.8</ele>
<time>2024-05-08T11:34:40Z</time>
</trkpt>
<trkpt lat="49.22945016995072" lon="9.162797899916768">
<ele>184</ele>
<time>2024-05-08T11:34:41Z</time>
</trkpt>
<trkpt lat="49.22945016995072" lon="9.16279505006969">
<ele>184</ele>
<time>2024-05-08T11:34:42Z</time>
</trkpt>
<trkpt lat="49.2294463980943" lon="9.16279505006969">
<ele>184</ele>
<time>2024-05-08T11:34:53Z</time>
</trkpt>
<trkpt lat="49.22944254241884" lon="9.16279505006969">
<ele>184</ele>
<time>2024-05-08T11:34:56Z</time>
</trkpt>
<trkpt lat="49.22944254241884" lon="9.162790272384882">
<ele>184</ele>
<time>2024-05-08T11:34:57Z</time>
</trkpt>
<trkpt lat="49.2294463980943" lon="9.162784572690724">
<ele>184</ele>
<time>2024-05-08T11:34:58Z</time>
</trkpt>
<trkpt lat="49.2294463980943" lon="9.162781639024615">
<ele>184</ele>
<time>2024-05-08T11:34:59Z</time>
</trkpt>
<trkpt lat="49.2294463980943" lon="9.162779795005918">
<ele>184</ele>
<time>2024-05-08T11:35:00Z</time>
</trkpt>
<trkpt lat="49.22945016995072" lon="9.162779795005918">
<ele>184</ele>
<time>2024-05-08T11:35:02Z</time>
</trkpt>
<trkpt lat="49.22945402562618" lon="9.162783566862345">
<ele>184</ele>
<time>2024-05-08T11:35:04Z</time>
</trkpt>
<trkpt lat="49.22945402562618" lon="9.162788344547153">
<ele>184</ele>
<time>2024-05-08T11:35:05Z</time>
</trkpt>
<trkpt lat="49.22945779748261" lon="9.162786416709425">
<ele>184</ele>
<time>2024-05-08T11:35:06Z</time>
</trkpt>
<trkpt lat="49.22945779748261" lon="9.162784572690724">
<ele>184</ele>
<time>2024-05-08T11:35:07Z</time>
</trkpt>
<trkpt lat="49.22945779748261" lon="9.162783566862345">
<ele>184</ele>
<time>2024-05-08T11:35:08Z</time>
</trkpt>
<trkpt lat="49.22945779748261" lon="9.162781639024615">
<ele>184</ele>
<time>2024-05-08T11:35:09Z</time>
</trkpt>
<trkpt lat="49.22946165315807" lon="9.162779795005918">
<ele>184</ele>
<time>2024-05-08T11:35:10Z</time>
</trkpt>
<trkpt lat="49.22946165315807" lon="9.162777867168188">
<ele>184</ele>
<time>2024-05-08T11:35:13Z</time>
</trkpt>
<trkpt lat="49.22946165315807" lon="9.16277694515884">
<ele>184</ele>
<time>2024-05-08T11:35:15Z</time>
</trkpt>
<trkpt lat="49.22946165315807" lon="9.16277501732111">
<ele>184</ele>
<time>2024-05-08T11:35:16Z</time>
</trkpt>
<trkpt lat="49.229465425014496" lon="9.16277501732111">
<ele>184</ele>
<time>2024-05-08T11:35:17Z</time>
</trkpt>
<trkpt lat="49.229465425014496" lon="9.16277308948338">
<ele>184</ele>
<time>2024-05-08T11:35:18Z</time>
</trkpt>
<trkpt lat="49.229465425014496" lon="9.16277116164565">
<ele>184</ele>
<time>2024-05-08T11:35:19Z</time>
</trkpt>
<trkpt lat="49.229465425014496" lon="9.162770239636302">
<ele>184</ele>
<time>2024-05-08T11:35:20Z</time>
</trkpt>
<trkpt lat="49.229465425014496" lon="9.162768311798573">
<ele>184</ele>
<time>2024-05-08T11:35:21Z</time>
</trkpt>
<trkpt lat="49.229465425014496" lon="9.162764539942144">
<ele>184</ele>
<time>2024-05-08T11:35:22Z</time>
</trkpt>
<trkpt lat="49.229465425014496" lon="9.162761606276035">
<ele>184</ele>
<time>2024-05-08T11:35:23Z</time>
</trkpt>
<trkpt lat="49.229465425014496" lon="9.162759762257338">
<ele>184</ele>
<time>2024-05-08T11:35:24Z</time>
</trkpt>
<trkpt lat="49.229469280689955" lon="9.16275498457253">
<ele>184</ele>
<time>2024-05-08T11:35:25Z</time>
</trkpt>
<trkpt lat="49.229469280689955" lon="9.16275691241026">
<ele>184</ele>
<time>2024-05-08T11:35:26Z</time>
</trkpt>
<trkpt lat="49.229469280689955" lon="9.16275498457253">
<ele>184</ele>
<time>2024-05-08T11:35:27Z</time>
</trkpt>
<trkpt lat="49.229469280689955" lon="9.16275112889707">
<ele>184</ele>
<time>2024-05-08T11:35:28Z</time>
</trkpt>
<trkpt lat="49.229469280689955" lon="9.16275498457253">
<ele>184</ele>
<time>2024-05-08T11:35:29Z</time>
</trkpt>
<trkpt lat="49.229469280689955" lon="9.16275691241026">
<ele>184.2</ele>
<time>2024-05-08T11:35:34Z</time>
</trkpt>
<trkpt lat="49.229469280689955" lon="9.162757834419608">
<ele>184.2</ele>
<time>2024-05-08T11:35:36Z</time>
</trkpt>
<trkpt lat="49.229469280689955" lon="9.162759762257338">
<ele>184.2</ele>
<time>2024-05-08T11:35:37Z</time>
</trkpt>
<trkpt lat="49.229469280689955" lon="9.162761606276035">
<ele>184.2</ele>
<time>2024-05-08T11:35:39Z</time>
</trkpt>
<trkpt lat="49.229469280689955" lon="9.162763534113765">
<ele>184.4</ele>
<time>2024-05-08T11:35:41Z</time>
</trkpt>
<trkpt lat="49.229469280689955" lon="9.162764539942144">
<ele>184.6</ele>
<time>2024-05-08T11:35:44Z</time>
</trkpt>
<trkpt lat="49.229465425014496" lon="9.162764539942144">
<ele>184.6</ele>
<time>2024-05-08T11:35:51Z</time>
</trkpt>
<trkpt lat="49.229465425014496" lon="9.162763534113765">
<ele>184.6</ele>
<time>2024-05-08T11:35:54Z</time>
</trkpt>
<trkpt lat="49.229465425014496" lon="9.162761606276035">
<ele>184.8</ele>
<time>2024-05-08T11:35:56Z</time>
</trkpt>
<trkpt lat="49.229465425014496" lon="9.162759762257338">
<ele>184.8</ele>
<time>2024-05-08T11:35:59Z</time>
</trkpt>
<trkpt lat="49.229465425014496" lon="9.162761606276035">
<ele>185</ele>
<time>2024-05-08T11:36:01Z</time>
</trkpt>
<trkpt lat="49.229465425014496" lon="9.162759762257338">
<ele>185</ele>
<time>2024-05-08T11:36:03Z</time>
</trkpt>
<trkpt lat="49.22946165315807" lon="9.162764539942144">
<ele>185.2</ele>
<time>2024-05-08T11:36:04Z</time>
</trkpt>
<trkpt lat="49.22946165315807" lon="9.162766383960845">
<ele>185.2</ele>
<time>2024-05-08T11:36:05Z</time>
</trkpt>
<trkpt lat="49.22946165315807" lon="9.162764539942144">
<ele>185.4</ele>
<time>2024-05-08T11:36:06Z</time>
</trkpt>
<trkpt lat="49.22946165315807" lon="9.162766383960845">
<ele>185.4</ele>
<time>2024-05-08T11:36:07Z</time>
</trkpt>
<trkpt lat="49.22945779748261" lon="9.162768311798573">
<ele>185.4</ele>
<time>2024-05-08T11:36:08Z</time>
</trkpt>
<trkpt lat="49.22945779748261" lon="9.162770239636302">
<ele>185.4</ele>
<time>2024-05-08T11:36:09Z</time>
</trkpt>
<trkpt lat="49.22945779748261" lon="9.162766383960845">
<ele>185.2</ele>
<time>2024-05-08T11:36:10Z</time>
</trkpt>
<trkpt lat="49.22945779748261" lon="9.162764539942144">
<ele>185.2</ele>
<time>2024-05-08T11:36:12Z</time>
</trkpt>
<trkpt lat="49.22945779748261" lon="9.162757834419608">
<ele>185.2</ele>
<time>2024-05-08T11:36:13Z</time>
</trkpt>
<trkpt lat="49.22945779748261" lon="9.162759762257338">
<ele>185</ele>
<time>2024-05-08T11:36:14Z</time>
</trkpt>
<trkpt lat="49.22945779748261" lon="9.162761606276035">
<ele>184.8</ele>
<time>2024-05-08T11:36:15Z</time>
</trkpt>
<trkpt lat="49.22945779748261" lon="9.162763534113765">
<ele>184.8</ele>
<time>2024-05-08T11:36:18Z</time>
</trkpt>
<trkpt lat="49.22945779748261" lon="9.162764539942144">
<ele>184.6</ele>
<time>2024-05-08T11:36:20Z</time>
</trkpt>
<trkpt lat="49.22945779748261" lon="9.162766383960845">
<ele>184.6</ele>
<time>2024-05-08T11:36:21Z</time>
</trkpt>
<trkpt lat="49.22945779748261" lon="9.162768311798573">
<ele>184.6</ele>
<time>2024-05-08T11:36:24Z</time>
</trkpt>
<trkpt lat="49.22945779748261" lon="9.162770239636302">
<ele>184.4</ele>
<time>2024-05-08T11:36:27Z</time>
</trkpt>
<trkpt lat="49.22945779748261" lon="9.16277116164565">
<ele>184.4</ele>
<time>2024-05-08T11:36:30Z</time>
</trkpt>
<trkpt lat="49.22945402562618" lon="9.16277116164565">
<ele>184.4</ele>
<time>2024-05-08T11:36:31Z</time>
</trkpt>
<trkpt lat="49.22945402562618" lon="9.16277308948338">
<ele>184.4</ele>
<time>2024-05-08T11:36:34Z</time>
</trkpt>
<trkpt lat="49.22945402562618" lon="9.16277501732111">
<ele>184.4</ele>
<time>2024-05-08T11:36:36Z</time>
</trkpt>
<trkpt lat="49.22945779748261" lon="9.16277501732111">
<ele>184.4</ele>
<time>2024-05-08T11:36:38Z</time>
</trkpt>
<trkpt lat="49.22945402562618" lon="9.16277694515884">
<ele>184.4</ele>
<time>2024-05-08T11:36:40Z</time>
</trkpt>
<trkpt lat="49.22944254241884" lon="9.162781639024615">
<ele>184.4</ele>
<time>2024-05-08T11:36:41Z</time>
</trkpt>
<trkpt lat="49.22943491488695" lon="9.16279312223196">
<ele>184.2</ele>
<time>2024-05-08T11:36:42Z</time>
</trkpt>
<trkpt lat="49.229427287355065" lon="9.162801671773195">
<ele>184.2</ele>
<time>2024-05-08T11:36:43Z</time>
</trkpt>
<trkpt lat="49.22941965982318" lon="9.162806449458005">
<ele>184.2</ele>
<time>2024-05-08T11:36:44Z</time>
</trkpt>
<trkpt lat="49.229408260434866" lon="9.16281508281827">
<ele>184</ele>
<time>2024-05-08T11:36:46Z</time>
</trkpt>
<trkpt lat="49.22938152216375" lon="9.162830337882042">
<ele>184</ele>
<time>2024-05-08T11:36:47Z</time>
</trkpt>
<trkpt lat="49.22936626709998" lon="9.162836959585547">
<ele>184</ele>
<time>2024-05-08T11:36:48Z</time>
</trkpt>
<trkpt lat="49.22934338450432" lon="9.162841737270355">
<ele>184</ele>
<time>2024-05-08T11:36:49Z</time>
</trkpt>
<trkpt lat="49.22932050190866" lon="9.162850370630622">
<ele>184</ele>
<time>2024-05-08T11:36:50Z</time>
</trkpt>
<trkpt lat="49.229297619313" lon="9.162859842181206">
<ele>184</ele>
<time>2024-05-08T11:36:51Z</time>
</trkpt>
<trkpt lat="49.22927088104189" lon="9.162866547703745">
<ele>183.8</ele>
<time>2024-05-08T11:36:52Z</time>
</trkpt>
<trkpt lat="49.2292442265898" lon="9.162868475541472">
<ele>183.8</ele>
<time>2024-05-08T11:36:53Z</time>
</trkpt>
<trkpt lat="49.2292098607868" lon="9.162870403379202">
<ele>183.8</ele>
<time>2024-05-08T11:36:54Z</time>
</trkpt>
<trkpt lat="49.22917549498379" lon="9.16287132538855">
<ele>183.8</ele>
<time>2024-05-08T11:36:55Z</time>
</trkpt>
<trkpt lat="49.22914498485625" lon="9.162878030911088">
<ele>183.8</ele>
<time>2024-05-08T11:36:56Z</time>
</trkpt>
<trkpt lat="49.22911833040416" lon="9.16289135813713">
<ele>183.8</ele>
<time>2024-05-08T11:36:57Z</time>
</trkpt>
<trkpt lat="49.229091592133045" lon="9.16289328597486">
<ele>183.8</ele>
<time>2024-05-08T11:36:59Z</time>
</trkpt>
<trkpt lat="49.22906493768096" lon="9.162899907678366">
<ele>183.8</ele>
<time>2024-05-08T11:37:00Z</time>
</trkpt>
<trkpt lat="49.22903819940984" lon="9.162904685363172">
<ele>183.8</ele>
<time>2024-05-08T11:37:01Z</time>
</trkpt>
<trkpt lat="49.228992434218526" lon="9.162921868264675">
<ele>183.8</ele>
<time>2024-05-08T11:37:03Z</time>
</trkpt>
<trkpt lat="49.22895044088364" lon="9.162944750860332">
<ele>183.8</ele>
<time>2024-05-08T11:37:04Z</time>
</trkpt>
<trkpt lat="49.22893141396344" lon="9.162960005924106">
<ele>183.8</ele>
<time>2024-05-08T11:37:05Z</time>
</trkpt>
<trkpt lat="49.22890853136778" lon="9.16297148913145">
<ele>184</ele>
<time>2024-05-08T11:37:07Z</time>
</trkpt>
<trkpt lat="49.22888564877212" lon="9.162981966510417">
<ele>184</ele>
<time>2024-05-08T11:37:08Z</time>
</trkpt>
<trkpt lat="49.22883979976177" lon="9.163000071421266">
<ele>184.4</ele>
<time>2024-05-08T11:37:09Z</time>
</trkpt>
<trkpt lat="49.228816917166114" lon="9.1630086209625">
<ele>184.4</ele>
<time>2024-05-08T11:37:10Z</time>
</trkpt>
<trkpt lat="49.228797890245914" lon="9.163015326485038">
<ele>184.6</ele>
<time>2024-05-08T11:37:11Z</time>
</trkpt>
<trkpt lat="49.228775007650256" lon="9.163022032007577">
<ele>184.6</ele>
<time>2024-05-08T11:37:13Z</time>
</trkpt>
<trkpt lat="49.228755896911025" lon="9.16302965953946">
<ele>184.8</ele>
<time>2024-05-08T11:37:14Z</time>
</trkpt>
<trkpt lat="49.22871398739517" lon="9.163044914603232">
<ele>185</ele>
<time>2024-05-08T11:37:16Z</time>
</trkpt>
<trkpt lat="49.228675765916705" lon="9.163076346740128">
<ele>185.2</ele>
<time>2024-05-08T11:37:17Z</time>
</trkpt>
<trkpt lat="49.228656738996506" lon="9.163084980100392">
<ele>185.2</ele>
<time>2024-05-08T11:37:18Z</time>
</trkpt>
<trkpt lat="49.22863385640085" lon="9.163095457479358">
<ele>185.2</ele>
<time>2024-05-08T11:37:19Z</time>
</trkpt>
<trkpt lat="49.228614745661616" lon="9.163103085011244">
<ele>185.2</ele>
<time>2024-05-08T11:37:21Z</time>
</trkpt>
<trkpt lat="49.22858423553407" lon="9.163121189922094">
<ele>185.2</ele>
<time>2024-05-08T11:37:23Z</time>
</trkpt>
<trkpt lat="49.22857283614576" lon="9.16312973946333">
<ele>185.2</ele>
<time>2024-05-08T11:37:24Z</time>
</trkpt>
<trkpt lat="49.228542326018214" lon="9.163143150508404">
<ele>185.4</ele>
<time>2024-05-08T11:37:26Z</time>
</trkpt>
<trkpt lat="49.22852321527898" lon="9.16314977221191">
<ele>185.4</ele>
<time>2024-05-08T11:37:27Z</time>
</trkpt>
<trkpt lat="49.22851173207164" lon="9.16314977221191">
<ele>185.4</ele>
<time>2024-05-08T11:37:28Z</time>
</trkpt>
<trkpt lat="49.228500332683325" lon="9.163144994527102">
<ele>185.4</ele>
<time>2024-05-08T11:37:29Z</time>
</trkpt>
<trkpt lat="49.22849270515144" lon="9.163136444985868">
<ele>185.6</ele>
<time>2024-05-08T11:37:30Z</time>
</trkpt>
<trkpt lat="49.22848507761955" lon="9.163120267912744">
<ele>185.6</ele>
<time>2024-05-08T11:37:31Z</time>
</trkpt>
<trkpt lat="49.22846982255578" lon="9.16306871920824">
<ele>185.6</ele>
<time>2024-05-08T11:37:32Z</time>
</trkpt>
<trkpt lat="49.22845456749201" lon="9.16302965953946">
<ele>185.6</ele>
<time>2024-05-08T11:37:34Z</time>
</trkpt>
<trkpt lat="49.22844308428466" lon="9.162996215745808">
<ele>185.6</ele>
<time>2024-05-08T11:37:35Z</time>
</trkpt>
<trkpt lat="49.22843545675278" lon="9.162976182997228">
<ele>185.6</ele>
<time>2024-05-08T11:37:36Z</time>
</trkpt>
<trkpt lat="49.22843168489635" lon="9.16297148913145">
<ele>185.6</ele>
<time>2024-05-08T11:37:38Z</time>
</trkpt>
<trkpt lat="49.22843168489635" lon="9.16296956129372">
<ele>185.4</ele>
<time>2024-05-08T11:37:39Z</time>
</trkpt>
<trkpt lat="49.22843168489635" lon="9.16297148913145">
<ele>185.4</ele>
<time>2024-05-08T11:37:40Z</time>
</trkpt>
<trkpt lat="49.22843168489635" lon="9.162978110834956">
<ele>185.2</ele>
<time>2024-05-08T11:37:42Z</time>
</trkpt>
<trkpt lat="49.22843168489635" lon="9.162986744195225">
<ele>185.2</ele>
<time>2024-05-08T11:37:43Z</time>
</trkpt>
<trkpt lat="49.22843168489635" lon="9.16299152188003">
<ele>185</ele>
<time>2024-05-08T11:37:44Z</time>
</trkpt>
<trkpt lat="49.22843931242824" lon="9.162996215745808">
<ele>184.8</ele>
<time>2024-05-08T11:37:45Z</time>
</trkpt>
<trkpt lat="49.22843931242824" lon="9.163001999258997">
<ele>184.8</ele>
<time>2024-05-08T11:37:46Z</time>
</trkpt>
<trkpt lat="49.22843931242824" lon="9.163006776943805">
<ele>184.6</ele>
<time>2024-05-08T11:37:47Z</time>
</trkpt>
<trkpt lat="49.22844308428466" lon="9.163015326485038">
<ele>184.4</ele>
<time>2024-05-08T11:37:48Z</time>
</trkpt>
<trkpt lat="49.22844308428466" lon="9.163016248494388">
<ele>184.4</ele>
<time>2024-05-08T11:37:49Z</time>
</trkpt>
<trkpt lat="49.22844693996012" lon="9.163026809692385">
<ele>184.4</ele>
<time>2024-05-08T11:37:50Z</time>
</trkpt>
<trkpt lat="49.22844693996012" lon="9.163038209080696">
<ele>184.4</ele>
<time>2024-05-08T11:37:51Z</time>
</trkpt>
<trkpt lat="49.22845071181655" lon="9.16304868645966">
<ele>184.4</ele>
<time>2024-05-08T11:37:52Z</time>
</trkpt>
<trkpt lat="49.22845071181655" lon="9.16304969228804">
<ele>184.6</ele>
<time>2024-05-08T11:37:53Z</time>
</trkpt>
<trkpt lat="49.22845071181655" lon="9.163055391982198">
<ele>184.6</ele>
<time>2024-05-08T11:37:54Z</time>
</trkpt>
<trkpt lat="49.22845456749201" lon="9.163060169667006">
<ele>184.6</ele>
<time>2024-05-08T11:37:55Z</time>
</trkpt>
<trkpt lat="49.228458339348435" lon="9.16306871920824">
<ele>184.6</ele>
<time>2024-05-08T11:37:56Z</time>
</trkpt>
<trkpt lat="49.228458339348435" lon="9.16307156905532">
<ele>184.6</ele>
<time>2024-05-08T11:37:57Z</time>
</trkpt>
<trkpt lat="49.228462195023894" lon="9.163083052262664">
<ele>184.6</ele>
<time>2024-05-08T11:37:58Z</time>
</trkpt>
<trkpt lat="49.228462195023894" lon="9.16308875195682">
<ele>184.8</ele>
<time>2024-05-08T11:37:59Z</time>
</trkpt>
<trkpt lat="49.22846596688032" lon="9.163093529641628">
<ele>184.8</ele>
<time>2024-05-08T11:38:00Z</time>
</trkpt>
<trkpt lat="49.22846982255578" lon="9.163100235164164">
<ele>185</ele>
<time>2024-05-08T11:38:01Z</time>
</trkpt>
<trkpt lat="49.22847359441221" lon="9.163104929029942">
<ele>185</ele>
<time>2024-05-08T11:38:02Z</time>
</trkpt>
<trkpt lat="49.22847745008767" lon="9.16310970671475">
<ele>185.2</ele>
<time>2024-05-08T11:38:03Z</time>
</trkpt>
<trkpt lat="49.228481221944094" lon="9.16311163455248">
<ele>185.2</ele>
<time>2024-05-08T11:38:04Z</time>
</trkpt>
<trkpt lat="49.22848507761955" lon="9.163113562390208">
<ele>185.4</ele>
<time>2024-05-08T11:38:05Z</time>
</trkpt>
<trkpt lat="49.22848507761955" lon="9.163114484399555">
<ele>185.4</ele>
<time>2024-05-08T11:38:07Z</time>
</trkpt>
<trkpt lat="49.22848507761955" lon="9.163116412237288">
<ele>185.4</ele>
<time>2024-05-08T11:38:08Z</time>
</trkpt>
<trkpt lat="49.22848507761955" lon="9.163118340075016">
<ele>185.4</ele>
<time>2024-05-08T11:38:09Z</time>
</trkpt>
<trkpt lat="49.22848507761955" lon="9.163120267912744">
<ele>185.4</ele>
<time>2024-05-08T11:38:13Z</time>
</trkpt>
<trkpt lat="49.22848507761955" lon="9.163121189922094">
<ele>185.4</ele>
<time>2024-05-08T11:38:15Z</time>
</trkpt>
<trkpt lat="49.22848884947598" lon="9.163121189922094">
<ele>185.4</ele>
<time>2024-05-08T11:38:16Z</time>
</trkpt>
<trkpt lat="49.22848884947598" lon="9.163120267912744">
<ele>185.2</ele>
<time>2024-05-08T11:38:17Z</time>
</trkpt>
<trkpt lat="49.22848884947598" lon="9.163118340075016">
<ele>185.2</ele>
<time>2024-05-08T11:38:20Z</time>
</trkpt>
<trkpt lat="49.22849270515144" lon="9.163120267912744">
<ele>185.2</ele>
<time>2024-05-08T11:38:22Z</time>
</trkpt>
<trkpt lat="49.22849270515144" lon="9.163121189922094">
<ele>185</ele>
<time>2024-05-08T11:38:23Z</time>
</trkpt>
<trkpt lat="49.228496477007866" lon="9.163127895444632">
<ele>185</ele>
<time>2024-05-08T11:38:24Z</time>
</trkpt>
<trkpt lat="49.22850410453975" lon="9.163143150508404">
<ele>185</ele>
<time>2024-05-08T11:38:25Z</time>
</trkpt>
<trkpt lat="49.2285155877471" lon="9.163158405572176">
<ele>185</ele>
<time>2024-05-08T11:38:26Z</time>
</trkpt>
<trkpt lat="49.22853084281087" lon="9.163161255419254">
<ele>185</ele>
<time>2024-05-08T11:38:27Z</time>
</trkpt>
<trkpt lat="49.22855372540653" lon="9.163154549896715">
<ele>185</ele>
<time>2024-05-08T11:38:29Z</time>
</trkpt>
<trkpt lat="49.228576608002186" lon="9.163140216842294">
<ele>185</ele>
<time>2024-05-08T11:38:30Z</time>
</trkpt>
<trkpt lat="49.228618601337075" lon="9.163113562390208">
<ele>184.8</ele>
<time>2024-05-08T11:38:31Z</time>
</trkpt>
<trkpt lat="49.22864525578916" lon="9.163096379488708">
<ele>184.8</ele>
<time>2024-05-08T11:38:33Z</time>
</trkpt>
<trkpt lat="49.22866813838482" lon="9.163080202415586">
<ele>184.6</ele>
<time>2024-05-08T11:38:34Z</time>
</trkpt>
<trkpt lat="49.22872924245894" lon="9.163046758621933">
<ele>184.6</ele>
<time>2024-05-08T11:38:35Z</time>
</trkpt>
<trkpt lat="49.22875975258648" lon="9.16302865371108">
<ele>184.4</ele>
<time>2024-05-08T11:38:37Z</time>
</trkpt>
<trkpt lat="49.22879026271403" lon="9.16301147080958">
<ele>184.4</ele>
<time>2024-05-08T11:38:38Z</time>
</trkpt>
<trkpt lat="49.228816917166114" lon="9.1629895940423">
<ele>184.6</ele>
<time>2024-05-08T11:38:39Z</time>
</trkpt>
<trkpt lat="49.22883979976177" lon="9.162975260987878">
<ele>184.6</ele>
<time>2024-05-08T11:38:40Z</time>
</trkpt>
<trkpt lat="49.22890467569232" lon="9.162939973175526">
<ele>184.4</ele>
<time>2024-05-08T11:38:42Z</time>
</trkpt>
<trkpt lat="49.22896569594741" lon="9.162899907678366">
<ele>184.4</ele>
<time>2024-05-08T11:38:44Z</time>
</trkpt>
<trkpt lat="49.22903057187795" lon="9.162859842181206">
<ele>184.6</ele>
<time>2024-05-08T11:38:46Z</time>
</trkpt>
<trkpt lat="49.22906870953739" lon="9.162839809432626">
<ele>184.6</ele>
<time>2024-05-08T11:38:47Z</time>
</trkpt>
<trkpt lat="49.22914121299982" lon="9.162796894088387">
<ele>184.4</ele>
<time>2024-05-08T11:38:48Z</time>
</trkpt>
<trkpt lat="49.22917935065925" lon="9.162779795005918">
<ele>184.2</ele>
<time>2024-05-08T11:38:50Z</time>
</trkpt>
<trkpt lat="49.22923659905791" lon="9.162763534113765">
<ele>184.6</ele>
<time>2024-05-08T11:38:51Z</time>
</trkpt>
<trkpt lat="49.22926325351" lon="9.162759762257338">
<ele>184.8</ele>
<time>2024-05-08T11:38:52Z</time>
</trkpt>
<trkpt lat="49.22928999178112" lon="9.16275691241026">
<ele>184.8</ele>
<time>2024-05-08T11:38:53Z</time>
</trkpt>
<trkpt lat="49.229312874376774" lon="9.1627530567348">
<ele>184.6</ele>
<time>2024-05-08T11:38:55Z</time>
</trkpt>
<trkpt lat="49.22935478389263" lon="9.16275498457253">
<ele>184.6</ele>
<time>2024-05-08T11:38:56Z</time>
</trkpt>
<trkpt lat="49.22937389463186" lon="9.1627530567348">
<ele>184.8</ele>
<time>2024-05-08T11:38:57Z</time>
</trkpt>
<trkpt lat="49.229389149695635" lon="9.16275112889707">
<ele>184.8</ele>
<time>2024-05-08T11:38:59Z</time>
</trkpt>
<trkpt lat="49.229408260434866" lon="9.16275498457253">
<ele>185</ele>
<time>2024-05-08T11:39:01Z</time>
</trkpt>
<trkpt lat="49.22941203229129" lon="9.16275691241026">
<ele>185</ele>
<time>2024-05-08T11:39:02Z</time>
</trkpt>
<trkpt lat="49.22941588796675" lon="9.162757834419608">
<ele>185</ele>
<time>2024-05-08T11:39:04Z</time>
</trkpt>
<trkpt lat="49.229427287355065" lon="9.16275498457253">
<ele>185.2</ele>
<time>2024-05-08T11:39:06Z</time>
</trkpt>
<trkpt lat="49.22943877056241" lon="9.162746351212265">
<ele>185.2</ele>
<time>2024-05-08T11:39:07Z</time>
</trkpt>
<trkpt lat="49.22944254241884" lon="9.162744507193564">
<ele>185.4</ele>
<time>2024-05-08T11:39:08Z</time>
</trkpt>
<trkpt lat="49.22944254241884" lon="9.162746351212265">
<ele>185.4</ele>
<time>2024-05-08T11:39:10Z</time>
</trkpt>
<trkpt lat="49.2294463980943" lon="9.1627530567348">
<ele>185.4</ele>
<time>2024-05-08T11:39:11Z</time>
</trkpt>
<trkpt lat="49.2294463980943" lon="9.16275498457253">
<ele>185.4</ele>
<time>2024-05-08T11:39:15Z</time>
</trkpt>
<trkpt lat="49.2294463980943" lon="9.1627530567348">
<ele>185.4</ele>
<time>2024-05-08T11:39:16Z</time>
</trkpt>
<trkpt lat="49.2294463980943" lon="9.16275112889707">
<ele>185.4</ele>
<time>2024-05-08T11:39:18Z</time>
</trkpt>
<trkpt lat="49.22945016995072" lon="9.162821704521775">
<ele>185.4</ele>
<time>2024-05-08T11:39:18Z</time>
</trkpt>
<trkpt lat="49.22945016995072" lon="9.162819860503078">
<ele>185.4</ele>
<time>2024-05-08T11:39:24Z</time>
</trkpt>
<trkpt lat="49.22945016995072" lon="9.162821704521775">
<ele>185.4</ele>
<time>2024-05-08T11:39:25Z</time>
</trkpt>
<trkpt lat="49.22945016995072" lon="9.162819860503078">
<ele>185.4</ele>
<time>2024-05-08T11:39:26Z</time>
</trkpt>
<trkpt lat="49.22945016995072" lon="9.162821704521775">
<ele>185.4</ele>
<time>2024-05-08T11:39:33Z</time>
</trkpt>
<trkpt lat="49.22945402562618" lon="9.162821704521775">
<ele>185.4</ele>
<time>2024-05-08T11:39:42Z</time>
</trkpt>
<trkpt lat="49.22945402562618" lon="9.162823632359505">
<ele>185.4</ele>
<time>2024-05-08T11:39:43Z</time>
</trkpt>
<trkpt lat="49.22945779748261" lon="9.162823632359505">
<ele>185.4</ele>
<time>2024-05-08T11:39:44Z</time>
</trkpt>
<trkpt lat="49.22945402562618" lon="9.162821704521775">
<ele>185.4</ele>
<time>2024-05-08T11:39:45Z</time>
</trkpt>
<trkpt lat="49.22945402562618" lon="9.162819860503078">
<ele>185.4</ele>
<time>2024-05-08T11:39:47Z</time>
</trkpt>
<trkpt lat="49.22945402562618" lon="9.162817932665348">
<ele>185.4</ele>
<time>2024-05-08T11:39:48Z</time>
</trkpt>
<trkpt lat="49.22945402562618" lon="9.162819860503078">
<ele>185.4</ele>
<time>2024-05-08T11:39:49Z</time>
</trkpt>
<trkpt lat="49.22945402562618" lon="9.162817932665348">
<ele>185.4</ele>
<time>2024-05-08T11:39:50Z</time>
</trkpt>
<trkpt lat="49.22945779748261" lon="9.162817932665348">
<ele>185.4</ele>
<time>2024-05-08T11:39:51Z</time>
</trkpt>
<trkpt lat="49.22945779748261" lon="9.162816926836967">
<ele>185.4</ele>
<time>2024-05-08T11:39:52Z</time>
</trkpt>
<trkpt lat="49.22945779748261" lon="9.16281508281827">
<ele>185.4</ele>
<time>2024-05-08T11:39:53Z</time>
</trkpt>
<trkpt lat="49.22945779748261" lon="9.16281122714281">
<ele>185.4</ele>
<time>2024-05-08T11:39:54Z</time>
</trkpt>
<trkpt lat="49.22945779748261" lon="9.162810305133462">
<ele>185.4</ele>
<time>2024-05-08T11:39:55Z</time>
</trkpt>
<trkpt lat="49.22945779748261" lon="9.162808377295732">
<ele>185.4</ele>
<time>2024-05-08T11:39:56Z</time>
</trkpt>
<trkpt lat="49.22946165315807" lon="9.162806449458005">
<ele>185.4</ele>
<time>2024-05-08T11:39:57Z</time>
</trkpt>
<trkpt lat="49.22945779748261" lon="9.162806449458005">
<ele>185.4</ele>
<time>2024-05-08T11:40:00Z</time>
</trkpt>
<trkpt lat="49.22946165315807" lon="9.162804521620274">
<ele>185.4</ele>
<time>2024-05-08T11:40:02Z</time>
</trkpt>
<trkpt lat="49.22946165315807" lon="9.162803599610925">
<ele>185.4</ele>
<time>2024-05-08T11:40:03Z</time>
</trkpt>
<trkpt lat="49.22946165315807" lon="9.162801671773195">
<ele>185.4</ele>
<time>2024-05-08T11:40:05Z</time>
</trkpt>
<trkpt lat="49.22945779748261" lon="9.162801671773195">
<ele>185.4</ele>
<time>2024-05-08T11:40:10Z</time>
</trkpt>
<trkpt lat="49.22945402562618" lon="9.162801671773195">
<ele>185.4</ele>
<time>2024-05-08T11:40:15Z</time>
</trkpt>
<trkpt lat="49.22945016995072" lon="9.162803599610925">
<ele>185.4</ele>
<time>2024-05-08T11:40:18Z</time>
</trkpt>
<trkpt lat="49.22945016995072" lon="9.162804521620274">
<ele>185.4</ele>
<time>2024-05-08T11:40:20Z</time>
</trkpt>
<trkpt lat="49.22945016995072" lon="9.162806449458005">
<ele>185.4</ele>
<time>2024-05-08T11:40:24Z</time>
</trkpt>
<trkpt lat="49.2294463980943" lon="9.162808377295732">
<ele>185.4</ele>
<time>2024-05-08T11:40:27Z</time>
</trkpt>
<trkpt lat="49.2294463980943" lon="9.162810305133462">
<ele>185.4</ele>
<time>2024-05-08T11:40:29Z</time>
</trkpt>
<trkpt lat="49.2294463980943" lon="9.16281122714281">
<ele>185.4</ele>
<time>2024-05-08T11:40:32Z</time>
</trkpt>
<trkpt lat="49.22944254241884" lon="9.16281122714281">
<ele>185.4</ele>
<time>2024-05-08T11:40:34Z</time>
</trkpt>
<trkpt lat="49.2294463980943" lon="9.16281122714281">
<ele>185.4</ele>
<time>2024-05-08T11:40:35Z</time>
</trkpt>
<trkpt lat="49.2294463980943" lon="9.16281315498054">
<ele>185.4</ele>
<time>2024-05-08T11:40:40Z</time>
</trkpt>
<trkpt lat="49.2294463980943" lon="9.16281122714281">
<ele>185.4</ele>
<time>2024-05-08T11:40:42Z</time>
</trkpt>
<trkpt lat="49.2294463980943" lon="9.16281315498054">
<ele>185.4</ele>
<time>2024-05-08T11:40:46Z</time>
</trkpt>
<trkpt lat="49.2294463980943" lon="9.16281508281827">
<ele>185.4</ele>
<time>2024-05-08T11:40:51Z</time>
</trkpt>
<trkpt lat="49.2294463980943" lon="9.162816926836967">
<ele>185.4</ele>
<time>2024-05-08T11:40:59Z</time>
</trkpt>
<trkpt lat="49.2294463980943" lon="9.16281508281827">
<ele>185.4</ele>
<time>2024-05-08T11:41:01Z</time>
</trkpt>
<trkpt lat="49.22945016995072" lon="9.16281508281827">
<ele>185.4</ele>
<time>2024-05-08T11:41:05Z</time>
</trkpt>
<trkpt lat="49.22945016995072" lon="9.16281122714281">
<ele>185.4</ele>
<time>2024-05-08T11:41:09Z</time>
</trkpt>
<trkpt lat="49.22945016995072" lon="9.162810305133462">
<ele>185.4</ele>
<time>2024-05-08T11:41:15Z</time>
</trkpt>
<trkpt lat="49.22945402562618" lon="9.162810305133462">
<ele>185.4</ele>
<time>2024-05-08T11:41:16Z</time>
</trkpt>
<trkpt lat="49.22945402562618" lon="9.16281122714281">
<ele>185.4</ele>
<time>2024-05-08T11:41:17Z</time>
</trkpt>
<trkpt lat="49.22945402562618" lon="9.162810305133462">
<ele>185.4</ele>
<time>2024-05-08T11:41:18Z</time>
</trkpt>
<trkpt lat="49.22945402562618" lon="9.16281122714281">
<ele>185.4</ele>
<time>2024-05-08T11:41:19Z</time>
</trkpt>
<trkpt lat="49.22945779748261" lon="9.16281122714281">
<ele>185.4</ele>
<time>2024-05-08T11:41:20Z</time>
</trkpt>
<trkpt lat="49.22945779748261" lon="9.162810305133462">
<ele>185.4</ele>
<time>2024-05-08T11:41:22Z</time>
</trkpt>
<trkpt lat="49.22945779748261" lon="9.162808377295732">
<ele>185.4</ele>
<time>2024-05-08T11:41:29Z</time>
</trkpt>
<trkpt lat="49.22945402562618" lon="9.162821704521775">
<ele>185.4</ele>
<time>2024-05-08T11:41:31Z</time>
</trkpt>
<trkpt lat="49.22945402562618" lon="9.162828410044312">
<ele>185.4</ele>
<time>2024-05-08T11:41:32Z</time>
</trkpt>
<trkpt lat="49.22945402562618" lon="9.16283125989139">
<ele>185.4</ele>
<time>2024-05-08T11:41:33Z</time>
</trkpt>
<trkpt lat="49.22945402562618" lon="9.162824554368854">
<ele>185.4</ele>
<time>2024-05-08T11:41:34Z</time>
</trkpt>
<trkpt lat="49.22945402562618" lon="9.162826482206585">
<ele>185.4</ele>
<time>2024-05-08T11:41:35Z</time>
</trkpt>
<trkpt lat="49.22945779748261" lon="9.162826482206585">
<ele>185.4</ele>
<time>2024-05-08T11:41:36Z</time>
</trkpt>
<trkpt lat="49.22945779748261" lon="9.162828410044312">
<ele>185.4</ele>
<time>2024-05-08T11:41:39Z</time>
</trkpt>
<trkpt lat="49.22945779748261" lon="9.162830337882042">
<ele>185.4</ele>
<time>2024-05-08T11:41:40Z</time>
</trkpt>
<trkpt lat="49.22946165315807" lon="9.162830337882042">
<ele>185.4</ele>
<time>2024-05-08T11:41:41Z</time>
</trkpt>
<trkpt lat="49.22946165315807" lon="9.16283125989139">
<ele>185.4</ele>
<time>2024-05-08T11:41:42Z</time>
</trkpt>
<trkpt lat="49.22946165315807" lon="9.16283318772912">
<ele>185.4</ele>
<time>2024-05-08T11:41:43Z</time>
</trkpt>
<trkpt lat="49.22946165315807" lon="9.16283511556685">
<ele>185.4</ele>
<time>2024-05-08T11:41:44Z</time>
</trkpt>
<trkpt lat="49.22946165315807" lon="9.162836959585547">
<ele>185.4</ele>
<time>2024-05-08T11:41:45Z</time>
</trkpt>
<trkpt lat="49.22946165315807" lon="9.162837965413928">
<ele>185.4</ele>
<time>2024-05-08T11:41:46Z</time>
</trkpt>
<trkpt lat="49.22946165315807" lon="9.162839809432626">
<ele>185.4</ele>
<time>2024-05-08T11:41:47Z</time>
</trkpt>
<trkpt lat="49.22946165315807" lon="9.162841737270355">
<ele>185.4</ele>
<time>2024-05-08T11:41:49Z</time>
</trkpt>
<trkpt lat="49.22946165315807" lon="9.162843665108085">
<ele>185.4</ele>
<time>2024-05-08T11:41:50Z</time>
</trkpt>
<trkpt lat="49.22946165315807" lon="9.162844587117434">
<ele>185.4</ele>
<time>2024-05-08T11:41:52Z</time>
</trkpt>
<trkpt lat="49.229465425014496" lon="9.162844587117434">
<ele>185.4</ele>
<time>2024-05-08T11:41:53Z</time>
</trkpt>
<trkpt lat="49.229465425014496" lon="9.162843665108085">
<ele>185.4</ele>
<time>2024-05-08T11:41:55Z</time>
</trkpt>
<trkpt lat="49.22946165315807" lon="9.162844587117434">
<ele>185.4</ele>
<time>2024-05-08T11:41:56Z</time>
</trkpt>
<trkpt lat="49.229465425014496" lon="9.162848442792892">
<ele>185.4</ele>
<time>2024-05-08T11:41:58Z</time>
</trkpt>
<trkpt lat="49.229465425014496" lon="9.162850370630622">
<ele>185.4</ele>
<time>2024-05-08T11:42:00Z</time>
</trkpt>
<trkpt lat="49.229465425014496" lon="9.16285129263997">
<ele>185.4</ele>
<time>2024-05-08T11:42:02Z</time>
</trkpt>
<trkpt lat="49.22946165315807" lon="9.16285129263997">
<ele>185.4</ele>
<time>2024-05-08T11:42:03Z</time>
</trkpt>
<trkpt lat="49.22946165315807" lon="9.1628532204777">
<ele>185.4</ele>
<time>2024-05-08T11:42:07Z</time>
</trkpt>
<trkpt lat="49.22946165315807" lon="9.16285514831543">
<ele>185.4</ele>
<time>2024-05-08T11:42:09Z</time>
</trkpt>
<trkpt lat="49.22946165315807" lon="9.1628532204777">
<ele>185.4</ele>
<time>2024-05-08T11:42:13Z</time>
</trkpt>
<trkpt lat="49.22946165315807" lon="9.16285129263997">
<ele>185.4</ele>
<time>2024-05-08T11:42:14Z</time>
</trkpt>
<trkpt lat="49.22946165315807" lon="9.162850370630622">
<ele>185.4</ele>
<time>2024-05-08T11:42:16Z</time>
</trkpt>
<trkpt lat="49.22946165315807" lon="9.162848442792892">
<ele>185.4</ele>
<time>2024-05-08T11:42:17Z</time>
</trkpt>
<trkpt lat="49.229465425014496" lon="9.162850370630622">
<ele>185.4</ele>
<time>2024-05-08T11:42:18Z</time>
</trkpt>
<trkpt lat="49.229465425014496" lon="9.16285129263997">
<ele>185.4</ele>
<time>2024-05-08T11:42:19Z</time>
</trkpt>
<trkpt lat="49.229465425014496" lon="9.162850370630622">
<ele>185.4</ele>
<time>2024-05-08T11:42:21Z</time>
</trkpt>
<trkpt lat="49.22946165315807" lon="9.162848442792892">
<ele>185.4</ele>
<time>2024-05-08T11:42:24Z</time>
</trkpt>
<trkpt lat="49.22946165315807" lon="9.162846514955165">
<ele>185.4</ele>
<time>2024-05-08T11:42:25Z</time>
</trkpt>
<trkpt lat="49.22946165315807" lon="9.162848442792892">
<ele>185.4</ele>
<time>2024-05-08T11:42:26Z</time>
</trkpt>
<trkpt lat="49.22946165315807" lon="9.162846514955165">
<ele>185.4</ele>
<time>2024-05-08T11:42:30Z</time>
</trkpt>
<trkpt lat="49.22946165315807" lon="9.162848442792892">
<ele>185.4</ele>
<time>2024-05-08T11:42:32Z</time>
</trkpt>
<trkpt lat="49.22946165315807" lon="9.162850370630622">
<ele>185.4</ele>
<time>2024-05-08T11:42:36Z</time>
</trkpt>
<trkpt lat="49.229465425014496" lon="9.162850370630622">
<ele>185.4</ele>
<time>2024-05-08T11:42:41Z</time>
</trkpt>
<trkpt lat="49.229465425014496" lon="9.16285129263997">
<ele>185.4</ele>
<time>2024-05-08T11:42:43Z</time>
</trkpt>
<trkpt lat="49.229465425014496" lon="9.162850370630622">
<ele>185.4</ele>
<time>2024-05-08T11:42:51Z</time>
</trkpt>
<trkpt lat="49.229465425014496" lon="9.16285129263997">
<ele>185.4</ele>
<time>2024-05-08T11:42:53Z</time>
</trkpt>
<trkpt lat="49.22946165315807" lon="9.16285129263997">
<ele>185.4</ele>
<time>2024-05-08T11:42:54Z</time>
</trkpt>
<trkpt lat="49.22946165315807" lon="9.1628532204777">
<ele>185.4</ele>
<time>2024-05-08T11:42:56Z</time>
</trkpt>
<trkpt lat="49.22946165315807" lon="9.16285129263997">
<ele>185.4</ele>
<time>2024-05-08T11:42:57Z</time>
</trkpt>
<trkpt lat="49.229465425014496" lon="9.16285129263997">
<ele>185.4</ele>
<time>2024-05-08T11:43:01Z</time>
</trkpt>
<trkpt lat="49.229465425014496" lon="9.1628532204777">
<ele>185.4</ele>
<time>2024-05-08T11:43:02Z</time>
</trkpt>
<trkpt lat="49.229465425014496" lon="9.16285514831543">
<ele>185.4</ele>
<time>2024-05-08T11:43:03Z</time>
</trkpt>
<trkpt lat="49.229469280689955" lon="9.16285514831543">
<ele>185.4</ele>
<time>2024-05-08T11:43:06Z</time>
</trkpt>
<trkpt lat="49.229469280689955" lon="9.162856992334127">
<ele>185.4</ele>
<time>2024-05-08T11:43:07Z</time>
</trkpt>
<trkpt lat="49.229469280689955" lon="9.162857998162508">
<ele>185.4</ele>
<time>2024-05-08T11:43:13Z</time>
</trkpt>
<trkpt lat="49.229469280689955" lon="9.162859842181206">
<ele>185.4</ele>
<time>2024-05-08T11:43:15Z</time>
</trkpt>
<trkpt lat="49.229469280689955" lon="9.162861770018935">
<ele>185.4</ele>
<time>2024-05-08T11:43:18Z</time>
</trkpt>
<trkpt lat="49.229469280689955" lon="9.162863697856665">
<ele>185.4</ele>
<time>2024-05-08T11:43:20Z</time>
</trkpt>
<trkpt lat="49.229469280689955" lon="9.162864619866014">
<ele>185.4</ele>
<time>2024-05-08T11:43:27Z</time>
</trkpt>
<trkpt lat="49.229469280689955" lon="9.162866547703745">
<ele>185.4</ele>
<time>2024-05-08T11:43:30Z</time>
</trkpt>
<trkpt lat="49.22947305254638" lon="9.162866547703745">
<ele>185.4</ele>
<time>2024-05-08T11:43:31Z</time>
</trkpt>
<trkpt lat="49.229469280689955" lon="9.162866547703745">
<ele>185.4</ele>
<time>2024-05-08T11:43:44Z</time>
</trkpt>
<trkpt lat="49.229469280689955" lon="9.162868475541472">
<ele>185.4</ele>
<time>2024-05-08T11:43:45Z</time>
</trkpt>
<trkpt lat="49.229469280689955" lon="9.162870403379202">
<ele>185.4</ele>
<time>2024-05-08T11:43:46Z</time>
</trkpt>
<trkpt lat="49.22947305254638" lon="9.162870403379202">
<ele>185.4</ele>
<time>2024-05-08T11:43:48Z</time>
</trkpt>
<trkpt lat="49.22947305254638" lon="9.16287132538855">
<ele>185.4</ele>
<time>2024-05-08T11:43:49Z</time>
</trkpt>
<trkpt lat="49.22947690822184" lon="9.16287132538855">
<ele>185.4</ele>
<time>2024-05-08T11:43:55Z</time>
</trkpt>
<trkpt lat="49.22947690822184" lon="9.162870403379202">
<ele>185.4</ele>
<time>2024-05-08T11:43:56Z</time>
</trkpt>
<trkpt lat="49.22947690822184" lon="9.162868475541472">
<ele>185.4</ele>
<time>2024-05-08T11:43:58Z</time>
</trkpt>
<trkpt lat="49.22947690822184" lon="9.162866547703745">
<ele>185.4</ele>
<time>2024-05-08T11:44:03Z</time>
</trkpt>
<trkpt lat="49.22947690822184" lon="9.162864619866014">
<ele>185.4</ele>
<time>2024-05-08T11:44:06Z</time>
</trkpt>
<trkpt lat="49.22947690822184" lon="9.162863697856665">
<ele>185.4</ele>
<time>2024-05-08T11:44:09Z</time>
</trkpt>
<trkpt lat="49.22947690822184" lon="9.162864619866014">
<ele>185.4</ele>
<time>2024-05-08T11:44:10Z</time>
</trkpt>
<trkpt lat="49.22947690822184" lon="9.162866547703745">
<ele>185.4</ele>
<time>2024-05-08T11:44:12Z</time>
</trkpt>
<trkpt lat="49.22947690822184" lon="9.162868475541472">
<ele>185.4</ele>
<time>2024-05-08T11:44:13Z</time>
</trkpt>
<trkpt lat="49.22947690822184" lon="9.162866547703745">
<ele>185.4</ele>
<time>2024-05-08T11:44:20Z</time>
</trkpt>
<trkpt lat="49.22947690822184" lon="9.162868475541472">
<ele>185.4</ele>
<time>2024-05-08T11:44:21Z</time>
</trkpt>
<trkpt lat="49.22948068007827" lon="9.162868475541472">
<ele>185.4</ele>
<time>2024-05-08T11:44:28Z</time>
</trkpt>
<trkpt lat="49.22948068007827" lon="9.162866547703745">
<ele>185.4</ele>
<time>2024-05-08T11:44:30Z</time>
</trkpt>
<trkpt lat="49.22948068007827" lon="9.162868475541472">
<ele>185.4</ele>
<time>2024-05-08T11:44:31Z</time>
</trkpt>
<trkpt lat="49.22948068007827" lon="9.162866547703745">
<ele>185.4</ele>
<time>2024-05-08T11:44:32Z</time>
</trkpt>
<trkpt lat="49.22948068007827" lon="9.162868475541472">
<ele>185.4</ele>
<time>2024-05-08T11:44:33Z</time>
</trkpt>
<trkpt lat="49.22948068007827" lon="9.162870403379202">
<ele>185.4</ele>
<time>2024-05-08T11:44:37Z</time>
</trkpt>
<trkpt lat="49.22948068007827" lon="9.16287132538855">
<ele>185.4</ele>
<time>2024-05-08T11:44:42Z</time>
</trkpt>
<trkpt lat="49.22948453575373" lon="9.16287132538855">
<ele>185.4</ele>
<time>2024-05-08T11:44:44Z</time>
</trkpt>
<trkpt lat="49.22948453575373" lon="9.162870403379202">
<ele>185.4</ele>
<time>2024-05-08T11:44:46Z</time>
</trkpt>
<trkpt lat="49.229488307610154" lon="9.162870403379202">
<ele>185.4</ele>
<time>2024-05-08T11:44:49Z</time>
</trkpt>
<trkpt lat="49.229488307610154" lon="9.16287132538855">
<ele>185.4</ele>
<time>2024-05-08T11:44:53Z</time>
</trkpt>
<trkpt lat="49.229488307610154" lon="9.16287325322628">
<ele>185.4</ele>
<time>2024-05-08T11:44:56Z</time>
</trkpt>
<trkpt lat="49.229488307610154" lon="9.16287132538855">
<ele>185.4</ele>
<time>2024-05-08T11:45:02Z</time>
</trkpt>
<trkpt lat="49.229488307610154" lon="9.162870403379202">
<ele>185.4</ele>
<time>2024-05-08T11:45:06Z</time>
</trkpt>
<trkpt lat="49.22949216328561" lon="9.16287132538855">
<ele>185.4</ele>
<time>2024-05-08T11:45:08Z</time>
</trkpt>
<trkpt lat="49.22949216328561" lon="9.162870403379202">
<ele>185.4</ele>
<time>2024-05-08T11:45:10Z</time>
</trkpt>
<trkpt lat="49.22949593514204" lon="9.162870403379202">
<ele>185.4</ele>
<time>2024-05-08T11:45:11Z</time>
</trkpt>
<trkpt lat="49.22949593514204" lon="9.16287325322628">
<ele>185.4</ele>
<time>2024-05-08T11:45:13Z</time>
</trkpt>
<trkpt lat="49.2294997908175" lon="9.162870403379202">
<ele>185.4</ele>
<time>2024-05-08T11:45:14Z</time>
</trkpt>
<trkpt lat="49.229503562673926" lon="9.162863697856665">
<ele>185.4</ele>
<time>2024-05-08T11:45:15Z</time>
</trkpt>
<trkpt lat="49.229503562673926" lon="9.162861770018935">
<ele>185.4</ele>
<time>2024-05-08T11:45:16Z</time>
</trkpt>
<trkpt lat="49.229503562673926" lon="9.162859842181206">
<ele>185.4</ele>
<time>2024-05-08T11:45:17Z</time>
</trkpt>
<trkpt lat="49.229503562673926" lon="9.162857998162508">
<ele>185.4</ele>
<time>2024-05-08T11:45:18Z</time>
</trkpt>
<trkpt lat="49.229503562673926" lon="9.162856992334127">
<ele>185.4</ele>
<time>2024-05-08T11:45:19Z</time>
</trkpt>
<trkpt lat="49.229503562673926" lon="9.162857998162508">
<ele>185.4</ele>
<time>2024-05-08T11:45:20Z</time>
</trkpt>
<trkpt lat="49.229507418349385" lon="9.162856992334127">
<ele>185.4</ele>
<time>2024-05-08T11:45:21Z</time>
</trkpt>
<trkpt lat="49.229507418349385" lon="9.16285514831543">
<ele>185.4</ele>
<time>2024-05-08T11:45:23Z</time>
</trkpt>
<trkpt lat="49.229507418349385" lon="9.16285129263997">
<ele>185.4</ele>
<time>2024-05-08T11:45:25Z</time>
</trkpt>
<trkpt lat="49.22951119020581" lon="9.162850370630622">
<ele>185.4</ele>
<time>2024-05-08T11:45:26Z</time>
</trkpt>
<trkpt lat="49.22951119020581" lon="9.162848442792892">
<ele>185.4</ele>
<time>2024-05-08T11:45:28Z</time>
</trkpt>
<trkpt lat="49.229503562673926" lon="9.1628532204777">
<ele>185.4</ele>
<time>2024-05-08T11:45:31Z</time>
</trkpt>
<trkpt lat="49.2294997908175" lon="9.162864619866014">
<ele>185.4</ele>
<time>2024-05-08T11:45:32Z</time>
</trkpt>
<trkpt lat="49.22949593514204" lon="9.162883730605245">
<ele>185.4</ele>
<time>2024-05-08T11:45:33Z</time>
</trkpt>
<trkpt lat="49.229488307610154" lon="9.162901835516095">
<ele>185.4</ele>
<time>2024-05-08T11:45:34Z</time>
</trkpt>
<trkpt lat="49.229488307610154" lon="9.162915162742138">
<ele>185.4</ele>
<time>2024-05-08T11:45:35Z</time>
</trkpt>
<trkpt lat="49.22949216328561" lon="9.16293142363429">
<ele>185.4</ele>
<time>2024-05-08T11:45:37Z</time>
</trkpt>
<trkpt lat="49.22949593514204" lon="9.162964783608912">
<ele>185.4</ele>
<time>2024-05-08T11:45:39Z</time>
</trkpt>
<trkpt lat="49.22949216328561" lon="9.163016248494388">
<ele>185.4</ele>
<time>2024-05-08T11:45:41Z</time>
</trkpt>
<trkpt lat="49.22949216328561" lon="9.163075424730778">
<ele>185.4</ele>
<time>2024-05-08T11:45:42Z</time>
</trkpt>
<trkpt lat="49.22949216328561" lon="9.163103085011244">
<ele>185.4</ele>
<time>2024-05-08T11:45:43Z</time>
</trkpt>
<trkpt lat="49.22949593514204" lon="9.163136444985868">
<ele>185.4</ele>
<time>2024-05-08T11:45:44Z</time>
</trkpt>
<trkpt lat="49.2294997908175" lon="9.163166955113413">
<ele>185.4</ele>
<time>2024-05-08T11:45:45Z</time>
</trkpt>
<trkpt lat="49.2294997908175" lon="9.163200315088034">
<ele>185.4</ele>
<time>2024-05-08T11:45:46Z</time>
</trkpt>
<trkpt lat="49.229503562673926" lon="9.1632279753685">
<ele>185.4</ele>
<time>2024-05-08T11:45:48Z</time>
</trkpt>
<trkpt lat="49.22951119020581" lon="9.163276590406896">
<ele>185.4</ele>
<time>2024-05-08T11:45:49Z</time>
</trkpt>
<trkpt lat="49.22951504588127" lon="9.163303328678012">
<ele>185.4</ele>
<time>2024-05-08T11:45:50Z</time>
</trkpt>
<trkpt lat="49.2295188177377" lon="9.163331910967829">
<ele>185.4</ele>
<time>2024-05-08T11:45:51Z</time>
</trkpt>
<trkpt lat="49.22952267341316" lon="9.16336820460856">
<ele>185.4</ele>
<time>2024-05-08T11:45:53Z</time>
</trkpt>
<trkpt lat="49.229526445269585" lon="9.163399636745453">
<ele>185.4</ele>
<time>2024-05-08T11:45:54Z</time>
</trkpt>
<trkpt lat="49.229526445269585" lon="9.163430146872996">
<ele>185.4</ele>
<time>2024-05-08T11:45:55Z</time>
</trkpt>
<trkpt lat="49.229526445269585" lon="9.163459734991193">
<ele>185.4</ele>
<time>2024-05-08T11:45:56Z</time>
</trkpt>
<trkpt lat="49.22953030094504" lon="9.163488317281008">
<ele>185.4</ele>
<time>2024-05-08T11:45:57Z</time>
</trkpt>
<trkpt lat="49.229526445269585" lon="9.163535088300703">
<ele>185.4</ele>
<time>2024-05-08T11:45:59Z</time>
</trkpt>
<trkpt lat="49.229526445269585" lon="9.163559898734093">
<ele>185.4</ele>
<time>2024-05-08T11:46:00Z</time>
</trkpt>
<trkpt lat="49.229526445269585" lon="9.16358177550137">
<ele>185.4</ele>
<time>2024-05-08T11:46:01Z</time>
</trkpt>
<trkpt lat="49.22953030094504" lon="9.16360180824995">
<ele>185.4</ele>
<time>2024-05-08T11:46:02Z</time>
</trkpt>
<trkpt lat="49.22953407280147" lon="9.16362376883626">
<ele>185.4</ele>
<time>2024-05-08T11:46:03Z</time>
</trkpt>
<trkpt lat="49.22954170033336" lon="9.163649501278996">
<ele>185.4</ele>
<time>2024-05-08T11:46:04Z</time>
</trkpt>
<trkpt lat="49.22954170033336" lon="9.163673389703035">
<ele>185.4</ele>
<time>2024-05-08T11:46:05Z</time>
</trkpt>
<trkpt lat="49.229545556008816" lon="9.163724854588509">
<ele>185.4</ele>
<time>2024-05-08T11:46:07Z</time>
</trkpt>
<trkpt lat="49.2295531835407" lon="9.163756370544434">
<ele>185.4</ele>
<time>2024-05-08T11:46:08Z</time>
</trkpt>
<trkpt lat="49.2295531835407" lon="9.163786880671978">
<ele>185.4</ele>
<time>2024-05-08T11:46:09Z</time>
</trkpt>
<trkpt lat="49.2295531835407" lon="9.163816384971142">
<ele>185.4</ele>
<time>2024-05-08T11:46:10Z</time>
</trkpt>
<trkpt lat="49.229545556008816" lon="9.163869777694345">
<ele>185.4</ele>
<time>2024-05-08T11:46:11Z</time>
</trkpt>
<trkpt lat="49.22953792847693" lon="9.16390037164092">
<ele>185.4</ele>
<time>2024-05-08T11:46:13Z</time>
</trkpt>
<trkpt lat="49.229526445269585" lon="9.163936581462622">
<ele>185.4</ele>
<time>2024-05-08T11:46:14Z</time>
</trkpt>
<trkpt lat="49.22951504588127" lon="9.16399952955544">
<ele>185.4</ele>
<time>2024-05-08T11:46:16Z</time>
</trkpt>
<trkpt lat="49.22951504588127" lon="9.1640586219728">
<ele>185.4</ele>
<time>2024-05-08T11:46:17Z</time>
</trkpt>
<trkpt lat="49.22951504588127" lon="9.164085360243917">
<ele>185.4</ele>
<time>2024-05-08T11:46:18Z</time>
</trkpt>
<trkpt lat="49.22951119020581" lon="9.164113020524384">
<ele>185.4</ele>
<time>2024-05-08T11:46:19Z</time>
</trkpt>
<trkpt lat="49.22951119020581" lon="9.164144452661276">
<ele>185.4</ele>
<time>2024-05-08T11:46:20Z</time>
</trkpt>
<trkpt lat="49.22951504588127" lon="9.164170185104012">
<ele>185.2</ele>
<time>2024-05-08T11:46:21Z</time>
</trkpt>
<trkpt lat="49.22951504588127" lon="9.164191223680971">
<ele>185.2</ele>
<time>2024-05-08T11:46:23Z</time>
</trkpt>
<trkpt lat="49.229507418349385" lon="9.164246544241903">
<ele>185</ele>
<time>2024-05-08T11:46:25Z</time>
</trkpt>
<trkpt lat="49.2294997908175" lon="9.16429708711803">
<ele>184.8</ele>
<time>2024-05-08T11:46:26Z</time>
</trkpt>
<trkpt lat="49.22949593514204" lon="9.164328519254925">
<ele>184.6</ele>
<time>2024-05-08T11:46:27Z</time>
</trkpt>
<trkpt lat="49.22949593514204" lon="9.164364812895656">
<ele>184.4</ele>
<time>2024-05-08T11:46:28Z</time>
</trkpt>
<trkpt lat="49.22949216328561" lon="9.164398172870278">
<ele>184.2</ele>
<time>2024-05-08T11:46:30Z</time>
</trkpt>
<trkpt lat="49.22949216328561" lon="9.1644315328449">
<ele>184.2</ele>
<time>2024-05-08T11:46:31Z</time>
</trkpt>
<trkpt lat="49.229488307610154" lon="9.164462042972444">
<ele>184.2</ele>
<time>2024-05-08T11:46:32Z</time>
</trkpt>
<trkpt lat="49.229488307610154" lon="9.16449163109064">
<ele>184</ele>
<time>2024-05-08T11:46:33Z</time>
</trkpt>
<trkpt lat="49.229488307610154" lon="9.164518285542728">
<ele>183.8</ele>
<time>2024-05-08T11:46:34Z</time>
</trkpt>
<trkpt lat="49.22948453575373" lon="9.164543095976114">
<ele>183.6</ele>
<time>2024-05-08T11:46:35Z</time>
</trkpt>
<trkpt lat="49.22947690822184" lon="9.164598416537046">
<ele>183.4</ele>
<time>2024-05-08T11:46:36Z</time>
</trkpt>
<trkpt lat="49.22947305254638" lon="9.164628004655242">
<ele>183.2</ele>
<time>2024-05-08T11:46:38Z</time>
</trkpt>
<trkpt lat="49.229465425014496" lon="9.164691874757407">
<ele>182.6</ele>
<time>2024-05-08T11:46:40Z</time>
</trkpt>
<trkpt lat="49.22946165315807" lon="9.164719535037875">
<ele>182</ele>
<time>2024-05-08T11:46:41Z</time>
</trkpt>
<trkpt lat="49.22946165315807" lon="9.164751973003147">
<ele>181.8</ele>
<time>2024-05-08T11:46:42Z</time>
</trkpt>
<trkpt lat="49.22945402562618" lon="9.164816848933697">
<ele>181</ele>
<time>2024-05-08T11:46:43Z</time>
</trkpt>
<trkpt lat="49.22945016995072" lon="9.16484828107059">
<ele>180.8</ele>
<time>2024-05-08T11:46:44Z</time>
</trkpt>
<trkpt lat="49.22945402562618" lon="9.164875019341707">
<ele>180.8</ele>
<time>2024-05-08T11:46:45Z</time>
</trkpt>
<trkpt lat="49.22945016995072" lon="9.164897901937366">
<ele>180.8</ele>
<time>2024-05-08T11:46:46Z</time>
</trkpt>
<trkpt lat="49.22945016995072" lon="9.164924556389453">
<ele>180.8</ele>
<time>2024-05-08T11:46:48Z</time>
</trkpt>
<trkpt lat="49.2294463980943" lon="9.164955066516995">
<ele>180.8</ele>
<time>2024-05-08T11:46:49Z</time>
</trkpt>
<trkpt lat="49.2294463980943" lon="9.164983732625842">
<ele>180.6</ele>
<time>2024-05-08T11:46:50Z</time>
</trkpt>
<trkpt lat="49.2294463980943" lon="9.165010387077928">
<ele>180.4</ele>
<time>2024-05-08T11:46:51Z</time>
</trkpt>
<trkpt lat="49.2294463980943" lon="9.165035197511315">
<ele>180.2</ele>
<time>2024-05-08T11:46:52Z</time>
</trkpt>
<trkpt lat="49.22944254241884" lon="9.16506285779178">
<ele>180</ele>
<time>2024-05-08T11:46:53Z</time>
</trkpt>
<trkpt lat="49.22944254241884" lon="9.1650895960629">
<ele>180</ele>
<time>2024-05-08T11:46:54Z</time>
</trkpt>
<trkpt lat="49.22943877056241" lon="9.165116250514984">
<ele>179.8</ele>
<time>2024-05-08T11:46:55Z</time>
</trkpt>
<trkpt lat="49.22943491488695" lon="9.165173498913646">
<ele>179.6</ele>
<time>2024-05-08T11:46:56Z</time>
</trkpt>
<trkpt lat="49.22943491488695" lon="9.165198309347034">
<ele>179.4</ele>
<time>2024-05-08T11:46:58Z</time>
</trkpt>
<trkpt lat="49.229427287355065" lon="9.16522311978042">
<ele>179.2</ele>
<time>2024-05-08T11:46:59Z</time>
</trkpt>
<trkpt lat="49.22942351549864" lon="9.165247846394776">
<ele>179</ele>
<time>2024-05-08T11:47:00Z</time>
</trkpt>
<trkpt lat="49.22941965982318" lon="9.165274584665896">
<ele>178.8</ele>
<time>2024-05-08T11:47:01Z</time>
</trkpt>
<trkpt lat="49.22941203229129" lon="9.16530316695571">
<ele>178.4</ele>
<time>2024-05-08T11:47:02Z</time>
</trkpt>
<trkpt lat="49.229408260434866" lon="9.165331833064556">
<ele>178.2</ele>
<time>2024-05-08T11:47:03Z</time>
</trkpt>
<trkpt lat="49.22940063290298" lon="9.165386147797108">
<ele>177.8</ele>
<time>2024-05-08T11:47:04Z</time>
</trkpt>
<trkpt lat="49.22939677722752" lon="9.165408108383415">
<ele>177.6</ele>
<time>2024-05-08T11:47:06Z</time>
</trkpt>
<trkpt lat="49.229393005371094" lon="9.165471978485584">
<ele>177.4</ele>
<time>2024-05-08T11:47:07Z</time>
</trkpt>
<trkpt lat="49.229385294020176" lon="9.1654987167567">
<ele>177.2</ele>
<time>2024-05-08T11:47:08Z</time>
</trkpt>
<trkpt lat="49.22937389463186" lon="9.165526377037168">
<ele>176.8</ele>
<time>2024-05-08T11:47:10Z</time>
</trkpt>
<trkpt lat="49.2293700389564" lon="9.16556166484952">
<ele>176.4</ele>
<time>2024-05-08T11:47:11Z</time>
</trkpt>
<trkpt lat="49.22935863956809" lon="9.165583541616796">
<ele>176.2</ele>
<time>2024-05-08T11:47:13Z</time>
</trkpt>
<trkpt lat="49.22935478389263" lon="9.165603574365376">
<ele>176</ele>
<time>2024-05-08T11:47:14Z</time>
</trkpt>
<trkpt lat="49.22933952882886" lon="9.165644645690918">
<ele>175.6</ele>
<time>2024-05-08T11:47:15Z</time>
</trkpt>
<trkpt lat="49.22933190129697" lon="9.165663672611116">
<ele>175.4</ele>
<time>2024-05-08T11:47:16Z</time>
</trkpt>
<trkpt lat="49.229328129440546" lon="9.165675155818462">
<ele>175.2</ele>
<time>2024-05-08T11:47:18Z</time>
</trkpt>
<trkpt lat="49.22932427376509" lon="9.16567800566554">
<ele>175</ele>
<time>2024-05-08T11:47:19Z</time>
</trkpt>
<trkpt lat="49.22932427376509" lon="9.165683705359696">
<ele>174.8</ele>
<time>2024-05-08T11:47:20Z</time>
</trkpt>
<trkpt lat="49.22932427376509" lon="9.165684627369046">
<ele>174.8</ele>
<time>2024-05-08T11:47:23Z</time>
</trkpt>
<trkpt lat="49.22932050190866" lon="9.165686555206776">
<ele>174.6</ele>
<time>2024-05-08T11:47:24Z</time>
</trkpt>
<trkpt lat="49.22932050190866" lon="9.165690410882236">
<ele>174.6</ele>
<time>2024-05-08T11:47:25Z</time>
</trkpt>
<trkpt lat="49.22932050190866" lon="9.165691332891583">
<ele>174.6</ele>
<time>2024-05-08T11:47:27Z</time>
</trkpt>
<trkpt lat="49.22932427376509" lon="9.165691332891583">
<ele>174.6</ele>
<time>2024-05-08T11:47:28Z</time>
</trkpt>
<trkpt lat="49.22932427376509" lon="9.165693260729311">
<ele>174.6</ele>
<time>2024-05-08T11:47:33Z</time>
</trkpt>
<trkpt lat="49.22932427376509" lon="9.165695188567042">
<ele>174.4</ele>
<time>2024-05-08T11:47:36Z</time>
</trkpt>
<trkpt lat="49.22932427376509" lon="9.165693260729311">
<ele>174.4</ele>
<time>2024-05-08T11:47:38Z</time>
</trkpt>
<trkpt lat="49.22932427376509" lon="9.16569803841412">
<ele>174.4</ele>
<time>2024-05-08T11:47:39Z</time>
</trkpt>
<trkpt lat="49.229328129440546" lon="9.165701810270548">
<ele>174.4</ele>
<time>2024-05-08T11:47:40Z</time>
</trkpt>
<trkpt lat="49.229328129440546" lon="9.165710443630816">
<ele>174.2</ele>
<time>2024-05-08T11:47:41Z</time>
</trkpt>
<trkpt lat="49.229328129440546" lon="9.16571513749659">
<ele>174</ele>
<time>2024-05-08T11:47:42Z</time>
</trkpt>
<trkpt lat="49.22932427376509" lon="9.165749503299594">
<ele>174</ele>
<time>2024-05-08T11:47:43Z</time>
</trkpt>
<trkpt lat="49.2293166462332" lon="9.165782863274217">
<ele>173.8</ele>
<time>2024-05-08T11:47:45Z</time>
</trkpt>
<trkpt lat="49.229297619313" lon="9.165868693962691">
<ele>173.8</ele>
<time>2024-05-08T11:47:46Z</time>
</trkpt>
<trkpt lat="49.22928999178112" lon="9.165911609306931">
<ele>173.6</ele>
<time>2024-05-08T11:47:48Z</time>
</trkpt>
<trkpt lat="49.22927088104189" lon="9.16599366813898">
<ele>173.4</ele>
<time>2024-05-08T11:47:49Z</time>
</trkpt>
<trkpt lat="49.22925948165357" lon="9.166038511320949">
<ele>173.2</ele>
<time>2024-05-08T11:47:50Z</time>
</trkpt>
<trkpt lat="49.229247998446226" lon="9.166080420836806">
<ele>173.2</ele>
<time>2024-05-08T11:47:51Z</time>
</trkpt>
<trkpt lat="49.2292442265898" lon="9.166118558496237">
<ele>173</ele>
<time>2024-05-08T11:47:52Z</time>
</trkpt>
<trkpt lat="49.22923659905791" lon="9.166158623993397">
<ele>172.8</ele>
<time>2024-05-08T11:47:54Z</time>
</trkpt>
<trkpt lat="49.22922511585057" lon="9.166203467175364">
<ele>172.6</ele>
<time>2024-05-08T11:47:55Z</time>
</trkpt>
<trkpt lat="49.22922134399414" lon="9.16631025262177">
<ele>172</ele>
<time>2024-05-08T11:47:56Z</time>
</trkpt>
<trkpt lat="49.22922511585057" lon="9.16637127287686">
<ele>171.6</ele>
<time>2024-05-08T11:47:57Z</time>
</trkpt>
<trkpt lat="49.22922134399414" lon="9.16642944328487">
<ele>171.4</ele>
<time>2024-05-08T11:47:58Z</time>
</trkpt>
<trkpt lat="49.22922134399414" lon="9.166493397206068">
<ele>171.2</ele>
<time>2024-05-08T11:47:59Z</time>
</trkpt>
<trkpt lat="49.22922511585057" lon="9.166555339470506">
<ele>170.8</ele>
<time>2024-05-08T11:48:01Z</time>
</trkpt>
<trkpt lat="49.22923659905791" lon="9.166663130745292">
<ele>170.2</ele>
<time>2024-05-08T11:48:02Z</time>
</trkpt>
<trkpt lat="49.2292442265898" lon="9.16670696809888">
<ele>169.8</ele>
<time>2024-05-08T11:48:04Z</time>
</trkpt>
<trkpt lat="49.229247998446226" lon="9.16674510575831">
<ele>169.6</ele>
<time>2024-05-08T11:48:05Z</time>
</trkpt>
<trkpt lat="49.22925562597811" lon="9.166816687211394">
<ele>169</ele>
<time>2024-05-08T11:48:06Z</time>
</trkpt>
<trkpt lat="49.22925948165357" lon="9.166852897033095">
<ele>168.6</ele>
<time>2024-05-08T11:48:08Z</time>
</trkpt>
<trkpt lat="49.229251854121685" lon="9.16692540049553">
<ele>168.2</ele>
<time>2024-05-08T11:48:10Z</time>
</trkpt>
<trkpt lat="49.229247998446226" lon="9.16696161031723">
<ele>168</ele>
<time>2024-05-08T11:48:11Z</time>
</trkpt>
<trkpt lat="49.22924037091434" lon="9.167030258104203">
<ele>167.4</ele>
<time>2024-05-08T11:48:13Z</time>
</trkpt>
<trkpt lat="49.22923659905791" lon="9.1670598462224">
<ele>167.2</ele>
<time>2024-05-08T11:48:14Z</time>
</trkpt>
<trkpt lat="49.22922511585057" lon="9.167088428512216">
<ele>167</ele>
<time>2024-05-08T11:48:15Z</time>
</trkpt>
<trkpt lat="49.22921748831868" lon="9.16712187230587">
<ele>166.6</ele>
<time>2024-05-08T11:48:16Z</time>
</trkpt>
<trkpt lat="49.2292098607868" lon="9.167155232280493">
<ele>166.2</ele>
<time>2024-05-08T11:48:17Z</time>
</trkpt>
<trkpt lat="49.22919837757945" lon="9.167188592255116">
<ele>165.8</ele>
<time>2024-05-08T11:48:18Z</time>
</trkpt>
<trkpt lat="49.229190750047565" lon="9.167216252535582">
<ele>165.6</ele>
<time>2024-05-08T11:48:19Z</time>
</trkpt>
<trkpt lat="49.22916023992002" lon="9.167291605845094">
<ele>165</ele>
<time>2024-05-08T11:48:20Z</time>
</trkpt>
<trkpt lat="49.22914498485625" lon="9.16733644902706">
<ele>164.6</ele>
<time>2024-05-08T11:48:22Z</time>
</trkpt>
<trkpt lat="49.22912595793605" lon="9.167381208389996">
<ele>164.4</ele>
<time>2024-05-08T11:48:23Z</time>
</trkpt>
<trkpt lat="49.2291144747287" lon="9.167434684932232">
<ele>164.2</ele>
<time>2024-05-08T11:48:24Z</time>
</trkpt>
<trkpt lat="49.22911070287227" lon="9.167491849511862">
<ele>164</ele>
<time>2024-05-08T11:48:25Z</time>
</trkpt>
<trkpt lat="49.22910684719682" lon="9.16761489585042">
<ele>163.6</ele>
<time>2024-05-08T11:48:26Z</time>
</trkpt>
<trkpt lat="49.22911070287227" lon="9.16767499409616">
<ele>163.4</ele>
<time>2024-05-08T11:48:28Z</time>
</trkpt>
<trkpt lat="49.22911070287227" lon="9.167737942188978">
<ele>163</ele>
<time>2024-05-08T11:48:29Z</time>
</trkpt>
<trkpt lat="49.22911070287227" lon="9.167875237762928">
<ele>162.6</ele>
<time>2024-05-08T11:48:30Z</time>
</trkpt>
<trkpt lat="49.2291144747287" lon="9.167942041531203">
<ele>162.2</ele>
<time>2024-05-08T11:48:31Z</time>
</trkpt>
<trkpt lat="49.22911833040416" lon="9.16800876148045">
<ele>161.8</ele>
<time>2024-05-08T11:48:33Z</time>
</trkpt>
<trkpt lat="49.22912595793605" lon="9.168143207207322">
<ele>161.2</ele>
<time>2024-05-08T11:48:34Z</time>
</trkpt>
<trkpt lat="49.229133585467935" lon="9.168203305453062">
<ele>161</ele>
<time>2024-05-08T11:48:35Z</time>
</trkpt>
<trkpt lat="49.22914121299982" lon="9.168263403698802">
<ele>160.6</ele>
<time>2024-05-08T11:48:36Z</time>
</trkpt>
<trkpt lat="49.22914884053171" lon="9.168323501944542">
<ele>160.4</ele>
<time>2024-05-08T11:48:37Z</time>
</trkpt>
<trkpt lat="49.22916409559548" lon="9.168381672352552">
<ele>160</ele>
<time>2024-05-08T11:48:39Z</time>
</trkpt>
<trkpt lat="49.22917935065925" lon="9.168439842760565">
<ele>159.8</ele>
<time>2024-05-08T11:48:40Z</time>
</trkpt>
<trkpt lat="49.22919460572302" lon="9.168501785025">
<ele>159.6</ele>
<time>2024-05-08T11:48:41Z</time>
</trkpt>
<trkpt lat="49.22921363264322" lon="9.168566660955548">
<ele>159.2</ele>
<time>2024-05-08T11:48:42Z</time>
</trkpt>
<trkpt lat="49.229251854121685" lon="9.168696328997612">
<ele>158.8</ele>
<time>2024-05-08T11:48:43Z</time>
</trkpt>
<trkpt lat="49.22927088104189" lon="9.16876120492816">
<ele>158.4</ele>
<time>2024-05-08T11:48:44Z</time>
</trkpt>
<trkpt lat="49.22928999178112" lon="9.168828008696437">
<ele>158.2</ele>
<time>2024-05-08T11:48:45Z</time>
</trkpt>
<trkpt lat="49.22930139116943" lon="9.168903278186916">
<ele>158</ele>
<time>2024-05-08T11:48:47Z</time>
</trkpt>
<trkpt lat="49.229312874376774" lon="9.168970081955194">
<ele>157.6</ele>
<time>2024-05-08T11:48:48Z</time>
</trkpt>
<trkpt lat="49.22933575697243" lon="9.169023474678395">
<ele>157.4</ele>
<time>2024-05-08T11:48:49Z</time>
</trkpt>
<trkpt lat="49.22936241142452" lon="9.169071167707443">
<ele>157</ele>
<time>2024-05-08T11:48:50Z</time>
</trkpt>
<trkpt lat="49.22942351549864" lon="9.169177953153849">
<ele>156.6</ele>
<time>2024-05-08T11:48:51Z</time>
</trkpt>
<trkpt lat="49.2294463980943" lon="9.16923712939024">
<ele>156.2</ele>
<time>2024-05-08T11:48:52Z</time>
</trkpt>
<trkpt lat="49.22947690822184" lon="9.169288594275711">
<ele>156</ele>
<time>2024-05-08T11:48:53Z</time>
</trkpt>
<trkpt lat="49.229507418349385" lon="9.169342992827296">
<ele>155.6</ele>
<time>2024-05-08T11:48:55Z</time>
</trkpt>
<trkpt lat="49.229587549343705" lon="9.169476432725787">
<ele>154.8</ele>
<time>2024-05-08T11:48:57Z</time>
</trkpt>
<trkpt lat="49.22965996898711" lon="9.169634766876698">
<ele>154</ele>
<time>2024-05-08T11:48:58Z</time>
</trkpt>
<trkpt lat="49.22969433479011" lon="9.169712970033288">
<ele>153.6</ele>
<time>2024-05-08T11:48:59Z</time>
</trkpt>
<trkpt lat="49.22972861677408" lon="9.169777845963836">
<ele>153.2</ele>
<time>2024-05-08T11:49:00Z</time>
</trkpt>
<trkpt lat="49.22975921072066" lon="9.169835010543466">
<ele>153</ele>
<time>2024-05-08T11:49:01Z</time>
</trkpt>
<trkpt lat="49.2297897208482" lon="9.16988463141024">
<ele>152.6</ele>
<time>2024-05-08T11:49:03Z</time>
</trkpt>
<trkpt lat="49.22980112023651" lon="9.16990466415882">
<ele>152.4</ele>
<time>2024-05-08T11:49:04Z</time>
</trkpt>
<trkpt lat="49.22983163036406" lon="9.169931402429938">
<ele>152</ele>
<time>2024-05-08T11:49:05Z</time>
</trkpt>
<trkpt lat="49.22988887876272" lon="9.16994472965598">
<ele>151.4</ele>
<time>2024-05-08T11:49:07Z</time>
</trkpt>
<trkpt lat="49.22994989901781" lon="9.169923774898052">
<ele>151</ele>
<time>2024-05-08T11:49:08Z</time>
</trkpt>
<trkpt lat="49.22997278161347" lon="9.169901814311745">
<ele>150.6</ele>
<time>2024-05-08T11:49:10Z</time>
</trkpt>
<trkpt lat="49.2300109192729" lon="9.169837944209576">
<ele>150</ele>
<time>2024-05-08T11:49:12Z</time>
</trkpt>
<trkpt lat="49.23002617433667" lon="9.169777845963836">
<ele>149.4</ele>
<time>2024-05-08T11:49:13Z</time>
</trkpt>
<trkpt lat="49.23003003001213" lon="9.16975018568337">
<ele>149.2</ele>
<time>2024-05-08T11:49:14Z</time>
</trkpt>
<trkpt lat="49.230022402480245" lon="9.169716825708749">
<ele>149</ele>
<time>2024-05-08T11:49:15Z</time>
</trkpt>
<trkpt lat="49.23001477494836" lon="9.169676760211589">
<ele>148.8</ele>
<time>2024-05-08T11:49:17Z</time>
</trkpt>
<trkpt lat="49.23000329174101" lon="9.16963191702962">
<ele>148.6</ele>
<time>2024-05-08T11:49:18Z</time>
</trkpt>
<trkpt lat="49.22998803667724" lon="9.169554635882378">
<ele>148.2</ele>
<time>2024-05-08T11:49:19Z</time>
</trkpt>
<trkpt lat="49.22998803667724" lon="9.169513648375869">
<ele>148</ele>
<time>2024-05-08T11:49:21Z</time>
</trkpt>
<trkpt lat="49.23000329174101" lon="9.16941641829908">
<ele>147.4</ele>
<time>2024-05-08T11:49:23Z</time>
</trkpt>
<trkpt lat="49.230022402480245" lon="9.16935632005334">
<ele>147.2</ele>
<time>2024-05-08T11:49:24Z</time>
</trkpt>
<trkpt lat="49.23006816767156" lon="9.169219946488738">
<ele>146.6</ele>
<time>2024-05-08T11:49:26Z</time>
</trkpt>
<trkpt lat="49.23008727841079" lon="9.169151298701763">
<ele>146.2</ele>
<time>2024-05-08T11:49:27Z</time>
</trkpt>
<trkpt lat="49.23010630533099" lon="9.169081645086408">
<ele>146</ele>
<time>2024-05-08T11:49:28Z</time>
</trkpt>
<trkpt lat="49.23011778853834" lon="9.169006291776896">
<ele>145.8</ele>
<time>2024-05-08T11:49:29Z</time>
</trkpt>
<trkpt lat="49.23013304360211" lon="9.16886036284268">
<ele>145.4</ele>
<time>2024-05-08T11:49:31Z</time>
</trkpt>
<trkpt lat="49.23014829866588" lon="9.168708734214306">
<ele>145</ele>
<time>2024-05-08T11:49:32Z</time>
</trkpt>
<trkpt lat="49.23015592619777" lon="9.168635308742523">
<ele>145</ele>
<time>2024-05-08T11:49:34Z</time>
</trkpt>
<trkpt lat="49.23016355372965" lon="9.168491307646036">
<ele>144.8</ele>
<time>2024-05-08T11:49:35Z</time>
</trkpt>
<trkpt lat="49.23016732558608" lon="9.168421737849712">
<ele>144.8</ele>
<time>2024-05-08T11:49:37Z</time>
</trkpt>
<trkpt lat="49.23018643632531" lon="9.168276730924845">
<ele>144.6</ele>
<time>2024-05-08T11:49:38Z</time>
</trkpt>
<trkpt lat="49.230197835713625" lon="9.168205233290792">
<ele>144.8</ele>
<time>2024-05-08T11:49:39Z</time>
</trkpt>
<trkpt lat="49.2302130907774" lon="9.16812795214355">
<ele>145</ele>
<time>2024-05-08T11:49:40Z</time>
</trkpt>
<trkpt lat="49.23022457398474" lon="9.16804974898696">
<ele>145</ele>
<time>2024-05-08T11:49:42Z</time>
</trkpt>
<trkpt lat="49.230239829048514" lon="9.16789149865508">
<ele>144.4</ele>
<time>2024-05-08T11:49:43Z</time>
</trkpt>
<trkpt lat="49.23025508411229" lon="9.16781136766076">
<ele>144.4</ele>
<time>2024-05-08T11:49:44Z</time>
</trkpt>
<trkpt lat="49.23026656731963" lon="9.167728386819364">
<ele>144.2</ele>
<time>2024-05-08T11:49:45Z</time>
</trkpt>
<trkpt lat="49.23027419485152" lon="9.167650183662772">
<ele>144</ele>
<time>2024-05-08T11:49:46Z</time>
</trkpt>
<trkpt lat="49.23028182238341" lon="9.16757675819099">
<ele>143.8</ele>
<time>2024-05-08T11:49:48Z</time>
</trkpt>
<trkpt lat="49.2303008493036" lon="9.167427979409696">
<ele>143.8</ele>
<time>2024-05-08T11:49:49Z</time>
</trkpt>
<trkpt lat="49.23030847683549" lon="9.167351704090834">
<ele>143.8</ele>
<time>2024-05-08T11:49:50Z</time>
</trkpt>
<trkpt lat="49.230316104367375" lon="9.167278278619053">
<ele>143.8</ele>
<time>2024-05-08T11:49:52Z</time>
</trkpt>
<trkpt lat="49.23033135943115" lon="9.167138049378991">
<ele>143.8</ele>
<time>2024-05-08T11:49:54Z</time>
</trkpt>
<trkpt lat="49.230338986963034" lon="9.167066551744938">
<ele>143.8</ele>
<time>2024-05-08T11:49:55Z</time>
</trkpt>
<trkpt lat="49.230358097702265" lon="9.166910145431755">
<ele>143.8</ele>
<time>2024-05-08T11:49:56Z</time>
</trkpt>
<trkpt lat="49.23036949709058" lon="9.166830014437435">
<ele>143.6</ele>
<time>2024-05-08T11:49:58Z</time>
</trkpt>
<trkpt lat="49.23040386289358" lon="9.16666690260172">
<ele>143.4</ele>
<time>2024-05-08T11:49:59Z</time>
</trkpt>
<trkpt lat="49.23042297363281" lon="9.1665849275887">
<ele>143.2</ele>
<time>2024-05-08T11:50:00Z</time>
</trkpt>
<trkpt lat="49.23044200055301" lon="9.166502952575684">
<ele>143</ele>
<time>2024-05-08T11:50:02Z</time>
</trkpt>
<trkpt lat="49.23046111129224" lon="9.166417121887209">
<ele>143</ele>
<time>2024-05-08T11:50:03Z</time>
</trkpt>
<trkpt lat="49.23049162141979" lon="9.166238754987717">
<ele>142.8</ele>
<time>2024-05-08T11:50:04Z</time>
</trkpt>
<trkpt lat="49.2305030208081" lon="9.166148146614432">
<ele>142.8</ele>
<time>2024-05-08T11:50:06Z</time>
</trkpt>
<trkpt lat="49.23052590340376" lon="9.1659736353904">
<ele>143</ele>
<time>2024-05-08T11:50:08Z</time>
</trkpt>
<trkpt lat="49.2305564135313" lon="9.165801974013448">
<ele>143.2</ele>
<time>2024-05-08T11:50:10Z</time>
</trkpt>
<trkpt lat="49.23057166859507" lon="9.16571706533432">
<ele>143.4</ele>
<time>2024-05-08T11:50:11Z</time>
</trkpt>
<trkpt lat="49.230613661929965" lon="9.165554959326982">
<ele>143.8</ele>
<time>2024-05-08T11:50:13Z</time>
</trkpt>
<trkpt lat="49.23065942712128" lon="9.165388075634835">
<ele>144.2</ele>
<time>2024-05-08T11:50:15Z</time>
</trkpt>
<trkpt lat="49.23068230971694" lon="9.165307944640515">
<ele>144.4</ele>
<time>2024-05-08T11:50:16Z</time>
</trkpt>
<trkpt lat="49.23072430305183" lon="9.165155394002795">
<ele>144.6</ele>
<time>2024-05-08T11:50:18Z</time>
</trkpt>
<trkpt lat="49.230773923918605" lon="9.1650066152215">
<ele>145</ele>
<time>2024-05-08T11:50:19Z</time>
</trkpt>
<trkpt lat="49.23079680651426" lon="9.16493033990264">
<ele>145.2</ele>
<time>2024-05-08T11:50:21Z</time>
</trkpt>
<trkpt lat="49.23086159862578" lon="9.164772005751727">
<ele>145.6</ele>
<time>2024-05-08T11:50:22Z</time>
</trkpt>
<trkpt lat="49.23089973628521" lon="9.164686175063252">
<ele>145.8</ele>
<time>2024-05-08T11:50:23Z</time>
</trkpt>
<trkpt lat="49.23093795776367" lon="9.164598416537046">
<ele>145.8</ele>
<time>2024-05-08T11:50:24Z</time>
</trkpt>
<trkpt lat="49.2309760954231" lon="9.164506886154411">
<ele>145.8</ele>
<time>2024-05-08T11:50:26Z</time>
</trkpt>
<trkpt lat="49.23104474321008" lon="9.164328519254925">
<ele>145.8</ele>
<time>2024-05-08T11:50:28Z</time>
</trkpt>
<trkpt lat="49.23107902519405" lon="9.16423506103456">
<ele>145.8</ele>
<time>2024-05-08T11:50:29Z</time>
</trkpt>
<trkpt lat="49.23111339099705" lon="9.164141602814198">
<ele>145.8</ele>
<time>2024-05-08T11:50:30Z</time>
</trkpt>
<trkpt lat="49.2311439011246" lon="9.164050072431564">
<ele>145.6</ele>
<time>2024-05-08T11:50:31Z</time>
</trkpt>
<trkpt lat="49.23121254891157" lon="9.163866927847266">
<ele>145.2</ele>
<time>2024-05-08T11:50:33Z</time>
</trkpt>
<trkpt lat="49.231285052374005" lon="9.16368193924427">
<ele>144.8</ele>
<time>2024-05-08T11:50:35Z</time>
</trkpt>
<trkpt lat="49.231365183368325" lon="9.16350457817316">
<ele>144.6</ele>
<time>2024-05-08T11:50:37Z</time>
</trkpt>
<trkpt lat="49.23144523054361" lon="9.163336688652636">
<ele>144.4</ele>
<time>2024-05-08T11:50:38Z</time>
</trkpt>
<trkpt lat="49.23148345202208" lon="9.163256641477346">
<ele>144.2</ele>
<time>2024-05-08T11:50:39Z</time>
</trkpt>
<trkpt lat="49.231521589681506" lon="9.163180282339454">
<ele>144</ele>
<time>2024-05-08T11:50:40Z</time>
</trkpt>
<trkpt lat="49.23155972734094" lon="9.163104929029942">
<ele>144</ele>
<time>2024-05-08T11:50:41Z</time>
</trkpt>
<trkpt lat="49.23159400932491" lon="9.163033431395888">
<ele>143.8</ele>
<time>2024-05-08T11:50:42Z</time>
</trkpt>
<trkpt lat="49.23162837512791" lon="9.162961933761837">
<ele>143.6</ele>
<time>2024-05-08T11:50:43Z</time>
</trkpt>
<trkpt lat="49.23166651278734" lon="9.16289035230875">
<ele>143.6</ele>
<time>2024-05-08T11:50:44Z</time>
</trkpt>
<trkpt lat="49.23170465044677" lon="9.162819860503078">
<ele>143.6</ele>
<time>2024-05-08T11:50:46Z</time>
</trkpt>
<trkpt lat="49.2317427881062" lon="9.1627530567348">
<ele>143.6</ele>
<time>2024-05-08T11:50:47Z</time>
</trkpt>
<trkpt lat="49.231780925765634" lon="9.162683486938477">
<ele>143.6</ele>
<time>2024-05-08T11:50:48Z</time>
</trkpt>
<trkpt lat="49.231819147244096" lon="9.1626166831702">
<ele>143.8</ele>
<time>2024-05-08T11:50:49Z</time>
</trkpt>
<trkpt lat="49.2318915668875" lon="9.162487015128136">
<ele>143.8</ele>
<time>2024-05-08T11:50:51Z</time>
</trkpt>
<trkpt lat="49.23196407034993" lon="9.162362040951848">
<ele>143.8</ele>
<time>2024-05-08T11:50:53Z</time>
</trkpt>
<trkpt lat="49.232036573812366" lon="9.162246622145176">
<ele>143.6</ele>
<time>2024-05-08T11:50:54Z</time>
</trkpt>
<trkpt lat="49.23207085579634" lon="9.162186607718468">
<ele>143.6</ele>
<time>2024-05-08T11:50:56Z</time>
</trkpt>
<trkpt lat="49.232139587402344" lon="9.162057861685753">
<ele>143.6</ele>
<time>2024-05-08T11:50:57Z</time>
</trkpt>
<trkpt lat="49.232177725061774" lon="9.161990135908129">
<ele>143.6</ele>
<time>2024-05-08T11:50:59Z</time>
</trkpt>
<trkpt lat="49.232254000380635" lon="9.161858540028334">
<ele>143.6</ele>
<time>2024-05-08T11:51:01Z</time>
</trkpt>
<trkpt lat="49.232334131374955" lon="9.161723088473082">
<ele>143.6</ele>
<time>2024-05-08T11:51:02Z</time>
</trkpt>
<trkpt lat="49.232372269034386" lon="9.161651590839028">
<ele>143.6</ele>
<time>2024-05-08T11:51:03Z</time>
</trkpt>
<trkpt lat="49.23242180608213" lon="9.16158864274621">
<ele>143.6</ele>
<time>2024-05-08T11:51:05Z</time>
</trkpt>
<trkpt lat="49.23250579275191" lon="9.161466518417">
<ele>143.4</ele>
<time>2024-05-08T11:51:06Z</time>
</trkpt>
<trkpt lat="49.23254393041134" lon="9.1614112816751">
<ele>143.4</ele>
<time>2024-05-08T11:51:07Z</time>
</trkpt>
<trkpt lat="49.2325858399272" lon="9.161357805132866">
<ele>143.2</ele>
<time>2024-05-08T11:51:09Z</time>
</trkpt>
<trkpt lat="49.2326202057302" lon="9.161305418238044">
<ele>143.2</ele>
<time>2024-05-08T11:51:10Z</time>
</trkpt>
<trkpt lat="49.23265834338963" lon="9.16125487536192">
<ele>143</ele>
<time>2024-05-08T11:51:11Z</time>
</trkpt>
<trkpt lat="49.232692709192634" lon="9.161205254495144">
<ele>143</ele>
<time>2024-05-08T11:51:12Z</time>
</trkpt>
<trkpt lat="49.23276512883603" lon="9.161086985841392">
<ele>142.8</ele>
<time>2024-05-08T11:51:14Z</time>
</trkpt>
<trkpt lat="49.232807122170925" lon="9.161025043576956">
<ele>142.8</ele>
<time>2024-05-08T11:51:15Z</time>
</trkpt>
<trkpt lat="49.23285288736224" lon="9.160963017493486">
<ele>142.8</ele>
<time>2024-05-08T11:51:16Z</time>
</trkpt>
<trkpt lat="49.23292539082467" lon="9.160849526524544">
<ele>142.8</ele>
<time>2024-05-08T11:51:17Z</time>
</trkpt>
<trkpt lat="49.23296730034053" lon="9.160791356116532">
<ele>142.8</ele>
<time>2024-05-08T11:51:19Z</time>
</trkpt>
<trkpt lat="49.2330589145422" lon="9.16067786514759">
<ele>143</ele>
<time>2024-05-08T11:51:20Z</time>
</trkpt>
<trkpt lat="49.233104679733515" lon="9.16061969473958">
<ele>143</ele>
<time>2024-05-08T11:51:22Z</time>
</trkpt>
<trkpt lat="49.23314658924937" lon="9.160566302016376">
<ele>143.2</ele>
<time>2024-05-08T11:51:23Z</time>
</trkpt>
<trkpt lat="49.23323057591915" lon="9.16046136058867">
<ele>143.4</ele>
<time>2024-05-08T11:51:24Z</time>
</trkpt>
<trkpt lat="49.23327248543501" lon="9.160413667559624">
<ele>143.4</ele>
<time>2024-05-08T11:51:25Z</time>
</trkpt>
<trkpt lat="49.2333144787699" lon="9.160366980358958">
<ele>143.4</ele>
<time>2024-05-08T11:51:27Z</time>
</trkpt>
<trkpt lat="49.233398381620646" lon="9.160273522138596">
<ele>143.4</ele>
<time>2024-05-08T11:51:28Z</time>
</trkpt>
<trkpt lat="49.233440374955535" lon="9.160226751118898">
<ele>143.4</ele>
<time>2024-05-08T11:51:30Z</time>
</trkpt>
<trkpt lat="49.23352813348174" lon="9.160131448879838">
<ele>143.4</ele>
<time>2024-05-08T11:51:31Z</time>
</trkpt>
<trkpt lat="49.23357389867306" lon="9.1600885335356">
<ele>143.4</ele>
<time>2024-05-08T11:51:33Z</time>
</trkpt>
<trkpt lat="49.23366157338023" lon="9.16000647470355">
<ele>143.4</ele>
<time>2024-05-08T11:51:35Z</time>
</trkpt>
<trkpt lat="49.23374170437455" lon="9.159923493862152">
<ele>143.2</ele>
<time>2024-05-08T11:51:37Z</time>
</trkpt>
<trkpt lat="49.23378369770944" lon="9.159879656508563">
<ele>143.2</ele>
<time>2024-05-08T11:51:38Z</time>
</trkpt>
<trkpt lat="49.2338599730283" lon="9.15979189798236">
<ele>143.2</ele>
<time>2024-05-08T11:51:39Z</time>
</trkpt>
<trkpt lat="49.23390196636319" lon="9.15974990464747">
<ele>143.2</ele>
<time>2024-05-08T11:51:40Z</time>
</trkpt>
<trkpt lat="49.23394387587905" lon="9.159706989303231">
<ele>143.2</ele>
<time>2024-05-08T11:51:42Z</time>
</trkpt>
<trkpt lat="49.23402786254883" lon="9.15963171981275">
<ele>143</ele>
<time>2024-05-08T11:51:44Z</time>
</trkpt>
<trkpt lat="49.23410413786769" lon="9.159562066197395">
<ele>142.8</ele>
<time>2024-05-08T11:51:46Z</time>
</trkpt>
<trkpt lat="49.23413841985166" lon="9.15952962823212">
<ele>142.6</ele>
<time>2024-05-08T11:51:47Z</time>
</trkpt>
<trkpt lat="49.23421477898955" lon="9.159451425075533">
<ele>142.6</ele>
<time>2024-05-08T11:51:48Z</time>
</trkpt>
<trkpt lat="49.234252916648984" lon="9.159411359578373">
<ele>142.6</ele>
<time>2024-05-08T11:51:49Z</time>
</trkpt>
<trkpt lat="49.234291054308414" lon="9.15937322191894">
<ele>142.6</ele>
<time>2024-05-08T11:51:50Z</time>
</trkpt>
<trkpt lat="49.23433296382427" lon="9.15933701209724">
<ele>142.6</ele>
<time>2024-05-08T11:51:52Z</time>
</trkpt>
<trkpt lat="49.23441309481859" lon="9.159263586625457">
<ele>142.6</ele>
<time>2024-05-08T11:51:54Z</time>
</trkpt>
<trkpt lat="49.23449322581291" lon="9.159193011000752">
<ele>142.6</ele>
<time>2024-05-08T11:51:55Z</time>
</trkpt>
<trkpt lat="49.23453513532877" lon="9.159161495044827">
<ele>142.6</ele>
<time>2024-05-08T11:51:56Z</time>
</trkpt>
<trkpt lat="49.23458098433912" lon="9.1591215133667">
<ele>142.6</ele>
<time>2024-05-08T11:51:57Z</time>
</trkpt>
<trkpt lat="49.234626749530435" lon="9.159083291888235">
<ele>142.6</ele>
<time>2024-05-08T11:51:58Z</time>
</trkpt>
<trkpt lat="49.23467251472175" lon="9.159047082066536">
<ele>142.6</ele>
<time>2024-05-08T11:52:00Z</time>
</trkpt>
<trkpt lat="49.23471827991307" lon="9.159011794254184">
<ele>142.6</ele>
<time>2024-05-08T11:52:01Z</time>
</trkpt>
<trkpt lat="49.23479841090739" lon="9.15894029662013">
<ele>142.6</ele>
<time>2024-05-08T11:52:02Z</time>
</trkpt>
<trkpt lat="49.234844176098704" lon="9.158906936645508">
<ele>142.6</ele>
<time>2024-05-08T11:52:03Z</time>
</trkpt>
<trkpt lat="49.234886169433594" lon="9.158875420689585">
<ele>142.6</ele>
<time>2024-05-08T11:52:04Z</time>
</trkpt>
<trkpt lat="49.234924307093024" lon="9.158844910562038">
<ele>142.6</ele>
<time>2024-05-08T11:52:06Z</time>
</trkpt>
<trkpt lat="49.23496621660888" lon="9.158816328272223">
<ele>142.6</ele>
<time>2024-05-08T11:52:07Z</time>
</trkpt>
<trkpt lat="49.23500820994377" lon="9.158784812316298">
<ele>142.6</ele>
<time>2024-05-08T11:52:08Z</time>
</trkpt>
<trkpt lat="49.23509211279452" lon="9.158729491755366">
<ele>142.6</ele>
<time>2024-05-08T11:52:09Z</time>
</trkpt>
<trkpt lat="49.23513025045395" lon="9.15870468132198">
<ele>142.6</ele>
<time>2024-05-08T11:52:10Z</time>
</trkpt>
<trkpt lat="49.235176015645266" lon="9.158678026869891">
<ele>142.6</ele>
<time>2024-05-08T11:52:11Z</time>
</trkpt>
<trkpt lat="49.235218008980155" lon="9.158648438751698">
<ele>142.6</ele>
<time>2024-05-08T11:52:13Z</time>
</trkpt>
<trkpt lat="49.235298139974475" lon="9.158596973866224">
<ele>142.6</ele>
<time>2024-05-08T11:52:14Z</time>
</trkpt>
<trkpt lat="49.23534004949033" lon="9.158571241423488">
<ele>142.6</ele>
<time>2024-05-08T11:52:15Z</time>
</trkpt>
<trkpt lat="49.23538204282522" lon="9.1585464309901">
<ele>142.6</ele>
<time>2024-05-08T11:52:16Z</time>
</trkpt>
<trkpt lat="49.23542403616011" lon="9.158521620556712">
<ele>142.6</ele>
<time>2024-05-08T11:52:17Z</time>
</trkpt>
<trkpt lat="49.23546594567597" lon="9.158496810123324">
<ele>142.6</ele>
<time>2024-05-08T11:52:19Z</time>
</trkpt>
<trkpt lat="49.23554222099483" lon="9.158441489562392">
<ele>142.8</ele>
<time>2024-05-08T11:52:20Z</time>
</trkpt>
<trkpt lat="49.23558044247329" lon="9.158412907272576">
<ele>143</ele>
<time>2024-05-08T11:52:21Z</time>
</trkpt>
<trkpt lat="49.235614724457264" lon="9.158383319154382">
<ele>143</ele>
<time>2024-05-08T11:52:22Z</time>
</trkpt>
<trkpt lat="49.23564909026027" lon="9.158356664702296">
<ele>143.2</ele>
<time>2024-05-08T11:52:23Z</time>
</trkpt>
<trkpt lat="49.23568337224424" lon="9.158336631953716">
<ele>143.2</ele>
<time>2024-05-08T11:52:25Z</time>
</trkpt>
<trkpt lat="49.23571388237178" lon="9.158313749358058">
<ele>143.2</ele>
<time>2024-05-08T11:52:26Z</time>
</trkpt>
<trkpt lat="49.235774986445904" lon="9.15826790034771">
<ele>143.4</ele>
<time>2024-05-08T11:52:28Z</time>
</trkpt>
<trkpt lat="49.235847406089306" lon="9.158221213147044">
<ele>143.6</ele>
<time>2024-05-08T11:52:29Z</time>
</trkpt>
<trkpt lat="49.235885543748736" lon="9.158194474875929">
<ele>143.6</ele>
<time>2024-05-08T11:52:31Z</time>
</trkpt>
<trkpt lat="49.235927537083626" lon="9.15816966444254">
<ele>143.8</ele>
<time>2024-05-08T11:52:32Z</time>
</trkpt>
<trkpt lat="49.235969530418515" lon="9.158143009990454">
<ele>144</ele>
<time>2024-05-08T11:52:33Z</time>
</trkpt>
<trkpt lat="49.23606106080115" lon="9.158086767420173">
<ele>144.2</ele>
<time>2024-05-08T11:52:34Z</time>
</trkpt>
<trkpt lat="49.236106825992465" lon="9.158060029149055">
<ele>144.2</ele>
<time>2024-05-08T11:52:35Z</time>
</trkpt>
<trkpt lat="49.23615644685924" lon="9.15803144685924">
<ele>144.2</ele>
<time>2024-05-08T11:52:36Z</time>
</trkpt>
<trkpt lat="49.236205983906984" lon="9.158004708588123">
<ele>144.2</ele>
<time>2024-05-08T11:52:38Z</time>
</trkpt>
<trkpt lat="49.23631285317242" lon="9.157946538180113">
<ele>144</ele>
<time>2024-05-08T11:52:39Z</time>
</trkpt>
<trkpt lat="49.23637001775205" lon="9.157919883728027">
<ele>144</ele>
<time>2024-05-08T11:52:41Z</time>
</trkpt>
<trkpt lat="49.23647303134203" lon="9.157864563167095">
<ele>143.8</ele>
<time>2024-05-08T11:52:42Z</time>
</trkpt>
<trkpt lat="49.23652642406523" lon="9.157837824895978">
<ele>143.6</ele>
<time>2024-05-08T11:52:44Z</time>
</trkpt>
<trkpt lat="49.23657604493201" lon="9.15781209245324">
<ele>143.6</ele>
<time>2024-05-08T11:52:45Z</time>
</trkpt>
<trkpt lat="49.23667520284653" lon="9.157759621739388">
<ele>143.2</ele>
<time>2024-05-08T11:52:46Z</time>
</trkpt>
<trkpt lat="49.2367248237133" lon="9.15773673914373">
<ele>143.2</ele>
<time>2024-05-08T11:52:47Z</time>
</trkpt>
<trkpt lat="49.23677444458008" lon="9.157712934538722">
<ele>143</ele>
<time>2024-05-08T11:52:48Z</time>
</trkpt>
<trkpt lat="49.236820209771395" lon="9.157689968124032">
<ele>142.8</ele>
<time>2024-05-08T11:52:50Z</time>
</trkpt>
<trkpt lat="49.236915512010455" lon="9.157645208761096">
<ele>142.6</ele>
<time>2024-05-08T11:52:52Z</time>
</trkpt>
<trkpt lat="49.23696513287723" lon="9.157623248174788">
<ele>142.6</ele>
<time>2024-05-08T11:52:53Z</time>
</trkpt>
<trkpt lat="49.23704903572798" lon="9.15757656097412">
<ele>142.8</ele>
<time>2024-05-08T11:52:54Z</time>
</trkpt>
<trkpt lat="49.237094800919294" lon="9.157553594559433">
<ele>142.8</ele>
<time>2024-05-08T11:52:56Z</time>
</trkpt>
<trkpt lat="49.23714064992964" lon="9.157533645629885">
<ele>142.8</ele>
<time>2024-05-08T11:52:57Z</time>
</trkpt>
<trkpt lat="49.23723980784416" lon="9.157489724457264">
<ele>142.8</ele>
<time>2024-05-08T11:52:58Z</time>
</trkpt>
<trkpt lat="49.23728557303548" lon="9.157464914023876">
<ele>143</ele>
<time>2024-05-08T11:52:59Z</time>
</trkpt>
<trkpt lat="49.237331338226795" lon="9.157440103590488">
<ele>143</ele>
<time>2024-05-08T11:53:00Z</time>
</trkpt>
<trkpt lat="49.23737710341811" lon="9.15741822682321">
<ele>143</ele>
<time>2024-05-08T11:53:02Z</time>
</trkpt>
<trkpt lat="49.23742286860943" lon="9.157393416389825">
<ele>143</ele>
<time>2024-05-08T11:53:03Z</time>
</trkpt>
<trkpt lat="49.23751825466752" lon="9.157349579036236">
<ele>143</ele>
<time>2024-05-08T11:53:04Z</time>
</trkpt>
<trkpt lat="49.237567875534296" lon="9.157326696440578">
<ele>143.2</ele>
<time>2024-05-08T11:53:05Z</time>
</trkpt>
<trkpt lat="49.23761741258204" lon="9.15730280801654">
<ele>143.2</ele>
<time>2024-05-08T11:53:06Z</time>
</trkpt>
<trkpt lat="49.23766326159239" lon="9.15728378109634">
<ele>143.2</ele>
<time>2024-05-08T11:53:07Z</time>
</trkpt>
<trkpt lat="49.23771665431559" lon="9.15726374834776">
<ele>143.2</ele>
<time>2024-05-08T11:53:08Z</time>
</trkpt>
<trkpt lat="49.23776241950691" lon="9.15723985992372">
<ele>143</ele>
<time>2024-05-08T11:53:09Z</time>
</trkpt>
<trkpt lat="49.237808184698224" lon="9.157215049490333">
<ele>142.8</ele>
<time>2024-05-08T11:53:11Z</time>
</trkpt>
<trkpt lat="49.23790734261274" lon="9.157168362289667">
<ele>142.6</ele>
<time>2024-05-08T11:53:12Z</time>
</trkpt>
<trkpt lat="49.23795310780406" lon="9.157144473865628">
<ele>142.4</ele>
<time>2024-05-08T11:53:13Z</time>
</trkpt>
<trkpt lat="49.238002728670835" lon="9.157125446945429">
<ele>142.4</ele>
<time>2024-05-08T11:53:15Z</time>
</trkpt>
<trkpt lat="49.23809811472893" lon="9.157085381448267">
<ele>142.4</ele>
<time>2024-05-08T11:53:16Z</time>
</trkpt>
<trkpt lat="49.2381477355957" lon="9.157065348699687">
<ele>142.4</ele>
<time>2024-05-08T11:53:17Z</time>
</trkpt>
<trkpt lat="49.23819727264345" lon="9.157045315951107">
<ele>142.4</ele>
<time>2024-05-08T11:53:18Z</time>
</trkpt>
<trkpt lat="49.23824303783476" lon="9.15702628903091">
<ele>142.4</ele>
<time>2024-05-08T11:53:20Z</time>
</trkpt>
<trkpt lat="49.23828880302608" lon="9.157010028138757">
<ele>142.4</ele>
<time>2024-05-08T11:53:21Z</time>
</trkpt>
<trkpt lat="49.238338423892856" lon="9.156991923227906">
<ele>142.4</ele>
<time>2024-05-08T11:53:22Z</time>
</trkpt>
<trkpt lat="49.23843380995095" lon="9.156954707577825">
<ele>142.4</ele>
<time>2024-05-08T11:53:24Z</time>
</trkpt>
<trkpt lat="49.238479575142264" lon="9.156938530504704">
<ele>142.4</ele>
<time>2024-05-08T11:53:25Z</time>
</trkpt>
<trkpt lat="49.238521568477154" lon="9.156920425593851">
<ele>142.4</ele>
<time>2024-05-08T11:53:26Z</time>
</trkpt>
<trkpt lat="49.23860924318433" lon="9.156883209943771">
<ele>142.4</ele>
<time>2024-05-08T11:53:27Z</time>
</trkpt>
<trkpt lat="49.238655008375645" lon="9.15686795488">
<ele>142.4</ele>
<time>2024-05-08T11:53:29Z</time>
</trkpt>
<trkpt lat="49.23874276690185" lon="9.156838366761804">
<ele>142.4</ele>
<time>2024-05-08T11:53:30Z</time>
</trkpt>
<trkpt lat="49.23878853209317" lon="9.156823111698031">
<ele>142.4</ele>
<time>2024-05-08T11:53:32Z</time>
</trkpt>
<trkpt lat="49.23887629061937" lon="9.156789751723409">
<ele>142.4</ele>
<time>2024-05-08T11:53:33Z</time>
</trkpt>
<trkpt lat="49.23891828395426" lon="9.156773490831256">
<ele>142.4</ele>
<time>2024-05-08T11:53:34Z</time>
</trkpt>
<trkpt lat="49.23896782100201" lon="9.156756391748786">
<ele>142.4</ele>
<time>2024-05-08T11:53:35Z</time>
</trkpt>
<trkpt lat="49.239009814336896" lon="9.156740130856631">
<ele>142.4</ele>
<time>2024-05-08T11:53:36Z</time>
</trkpt>
<trkpt lat="49.23905943520367" lon="9.156722025945784">
<ele>142.4</ele>
<time>2024-05-08T11:53:37Z</time>
</trkpt>
<trkpt lat="49.23910520039499" lon="9.15670677088201">
<ele>142.4</ele>
<time>2024-05-08T11:53:39Z</time>
</trkpt>
<trkpt lat="49.239147109910846" lon="9.156689587980509">
<ele>142.6</ele>
<time>2024-05-08T11:53:40Z</time>
</trkpt>
<trkpt lat="49.23923872411251" lon="9.156659999862311">
<ele>142.6</ele>
<time>2024-05-08T11:53:41Z</time>
</trkpt>
<trkpt lat="49.23928448930383" lon="9.156641894951465">
<ele>142.6</ele>
<time>2024-05-08T11:53:42Z</time>
</trkpt>
<trkpt lat="49.239330254495144" lon="9.15662663988769">
<ele>142.6</ele>
<time>2024-05-08T11:53:44Z</time>
</trkpt>
<trkpt lat="49.23941801302135" lon="9.156599985435603">
<ele>142.6</ele>
<time>2024-05-08T11:53:45Z</time>
</trkpt>
<trkpt lat="49.23945992253721" lon="9.15658850222826">
<ele>142.6</ele>
<time>2024-05-08T11:53:46Z</time>
</trkpt>
<trkpt lat="49.2395019158721" lon="9.156577102839949">
<ele>142.6</ele>
<time>2024-05-08T11:53:48Z</time>
</trkpt>
<trkpt lat="49.23959344625473" lon="9.15655036456883">
<ele>142.4</ele>
<time>2024-05-08T11:53:49Z</time>
</trkpt>
<trkpt lat="49.23963543958962" lon="9.156535109505056">
<ele>142.4</ele>
<time>2024-05-08T11:53:51Z</time>
</trkpt>
<trkpt lat="49.23968497663736" lon="9.156517926603556">
<ele>142.4</ele>
<time>2024-05-08T11:53:52Z</time>
</trkpt>
<trkpt lat="49.23977273516357" lon="9.156483644619584">
<ele>142.6</ele>
<time>2024-05-08T11:53:54Z</time>
</trkpt>
<trkpt lat="49.23981472849846" lon="9.156464533880351">
<ele>142.6</ele>
<time>2024-05-08T11:53:55Z</time>
</trkpt>
<trkpt lat="49.239860493689775" lon="9.156446428969502">
<ele>142.6</ele>
<time>2024-05-08T11:53:56Z</time>
</trkpt>
<trkpt lat="49.23995587974787" lon="9.1564120631665">
<ele>142.8</ele>
<time>2024-05-08T11:53:58Z</time>
</trkpt>
<trkpt lat="49.24005126580596" lon="9.156376775354149">
<ele>142.8</ele>
<time>2024-05-08T11:53:59Z</time>
</trkpt>
<trkpt lat="49.24009703099728" lon="9.156359592452644">
<ele>142.8</ele>
<time>2024-05-08T11:54:00Z</time>
</trkpt>
<trkpt lat="49.24014279618859" lon="9.156339643523095">
<ele>142.8</ele>
<time>2024-05-08T11:54:01Z</time>
</trkpt>
<trkpt lat="49.24018856137991" lon="9.156321454793217">
<ele>142.8</ele>
<time>2024-05-08T11:54:03Z</time>
</trkpt>
<trkpt lat="49.24028009176254" lon="9.156288094818592">
<ele>143</ele>
<time>2024-05-08T11:54:04Z</time>
</trkpt>
<trkpt lat="49.24032208509743" lon="9.156268062070012">
<ele>143</ele>
<time>2024-05-08T11:54:05Z</time>
</trkpt>
<trkpt lat="49.24036399461329" lon="9.156249957159162">
<ele>143</ele>
<time>2024-05-08T11:54:06Z</time>
</trkpt>
<trkpt lat="49.24040984362364" lon="9.156229924410582">
<ele>143</ele>
<time>2024-05-08T11:54:07Z</time>
</trkpt>
<trkpt lat="49.240455608814955" lon="9.156209891662002">
<ele>143</ele>
<time>2024-05-08T11:54:09Z</time>
</trkpt>
<trkpt lat="49.24050137400627" lon="9.156191786751153">
<ele>143</ele>
<time>2024-05-08T11:54:10Z</time>
</trkpt>
<trkpt lat="49.24054713919759" lon="9.1561736818403">
<ele>143</ele>
<time>2024-05-08T11:54:11Z</time>
</trkpt>
<trkpt lat="49.24063866958022" lon="9.156143171712756">
<ele>143</ele>
<time>2024-05-08T11:54:12Z</time>
</trkpt>
<trkpt lat="49.24068443477154" lon="9.156127916648984">
<ele>143</ele>
<time>2024-05-08T11:54:13Z</time>
</trkpt>
<trkpt lat="49.24072642810643" lon="9.15611450560391">
<ele>143</ele>
<time>2024-05-08T11:54:14Z</time>
</trkpt>
<trkpt lat="49.24076842144132" lon="9.156100256368518">
<ele>143</ele>
<time>2024-05-08T11:54:15Z</time>
</trkpt>
<trkpt lat="49.240810330957174" lon="9.156086845323443">
<ele>143</ele>
<time>2024-05-08T11:54:16Z</time>
</trkpt>
<trkpt lat="49.240852324292064" lon="9.15607452392578">
<ele>143</ele>
<time>2024-05-08T11:54:17Z</time>
</trkpt>
<trkpt lat="49.24089808948338" lon="9.156064968556166">
<ele>143</ele>
<time>2024-05-08T11:54:19Z</time>
</trkpt>
<trkpt lat="49.240985848009586" lon="9.156044935807586">
<ele>143</ele>
<time>2024-05-08T11:54:20Z</time>
</trkpt>
<trkpt lat="49.24102775752544" lon="9.15603538043797">
<ele>143</ele>
<time>2024-05-08T11:54:21Z</time>
</trkpt>
<trkpt lat="49.24106975086033" lon="9.156022053211927">
<ele>143</ele>
<time>2024-05-08T11:54:23Z</time>
</trkpt>
<trkpt lat="49.24111174419522" lon="9.156009647995234">
<ele>143</ele>
<time>2024-05-08T11:54:24Z</time>
</trkpt>
<trkpt lat="49.241203274577856" lon="9.155991543084385">
<ele>143</ele>
<time>2024-05-08T11:54:26Z</time>
</trkpt>
<trkpt lat="49.241245267912745" lon="9.155981987714767">
<ele>143</ele>
<time>2024-05-08T11:54:27Z</time>
</trkpt>
<trkpt lat="49.24129103310406" lon="9.1559733543545">
<ele>142.8</ele>
<time>2024-05-08T11:54:28Z</time>
</trkpt>
<trkpt lat="49.24138633534312" lon="9.155958099290729">
<ele>142.8</ele>
<time>2024-05-08T11:54:29Z</time>
</trkpt>
<trkpt lat="49.24142832867801" lon="9.155948627740145">
<ele>142.8</ele>
<time>2024-05-08T11:54:30Z</time>
</trkpt>
<trkpt lat="49.2414703220129" lon="9.155938066542149">
<ele>142.8</ele>
<time>2024-05-08T11:54:32Z</time>
</trkpt>
<trkpt lat="49.24155422486365" lon="9.15591518394649">
<ele>143</ele>
<time>2024-05-08T11:54:34Z</time>
</trkpt>
<trkpt lat="49.2416381277144" lon="9.155899928882718">
<ele>142.8</ele>
<time>2024-05-08T11:54:36Z</time>
</trkpt>
<trkpt lat="49.241680121049285" lon="9.155891379341483">
<ele>142.8</ele>
<time>2024-05-08T11:54:37Z</time>
</trkpt>
<trkpt lat="49.24176787957549" lon="9.155875202268362">
<ele>143</ele>
<time>2024-05-08T11:54:39Z</time>
</trkpt>
<trkpt lat="49.24185178242624" lon="9.15585801936686">
<ele>143.2</ele>
<time>2024-05-08T11:54:41Z</time>
</trkpt>
<trkpt lat="49.241893691942096" lon="9.155853241682053">
<ele>143.2</ele>
<time>2024-05-08T11:54:42Z</time>
</trkpt>
<trkpt lat="49.241977678611875" lon="9.155841758474708">
<ele>143.4</ele>
<time>2024-05-08T11:54:43Z</time>
</trkpt>
<trkpt lat="49.24202344380319" lon="9.155835136771202">
<ele>143.4</ele>
<time>2024-05-08T11:54:45Z</time>
</trkpt>
<trkpt lat="49.24210734665394" lon="9.1558179538697">
<ele>143.4</ele>
<time>2024-05-08T11:54:47Z</time>
</trkpt>
<trkpt lat="49.24214933998883" lon="9.155813176184893">
<ele>143.4</ele>
<time>2024-05-08T11:54:48Z</time>
</trkpt>
<trkpt lat="49.242195105180144" lon="9.155810326337814">
<ele>143.6</ele>
<time>2024-05-08T11:54:49Z</time>
</trkpt>
<trkpt lat="49.242237014696" lon="9.155803620815275">
<ele>143.6</ele>
<time>2024-05-08T11:54:50Z</time>
</trkpt>
<trkpt lat="49.24232477322221" lon="9.155788365751503">
<ele>143.6</ele>
<time>2024-05-08T11:54:51Z</time>
</trkpt>
<trkpt lat="49.2423667665571" lon="9.15577981621027">
<ele>143.6</ele>
<time>2024-05-08T11:54:52Z</time>
</trkpt>
<trkpt lat="49.242408676072955" lon="9.155771182850003">
<ele>143.6</ele>
<time>2024-05-08T11:54:54Z</time>
</trkpt>
<trkpt lat="49.24244689755142" lon="9.15576171129942">
<ele>143.6</ele>
<time>2024-05-08T11:54:55Z</time>
</trkpt>
<trkpt lat="49.242488807067275" lon="9.155750228092074">
<ele>143.6</ele>
<time>2024-05-08T11:54:56Z</time>
</trkpt>
<trkpt lat="49.242568938061595" lon="9.155716868117452">
<ele>143.6</ele>
<time>2024-05-08T11:54:57Z</time>
</trkpt>
<trkpt lat="49.242607075721025" lon="9.155692979693413">
<ele>143.6</ele>
<time>2024-05-08T11:54:59Z</time>
</trkpt>
<trkpt lat="49.242645213380456" lon="9.155666325241327">
<ele>143.6</ele>
<time>2024-05-08T11:55:00Z</time>
</trkpt>
<trkpt lat="49.24268335103989" lon="9.15563958697021">
<ele>143.6</ele>
<time>2024-05-08T11:55:01Z</time>
</trkpt>
<trkpt lat="49.242748226970434" lon="9.155588122084737">
<ele>143.6</ele>
<time>2024-05-08T11:55:03Z</time>
</trkpt>
<trkpt lat="49.24282073043287" lon="9.155536573380232">
<ele>143.6</ele>
<time>2024-05-08T11:55:04Z</time>
</trkpt>
<trkpt lat="49.24285124056041" lon="9.155509918928146">
<ele>143.6</ele>
<time>2024-05-08T11:55:05Z</time>
</trkpt>
<trkpt lat="49.242885522544384" lon="9.15547840297222">
<ele>143.8</ele>
<time>2024-05-08T11:55:06Z</time>
</trkpt>
<trkpt lat="49.2429122608155" lon="9.15544311515987">
<ele>143.8</ele>
<time>2024-05-08T11:55:07Z</time>
</trkpt>
<trkpt lat="49.24294654279947" lon="9.155407827347515">
<ele>144</ele>
<time>2024-05-08T11:55:09Z</time>
</trkpt>
<trkpt lat="49.24300001934171" lon="9.155346807092428">
<ele>144.2</ele>
<time>2024-05-08T11:55:10Z</time>
</trkpt>
<trkpt lat="49.24303052946925" lon="9.15532493032515">
<ele>144.2</ele>
<time>2024-05-08T11:55:11Z</time>
</trkpt>
<trkpt lat="49.24306481145322" lon="9.155311519280076">
<ele>144.4</ele>
<time>2024-05-08T11:55:13Z</time>
</trkpt>
<trkpt lat="49.24309532158077" lon="9.15530489757657">
<ele>144.4</ele>
<time>2024-05-08T11:55:14Z</time>
</trkpt>
<trkpt lat="49.24312968738377" lon="9.155306741595268">
<ele>144.4</ele>
<time>2024-05-08T11:55:15Z</time>
</trkpt>
<trkpt lat="49.24315642565489" lon="9.155315374955537">
<ele>144.6</ele>
<time>2024-05-08T11:55:16Z</time>
</trkpt>
<trkpt lat="49.243183080106974" lon="9.155335407704117">
<ele>144.6</ele>
<time>2024-05-08T11:55:17Z</time>
</trkpt>
<trkpt lat="49.24322884529829" lon="9.155389722436666">
<ele>144.6</ele>
<time>2024-05-08T11:55:19Z</time>
</trkpt>
<trkpt lat="49.24325558356941" lon="9.155421238392591">
<ele>144.8</ele>
<time>2024-05-08T11:55:20Z</time>
</trkpt>
<trkpt lat="49.24328223802149" lon="9.155441271141171">
<ele>144.8</ele>
<time>2024-05-08T11:55:21Z</time>
</trkpt>
<trkpt lat="49.243316603824496" lon="9.155456526204944">
<ele>145</ele>
<time>2024-05-08T11:55:22Z</time>
</trkpt>
<trkpt lat="49.2433509696275" lon="9.155467925593255">
<ele>145.2</ele>
<time>2024-05-08T11:55:23Z</time>
</trkpt>
<trkpt lat="49.24342724494636" lon="9.155487036332488">
<ele>145.4</ele>
<time>2024-05-08T11:55:25Z</time>
</trkpt>
<trkpt lat="49.24350352026522" lon="9.155487958341835">
<ele>145.4</ele>
<time>2024-05-08T11:55:27Z</time>
</trkpt>
<trkpt lat="49.243595050647855" lon="9.155473709106444">
<ele>145</ele>
<time>2024-05-08T11:55:28Z</time>
</trkpt>
<trkpt lat="49.243637043982744" lon="9.155467003583908">
<ele>144.8</ele>
<time>2024-05-08T11:55:30Z</time>
</trkpt>
<trkpt lat="49.24372094683349" lon="9.15545837022364">
<ele>144.4</ele>
<time>2024-05-08T11:55:32Z</time>
</trkpt>
<trkpt lat="49.24376294016838" lon="9.155467003583908">
<ele>144.4</ele>
<time>2024-05-08T11:55:33Z</time>
</trkpt>
<trkpt lat="49.243835443630815" lon="9.155543278902767">
<ele>144</ele>
<time>2024-05-08T11:55:35Z</time>
</trkpt>
<trkpt lat="49.24388498067856" lon="9.155650064349174">
<ele>143.8</ele>
<time>2024-05-08T11:55:36Z</time>
</trkpt>
<trkpt lat="49.24390786327422" lon="9.155705384910108">
<ele>143.8</ele>
<time>2024-05-08T11:55:38Z</time>
</trkpt>
<trkpt lat="49.243949856609106" lon="9.155831281095743">
<ele>143.4</ele>
<time>2024-05-08T11:55:40Z</time>
</trkpt>
<trkpt lat="49.24397273920477" lon="9.15589707903564">
<ele>143.4</ele>
<time>2024-05-08T11:55:41Z</time>
</trkpt>
<trkpt lat="49.24401850439608" lon="9.156026830896735">
<ele>143</ele>
<time>2024-05-08T11:55:43Z</time>
</trkpt>
<trkpt lat="49.24404138699174" lon="9.156091623008251">
<ele>143</ele>
<time>2024-05-08T11:55:44Z</time>
</trkpt>
<trkpt lat="49.244087152183056" lon="9.156218525022268">
<ele>142.8</ele>
<time>2024-05-08T11:55:46Z</time>
</trkpt>
<trkpt lat="49.24414440058172" lon="9.156332015991213">
<ele>142.6</ele>
<time>2024-05-08T11:55:47Z</time>
</trkpt>
<trkpt lat="49.24417491070926" lon="9.15637493133545">
<ele>142.6</ele>
<time>2024-05-08T11:55:49Z</time>
</trkpt>
<trkpt lat="49.24425504170358" lon="9.156426396220922">
<ele>142.6</ele>
<time>2024-05-08T11:55:51Z</time>
</trkpt>
<trkpt lat="49.2443351726979" lon="9.156441651284696">
<ele>142.6</ele>
<time>2024-05-08T11:55:52Z</time>
</trkpt>
<trkpt lat="49.24437708221376" lon="9.156444501131771">
<ele>142.6</ele>
<time>2024-05-08T11:55:53Z</time>
</trkpt>
<trkpt lat="49.24441521987319" lon="9.15645020082593">
<ele>142.6</ele>
<time>2024-05-08T11:55:55Z</time>
</trkpt>
<trkpt lat="49.24445721320808" lon="9.156454978510736">
<ele>142.6</ele>
<time>2024-05-08T11:55:56Z</time>
</trkpt>
<trkpt lat="49.244541116058826" lon="9.156464533880351">
<ele>142.6</ele>
<time>2024-05-08T11:55:58Z</time>
</trkpt>
<trkpt lat="49.24457925371826" lon="9.156473083421588">
<ele>142.6</ele>
<time>2024-05-08T11:55:59Z</time>
</trkpt>
<trkpt lat="49.24466315656901" lon="9.15649127215147">
<ele>142.6</ele>
<time>2024-05-08T11:56:00Z</time>
</trkpt>
<trkpt lat="49.24470900557935" lon="9.156497893854976">
<ele>142.6</ele>
<time>2024-05-08T11:56:01Z</time>
</trkpt>
<trkpt lat="49.24475091509521" lon="9.156504599377511">
<ele>142.6</ele>
<time>2024-05-08T11:56:03Z</time>
</trkpt>
<trkpt lat="49.24483481794596" lon="9.156517004594209">
<ele>142.6</ele>
<time>2024-05-08T11:56:05Z</time>
</trkpt>
<trkpt lat="49.24492257647216" lon="9.156531253829598">
<ele>142.8</ele>
<time>2024-05-08T11:56:06Z</time>
</trkpt>
<trkpt lat="49.24496834166348" lon="9.156544664874671">
<ele>142.8</ele>
<time>2024-05-08T11:56:07Z</time>
</trkpt>
<trkpt lat="49.24501033499837" lon="9.156555142253636">
<ele>143</ele>
<time>2024-05-08T11:56:08Z</time>
</trkpt>
<trkpt lat="49.24505232833326" lon="9.156563691794872">
<ele>143</ele>
<time>2024-05-08T11:56:09Z</time>
</trkpt>
<trkpt lat="49.24509423784912" lon="9.15657039731741">
<ele>143.2</ele>
<time>2024-05-08T11:56:10Z</time>
</trkpt>
<trkpt lat="49.24514000304043" lon="9.156579952687023">
<ele>143.2</ele>
<time>2024-05-08T11:56:12Z</time>
</trkpt>
<trkpt lat="49.2452316172421" lon="9.156604763120413">
<ele>143.2</ele>
<time>2024-05-08T11:56:13Z</time>
</trkpt>
<trkpt lat="49.245273526757956" lon="9.156613312661648">
<ele>143.2</ele>
<time>2024-05-08T11:56:14Z</time>
</trkpt>
<trkpt lat="49.24531929194927" lon="9.156621862202885">
<ele>143.2</ele>
<time>2024-05-08T11:56:15Z</time>
</trkpt>
<trkpt lat="49.24536514095962" lon="9.156631417572498">
<ele>143.2</ele>
<time>2024-05-08T11:56:17Z</time>
</trkpt>
<trkpt lat="49.245452815666795" lon="9.156641894951465">
<ele>143.2</ele>
<time>2024-05-08T11:56:19Z</time>
</trkpt>
<trkpt lat="49.24554820172489" lon="9.156649522483349">
<ele>143.4</ele>
<time>2024-05-08T11:56:20Z</time>
</trkpt>
<trkpt lat="49.24559782259166" lon="9.156655305996535">
<ele>143.4</ele>
<time>2024-05-08T11:56:21Z</time>
</trkpt>
<trkpt lat="49.24564358778298" lon="9.156658155843616">
<ele>143.4</ele>
<time>2024-05-08T11:56:22Z</time>
</trkpt>
<trkpt lat="49.24569312483072" lon="9.15666670538485">
<ele>143.4</ele>
<time>2024-05-08T11:56:23Z</time>
</trkpt>
<trkpt lat="49.24573511816561" lon="9.156678188592196">
<ele>143.4</ele>
<time>2024-05-08T11:56:24Z</time>
</trkpt>
<trkpt lat="49.24578088335693" lon="9.15668866597116">
<ele>143.4</ele>
<time>2024-05-08T11:56:25Z</time>
</trkpt>
<trkpt lat="49.245826648548245" lon="9.156698221340775">
<ele>143.4</ele>
<time>2024-05-08T11:56:26Z</time>
</trkpt>
<trkpt lat="49.245872497558594" lon="9.15670677088201">
<ele>143.2</ele>
<time>2024-05-08T11:56:27Z</time>
</trkpt>
<trkpt lat="49.24591826274991" lon="9.156716326251626">
<ele>143.2</ele>
<time>2024-05-08T11:56:28Z</time>
</trkpt>
<trkpt lat="49.24596017226577" lon="9.156722947955132">
<ele>143.2</ele>
<time>2024-05-08T11:56:30Z</time>
</trkpt>
<trkpt lat="49.24605178646743" lon="9.156740130856631">
<ele>143</ele>
<time>2024-05-08T11:56:32Z</time>
</trkpt>
<trkpt lat="49.24613568931818" lon="9.156758235767484">
<ele>143</ele>
<time>2024-05-08T11:56:34Z</time>
</trkpt>
<trkpt lat="49.24621959216893" lon="9.156771646812558">
<ele>142.8</ele>
<time>2024-05-08T11:56:36Z</time>
</trkpt>
<trkpt lat="49.24630735069513" lon="9.15678782388568">
<ele>142.8</ele>
<time>2024-05-08T11:56:38Z</time>
</trkpt>
<trkpt lat="49.24635311588645" lon="9.156798301264644">
<ele>142.8</ele>
<time>2024-05-08T11:56:39Z</time>
</trkpt>
<trkpt lat="49.246440874412656" lon="9.156816406175494">
<ele>142.8</ele>
<time>2024-05-08T11:56:40Z</time>
</trkpt>
<trkpt lat="49.24648663960397" lon="9.15682503953576">
<ele>142.8</ele>
<time>2024-05-08T11:56:41Z</time>
</trkpt>
<trkpt lat="49.24652854911983" lon="9.156833589076996">
<ele>142.8</ele>
<time>2024-05-08T11:56:42Z</time>
</trkpt>
<trkpt lat="49.24657054245472" lon="9.156840294599531">
<ele>142.8</ele>
<time>2024-05-08T11:56:43Z</time>
</trkpt>
<trkpt lat="49.24660868011415" lon="9.156851693987846">
<ele>142.8</ele>
<time>2024-05-08T11:56:44Z</time>
</trkpt>
<trkpt lat="49.24665067344904" lon="9.156863177195191">
<ele>142.8</ele>
<time>2024-05-08T11:56:46Z</time>
</trkpt>
<trkpt lat="49.246738431975245" lon="9.156881282106042">
<ele>142.8</ele>
<time>2024-05-08T11:56:47Z</time>
</trkpt>
<trkpt lat="49.2467803414911" lon="9.156889915466309">
<ele>142.8</ele>
<time>2024-05-08T11:56:49Z</time>
</trkpt>
<trkpt lat="49.246871871873736" lon="9.15690701454878">
<ele>142.8</ele>
<time>2024-05-08T11:56:50Z</time>
</trkpt>
<trkpt lat="49.246917720884085" lon="9.156913720071316">
<ele>142.8</ele>
<time>2024-05-08T11:56:52Z</time>
</trkpt>
<trkpt lat="49.24695963039994" lon="9.156920425593851">
<ele>142.8</ele>
<time>2024-05-08T11:56:53Z</time>
</trkpt>
<trkpt lat="49.247055016458035" lon="9.156933752819896">
<ele>142.6</ele>
<time>2024-05-08T11:56:54Z</time>
</trkpt>
<trkpt lat="49.24710463732481" lon="9.156943308189511">
<ele>142.6</ele>
<time>2024-05-08T11:56:56Z</time>
</trkpt>
<trkpt lat="49.247154174372554" lon="9.156953785568476">
<ele>142.4</ele>
<time>2024-05-08T11:56:57Z</time>
</trkpt>
<trkpt lat="49.247249560430646" lon="9.156969962641597">
<ele>142.6</ele>
<time>2024-05-08T11:56:59Z</time>
</trkpt>
<trkpt lat="49.24733731895685" lon="9.156989995390177">
<ele>142.6</ele>
<time>2024-05-08T11:57:01Z</time>
</trkpt>
<trkpt lat="49.247432705014944" lon="9.157008100301027">
<ele>142.6</ele>
<time>2024-05-08T11:57:02Z</time>
</trkpt>
<trkpt lat="49.2474746145308" lon="9.157014805823565">
<ele>142.4</ele>
<time>2024-05-08T11:57:03Z</time>
</trkpt>
<trkpt lat="49.24751660786569" lon="9.157021511346102">
<ele>142.4</ele>
<time>2024-05-08T11:57:05Z</time>
</trkpt>
<trkpt lat="49.24756237305701" lon="9.157025283202527">
<ele>142.4</ele>
<time>2024-05-08T11:57:06Z</time>
</trkpt>
<trkpt lat="49.247650131583214" lon="9.157032910734417">
<ele>142.4</ele>
<time>2024-05-08T11:57:07Z</time>
</trkpt>
<trkpt lat="49.24769966863096" lon="9.157039616256952">
<ele>142.4</ele>
<time>2024-05-08T11:57:08Z</time>
</trkpt>
<trkpt lat="49.24774166196585" lon="9.157046237960458">
<ele>142.4</ele>
<time>2024-05-08T11:57:09Z</time>
</trkpt>
<trkpt lat="49.24778742715717" lon="9.157052943482997">
<ele>142.4</ele>
<time>2024-05-08T11:57:11Z</time>
</trkpt>
<trkpt lat="49.24782942049205" lon="9.157058643177152">
<ele>142.6</ele>
<time>2024-05-08T11:57:12Z</time>
</trkpt>
<trkpt lat="49.2479133233428" lon="9.157068198546767">
<ele>142.6</ele>
<time>2024-05-08T11:57:13Z</time>
</trkpt>
<trkpt lat="49.24795146100223" lon="9.157076831907034">
<ele>142.4</ele>
<time>2024-05-08T11:57:15Z</time>
</trkpt>
<trkpt lat="49.24798959866166" lon="9.157085381448267">
<ele>142.4</ele>
<time>2024-05-08T11:57:16Z</time>
</trkpt>
<trkpt lat="49.24803159199655" lon="9.157094936817884">
<ele>142.4</ele>
<time>2024-05-08T11:57:17Z</time>
</trkpt>
<trkpt lat="49.24812697805464" lon="9.157114969566464">
<ele>142.2</ele>
<time>2024-05-08T11:57:19Z</time>
</trkpt>
<trkpt lat="49.24821850843728" lon="9.157130224630237">
<ele>142</ele>
<time>2024-05-08T11:57:20Z</time>
</trkpt>
<trkpt lat="49.248260417953134" lon="9.157137852162125">
<ele>141.8</ele>
<time>2024-05-08T11:57:21Z</time>
</trkpt>
<trkpt lat="49.24830626696348" lon="9.157150257378817">
<ele>141.8</ele>
<time>2024-05-08T11:57:23Z</time>
</trkpt>
<trkpt lat="49.248393941670656" lon="9.157168362289667">
<ele>141.6</ele>
<time>2024-05-08T11:57:24Z</time>
</trkpt>
<trkpt lat="49.248435935005546" lon="9.15717976167798">
<ele>141.6</ele>
<time>2024-05-08T11:57:25Z</time>
</trkpt>
<trkpt lat="49.24848170019686" lon="9.157191244885324">
<ele>141.6</ele>
<time>2024-05-08T11:57:26Z</time>
</trkpt>
<trkpt lat="49.24852369353175" lon="9.15719979442656">
<ele>141.6</ele>
<time>2024-05-08T11:57:28Z</time>
</trkpt>
<trkpt lat="49.24861907958984" lon="9.157215049490333">
<ele>141.6</ele>
<time>2024-05-08T11:57:29Z</time>
</trkpt>
<trkpt lat="49.24866484478116" lon="9.157224604859948">
<ele>141.6</ele>
<time>2024-05-08T11:57:30Z</time>
</trkpt>
<trkpt lat="49.24870675429702" lon="9.157233238220217">
<ele>141.8</ele>
<time>2024-05-08T11:57:32Z</time>
</trkpt>
<trkpt lat="49.248794512823224" lon="9.157251343131064">
<ele>141.8</ele>
<time>2024-05-08T11:57:34Z</time>
</trkpt>
<trkpt lat="49.24888227134943" lon="9.157266598194838">
<ele>142</ele>
<time>2024-05-08T11:57:35Z</time>
</trkpt>
<trkpt lat="49.24892418086529" lon="9.157271375879644">
<ele>142</ele>
<time>2024-05-08T11:57:36Z</time>
</trkpt>
<trkpt lat="49.24896240234375" lon="9.15728185325861">
<ele>142</ele>
<time>2024-05-08T11:57:38Z</time>
</trkpt>
<trkpt lat="49.24905393272638" lon="9.157297108322382">
<ele>142</ele>
<time>2024-05-08T11:57:39Z</time>
</trkpt>
<trkpt lat="49.2490996979177" lon="9.157304735854268">
<ele>142</ele>
<time>2024-05-08T11:57:40Z</time>
</trkpt>
<trkpt lat="49.249145463109016" lon="9.15731613524258">
<ele>142</ele>
<time>2024-05-08T11:57:42Z</time>
</trkpt>
<trkpt lat="49.24923699349165" lon="9.15733616799116">
<ele>142</ele>
<time>2024-05-08T11:57:43Z</time>
</trkpt>
<trkpt lat="49.249282758682966" lon="9.157344801351428">
<ele>142</ele>
<time>2024-05-08T11:57:45Z</time>
</trkpt>
<trkpt lat="49.249366745352745" lon="9.157364834100008">
<ele>142</ele>
<time>2024-05-08T11:57:46Z</time>
</trkpt>
<trkpt lat="49.24941251054406" lon="9.157371455803514">
<ele>142</ele>
<time>2024-05-08T11:57:48Z</time>
</trkpt>
<trkpt lat="49.24949264153838" lon="9.157386710867286">
<ele>142</ele>
<time>2024-05-08T11:57:49Z</time>
</trkpt>
<trkpt lat="49.24953077919781" lon="9.157393416389825">
<ele>141.8</ele>
<time>2024-05-08T11:57:51Z</time>
</trkpt>
<trkpt lat="49.249618453904986" lon="9.157409593462944">
<ele>142</ele>
<time>2024-05-08T11:57:52Z</time>
</trkpt>
<trkpt lat="49.249664302915335" lon="9.15742015466094">
<ele>142</ele>
<time>2024-05-08T11:57:53Z</time>
</trkpt>
<trkpt lat="49.24971006810665" lon="9.157431554049252">
<ele>142</ele>
<time>2024-05-08T11:57:54Z</time>
</trkpt>
<trkpt lat="49.24975197762251" lon="9.157443037256598">
<ele>142</ele>
<time>2024-05-08T11:57:55Z</time>
</trkpt>
<trkpt lat="49.24979011528194" lon="9.157455442473292">
<ele>142</ele>
<time>2024-05-08T11:57:57Z</time>
</trkpt>
<trkpt lat="49.24986647441983" lon="9.15747639723122">
<ele>142</ele>
<time>2024-05-08T11:57:58Z</time>
</trkpt>
<trkpt lat="49.24991223961115" lon="9.157486874610186">
<ele>142.2</ele>
<time>2024-05-08T11:57:59Z</time>
</trkpt>
<trkpt lat="49.249958004802465" lon="9.157494502142072">
<ele>142.2</ele>
<time>2024-05-08T11:58:00Z</time>
</trkpt>
<trkpt lat="49.249999998137355" lon="9.157504979521036">
<ele>142.2</ele>
<time>2024-05-08T11:58:01Z</time>
</trkpt>
<trkpt lat="49.25004576332867" lon="9.157513612881305">
<ele>142.2</ele>
<time>2024-05-08T11:58:02Z</time>
</trkpt>
<trkpt lat="49.25009152851999" lon="9.157521240413187">
<ele>142.2</ele>
<time>2024-05-08T11:58:03Z</time>
</trkpt>
<trkpt lat="49.250133438035846" lon="9.157529789954424">
<ele>142.2</ele>
<time>2024-05-08T11:58:04Z</time>
</trkpt>
<trkpt lat="49.250179287046194" lon="9.15753833949566">
<ele>142.2</ele>
<time>2024-05-08T11:58:05Z</time>
</trkpt>
<trkpt lat="49.25022505223751" lon="9.157547894865274">
<ele>142.2</ele>
<time>2024-05-08T11:58:06Z</time>
</trkpt>
<trkpt lat="49.25027081742883" lon="9.157560300081968">
<ele>142.2</ele>
<time>2024-05-08T11:58:08Z</time>
</trkpt>
<trkpt lat="49.250312726944685" lon="9.157571783289312">
<ele>142.2</ele>
<time>2024-05-08T11:58:09Z</time>
</trkpt>
<trkpt lat="49.250354720279574" lon="9.157580332830548">
<ele>142.2</ele>
<time>2024-05-08T11:58:10Z</time>
</trkpt>
<trkpt lat="49.250396713614464" lon="9.157587960362434">
<ele>142.2</ele>
<time>2024-05-08T11:58:11Z</time>
</trkpt>
<trkpt lat="49.2504882439971" lon="9.157607071101664">
<ele>142.2</ele>
<time>2024-05-08T11:58:13Z</time>
</trkpt>
<trkpt lat="49.2505760025233" lon="9.157628025859594">
<ele>142.2</ele>
<time>2024-05-08T11:58:14Z</time>
</trkpt>
<trkpt lat="49.25062176771462" lon="9.157640431076288">
<ele>142.2</ele>
<time>2024-05-08T11:58:15Z</time>
</trkpt>
<trkpt lat="49.250667532905936" lon="9.157651830464602">
<ele>142.4</ele>
<time>2024-05-08T11:58:17Z</time>
</trkpt>
<trkpt lat="49.250709526240826" lon="9.157661385834215">
<ele>142.4</ele>
<time>2024-05-08T11:58:18Z</time>
</trkpt>
<trkpt lat="49.25075529143214" lon="9.157668091356754">
<ele>142.6</ele>
<time>2024-05-08T11:58:19Z</time>
</trkpt>
<trkpt lat="49.25084296613932" lon="9.157679490745068">
<ele>142.8</ele>
<time>2024-05-08T11:58:20Z</time>
</trkpt>
<trkpt lat="49.250884959474206" lon="9.157681418582795">
<ele>142.8</ele>
<time>2024-05-08T11:58:22Z</time>
</trkpt>
<trkpt lat="49.25093072466552" lon="9.157681418582795">
<ele>142.8</ele>
<time>2024-05-08T11:58:23Z</time>
</trkpt>
<trkpt lat="49.25101848319173" lon="9.15767471306026">
<ele>142.8</ele>
<time>2024-05-08T11:58:24Z</time>
</trkpt>
<trkpt lat="49.25106047652662" lon="9.157668091356754">
<ele>142.8</ele>
<time>2024-05-08T11:58:26Z</time>
</trkpt>
<trkpt lat="49.25114815123379" lon="9.157653758302333">
<ele>142.6</ele>
<time>2024-05-08T11:58:28Z</time>
</trkpt>
<trkpt lat="49.25119014456868" lon="9.157643280923368">
<ele>142.6</ele>
<time>2024-05-08T11:58:29Z</time>
</trkpt>
<trkpt lat="49.25123213790357" lon="9.157628025859594">
<ele>142.6</ele>
<time>2024-05-08T11:58:30Z</time>
</trkpt>
<trkpt lat="49.25127404741943" lon="9.157611764967442">
<ele>142.4</ele>
<time>2024-05-08T11:58:31Z</time>
</trkpt>
<trkpt lat="49.25135417841375" lon="9.157571783289312">
<ele>142.4</ele>
<time>2024-05-08T11:58:33Z</time>
</trkpt>
<trkpt lat="49.25139231607318" lon="9.157547894865274">
<ele>142.4</ele>
<time>2024-05-08T11:58:34Z</time>
</trkpt>
<trkpt lat="49.251480074599385" lon="9.157494502142072">
<ele>142.4</ele>
<time>2024-05-08T11:58:35Z</time>
</trkpt>
<trkpt lat="49.2515258397907" lon="9.157468769699337">
<ele>142.4</ele>
<time>2024-05-08T11:58:36Z</time>
</trkpt>
<trkpt lat="49.25156783312559" lon="9.157440103590488">
<ele>142.4</ele>
<time>2024-05-08T11:58:38Z</time>
</trkpt>
<trkpt lat="49.251655507832766" lon="9.15738293901086">
<ele>142.4</ele>
<time>2024-05-08T11:58:39Z</time>
</trkpt>
<trkpt lat="49.251697501167655" lon="9.15735620073974">
<ele>142.4</ele>
<time>2024-05-08T11:58:40Z</time>
</trkpt>
<trkpt lat="49.25174326635897" lon="9.157331390306354">
<ele>142.4</ele>
<time>2024-05-08T11:58:42Z</time>
</trkpt>
<trkpt lat="49.2517814040184" lon="9.157304735854268">
<ele>142.4</ele>
<time>2024-05-08T11:58:43Z</time>
</trkpt>
<trkpt lat="49.25182339735329" lon="9.15727799758315">
<ele>142.4</ele>
<time>2024-05-08T11:58:44Z</time>
</trkpt>
<trkpt lat="49.25190352834761" lon="9.157224604859948">
<ele>142.2</ele>
<time>2024-05-08T11:58:45Z</time>
</trkpt>
<trkpt lat="49.25194166600704" lon="9.15719979442656">
<ele>142.2</ele>
<time>2024-05-08T11:58:46Z</time>
</trkpt>
<trkpt lat="49.2519835755229" lon="9.157173139974477">
<ele>142.2</ele>
<time>2024-05-08T11:58:47Z</time>
</trkpt>
<trkpt lat="49.25202171318233" lon="9.157150257378817">
<ele>142</ele>
<time>2024-05-08T11:58:48Z</time>
</trkpt>
<trkpt lat="49.25206370651722" lon="9.157128296792507">
<ele>142</ele>
<time>2024-05-08T11:58:49Z</time>
</trkpt>
<trkpt lat="49.25210184417665" lon="9.157106336206198">
<ele>142.2</ele>
<time>2024-05-08T11:58:50Z</time>
</trkpt>
<trkpt lat="49.25213998183608" lon="9.15708345361054">
<ele>142.2</ele>
<time>2024-05-08T11:58:52Z</time>
</trkpt>
<trkpt lat="49.25217434763909" lon="9.157058643177152">
<ele>142.2</ele>
<time>2024-05-08T11:58:53Z</time>
</trkpt>
<trkpt lat="49.25224685110152" lon="9.157012877985837">
<ele>142.4</ele>
<time>2024-05-08T11:58:54Z</time>
</trkpt>
<trkpt lat="49.25228498876095" lon="9.156988067552447">
<ele>142.6</ele>
<time>2024-05-08T11:58:56Z</time>
</trkpt>
<trkpt lat="49.25237266346812" lon="9.156945152208207">
<ele>142.6</ele>
<time>2024-05-08T11:58:58Z</time>
</trkpt>
<trkpt lat="49.25246427766979" lon="9.156900392845271">
<ele>142.6</ele>
<time>2024-05-08T11:58:59Z</time>
</trkpt>
<trkpt lat="49.252510042861104" lon="9.156874576583505">
<ele>142.4</ele>
<time>2024-05-08T11:59:01Z</time>
</trkpt>
<trkpt lat="49.25260157324374" lon="9.156821183860302">
<ele>142.4</ele>
<time>2024-05-08T11:59:03Z</time>
</trkpt>
<trkpt lat="49.25269310362637" lon="9.156769718974829">
<ele>142.2</ele>
<time>2024-05-08T11:59:04Z</time>
</trkpt>
<trkpt lat="49.25273895263672" lon="9.156742058694364">
<ele>142.2</ele>
<time>2024-05-08T11:59:05Z</time>
</trkpt>
<trkpt lat="49.252784717828035" lon="9.156718254089355">
<ele>142</ele>
<time>2024-05-08T11:59:06Z</time>
</trkpt>
<trkpt lat="49.25283048301935" lon="9.156695287674664">
<ele>141.8</ele>
<time>2024-05-08T11:59:08Z</time>
</trkpt>
<trkpt lat="49.252880020067096" lon="9.156673410907388">
<ele>141.8</ele>
<time>2024-05-08T11:59:09Z</time>
</trkpt>
<trkpt lat="49.25297163426876" lon="9.15662663988769">
<ele>141.6</ele>
<time>2024-05-08T11:59:11Z</time>
</trkpt>
<trkpt lat="49.25306693650782" lon="9.156584730371833">
<ele>141.6</ele>
<time>2024-05-08T11:59:13Z</time>
</trkpt>
<trkpt lat="49.253158550709486" lon="9.15655036456883">
<ele>141.4</ele>
<time>2024-05-08T11:59:14Z</time>
</trkpt>
<trkpt lat="49.253200460225344" lon="9.156535109505056">
<ele>141.4</ele>
<time>2024-05-08T11:59:15Z</time>
</trkpt>
<trkpt lat="49.25324622541666" lon="9.156519854441283">
<ele>141.4</ele>
<time>2024-05-08T11:59:16Z</time>
</trkpt>
<trkpt lat="49.25329207442701" lon="9.156504599377511">
<ele>141.4</ele>
<time>2024-05-08T11:59:17Z</time>
</trkpt>
<trkpt lat="49.253337839618325" lon="9.15649026632309">
<ele>141.4</ele>
<time>2024-05-08T11:59:18Z</time>
</trkpt>
<trkpt lat="49.25338360480964" lon="9.156476939097049">
<ele>141.4</ele>
<time>2024-05-08T11:59:20Z</time>
</trkpt>
<trkpt lat="49.25348276272416" lon="9.156457828357816">
<ele>141.6</ele>
<time>2024-05-08T11:59:21Z</time>
</trkpt>
<trkpt lat="49.25352852791548" lon="9.15645120665431">
<ele>141.6</ele>
<time>2024-05-08T11:59:23Z</time>
</trkpt>
<trkpt lat="49.25362391397357" lon="9.156434945762156">
<ele>141.8</ele>
<time>2024-05-08T11:59:24Z</time>
</trkpt>
<trkpt lat="49.253673534840345" lon="9.156428324058652">
<ele>141.8</ele>
<time>2024-05-08T11:59:25Z</time>
</trkpt>
<trkpt lat="49.2537154443562" lon="9.156419690698383">
<ele>141.8</ele>
<time>2024-05-08T11:59:26Z</time>
</trkpt>
<trkpt lat="49.25376120954752" lon="9.15641306899488">
<ele>142</ele>
<time>2024-05-08T11:59:28Z</time>
</trkpt>
<trkpt lat="49.253848968073726" lon="9.15641306899488">
<ele>142</ele>
<time>2024-05-08T11:59:29Z</time>
</trkpt>
<trkpt lat="49.25389473326504" lon="9.156416840851309">
<ele>142</ele>
<time>2024-05-08T11:59:30Z</time>
</trkpt>
<trkpt lat="49.25394058227539" lon="9.156418768689036">
<ele>142</ele>
<time>2024-05-08T11:59:31Z</time>
</trkpt>
<trkpt lat="49.25398634746671" lon="9.156421618536116">
<ele>142</ele>
<time>2024-05-08T11:59:33Z</time>
</trkpt>
<trkpt lat="49.254028256982565" lon="9.156425474211574">
<ele>142</ele>
<time>2024-05-08T11:59:34Z</time>
</trkpt>
<trkpt lat="49.254112243652344" lon="9.15643117390573">
<ele>142</ele>
<time>2024-05-08T11:59:35Z</time>
</trkpt>
<trkpt lat="49.2541541531682" lon="9.15643310174346">
<ele>142</ele>
<time>2024-05-08T11:59:36Z</time>
</trkpt>
<trkpt lat="49.25419991835952" lon="9.156434945762156">
<ele>142</ele>
<time>2024-05-08T11:59:37Z</time>
</trkpt>
<trkpt lat="49.25424191169441" lon="9.156437795609236">
<ele>142</ele>
<time>2024-05-08T11:59:38Z</time>
</trkpt>
<trkpt lat="49.2542839050293" lon="9.156441651284696">
<ele>142</ele>
<time>2024-05-08T11:59:39Z</time>
</trkpt>
<trkpt lat="49.254325814545155" lon="9.156443579122424">
<ele>142</ele>
<time>2024-05-08T11:59:40Z</time>
</trkpt>
<trkpt lat="49.25437157973647" lon="9.156443579122424">
<ele>142</ele>
<time>2024-05-08T11:59:41Z</time>
</trkpt>
<trkpt lat="49.25441357307136" lon="9.156441651284696">
<ele>142</ele>
<time>2024-05-08T11:59:42Z</time>
</trkpt>
<trkpt lat="49.25445933826268" lon="9.156443579122424">
<ele>142</ele>
<time>2024-05-08T11:59:43Z</time>
</trkpt>
<trkpt lat="49.254505103453994" lon="9.156443579122424">
<ele>142</ele>
<time>2024-05-08T11:59:44Z</time>
</trkpt>
<trkpt lat="49.25455472432077" lon="9.156443579122424">
<ele>142</ele>
<time>2024-05-08T11:59:46Z</time>
</trkpt>
<trkpt lat="49.25465011037886" lon="9.156446428969502">
<ele>142</ele>
<time>2024-05-08T11:59:48Z</time>
</trkpt>
<trkpt lat="49.25474541261792" lon="9.156446428969502">
<ele>142</ele>
<time>2024-05-08T11:59:49Z</time>
</trkpt>
<trkpt lat="49.25479117780924" lon="9.156444501131771">
<ele>142</ele>
<time>2024-05-08T11:59:50Z</time>
</trkpt>
<trkpt lat="49.25483702681959" lon="9.156444501131771">
<ele>142</ele>
<time>2024-05-08T11:59:51Z</time>
</trkpt>
<trkpt lat="49.2548827920109" lon="9.156444501131771">
<ele>142</ele>
<time>2024-05-08T11:59:52Z</time>
</trkpt>
<trkpt lat="49.25492855720222" lon="9.156444501131771">
<ele>142</ele>
<time>2024-05-08T11:59:53Z</time>
</trkpt>
<trkpt lat="49.254978178068995" lon="9.156441651284696">
<ele>142</ele>
<time>2024-05-08T11:59:55Z</time>
</trkpt>
<trkpt lat="49.25506970845163" lon="9.156439723446963">
<ele>142</ele>
<time>2024-05-08T11:59:57Z</time>
</trkpt>
<trkpt lat="49.25516123883426" lon="9.156437795609236">
<ele>142</ele>
<time>2024-05-08T11:59:58Z</time>
</trkpt>
<trkpt lat="49.25520700402558" lon="9.156437795609236">
<ele>142</ele>
<time>2024-05-08T11:59:59Z</time>
</trkpt>
<trkpt lat="49.255252769216895" lon="9.156441651284696">
<ele>142</ele>
<time>2024-05-08T12:00:01Z</time>
</trkpt>
<trkpt lat="49.255294762551785" lon="9.156441651284696">
<ele>142</ele>
<time>2024-05-08T12:00:02Z</time>
</trkpt>
<trkpt lat="49.25534438341856" lon="9.156444501131771">
<ele>142</ele>
<time>2024-05-08T12:00:03Z</time>
</trkpt>
<trkpt lat="49.25539014860988" lon="9.156446428969502">
<ele>141.8</ele>
<time>2024-05-08T12:00:04Z</time>
</trkpt>
<trkpt lat="49.25548553466797" lon="9.15645020082593">
<ele>141.6</ele>
<time>2024-05-08T12:00:05Z</time>
</trkpt>
<trkpt lat="49.25553507171571" lon="9.15645020082593">
<ele>141.6</ele>
<time>2024-05-08T12:00:07Z</time>
</trkpt>
<trkpt lat="49.255630457773805" lon="9.15645020082593">
<ele>141.2</ele>
<time>2024-05-08T12:00:08Z</time>
</trkpt>
<trkpt lat="49.25568007864058" lon="9.15645020082593">
<ele>141.2</ele>
<time>2024-05-08T12:00:09Z</time>
</trkpt>
<trkpt lat="49.2557258438319" lon="9.15645020082593">
<ele>141</ele>
<time>2024-05-08T12:00:10Z</time>
</trkpt>
<trkpt lat="49.25577160902321" lon="9.156448356807232">
<ele>141</ele>
<time>2024-05-08T12:00:11Z</time>
</trkpt>
<trkpt lat="49.25581351853907" lon="9.156446428969502">
<ele>141</ele>
<time>2024-05-08T12:00:12Z</time>
</trkpt>
<trkpt lat="49.25585936754942" lon="9.156448356807232">
<ele>140.8</ele>
<time>2024-05-08T12:00:13Z</time>
</trkpt>
<trkpt lat="49.25590127706528" lon="9.15645120665431">
<ele>140.8</ele>
<time>2024-05-08T12:00:14Z</time>
</trkpt>
<trkpt lat="49.25594327040017" lon="9.156453050673008">
<ele>140.8</ele>
<time>2024-05-08T12:00:15Z</time>
</trkpt>
<trkpt lat="49.255985179916024" lon="9.156456906348469">
<ele>140.8</ele>
<time>2024-05-08T12:00:16Z</time>
</trkpt>
<trkpt lat="49.256023401394486" lon="9.156457828357816">
<ele>140.6</ele>
<time>2024-05-08T12:00:17Z</time>
</trkpt>
<trkpt lat="49.256065310910344" lon="9.156457828357816">
<ele>140.6</ele>
<time>2024-05-08T12:00:18Z</time>
</trkpt>
<trkpt lat="49.25610730424523" lon="9.156457828357816">
<ele>140.6</ele>
<time>2024-05-08T12:00:19Z</time>
</trkpt>
<trkpt lat="49.25614921376109" lon="9.156454978510736">
<ele>140.8</ele>
<time>2024-05-08T12:00:20Z</time>
</trkpt>
<trkpt lat="49.25619506277144" lon="9.156446428969502">
<ele>140.8</ele>
<time>2024-05-08T12:00:21Z</time>
</trkpt>
<trkpt lat="49.25624082796275" lon="9.156437795609236">
<ele>140.8</ele>
<time>2024-05-08T12:00:22Z</time>
</trkpt>
<trkpt lat="49.25628659315407" lon="9.15643016807735">
<ele>140.8</ele>
<time>2024-05-08T12:00:23Z</time>
</trkpt>
<trkpt lat="49.25633235834539" lon="9.156419690698383">
<ele>140.8</ele>
<time>2024-05-08T12:00:25Z</time>
</trkpt>
<trkpt lat="49.25642388872802" lon="9.1563930362463">
<ele>141</ele>
<time>2024-05-08T12:00:26Z</time>
</trkpt>
<trkpt lat="49.25646965391934" lon="9.156378703191876">
<ele>141</ele>
<time>2024-05-08T12:00:28Z</time>
</trkpt>
<trkpt lat="49.25651550292969" lon="9.156361520290377">
<ele>141</ele>
<time>2024-05-08T12:00:29Z</time>
</trkpt>
<trkpt lat="49.25660317763686" lon="9.156319610774515">
<ele>141</ele>
<time>2024-05-08T12:00:30Z</time>
</trkpt>
<trkpt lat="49.25664517097175" lon="9.15629672817886">
<ele>141.2</ele>
<time>2024-05-08T12:00:31Z</time>
</trkpt>
<trkpt lat="49.25668330863118" lon="9.15627476759255">
<ele>141.2</ele>
<time>2024-05-08T12:00:32Z</time>
</trkpt>
<trkpt lat="49.2567290738225" lon="9.156249957159162">
<ele>141.2</ele>
<time>2024-05-08T12:00:34Z</time>
</trkpt>
<trkpt lat="49.256812976673245" lon="9.156205113977194">
<ele>141.2</ele>
<time>2024-05-08T12:00:36Z</time>
</trkpt>
<trkpt lat="49.256893107667565" lon="9.156161276623608">
<ele>141.4</ele>
<time>2024-05-08T12:00:38Z</time>
</trkpt>
<trkpt lat="49.256973238661885" lon="9.15611450560391">
<ele>141.6</ele>
<time>2024-05-08T12:00:39Z</time>
</trkpt>
<trkpt lat="49.25701137632131" lon="9.156089778989552">
<ele>141.6</ele>
<time>2024-05-08T12:00:40Z</time>
</trkpt>
<trkpt lat="49.257053369656205" lon="9.156064968556166">
<ele>141.6</ele>
<time>2024-05-08T12:00:41Z</time>
</trkpt>
<trkpt lat="49.25709150731563" lon="9.156038230285048">
<ele>141.8</ele>
<time>2024-05-08T12:00:42Z</time>
</trkpt>
<trkpt lat="49.25713341683149" lon="9.156011575832965">
<ele>141.8</ele>
<time>2024-05-08T12:00:44Z</time>
</trkpt>
<trkpt lat="49.257209775969386" lon="9.15595524944365">
<ele>141.8</ele>
<time>2024-05-08T12:00:45Z</time>
</trkpt>
<trkpt lat="49.25725168548525" lon="9.155922811478376">
<ele>141.8</ele>
<time>2024-05-08T12:00:46Z</time>
</trkpt>
<trkpt lat="49.257289823144674" lon="9.155891379341483">
<ele>141.8</ele>
<time>2024-05-08T12:00:47Z</time>
</trkpt>
<trkpt lat="49.257327960804105" lon="9.15585994720459">
<ele>141.8</ele>
<time>2024-05-08T12:00:48Z</time>
</trkpt>
<trkpt lat="49.257366098463535" lon="9.155830359086394">
<ele>141.8</ele>
<time>2024-05-08T12:00:49Z</time>
</trkpt>
<trkpt lat="49.25740046426654" lon="9.15579792112112">
<ele>141.8</ele>
<time>2024-05-08T12:00:50Z</time>
</trkpt>
<trkpt lat="49.25743483006954" lon="9.155764561146498">
<ele>141.8</ele>
<time>2024-05-08T12:00:51Z</time>
</trkpt>
<trkpt lat="49.25747296772897" lon="9.155730195343494">
<ele>141.8</ele>
<time>2024-05-08T12:00:53Z</time>
</trkpt>
<trkpt lat="49.257507249712944" lon="9.155696835368872">
<ele>141.8</ele>
<time>2024-05-08T12:00:54Z</time>
</trkpt>
<trkpt lat="49.25754924304783" lon="9.155666325241327">
<ele>141.8</ele>
<time>2024-05-08T12:00:55Z</time>
</trkpt>
<trkpt lat="49.25762174651027" lon="9.15560144931078">
<ele>141.8</ele>
<time>2024-05-08T12:00:56Z</time>
</trkpt>
<trkpt lat="49.2576598841697" lon="9.155568089336157">
<ele>141.8</ele>
<time>2024-05-08T12:00:57Z</time>
</trkpt>
<trkpt lat="49.257701793685555" lon="9.155534729361534">
<ele>141.8</ele>
<time>2024-05-08T12:00:59Z</time>
</trkpt>
<trkpt lat="49.25777815282345" lon="9.155469853430986">
<ele>141.8</ele>
<time>2024-05-08T12:01:00Z</time>
</trkpt>
<trkpt lat="49.25781629048288" lon="9.155436493456364">
<ele>141.8</ele>
<time>2024-05-08T12:01:02Z</time>
</trkpt>
<trkpt lat="49.257858199998736" lon="9.15540313348174">
<ele>141.8</ele>
<time>2024-05-08T12:01:03Z</time>
</trkpt>
<trkpt lat="49.257938330993056" lon="9.155343035236">
<ele>141.8</ele>
<time>2024-05-08T12:01:04Z</time>
</trkpt>
<trkpt lat="49.257980324327946" lon="9.155315374955537">
<ele>141.8</ele>
<time>2024-05-08T12:01:05Z</time>
</trkpt>
<trkpt lat="49.258018461987376" lon="9.155288636684418">
<ele>141.6</ele>
<time>2024-05-08T12:01:06Z</time>
</trkpt>
<trkpt lat="49.25806422717869" lon="9.15526290424168">
<ele>141.6</ele>
<time>2024-05-08T12:01:08Z</time>
</trkpt>
<trkpt lat="49.25810236483812" lon="9.155235243961217">
<ele>141.6</ele>
<time>2024-05-08T12:01:09Z</time>
</trkpt>
<trkpt lat="49.25818249583244" lon="9.155175145715477">
<ele>141.6</ele>
<time>2024-05-08T12:01:10Z</time>
</trkpt>
<trkpt lat="49.2582244053483" lon="9.155143713578582">
<ele>141.6</ele>
<time>2024-05-08T12:01:11Z</time>
</trkpt>
<trkpt lat="49.25826639868319" lon="9.155115047469735">
<ele>141.6</ele>
<time>2024-05-08T12:01:12Z</time>
</trkpt>
<trkpt lat="49.25830839201808" lon="9.15508453734219">
<ele>141.6</ele>
<time>2024-05-08T12:01:13Z</time>
</trkpt>
<trkpt lat="49.25835030153394" lon="9.155055033043029">
<ele>141.6</ele>
<time>2024-05-08T12:01:14Z</time>
</trkpt>
<trkpt lat="49.25839229486883" lon="9.155025444924831">
<ele>141.6</ele>
<time>2024-05-08T12:01:15Z</time>
</trkpt>
<trkpt lat="49.25842666067183" lon="9.154998706653714">
<ele>141.6</ele>
<time>2024-05-08T12:01:16Z</time>
</trkpt>
<trkpt lat="49.25846479833126" lon="9.154974902048709">
<ele>141.6</ele>
<time>2024-05-08T12:01:17Z</time>
</trkpt>
<trkpt lat="49.25850670784712" lon="9.15494816377759">
<ele>141.6</ele>
<time>2024-05-08T12:01:18Z</time>
</trkpt>
<trkpt lat="49.25854484550655" lon="9.154921509325504">
<ele>141.6</ele>
<time>2024-05-08T12:01:19Z</time>
</trkpt>
<trkpt lat="49.25857921130955" lon="9.154896698892117">
<ele>141.4</ele>
<time>2024-05-08T12:01:20Z</time>
</trkpt>
<trkpt lat="49.25861734896898" lon="9.154874738305807">
<ele>141.4</ele>
<time>2024-05-08T12:01:21Z</time>
</trkpt>
<trkpt lat="49.2586631141603" lon="9.15485286153853">
<ele>141.4</ele>
<time>2024-05-08T12:01:22Z</time>
</trkpt>
<trkpt lat="49.25870510749519" lon="9.154825201258063">
<ele>141.4</ele>
<time>2024-05-08T12:01:23Z</time>
</trkpt>
<trkpt lat="49.25874710083008" lon="9.15479469113052">
<ele>141.4</ele>
<time>2024-05-08T12:01:24Z</time>
</trkpt>
<trkpt lat="49.25878523848951" lon="9.154767030850053">
<ele>141.4</ele>
<time>2024-05-08T12:01:26Z</time>
</trkpt>
<trkpt lat="49.258869141340256" lon="9.154707854613662">
<ele>141.6</ele>
<time>2024-05-08T12:01:28Z</time>
</trkpt>
<trkpt lat="49.258907278999686" lon="9.154681200161576">
<ele>141.6</ele>
<time>2024-05-08T12:01:29Z</time>
</trkpt>
<trkpt lat="49.258949272334576" lon="9.154656389728189">
<ele>141.6</ele>
<time>2024-05-08T12:01:30Z</time>
</trkpt>
<trkpt lat="49.25903317518532" lon="9.154601991176603">
<ele>141.6</ele>
<time>2024-05-08T12:01:31Z</time>
</trkpt>
<trkpt lat="49.25907131284475" lon="9.15457340888679">
<ele>141.6</ele>
<time>2024-05-08T12:01:33Z</time>
</trkpt>
<trkpt lat="49.2591552156955" lon="9.15451523847878">
<ele>141.6</ele>
<time>2024-05-08T12:01:34Z</time>
</trkpt>
<trkpt lat="49.25919335335493" lon="9.154486656188965">
<ele>141.6</ele>
<time>2024-05-08T12:01:36Z</time>
</trkpt>
<trkpt lat="49.25927734002471" lon="9.154426557943223">
<ele>141.6</ele>
<time>2024-05-08T12:01:37Z</time>
</trkpt>
<trkpt lat="49.259323105216026" lon="9.15439696982503">
<ele>141.4</ele>
<time>2024-05-08T12:01:38Z</time>
</trkpt>
<trkpt lat="49.25936501473189" lon="9.154366459697483">
<ele>141.4</ele>
<time>2024-05-08T12:01:40Z</time>
</trkpt>
<trkpt lat="49.259403152391315" lon="9.15433687157929">
<ele>141.4</ele>
<time>2024-05-08T12:01:41Z</time>
</trkpt>
<trkpt lat="49.25949091091752" lon="9.15427870117128">
<ele>141.4</ele>
<time>2024-05-08T12:01:43Z</time>
</trkpt>
<trkpt lat="49.25957104191184" lon="9.154212903231382">
<ele>141.6</ele>
<time>2024-05-08T12:01:44Z</time>
</trkpt>
<trkpt lat="49.25961680710316" lon="9.15417669340968">
<ele>141.6</ele>
<time>2024-05-08T12:01:46Z</time>
</trkpt>
<trkpt lat="49.25965880043805" lon="9.154140399768949">
<ele>141.6</ele>
<time>2024-05-08T12:01:47Z</time>
</trkpt>
<trkpt lat="49.25974647514522" lon="9.154071751981974">
<ele>141.8</ele>
<time>2024-05-08T12:01:49Z</time>
</trkpt>
<trkpt lat="49.259838089346886" lon="9.154005032032728">
<ele>141.6</ele>
<time>2024-05-08T12:01:50Z</time>
</trkpt>
<trkpt lat="49.25987999886274" lon="9.153973516076803">
<ele>141.6</ele>
<time>2024-05-08T12:01:51Z</time>
</trkpt>
<trkpt lat="49.25992199219763" lon="9.153944933786988">
<ele>141.6</ele>
<time>2024-05-08T12:01:53Z</time>
</trkpt>
<trkpt lat="49.25996775738895" lon="9.15392205119133">
<ele>141.6</ele>
<time>2024-05-08T12:01:54Z</time>
</trkpt>
<trkpt lat="49.2600516602397" lon="9.153873436152937">
<ele>141.6</ele>
<time>2024-05-08T12:01:56Z</time>
</trkpt>
<trkpt lat="49.2601394187659" lon="9.153835214674473">
<ele>141.6</ele>
<time>2024-05-08T12:01:58Z</time>
</trkpt>
<trkpt lat="49.26018141210079" lon="9.153815265744925">
<ele>141.6</ele>
<time>2024-05-08T12:01:59Z</time>
</trkpt>
<trkpt lat="49.26026531495154" lon="9.153773272410035">
<ele>141.6</ele>
<time>2024-05-08T12:02:00Z</time>
</trkpt>
<trkpt lat="49.26030730828643" lon="9.153748461976647">
<ele>141.6</ele>
<time>2024-05-08T12:02:02Z</time>
</trkpt>
<trkpt lat="49.26034544594586" lon="9.153721807524562">
<ele>141.6</ele>
<time>2024-05-08T12:02:03Z</time>
</trkpt>
<trkpt lat="49.260414093732834" lon="9.153643604367971">
<ele>141.6</ele>
<time>2024-05-08T12:02:04Z</time>
</trkpt>
<trkpt lat="49.26044460386038" lon="9.153590127825735">
<ele>141.6</ele>
<time>2024-05-08T12:02:05Z</time>
</trkpt>
<trkpt lat="49.26046371459961" lon="9.153532963246109">
<ele>141.8</ele>
<time>2024-05-08T12:02:07Z</time>
</trkpt>
<trkpt lat="49.26050185225904" lon="9.153413772583008">
<ele>141.8</ele>
<time>2024-05-08T12:02:09Z</time>
</trkpt>
<trkpt lat="49.26052087917924" lon="9.153356524184346">
<ele>142</ele>
<time>2024-05-08T12:02:10Z</time>
</trkpt>
<trkpt lat="49.26054761745036" lon="9.153303131461143">
<ele>142</ele>
<time>2024-05-08T12:02:11Z</time>
</trkpt>
<trkpt lat="49.2605781275779" lon="9.153258288279176">
<ele>142</ele>
<time>2024-05-08T12:02:12Z</time>
</trkpt>
<trkpt lat="49.26061626523733" lon="9.153224928304551">
<ele>142</ele>
<time>2024-05-08T12:02:13Z</time>
</trkpt>
<trkpt lat="49.26065825857222" lon="9.153193412348628">
<ele>142</ele>
<time>2024-05-08T12:02:14Z</time>
</trkpt>
<trkpt lat="49.26069639623165" lon="9.153158124536276">
<ele>142</ele>
<time>2024-05-08T12:02:15Z</time>
</trkpt>
<trkpt lat="49.2607802990824" lon="9.153096182271838">
<ele>142</ele>
<time>2024-05-08T12:02:16Z</time>
</trkpt>
<trkpt lat="49.26082229241729" lon="9.153066594153644">
<ele>142</ele>
<time>2024-05-08T12:02:17Z</time>
</trkpt>
<trkpt lat="49.260864201933146" lon="9.153037006035447">
<ele>142</ele>
<time>2024-05-08T12:02:18Z</time>
</trkpt>
<trkpt lat="49.260906195268035" lon="9.153008423745632">
<ele>142.2</ele>
<time>2024-05-08T12:02:20Z</time>
</trkpt>
<trkpt lat="49.260944332927465" lon="9.152976907789707">
<ele>142.2</ele>
<time>2024-05-08T12:02:21Z</time>
</trkpt>
<trkpt lat="49.2610168363899" lon="9.152919743210076">
<ele>142</ele>
<time>2024-05-08T12:02:22Z</time>
</trkpt>
<trkpt lat="49.26104734651744" lon="9.15289493277669">
<ele>142</ele>
<time>2024-05-08T12:02:23Z</time>
</trkpt>
<trkpt lat="49.26107785664499" lon="9.152868194505572">
<ele>142</ele>
<time>2024-05-08T12:02:24Z</time>
</trkpt>
<trkpt lat="49.26110836677253" lon="9.152843467891216">
<ele>142</ele>
<time>2024-05-08T12:02:25Z</time>
</trkpt>
<trkpt lat="49.26113502122462" lon="9.152819579467176">
<ele>142</ele>
<time>2024-05-08T12:02:26Z</time>
</trkpt>
<trkpt lat="49.261161759495735" lon="9.15279669687152">
<ele>142</ele>
<time>2024-05-08T12:02:28Z</time>
</trkpt>
<trkpt lat="49.26119226962328" lon="9.152779513970016">
<ele>142.2</ele>
<time>2024-05-08T12:02:29Z</time>
</trkpt>
<trkpt lat="49.261222779750824" lon="9.152771886438131">
<ele>142.2</ele>
<time>2024-05-08T12:02:30Z</time>
</trkpt>
<trkpt lat="49.261260917410254" lon="9.152768114581704">
<ele>142.2</ele>
<time>2024-05-08T12:02:31Z</time>
</trkpt>
<trkpt lat="49.26133727654815" lon="9.152761409059169">
<ele>142.2</ele>
<time>2024-05-08T12:02:32Z</time>
</trkpt>
<trkpt lat="49.261379186064005" lon="9.152758559212089">
<ele>142.2</ele>
<time>2024-05-08T12:02:33Z</time>
</trkpt>
<trkpt lat="49.261421179398894" lon="9.152758559212089">
<ele>142.2</ele>
<time>2024-05-08T12:02:35Z</time>
</trkpt>
<trkpt lat="49.26146308891475" lon="9.15275470353663">
<ele>142.2</ele>
<time>2024-05-08T12:02:36Z</time>
</trkpt>
<trkpt lat="49.26150508224964" lon="9.152752859517932">
<ele>142.2</ele>
<time>2024-05-08T12:02:37Z</time>
</trkpt>
<trkpt lat="49.26154707558453" lon="9.152746153995396">
<ele>142.2</ele>
<time>2024-05-08T12:02:38Z</time>
</trkpt>
<trkpt lat="49.261634750291705" lon="9.152738526463509">
<ele>142</ele>
<time>2024-05-08T12:02:40Z</time>
</trkpt>
<trkpt lat="49.261676743626595" lon="9.152740454301238">
<ele>142</ele>
<time>2024-05-08T12:02:41Z</time>
</trkpt>
<trkpt lat="49.26176064647734" lon="9.152738526463509">
<ele>142</ele>
<time>2024-05-08T12:02:42Z</time>
</trkpt>
<trkpt lat="49.26180263981223" lon="9.152732826769352">
<ele>142</ele>
<time>2024-05-08T12:02:44Z</time>
</trkpt>
<trkpt lat="49.26187891513109" lon="9.152732826769352">
<ele>142</ele>
<time>2024-05-08T12:02:45Z</time>
</trkpt>
<trkpt lat="49.26191705279052" lon="9.152731820940971">
<ele>142.2</ele>
<time>2024-05-08T12:02:47Z</time>
</trkpt>
<trkpt lat="49.261993328109384" lon="9.152727127075195">
<ele>142.2</ele>
<time>2024-05-08T12:02:48Z</time>
</trkpt>
<trkpt lat="49.262031549587846" lon="9.152723271399736">
<ele>142.2</ele>
<time>2024-05-08T12:02:50Z</time>
</trkpt>
<trkpt lat="49.26210396923125" lon="9.152721343562009">
<ele>142.2</ele>
<time>2024-05-08T12:02:51Z</time>
</trkpt>
<trkpt lat="49.26213833503425" lon="9.152720421552658">
<ele>142.2</ele>
<time>2024-05-08T12:02:53Z</time>
</trkpt>
<trkpt lat="49.262206982821226" lon="9.152725199237466">
<ele>142.4</ele>
<time>2024-05-08T12:02:55Z</time>
</trkpt>
<trkpt lat="49.262248976156116" lon="9.152727127075195">
<ele>142.6</ele>
<time>2024-05-08T12:02:56Z</time>
</trkpt>
<trkpt lat="49.262344278395176" lon="9.152718493714929">
<ele>142.8</ele>
<time>2024-05-08T12:02:58Z</time>
</trkpt>
<trkpt lat="49.26239012740552" lon="9.152711788192391">
<ele>143</ele>
<time>2024-05-08T12:02:59Z</time>
</trkpt>
<trkpt lat="49.26248165778816" lon="9.152689911425114">
<ele>143</ele>
<time>2024-05-08T12:03:01Z</time>
</trkpt>
<trkpt lat="49.262565560638905" lon="9.15264129638672">
<ele>142.8</ele>
<time>2024-05-08T12:03:03Z</time>
</trkpt>
<trkpt lat="49.26259992644191" lon="9.152611708268523">
<ele>142.6</ele>
<time>2024-05-08T12:03:04Z</time>
</trkpt>
<trkpt lat="49.26263420842588" lon="9.152580192312598">
<ele>142.6</ele>
<time>2024-05-08T12:03:05Z</time>
</trkpt>
<trkpt lat="49.26266857422888" lon="9.152546832337976">
<ele>142.4</ele>
<time>2024-05-08T12:03:06Z</time>
</trkpt>
<trkpt lat="49.26269908435643" lon="9.152515400201082">
<ele>142.4</ele>
<time>2024-05-08T12:03:07Z</time>
</trkpt>
<trkpt lat="49.26273345015943" lon="9.15248011238873">
<ele>142.4</ele>
<time>2024-05-08T12:03:08Z</time>
</trkpt>
<trkpt lat="49.2627677321434" lon="9.152444824576378">
<ele>142.4</ele>
<time>2024-05-08T12:03:09Z</time>
</trkpt>
<trkpt lat="49.26282875239849" lon="9.152371399104595">
<ele>142.2</ele>
<time>2024-05-08T12:03:11Z</time>
</trkpt>
<trkpt lat="49.26288985647261" lon="9.152313228696585">
<ele>141.8</ele>
<time>2024-05-08T12:03:12Z</time>
</trkpt>
<trkpt lat="49.26292036660016" lon="9.152288418263195">
<ele>141.8</ele>
<time>2024-05-08T12:03:14Z</time>
</trkpt>
<trkpt lat="49.26298901438713" lon="9.152236869558692">
<ele>141.8</ele>
<time>2024-05-08T12:03:15Z</time>
</trkpt>
<trkpt lat="49.26302715204656" lon="9.152213064953685">
<ele>142</ele>
<time>2024-05-08T12:03:17Z</time>
</trkpt>
<trkpt lat="49.263061517849565" lon="9.152194960042834">
<ele>142</ele>
<time>2024-05-08T12:03:18Z</time>
</trkpt>
<trkpt lat="49.263095799833536" lon="9.152174927294254">
<ele>142</ele>
<time>2024-05-08T12:03:19Z</time>
</trkpt>
<trkpt lat="49.26313016563654" lon="9.152150116860868">
<ele>142</ele>
<time>2024-05-08T12:03:20Z</time>
</trkpt>
<trkpt lat="49.26319118589163" lon="9.15210334584117">
<ele>142</ele>
<time>2024-05-08T12:03:22Z</time>
</trkpt>
<trkpt lat="49.26322555169463" lon="9.152074763551354">
<ele>142</ele>
<time>2024-05-08T12:03:23Z</time>
</trkpt>
<trkpt lat="49.2632598336786" lon="9.15204618126154">
<ele>141.8</ele>
<time>2024-05-08T12:03:24Z</time>
</trkpt>
<trkpt lat="49.263297971338034" lon="9.152021370828152">
<ele>141.8</ele>
<time>2024-05-08T12:03:25Z</time>
</trkpt>
<trkpt lat="49.263378102332354" lon="9.151967978104947">
<ele>141.8</ele>
<time>2024-05-08T12:03:27Z</time>
</trkpt>
<trkpt lat="49.2634620051831" lon="9.151914585381746">
<ele>141.4</ele>
<time>2024-05-08T12:03:28Z</time>
</trkpt>
<trkpt lat="49.26350399851799" lon="9.15188977494836">
<ele>141.4</ele>
<time>2024-05-08T12:03:29Z</time>
</trkpt>
<trkpt lat="49.26354590803385" lon="9.151861108839512">
<ele>141.4</ele>
<time>2024-05-08T12:03:31Z</time>
</trkpt>
<trkpt lat="49.26362989470363" lon="9.151802016422153">
<ele>141.2</ele>
<time>2024-05-08T12:03:32Z</time>
</trkpt>
<trkpt lat="49.26366803236306" lon="9.151773434132338">
<ele>141.2</ele>
<time>2024-05-08T12:03:33Z</time>
</trkpt>
<trkpt lat="49.263709941878915" lon="9.15174669586122">
<ele>141.2</ele>
<time>2024-05-08T12:03:34Z</time>
</trkpt>
<trkpt lat="49.26375193521381" lon="9.151720041409137">
<ele>141.2</ele>
<time>2024-05-08T12:03:36Z</time>
</trkpt>
<trkpt lat="49.26383206620813" lon="9.1516665648669">
<ele>141.2</ele>
<time>2024-05-08T12:03:37Z</time>
</trkpt>
<trkpt lat="49.26387397572398" lon="9.151641838252544">
<ele>141.2</ele>
<time>2024-05-08T12:03:38Z</time>
</trkpt>
<trkpt lat="49.26391596905887" lon="9.151617027819157">
<ele>141.2</ele>
<time>2024-05-08T12:03:39Z</time>
</trkpt>
<trkpt lat="49.2639541067183" lon="9.15159028954804">
<ele>141.2</ele>
<time>2024-05-08T12:03:40Z</time>
</trkpt>
<trkpt lat="49.26399610005319" lon="9.151563635095954">
<ele>141.2</ele>
<time>2024-05-08T12:03:41Z</time>
</trkpt>
<trkpt lat="49.26403800956905" lon="9.15153312496841">
<ele>141.2</ele>
<time>2024-05-08T12:03:42Z</time>
</trkpt>
<trkpt lat="49.26407623104751" lon="9.151503536850214">
<ele>141.2</ele>
<time>2024-05-08T12:03:44Z</time>
</trkpt>
<trkpt lat="49.26411814056337" lon="9.151474870741367">
<ele>141.2</ele>
<time>2024-05-08T12:03:45Z</time>
</trkpt>
<trkpt lat="49.26420204341411" lon="9.151421478018165">
<ele>141.2</ele>
<time>2024-05-08T12:03:46Z</time>
</trkpt>
<trkpt lat="49.26424026489258" lon="9.151391973719">
<ele>141.2</ele>
<time>2024-05-08T12:03:47Z</time>
</trkpt>
<trkpt lat="49.26428217440843" lon="9.151365235447884">
<ele>141.2</ele>
<time>2024-05-08T12:03:49Z</time>
</trkpt>
<trkpt lat="49.2643584497273" lon="9.15131377056241">
<ele>141.2</ele>
<time>2024-05-08T12:03:50Z</time>
</trkpt>
<trkpt lat="49.26439658738673" lon="9.151287954300642">
<ele>141.2</ele>
<time>2024-05-08T12:03:52Z</time>
</trkpt>
<trkpt lat="49.26447671838105" lon="9.151226934045551">
<ele>141.2</ele>
<time>2024-05-08T12:03:53Z</time>
</trkpt>
<trkpt lat="49.26451485604048" lon="9.15119357407093">
<ele>141.2</ele>
<time>2024-05-08T12:03:55Z</time>
</trkpt>
<trkpt lat="49.2645949870348" lon="9.151120148599148">
<ele>141.2</ele>
<time>2024-05-08T12:03:56Z</time>
</trkpt>
<trkpt lat="49.26463312469423" lon="9.151084860786796">
<ele>141.2</ele>
<time>2024-05-08T12:03:57Z</time>
</trkpt>
<trkpt lat="49.26467126235366" lon="9.151051500812171">
<ele>141.2</ele>
<time>2024-05-08T12:03:59Z</time>
</trkpt>
<trkpt lat="49.26475139334798" lon="9.150983775034549">
<ele>141.4</ele>
<time>2024-05-08T12:04:00Z</time>
</trkpt>
<trkpt lat="49.26479338668287" lon="9.150950415059924">
<ele>141.4</ele>
<time>2024-05-08T12:04:02Z</time>
</trkpt>
<trkpt lat="49.26487343385816" lon="9.150886461138724">
<ele>141.4</ele>
<time>2024-05-08T12:04:03Z</time>
</trkpt>
<trkpt lat="49.26491157151759" lon="9.150853101164104">
<ele>141.2</ele>
<time>2024-05-08T12:04:05Z</time>
</trkpt>
<trkpt lat="49.26498793065548" lon="9.150786381214855">
<ele>141.2</ele>
<time>2024-05-08T12:04:07Z</time>
</trkpt>
<trkpt lat="49.26506420597434" lon="9.15071957744658">
<ele>141.2</ele>
<time>2024-05-08T12:04:08Z</time>
</trkpt>
<trkpt lat="49.26510234363377" lon="9.150690073147416">
<ele>141.2</ele>
<time>2024-05-08T12:04:09Z</time>
</trkpt>
<trkpt lat="49.26514433696866" lon="9.15065947920084">
<ele>141.2</ele>
<time>2024-05-08T12:04:10Z</time>
</trkpt>
<trkpt lat="49.26518624648452" lon="9.150629974901676">
<ele>141.2</ele>
<time>2024-05-08T12:04:11Z</time>
</trkpt>
<trkpt lat="49.26522438414395" lon="9.150598458945751">
<ele>141.2</ele>
<time>2024-05-08T12:04:12Z</time>
</trkpt>
<trkpt lat="49.26526252180338" lon="9.150567948818209">
<ele>141.4</ele>
<time>2024-05-08T12:04:13Z</time>
</trkpt>
<trkpt lat="49.26530451513827" lon="9.150536516681314">
<ele>141.4</ele>
<time>2024-05-08T12:04:14Z</time>
</trkpt>
<trkpt lat="49.2653426527977" lon="9.150506928563118">
<ele>141.6</ele>
<time>2024-05-08T12:04:16Z</time>
</trkpt>
<trkpt lat="49.26541892811656" lon="9.150446830317378">
<ele>141.6</ele>
<time>2024-05-08T12:04:18Z</time>
</trkpt>
<trkpt lat="49.26545714959502" lon="9.15042201988399">
<ele>141.6</ele>
<time>2024-05-08T12:04:19Z</time>
</trkpt>
<trkpt lat="49.2655448243022" lon="9.150378182530403">
<ele>141.6</ele>
<time>2024-05-08T12:04:20Z</time>
</trkpt>
<trkpt lat="49.265586817637086" lon="9.150360077619553">
<ele>141.6</ele>
<time>2024-05-08T12:04:21Z</time>
</trkpt>
<trkpt lat="49.265628810971975" lon="9.150342894718053">
<ele>141.6</ele>
<time>2024-05-08T12:04:23Z</time>
</trkpt>
<trkpt lat="49.26571648567915" lon="9.150315234437585">
<ele>141.4</ele>
<time>2024-05-08T12:04:25Z</time>
</trkpt>
<trkpt lat="49.265808099880815" lon="9.150293273851275">
<ele>141.4</ele>
<time>2024-05-08T12:04:27Z</time>
</trkpt>
<trkpt lat="49.26589577458799" lon="9.150275168940423">
<ele>141.2</ele>
<time>2024-05-08T12:04:29Z</time>
</trkpt>
<trkpt lat="49.265983533114195" lon="9.150255136191843">
<ele>141.2</ele>
<time>2024-05-08T12:04:30Z</time>
</trkpt>
<trkpt lat="49.26602552644909" lon="9.150243736803532">
<ele>141.2</ele>
<time>2024-05-08T12:04:31Z</time>
</trkpt>
<trkpt lat="49.2660712916404" lon="9.150233259424567">
<ele>141.2</ele>
<time>2024-05-08T12:04:32Z</time>
</trkpt>
<trkpt lat="49.26611320115626" lon="9.150223704054952">
<ele>141.2</ele>
<time>2024-05-08T12:04:33Z</time>
</trkpt>
<trkpt lat="49.26615519449115" lon="9.150213226675987">
<ele>141.2</ele>
<time>2024-05-08T12:04:34Z</time>
</trkpt>
<trkpt lat="49.266200959682465" lon="9.150201743468642">
<ele>141.2</ele>
<time>2024-05-08T12:04:35Z</time>
</trkpt>
<trkpt lat="49.26624672487378" lon="9.1501884162426">
<ele>141.2</ele>
<time>2024-05-08T12:04:36Z</time>
</trkpt>
<trkpt lat="49.2662924900651" lon="9.150176933035254">
<ele>141.2</ele>
<time>2024-05-08T12:04:37Z</time>
</trkpt>
<trkpt lat="49.266338339075446" lon="9.150161677971482">
<ele>141.2</ele>
<time>2024-05-08T12:04:38Z</time>
</trkpt>
<trkpt lat="49.266380248591304" lon="9.15014449506998">
<ele>141.4</ele>
<time>2024-05-08T12:04:40Z</time>
</trkpt>
<trkpt lat="49.26642224192619" lon="9.150121612474322">
<ele>141.4</ele>
<time>2024-05-08T12:04:41Z</time>
</trkpt>
<trkpt lat="49.2665100004524" lon="9.150072997435927">
<ele>141.6</ele>
<time>2024-05-08T12:04:42Z</time>
</trkpt>
<trkpt lat="49.26654813811183" lon="9.15004818700254">
<ele>141.8</ele>
<time>2024-05-08T12:04:44Z</time>
</trkpt>
<trkpt lat="49.26663581281901" lon="9.149996722117066">
<ele>141.8</ele>
<time>2024-05-08T12:04:45Z</time>
</trkpt>
<trkpt lat="49.26668166182935" lon="9.14996998384595">
<ele>142</ele>
<time>2024-05-08T12:04:46Z</time>
</trkpt>
<trkpt lat="49.26672357134521" lon="9.149945257231591">
<ele>142</ele>
<time>2024-05-08T12:04:48Z</time>
</trkpt>
<trkpt lat="49.26676170900464" lon="9.149918518960476">
<ele>141.8</ele>
<time>2024-05-08T12:04:49Z</time>
</trkpt>
<trkpt lat="49.26680370233953" lon="9.14988993667066">
<ele>141.8</ele>
<time>2024-05-08T12:04:50Z</time>
</trkpt>
<trkpt lat="49.26688383333385" lon="9.149834616109729">
<ele>141.6</ele>
<time>2024-05-08T12:04:51Z</time>
</trkpt>
<trkpt lat="49.26692574284971" lon="9.149807877838612">
<ele>141.6</ele>
<time>2024-05-08T12:04:52Z</time>
</trkpt>
<trkpt lat="49.26696388050914" lon="9.149783067405224">
<ele>141.4</ele>
<time>2024-05-08T12:04:54Z</time>
</trkpt>
<trkpt lat="49.26700587384403" lon="9.149756412953138">
<ele>141.4</ele>
<time>2024-05-08T12:04:55Z</time>
</trkpt>
<trkpt lat="49.26708600483835" lon="9.149703020229936">
<ele>141.2</ele>
<time>2024-05-08T12:04:56Z</time>
</trkpt>
<trkpt lat="49.267127914354205" lon="9.149681981652977">
<ele>141.2</ele>
<time>2024-05-08T12:04:57Z</time>
</trkpt>
<trkpt lat="49.26717376336455" lon="9.149658177047968">
<ele>141.2</ele>
<time>2024-05-08T12:04:58Z</time>
</trkpt>
<trkpt lat="49.26721952855587" lon="9.149636216461658">
<ele>141</ele>
<time>2024-05-08T12:04:59Z</time>
</trkpt>
<trkpt lat="49.26726143807173" lon="9.14961526170373">
<ele>141</ele>
<time>2024-05-08T12:05:00Z</time>
</trkpt>
<trkpt lat="49.26730343140662" lon="9.14959137327969">
<ele>141</ele>
<time>2024-05-08T12:05:02Z</time>
</trkpt>
<trkpt lat="49.26739118993282" lon="9.149546613916756">
<ele>141</ele>
<time>2024-05-08T12:05:03Z</time>
</trkpt>
<trkpt lat="49.26743309944868" lon="9.149524653330444">
<ele>141</ele>
<time>2024-05-08T12:05:04Z</time>
</trkpt>
<trkpt lat="49.26747509278357" lon="9.149503698572516">
<ele>141</ele>
<time>2024-05-08T12:05:06Z</time>
</trkpt>
<trkpt lat="49.2675666231662" lon="9.149461705237629">
<ele>141</ele>
<time>2024-05-08T12:05:07Z</time>
</trkpt>
<trkpt lat="49.26760861650109" lon="9.149441672489049">
<ele>141</ele>
<time>2024-05-08T12:05:09Z</time>
</trkpt>
<trkpt lat="49.26769251935184" lon="9.149403534829617">
<ele>141</ele>
<time>2024-05-08T12:05:10Z</time>
</trkpt>
<trkpt lat="49.26773451268673" lon="9.149385429918766">
<ele>141</ele>
<time>2024-05-08T12:05:12Z</time>
</trkpt>
<trkpt lat="49.26777642220259" lon="9.149366319179537">
<ele>141</ele>
<time>2024-05-08T12:05:13Z</time>
</trkpt>
<trkpt lat="49.267860408872366" lon="9.149325331673026">
<ele>141.2</ele>
<time>2024-05-08T12:05:14Z</time>
</trkpt>
<trkpt lat="49.2678985465318" lon="9.14929959923029">
<ele>141.2</ele>
<time>2024-05-08T12:05:15Z</time>
</trkpt>
<trkpt lat="49.267940456047654" lon="9.149272860959172">
<ele>141.2</ele>
<time>2024-05-08T12:05:17Z</time>
</trkpt>
<trkpt lat="49.268020587041974" lon="9.149216618388891">
<ele>141.2</ele>
<time>2024-05-08T12:05:18Z</time>
</trkpt>
<trkpt lat="49.26806258037686" lon="9.149187030270696">
<ele>141.2</ele>
<time>2024-05-08T12:05:20Z</time>
</trkpt>
<trkpt lat="49.26814262755215" lon="9.149125088006258">
<ele>141.2</ele>
<time>2024-05-08T12:05:22Z</time>
</trkpt>
<trkpt lat="49.268215131014585" lon="9.149073539301751">
<ele>141.2</ele>
<time>2024-05-08T12:05:24Z</time>
</trkpt>
<trkpt lat="49.26829140633345" lon="9.149044957011938">
<ele>141.2</ele>
<time>2024-05-08T12:05:26Z</time>
</trkpt>
<trkpt lat="49.26836013793945" lon="9.149049734696746">
<ele>141.2</ele>
<time>2024-05-08T12:05:27Z</time>
</trkpt>
<trkpt lat="49.26839827559888" lon="9.14904210716486">
<ele>141.2</ele>
<time>2024-05-08T12:05:29Z</time>
</trkpt>
<trkpt lat="49.2684630677104" lon="9.14902014657855">
<ele>141.2</ele>
<time>2024-05-08T12:05:30Z</time>
</trkpt>
<trkpt lat="49.268493577837944" lon="9.149015368893744">
<ele>141.2</ele>
<time>2024-05-08T12:05:32Z</time>
</trkpt>
<trkpt lat="49.26856230944395" lon="9.149004891514778">
<ele>141.4</ele>
<time>2024-05-08T12:05:33Z</time>
</trkpt>
<trkpt lat="49.26860044710338" lon="9.148996341973543">
<ele>141.6</ele>
<time>2024-05-08T12:05:34Z</time>
</trkpt>
<trkpt lat="49.26864235661924" lon="9.148984858766198">
<ele>141.8</ele>
<time>2024-05-08T12:05:35Z</time>
</trkpt>
<trkpt lat="49.268688121810555" lon="9.148971531540155">
<ele>142</ele>
<time>2024-05-08T12:05:36Z</time>
</trkpt>
<trkpt lat="49.268733970820904" lon="9.14896004833281">
<ele>142</ele>
<time>2024-05-08T12:05:38Z</time>
</trkpt>
<trkpt lat="49.26883312873542" lon="9.148938171565533">
<ele>142.2</ele>
<time>2024-05-08T12:05:39Z</time>
</trkpt>
<trkpt lat="49.268886521458626" lon="9.148924760520458">
<ele>142.4</ele>
<time>2024-05-08T12:05:41Z</time>
</trkpt>
<trkpt lat="49.26899330690503" lon="9.148893328383563">
<ele>142.4</ele>
<time>2024-05-08T12:05:42Z</time>
</trkpt>
<trkpt lat="49.269046783447266" lon="9.148873295634983">
<ele>142.4</ele>
<time>2024-05-08T12:05:43Z</time>
</trkpt>
<trkpt lat="49.26910017617047" lon="9.148857034742832">
<ele>142.4</ele>
<time>2024-05-08T12:05:45Z</time>
</trkpt>
<trkpt lat="49.26915356889367" lon="9.14884370751679">
<ele>142.4</ele>
<time>2024-05-08T12:05:46Z</time>
</trkpt>
<trkpt lat="49.269206961616874" lon="9.148830380290748">
<ele>142.2</ele>
<time>2024-05-08T12:05:47Z</time>
</trkpt>
<trkpt lat="49.26930997520685" lon="9.148799870163202">
<ele>142</ele>
<time>2024-05-08T12:05:48Z</time>
</trkpt>
<trkpt lat="49.26935951225459" lon="9.14878360927105">
<ele>142</ele>
<time>2024-05-08T12:05:50Z</time>
</trkpt>
<trkpt lat="49.269405361264944" lon="9.148770282045009">
<ele>142</ele>
<time>2024-05-08T12:05:51Z</time>
</trkpt>
<trkpt lat="49.269500663504" lon="9.14874362759292">
<ele>141.8</ele>
<time>2024-05-08T12:05:52Z</time>
</trkpt>
<trkpt lat="49.26955028437078" lon="9.148730216547849">
<ele>141.8</ele>
<time>2024-05-08T12:05:53Z</time>
</trkpt>
<trkpt lat="49.269599905237556" lon="9.148717811331151">
<ele>141.6</ele>
<time>2024-05-08T12:05:54Z</time>
</trkpt>
<trkpt lat="49.26964567042887" lon="9.14870641194284">
<ele>141.6</ele>
<time>2024-05-08T12:05:55Z</time>
</trkpt>
<trkpt lat="49.269695207476616" lon="9.148693084716797">
<ele>141.6</ele>
<time>2024-05-08T12:05:57Z</time>
</trkpt>
<trkpt lat="49.26979444921017" lon="9.148670118302109">
<ele>141.6</ele>
<time>2024-05-08T12:05:59Z</time>
</trkpt>
<trkpt lat="49.269893607124686" lon="9.14865016937256">
<ele>141.6</ele>
<time>2024-05-08T12:06:01Z</time>
</trkpt>
<trkpt lat="49.26994322799146" lon="9.148639608174562">
<ele>141.4</ele>
<time>2024-05-08T12:06:02Z</time>
</trkpt>
<trkpt lat="49.27004615776241" lon="9.14862820878625">
<ele>141.4</ele>
<time>2024-05-08T12:06:03Z</time>
</trkpt>
<trkpt lat="49.270095778629184" lon="9.14862343110144">
<ele>141.4</ele>
<time>2024-05-08T12:06:04Z</time>
</trkpt>
<trkpt lat="49.27014539949596" lon="9.148618653416634">
<ele>141.4</ele>
<time>2024-05-08T12:06:05Z</time>
</trkpt>
<trkpt lat="49.2701949365437" lon="9.1486101038754">
<ele>141.4</ele>
<time>2024-05-08T12:06:06Z</time>
</trkpt>
<trkpt lat="49.27024070173502" lon="9.14860532619059">
<ele>141.4</ele>
<time>2024-05-08T12:06:07Z</time>
</trkpt>
<trkpt lat="49.270290322601795" lon="9.148601470515132">
<ele>141.4</ele>
<time>2024-05-08T12:06:08Z</time>
</trkpt>
<trkpt lat="49.27033994346857" lon="9.148599542677402">
<ele>141.4</ele>
<time>2024-05-08T12:06:09Z</time>
</trkpt>
<trkpt lat="49.27038570865989" lon="9.148599542677402">
<ele>141.4</ele>
<time>2024-05-08T12:06:10Z</time>
</trkpt>
<trkpt lat="49.27043532952666" lon="9.148598620668054">
<ele>141.4</ele>
<time>2024-05-08T12:06:11Z</time>
</trkpt>
<trkpt lat="49.27048486657441" lon="9.148594848811626">
<ele>141.4</ele>
<time>2024-05-08T12:06:12Z</time>
</trkpt>
<trkpt lat="49.27053063176572" lon="9.148596692830324">
<ele>141.4</ele>
<time>2024-05-08T12:06:14Z</time>
</trkpt>
<trkpt lat="49.270626017823815" lon="9.148601470515132">
<ele>141.4</ele>
<time>2024-05-08T12:06:15Z</time>
</trkpt>
<trkpt lat="49.27067178301513" lon="9.14860339835286">
<ele>141.4</ele>
<time>2024-05-08T12:06:16Z</time>
</trkpt>
<trkpt lat="49.27071754820645" lon="9.14860817603767">
<ele>141.4</ele>
<time>2024-05-08T12:06:17Z</time>
</trkpt>
<trkpt lat="49.2707633972168" lon="9.148614881560206">
<ele>141.2</ele>
<time>2024-05-08T12:06:18Z</time>
</trkpt>
<trkpt lat="49.27081293426454" lon="9.148619575425982">
<ele>141.2</ele>
<time>2024-05-08T12:06:20Z</time>
</trkpt>
<trkpt lat="49.27090832032263" lon="9.148632986471055">
<ele>141.2</ele>
<time>2024-05-08T12:06:22Z</time>
</trkpt>
<trkpt lat="49.27095794118941" lon="9.148639608174562">
<ele>141.2</ele>
<time>2024-05-08T12:06:23Z</time>
</trkpt>
<trkpt lat="49.27105324342847" lon="9.148652013391256">
<ele>141</ele>
<time>2024-05-08T12:06:24Z</time>
</trkpt>
<trkpt lat="49.27110286429525" lon="9.148656791076064">
<ele>141</ele>
<time>2024-05-08T12:06:26Z</time>
</trkpt>
<trkpt lat="49.27115248516202" lon="9.148656791076064">
<ele>140.8</ele>
<time>2024-05-08T12:06:27Z</time>
</trkpt>
<trkpt lat="49.271198250353336" lon="9.148654863238336">
<ele>140.8</ele>
<time>2024-05-08T12:06:28Z</time>
</trkpt>
<trkpt lat="49.27124401554465" lon="9.148658718913794">
<ele>140.8</ele>
<time>2024-05-08T12:06:29Z</time>
</trkpt>
<trkpt lat="49.27128978073597" lon="9.14866634644568">
<ele>140.8</ele>
<time>2024-05-08T12:06:30Z</time>
</trkpt>
<trkpt lat="49.271335545927286" lon="9.148674895986916">
<ele>140.8</ele>
<time>2024-05-08T12:06:31Z</time>
</trkpt>
<trkpt lat="49.27142707630992" lon="9.148696856573224">
<ele>140.6</ele>
<time>2024-05-08T12:06:33Z</time>
</trkpt>
<trkpt lat="49.27147292532027" lon="9.148708339780567">
<ele>140.6</ele>
<time>2024-05-08T12:06:34Z</time>
</trkpt>
<trkpt lat="49.2715644557029" lon="9.148733066394923">
<ele>140.6</ele>
<time>2024-05-08T12:06:35Z</time>
</trkpt>
<trkpt lat="49.27161022089422" lon="9.14874647744">
<ele>140.6</ele>
<time>2024-05-08T12:06:37Z</time>
</trkpt>
<trkpt lat="49.27165984176099" lon="9.148761732503772">
<ele>140.6</ele>
<time>2024-05-08T12:06:38Z</time>
</trkpt>
<trkpt lat="49.27170560695231" lon="9.148779837414622">
<ele>140.6</ele>
<time>2024-05-08T12:06:39Z</time>
</trkpt>
<trkpt lat="49.27179336547851" lon="9.148819902911782">
<ele>140.6</ele>
<time>2024-05-08T12:06:41Z</time>
</trkpt>
<trkpt lat="49.27183913066983" lon="9.148835157975554">
<ele>140.6</ele>
<time>2024-05-08T12:06:42Z</time>
</trkpt>
<trkpt lat="49.27188489586115" lon="9.148850413039328">
<ele>140.6</ele>
<time>2024-05-08T12:06:43Z</time>
</trkpt>
<trkpt lat="49.27193443290889" lon="9.148868517950175">
<ele>140.6</ele>
<time>2024-05-08T12:06:44Z</time>
</trkpt>
<trkpt lat="49.27198028191924" lon="9.148886622861028">
<ele>140.6</ele>
<time>2024-05-08T12:06:45Z</time>
</trkpt>
<trkpt lat="49.2720221914351" lon="9.148904727771878">
<ele>140.6</ele>
<time>2024-05-08T12:06:46Z</time>
</trkpt>
<trkpt lat="49.27211372181773" lon="9.14894001558423">
<ele>140.6</ele>
<time>2024-05-08T12:06:48Z</time>
</trkpt>
<trkpt lat="49.2722053360194" lon="9.14898200891912">
<ele>140.6</ele>
<time>2024-05-08T12:06:49Z</time>
</trkpt>
<trkpt lat="49.272247245535254" lon="9.149002963677049">
<ele>140.6</ele>
<time>2024-05-08T12:06:50Z</time>
</trkpt>
<trkpt lat="49.27229301072657" lon="9.149024924263358">
<ele>140.6</ele>
<time>2024-05-08T12:06:51Z</time>
</trkpt>
<trkpt lat="49.27233500406146" lon="9.149044957011938">
<ele>140.6</ele>
<time>2024-05-08T12:06:52Z</time>
</trkpt>
<trkpt lat="49.27238076925278" lon="9.149066917598248">
<ele>140.6</ele>
<time>2024-05-08T12:06:53Z</time>
</trkpt>
<trkpt lat="49.272426534444094" lon="9.149087872356176">
<ele>140.6</ele>
<time>2024-05-08T12:06:54Z</time>
</trkpt>
<trkpt lat="49.27247229963541" lon="9.149109832942486">
<ele>140.6</ele>
<time>2024-05-08T12:06:55Z</time>
</trkpt>
<trkpt lat="49.27251814864576" lon="9.149133637547491">
<ele>140.6</ele>
<time>2024-05-08T12:06:56Z</time>
</trkpt>
<trkpt lat="49.272563913837075" lon="9.149153670296071">
<ele>140.6</ele>
<time>2024-05-08T12:06:58Z</time>
</trkpt>
<trkpt lat="49.27265167236328" lon="9.149196585640311">
<ele>140.6</ele>
<time>2024-05-08T12:06:59Z</time>
</trkpt>
<trkpt lat="49.27269358187914" lon="9.149216618388891">
<ele>140.6</ele>
<time>2024-05-08T12:07:00Z</time>
</trkpt>
<trkpt lat="49.27273557521403" lon="9.1492385789752">
<ele>140.6</ele>
<time>2024-05-08T12:07:01Z</time>
</trkpt>
<trkpt lat="49.272781340405345" lon="9.14925861172378">
<ele>140.6</ele>
<time>2024-05-08T12:07:03Z</time>
</trkpt>
<trkpt lat="49.27286909893155" lon="9.149298593401909">
<ele>140.6</ele>
<time>2024-05-08T12:07:05Z</time>
</trkpt>
<trkpt lat="49.2729530017823" lon="9.149334887042642">
<ele>140.6</ele>
<time>2024-05-08T12:07:07Z</time>
</trkpt>
<trkpt lat="49.27299499511719" lon="9.149350142106414">
<ele>140.6</ele>
<time>2024-05-08T12:07:08Z</time>
</trkpt>
<trkpt lat="49.27308266982436" lon="9.149368247017264">
<ele>140.6</ele>
<time>2024-05-08T12:07:10Z</time>
</trkpt>
<trkpt lat="49.27316665649414" lon="9.149398757144809">
<ele>140.6</ele>
<time>2024-05-08T12:07:12Z</time>
</trkpt>
<trkpt lat="49.273254331201315" lon="9.14943790063262">
<ele>140.6</ele>
<time>2024-05-08T12:07:13Z</time>
</trkpt>
<trkpt lat="49.27329632453621" lon="9.149457849562168">
<ele>140.6</ele>
<time>2024-05-08T12:07:14Z</time>
</trkpt>
<trkpt lat="49.273338317871094" lon="9.149477882310748">
<ele>140.6</ele>
<time>2024-05-08T12:07:15Z</time>
</trkpt>
<trkpt lat="49.27338022738695" lon="9.149499842897058">
<ele>140.6</ele>
<time>2024-05-08T12:07:16Z</time>
</trkpt>
<trkpt lat="49.27342222072184" lon="9.149524653330444">
<ele>140.6</ele>
<time>2024-05-08T12:07:17Z</time>
</trkpt>
<trkpt lat="49.2734641302377" lon="9.149558013305068">
<ele>140.6</ele>
<time>2024-05-08T12:07:19Z</time>
</trkpt>
<trkpt lat="49.27350226789713" lon="9.14959137327969">
<ele>140.6</ele>
<time>2024-05-08T12:07:20Z</time>
</trkpt>
<trkpt lat="49.27358625456691" lon="9.149641916155815">
<ele>140.6</ele>
<time>2024-05-08T12:07:21Z</time>
</trkpt>
<trkpt lat="49.273628164082766" lon="9.149668654426932">
<ele>140.6</ele>
<time>2024-05-08T12:07:22Z</time>
</trkpt>
<trkpt lat="49.273670157417655" lon="9.14969153702259">
<ele>140.6</ele>
<time>2024-05-08T12:07:23Z</time>
</trkpt>
<trkpt lat="49.273712150752544" lon="9.149718275293708">
<ele>140.6</ele>
<time>2024-05-08T12:07:25Z</time>
</trkpt>
<trkpt lat="49.2737540602684" lon="9.149744929745792">
<ele>140.6</ele>
<time>2024-05-08T12:07:26Z</time>
</trkpt>
<trkpt lat="49.27379605360329" lon="9.14976974017918">
<ele>140.6</ele>
<time>2024-05-08T12:07:27Z</time>
</trkpt>
<trkpt lat="49.27387995645404" lon="9.149816511198878">
<ele>140.6</ele>
<time>2024-05-08T12:07:29Z</time>
</trkpt>
<trkpt lat="49.27392194978893" lon="9.149841237813234">
<ele>140.6</ele>
<time>2024-05-08T12:07:30Z</time>
</trkpt>
<trkpt lat="49.2740096244961" lon="9.149893708527088">
<ele>140.8</ele>
<time>2024-05-08T12:07:31Z</time>
</trkpt>
<trkpt lat="49.27405161783099" lon="9.149923296645284">
<ele>140.8</ele>
<time>2024-05-08T12:07:32Z</time>
</trkpt>
<trkpt lat="49.27409738302231" lon="9.1499518789351">
<ele>140.8</ele>
<time>2024-05-08T12:07:34Z</time>
</trkpt>
<trkpt lat="49.274143148213625" lon="9.149979539215565">
<ele>140.8</ele>
<time>2024-05-08T12:07:35Z</time>
</trkpt>
<trkpt lat="49.27422713488341" lon="9.150036787614226">
<ele>140.8</ele>
<time>2024-05-08T12:07:37Z</time>
</trkpt>
<trkpt lat="49.27431480959058" lon="9.150093030184507">
<ele>141</ele>
<time>2024-05-08T12:07:38Z</time>
</trkpt>
<trkpt lat="49.27435680292547" lon="9.150123540312052">
<ele>141</ele>
<time>2024-05-08T12:07:40Z</time>
</trkpt>
<trkpt lat="49.27439879626036" lon="9.150153128430247">
<ele>141</ele>
<time>2024-05-08T12:07:41Z</time>
</trkpt>
<trkpt lat="49.27448647096753" lon="9.150216998532414">
<ele>141</ele>
<time>2024-05-08T12:07:42Z</time>
</trkpt>
<trkpt lat="49.27452846430242" lon="9.15024851448834">
<ele>141</ele>
<time>2024-05-08T12:07:44Z</time>
</trkpt>
<trkpt lat="49.27461622282863" lon="9.15030475705862">
<ele>141</ele>
<time>2024-05-08T12:07:45Z</time>
</trkpt>
<trkpt lat="49.27465813234448" lon="9.150333339348435">
<ele>141</ele>
<time>2024-05-08T12:07:46Z</time>
</trkpt>
<trkpt lat="49.2747038975358" lon="9.150360077619553">
<ele>141</ele>
<time>2024-05-08T12:07:48Z</time>
</trkpt>
<trkpt lat="49.27478788420558" lon="9.150418248027565">
<ele>141</ele>
<time>2024-05-08T12:07:49Z</time>
</trkpt>
<trkpt lat="49.27482979372144" lon="9.150449680164456">
<ele>141</ele>
<time>2024-05-08T12:07:50Z</time>
</trkpt>
<trkpt lat="49.274875558912754" lon="9.150480190292">
<ele>141</ele>
<time>2024-05-08T12:07:52Z</time>
</trkpt>
<trkpt lat="49.2749214079231" lon="9.150507850572469">
<ele>141</ele>
<time>2024-05-08T12:07:53Z</time>
</trkpt>
<trkpt lat="49.27500908263028" lon="9.150567026808858">
<ele>141.2</ele>
<time>2024-05-08T12:07:54Z</time>
</trkpt>
<trkpt lat="49.275054931640625" lon="9.150594687089324">
<ele>141.2</ele>
<time>2024-05-08T12:07:56Z</time>
</trkpt>
<trkpt lat="49.2751426063478" lon="9.150654785335064">
<ele>141.2</ele>
<time>2024-05-08T12:07:57Z</time>
</trkpt>
<trkpt lat="49.27518837153912" lon="9.150685295462608">
<ele>141</ele>
<time>2024-05-08T12:07:59Z</time>
</trkpt>
<trkpt lat="49.27527998574078" lon="9.15074153803289">
<ele>141</ele>
<time>2024-05-08T12:08:00Z</time>
</trkpt>
<trkpt lat="49.2753257509321" lon="9.150770120322704">
<ele>141</ele>
<time>2024-05-08T12:08:01Z</time>
</trkpt>
<trkpt lat="49.275371516123414" lon="9.150798786431553">
<ele>141.2</ele>
<time>2024-05-08T12:08:02Z</time>
</trkpt>
<trkpt lat="49.2754135094583" lon="9.150826446712015">
<ele>141.2</ele>
<time>2024-05-08T12:08:03Z</time>
</trkpt>
<trkpt lat="49.27545927464962" lon="9.150855029001832">
<ele>141.2</ele>
<time>2024-05-08T12:08:05Z</time>
</trkpt>
<trkpt lat="49.27554317750037" lon="9.150910349562764">
<ele>141.4</ele>
<time>2024-05-08T12:08:07Z</time>
</trkpt>
<trkpt lat="49.27558517083526" lon="9.15093800984323">
<ele>141.4</ele>
<time>2024-05-08T12:08:08Z</time>
</trkpt>
<trkpt lat="49.27567284554243" lon="9.150991402566431">
<ele>141.4</ele>
<time>2024-05-08T12:08:09Z</time>
</trkpt>
<trkpt lat="49.27571483887732" lon="9.151022834703326">
<ele>141.4</ele>
<time>2024-05-08T12:08:10Z</time>
</trkpt>
<trkpt lat="49.27576060406864" lon="9.151051500812171">
<ele>141.4</ele>
<time>2024-05-08T12:08:11Z</time>
</trkpt>
<trkpt lat="49.275802597403526" lon="9.151082010939716">
<ele>141.6</ele>
<time>2024-05-08T12:08:12Z</time>
</trkpt>
<trkpt lat="49.275844506919384" lon="9.151109671220183">
<ele>141.6</ele>
<time>2024-05-08T12:08:13Z</time>
</trkpt>
<trkpt lat="49.27588650025427" lon="9.151136325672269">
<ele>141.6</ele>
<time>2024-05-08T12:08:15Z</time>
</trkpt>
<trkpt lat="49.27597425878048" lon="9.151189802214503">
<ele>141.6</ele>
<time>2024-05-08T12:08:17Z</time>
</trkpt>
<trkpt lat="49.27602002397179" lon="9.151221234351397">
<ele>141.6</ele>
<time>2024-05-08T12:08:18Z</time>
</trkpt>
<trkpt lat="49.276061933487654" lon="9.15125367231667">
<ele>141.6</ele>
<time>2024-05-08T12:08:19Z</time>
</trkpt>
<trkpt lat="49.27615354768932" lon="9.151316620409489">
<ele>141.6</ele>
<time>2024-05-08T12:08:21Z</time>
</trkpt>
<trkpt lat="49.27624122239649" lon="9.1513747908175">
<ele>141.6</ele>
<time>2024-05-08T12:08:22Z</time>
</trkpt>
<trkpt lat="49.27628321573138" lon="9.151405300945044">
<ele>141.4</ele>
<time>2024-05-08T12:08:23Z</time>
</trkpt>
<trkpt lat="49.2763289809227" lon="9.15143296122551">
<ele>141.4</ele>
<time>2024-05-08T12:08:25Z</time>
</trkpt>
<trkpt lat="49.276412883773446" lon="9.151483504101634">
<ele>141.4</ele>
<time>2024-05-08T12:08:26Z</time>
</trkpt>
<trkpt lat="49.27645110525191" lon="9.151498759165406">
<ele>141.4</ele>
<time>2024-05-08T12:08:28Z</time>
</trkpt>
<trkpt lat="49.27652738057077" lon="9.151521641761065">
<ele>141.2</ele>
<time>2024-05-08T12:08:29Z</time>
</trkpt>
<trkpt lat="49.27656166255474" lon="9.151537818834186">
<ele>141.2</ele>
<time>2024-05-08T12:08:31Z</time>
</trkpt>
<trkpt lat="49.2765998840332" lon="9.151556929573417">
<ele>141.4</ele>
<time>2024-05-08T12:08:32Z</time>
</trkpt>
<trkpt lat="49.276634166017175" lon="9.151576962321997">
<ele>141.4</ele>
<time>2024-05-08T12:08:33Z</time>
</trkpt>
<trkpt lat="49.27671044133603" lon="9.151621805503964">
<ele>141.2</ele>
<time>2024-05-08T12:08:35Z</time>
</trkpt>
<trkpt lat="49.27678680047393" lon="9.15167042054236">
<ele>141.2</ele>
<time>2024-05-08T12:08:37Z</time>
</trkpt>
<trkpt lat="49.27685922011733" lon="9.151716185733676">
<ele>141.2</ele>
<time>2024-05-08T12:08:38Z</time>
</trkpt>
<trkpt lat="49.27689735777676" lon="9.151741918176413">
<ele>141.2</ele>
<time>2024-05-08T12:08:39Z</time>
</trkpt>
<trkpt lat="49.27693172357976" lon="9.15176480077207">
<ele>141.2</ele>
<time>2024-05-08T12:08:41Z</time>
</trkpt>
<trkpt lat="49.277007998898625" lon="9.15180964395404">
<ele>141</ele>
<time>2024-05-08T12:08:42Z</time>
</trkpt>
<trkpt lat="49.27704236470163" lon="9.151835376396775">
<ele>141</ele>
<time>2024-05-08T12:08:43Z</time>
</trkpt>
<trkpt lat="49.27708050236106" lon="9.151860186830165">
<ele>141</ele>
<time>2024-05-08T12:08:44Z</time>
</trkpt>
<trkpt lat="49.27711864002049" lon="9.15188499726355">
<ele>141.2</ele>
<time>2024-05-08T12:08:45Z</time>
</trkpt>
<trkpt lat="49.27716063335538" lon="9.15190980769694">
<ele>141.2</ele>
<time>2024-05-08T12:08:46Z</time>
</trkpt>
<trkpt lat="49.27719877101481" lon="9.151933612301946">
<ele>141.4</ele>
<time>2024-05-08T12:08:47Z</time>
</trkpt>
<trkpt lat="49.27723690867424" lon="9.151958422735332">
<ele>141.4</ele>
<time>2024-05-08T12:08:48Z</time>
</trkpt>
<trkpt lat="49.27727504633367" lon="9.151981305330992">
<ele>141.6</ele>
<time>2024-05-08T12:08:50Z</time>
</trkpt>
<trkpt lat="49.2773131839931" lon="9.15200519375503">
<ele>141.6</ele>
<time>2024-05-08T12:08:51Z</time>
</trkpt>
<trkpt lat="49.27735517732799" lon="9.152028076350687">
<ele>141.6</ele>
<time>2024-05-08T12:08:52Z</time>
</trkpt>
<trkpt lat="49.27739331498742" lon="9.152054730802774">
<ele>141.6</ele>
<time>2024-05-08T12:08:53Z</time>
</trkpt>
<trkpt lat="49.27743145264685" lon="9.152078619226812">
<ele>141.8</ele>
<time>2024-05-08T12:08:54Z</time>
</trkpt>
<trkpt lat="49.2775153554976" lon="9.152121534571052">
<ele>141.8</ele>
<time>2024-05-08T12:08:55Z</time>
</trkpt>
<trkpt lat="49.277561120688915" lon="9.15214341133833">
<ele>141.8</ele>
<time>2024-05-08T12:08:56Z</time>
</trkpt>
<trkpt lat="49.27760688588023" lon="9.15216344408691">
<ele>141.8</ele>
<time>2024-05-08T12:08:57Z</time>
</trkpt>
<trkpt lat="49.27764887921512" lon="9.152179704979062">
<ele>141.8</ele>
<time>2024-05-08T12:08:58Z</time>
</trkpt>
<trkpt lat="49.27769464440644" lon="9.152194960042834">
<ele>142</ele>
<time>2024-05-08T12:08:59Z</time>
</trkpt>
<trkpt lat="49.27773663774133" lon="9.152210215106606">
<ele>142</ele>
<time>2024-05-08T12:09:00Z</time>
</trkpt>
<trkpt lat="49.27778240293264" lon="9.15222354233265">
<ele>142</ele>
<time>2024-05-08T12:09:01Z</time>
</trkpt>
<trkpt lat="49.27782439626753" lon="9.152237875387073">
<ele>141.8</ele>
<time>2024-05-08T12:09:02Z</time>
</trkpt>
<trkpt lat="49.27787016145885" lon="9.152253130450845">
<ele>141.8</ele>
<time>2024-05-08T12:09:03Z</time>
</trkpt>
<trkpt lat="49.27791207097471" lon="9.152268385514615">
<ele>141.6</ele>
<time>2024-05-08T12:09:04Z</time>
</trkpt>
<trkpt lat="49.277957836166024" lon="9.15228364057839">
<ele>141.6</ele>
<time>2024-05-08T12:09:06Z</time>
</trkpt>
<trkpt lat="49.2780418228358" lon="9.152313228696585">
<ele>141.4</ele>
<time>2024-05-08T12:09:07Z</time>
</trkpt>
<trkpt lat="49.27808373235166" lon="9.152326555922627">
<ele>141.4</ele>
<time>2024-05-08T12:09:08Z</time>
</trkpt>
<trkpt lat="49.27812572568655" lon="9.15233988314867">
<ele>141.4</ele>
<time>2024-05-08T12:09:09Z</time>
</trkpt>
<trkpt lat="49.27816771902144" lon="9.152353210374711">
<ele>141.4</ele>
<time>2024-05-08T12:09:10Z</time>
</trkpt>
<trkpt lat="49.27821348421275" lon="9.152366621419787">
<ele>141.6</ele>
<time>2024-05-08T12:09:11Z</time>
</trkpt>
<trkpt lat="49.27825162187219" lon="9.15237994864583">
<ele>141.6</ele>
<time>2024-05-08T12:09:12Z</time>
</trkpt>
<trkpt lat="49.27829353138805" lon="9.152393275871871">
<ele>141.6</ele>
<time>2024-05-08T12:09:13Z</time>
</trkpt>
<trkpt lat="49.278335524722934" lon="9.152406686916947">
<ele>141.8</ele>
<time>2024-05-08T12:09:14Z</time>
</trkpt>
<trkpt lat="49.27838128991425" lon="9.15242001414299">
<ele>142</ele>
<time>2024-05-08T12:09:15Z</time>
</trkpt>
<trkpt lat="49.27842328324914" lon="9.152431413531303">
<ele>142</ele>
<time>2024-05-08T12:09:16Z</time>
</trkpt>
<trkpt lat="49.278469048440456" lon="9.152444824576378">
<ele>142.2</ele>
<time>2024-05-08T12:09:17Z</time>
</trkpt>
<trkpt lat="49.278511041775346" lon="9.15245815180242">
<ele>142.4</ele>
<time>2024-05-08T12:09:18Z</time>
</trkpt>
<trkpt lat="49.27855680696666" lon="9.152469635009766">
<ele>142.6</ele>
<time>2024-05-08T12:09:19Z</time>
</trkpt>
<trkpt lat="49.27859871648252" lon="9.152482962235808">
<ele>142.8</ele>
<time>2024-05-08T12:09:21Z</time>
</trkpt>
<trkpt lat="49.278686475008726" lon="9.152501989156008">
<ele>143.2</ele>
<time>2024-05-08T12:09:22Z</time>
</trkpt>
<trkpt lat="49.278728468343616" lon="9.152511544525623">
<ele>143.2</ele>
<time>2024-05-08T12:09:23Z</time>
</trkpt>
<trkpt lat="49.278766606003046" lon="9.152523027732968">
<ele>143.4</ele>
<time>2024-05-08T12:09:24Z</time>
</trkpt>
<trkpt lat="49.278808515518904" lon="9.152533505111933">
<ele>143.6</ele>
<time>2024-05-08T12:09:25Z</time>
</trkpt>
<trkpt lat="49.27885050885379" lon="9.152542054653168">
<ele>143.8</ele>
<time>2024-05-08T12:09:26Z</time>
</trkpt>
<trkpt lat="49.27889250218868" lon="9.152548760175703">
<ele>144</ele>
<time>2024-05-08T12:09:27Z</time>
</trkpt>
<trkpt lat="49.27893441170454" lon="9.152556387707593">
<ele>144</ele>
<time>2024-05-08T12:09:28Z</time>
</trkpt>
<trkpt lat="49.27897640503943" lon="9.1525611653924">
<ele>144.2</ele>
<time>2024-05-08T12:09:29Z</time>
</trkpt>
<trkpt lat="49.27901839837432" lon="9.152563093230128">
<ele>144.4</ele>
<time>2024-05-08T12:09:30Z</time>
</trkpt>
<trkpt lat="49.27905653603375" lon="9.152564937248826">
<ele>144.4</ele>
<time>2024-05-08T12:09:31Z</time>
</trkpt>
<trkpt lat="49.279102301225066" lon="9.152564937248826">
<ele>144.6</ele>
<time>2024-05-08T12:09:32Z</time>
</trkpt>
<trkpt lat="49.27914421074093" lon="9.1525611653924">
<ele>144.8</ele>
<time>2024-05-08T12:09:33Z</time>
</trkpt>
<trkpt lat="49.27919005975127" lon="9.152556387707593">
<ele>145</ele>
<time>2024-05-08T12:09:34Z</time>
</trkpt>
<trkpt lat="49.27923196926713" lon="9.152546832337976">
<ele>145</ele>
<time>2024-05-08T12:09:35Z</time>
</trkpt>
<trkpt lat="49.27927396260202" lon="9.152540126815438">
<ele>145.2</ele>
<time>2024-05-08T12:09:36Z</time>
</trkpt>
<trkpt lat="49.27931587211788" lon="9.152531577274203">
<ele>145.4</ele>
<time>2024-05-08T12:09:38Z</time>
</trkpt>
<trkpt lat="49.279357865452766" lon="9.152523027732968">
<ele>145.6</ele>
<time>2024-05-08T12:09:39Z</time>
</trkpt>
<trkpt lat="49.279399858787656" lon="9.152513472363353">
<ele>145.8</ele>
<time>2024-05-08T12:09:40Z</time>
</trkpt>
<trkpt lat="49.2794837616384" lon="9.152488661929963">
<ele>146.2</ele>
<time>2024-05-08T12:09:41Z</time>
</trkpt>
<trkpt lat="49.27952189929783" lon="9.152475334703922">
<ele>146.4</ele>
<time>2024-05-08T12:09:43Z</time>
</trkpt>
<trkpt lat="49.27960580214858" lon="9.152451446279883">
<ele>146.8</ele>
<time>2024-05-08T12:09:45Z</time>
</trkpt>
<trkpt lat="49.27964779548347" lon="9.1524419747293">
<ele>146.8</ele>
<time>2024-05-08T12:09:46Z</time>
</trkpt>
<trkpt lat="49.27972792647779" lon="9.152416158467531">
<ele>147.2</ele>
<time>2024-05-08T12:09:47Z</time>
</trkpt>
<trkpt lat="49.27976606413722" lon="9.15240190923214">
<ele>147.4</ele>
<time>2024-05-08T12:09:49Z</time>
</trkpt>
<trkpt lat="49.27980797365308" lon="9.152388498187063">
<ele>147.4</ele>
<time>2024-05-08T12:09:50Z</time>
</trkpt>
<trkpt lat="49.27984996698797" lon="9.152375170961022">
<ele>147.6</ele>
<time>2024-05-08T12:09:51Z</time>
</trkpt>
<trkpt lat="49.27992624230683" lon="9.152353210374711">
<ele>148</ele>
<time>2024-05-08T12:09:52Z</time>
</trkpt>
<trkpt lat="49.27996437996626" lon="9.1523418109864">
<ele>148.2</ele>
<time>2024-05-08T12:09:53Z</time>
</trkpt>
<trkpt lat="49.28000637330115" lon="9.152330327779056">
<ele>148.4</ele>
<time>2024-05-08T12:09:55Z</time>
</trkpt>
<trkpt lat="49.28004836663604" lon="9.15231792256236">
<ele>148.6</ele>
<time>2024-05-08T12:09:56Z</time>
</trkpt>
<trkpt lat="49.28008650429547" lon="9.152306523174047">
<ele>148.8</ele>
<time>2024-05-08T12:09:57Z</time>
</trkpt>
<trkpt lat="49.2801246419549" lon="9.152293195948005">
<ele>149</ele>
<time>2024-05-08T12:09:58Z</time>
</trkpt>
<trkpt lat="49.28015892393887" lon="9.15228171274066">
<ele>149.2</ele>
<time>2024-05-08T12:09:59Z</time>
</trkpt>
<trkpt lat="49.28022002801299" lon="9.15226167999208">
<ele>149.6</ele>
<time>2024-05-08T12:10:00Z</time>
</trkpt>
<trkpt lat="49.280250538140535" lon="9.15224357508123">
<ele>149.8</ele>
<time>2024-05-08T12:10:01Z</time>
</trkpt>
<trkpt lat="49.280288675799966" lon="9.15222161449492">
<ele>149.8</ele>
<time>2024-05-08T12:10:02Z</time>
</trkpt>
<trkpt lat="49.280330585315824" lon="9.15220350958407">
<ele>150</ele>
<time>2024-05-08T12:10:03Z</time>
</trkpt>
<trkpt lat="49.28037643432617" lon="9.152186326682568">
<ele>150.2</ele>
<time>2024-05-08T12:10:05Z</time>
</trkpt>
<trkpt lat="49.28046033717692" lon="9.152159672230482">
<ele>150.6</ele>
<time>2024-05-08T12:10:07Z</time>
</trkpt>
<trkpt lat="49.28050224669278" lon="9.152146261185408">
<ele>150.8</ele>
<time>2024-05-08T12:10:08Z</time>
</trkpt>
<trkpt lat="49.28058623336256" lon="9.152116756886244">
<ele>151</ele>
<time>2024-05-08T12:10:10Z</time>
</trkpt>
<trkpt lat="49.28062814287841" lon="9.152099573984742">
<ele>151</ele>
<time>2024-05-08T12:10:11Z</time>
</trkpt>
<trkpt lat="49.2806701362133" lon="9.1520862467587">
<ele>151.2</ele>
<time>2024-05-08T12:10:12Z</time>
</trkpt>
<trkpt lat="49.28071590140462" lon="9.152074763551354">
<ele>151.2</ele>
<time>2024-05-08T12:10:13Z</time>
</trkpt>
<trkpt lat="49.28075789473951" lon="9.152071913704276">
<ele>151.2</ele>
<time>2024-05-08T12:10:14Z</time>
</trkpt>
<trkpt lat="49.2808379419148" lon="9.152072835713623">
<ele>151.2</ele>
<time>2024-05-08T12:10:16Z</time>
</trkpt>
<trkpt lat="49.28086845204234" lon="9.152072835713623">
<ele>151.2</ele>
<time>2024-05-08T12:10:17Z</time>
</trkpt>
<trkpt lat="49.280902817845345" lon="9.152068058028815">
<ele>151.2</ele>
<time>2024-05-08T12:10:18Z</time>
</trkpt>
<trkpt lat="49.28094858303666" lon="9.152061436325312">
<ele>151.2</ele>
<time>2024-05-08T12:10:20Z</time>
</trkpt>
<trkpt lat="49.28096769377589" lon="9.152058586478232">
<ele>151.2</ele>
<time>2024-05-08T12:10:21Z</time>
</trkpt>
<trkpt lat="49.28099434822798" lon="9.152040481567385">
<ele>151.2</ele>
<time>2024-05-08T12:10:22Z</time>
</trkpt>
<trkpt lat="49.281001975759864" lon="9.15202514268458">
<ele>151.2</ele>
<time>2024-05-08T12:10:23Z</time>
</trkpt>
<trkpt lat="49.28101345896721" lon="9.152011815458536">
<ele>151.2</ele>
<time>2024-05-08T12:10:25Z</time>
</trkpt>
<trkpt lat="49.28103248588741" lon="9.151969905942678">
<ele>151.2</ele>
<time>2024-05-08T12:10:27Z</time>
</trkpt>
<trkpt lat="49.28104396909475" lon="9.151931684464216">
<ele>151.2</ele>
<time>2024-05-08T12:10:28Z</time>
</trkpt>
<trkpt lat="49.281059224158525" lon="9.151836382225156">
<ele>151</ele>
<time>2024-05-08T12:10:29Z</time>
</trkpt>
<trkpt lat="49.281063079833984" lon="9.15178868919611">
<ele>151</ele>
<time>2024-05-08T12:10:30Z</time>
</trkpt>
<trkpt lat="49.28106685169041" lon="9.151740074157717">
<ele>151</ele>
<time>2024-05-08T12:10:31Z</time>
</trkpt>
<trkpt lat="49.28106685169041" lon="9.15168659761548">
<ele>151</ele>
<time>2024-05-08T12:10:33Z</time>
</trkpt>
<trkpt lat="49.28108596242964" lon="9.15158836171031">
<ele>151</ele>
<time>2024-05-08T12:10:35Z</time>
</trkpt>
<trkpt lat="49.28108973428607" lon="9.151541674509645">
<ele>151</ele>
<time>2024-05-08T12:10:36Z</time>
</trkpt>
<trkpt lat="49.28108596242964" lon="9.15145299397409">
<ele>151.2</ele>
<time>2024-05-08T12:10:38Z</time>
</trkpt>
<trkpt lat="49.28107833489776" lon="9.15141200646758">
<ele>151.2</ele>
<time>2024-05-08T12:10:39Z</time>
</trkpt>
<trkpt lat="49.28106685169041" lon="9.151329947635531">
<ele>151.4</ele>
<time>2024-05-08T12:10:41Z</time>
</trkpt>
<trkpt lat="49.28105159662664" lon="9.151241267099977">
<ele>151.4</ele>
<time>2024-05-08T12:10:43Z</time>
</trkpt>
<trkpt lat="49.281040113419294" lon="9.151149736717343">
<ele>151.6</ele>
<time>2024-05-08T12:10:44Z</time>
</trkpt>
<trkpt lat="49.281040113419294" lon="9.151104893535376">
<ele>151.6</ele>
<time>2024-05-08T12:10:46Z</time>
</trkpt>
<trkpt lat="49.28103248588741" lon="9.15101520717144">
<ele>151.6</ele>
<time>2024-05-08T12:10:48Z</time>
</trkpt>
<trkpt lat="49.281021086499095" lon="9.15091990493238">
<ele>151.8</ele>
<time>2024-05-08T12:10:50Z</time>
</trkpt>
<trkpt lat="49.281021086499095" lon="9.150871206074951">
<ele>152</ele>
<time>2024-05-08T12:10:51Z</time>
</trkpt>
<trkpt lat="49.281021086499095" lon="9.150774898007512">
<ele>152</ele>
<time>2024-05-08T12:10:53Z</time>
</trkpt>
<trkpt lat="49.28102871403098" lon="9.15068336762488">
<ele>152.4</ele>
<time>2024-05-08T12:10:55Z</time>
</trkpt>
<trkpt lat="49.28103248588741" lon="9.150634752586484">
<ele>152.4</ele>
<time>2024-05-08T12:10:56Z</time>
</trkpt>
<trkpt lat="49.28103634156287" lon="9.150585131719708">
<ele>152.6</ele>
<time>2024-05-08T12:10:57Z</time>
</trkpt>
<trkpt lat="49.281040113419294" lon="9.150534588843584">
<ele>152.6</ele>
<time>2024-05-08T12:10:58Z</time>
</trkpt>
<trkpt lat="49.28105536848307" lon="9.150426797568798">
<ele>152.8</ele>
<time>2024-05-08T12:10:59Z</time>
</trkpt>
<trkpt lat="49.28106685169041" lon="9.150371477007866">
<ele>152.8</ele>
<time>2024-05-08T12:11:01Z</time>
</trkpt>
<trkpt lat="49.28108596242964" lon="9.150257986038923">
<ele>152.8</ele>
<time>2024-05-08T12:11:03Z</time>
</trkpt>
<trkpt lat="49.28109736181795" lon="9.150199815630913">
<ele>152.8</ele>
<time>2024-05-08T12:11:04Z</time>
</trkpt>
<trkpt lat="49.28112410008907" lon="9.15008540265262">
<ele>152.6</ele>
<time>2024-05-08T12:11:05Z</time>
</trkpt>
<trkpt lat="49.28114312700927" lon="9.15002815425396">
<ele>152.6</ele>
<time>2024-05-08T12:11:06Z</time>
</trkpt>
<trkpt lat="49.281158382073045" lon="9.14996998384595">
<ele>152.4</ele>
<time>2024-05-08T12:11:07Z</time>
</trkpt>
<trkpt lat="49.28117363713682" lon="9.14991181343794">
<ele>152.4</ele>
<time>2024-05-08T12:11:08Z</time>
</trkpt>
<trkpt lat="49.28119274787605" lon="9.149854648858309">
<ele>152.4</ele>
<time>2024-05-08T12:11:10Z</time>
</trkpt>
<trkpt lat="49.28123474121094" lon="9.149740152060986">
<ele>152.4</ele>
<time>2024-05-08T12:11:12Z</time>
</trkpt>
<trkpt lat="49.28125376813114" lon="9.149684831500052">
<ele>152.2</ele>
<time>2024-05-08T12:11:13Z</time>
</trkpt>
<trkpt lat="49.28129190579057" lon="9.149568490684032">
<ele>152.2</ele>
<time>2024-05-08T12:11:14Z</time>
</trkpt>
<trkpt lat="49.281314788386226" lon="9.149510320276022">
<ele>152</ele>
<time>2024-05-08T12:11:16Z</time>
</trkpt>
<trkpt lat="49.281356781721115" lon="9.149394985288382">
<ele>152</ele>
<time>2024-05-08T12:11:18Z</time>
</trkpt>
<trkpt lat="49.2813834361732" lon="9.149336814880373">
<ele>151.8</ele>
<time>2024-05-08T12:11:19Z</time>
</trkpt>
<trkpt lat="49.28142928518355" lon="9.149216618388891">
<ele>151.8</ele>
<time>2024-05-08T12:11:20Z</time>
</trkpt>
<trkpt lat="49.28145216777921" lon="9.149153670296071">
<ele>151.8</ele>
<time>2024-05-08T12:11:22Z</time>
</trkpt>
<trkpt lat="49.281475050374866" lon="9.149089800193906">
<ele>151.6</ele>
<time>2024-05-08T12:11:23Z</time>
</trkpt>
<trkpt lat="49.28149793297053" lon="9.149024924263358">
<ele>151.6</ele>
<time>2024-05-08T12:11:24Z</time>
</trkpt>
<trkpt lat="49.28154369816184" lon="9.148891400545835">
<ele>151.4</ele>
<time>2024-05-08T12:11:26Z</time>
</trkpt>
<trkpt lat="49.28158569149673" lon="9.148756954818964">
<ele>151.4</ele>
<time>2024-05-08T12:11:27Z</time>
</trkpt>
<trkpt lat="49.28160857409239" lon="9.148688307031987">
<ele>151.4</ele>
<time>2024-05-08T12:11:29Z</time>
</trkpt>
<trkpt lat="49.28162760101259" lon="9.148618653416634">
<ele>151.4</ele>
<time>2024-05-08T12:11:30Z</time>
</trkpt>
<trkpt lat="49.28164671175182" lon="9.14855000562966">
<ele>151.2</ele>
<time>2024-05-08T12:11:31Z</time>
</trkpt>
<trkpt lat="49.28168862126768" lon="9.148411704227328">
<ele>151</ele>
<time>2024-05-08T12:11:32Z</time>
</trkpt>
<trkpt lat="49.281711503863335" lon="9.148342050611973">
<ele>150.8</ele>
<time>2024-05-08T12:11:34Z</time>
</trkpt>
<trkpt lat="49.2817497253418" lon="9.148201905190945">
<ele>150.6</ele>
<time>2024-05-08T12:11:35Z</time>
</trkpt>
<trkpt lat="49.281772607937455" lon="9.14813132956624">
<ele>150.4</ele>
<time>2024-05-08T12:11:36Z</time>
</trkpt>
<trkpt lat="49.281791634857655" lon="9.148061675950885">
<ele>150.4</ele>
<time>2024-05-08T12:11:37Z</time>
</trkpt>
<trkpt lat="49.28181451745331" lon="9.14799495600164">
<ele>150.2</ele>
<time>2024-05-08T12:11:38Z</time>
</trkpt>
<trkpt lat="49.281833628192544" lon="9.147925302386284">
<ele>150.2</ele>
<time>2024-05-08T12:11:39Z</time>
</trkpt>
<trkpt lat="49.28185265511274" lon="9.14785472676158">
<ele>150.2</ele>
<time>2024-05-08T12:11:41Z</time>
</trkpt>
<trkpt lat="49.28189464844763" lon="9.147711731493471">
<ele>150</ele>
<time>2024-05-08T12:11:42Z</time>
</trkpt>
<trkpt lat="49.28191367536783" lon="9.14763830602169">
<ele>150</ele>
<time>2024-05-08T12:11:43Z</time>
</trkpt>
<trkpt lat="49.28193664178252" lon="9.147566724568604">
<ele>150</ele>
<time>2024-05-08T12:11:44Z</time>
</trkpt>
<trkpt lat="49.281951896846294" lon="9.147493299096825">
<ele>150</ele>
<time>2024-05-08T12:11:45Z</time>
</trkpt>
<trkpt lat="49.28197477944195" lon="9.14741987362504">
<ele>150</ele>
<time>2024-05-08T12:11:46Z</time>
</trkpt>
<trkpt lat="49.28199380636215" lon="9.147351225838063">
<ele>149.8</ele>
<time>2024-05-08T12:11:47Z</time>
</trkpt>
<trkpt lat="49.28201291710138" lon="9.14728350006044">
<ele>149.8</ele>
<time>2024-05-08T12:11:48Z</time>
</trkpt>
<trkpt lat="49.28203194402158" lon="9.147219629958272">
<ele>149.6</ele>
<time>2024-05-08T12:11:50Z</time>
</trkpt>
<trkpt lat="49.282047199085355" lon="9.147152826189997">
<ele>149.6</ele>
<time>2024-05-08T12:11:51Z</time>
</trkpt>
<trkpt lat="49.28208156488836" lon="9.14702701382339">
<ele>149.4</ele>
<time>2024-05-08T12:11:52Z</time>
</trkpt>
<trkpt lat="49.28210067562759" lon="9.146963059902191">
<ele>149.2</ele>
<time>2024-05-08T12:11:53Z</time>
</trkpt>
<trkpt lat="49.28211970254779" lon="9.146900111809371">
<ele>149.2</ele>
<time>2024-05-08T12:11:54Z</time>
</trkpt>
<trkpt lat="49.28213881328702" lon="9.146833391860127">
<ele>149</ele>
<time>2024-05-08T12:11:55Z</time>
</trkpt>
<trkpt lat="49.28215784020722" lon="9.146764744073153">
<ele>149</ele>
<time>2024-05-08T12:11:56Z</time>
</trkpt>
<trkpt lat="49.28217695094645" lon="9.146699868142605">
<ele>149</ele>
<time>2024-05-08T12:11:57Z</time>
</trkpt>
<trkpt lat="49.28219597786665" lon="9.14663122035563">
<ele>149</ele>
<time>2024-05-08T12:11:58Z</time>
</trkpt>
<trkpt lat="49.28221508860588" lon="9.146566344425082">
<ele>149</ele>
<time>2024-05-08T12:12:00Z</time>
</trkpt>
<trkpt lat="49.28225322626531" lon="9.14643189869821">
<ele>149</ele>
<time>2024-05-08T12:12:02Z</time>
</trkpt>
<trkpt lat="49.28227610886097" lon="9.146367022767665">
<ele>149</ele>
<time>2024-05-08T12:12:03Z</time>
</trkpt>
<trkpt lat="49.28231810219586" lon="9.146231571212413">
<ele>149</ele>
<time>2024-05-08T12:12:05Z</time>
</trkpt>
<trkpt lat="49.28235623985529" lon="9.14609519764781">
<ele>149</ele>
<time>2024-05-08T12:12:06Z</time>
</trkpt>
<trkpt lat="49.28237526677549" lon="9.146028477698565">
<ele>148.8</ele>
<time>2024-05-08T12:12:07Z</time>
</trkpt>
<trkpt lat="49.28239437751472" lon="9.145963601768017">
<ele>148.8</ele>
<time>2024-05-08T12:12:08Z</time>
</trkpt>
<trkpt lat="49.28241340443492" lon="9.145896881818771">
<ele>148.6</ele>
<time>2024-05-08T12:12:09Z</time>
</trkpt>
<trkpt lat="49.28243251517415" lon="9.145833011716604">
<ele>148.6</ele>
<time>2024-05-08T12:12:11Z</time>
</trkpt>
<trkpt lat="49.28247450850904" lon="9.145711893215775">
<ele>148.4</ele>
<time>2024-05-08T12:12:12Z</time>
</trkpt>
<trkpt lat="49.2824973911047" lon="9.145654644817114">
<ele>148.4</ele>
<time>2024-05-08T12:12:13Z</time>
</trkpt>
<trkpt lat="49.282524045556784" lon="9.14560024626553">
<ele>148.6</ele>
<time>2024-05-08T12:12:15Z</time>
</trkpt>
<trkpt lat="49.282581293955445" lon="9.145496310666203">
<ele>148.6</ele>
<time>2024-05-08T12:12:17Z</time>
</trkpt>
<trkpt lat="49.282600320875645" lon="9.145442917943">
<ele>148.6</ele>
<time>2024-05-08T12:12:18Z</time>
</trkpt>
<trkpt lat="49.28261943161488" lon="9.145391453057528">
<ele>148.6</ele>
<time>2024-05-08T12:12:19Z</time>
</trkpt>
<trkpt lat="49.28263468667865" lon="9.145275112241508">
<ele>148.8</ele>
<time>2024-05-08T12:12:21Z</time>
</trkpt>
<trkpt lat="49.28264616988599" lon="9.14515013806522">
<ele>148.8</ele>
<time>2024-05-08T12:12:23Z</time>
</trkpt>
<trkpt lat="49.28267282433808" lon="9.145023319870234">
<ele>149</ele>
<time>2024-05-08T12:12:25Z</time>
</trkpt>
<trkpt lat="49.28268807940185" lon="9.144958443939686">
<ele>149</ele>
<time>2024-05-08T12:12:26Z</time>
</trkpt>
<trkpt lat="49.28270333446562" lon="9.144893568009138">
<ele>149</ele>
<time>2024-05-08T12:12:27Z</time>
</trkpt>
<trkpt lat="49.282737700268626" lon="9.144768677651882">
<ele>149</ele>
<time>2024-05-08T12:12:29Z</time>
</trkpt>
<trkpt lat="49.2827719822526" lon="9.144641859456897">
<ele>149</ele>
<time>2024-05-08T12:12:30Z</time>
</trkpt>
<trkpt lat="49.28279109299183" lon="9.14457505568862">
<ele>149</ele>
<time>2024-05-08T12:12:32Z</time>
</trkpt>
<trkpt lat="49.28281397558749" lon="9.144510263577104">
<ele>149</ele>
<time>2024-05-08T12:12:33Z</time>
</trkpt>
<trkpt lat="49.28283308632672" lon="9.144445387646556">
<ele>149</ele>
<time>2024-05-08T12:12:34Z</time>
</trkpt>
<trkpt lat="49.28287122398615" lon="9.144311863929032">
<ele>149</ele>
<time>2024-05-08T12:12:36Z</time>
</trkpt>
<trkpt lat="49.28290173411369" lon="9.144174568355083">
<ele>149</ele>
<time>2024-05-08T12:12:38Z</time>
</trkpt>
<trkpt lat="49.28292076103389" lon="9.144104914739728">
<ele>149</ele>
<time>2024-05-08T12:12:39Z</time>
</trkpt>
<trkpt lat="49.282958982512355" lon="9.143969463184476">
<ele>149.2</ele>
<time>2024-05-08T12:12:40Z</time>
</trkpt>
<trkpt lat="49.282978009432554" lon="9.143901821225882">
<ele>149.2</ele>
<time>2024-05-08T12:12:42Z</time>
</trkpt>
<trkpt lat="49.28302000276744" lon="9.14376544766128">
<ele>149.2</ele>
<time>2024-05-08T12:12:43Z</time>
</trkpt>
<trkpt lat="49.28303902968764" lon="9.143694872036576">
<ele>149.4</ele>
<time>2024-05-08T12:12:45Z</time>
</trkpt>
<trkpt lat="49.28308102302253" lon="9.143556570634246">
<ele>149.4</ele>
<time>2024-05-08T12:12:47Z</time>
</trkpt>
<trkpt lat="49.28312301635742" lon="9.143416341394186">
<ele>149.6</ele>
<time>2024-05-08T12:12:48Z</time>
</trkpt>
<trkpt lat="49.28314589895308" lon="9.14334861561656">
<ele>149.6</ele>
<time>2024-05-08T12:12:49Z</time>
</trkpt>
<trkpt lat="49.28316492587328" lon="9.143281895667316">
<ele>149.6</ele>
<time>2024-05-08T12:12:50Z</time>
</trkpt>
<trkpt lat="49.28318780846894" lon="9.143215175718067">
<ele>149.8</ele>
<time>2024-05-08T12:12:51Z</time>
</trkpt>
<trkpt lat="49.28321069106459" lon="9.143148371949792">
<ele>149.8</ele>
<time>2024-05-08T12:12:52Z</time>
</trkpt>
<trkpt lat="49.28322980180383" lon="9.143081652000546">
<ele>149.8</ele>
<time>2024-05-08T12:12:54Z</time>
</trkpt>
<trkpt lat="49.28324882872403" lon="9.14301484823227">
<ele>149.6</ele>
<time>2024-05-08T12:12:55Z</time>
</trkpt>
<trkpt lat="49.28329082205891" lon="9.142880402505398">
<ele>149.6</ele>
<time>2024-05-08T12:12:56Z</time>
</trkpt>
<trkpt lat="49.28330993279815" lon="9.1428146045655">
<ele>149.4</ele>
<time>2024-05-08T12:12:57Z</time>
</trkpt>
<trkpt lat="49.283332815393806" lon="9.142749728634952">
<ele>149.2</ele>
<time>2024-05-08T12:12:58Z</time>
</trkpt>
<trkpt lat="49.28334807045758" lon="9.142684936523438">
<ele>149.2</ele>
<time>2024-05-08T12:12:59Z</time>
</trkpt>
<trkpt lat="49.28336709737778" lon="9.142622910439968">
<ele>149</ele>
<time>2024-05-08T12:13:00Z</time>
</trkpt>
<trkpt lat="49.28338620811701" lon="9.142562812194228">
<ele>149</ele>
<time>2024-05-08T12:13:02Z</time>
</trkpt>
<trkpt lat="49.28340523503721" lon="9.142503719776869">
<ele>148.8</ele>
<time>2024-05-08T12:13:03Z</time>
</trkpt>
<trkpt lat="49.28342434577644" lon="9.142444543540478">
<ele>148.8</ele>
<time>2024-05-08T12:13:04Z</time>
</trkpt>
<trkpt lat="49.28344337269664" lon="9.142386373132467">
<ele>148.6</ele>
<time>2024-05-08T12:13:05Z</time>
</trkpt>
<trkpt lat="49.28346633911133" lon="9.142330130562186">
<ele>148.6</ele>
<time>2024-05-08T12:13:06Z</time>
</trkpt>
<trkpt lat="49.28348536603153" lon="9.142271960154176">
<ele>148.6</ele>
<time>2024-05-08T12:13:07Z</time>
</trkpt>
<trkpt lat="49.28352350369096" lon="9.14214514195919">
<ele>148.4</ele>
<time>2024-05-08T12:13:09Z</time>
</trkpt>
<trkpt lat="49.28356549702585" lon="9.142009690403938">
<ele>148.4</ele>
<time>2024-05-08T12:13:11Z</time>
</trkpt>
<trkpt lat="49.28360363468528" lon="9.141873316839336">
<ele>148.4</ele>
<time>2024-05-08T12:13:13Z</time>
</trkpt>
<trkpt lat="49.283649399876595" lon="9.141743648797274">
<ele>148.4</ele>
<time>2024-05-08T12:13:14Z</time>
</trkpt>
<trkpt lat="49.28367228247225" lon="9.14167307317257">
<ele>148.4</ele>
<time>2024-05-08T12:13:16Z</time>
</trkpt>
<trkpt lat="49.28369516506791" lon="9.141605347394943">
<ele>148.4</ele>
<time>2024-05-08T12:13:17Z</time>
</trkpt>
<trkpt lat="49.28371427580714" lon="9.141536699607968">
<ele>148.4</ele>
<time>2024-05-08T12:13:18Z</time>
</trkpt>
<trkpt lat="49.2837371584028" lon="9.141467968001962">
<ele>148.4</ele>
<time>2024-05-08T12:13:19Z</time>
</trkpt>
<trkpt lat="49.28377144038677" lon="9.14133159443736">
<ele>148.4</ele>
<time>2024-05-08T12:13:20Z</time>
</trkpt>
<trkpt lat="49.283790551126" lon="9.141264874488115">
<ele>148.4</ele>
<time>2024-05-08T12:13:22Z</time>
</trkpt>
<trkpt lat="49.28381343372166" lon="9.141202848404646">
<ele>148.4</ele>
<time>2024-05-08T12:13:23Z</time>
</trkpt>
<trkpt lat="49.28383631631732" lon="9.141141828149555">
<ele>148.4</ele>
<time>2024-05-08T12:13:24Z</time>
</trkpt>
<trkpt lat="49.28385157138109" lon="9.14107795804739">
<ele>148.4</ele>
<time>2024-05-08T12:13:25Z</time>
</trkpt>
<trkpt lat="49.28387068212032" lon="9.141013082116842">
<ele>148.4</ele>
<time>2024-05-08T12:13:26Z</time>
</trkpt>
<trkpt lat="49.283904964104295" lon="9.14089674130082">
<ele>148.2</ele>
<time>2024-05-08T12:13:28Z</time>
</trkpt>
<trkpt lat="49.28392021916807" lon="9.140846198424695">
<ele>148.2</ele>
<time>2024-05-08T12:13:29Z</time>
</trkpt>
<trkpt lat="49.28395458497107" lon="9.140765145421028">
<ele>147.8</ele>
<time>2024-05-08T12:13:31Z</time>
</trkpt>
<trkpt lat="49.28396221250296" lon="9.140725079923868">
<ele>147.8</ele>
<time>2024-05-08T12:13:32Z</time>
</trkpt>
<trkpt lat="49.28396984003484" lon="9.140685014426708">
<ele>147.6</ele>
<time>2024-05-08T12:13:33Z</time>
</trkpt>
<trkpt lat="49.28398132324219" lon="9.140596333891152">
<ele>147.4</ele>
<time>2024-05-08T12:13:35Z</time>
</trkpt>
<trkpt lat="49.283985095098615" lon="9.140549646690488">
<ele>147.2</ele>
<time>2024-05-08T12:13:36Z</time>
</trkpt>
<trkpt lat="49.28400035016239" lon="9.140455182641745">
<ele>147</ele>
<time>2024-05-08T12:13:38Z</time>
</trkpt>
<trkpt lat="49.284027088433504" lon="9.140359796583652">
<ele>146.6</ele>
<time>2024-05-08T12:13:40Z</time>
</trkpt>
<trkpt lat="49.28404997102916" lon="9.14026633836329">
<ele>146.4</ele>
<time>2024-05-08T12:13:42Z</time>
</trkpt>
<trkpt lat="49.284065226092935" lon="9.140176735818386">
<ele>146.2</ele>
<time>2024-05-08T12:13:44Z</time>
</trkpt>
<trkpt lat="49.28407285362482" lon="9.140129964798687">
<ele>146</ele>
<time>2024-05-08T12:13:45Z</time>
</trkpt>
<trkpt lat="49.284084253013134" lon="9.140025107190011">
<ele>145.8</ele>
<time>2024-05-08T12:13:46Z</time>
</trkpt>
<trkpt lat="49.28408810868859" lon="9.13997171446681">
<ele>145.8</ele>
<time>2024-05-08T12:13:47Z</time>
</trkpt>
<trkpt lat="49.28409573622048" lon="9.139916393905878">
<ele>145.8</ele>
<time>2024-05-08T12:13:49Z</time>
</trkpt>
<trkpt lat="49.28411476314068" lon="9.139818158000708">
<ele>145.8</ele>
<time>2024-05-08T12:13:50Z</time>
</trkpt>
<trkpt lat="49.284122390672565" lon="9.139764765277503">
<ele>145.8</ele>
<time>2024-05-08T12:13:52Z</time>
</trkpt>
<trkpt lat="49.28413387387991" lon="9.139653202146292">
<ele>145.8</ele>
<time>2024-05-08T12:13:53Z</time>
</trkpt>
<trkpt lat="49.28414150141179" lon="9.139593103900552">
<ele>145.8</ele>
<time>2024-05-08T12:13:54Z</time>
</trkpt>
<trkpt lat="49.28414912894368" lon="9.13953493349254">
<ele>145.8</ele>
<time>2024-05-08T12:13:56Z</time>
</trkpt>
<trkpt lat="49.28415298461914" lon="9.139465279877186">
<ele>145.6</ele>
<time>2024-05-08T12:13:57Z</time>
</trkpt>
<trkpt lat="49.28416061215103" lon="9.13931842893362">
<ele>145.4</ele>
<time>2024-05-08T12:13:58Z</time>
</trkpt>
<trkpt lat="49.284164384007454" lon="9.139247853308916">
<ele>145.4</ele>
<time>2024-05-08T12:14:00Z</time>
</trkpt>
<trkpt lat="49.28416823968291" lon="9.13912002928555">
<ele>145</ele>
<time>2024-05-08T12:14:01Z</time>
</trkpt>
<trkpt lat="49.28417201153934" lon="9.139055237174034">
<ele>144.8</ele>
<time>2024-05-08T12:14:03Z</time>
</trkpt>
<trkpt lat="49.28416823968291" lon="9.138988433405755">
<ele>144.6</ele>
<time>2024-05-08T12:14:04Z</time>
</trkpt>
<trkpt lat="49.28416061215103" lon="9.138846360147">
<ele>144.4</ele>
<time>2024-05-08T12:14:05Z</time>
</trkpt>
<trkpt lat="49.28415675647557" lon="9.138771928846836">
<ele>144</ele>
<time>2024-05-08T12:14:07Z</time>
</trkpt>
<trkpt lat="49.28415298461914" lon="9.138633711263536">
<ele>143.6</ele>
<time>2024-05-08T12:14:08Z</time>
</trkpt>
<trkpt lat="49.28414527326822" lon="9.138561207801104">
<ele>143.4</ele>
<time>2024-05-08T12:14:09Z</time>
</trkpt>
<trkpt lat="49.28414150141179" lon="9.13848870433867">
<ele>143.2</ele>
<time>2024-05-08T12:14:10Z</time>
</trkpt>
<trkpt lat="49.28413764573634" lon="9.138413351029158">
<ele>143</ele>
<time>2024-05-08T12:14:11Z</time>
</trkpt>
<trkpt lat="49.28413001820445" lon="9.138338081538675">
<ele>142.8</ele>
<time>2024-05-08T12:14:13Z</time>
</trkpt>
<trkpt lat="49.28412624634802" lon="9.138261722400784">
<ele>142.6</ele>
<time>2024-05-08T12:14:14Z</time>
</trkpt>
<trkpt lat="49.284122390672565" lon="9.138183519244194">
<ele>142.4</ele>
<time>2024-05-08T12:14:15Z</time>
</trkpt>
<trkpt lat="49.28410713560879" lon="9.138030046597123">
<ele>142.2</ele>
<time>2024-05-08T12:14:17Z</time>
</trkpt>
<trkpt lat="49.28409573622048" lon="9.137954693287613">
<ele>142</ele>
<time>2024-05-08T12:14:18Z</time>
</trkpt>
<trkpt lat="49.28407285362482" lon="9.137804908677936">
<ele>141.8</ele>
<time>2024-05-08T12:14:19Z</time>
</trkpt>
<trkpt lat="49.28406137041747" lon="9.137731483206151">
<ele>141.6</ele>
<time>2024-05-08T12:14:21Z</time>
</trkpt>
<trkpt lat="49.28405374288559" lon="9.13765805773437">
<ele>141.6</ele>
<time>2024-05-08T12:14:22Z</time>
</trkpt>
<trkpt lat="49.284027088433504" lon="9.137513134628534">
<ele>141.6</ele>
<time>2024-05-08T12:14:23Z</time>
</trkpt>
<trkpt lat="49.28401183336973" lon="9.137439709156752">
<ele>141.6</ele>
<time>2024-05-08T12:14:25Z</time>
</trkpt>
<trkpt lat="49.283985095098615" lon="9.137291852384806">
<ele>141.4</ele>
<time>2024-05-08T12:14:27Z</time>
</trkpt>
<trkpt lat="49.28395458497107" lon="9.137153550982475">
<ele>141.2</ele>
<time>2024-05-08T12:14:28Z</time>
</trkpt>
<trkpt lat="49.2839393299073" lon="9.137082975357773">
<ele>141.2</ele>
<time>2024-05-08T12:14:30Z</time>
</trkpt>
<trkpt lat="49.283908819779754" lon="9.13694953545928">
<ele>140.8</ele>
<time>2024-05-08T12:14:31Z</time>
</trkpt>
<trkpt lat="49.28389733657241" lon="9.136884659528732">
<ele>140.6</ele>
<time>2024-05-08T12:14:32Z</time>
</trkpt>
<trkpt lat="49.283885937184095" lon="9.136821711435914">
<ele>140.4</ele>
<time>2024-05-08T12:14:33Z</time>
</trkpt>
<trkpt lat="49.28387068212032" lon="9.13675205782056">
<ele>140.2</ele>
<time>2024-05-08T12:14:35Z</time>
</trkpt>
<trkpt lat="49.28384017199278" lon="9.136619539931417">
<ele>140</ele>
<time>2024-05-08T12:14:36Z</time>
</trkpt>
<trkpt lat="49.28382491692901" lon="9.13655181415379">
<ele>140</ele>
<time>2024-05-08T12:14:37Z</time>
</trkpt>
<trkpt lat="49.28381343372166" lon="9.136483166366816">
<ele>140</ele>
<time>2024-05-08T12:14:38Z</time>
</trkpt>
<trkpt lat="49.28379817865789" lon="9.13641351275146">
<ele>140</ele>
<time>2024-05-08T12:14:39Z</time>
</trkpt>
<trkpt lat="49.28378292359412" lon="9.136342937126756">
<ele>140</ele>
<time>2024-05-08T12:14:40Z</time>
</trkpt>
<trkpt lat="49.283763812854886" lon="9.13627521134913">
<ele>140</ele>
<time>2024-05-08T12:14:42Z</time>
</trkpt>
<trkpt lat="49.283748557791114" lon="9.136210419237614">
<ele>140</ele>
<time>2024-05-08T12:14:43Z</time>
</trkpt>
<trkpt lat="49.28371804766357" lon="9.136076895520093">
<ele>139.8</ele>
<time>2024-05-08T12:14:45Z</time>
</trkpt>
<trkpt lat="49.28369516506791" lon="9.135945299640298">
<ele>139.8</ele>
<time>2024-05-08T12:14:47Z</time>
</trkpt>
<trkpt lat="49.283668510615826" lon="9.135813703760505">
<ele>140</ele>
<time>2024-05-08T12:14:49Z</time>
</trkpt>
<trkpt lat="49.283649399876595" lon="9.135747905820608">
<ele>140</ele>
<time>2024-05-08T12:14:50Z</time>
</trkpt>
<trkpt lat="49.28361503407359" lon="9.1356067545712">
<ele>140.4</ele>
<time>2024-05-08T12:14:51Z</time>
</trkpt>
<trkpt lat="49.28360363468528" lon="9.13554472848773">
<ele>140.4</ele>
<time>2024-05-08T12:14:52Z</time>
</trkpt>
<trkpt lat="49.283588379621506" lon="9.135477002710104">
<ele>140.4</ele>
<time>2024-05-08T12:14:54Z</time>
</trkpt>
<trkpt lat="49.28357689641416" lon="9.13541028276086">
<ele>140.4</ele>
<time>2024-05-08T12:14:55Z</time>
</trkpt>
<trkpt lat="49.28356164135039" lon="9.13534540683031">
<ele>140.4</ele>
<time>2024-05-08T12:14:56Z</time>
</trkpt>
<trkpt lat="49.2835349868983" lon="9.135211883112788">
<ele>140.4</ele>
<time>2024-05-08T12:14:57Z</time>
</trkpt>
<trkpt lat="49.28350447677076" lon="9.135074587538838">
<ele>140.4</ele>
<time>2024-05-08T12:15:00Z</time>
</trkpt>
<trkpt lat="49.28348536603153" lon="9.135006861761212">
<ele>140.4</ele>
<time>2024-05-08T12:15:01Z</time>
</trkpt>
<trkpt lat="49.283470110967755" lon="9.134940141811969">
<ele>140.4</ele>
<time>2024-05-08T12:15:02Z</time>
</trkpt>
<trkpt lat="49.283431973308325" lon="9.13481323979795">
<ele>140.4</ele>
<time>2024-05-08T12:15:03Z</time>
</trkpt>
<trkpt lat="49.28341671824455" lon="9.134748447686434">
<ele>140.4</ele>
<time>2024-05-08T12:15:05Z</time>
</trkpt>
<trkpt lat="49.28340146318078" lon="9.13467787206173">
<ele>140.2</ele>
<time>2024-05-08T12:15:06Z</time>
</trkpt>
<trkpt lat="49.28337472490966" lon="9.134545270353556">
<ele>140.4</ele>
<time>2024-05-08T12:15:07Z</time>
</trkpt>
<trkpt lat="49.28335946984589" lon="9.13447855040431">
<ele>140.4</ele>
<time>2024-05-08T12:15:08Z</time>
</trkpt>
<trkpt lat="49.28334421478212" lon="9.134414596483111">
<ele>140.6</ele>
<time>2024-05-08T12:15:10Z</time>
</trkpt>
<trkpt lat="49.28330607712269" lon="9.134283000603318">
<ele>140.8</ele>
<time>2024-05-08T12:15:12Z</time>
</trkpt>
<trkpt lat="49.28328696638346" lon="9.134218208491802">
<ele>140.8</ele>
<time>2024-05-08T12:15:13Z</time>
</trkpt>
<trkpt lat="49.28325645625591" lon="9.134090384468436">
<ele>141</ele>
<time>2024-05-08T12:15:14Z</time>
</trkpt>
<trkpt lat="49.28323742933571" lon="9.13402366451919">
<ele>141</ele>
<time>2024-05-08T12:15:16Z</time>
</trkpt>
<trkpt lat="49.28321831859648" lon="9.13388536311686">
<ele>141.2</ele>
<time>2024-05-08T12:15:18Z</time>
</trkpt>
<trkpt lat="49.28320691920817" lon="9.133812859654428">
<ele>141.2</ele>
<time>2024-05-08T12:15:19Z</time>
</trkpt>
<trkpt lat="49.28319929167628" lon="9.133671708405018">
<ele>141.2</ele>
<time>2024-05-08T12:15:21Z</time>
</trkpt>
<trkpt lat="49.283195436000824" lon="9.133526785299182">
<ele>141.2</ele>
<time>2024-05-08T12:15:22Z</time>
</trkpt>
<trkpt lat="49.2831916641444" lon="9.133455203846095">
<ele>141.2</ele>
<time>2024-05-08T12:15:23Z</time>
</trkpt>
<trkpt lat="49.283195436000824" lon="9.133388483896852">
<ele>141.2</ele>
<time>2024-05-08T12:15:25Z</time>
</trkpt>
<trkpt lat="49.283214546740055" lon="9.133264515548944">
<ele>141.2</ele>
<time>2024-05-08T12:15:27Z</time>
</trkpt>
<trkpt lat="49.2832450568676" lon="9.133158652111888">
<ele>141.2</ele>
<time>2024-05-08T12:15:29Z</time>
</trkpt>
<trkpt lat="49.28326793946326" lon="9.133118586614728">
<ele>141.2</ele>
<time>2024-05-08T12:15:30Z</time>
</trkpt>
<trkpt lat="49.28332895971835" lon="9.133079526945949">
<ele>141.2</ele>
<time>2024-05-08T12:15:32Z</time>
</trkpt>
<trkpt lat="49.28336332552135" lon="9.133078521117568">
<ele>141.2</ele>
<time>2024-05-08T12:15:33Z</time>
</trkpt>
<trkpt lat="49.283428117632866" lon="9.13309184834361">
<ele>141.2</ele>
<time>2024-05-08T12:15:34Z</time>
</trkpt>
<trkpt lat="49.28346633911133" lon="9.133108109235764">
<ele>141.2</ele>
<time>2024-05-08T12:15:35Z</time>
</trkpt>
<trkpt lat="49.28350447677076" lon="9.133126214146614">
<ele>141.2</ele>
<time>2024-05-08T12:15:37Z</time>
</trkpt>
<trkpt lat="49.28358452394605" lon="9.133161501958966">
<ele>141.2</ele>
<time>2024-05-08T12:15:38Z</time>
</trkpt>
<trkpt lat="49.283626517280936" lon="9.133172985166311">
<ele>141.2</ele>
<time>2024-05-08T12:15:40Z</time>
</trkpt>
<trkpt lat="49.28371042013168" lon="9.133199639618397">
<ele>141.2</ele>
<time>2024-05-08T12:15:41Z</time>
</trkpt>
<trkpt lat="49.28375241346657" lon="9.13321204483509">
<ele>141.2</ele>
<time>2024-05-08T12:15:43Z</time>
</trkpt>
<trkpt lat="49.283847799524665" lon="9.133221600204706">
<ele>141.2</ele>
<time>2024-05-08T12:15:44Z</time>
</trkpt>
<trkpt lat="49.28389356471598" lon="9.133226377889514">
<ele>141.2</ele>
<time>2024-05-08T12:15:45Z</time>
</trkpt>
<trkpt lat="49.2839393299073" lon="9.13323014974594">
<ele>141.2</ele>
<time>2024-05-08T12:15:47Z</time>
</trkpt>
<trkpt lat="49.28403086028993" lon="9.13323207758367">
<ele>141.2</ele>
<time>2024-05-08T12:15:49Z</time>
</trkpt>
<trkpt lat="49.28413001820445" lon="9.13323207758367">
<ele>141.2</ele>
<time>2024-05-08T12:15:51Z</time>
</trkpt>
<trkpt lat="49.284183494746685" lon="9.13323014974594">
<ele>141.2</ele>
<time>2024-05-08T12:15:52Z</time>
</trkpt>
<trkpt lat="49.28423688746989" lon="9.133226377889514">
<ele>141.2</ele>
<time>2024-05-08T12:15:53Z</time>
</trkpt>
<trkpt lat="49.284339901059866" lon="9.133219672366977">
<ele>141.2</ele>
<time>2024-05-08T12:15:54Z</time>
</trkpt>
<trkpt lat="49.28438943810761" lon="9.133214894682167">
<ele>141.2</ele>
<time>2024-05-08T12:15:56Z</time>
</trkpt>
<trkpt lat="49.284439058974385" lon="9.13321011699736">
<ele>141.2</ele>
<time>2024-05-08T12:15:57Z</time>
</trkpt>
<trkpt lat="49.28453444503248" lon="9.133196789771318">
<ele>141</ele>
<time>2024-05-08T12:15:58Z</time>
</trkpt>
<trkpt lat="49.284580210223794" lon="9.13319201208651">
<ele>141</ele>
<time>2024-05-08T12:15:59Z</time>
</trkpt>
<trkpt lat="49.28462974727154" lon="9.133186312392354">
<ele>141</ele>
<time>2024-05-08T12:16:01Z</time>
</trkpt>
<trkpt lat="49.28472513332963" lon="9.133174829185007">
<ele>140.8</ele>
<time>2024-05-08T12:16:02Z</time>
</trkpt>
<trkpt lat="49.284774754196405" lon="9.133166279643774">
<ele>140.8</ele>
<time>2024-05-08T12:16:04Z</time>
</trkpt>
<trkpt lat="49.284873912110925" lon="9.133148174732924">
<ele>140.6</ele>
<time>2024-05-08T12:16:05Z</time>
</trkpt>
<trkpt lat="49.2849235329777" lon="9.133139541372657">
<ele>140.6</ele>
<time>2024-05-08T12:16:07Z</time>
</trkpt>
<trkpt lat="49.28501506336033" lon="9.133125292137263">
<ele>140.6</ele>
<time>2024-05-08T12:16:08Z</time>
</trkpt>
<trkpt lat="49.28506468422711" lon="9.1331148147583">
<ele>140.6</ele>
<time>2024-05-08T12:16:09Z</time>
</trkpt>
<trkpt lat="49.285110449418426" lon="9.133106181398034">
<ele>140.4</ele>
<time>2024-05-08T12:16:10Z</time>
</trkpt>
<trkpt lat="49.28515998646617" lon="9.13309662602842">
<ele>140.4</ele>
<time>2024-05-08T12:16:12Z</time>
</trkpt>
<trkpt lat="49.28525537252426" lon="9.133083298802376">
<ele>140.4</ele>
<time>2024-05-08T12:16:13Z</time>
</trkpt>
<trkpt lat="49.28530499339104" lon="9.13307474926114">
<ele>140.4</ele>
<time>2024-05-08T12:16:15Z</time>
</trkpt>
<trkpt lat="49.28540415130555" lon="9.133061338216066">
<ele>140.4</ele>
<time>2024-05-08T12:16:17Z</time>
</trkpt>
<trkpt lat="49.285507164895535" lon="9.133058488368988">
<ele>140.4</ele>
<time>2024-05-08T12:16:19Z</time>
</trkpt>
<trkpt lat="49.28556055761874" lon="9.13305656053126">
<ele>140.4</ele>
<time>2024-05-08T12:16:20Z</time>
</trkpt>
<trkpt lat="49.28565594367683" lon="9.13305371068418">
<ele>140.4</ele>
<time>2024-05-08T12:16:22Z</time>
</trkpt>
<trkpt lat="49.28574747405946" lon="9.133051866665484">
<ele>140.4</ele>
<time>2024-05-08T12:16:23Z</time>
</trkpt>
<trkpt lat="49.28579709492624" lon="9.133049938827751">
<ele>140.4</ele>
<time>2024-05-08T12:16:25Z</time>
</trkpt>
<trkpt lat="49.28589625284076" lon="9.13305656053126">
<ele>140.4</ele>
<time>2024-05-08T12:16:27Z</time>
</trkpt>
<trkpt lat="49.28594587370753" lon="9.133065193891523">
<ele>140.4</ele>
<time>2024-05-08T12:16:28Z</time>
</trkpt>
<trkpt lat="49.28604503162205" lon="9.133078521117568">
<ele>140.4</ele>
<time>2024-05-08T12:16:30Z</time>
</trkpt>
<trkpt lat="49.28614804521203" lon="9.133078521117568">
<ele>140.4</ele>
<time>2024-05-08T12:16:31Z</time>
</trkpt>
<trkpt lat="49.28620143793523" lon="9.13307474926114">
<ele>140.4</ele>
<time>2024-05-08T12:16:32Z</time>
</trkpt>
<trkpt lat="49.28625105880201" lon="9.133067121729256">
<ele>140.4</ele>
<time>2024-05-08T12:16:34Z</time>
</trkpt>
<trkpt lat="49.286353988572955" lon="9.133049938827751">
<ele>140.4</ele>
<time>2024-05-08T12:16:35Z</time>
</trkpt>
<trkpt lat="49.28640360943973" lon="9.133040383458138">
<ele>140.2</ele>
<time>2024-05-08T12:16:36Z</time>
</trkpt>
<trkpt lat="49.28645700216293" lon="9.133029906079171">
<ele>140.2</ele>
<time>2024-05-08T12:16:38Z</time>
</trkpt>
<trkpt lat="49.28656001575291" lon="9.133003167808056">
<ele>140</ele>
<time>2024-05-08T12:16:39Z</time>
</trkpt>
<trkpt lat="49.286613408476114" lon="9.132987912744284">
<ele>139.8</ele>
<time>2024-05-08T12:16:41Z</time>
</trkpt>
<trkpt lat="49.28671642206609" lon="9.132953630760312">
<ele>139.8</ele>
<time>2024-05-08T12:16:43Z</time>
</trkpt>
<trkpt lat="49.2868232075125" lon="9.132911637425424">
<ele>139.6</ele>
<time>2024-05-08T12:16:44Z</time>
</trkpt>
<trkpt lat="49.28687282837927" lon="9.132888754829764">
<ele>139.6</ele>
<time>2024-05-08T12:16:46Z</time>
</trkpt>
<trkpt lat="49.28697584196925" lon="9.132841983810067">
<ele>139.4</ele>
<time>2024-05-08T12:16:47Z</time>
</trkpt>
<trkpt lat="49.287029234692454" lon="9.13282010704279">
<ele>139.2</ele>
<time>2024-05-08T12:16:48Z</time>
</trkpt>
<trkpt lat="49.28707885555923" lon="9.132795296609402">
<ele>139.2</ele>
<time>2024-05-08T12:16:50Z</time>
</trkpt>
<trkpt lat="49.287181785330176" lon="9.132735198363662">
<ele>139</ele>
<time>2024-05-08T12:16:51Z</time>
</trkpt>
<trkpt lat="49.28723140619695" lon="9.13270183838904">
<ele>138.8</ele>
<time>2024-05-08T12:16:53Z</time>
</trkpt>
<trkpt lat="49.28733441978693" lon="9.132635034620762">
<ele>138.8</ele>
<time>2024-05-08T12:16:54Z</time>
</trkpt>
<trkpt lat="49.287383956834674" lon="9.13260167464614">
<ele>138.6</ele>
<time>2024-05-08T12:16:55Z</time>
</trkpt>
<trkpt lat="49.28742980584502" lon="9.132568314671516">
<ele>138.6</ele>
<time>2024-05-08T12:16:56Z</time>
</trkpt>
<trkpt lat="49.287479342892766" lon="9.132532104849815">
<ele>138.6</ele>
<time>2024-05-08T12:16:57Z</time>
</trkpt>
<trkpt lat="49.28752896375954" lon="9.132496817037463">
<ele>138.6</ele>
<time>2024-05-08T12:16:58Z</time>
</trkpt>
<trkpt lat="49.287578500807285" lon="9.132461529225113">
<ele>138.6</ele>
<time>2024-05-08T12:17:00Z</time>
</trkpt>
<trkpt lat="49.28767774254083" lon="9.132388103753328">
<ele>138.6</ele>
<time>2024-05-08T12:17:02Z</time>
</trkpt>
<trkpt lat="49.28772350773215" lon="9.132347032427788">
<ele>138.6</ele>
<time>2024-05-08T12:17:03Z</time>
</trkpt>
<trkpt lat="49.28777312859893" lon="9.132301267236471">
<ele>138.6</ele>
<time>2024-05-08T12:17:04Z</time>
</trkpt>
<trkpt lat="49.287818893790245" lon="9.132260279729962">
<ele>138.6</ele>
<time>2024-05-08T12:17:05Z</time>
</trkpt>
<trkpt lat="49.28791042417288" lon="9.132178304716945">
<ele>138.6</ele>
<time>2024-05-08T12:17:07Z</time>
</trkpt>
<trkpt lat="49.28795241750777" lon="9.132135389372706">
<ele>138.6</ele>
<time>2024-05-08T12:17:08Z</time>
</trkpt>
<trkpt lat="49.28804009221494" lon="9.13204662501812">
<ele>138.6</ele>
<time>2024-05-08T12:17:10Z</time>
</trkpt>
<trkpt lat="49.28808585740626" lon="9.132003709673882">
<ele>138.6</ele>
<time>2024-05-08T12:17:11Z</time>
</trkpt>
<trkpt lat="49.28816984407604" lon="9.13191025145352">
<ele>138.6</ele>
<time>2024-05-08T12:17:12Z</time>
</trkpt>
<trkpt lat="49.288211753591895" lon="9.131866414099932">
<ele>138.6</ele>
<time>2024-05-08T12:17:13Z</time>
</trkpt>
<trkpt lat="49.288253746926785" lon="9.131821570917964">
<ele>138.4</ele>
<time>2024-05-08T12:17:14Z</time>
</trkpt>
<trkpt lat="49.2882995121181" lon="9.1317748837173">
<ele>138.4</ele>
<time>2024-05-08T12:17:16Z</time>
</trkpt>
<trkpt lat="49.28838341496885" lon="9.131685197353365">
<ele>138.2</ele>
<time>2024-05-08T12:17:17Z</time>
</trkpt>
<trkpt lat="49.28842540830374" lon="9.131640354171395">
<ele>138.2</ele>
<time>2024-05-08T12:17:18Z</time>
</trkpt>
<trkpt lat="49.288471173495054" lon="9.131596516817808">
<ele>138.2</ele>
<time>2024-05-08T12:17:20Z</time>
</trkpt>
<trkpt lat="49.2885550763458" lon="9.131504986435177">
<ele>138</ele>
<time>2024-05-08T12:17:22Z</time>
</trkpt>
<trkpt lat="49.28863520734012" lon="9.13141530007124">
<ele>137.8</ele>
<time>2024-05-08T12:17:23Z</time>
</trkpt>
<trkpt lat="49.28867720067501" lon="9.131371462717652">
<ele>137.8</ele>
<time>2024-05-08T12:17:24Z</time>
</trkpt>
<trkpt lat="49.28871911019087" lon="9.131324691697955">
<ele>137.8</ele>
<time>2024-05-08T12:17:25Z</time>
</trkpt>
<trkpt lat="49.28876110352576" lon="9.13127993233502">
<ele>138</ele>
<time>2024-05-08T12:17:26Z</time>
</trkpt>
<trkpt lat="49.28880309686065" lon="9.131233161315322">
<ele>138</ele>
<time>2024-05-08T12:17:27Z</time>
</trkpt>
<trkpt lat="49.288845006376505" lon="9.131190245971084">
<ele>138</ele>
<time>2024-05-08T12:17:29Z</time>
</trkpt>
<trkpt lat="49.28892890922725" lon="9.131103493273258">
<ele>137.8</ele>
<time>2024-05-08T12:17:30Z</time>
</trkpt>
<trkpt lat="49.28897090256214" lon="9.13105957210064">
<ele>137.8</ele>
<time>2024-05-08T12:17:31Z</time>
</trkpt>
<trkpt lat="49.28901289589703" lon="9.13101858459413">
<ele>137.8</ele>
<time>2024-05-08T12:17:32Z</time>
</trkpt>
<trkpt lat="49.28905480541289" lon="9.13097851909697">
<ele>137.8</ele>
<time>2024-05-08T12:17:34Z</time>
</trkpt>
<trkpt lat="49.289100570604205" lon="9.13093845359981">
<ele>137.8</ele>
<time>2024-05-08T12:17:35Z</time>
</trkpt>
<trkpt lat="49.28918832913041" lon="9.130858406424522">
<ele>138</ele>
<time>2024-05-08T12:17:36Z</time>
</trkpt>
<trkpt lat="49.2892303224653" lon="9.130818340927362">
<ele>138</ele>
<time>2024-05-08T12:17:38Z</time>
</trkpt>
<trkpt lat="49.28927223198116" lon="9.130780203267932">
<ele>138.2</ele>
<time>2024-05-08T12:17:39Z</time>
</trkpt>
<trkpt lat="49.28935999050736" lon="9.13070292212069">
<ele>138.2</ele>
<time>2024-05-08T12:17:40Z</time>
</trkpt>
<trkpt lat="49.289401983842254" lon="9.13066671229899">
<ele>138</ele>
<time>2024-05-08T12:17:41Z</time>
</trkpt>
<trkpt lat="49.28944774903357" lon="9.130631424486635">
<ele>138.2</ele>
<time>2024-05-08T12:17:42Z</time>
</trkpt>
<trkpt lat="49.28948974236846" lon="9.130598064512014">
<ele>138.2</ele>
<time>2024-05-08T12:17:44Z</time>
</trkpt>
<trkpt lat="49.28956978954375" lon="9.13052648305893">
<ele>138.4</ele>
<time>2024-05-08T12:17:45Z</time>
</trkpt>
<trkpt lat="49.28961178287864" lon="9.130491195246575">
<ele>138.4</ele>
<time>2024-05-08T12:17:46Z</time>
</trkpt>
<trkpt lat="49.28965377621353" lon="9.130457835271956">
<ele>138.6</ele>
<time>2024-05-08T12:17:47Z</time>
</trkpt>
<trkpt lat="49.28969954140484" lon="9.13042640313506">
<ele>138.6</ele>
<time>2024-05-08T12:17:48Z</time>
</trkpt>
<trkpt lat="49.2897414509207" lon="9.130396815016866">
<ele>138.6</ele>
<time>2024-05-08T12:17:49Z</time>
</trkpt>
<trkpt lat="49.28978721611202" lon="9.13036529906094">
<ele>138.8</ele>
<time>2024-05-08T12:17:51Z</time>
</trkpt>
<trkpt lat="49.28982920944691" lon="9.130334788933396">
<ele>138.8</ele>
<time>2024-05-08T12:17:52Z</time>
</trkpt>
<trkpt lat="49.28991696797311" lon="9.130274690687656">
<ele>138.8</ele>
<time>2024-05-08T12:17:54Z</time>
</trkpt>
<trkpt lat="49.28996273316443" lon="9.130247114226222">
<ele>139</ele>
<time>2024-05-08T12:17:55Z</time>
</trkpt>
<trkpt lat="49.29005426354706" lon="9.13018986582756">
<ele>139</ele>
<time>2024-05-08T12:17:57Z</time>
</trkpt>
<trkpt lat="49.290145793929696" lon="9.130136473104358">
<ele>139</ele>
<time>2024-05-08T12:17:58Z</time>
</trkpt>
<trkpt lat="49.29018401540816" lon="9.13011166267097">
<ele>138.8</ele>
<time>2024-05-08T12:17:59Z</time>
</trkpt>
<trkpt lat="49.290225924924016" lon="9.13009162992239">
<ele>138.8</ele>
<time>2024-05-08T12:18:00Z</time>
</trkpt>
<trkpt lat="49.29027169011533" lon="9.130066819489002">
<ele>138.8</ele>
<time>2024-05-08T12:18:02Z</time>
</trkpt>
<trkpt lat="49.290363304317" lon="9.130015354603527">
<ele>139</ele>
<time>2024-05-08T12:18:03Z</time>
</trkpt>
<trkpt lat="49.290409069508314" lon="9.12999146617949">
<ele>139</ele>
<time>2024-05-08T12:18:05Z</time>
</trkpt>
<trkpt lat="49.290504455566406" lon="9.129948550835252">
<ele>139</ele>
<time>2024-05-08T12:18:06Z</time>
</trkpt>
<trkpt lat="49.29055399261415" lon="9.129926674067974">
<ele>139</ele>
<time>2024-05-08T12:18:07Z</time>
</trkpt>
<trkpt lat="49.29059975780547" lon="9.129906641319394">
<ele>139</ele>
<time>2024-05-08T12:18:09Z</time>
</trkpt>
<trkpt lat="49.29064175114035" lon="9.129886608570814">
<ele>139</ele>
<time>2024-05-08T12:18:10Z</time>
</trkpt>
<trkpt lat="49.29072950966656" lon="9.129853248596191">
<ele>139</ele>
<time>2024-05-08T12:18:12Z</time>
</trkpt>
<trkpt lat="49.29077527485788" lon="9.129837909713387">
<ele>138.8</ele>
<time>2024-05-08T12:18:13Z</time>
</trkpt>
<trkpt lat="49.29087066091597" lon="9.129813183099031">
<ele>138.8</ele>
<time>2024-05-08T12:18:14Z</time>
</trkpt>
<trkpt lat="49.29091642610729" lon="9.129799772053955">
<ele>138.6</ele>
<time>2024-05-08T12:18:15Z</time>
</trkpt>
<trkpt lat="49.29096596315503" lon="9.129783594980836">
<ele>138.6</ele>
<time>2024-05-08T12:18:16Z</time>
</trkpt>
<trkpt lat="49.29101558402181" lon="9.129766412079334">
<ele>138.4</ele>
<time>2024-05-08T12:18:18Z</time>
</trkpt>
<trkpt lat="49.29106520488858" lon="9.129750235006211">
<ele>138.4</ele>
<time>2024-05-08T12:18:19Z</time>
</trkpt>
<trkpt lat="49.291156735271215" lon="9.129718719050288">
<ele>138.2</ele>
<time>2024-05-08T12:18:21Z</time>
</trkpt>
<trkpt lat="49.29120250046253" lon="9.129708241671324">
<ele>138.2</ele>
<time>2024-05-08T12:18:22Z</time>
</trkpt>
<trkpt lat="49.291297886520624" lon="9.12969491444528">
<ele>138.2</ele>
<time>2024-05-08T12:18:24Z</time>
</trkpt>
<trkpt lat="49.29139327257872" lon="9.129690136760471">
<ele>138.4</ele>
<time>2024-05-08T12:18:25Z</time>
</trkpt>
<trkpt lat="49.29144280962646" lon="9.129688208922744">
<ele>138.2</ele>
<time>2024-05-08T12:18:27Z</time>
</trkpt>
<trkpt lat="49.29154205136001" lon="9.129685359075664">
<ele>138.2</ele>
<time>2024-05-08T12:18:28Z</time>
</trkpt>
<trkpt lat="49.29158781655133" lon="9.129685359075664">
<ele>138.2</ele>
<time>2024-05-08T12:18:29Z</time>
</trkpt>
<trkpt lat="49.29163358174264" lon="9.129683431237936">
<ele>138.2</ele>
<time>2024-05-08T12:18:30Z</time>
</trkpt>
<trkpt lat="49.29167934693396" lon="9.129683431237936">
<ele>138.2</ele>
<time>2024-05-08T12:18:31Z</time>
</trkpt>
<trkpt lat="49.29172511212528" lon="9.129683431237936">
<ele>138.2</ele>
<time>2024-05-08T12:18:32Z</time>
</trkpt>
<trkpt lat="49.291770877316594" lon="9.129681587219238">
<ele>138.2</ele>
<time>2024-05-08T12:18:34Z</time>
</trkpt>
<trkpt lat="49.291866263374686" lon="9.129681587219238">
<ele>138</ele>
<time>2024-05-08T12:18:35Z</time>
</trkpt>
<trkpt lat="49.291912028566" lon="9.129683431237936">
<ele>138</ele>
<time>2024-05-08T12:18:37Z</time>
</trkpt>
<trkpt lat="49.292007414624095" lon="9.129686281085014">
<ele>138</ele>
<time>2024-05-08T12:18:38Z</time>
</trkpt>
<trkpt lat="49.29205317981541" lon="9.129686281085014">
<ele>138</ele>
<time>2024-05-08T12:18:39Z</time>
</trkpt>
<trkpt lat="49.29210280068219" lon="9.129688208922744">
<ele>138</ele>
<time>2024-05-08T12:18:41Z</time>
</trkpt>
<trkpt lat="49.29219810292125" lon="9.129692986607552">
<ele>138</ele>
<time>2024-05-08T12:18:42Z</time>
</trkpt>
<trkpt lat="49.29224772378802" lon="9.129698686301708">
<ele>138</ele>
<time>2024-05-08T12:18:43Z</time>
</trkpt>
<trkpt lat="49.2922973446548" lon="9.129701536148788">
<ele>138</ele>
<time>2024-05-08T12:18:44Z</time>
</trkpt>
<trkpt lat="49.292350737378" lon="9.129703463986516">
<ele>138</ele>
<time>2024-05-08T12:18:45Z</time>
</trkpt>
<trkpt lat="49.2924041301012" lon="9.129706313833594">
<ele>138</ele>
<time>2024-05-08T12:18:46Z</time>
</trkpt>
<trkpt lat="49.29245375096798" lon="9.129712097346784">
<ele>138</ele>
<time>2024-05-08T12:18:47Z</time>
</trkpt>
<trkpt lat="49.29250714369118" lon="9.12971494719386">
<ele>138</ele>
<time>2024-05-08T12:18:48Z</time>
</trkpt>
<trkpt lat="49.292556680738926" lon="9.129719724878669">
<ele>138</ele>
<time>2024-05-08T12:18:49Z</time>
</trkpt>
<trkpt lat="49.29261015728116" lon="9.129726346582174">
<ele>138</ele>
<time>2024-05-08T12:18:51Z</time>
</trkpt>
<trkpt lat="49.29270931519568" lon="9.129745457321404">
<ele>138</ele>
<time>2024-05-08T12:18:52Z</time>
</trkpt>
<trkpt lat="49.29275508038699" lon="9.1297578625381">
<ele>138</ele>
<time>2024-05-08T12:18:53Z</time>
</trkpt>
<trkpt lat="49.29280470125377" lon="9.129773117601871">
<ele>138</ele>
<time>2024-05-08T12:18:54Z</time>
</trkpt>
<trkpt lat="49.29285423830152" lon="9.129786444827914">
<ele>138</ele>
<time>2024-05-08T12:18:55Z</time>
</trkpt>
<trkpt lat="49.29290385916829" lon="9.129799772053955">
<ele>138.2</ele>
<time>2024-05-08T12:18:56Z</time>
</trkpt>
<trkpt lat="49.29295348003507" lon="9.12981796078384">
<ele>138.2</ele>
<time>2024-05-08T12:18:57Z</time>
</trkpt>
<trkpt lat="49.29300301708281" lon="9.12983698770404">
<ele>138.2</ele>
<time>2024-05-08T12:18:58Z</time>
</trkpt>
<trkpt lat="49.293052637949586" lon="9.12985702045262">
<ele>138.4</ele>
<time>2024-05-08T12:18:59Z</time>
</trkpt>
<trkpt lat="49.2930984031409" lon="9.12987512536347">
<ele>138.4</ele>
<time>2024-05-08T12:19:00Z</time>
</trkpt>
<trkpt lat="49.29314802400768" lon="9.129891386255622">
<ele>138.4</ele>
<time>2024-05-08T12:19:01Z</time>
</trkpt>
<trkpt lat="49.29319756105542" lon="9.12991041317582">
<ele>138.4</ele>
<time>2024-05-08T12:19:02Z</time>
</trkpt>
<trkpt lat="49.293251037597656" lon="9.129928518086672">
<ele>138.4</ele>
<time>2024-05-08T12:19:03Z</time>
</trkpt>
<trkpt lat="49.29329680278897" lon="9.129948550835252">
<ele>138.4</ele>
<time>2024-05-08T12:19:04Z</time>
</trkpt>
<trkpt lat="49.29334633983672" lon="9.129966655746102">
<ele>138.2</ele>
<time>2024-05-08T12:19:05Z</time>
</trkpt>
<trkpt lat="49.29339596070349" lon="9.129986688494682">
<ele>138.2</ele>
<time>2024-05-08T12:19:06Z</time>
</trkpt>
<trkpt lat="49.29344172589481" lon="9.130006721243262">
<ele>138.2</ele>
<time>2024-05-08T12:19:07Z</time>
</trkpt>
<trkpt lat="49.293491346761584" lon="9.13002960383892">
<ele>138.2</ele>
<time>2024-05-08T12:19:09Z</time>
</trkpt>
<trkpt lat="49.29358287714422" lon="9.130076374858618">
<ele>138.2</ele>
<time>2024-05-08T12:19:10Z</time>
</trkpt>
<trkpt lat="49.293628642335534" lon="9.130100179463623">
<ele>138.2</ele>
<time>2024-05-08T12:19:11Z</time>
</trkpt>
<trkpt lat="49.29367826320231" lon="9.130121218040586">
<ele>138.2</ele>
<time>2024-05-08T12:19:13Z</time>
</trkpt>
<trkpt lat="49.293724028393626" lon="9.130147872492673">
<ele>138.2</ele>
<time>2024-05-08T12:19:14Z</time>
</trkpt>
<trkpt lat="49.29381941445172" lon="9.130203193053603">
<ele>138.2</ele>
<time>2024-05-08T12:19:15Z</time>
</trkpt>
<trkpt lat="49.293865179643035" lon="9.130233703181148">
<ele>138.2</ele>
<time>2024-05-08T12:19:16Z</time>
</trkpt>
<trkpt lat="49.29391471669078" lon="9.130263291299345">
<ele>138.2</ele>
<time>2024-05-08T12:19:17Z</time>
</trkpt>
<trkpt lat="49.293964337557554" lon="9.130291873589158">
<ele>138.2</ele>
<time>2024-05-08T12:19:18Z</time>
</trkpt>
<trkpt lat="49.29401010274887" lon="9.130319533869624">
<ele>138.2</ele>
<time>2024-05-08T12:19:19Z</time>
</trkpt>
<trkpt lat="49.294059723615646" lon="9.130350043997169">
<ele>138.2</ele>
<time>2024-05-08T12:19:20Z</time>
</trkpt>
<trkpt lat="49.29410934448242" lon="9.130381559953094">
<ele>138.2</ele>
<time>2024-05-08T12:19:21Z</time>
</trkpt>
<trkpt lat="49.29415510967374" lon="9.130412070080638">
<ele>138.2</ele>
<time>2024-05-08T12:19:22Z</time>
</trkpt>
<trkpt lat="49.29420850239694" lon="9.130441658198832">
<ele>138.2</ele>
<time>2024-05-08T12:19:23Z</time>
</trkpt>
<trkpt lat="49.294258039444685" lon="9.130470240488648">
<ele>138.2</ele>
<time>2024-05-08T12:19:24Z</time>
</trkpt>
<trkpt lat="49.29430388845503" lon="9.130499828606844">
<ele>138.2</ele>
<time>2024-05-08T12:19:26Z</time>
</trkpt>
<trkpt lat="49.29440304636955" lon="9.130561770871282">
<ele>138.2</ele>
<time>2024-05-08T12:19:27Z</time>
</trkpt>
<trkpt lat="49.29445266723633" lon="9.130597058683634">
<ele>138.2</ele>
<time>2024-05-08T12:19:28Z</time>
</trkpt>
<trkpt lat="49.29450220428407" lon="9.130629496648908">
<ele>138.2</ele>
<time>2024-05-08T12:19:29Z</time>
</trkpt>
<trkpt lat="49.29454796947539" lon="9.13066478446126">
<ele>138.2</ele>
<time>2024-05-08T12:19:30Z</time>
</trkpt>
<trkpt lat="49.29459759034216" lon="9.130698144435884">
<ele>138.2</ele>
<time>2024-05-08T12:19:32Z</time>
</trkpt>
<trkpt lat="49.29464335553348" lon="9.130729660391808">
<ele>138.2</ele>
<time>2024-05-08T12:19:33Z</time>
</trkpt>
<trkpt lat="49.29473874159157" lon="9.130794452503324">
<ele>138.2</ele>
<time>2024-05-08T12:19:34Z</time>
</trkpt>
<trkpt lat="49.29478450678289" lon="9.130826890468596">
<ele>138.2</ele>
<time>2024-05-08T12:19:35Z</time>
</trkpt>
<trkpt lat="49.294830271974206" lon="9.130856478586791">
<ele>138.2</ele>
<time>2024-05-08T12:19:36Z</time>
</trkpt>
<trkpt lat="49.29487989284098" lon="9.130891766399143">
<ele>138.2</ele>
<time>2024-05-08T12:19:37Z</time>
</trkpt>
<trkpt lat="49.2949256580323" lon="9.130925126373768">
<ele>138.2</ele>
<time>2024-05-08T12:19:38Z</time>
</trkpt>
<trkpt lat="49.294971423223615" lon="9.130956642329693">
<ele>138.2</ele>
<time>2024-05-08T12:19:39Z</time>
</trkpt>
<trkpt lat="49.29502104409039" lon="9.130988074466586">
<ele>138.4</ele>
<time>2024-05-08T12:19:41Z</time>
</trkpt>
<trkpt lat="49.295070581138134" lon="9.131023362278938">
<ele>138.4</ele>
<time>2024-05-08T12:19:42Z</time>
</trkpt>
<trkpt lat="49.29512020200491" lon="9.13105672225356">
<ele>138.6</ele>
<time>2024-05-08T12:19:43Z</time>
</trkpt>
<trkpt lat="49.29521173238754" lon="9.13111874833703">
<ele>138.8</ele>
<time>2024-05-08T12:19:44Z</time>
</trkpt>
<trkpt lat="49.29525749757886" lon="9.131148336455226">
<ele>138.8</ele>
<time>2024-05-08T12:19:45Z</time>
</trkpt>
<trkpt lat="49.29529949091375" lon="9.13117976859212">
<ele>139</ele>
<time>2024-05-08T12:19:47Z</time>
</trkpt>
<trkpt lat="49.295387249439955" lon="9.131241794675589">
<ele>139</ele>
<time>2024-05-08T12:19:49Z</time>
</trkpt>
<trkpt lat="49.29546729661524" lon="9.131291331723332">
<ele>139.2</ele>
<time>2024-05-08T12:19:51Z</time>
</trkpt>
<trkpt lat="49.29554742760956" lon="9.13133810274303">
<ele>139.4</ele>
<time>2024-05-08T12:19:53Z</time>
</trkpt>
<trkpt lat="49.295581793412566" lon="9.131366685032845">
<ele>139.4</ele>
<time>2024-05-08T12:19:54Z</time>
</trkpt>
<trkpt lat="49.295619931072" lon="9.13139627315104">
<ele>139.6</ele>
<time>2024-05-08T12:19:55Z</time>
</trkpt>
<trkpt lat="49.29569620639086" lon="9.131449665874245">
<ele>139.8</ele>
<time>2024-05-08T12:19:56Z</time>
</trkpt>
<trkpt lat="49.29573434405029" lon="9.131478248164058">
<ele>140</ele>
<time>2024-05-08T12:19:58Z</time>
</trkpt>
<trkpt lat="49.29577633738518" lon="9.131504986435177">
<ele>140.2</ele>
<time>2024-05-08T12:19:59Z</time>
</trkpt>
<trkpt lat="49.29581447504461" lon="9.131529796868564">
<ele>140.4</ele>
<time>2024-05-08T12:20:00Z</time>
</trkpt>
<trkpt lat="49.29589460603893" lon="9.131578411906958">
<ele>140.8</ele>
<time>2024-05-08T12:20:02Z</time>
</trkpt>
<trkpt lat="49.29596702568233" lon="9.13163180463016">
<ele>141.4</ele>
<time>2024-05-08T12:20:03Z</time>
</trkpt>
<trkpt lat="49.29600524716079" lon="9.131660386919975">
<ele>141.6</ele>
<time>2024-05-08T12:20:04Z</time>
</trkpt>
<trkpt lat="49.29603952914477" lon="9.131686203181744">
<ele>141.8</ele>
<time>2024-05-08T12:20:05Z</time>
</trkpt>
<trkpt lat="49.29607003927231" lon="9.13171285763383">
<ele>142</ele>
<time>2024-05-08T12:20:06Z</time>
</trkpt>
<trkpt lat="49.29610054939985" lon="9.131743367761374">
<ele>142.2</ele>
<time>2024-05-08T12:20:07Z</time>
</trkpt>
<trkpt lat="49.2961310595274" lon="9.1317748837173">
<ele>142.6</ele>
<time>2024-05-08T12:20:08Z</time>
</trkpt>
<trkpt lat="49.296157797798514" lon="9.13180824369192">
<ele>142.8</ele>
<time>2024-05-08T12:20:09Z</time>
</trkpt>
<trkpt lat="49.29618068039417" lon="9.131843531504272">
<ele>143</ele>
<time>2024-05-08T12:20:10Z</time>
</trkpt>
<trkpt lat="49.29620741866529" lon="9.131874963641168">
<ele>143.2</ele>
<time>2024-05-08T12:20:12Z</time>
</trkpt>
<trkpt lat="49.296256955713034" lon="9.131936989724636">
<ele>143.6</ele>
<time>2024-05-08T12:20:14Z</time>
</trkpt>
<trkpt lat="49.296314204111695" lon="9.131993232294915">
<ele>143.8</ele>
<time>2024-05-08T12:20:15Z</time>
</trkpt>
<trkpt lat="49.29634471423924" lon="9.132021898403764">
<ele>144</ele>
<time>2024-05-08T12:20:16Z</time>
</trkpt>
<trkpt lat="49.296375224366784" lon="9.13204855285585">
<ele>144</ele>
<time>2024-05-08T12:20:17Z</time>
</trkpt>
<trkpt lat="49.29640959016979" lon="9.132075291126966">
<ele>144</ele>
<time>2024-05-08T12:20:18Z</time>
</trkpt>
<trkpt lat="49.29644387215376" lon="9.13210865110159">
<ele>144</ele>
<time>2024-05-08T12:20:19Z</time>
</trkpt>
<trkpt lat="49.29646675474942" lon="9.132155338302256">
<ele>143.8</ele>
<time>2024-05-08T12:20:20Z</time>
</trkpt>
<trkpt lat="49.29648963734507" lon="9.132213592529297">
<ele>143.8</ele>
<time>2024-05-08T12:20:22Z</time>
</trkpt>
<trkpt lat="49.29650489240885" lon="9.132269835099578">
<ele>143.6</ele>
<time>2024-05-08T12:20:23Z</time>
</trkpt>
<trkpt lat="49.29651637561619" lon="9.13232515566051">
<ele>143.4</ele>
<time>2024-05-08T12:20:24Z</time>
</trkpt>
<trkpt lat="49.296531630679965" lon="9.132378548383713">
<ele>143.2</ele>
<time>2024-05-08T12:20:25Z</time>
</trkpt>
<trkpt lat="49.29653925821185" lon="9.132431941106915">
<ele>143</ele>
<time>2024-05-08T12:20:26Z</time>
</trkpt>
<trkpt lat="49.29656599648297" lon="9.132548281922936">
<ele>142.4</ele>
<time>2024-05-08T12:20:28Z</time>
</trkpt>
<trkpt lat="49.29658125154674" lon="9.132611230015756">
<ele>142</ele>
<time>2024-05-08T12:20:29Z</time>
</trkpt>
<trkpt lat="49.29660027846694" lon="9.132677949965">
<ele>141.8</ele>
<time>2024-05-08T12:20:30Z</time>
</trkpt>
<trkpt lat="49.29664227180183" lon="9.132835362106562">
<ele>141</ele>
<time>2024-05-08T12:20:31Z</time>
</trkpt>
<trkpt lat="49.29666515439749" lon="9.13291834294796">
<ele>140.8</ele>
<time>2024-05-08T12:20:32Z</time>
</trkpt>
<trkpt lat="49.296691892668605" lon="9.133003167808056">
<ele>140.4</ele>
<time>2024-05-08T12:20:33Z</time>
</trkpt>
<trkpt lat="49.29671477526426" lon="9.13309184834361">
<ele>140.2</ele>
<time>2024-05-08T12:20:34Z</time>
</trkpt>
<trkpt lat="49.29674142971635" lon="9.133181534707546">
<ele>139.8</ele>
<time>2024-05-08T12:20:36Z</time>
</trkpt>
<trkpt lat="49.296768167987466" lon="9.133277842774987">
<ele>139.6</ele>
<time>2024-05-08T12:20:37Z</time>
</trkpt>
<trkpt lat="49.29679482243955" lon="9.133378006517887">
<ele>139.2</ele>
<time>2024-05-08T12:20:38Z</time>
</trkpt>
<trkpt lat="49.29683681577444" lon="9.13356970064342">
<ele>138.8</ele>
<time>2024-05-08T12:20:40Z</time>
</trkpt>
<trkpt lat="49.29687118157744" lon="9.133754689246416">
<ele>138.2</ele>
<time>2024-05-08T12:20:41Z</time>
</trkpt>
<trkpt lat="49.29688258096576" lon="9.13384621962905">
<ele>137.8</ele>
<time>2024-05-08T12:20:42Z</time>
</trkpt>
<trkpt lat="49.2968940641731" lon="9.133936828002334">
<ele>137.6</ele>
<time>2024-05-08T12:20:43Z</time>
</trkpt>
<trkpt lat="49.296909319236875" lon="9.13402366451919">
<ele>137.4</ele>
<time>2024-05-08T12:20:45Z</time>
</trkpt>
<trkpt lat="49.29693220183253" lon="9.13420194759965">
<ele>137</ele>
<time>2024-05-08T12:20:47Z</time>
</trkpt>
<trkpt lat="49.29693982936442" lon="9.134288784116508">
<ele>137</ele>
<time>2024-05-08T12:20:48Z</time>
</trkpt>
<trkpt lat="49.296947456896305" lon="9.134371681138871">
<ele>136.8</ele>
<time>2024-05-08T12:20:49Z</time>
</trkpt>
<trkpt lat="49.29695508442819" lon="9.13453864865005">
<ele>136.6</ele>
<time>2024-05-08T12:20:50Z</time>
</trkpt>
<trkpt lat="49.29695885628462" lon="9.134614923968911">
<ele>136.6</ele>
<time>2024-05-08T12:20:52Z</time>
</trkpt>
<trkpt lat="49.296966483816504" lon="9.134777951985598">
<ele>136.4</ele>
<time>2024-05-08T12:20:53Z</time>
</trkpt>
<trkpt lat="49.29697411134839" lon="9.13485523313284">
<ele>136.4</ele>
<time>2024-05-08T12:20:54Z</time>
</trkpt>
<trkpt lat="49.296985594555736" lon="9.134928658604622">
<ele>136.4</ele>
<time>2024-05-08T12:20:56Z</time>
</trkpt>
<trkpt lat="49.29697796702385" lon="9.135002084076405">
<ele>136.4</ele>
<time>2024-05-08T12:20:57Z</time>
</trkpt>
<trkpt lat="49.29695885628462" lon="9.13514801301062">
<ele>136.4</ele>
<time>2024-05-08T12:20:58Z</time>
</trkpt>
<trkpt lat="49.296943601220846" lon="9.135219510644674">
<ele>136.4</ele>
<time>2024-05-08T12:21:00Z</time>
</trkpt>
<trkpt lat="49.296928346157074" lon="9.135361667722464">
<ele>136.6</ele>
<time>2024-05-08T12:21:02Z</time>
</trkpt>
<trkpt lat="49.2969130910933" lon="9.135490413755178">
<ele>136.6</ele>
<time>2024-05-08T12:21:03Z</time>
</trkpt>
<trkpt lat="49.296905463561416" lon="9.135561911389232">
<ele>136.6</ele>
<time>2024-05-08T12:21:04Z</time>
</trkpt>
<trkpt lat="49.29689783602953" lon="9.135628631338475">
<ele>136.8</ele>
<time>2024-05-08T12:21:06Z</time>
</trkpt>
<trkpt lat="49.29687118157744" lon="9.135758383199573">
<ele>136.8</ele>
<time>2024-05-08T12:21:08Z</time>
</trkpt>
<trkpt lat="49.29683681577444" lon="9.1358985286206">
<ele>136.8</ele>
<time>2024-05-08T12:21:10Z</time>
</trkpt>
<trkpt lat="49.29681770503521" lon="9.135968182235956">
<ele>136.8</ele>
<time>2024-05-08T12:21:11Z</time>
</trkpt>
<trkpt lat="49.29679867811501" lon="9.13603875786066">
<ele>136.8</ele>
<time>2024-05-08T12:21:12Z</time>
</trkpt>
<trkpt lat="49.29677956737578" lon="9.136106483638288">
<ele>136.8</ele>
<time>2024-05-08T12:21:13Z</time>
</trkpt>
<trkpt lat="49.29675668478012" lon="9.136170353740454">
<ele>137</ele>
<time>2024-05-08T12:21:14Z</time>
</trkpt>
<trkpt lat="49.29673765785992" lon="9.13623807951808">
<ele>137</ele>
<time>2024-05-08T12:21:15Z</time>
</trkpt>
<trkpt lat="49.29670329205692" lon="9.136371603235602">
<ele>137</ele>
<time>2024-05-08T12:21:16Z</time>
</trkpt>
<trkpt lat="49.29668426513672" lon="9.136441173031926">
<ele>137</ele>
<time>2024-05-08T12:21:17Z</time>
</trkpt>
<trkpt lat="49.29666515439749" lon="9.136506970971825">
<ele>137.2</ele>
<time>2024-05-08T12:21:19Z</time>
</trkpt>
<trkpt lat="49.29663464426994" lon="9.136638566851616">
<ele>137.2</ele>
<time>2024-05-08T12:21:21Z</time>
</trkpt>
<trkpt lat="49.296592650935054" lon="9.13677116855979">
<ele>137.2</ele>
<time>2024-05-08T12:21:23Z</time>
</trkpt>
<trkpt lat="49.296573624014854" lon="9.13683126680553">
<ele>137.2</ele>
<time>2024-05-08T12:21:24Z</time>
</trkpt>
<trkpt lat="49.29654311388731" lon="9.136958085000517">
<ele>137.2</ele>
<time>2024-05-08T12:21:25Z</time>
</trkpt>
<trkpt lat="49.29652023129165" lon="9.137021955102682">
<ele>137.2</ele>
<time>2024-05-08T12:21:26Z</time>
</trkpt>
<trkpt lat="49.29650112055242" lon="9.137082975357773">
<ele>137.2</ele>
<time>2024-05-08T12:21:27Z</time>
</trkpt>
<trkpt lat="49.29648200981319" lon="9.13714785128832">
<ele>137.2</ele>
<time>2024-05-08T12:21:28Z</time>
</trkpt>
<trkpt lat="49.29646298289299" lon="9.13720794953406">
<ele>137.2</ele>
<time>2024-05-08T12:21:29Z</time>
</trkpt>
<trkpt lat="49.29644387215376" lon="9.137273747473955">
<ele>137.2</ele>
<time>2024-05-08T12:21:31Z</time>
</trkpt>
<trkpt lat="49.29640573449433" lon="9.137406349182127">
<ele>137.2</ele>
<time>2024-05-08T12:21:32Z</time>
</trkpt>
<trkpt lat="49.29638670757413" lon="9.137471141293643">
<ele>137.4</ele>
<time>2024-05-08T12:21:33Z</time>
</trkpt>
<trkpt lat="49.2963675968349" lon="9.137535095214844">
<ele>137.4</ele>
<time>2024-05-08T12:21:34Z</time>
</trkpt>
<trkpt lat="49.29634471423924" lon="9.13759988732636">
<ele>137.4</ele>
<time>2024-05-08T12:21:35Z</time>
</trkpt>
<trkpt lat="49.29632945917547" lon="9.13766191340983">
<ele>137.4</ele>
<time>2024-05-08T12:21:36Z</time>
</trkpt>
<trkpt lat="49.29631034843624" lon="9.137726705521343">
<ele>137.4</ele>
<time>2024-05-08T12:21:37Z</time>
</trkpt>
<trkpt lat="49.29628369398415" lon="9.137791581451893">
<ele>137.4</ele>
<time>2024-05-08T12:21:38Z</time>
</trkpt>
<trkpt lat="49.296256955713034" lon="9.13785645738244">
<ele>137.4</ele>
<time>2024-05-08T12:21:39Z</time>
</trkpt>
<trkpt lat="49.296237928792834" lon="9.137925105169415">
<ele>137.4</ele>
<time>2024-05-08T12:21:40Z</time>
</trkpt>
<trkpt lat="49.29622267372906" lon="9.137976570054889">
<ele>137.4</ele>
<time>2024-05-08T12:21:41Z</time>
</trkpt>
<trkpt lat="49.29619979113341" lon="9.138030046597123">
<ele>137.4</ele>
<time>2024-05-08T12:21:43Z</time>
</trkpt>
<trkpt lat="49.29615017026663" lon="9.138146387413144">
<ele>137.4</ele>
<time>2024-05-08T12:21:44Z</time>
</trkpt>
<trkpt lat="49.29612343199551" lon="9.13821310736239">
<ele>137.4</ele>
<time>2024-05-08T12:21:45Z</time>
</trkpt>
<trkpt lat="49.296096777543426" lon="9.13827513344586">
<ele>137.4</ele>
<time>2024-05-08T12:21:47Z</time>
</trkpt>
<trkpt lat="49.29607389494777" lon="9.138338081538675">
<ele>137.4</ele>
<time>2024-05-08T12:21:48Z</time>
</trkpt>
<trkpt lat="49.29602812975645" lon="9.13846867159009">
<ele>137.2</ele>
<time>2024-05-08T12:21:50Z</time>
</trkpt>
<trkpt lat="49.29600524716079" lon="9.138533547520638">
<ele>137.2</ele>
<time>2024-05-08T12:21:51Z</time>
</trkpt>
<trkpt lat="49.2959822807461" lon="9.138593645766376">
<ele>137.4</ele>
<time>2024-05-08T12:21:52Z</time>
</trkpt>
<trkpt lat="49.29593274369836" lon="9.138711914420128">
<ele>137.4</ele>
<time>2024-05-08T12:21:53Z</time>
</trkpt>
<trkpt lat="49.295902233570814" lon="9.138770084828138">
<ele>137.6</ele>
<time>2024-05-08T12:21:55Z</time>
</trkpt>
<trkpt lat="49.29585261270404" lon="9.13888449780643">
<ele>137.6</ele>
<time>2024-05-08T12:21:57Z</time>
</trkpt>
<trkpt lat="49.29579921998083" lon="9.139001844450831">
<ele>137.6</ele>
<time>2024-05-08T12:21:58Z</time>
</trkpt>
<trkpt lat="49.29577248170972" lon="9.139064708724618">
<ele>137.6</ele>
<time>2024-05-08T12:21:59Z</time>
</trkpt>
<trkpt lat="49.29574582725763" lon="9.139118185266852">
<ele>137.4</ele>
<time>2024-05-08T12:22:01Z</time>
</trkpt>
<trkpt lat="49.295722944661975" lon="9.139168728142977">
<ele>137.4</ele>
<time>2024-05-08T12:22:02Z</time>
</trkpt>
<trkpt lat="49.29570006206632" lon="9.13921826519072">
<ele>137.4</ele>
<time>2024-05-08T12:22:03Z</time>
</trkpt>
<trkpt lat="49.2956733237952" lon="9.139267886057496">
<ele>137.4</ele>
<time>2024-05-08T12:22:04Z</time>
</trkpt>
<trkpt lat="49.29563133046031" lon="9.139354638755322">
<ele>137.4</ele>
<time>2024-05-08T12:22:05Z</time>
</trkpt>
<trkpt lat="49.29560844786465" lon="9.13940140977502">
<ele>137.6</ele>
<time>2024-05-08T12:22:06Z</time>
</trkpt>
<trkpt lat="49.295581793412566" lon="9.139450024813414">
<ele>137.6</ele>
<time>2024-05-08T12:22:07Z</time>
</trkpt>
<trkpt lat="49.29555505514145" lon="9.139512050896885">
<ele>137.6</ele>
<time>2024-05-08T12:22:09Z</time>
</trkpt>
<trkpt lat="49.29553602822125" lon="9.139581620693209">
<ele>137.6</ele>
<time>2024-05-08T12:22:10Z</time>
</trkpt>
<trkpt lat="49.29552077315748" lon="9.13965697400272">
<ele>137.6</ele>
<time>2024-05-08T12:22:11Z</time>
</trkpt>
<trkpt lat="49.29552077315748" lon="9.139728471636772">
<ele>137.6</ele>
<time>2024-05-08T12:22:12Z</time>
</trkpt>
<trkpt lat="49.29552840068936" lon="9.139796197414398">
<ele>137.8</ele>
<time>2024-05-08T12:22:13Z</time>
</trkpt>
<trkpt lat="49.29553217254579" lon="9.139868700876832">
<ele>137.8</ele>
<time>2024-05-08T12:22:14Z</time>
</trkpt>
<trkpt lat="49.29553602822125" lon="9.13993357680738">
<ele>137.8</ele>
<time>2024-05-08T12:22:15Z</time>
</trkpt>
<trkpt lat="49.295543655753136" lon="9.140063244849443">
<ele>137.8</ele>
<time>2024-05-08T12:22:17Z</time>
</trkpt>
<trkpt lat="49.29553980007768" lon="9.140131892636418">
<ele>137.8</ele>
<time>2024-05-08T12:22:18Z</time>
</trkpt>
<trkpt lat="49.29551691748202" lon="9.140274971723557">
<ele>137.8</ele>
<time>2024-05-08T12:22:20Z</time>
</trkpt>
<trkpt lat="49.29550928995013" lon="9.14034646935761">
<ele>137.8</ele>
<time>2024-05-08T12:22:21Z</time>
</trkpt>
<trkpt lat="49.29548263549805" lon="9.140498097985985">
<ele>137.8</ele>
<time>2024-05-08T12:22:23Z</time>
</trkpt>
<trkpt lat="49.29547492414713" lon="9.140573451295497">
<ele>137.8</ele>
<time>2024-05-08T12:22:24Z</time>
</trkpt>
<trkpt lat="49.295463524758816" lon="9.140644948929548">
<ele>137.8</ele>
<time>2024-05-08T12:22:25Z</time>
</trkpt>
<trkpt lat="49.29545204155147" lon="9.140716530382631">
<ele>137.8</ele>
<time>2024-05-08T12:22:26Z</time>
</trkpt>
<trkpt lat="49.29544064216316" lon="9.140785178169608">
<ele>137.8</ele>
<time>2024-05-08T12:22:27Z</time>
</trkpt>
<trkpt lat="49.295425387099385" lon="9.14091962389648">
<ele>137.8</ele>
<time>2024-05-08T12:22:29Z</time>
</trkpt>
<trkpt lat="49.295406276360154" lon="9.141053147614002">
<ele>137.8</ele>
<time>2024-05-08T12:22:30Z</time>
</trkpt>
<trkpt lat="49.29539864882827" lon="9.14111701771617">
<ele>137.8</ele>
<time>2024-05-08T12:22:31Z</time>
</trkpt>
<trkpt lat="49.295387249439955" lon="9.14117812179029">
<ele>137.8</ele>
<time>2024-05-08T12:22:33Z</time>
</trkpt>
<trkpt lat="49.29537199437618" lon="9.141296306625009">
<ele>137.8</ele>
<time>2024-05-08T12:22:34Z</time>
</trkpt>
<trkpt lat="49.29536051116884" lon="9.14135456085205">
<ele>137.8</ele>
<time>2024-05-08T12:22:36Z</time>
</trkpt>
<trkpt lat="49.29535288363695" lon="9.141421280801296">
<ele>137.8</ele>
<time>2024-05-08T12:22:37Z</time>
</trkpt>
<trkpt lat="49.29534148424864" lon="9.141485150903463">
<ele>138</ele>
<time>2024-05-08T12:22:38Z</time>
</trkpt>
<trkpt lat="49.29533385671675" lon="9.141550026834013">
<ele>138</ele>
<time>2024-05-08T12:22:39Z</time>
</trkpt>
<trkpt lat="49.29531474597752" lon="9.14167307317257">
<ele>138.2</ele>
<time>2024-05-08T12:22:41Z</time>
</trkpt>
<trkpt lat="49.29531474597752" lon="9.14173124358058">
<ele>138.4</ele>
<time>2024-05-08T12:22:42Z</time>
</trkpt>
<trkpt lat="49.29535673931241" lon="9.141811290755868">
<ele>138.4</ele>
<time>2024-05-08T12:22:44Z</time>
</trkpt>
<trkpt lat="49.29542915895581" lon="9.141841884702444">
<ele>138.4</ele>
<time>2024-05-08T12:22:46Z</time>
</trkpt>
<trkpt lat="49.29550928995013" lon="9.141864767298102">
<ele>138.4</ele>
<time>2024-05-08T12:22:47Z</time>
</trkpt>
<trkpt lat="49.29555128328502" lon="9.141876166686416">
<ele>138.4</ele>
<time>2024-05-08T12:22:48Z</time>
</trkpt>
<trkpt lat="49.29559319280088" lon="9.14188664406538">
<ele>138.6</ele>
<time>2024-05-08T12:22:49Z</time>
</trkpt>
<trkpt lat="49.29563518613577" lon="9.141895277425649">
<ele>138.6</ele>
<time>2024-05-08T12:22:51Z</time>
</trkpt>
<trkpt lat="49.29567717947066" lon="9.14190474897623">
<ele>138.8</ele>
<time>2024-05-08T12:22:52Z</time>
</trkpt>
<trkpt lat="49.29571531713009" lon="9.141916232183576">
<ele>139</ele>
<time>2024-05-08T12:22:53Z</time>
</trkpt>
<trkpt lat="49.29578773677349" lon="9.141940036788585">
<ele>139.6</ele>
<time>2024-05-08T12:22:54Z</time>
</trkpt>
<trkpt lat="49.295822102576494" lon="9.141951519995928">
<ele>139.8</ele>
<time>2024-05-08T12:22:55Z</time>
</trkpt>
<trkpt lat="49.2958564683795" lon="9.141961997374892">
<ele>140.2</ele>
<time>2024-05-08T12:22:56Z</time>
</trkpt>
<trkpt lat="49.29588312283158" lon="9.141969624906778">
<ele>140.6</ele>
<time>2024-05-08T12:22:57Z</time>
</trkpt>
<trkpt lat="49.29591363295913" lon="9.141980102285745">
<ele>141</ele>
<time>2024-05-08T12:22:58Z</time>
</trkpt>
<trkpt lat="49.295940371230245" lon="9.141989657655358">
<ele>141.2</ele>
<time>2024-05-08T12:22:59Z</time>
</trkpt>
<trkpt lat="49.29596702568233" lon="9.141998291015623">
<ele>141.8</ele>
<time>2024-05-08T12:23:00Z</time>
</trkpt>
<trkpt lat="49.29598990827799" lon="9.14200491271913">
<ele>142.2</ele>
<time>2024-05-08T12:23:01Z</time>
</trkpt>
<trkpt lat="49.29601287469268" lon="9.142013546079395">
<ele>142.6</ele>
<time>2024-05-08T12:23:02Z</time>
</trkpt>
<trkpt lat="49.29603575728834" lon="9.14202687330544">
<ele>143</ele>
<time>2024-05-08T12:23:03Z</time>
</trkpt>
<trkpt lat="49.296058639883995" lon="9.142040200531484">
<ele>143.4</ele>
<time>2024-05-08T12:23:04Z</time>
</trkpt>
<trkpt lat="49.29608152247965" lon="9.142049755901098">
<ele>144</ele>
<time>2024-05-08T12:23:06Z</time>
</trkpt>
<trkpt lat="49.296134915202856" lon="9.14206501096487">
<ele>144.8</ele>
<time>2024-05-08T12:23:08Z</time>
</trkpt>
<trkpt lat="49.29616156965494" lon="9.142074566334486">
<ele>145.2</ele>
<time>2024-05-08T12:23:09Z</time>
</trkpt>
<trkpt lat="49.29620356298983" lon="9.142096443101764">
<ele>146</ele>
<time>2024-05-08T12:23:10Z</time>
</trkpt>
<trkpt lat="49.29622644558549" lon="9.14210700429976">
<ele>146.4</ele>
<time>2024-05-08T12:23:12Z</time>
</trkpt>
<trkpt lat="49.29624555632472" lon="9.142120331525804">
<ele>146.6</ele>
<time>2024-05-08T12:23:13Z</time>
</trkpt>
<trkpt lat="49.29628746584058" lon="9.142149919643998">
<ele>147.2</ele>
<time>2024-05-08T12:23:15Z</time>
</trkpt>
<trkpt lat="49.29630657657981" lon="9.14216517470777">
<ele>147.4</ele>
<time>2024-05-08T12:23:16Z</time>
</trkpt>
<trkpt lat="49.29632945917547" lon="9.142180429771544">
<ele>147.6</ele>
<time>2024-05-08T12:23:17Z</time>
</trkpt>
<trkpt lat="49.2963485699147" lon="9.142194679006934">
<ele>147.8</ele>
<time>2024-05-08T12:23:18Z</time>
</trkpt>
<trkpt lat="49.2963675968349" lon="9.142212867736816">
<ele>148</ele>
<time>2024-05-08T12:23:19Z</time>
</trkpt>
<trkpt lat="49.29639810696244" lon="9.142256705090404">
<ele>148</ele>
<time>2024-05-08T12:23:21Z</time>
</trkpt>
<trkpt lat="49.29640959016979" lon="9.142274810001254">
<ele>148.2</ele>
<time>2024-05-08T12:23:22Z</time>
</trkpt>
<trkpt lat="49.29641721770167" lon="9.142290065065026">
<ele>148</ele>
<time>2024-05-08T12:23:23Z</time>
</trkpt>
<trkpt lat="49.29642861708999" lon="9.14230632595718">
<ele>148</ele>
<time>2024-05-08T12:23:24Z</time>
</trkpt>
<trkpt lat="49.29644010029733" lon="9.142323425039647">
<ele>147.8</ele>
<time>2024-05-08T12:23:25Z</time>
</trkpt>
<trkpt lat="49.296451499685645" lon="9.14233868010342">
<ele>147.8</ele>
<time>2024-05-08T12:23:26Z</time>
</trkpt>
<trkpt lat="49.29646675474942" lon="9.142354940995574">
<ele>147.6</ele>
<time>2024-05-08T12:23:27Z</time>
</trkpt>
<trkpt lat="49.29648963734507" lon="9.142366340383887">
<ele>147.6</ele>
<time>2024-05-08T12:23:28Z</time>
</trkpt>
<trkpt lat="49.296531630679965" lon="9.142395006492734">
<ele>147.2</ele>
<time>2024-05-08T12:23:29Z</time>
</trkpt>
<trkpt lat="49.29656214080751" lon="9.142408333718777">
<ele>147</ele>
<time>2024-05-08T12:23:30Z</time>
</trkpt>
<trkpt lat="49.29658887907863" lon="9.14242166094482">
<ele>146.8</ele>
<time>2024-05-08T12:23:32Z</time>
</trkpt>
<trkpt lat="49.29664604365826" lon="9.142457954585552">
<ele>146.2</ele>
<time>2024-05-08T12:23:33Z</time>
</trkpt>
<trkpt lat="49.296668926253915" lon="9.14248175919056">
<ele>146</ele>
<time>2024-05-08T12:23:34Z</time>
</trkpt>
<trkpt lat="49.29669952020049" lon="9.142508497461677">
<ele>145.8</ele>
<time>2024-05-08T12:23:35Z</time>
</trkpt>
<trkpt lat="49.296730030328035" lon="9.142531380057337">
<ele>145.4</ele>
<time>2024-05-08T12:23:37Z</time>
</trkpt>
<trkpt lat="49.29676431231201" lon="9.142555184662342">
<ele>145.2</ele>
<time>2024-05-08T12:23:38Z</time>
</trkpt>
<trkpt lat="49.29679482243955" lon="9.142576139420273">
<ele>145</ele>
<time>2024-05-08T12:23:39Z</time>
</trkpt>
<trkpt lat="49.29685592651367" lon="9.142615282908082">
<ele>144.6</ele>
<time>2024-05-08T12:23:40Z</time>
</trkpt>
<trkpt lat="49.29688258096576" lon="9.14263623766601">
<ele>144.2</ele>
<time>2024-05-08T12:23:41Z</time>
</trkpt>
<trkpt lat="49.2969130910933" lon="9.142653420567513">
<ele>143.8</ele>
<time>2024-05-08T12:23:43Z</time>
</trkpt>
<trkpt lat="49.296943601220846" lon="9.142673453316092">
<ele>143.6</ele>
<time>2024-05-08T12:23:44Z</time>
</trkpt>
<trkpt lat="49.29697033949196" lon="9.142693486064672">
<ele>142.8</ele>
<time>2024-05-08T12:23:45Z</time>
</trkpt>
<trkpt lat="49.29701610468328" lon="9.142729695886374">
<ele>142</ele>
<time>2024-05-08T12:23:46Z</time>
</trkpt>
<trkpt lat="49.2970428429544" lon="9.14274117909372">
<ele>141.6</ele>
<time>2024-05-08T12:23:47Z</time>
</trkpt>
<trkpt lat="49.297065725550056" lon="9.142749728634952">
<ele>141.4</ele>
<time>2024-05-08T12:23:48Z</time>
</trkpt>
<trkpt lat="49.297084752470255" lon="9.1427612118423">
<ele>141.2</ele>
<time>2024-05-08T12:23:49Z</time>
</trkpt>
<trkpt lat="49.29710000753403" lon="9.14277646690607">
<ele>141</ele>
<time>2024-05-08T12:23:50Z</time>
</trkpt>
<trkpt lat="49.29711149074137" lon="9.14279649965465">
<ele>141</ele>
<time>2024-05-08T12:23:51Z</time>
</trkpt>
<trkpt lat="49.29713051766157" lon="9.1428146045655">
<ele>140.8</ele>
<time>2024-05-08T12:23:53Z</time>
</trkpt>
<trkpt lat="49.29715340025723" lon="9.142831787467005">
<ele>140.8</ele>
<time>2024-05-08T12:23:54Z</time>
</trkpt>
<trkpt lat="49.29717251099646" lon="9.142851820215585">
<ele>140.6</ele>
<time>2024-05-08T12:23:55Z</time>
</trkpt>
<trkpt lat="49.29723353125155" lon="9.142887108027937">
<ele>140.6</ele>
<time>2024-05-08T12:23:56Z</time>
</trkpt>
<trkpt lat="49.29726026952267" lon="9.142903285101056">
<ele>140.6</ele>
<time>2024-05-08T12:23:57Z</time>
</trkpt>
<trkpt lat="49.29728692397475" lon="9.142918540164828">
<ele>140.6</ele>
<time>2024-05-08T12:23:58Z</time>
</trkpt>
<trkpt lat="49.29731366224587" lon="9.14293471723795">
<ele>140.6</ele>
<time>2024-05-08T12:24:00Z</time>
</trkpt>
<trkpt lat="49.297340316697955" lon="9.142951900139453">
<ele>140.6</ele>
<time>2024-05-08T12:24:01Z</time>
</trkpt>
<trkpt lat="49.29739379324019" lon="9.142983416095376">
<ele>140.6</ele>
<time>2024-05-08T12:24:03Z</time>
</trkpt>
<trkpt lat="49.297420447692275" lon="9.142998671159148">
<ele>140.6</ele>
<time>2024-05-08T12:24:04Z</time>
</trkpt>
<trkpt lat="49.29747384041548" lon="9.14303010329604">
<ele>140.4</ele>
<time>2024-05-08T12:24:06Z</time>
</trkpt>
<trkpt lat="49.29750435054302" lon="9.143046364188194">
<ele>140.4</ele>
<time>2024-05-08T12:24:07Z</time>
</trkpt>
<trkpt lat="49.29752723313868" lon="9.143061619251966">
<ele>140.2</ele>
<time>2024-05-08T12:24:08Z</time>
</trkpt>
<trkpt lat="49.297576854005456" lon="9.143097829073668">
<ele>140.2</ele>
<time>2024-05-08T12:24:09Z</time>
</trkpt>
<trkpt lat="49.297607364133" lon="9.14311501197517">
<ele>140.2</ele>
<time>2024-05-08T12:24:11Z</time>
</trkpt>
<trkpt lat="49.29766838438809" lon="9.14315029978752">
<ele>140</ele>
<time>2024-05-08T12:24:13Z</time>
</trkpt>
<trkpt lat="49.297698894515634" lon="9.143166476860642">
<ele>140</ele>
<time>2024-05-08T12:24:14Z</time>
</trkpt>
<trkpt lat="49.297756142914295" lon="9.143203692510724">
<ele>140</ele>
<time>2024-05-08T12:24:16Z</time>
</trkpt>
<trkpt lat="49.29778665304184" lon="9.143218025565147">
<ele>140</ele>
<time>2024-05-08T12:24:17Z</time>
</trkpt>
<trkpt lat="49.297817163169384" lon="9.143237052485349">
<ele>140</ele>
<time>2024-05-08T12:24:18Z</time>
</trkpt>
<trkpt lat="49.29787818342447" lon="9.143275190144776">
<ele>140</ele>
<time>2024-05-08T12:24:20Z</time>
</trkpt>
<trkpt lat="49.29794305935502" lon="9.143315255641935">
<ele>140</ele>
<time>2024-05-08T12:24:22Z</time>
</trkpt>
<trkpt lat="49.297977425158024" lon="9.143335288390515">
<ele>140</ele>
<time>2024-05-08T12:24:23Z</time>
</trkpt>
<trkpt lat="49.298011707141995" lon="9.14334861561656">
<ele>140</ele>
<time>2024-05-08T12:24:24Z</time>
</trkpt>
<trkpt lat="49.29807658307254" lon="9.143382059410214">
<ele>140.2</ele>
<time>2024-05-08T12:24:26Z</time>
</trkpt>
<trkpt lat="49.29810709320009" lon="9.143402092158794">
<ele>140.2</ele>
<time>2024-05-08T12:24:27Z</time>
</trkpt>
<trkpt lat="49.29814145900309" lon="9.143423046916723">
<ele>140.4</ele>
<time>2024-05-08T12:24:28Z</time>
</trkpt>
<trkpt lat="49.298171969130635" lon="9.143440229818223">
<ele>140.4</ele>
<time>2024-05-08T12:24:29Z</time>
</trkpt>
<trkpt lat="49.29820625111461" lon="9.143461184576154">
<ele>140.4</ele>
<time>2024-05-08T12:24:30Z</time>
</trkpt>
<trkpt lat="49.298271127045155" lon="9.143507955595853">
<ele>140.6</ele>
<time>2024-05-08T12:24:31Z</time>
</trkpt>
<trkpt lat="49.2983016371727" lon="9.143529832363129">
<ele>140.6</ele>
<time>2024-05-08T12:24:32Z</time>
</trkpt>
<trkpt lat="49.2983360029757" lon="9.143551792949438">
<ele>140.6</ele>
<time>2024-05-08T12:24:33Z</time>
</trkpt>
<trkpt lat="49.29836651310325" lon="9.143571825698018">
<ele>140.6</ele>
<time>2024-05-08T12:24:34Z</time>
</trkpt>
<trkpt lat="49.29839702323079" lon="9.143589930608869">
<ele>140.6</ele>
<time>2024-05-08T12:24:36Z</time>
</trkpt>
<trkpt lat="49.298431389033794" lon="9.143603257834911">
<ele>140.8</ele>
<time>2024-05-08T12:24:37Z</time>
</trkpt>
<trkpt lat="49.29846189916134" lon="9.143619518727064">
<ele>140.8</ele>
<time>2024-05-08T12:24:38Z</time>
</trkpt>
<trkpt lat="49.29852291941643" lon="9.143651956692338">
<ele>140.8</ele>
<time>2024-05-08T12:24:39Z</time>
</trkpt>
<trkpt lat="49.29855342954397" lon="9.143671989440918">
<ele>140.8</ele>
<time>2024-05-08T12:24:40Z</time>
</trkpt>
<trkpt lat="49.29858393967152" lon="9.143691938370466">
<ele>141</ele>
<time>2024-05-08T12:24:41Z</time>
</trkpt>
<trkpt lat="49.298610677942634" lon="9.14370627142489">
<ele>141</ele>
<time>2024-05-08T12:24:43Z</time>
</trkpt>
<trkpt lat="49.29863356053829" lon="9.143716748803854">
<ele>141.2</ele>
<time>2024-05-08T12:24:44Z</time>
</trkpt>
<trkpt lat="49.29865644313395" lon="9.143723454326391">
<ele>141.2</ele>
<time>2024-05-08T12:24:45Z</time>
</trkpt>
<trkpt lat="49.29868309758603" lon="9.1437282320112">
<ele>141.2</ele>
<time>2024-05-08T12:24:46Z</time>
</trkpt>
<trkpt lat="49.298705980181694" lon="9.143736781552434">
<ele>141.2</ele>
<time>2024-05-08T12:24:47Z</time>
</trkpt>
<trkpt lat="49.29875945672393" lon="9.143756814301014">
<ele>141</ele>
<time>2024-05-08T12:24:49Z</time>
</trkpt>
<trkpt lat="49.29881284944713" lon="9.143783552572131">
<ele>141</ele>
<time>2024-05-08T12:24:51Z</time>
</trkpt>
<trkpt lat="49.29887001402676" lon="9.143810207024217">
<ele>140.8</ele>
<time>2024-05-08T12:24:53Z</time>
</trkpt>
<trkpt lat="49.29893111810088" lon="9.143848344683647">
<ele>140.8</ele>
<time>2024-05-08T12:24:55Z</time>
</trkpt>
<trkpt lat="49.29895777255297" lon="9.143868377432227">
<ele>140.6</ele>
<time>2024-05-08T12:24:56Z</time>
</trkpt>
<trkpt lat="49.29901116527617" lon="9.143910370767117">
<ele>140.6</ele>
<time>2024-05-08T12:24:58Z</time>
</trkpt>
<trkpt lat="49.29905315861106" lon="9.143957057967782">
<ele>140.6</ele>
<time>2024-05-08T12:25:00Z</time>
</trkpt>
<trkpt lat="49.29911040700972" lon="9.144004750996828">
<ele>140.6</ele>
<time>2024-05-08T12:25:01Z</time>
</trkpt>
<trkpt lat="49.29913328960538" lon="9.14402293972671">
<ele>140.4</ele>
<time>2024-05-08T12:25:02Z</time>
</trkpt>
<trkpt lat="49.299159944057465" lon="9.144036266952751">
<ele>140.4</ele>
<time>2024-05-08T12:25:03Z</time>
</trkpt>
<trkpt lat="49.29918668232858" lon="9.144049594178796">
<ele>140.4</ele>
<time>2024-05-08T12:25:04Z</time>
</trkpt>
<trkpt lat="49.29921333678067" lon="9.144064849242568">
<ele>140.4</ele>
<time>2024-05-08T12:25:05Z</time>
</trkpt>
<trkpt lat="49.299240075051785" lon="9.144088737666609">
<ele>140.4</ele>
<time>2024-05-08T12:25:06Z</time>
</trkpt>
<trkpt lat="49.29927058517933" lon="9.144115392118692">
<ele>140.4</ele>
<time>2024-05-08T12:25:07Z</time>
</trkpt>
<trkpt lat="49.29930109530687" lon="9.14414020255208">
<ele>140.4</ele>
<time>2024-05-08T12:25:09Z</time>
</trkpt>
<trkpt lat="49.29933546110988" lon="9.144163085147738">
<ele>140.6</ele>
<time>2024-05-08T12:25:10Z</time>
</trkpt>
<trkpt lat="49.29936974309385" lon="9.144185045734048">
<ele>140.6</ele>
<time>2024-05-08T12:25:11Z</time>
</trkpt>
<trkpt lat="49.29940410889685" lon="9.144205078482628">
<ele>140.8</ele>
<time>2024-05-08T12:25:12Z</time>
</trkpt>
<trkpt lat="49.2994346190244" lon="9.144229888916016">
<ele>140.8</ele>
<time>2024-05-08T12:25:13Z</time>
</trkpt>
<trkpt lat="49.299499494954944" lon="9.144285125657916">
<ele>141</ele>
<time>2024-05-08T12:25:14Z</time>
</trkpt>
<trkpt lat="49.29953000508249" lon="9.144308008253574">
<ele>141.2</ele>
<time>2024-05-08T12:25:16Z</time>
</trkpt>
<trkpt lat="49.29959865286946" lon="9.144348073750734">
<ele>141.4</ele>
<time>2024-05-08T12:25:18Z</time>
</trkpt>
<trkpt lat="49.29966352880001" lon="9.144391994923351">
<ele>141.8</ele>
<time>2024-05-08T12:25:20Z</time>
</trkpt>
<trkpt lat="49.299694038927555" lon="9.14439861662686">
<ele>141.8</ele>
<time>2024-05-08T12:25:21Z</time>
</trkpt>
<trkpt lat="49.29975505918264" lon="9.144370034337044">
<ele>142.2</ele>
<time>2024-05-08T12:25:23Z</time>
</trkpt>
<trkpt lat="49.29978942498565" lon="9.144343296065928">
<ele>142.4</ele>
<time>2024-05-08T12:25:24Z</time>
</trkpt>
<trkpt lat="49.29983519017696" lon="9.14427657611668">
<ele>142.8</ele>
<time>2024-05-08T12:25:25Z</time>
</trkpt>
<trkpt lat="49.29985807277262" lon="9.14423843845725">
<ele>142.8</ele>
<time>2024-05-08T12:25:26Z</time>
</trkpt>
<trkpt lat="49.29986184462905" lon="9.144185045734048">
<ele>143</ele>
<time>2024-05-08T12:25:28Z</time>
</trkpt>
<trkpt lat="49.29986184462905" lon="9.144133497029545">
<ele>143</ele>
<time>2024-05-08T12:25:29Z</time>
</trkpt>
<trkpt lat="49.29985807277262" lon="9.14408203214407">
<ele>143</ele>
<time>2024-05-08T12:25:30Z</time>
</trkpt>
<trkpt lat="49.299850445240736" lon="9.143978096544744">
<ele>142.8</ele>
<time>2024-05-08T12:25:32Z</time>
</trkpt>
<trkpt lat="49.29984281770885" lon="9.143879860639572">
<ele>142.8</ele>
<time>2024-05-08T12:25:33Z</time>
</trkpt>
<trkpt lat="49.29983896203339" lon="9.143830239772797">
<ele>142.8</ele>
<time>2024-05-08T12:25:35Z</time>
</trkpt>
<trkpt lat="49.29984281770885" lon="9.143778774887323">
<ele>142.8</ele>
<time>2024-05-08T12:25:36Z</time>
</trkpt>
<trkpt lat="49.299869472160935" lon="9.14368531666696">
<ele>143</ele>
<time>2024-05-08T12:25:38Z</time>
</trkpt>
<trkpt lat="49.29988858290017" lon="9.1436452511698">
<ele>143</ele>
<time>2024-05-08T12:25:39Z</time>
</trkpt>
<trkpt lat="49.29994197562337" lon="9.143578447401524">
<ele>143.2</ele>
<time>2024-05-08T12:25:41Z</time>
</trkpt>
<trkpt lat="49.299991596490145" lon="9.143520276993511">
<ele>143.2</ele>
<time>2024-05-08T12:25:42Z</time>
</trkpt>
<trkpt lat="49.30002587847411" lon="9.143489766865969">
<ele>143.2</ele>
<time>2024-05-08T12:25:43Z</time>
</trkpt>
<trkpt lat="49.30006024427712" lon="9.143458334729075">
<ele>143.2</ele>
<time>2024-05-08T12:25:44Z</time>
</trkpt>
<trkpt lat="49.30009452626109" lon="9.14342681877315">
<ele>143.2</ele>
<time>2024-05-08T12:25:45Z</time>
</trkpt>
<trkpt lat="49.30012512020767" lon="9.143396308645606">
<ele>143.2</ele>
<time>2024-05-08T12:25:46Z</time>
</trkpt>
<trkpt lat="49.30015940219164" lon="9.143364876508713">
<ele>143.2</ele>
<time>2024-05-08T12:25:47Z</time>
</trkpt>
<trkpt lat="49.30018991231918" lon="9.14333151653409">
<ele>143.2</ele>
<time>2024-05-08T12:25:48Z</time>
</trkpt>
<trkpt lat="49.30022427812219" lon="9.143300000578163">
<ele>143.2</ele>
<time>2024-05-08T12:25:50Z</time>
</trkpt>
<trkpt lat="49.30028144270182" lon="9.14323135279119">
<ele>143.2</ele>
<time>2024-05-08T12:25:51Z</time>
</trkpt>
<trkpt lat="49.30031203664839" lon="9.143196986988189">
<ele>143.2</ele>
<time>2024-05-08T12:25:53Z</time>
</trkpt>
<trkpt lat="49.30033869110048" lon="9.143164632841945">
<ele>143.2</ele>
<time>2024-05-08T12:25:54Z</time>
</trkpt>
<trkpt lat="49.300388311967254" lon="9.143104534596205">
<ele>143.2</ele>
<time>2024-05-08T12:25:56Z</time>
</trkpt>
<trkpt lat="49.30041496641934" lon="9.143081652000546">
<ele>143.2</ele>
<time>2024-05-08T12:25:57Z</time>
</trkpt>
<trkpt lat="49.300441704690456" lon="9.14307687431574">
<ele>143.2</ele>
<time>2024-05-08T12:25:58Z</time>
</trkpt>
<trkpt lat="49.30049509741366" lon="9.143104534596205">
<ele>143.2</ele>
<time>2024-05-08T12:26:00Z</time>
</trkpt>
<trkpt lat="49.3005256075412" lon="9.143183659762144">
<ele>143.2</ele>
<time>2024-05-08T12:26:02Z</time>
</trkpt>
<trkpt lat="49.300544718280435" lon="9.143281895667316">
<ele>143.2</ele>
<time>2024-05-08T12:26:03Z</time>
</trkpt>
<trkpt lat="49.30055611766875" lon="9.143333360552788">
<ele>143.2</ele>
<time>2024-05-08T12:26:04Z</time>
</trkpt>
<trkpt lat="49.300563745200634" lon="9.143382981419563">
<ele>143.2</ele>
<time>2024-05-08T12:26:06Z</time>
</trkpt>
<trkpt lat="49.30058662779629" lon="9.143478367477655">
<ele>143.2</ele>
<time>2024-05-08T12:26:08Z</time>
</trkpt>
<trkpt lat="49.30061336606741" lon="9.143553720787168">
<ele>143.2</ele>
<time>2024-05-08T12:26:10Z</time>
</trkpt>
<trkpt lat="49.30063247680664" lon="9.143576603382826">
<ele>143.2</ele>
<time>2024-05-08T12:26:11Z</time>
</trkpt>
<trkpt lat="49.30067061446607" lon="9.14358708076179">
<ele>143.4</ele>
<time>2024-05-08T12:26:12Z</time>
</trkpt>
<trkpt lat="49.30069349706173" lon="9.143578447401524">
<ele>143.4</ele>
<time>2024-05-08T12:26:14Z</time>
</trkpt>
<trkpt lat="49.30071252398193" lon="9.143556570634246">
<ele>143.4</ele>
<time>2024-05-08T12:26:15Z</time>
</trkpt>
<trkpt lat="49.300762144848704" lon="9.143509799614549">
<ele>143.6</ele>
<time>2024-05-08T12:26:17Z</time>
</trkpt>
<trkpt lat="49.30078879930079" lon="9.143480295315385">
<ele>143.8</ele>
<time>2024-05-08T12:26:18Z</time>
</trkpt>
<trkpt lat="49.300838420167565" lon="9.143416341394186">
<ele>143.8</ele>
<time>2024-05-08T12:26:19Z</time>
</trkpt>
<trkpt lat="49.30086515843868" lon="9.143378203734756">
<ele>144</ele>
<time>2024-05-08T12:26:20Z</time>
</trkpt>
<trkpt lat="49.30088418535888" lon="9.143342915922403">
<ele>144</ele>
<time>2024-05-08T12:26:21Z</time>
</trkpt>
<trkpt lat="49.30090329609811" lon="9.14330955594778">
<ele>144</ele>
<time>2024-05-08T12:26:22Z</time>
</trkpt>
<trkpt lat="49.3009299505502" lon="9.143281895667316">
<ele>144</ele>
<time>2024-05-08T12:26:24Z</time>
</trkpt>
<trkpt lat="49.30095283314586" lon="9.143255157396196">
<ele>144</ele>
<time>2024-05-08T12:26:25Z</time>
</trkpt>
<trkpt lat="49.30100245401263" lon="9.143201764672996">
<ele>144</ele>
<time>2024-05-08T12:26:26Z</time>
</trkpt>
<trkpt lat="49.30102156475186" lon="9.14317318238318">
<ele>144</ele>
<time>2024-05-08T12:26:27Z</time>
</trkpt>
<trkpt lat="49.30104821920395" lon="9.143146444112062">
<ele>144</ele>
<time>2024-05-08T12:26:29Z</time>
</trkpt>
<trkpt lat="49.30107110179961" lon="9.143117861822248">
<ele>144.2</ele>
<time>2024-05-08T12:26:30Z</time>
</trkpt>
<trkpt lat="49.301093984395266" lon="9.14309305138886">
<ele>144.2</ele>
<time>2024-05-08T12:26:31Z</time>
</trkpt>
<trkpt lat="49.3011474609375" lon="9.143052063882353">
<ele>144.2</ele>
<time>2024-05-08T12:26:33Z</time>
</trkpt>
<trkpt lat="49.30120462551713" lon="9.143019625917075">
<ele>144</ele>
<time>2024-05-08T12:26:35Z</time>
</trkpt>
<trkpt lat="49.301235135644674" lon="9.142998671159148">
<ele>144</ele>
<time>2024-05-08T12:26:36Z</time>
</trkpt>
<trkpt lat="49.301292384043336" lon="9.14295667782426">
<ele>144</ele>
<time>2024-05-08T12:26:38Z</time>
</trkpt>
<trkpt lat="49.30135725997389" lon="9.142918540164828">
<ele>144</ele>
<time>2024-05-08T12:26:40Z</time>
</trkpt>
<trkpt lat="49.301391541957855" lon="9.142901357263328">
<ele>144</ele>
<time>2024-05-08T12:26:41Z</time>
</trkpt>
<trkpt lat="49.30142590776086" lon="9.142885180190206">
<ele>144</ele>
<time>2024-05-08T12:26:42Z</time>
</trkpt>
<trkpt lat="49.301490783691406" lon="9.142851820215585">
<ele>144</ele>
<time>2024-05-08T12:26:43Z</time>
</trkpt>
<trkpt lat="49.30152506567538" lon="9.14283463731408">
<ele>144</ele>
<time>2024-05-08T12:26:44Z</time>
</trkpt>
<trkpt lat="49.30155943147838" lon="9.142818376421928">
<ele>144</ele>
<time>2024-05-08T12:26:46Z</time>
</trkpt>
<trkpt lat="49.3016242235899" lon="9.14277453906834">
<ele>144.2</ele>
<time>2024-05-08T12:26:47Z</time>
</trkpt>
<trkpt lat="49.3016585893929" lon="9.142753584310412">
<ele>144.4</ele>
<time>2024-05-08T12:26:48Z</time>
</trkpt>
<trkpt lat="49.301692955195904" lon="9.14273447357118">
<ele>144.4</ele>
<time>2024-05-08T12:26:49Z</time>
</trkpt>
<trkpt lat="49.301727237179875" lon="9.14271829649806">
<ele>144.6</ele>
<time>2024-05-08T12:26:50Z</time>
</trkpt>
<trkpt lat="49.30176160298288" lon="9.14270019158721">
<ele>144.6</ele>
<time>2024-05-08T12:26:51Z</time>
</trkpt>
<trkpt lat="49.30179211311042" lon="9.14268015883863">
<ele>144.8</ele>
<time>2024-05-08T12:26:53Z</time>
</trkpt>
<trkpt lat="49.30185698904097" lon="9.1426420211792">
<ele>145</ele>
<time>2024-05-08T12:26:55Z</time>
</trkpt>
<trkpt lat="49.301887499168515" lon="9.14262198843062">
<ele>145</ele>
<time>2024-05-08T12:26:56Z</time>
</trkpt>
<trkpt lat="49.30195991881192" lon="9.14258192293346">
<ele>145</ele>
<time>2024-05-08T12:26:57Z</time>
</trkpt>
<trkpt lat="49.30199428461492" lon="9.14256189018488">
<ele>145</ele>
<time>2024-05-08T12:26:58Z</time>
</trkpt>
<trkpt lat="49.30202865041792" lon="9.14253992959857">
<ele>145</ele>
<time>2024-05-08T12:27:00Z</time>
</trkpt>
<trkpt lat="49.302062932401896" lon="9.14251796901226">
<ele>144.8</ele>
<time>2024-05-08T12:27:01Z</time>
</trkpt>
<trkpt lat="49.3020972982049" lon="9.142497014254332">
<ele>144.8</ele>
<time>2024-05-08T12:27:02Z</time>
</trkpt>
<trkpt lat="49.30213158018887" lon="9.142475053668022">
<ele>144.8</ele>
<time>2024-05-08T12:27:03Z</time>
</trkpt>
<trkpt lat="49.302165945991874" lon="9.142456948757172">
<ele>144.8</ele>
<time>2024-05-08T12:27:04Z</time>
</trkpt>
<trkpt lat="49.30220031179488" lon="9.142436916008592">
<ele>144.8</ele>
<time>2024-05-08T12:27:05Z</time>
</trkpt>
<trkpt lat="49.30227273143828" lon="9.142395006492734">
<ele>145</ele>
<time>2024-05-08T12:27:07Z</time>
</trkpt>
<trkpt lat="49.30231086909771" lon="9.142373045906425">
<ele>145</ele>
<time>2024-05-08T12:27:08Z</time>
</trkpt>
<trkpt lat="49.30234523490071" lon="9.142352091148496">
<ele>145</ele>
<time>2024-05-08T12:27:09Z</time>
</trkpt>
<trkpt lat="49.30238337256014" lon="9.142328202724457">
<ele>145</ele>
<time>2024-05-08T12:27:10Z</time>
</trkpt>
<trkpt lat="49.302421510219574" lon="9.142305320128798">
<ele>145</ele>
<time>2024-05-08T12:27:11Z</time>
</trkpt>
<trkpt lat="49.302497785538435" lon="9.142261482775211">
<ele>145.2</ele>
<time>2024-05-08T12:27:13Z</time>
</trkpt>
<trkpt lat="49.30253215134144" lon="9.142241450026631">
<ele>145.2</ele>
<time>2024-05-08T12:27:14Z</time>
</trkpt>
<trkpt lat="49.30257028900087" lon="9.142219489440322">
<ele>145.2</ele>
<time>2024-05-08T12:27:15Z</time>
</trkpt>
<trkpt lat="49.3026427924633" lon="9.142173724249004">
<ele>145.2</ele>
<time>2024-05-08T12:27:17Z</time>
</trkpt>
<trkpt lat="49.30271144025028" lon="9.14212510921061">
<ele>145.2</ele>
<time>2024-05-08T12:27:18Z</time>
</trkpt>
<trkpt lat="49.30274580605328" lon="9.14210507646203">
<ele>145.2</ele>
<time>2024-05-08T12:27:19Z</time>
</trkpt>
<trkpt lat="49.30278008803725" lon="9.14208311587572">
<ele>145.4</ele>
<time>2024-05-08T12:27:21Z</time>
</trkpt>
<trkpt lat="49.3028449639678" lon="9.142040200531484">
<ele>145.4</ele>
<time>2024-05-08T12:27:23Z</time>
</trkpt>
<trkpt lat="49.30290983989835" lon="9.142002062872052">
<ele>145.4</ele>
<time>2024-05-08T12:27:25Z</time>
</trkpt>
<trkpt lat="49.30293649435043" lon="9.14198487997055">
<ele>145.4</ele>
<time>2024-05-08T12:27:26Z</time>
</trkpt>
<trkpt lat="49.302993742749095" lon="9.141953447833655">
<ele>145.4</ele>
<time>2024-05-08T12:27:28Z</time>
</trkpt>
<trkpt lat="49.30301662534475" lon="9.141938192769883">
<ele>145.4</ele>
<time>2024-05-08T12:27:29Z</time>
</trkpt>
<trkpt lat="49.30304336361587" lon="9.141922937706113">
<ele>145.4</ele>
<time>2024-05-08T12:27:30Z</time>
</trkpt>
<trkpt lat="49.30307001806795" lon="9.14190667681396">
<ele>145.4</ele>
<time>2024-05-08T12:27:31Z</time>
</trkpt>
<trkpt lat="49.30309675633907" lon="9.141889493912458">
<ele>145.4</ele>
<time>2024-05-08T12:27:32Z</time>
</trkpt>
<trkpt lat="49.30312341079116" lon="9.141878094524143">
<ele>145.4</ele>
<time>2024-05-08T12:27:33Z</time>
</trkpt>
<trkpt lat="49.30314252153039" lon="9.14186853915453">
<ele>145.4</ele>
<time>2024-05-08T12:27:34Z</time>
</trkpt>
<trkpt lat="49.30316154845059" lon="9.141859989613296">
<ele>145.4</ele>
<time>2024-05-08T12:27:35Z</time>
</trkpt>
<trkpt lat="49.30320739746094" lon="9.14186954498291">
<ele>145.4</ele>
<time>2024-05-08T12:27:37Z</time>
</trkpt>
<trkpt lat="49.30322642438114" lon="9.141895277425649">
<ele>145.4</ele>
<time>2024-05-08T12:27:38Z</time>
</trkpt>
<trkpt lat="49.30324167944491" lon="9.141931487247348">
<ele>145.4</ele>
<time>2024-05-08T12:27:39Z</time>
</trkpt>
<trkpt lat="49.303253162652254" lon="9.141978258267043">
<ele>145.4</ele>
<time>2024-05-08T12:27:40Z</time>
</trkpt>
<trkpt lat="49.30326456204057" lon="9.14202880114317">
<ele>145.2</ele>
<time>2024-05-08T12:27:41Z</time>
</trkpt>
<trkpt lat="49.303291300311685" lon="9.14212703704834">
<ele>145.2</ele>
<time>2024-05-08T12:27:42Z</time>
</trkpt>
<trkpt lat="49.3033026997" lon="9.142180429771544">
<ele>145.2</ele>
<time>2024-05-08T12:27:43Z</time>
</trkpt>
<trkpt lat="49.30331418290734" lon="9.142236672341824">
<ele>145.2</ele>
<time>2024-05-08T12:27:44Z</time>
</trkpt>
<trkpt lat="49.303325582295656" lon="9.142294842749834">
<ele>145.2</ele>
<time>2024-05-08T12:27:45Z</time>
</trkpt>
<trkpt lat="49.30334083735943" lon="9.142343457788227">
<ele>145.2</ele>
<time>2024-05-08T12:27:46Z</time>
</trkpt>
<trkpt lat="49.3033560924232" lon="9.142396850511432">
<ele>145.2</ele>
<time>2024-05-08T12:27:47Z</time>
</trkpt>
<trkpt lat="49.30337134748697" lon="9.142451249063017">
<ele>145.2</ele>
<time>2024-05-08T12:27:49Z</time>
</trkpt>
<trkpt lat="49.30339808575809" lon="9.142555184662342">
<ele>145</ele>
<time>2024-05-08T12:27:51Z</time>
</trkpt>
<trkpt lat="49.303409568965435" lon="9.14259810000658">
<ele>144.8</ele>
<time>2024-05-08T12:27:52Z</time>
</trkpt>
<trkpt lat="49.30342096835375" lon="9.14264009334147">
<ele>144.8</ele>
<time>2024-05-08T12:27:53Z</time>
</trkpt>
<trkpt lat="49.303428595885634" lon="9.142684936523438">
<ele>144.6</ele>
<time>2024-05-08T12:27:54Z</time>
</trkpt>
<trkpt lat="49.30345147848129" lon="9.142780238762498">
<ele>144.4</ele>
<time>2024-05-08T12:27:56Z</time>
</trkpt>
<trkpt lat="49.30346296168864" lon="9.142829859629272">
<ele>144.4</ele>
<time>2024-05-08T12:27:57Z</time>
</trkpt>
<trkpt lat="49.30348961614072" lon="9.14293471723795">
<ele>144.4</ele>
<time>2024-05-08T12:27:59Z</time>
</trkpt>
<trkpt lat="49.303504871204495" lon="9.142990037798882">
<ele>144.2</ele>
<time>2024-05-08T12:28:00Z</time>
</trkpt>
<trkpt lat="49.30353538133204" lon="9.143103528767824">
<ele>144</ele>
<time>2024-05-08T12:28:01Z</time>
</trkpt>
<trkpt lat="49.303546864539385" lon="9.143163627013564">
<ele>143.8</ele>
<time>2024-05-08T12:28:03Z</time>
</trkpt>
<trkpt lat="49.3035736028105" lon="9.143275190144776">
<ele>143.6</ele>
<time>2024-05-08T12:28:05Z</time>
</trkpt>
<trkpt lat="49.3035926297307" lon="9.143316261470318">
<ele>143.4</ele>
<time>2024-05-08T12:28:06Z</time>
</trkpt>
<trkpt lat="49.30361936800182" lon="9.14334861561656">
<ele>143.4</ele>
<time>2024-05-08T12:28:07Z</time>
</trkpt>
<trkpt lat="49.30368038825691" lon="9.143362948670983">
<ele>143.2</ele>
<time>2024-05-08T12:28:08Z</time>
</trkpt>
<trkpt lat="49.30371852591634" lon="9.143346771597862">
<ele>143</ele>
<time>2024-05-08T12:28:10Z</time>
</trkpt>
<trkpt lat="49.30378717370331" lon="9.143304778262973">
<ele>143</ele>
<time>2024-05-08T12:28:12Z</time>
</trkpt>
<trkpt lat="49.30382531136274" lon="9.143286673352122">
<ele>143</ele>
<time>2024-05-08T12:28:13Z</time>
</trkpt>
<trkpt lat="49.303863449022174" lon="9.143268568441272">
<ele>143</ele>
<time>2024-05-08T12:28:14Z</time>
</trkpt>
<trkpt lat="49.30393218062818" lon="9.143221797421576">
<ele>142.8</ele>
<time>2024-05-08T12:28:16Z</time>
</trkpt>
<trkpt lat="49.30396646261215" lon="9.14319321513176">
<ele>142.8</ele>
<time>2024-05-08T12:28:17Z</time>
</trkpt>
<trkpt lat="49.304038966074586" lon="9.143144600093365">
<ele>142.8</ele>
<time>2024-05-08T12:28:19Z</time>
</trkpt>
<trkpt lat="49.30407333187759" lon="9.1431169398129">
<ele>142.8</ele>
<time>2024-05-08T12:28:20Z</time>
</trkpt>
<trkpt lat="49.30410761386156" lon="9.143079724162815">
<ele>142.8</ele>
<time>2024-05-08T12:28:21Z</time>
</trkpt>
<trkpt lat="49.30416863411665" lon="9.142999593168495">
<ele>142.8</ele>
<time>2024-05-08T12:28:22Z</time>
</trkpt>
<trkpt lat="49.304199144244194" lon="9.142968161031604">
<ele>143</ele>
<time>2024-05-08T12:28:24Z</time>
</trkpt>
<trkpt lat="49.30422202683985" lon="9.142938572913408">
<ele>143</ele>
<time>2024-05-08T12:28:25Z</time>
</trkpt>
<trkpt lat="49.30424113757908" lon="9.142909990623592">
<ele>142.8</ele>
<time>2024-05-08T12:28:26Z</time>
</trkpt>
<trkpt lat="49.304260248318315" lon="9.142845114693046">
<ele>142.8</ele>
<time>2024-05-08T12:28:28Z</time>
</trkpt>
<trkpt lat="49.304260248318315" lon="9.142806977033615">
<ele>142.8</ele>
<time>2024-05-08T12:28:29Z</time>
</trkpt>
<trkpt lat="49.30424113757908" lon="9.14271636866033">
<ele>142.8</ele>
<time>2024-05-08T12:28:31Z</time>
</trkpt>
<trkpt lat="49.30422588251531" lon="9.142668675631285">
<ele>142.8</ele>
<time>2024-05-08T12:28:32Z</time>
</trkpt>
<trkpt lat="49.30420299991965" lon="9.14257999509573">
<ele>143</ele>
<time>2024-05-08T12:28:33Z</time>
</trkpt>
<trkpt lat="49.30419151671231" lon="9.142544707283378">
<ele>143.2</ele>
<time>2024-05-08T12:28:34Z</time>
</trkpt>
<trkpt lat="49.304180117323995" lon="9.142510341480374">
<ele>143.4</ele>
<time>2024-05-08T12:28:35Z</time>
</trkpt>
<trkpt lat="49.30417248979211" lon="9.142473209649324">
<ele>143.4</ele>
<time>2024-05-08T12:28:37Z</time>
</trkpt>
<trkpt lat="49.30416486226022" lon="9.142436916008592">
<ele>143.6</ele>
<time>2024-05-08T12:28:38Z</time>
</trkpt>
<trkpt lat="49.30415337905288" lon="9.142397856339812">
<ele>143.6</ele>
<time>2024-05-08T12:28:39Z</time>
</trkpt>
<trkpt lat="49.30413049645722" lon="9.142319653183222">
<ele>143.8</ele>
<time>2024-05-08T12:28:40Z</time>
</trkpt>
<trkpt lat="49.30412286892533" lon="9.142278665676711">
<ele>143.8</ele>
<time>2024-05-08T12:28:41Z</time>
</trkpt>
<trkpt lat="49.30411146953702" lon="9.142236672341824">
<ele>143.8</ele>
<time>2024-05-08T12:28:43Z</time>
</trkpt>
<trkpt lat="49.30409235879779" lon="9.14216324687004">
<ele>143.8</ele>
<time>2024-05-08T12:28:44Z</time>
</trkpt>
<trkpt lat="49.3040847312659" lon="9.142133658751844">
<ele>143.8</ele>
<time>2024-05-08T12:28:45Z</time>
</trkpt>
<trkpt lat="49.304077103734016" lon="9.14210507646203">
<ele>144</ele>
<time>2024-05-08T12:28:46Z</time>
</trkpt>
<trkpt lat="49.30406947620213" lon="9.142073560506104">
<ele>144</ele>
<time>2024-05-08T12:28:47Z</time>
</trkpt>
<trkpt lat="49.30406184867024" lon="9.142036428675056">
<ele>144.2</ele>
<time>2024-05-08T12:28:48Z</time>
</trkpt>
<trkpt lat="49.30404659360647" lon="9.141996363177896">
<ele>144.2</ele>
<time>2024-05-08T12:28:50Z</time>
</trkpt>
<trkpt lat="49.30402748286724" lon="9.141913382336496">
<ele>144.4</ele>
<time>2024-05-08T12:28:51Z</time>
</trkpt>
<trkpt lat="49.30401608347893" lon="9.141881866380572">
<ele>144.6</ele>
<time>2024-05-08T12:28:53Z</time>
</trkpt>
<trkpt lat="49.30400845594704" lon="9.14184850640595">
<ele>144.6</ele>
<time>2024-05-08T12:28:54Z</time>
</trkpt>
<trkpt lat="49.3039969727397" lon="9.141806596890092">
<ele>144.6</ele>
<time>2024-05-08T12:28:55Z</time>
</trkpt>
<trkpt lat="49.3039779458195" lon="9.141719760373237">
<ele>144.8</ele>
<time>2024-05-08T12:28:56Z</time>
</trkpt>
<trkpt lat="49.30396646261215" lon="9.141670223325493">
<ele>144.8</ele>
<time>2024-05-08T12:28:57Z</time>
</trkpt>
<trkpt lat="49.303958835080266" lon="9.141623452305794">
<ele>144.8</ele>
<time>2024-05-08T12:28:58Z</time>
</trkpt>
<trkpt lat="49.30394743569195" lon="9.1415748372674">
<ele>144.8</ele>
<time>2024-05-08T12:28:59Z</time>
</trkpt>
<trkpt lat="49.30393595248461" lon="9.141529994085433">
<ele>144.8</ele>
<time>2024-05-08T12:29:01Z</time>
</trkpt>
<trkpt lat="49.30393595248461" lon="9.141443241387606">
<ele>145</ele>
<time>2024-05-08T12:29:02Z</time>
</trkpt>
<trkpt lat="49.30395120754838" lon="9.141409797593951">
<ele>145</ele>
<time>2024-05-08T12:29:03Z</time>
</trkpt>
<trkpt lat="49.30397031828761" lon="9.141385070979595">
<ele>145.2</ele>
<time>2024-05-08T12:29:05Z</time>
</trkpt>
<trkpt lat="49.304019855335355" lon="9.14135456085205">
<ele>145.4</ele>
<time>2024-05-08T12:29:06Z</time>
</trkpt>
<trkpt lat="49.30404659360647" lon="9.141345005482435">
<ele>145.4</ele>
<time>2024-05-08T12:29:08Z</time>
</trkpt>
<trkpt lat="49.3040657043457" lon="9.14133159443736">
<ele>145.4</ele>
<time>2024-05-08T12:29:09Z</time>
</trkpt>
<trkpt lat="49.30411146953702" lon="9.141302090138195">
<ele>145.6</ele>
<time>2024-05-08T12:29:11Z</time>
</trkpt>
<trkpt lat="49.30416486226022" lon="9.141269652172925">
<ele>145.8</ele>
<time>2024-05-08T12:29:13Z</time>
</trkpt>
<trkpt lat="49.304218254983425" lon="9.141238136216998">
<ele>146</ele>
<time>2024-05-08T12:29:14Z</time>
</trkpt>
<trkpt lat="49.30424499325454" lon="9.141224808990955">
<ele>146.2</ele>
<time>2024-05-08T12:29:16Z</time>
</trkpt>
<trkpt lat="49.30430215783417" lon="9.141202848404646">
<ele>146.4</ele>
<time>2024-05-08T12:29:17Z</time>
</trkpt>
<trkpt lat="49.30432889610529" lon="9.141193376854062">
<ele>146.4</ele>
<time>2024-05-08T12:29:19Z</time>
</trkpt>
<trkpt lat="49.30437843315303" lon="9.14117619395256">
<ele>146.6</ele>
<time>2024-05-08T12:29:21Z</time>
</trkpt>
<trkpt lat="49.30442805401981" lon="9.141161860898135">
<ele>146.6</ele>
<time>2024-05-08T12:29:22Z</time>
</trkpt>
<trkpt lat="49.30445093661547" lon="9.14115708321333">
<ele>146.6</ele>
<time>2024-05-08T12:29:23Z</time>
</trkpt>
<trkpt lat="49.304473819211125" lon="9.141151383519173">
<ele>146.8</ele>
<time>2024-05-08T12:29:24Z</time>
</trkpt>
<trkpt lat="49.304496701806784" lon="9.141143755987288">
<ele>146.8</ele>
<time>2024-05-08T12:29:25Z</time>
</trkpt>
<trkpt lat="49.3045234400779" lon="9.141124645248055">
<ele>146.8</ele>
<time>2024-05-08T12:29:26Z</time>
</trkpt>
<trkpt lat="49.304550094529986" lon="9.14109706878662">
<ele>147</ele>
<time>2024-05-08T12:29:28Z</time>
</trkpt>
<trkpt lat="49.304576832801104" lon="9.140994977205992">
<ele>147</ele>
<time>2024-05-08T12:29:29Z</time>
</trkpt>
<trkpt lat="49.30458446033299" lon="9.140941584482787">
<ele>147</ele>
<time>2024-05-08T12:29:30Z</time>
</trkpt>
<trkpt lat="49.30458831600845" lon="9.14088341407478">
<ele>147</ele>
<time>2024-05-08T12:29:32Z</time>
</trkpt>
<trkpt lat="49.30458831600845" lon="9.140832871198654">
<ele>147</ele>
<time>2024-05-08T12:29:33Z</time>
</trkpt>
<trkpt lat="49.30459208786488" lon="9.14078325033188">
<ele>147</ele>
<time>2024-05-08T12:29:34Z</time>
</trkpt>
<trkpt lat="49.304595943540335" lon="9.140734635293484">
<ele>147</ele>
<time>2024-05-08T12:29:35Z</time>
</trkpt>
<trkpt lat="49.304595943540335" lon="9.140686942264438">
<ele>147</ele>
<time>2024-05-08T12:29:36Z</time>
</trkpt>
<trkpt lat="49.30459971539676" lon="9.140598261728885">
<ele>147.2</ele>
<time>2024-05-08T12:29:37Z</time>
</trkpt>
<trkpt lat="49.30460357107222" lon="9.140560124069452">
<ele>147.4</ele>
<time>2024-05-08T12:29:38Z</time>
</trkpt>
<trkpt lat="49.304614970460534" lon="9.140521986410022">
<ele>147.6</ele>
<time>2024-05-08T12:29:39Z</time>
</trkpt>
<trkpt lat="49.30462645366788" lon="9.140491476282476">
<ele>147.8</ele>
<time>2024-05-08T12:29:41Z</time>
</trkpt>
<trkpt lat="49.30464170873165" lon="9.14046859368682">
<ele>148</ele>
<time>2024-05-08T12:29:42Z</time>
</trkpt>
<trkpt lat="49.30465696379542" lon="9.140451410785316">
<ele>148.2</ele>
<time>2024-05-08T12:29:43Z</time>
</trkpt>
<trkpt lat="49.3046722188592" lon="9.140437999740245">
<ele>148.2</ele>
<time>2024-05-08T12:29:44Z</time>
</trkpt>
<trkpt lat="49.30470650084317" lon="9.140419894829392">
<ele>148.6</ele>
<time>2024-05-08T12:29:45Z</time>
</trkpt>
<trkpt lat="49.3047256115824" lon="9.140417044982314">
<ele>148.6</ele>
<time>2024-05-08T12:29:47Z</time>
</trkpt>
<trkpt lat="49.3047446385026" lon="9.140415117144585">
<ele>148.8</ele>
<time>2024-05-08T12:29:48Z</time>
</trkpt>
<trkpt lat="49.304790487512946" lon="9.140403717756271">
<ele>149</ele>
<time>2024-05-08T12:29:50Z</time>
</trkpt>
<trkpt lat="49.30484388023615" lon="9.140375135466456">
<ele>149</ele>
<time>2024-05-08T12:29:51Z</time>
</trkpt>
<trkpt lat="49.304870534688234" lon="9.140356946736574">
<ele>149</ele>
<time>2024-05-08T12:29:53Z</time>
</trkpt>
<trkpt lat="49.304931638762355" lon="9.140310259535909">
<ele>149</ele>
<time>2024-05-08T12:29:54Z</time>
</trkpt>
<trkpt lat="49.304965920746326" lon="9.14028637111187">
<ele>149</ele>
<time>2024-05-08T12:29:56Z</time>
</trkpt>
<trkpt lat="49.30500028654933" lon="9.140263488516212">
<ele>149</ele>
<time>2024-05-08T12:29:57Z</time>
</trkpt>
<trkpt lat="49.305068934336305" lon="9.140219651162624">
<ele>149</ele>
<time>2024-05-08T12:29:58Z</time>
</trkpt>
<trkpt lat="49.30510330013931" lon="9.140199618414044">
<ele>149</ele>
<time>2024-05-08T12:29:59Z</time>
</trkpt>
<trkpt lat="49.30513381026685" lon="9.140176735818386">
<ele>149</ele>
<time>2024-05-08T12:30:00Z</time>
</trkpt>
<trkpt lat="49.3051643203944" lon="9.140154775232077">
<ele>149</ele>
<time>2024-05-08T12:30:01Z</time>
</trkpt>
<trkpt lat="49.30519483052194" lon="9.140129964798687">
<ele>149</ele>
<time>2024-05-08T12:30:03Z</time>
</trkpt>
<trkpt lat="49.305225340649486" lon="9.14011001586914">
<ele>149</ele>
<time>2024-05-08T12:30:04Z</time>
</trkpt>
<trkpt lat="49.30529021658003" lon="9.140071794390678">
<ele>149</ele>
<time>2024-05-08T12:30:05Z</time>
</trkpt>
<trkpt lat="49.30532072670758" lon="9.140053689479828">
<ele>149</ele>
<time>2024-05-08T12:30:06Z</time>
</trkpt>
<trkpt lat="49.30535500869155" lon="9.140034662559628">
<ele>149</ele>
<time>2024-05-08T12:30:07Z</time>
</trkpt>
<trkpt lat="49.30538937449455" lon="9.140018401667476">
<ele>149</ele>
<time>2024-05-08T12:30:09Z</time>
</trkpt>
<trkpt lat="49.30545802228153" lon="9.139987891539931">
<ele>149</ele>
<time>2024-05-08T12:30:10Z</time>
</trkpt>
<trkpt lat="49.30548853240907" lon="9.13996978662908">
<ele>149</ele>
<time>2024-05-08T12:30:12Z</time>
</trkpt>
<trkpt lat="49.305522898212075" lon="9.13995360955596">
<ele>149</ele>
<time>2024-05-08T12:30:13Z</time>
</trkpt>
<trkpt lat="49.30559531785548" lon="9.139915388077496">
<ele>149</ele>
<time>2024-05-08T12:30:15Z</time>
</trkpt>
<trkpt lat="49.30566782131791" lon="9.139876328408718">
<ele>149</ele>
<time>2024-05-08T12:30:16Z</time>
</trkpt>
<trkpt lat="49.305702187120914" lon="9.139858223497868">
<ele>149</ele>
<time>2024-05-08T12:30:18Z</time>
</trkpt>
<trkpt lat="49.30577460676432" lon="9.1398133803159">
<ele>149</ele>
<time>2024-05-08T12:30:20Z</time>
</trkpt>
<trkpt lat="49.30584333837032" lon="9.139764765277503">
<ele>149</ele>
<time>2024-05-08T12:30:21Z</time>
</trkpt>
<trkpt lat="49.305881476029754" lon="9.139743726700544">
<ele>149.2</ele>
<time>2024-05-08T12:30:23Z</time>
</trkpt>
<trkpt lat="49.305919613689184" lon="9.139717994257808">
<ele>149.2</ele>
<time>2024-05-08T12:30:24Z</time>
</trkpt>
<trkpt lat="49.30599211715162" lon="9.139659823849795">
<ele>149.4</ele>
<time>2024-05-08T12:30:26Z</time>
</trkpt>
<trkpt lat="49.30606839247048" lon="9.13959788158536">
<ele>149.6</ele>
<time>2024-05-08T12:30:27Z</time>
</trkpt>
<trkpt lat="49.30610267445445" lon="9.139566365629436">
<ele>149.6</ele>
<time>2024-05-08T12:30:28Z</time>
</trkpt>
<trkpt lat="49.306137040257454" lon="9.13953677751124">
<ele>149.6</ele>
<time>2024-05-08T12:30:30Z</time>
</trkpt>
<trkpt lat="49.306213315576315" lon="9.1394748352468">
<ele>149.4</ele>
<time>2024-05-08T12:30:31Z</time>
</trkpt>
<trkpt lat="49.306251453235745" lon="9.139445247128606">
<ele>149.4</ele>
<time>2024-05-08T12:30:33Z</time>
</trkpt>
<trkpt lat="49.30632781237364" lon="9.139383304864168">
<ele>149.2</ele>
<time>2024-05-08T12:30:34Z</time>
</trkpt>
<trkpt lat="49.30636209435761" lon="9.139354638755322">
<ele>149</ele>
<time>2024-05-08T12:30:35Z</time>
</trkpt>
<trkpt lat="49.30640023201704" lon="9.139327984303236">
<ele>149</ele>
<time>2024-05-08T12:30:37Z</time>
</trkpt>
<trkpt lat="49.30643836967647" lon="9.13930032402277">
<ele>149</ele>
<time>2024-05-08T12:30:38Z</time>
</trkpt>
<trkpt lat="49.30646896362305" lon="9.139266964048147">
<ele>148.8</ele>
<time>2024-05-08T12:30:39Z</time>
</trkpt>
<trkpt lat="49.30649947375059" lon="9.139224970713258">
<ele>148.8</ele>
<time>2024-05-08T12:30:40Z</time>
</trkpt>
<trkpt lat="49.30652235634625" lon="9.13918012753129">
<ele>148.8</ele>
<time>2024-05-08T12:30:41Z</time>
</trkpt>
<trkpt lat="49.30654523894191" lon="9.139136290177705">
<ele>148.8</ele>
<time>2024-05-08T12:30:42Z</time>
</trkpt>
<trkpt lat="49.30657189339399" lon="9.139096224680545">
<ele>148.6</ele>
<time>2024-05-08T12:30:43Z</time>
</trkpt>
<trkpt lat="49.30659863166511" lon="9.139064708724618">
<ele>148.6</ele>
<time>2024-05-08T12:30:44Z</time>
</trkpt>
<trkpt lat="49.306629141792655" lon="9.139037132263184">
<ele>148.6</ele>
<time>2024-05-08T12:30:45Z</time>
</trkpt>
<trkpt lat="49.30668639019132" lon="9.139001844450831">
<ele>148.6</ele>
<time>2024-05-08T12:30:47Z</time>
</trkpt>
<trkpt lat="49.30671690031886" lon="9.13898466154933">
<ele>148.6</ele>
<time>2024-05-08T12:30:48Z</time>
</trkpt>
<trkpt lat="49.30674355477095" lon="9.138971250504255">
<ele>148.6</ele>
<time>2024-05-08T12:30:49Z</time>
</trkpt>
<trkpt lat="49.30677406489849" lon="9.13896655663848">
<ele>148.6</ele>
<time>2024-05-08T12:30:50Z</time>
</trkpt>
<trkpt lat="49.30683131329715" lon="9.138986505568027">
<ele>148.6</ele>
<time>2024-05-08T12:30:52Z</time>
</trkpt>
<trkpt lat="49.30687330663204" lon="9.139056159183385">
<ele>148.6</ele>
<time>2024-05-08T12:30:54Z</time>
</trkpt>
<trkpt lat="49.306888561695814" lon="9.139095302671194">
<ele>148.6</ele>
<time>2024-05-08T12:30:55Z</time>
</trkpt>
<trkpt lat="49.306903816759586" lon="9.139131512492895">
<ele>148.6</ele>
<time>2024-05-08T12:30:56Z</time>
</trkpt>
<trkpt lat="49.3069152161479" lon="9.139162944629788">
<ele>148.6</ele>
<time>2024-05-08T12:30:57Z</time>
</trkpt>
<trkpt lat="49.30693809874356" lon="9.139193454757333">
<ele>148.4</ele>
<time>2024-05-08T12:30:58Z</time>
</trkpt>
<trkpt lat="49.306960981339216" lon="9.139208793640137">
<ele>148.4</ele>
<time>2024-05-08T12:30:59Z</time>
</trkpt>
<trkpt lat="49.30702208541334" lon="9.139196388423445">
<ele>148.2</ele>
<time>2024-05-08T12:31:01Z</time>
</trkpt>
<trkpt lat="49.30705259554088" lon="9.139169650152326">
<ele>148</ele>
<time>2024-05-08T12:31:02Z</time>
</trkpt>
<trkpt lat="49.30710976012051" lon="9.13910293020308">
<ele>147.8</ele>
<time>2024-05-08T12:31:03Z</time>
</trkpt>
<trkpt lat="49.307144125923514" lon="9.139071414247155">
<ele>147.6</ele>
<time>2024-05-08T12:31:04Z</time>
</trkpt>
<trkpt lat="49.30717463605106" lon="9.13904182612896">
<ele>147.4</ele>
<time>2024-05-08T12:31:06Z</time>
</trkpt>
<trkpt lat="49.3072051461786" lon="9.139010393992066">
<ele>147.4</ele>
<time>2024-05-08T12:31:07Z</time>
</trkpt>
<trkpt lat="49.30723951198161" lon="9.138979883864522">
<ele>147.2</ele>
<time>2024-05-08T12:31:08Z</time>
</trkpt>
<trkpt lat="49.30730430409312" lon="9.138915007933974">
<ele>147</ele>
<time>2024-05-08T12:31:10Z</time>
</trkpt>
<trkpt lat="49.30736918002367" lon="9.13884351029992">
<ele>146.8</ele>
<time>2024-05-08T12:31:11Z</time>
</trkpt>
<trkpt lat="49.30740354582667" lon="9.138811994343996">
<ele>146.8</ele>
<time>2024-05-08T12:31:13Z</time>
</trkpt>
<trkpt lat="49.30746456608176" lon="9.138750052079558">
<ele>146.8</ele>
<time>2024-05-08T12:31:15Z</time>
</trkpt>
<trkpt lat="49.30749507620931" lon="9.138719541952014">
<ele>146.8</ele>
<time>2024-05-08T12:31:16Z</time>
</trkpt>
<trkpt lat="49.30752558633685" lon="9.138691881671548">
<ele>146.8</ele>
<time>2024-05-08T12:31:17Z</time>
</trkpt>
<trkpt lat="49.307559952139854" lon="9.138661371544003">
<ele>146.8</ele>
<time>2024-05-08T12:31:18Z</time>
</trkpt>
<trkpt lat="49.30762474425137" lon="9.138598423451183">
<ele>146.8</ele>
<time>2024-05-08T12:31:19Z</time>
</trkpt>
<trkpt lat="49.307659110054374" lon="9.13856791332364">
<ele>146.8</ele>
<time>2024-05-08T12:31:21Z</time>
</trkpt>
<trkpt lat="49.30772775784135" lon="9.138503037393091">
<ele>147</ele>
<time>2024-05-08T12:31:22Z</time>
</trkpt>
<trkpt lat="49.30775826796889" lon="9.138471521437168">
<ele>147</ele>
<time>2024-05-08T12:31:24Z</time>
</trkpt>
<trkpt lat="49.30782314389944" lon="9.138406729325652">
<ele>147.2</ele>
<time>2024-05-08T12:31:25Z</time>
</trkpt>
<trkpt lat="49.30785750970245" lon="9.138375213369727">
<ele>147.2</ele>
<time>2024-05-08T12:31:26Z</time>
</trkpt>
<trkpt lat="49.307891791686416" lon="9.138341853395104">
<ele>147.2</ele>
<time>2024-05-08T12:31:28Z</time>
</trkpt>
<trkpt lat="49.30795666761696" lon="9.138276977464557">
<ele>147.4</ele>
<time>2024-05-08T12:31:30Z</time>
</trkpt>
<trkpt lat="49.30798717774451" lon="9.138241689652205">
<ele>147.4</ele>
<time>2024-05-08T12:31:31Z</time>
</trkpt>
<trkpt lat="49.30801768787205" lon="9.138203551992774">
<ele>147.4</ele>
<time>2024-05-08T12:31:32Z</time>
</trkpt>
<trkpt lat="49.3080825638026" lon="9.138126354664564">
<ele>147.4</ele>
<time>2024-05-08T12:31:34Z</time>
</trkpt>
<trkpt lat="49.30814735591411" lon="9.138045301660895">
<ele>147.6</ele>
<time>2024-05-08T12:31:36Z</time>
</trkpt>
<trkpt lat="49.308212231844664" lon="9.137960392981768">
<ele>148</ele>
<time>2024-05-08T12:31:37Z</time>
</trkpt>
<trkpt lat="49.30824274197221" lon="9.13791655562818">
<ele>148</ele>
<time>2024-05-08T12:31:38Z</time>
</trkpt>
<trkpt lat="49.30827325209975" lon="9.137873640283942">
<ele>148</ele>
<time>2024-05-08T12:31:39Z</time>
</trkpt>
<trkpt lat="49.30830761790275" lon="9.137829719111323">
<ele>148</ele>
<time>2024-05-08T12:31:40Z</time>
</trkpt>
<trkpt lat="49.3083381280303" lon="9.137786803767083">
<ele>148</ele>
<time>2024-05-08T12:31:42Z</time>
</trkpt>
<trkpt lat="49.308406775817275" lon="9.137695273384452">
<ele>148</ele>
<time>2024-05-08T12:31:44Z</time>
</trkpt>
<trkpt lat="49.30844114162028" lon="9.137646658346055">
<ele>148</ele>
<time>2024-05-08T12:31:45Z</time>
</trkpt>
<trkpt lat="49.30850978940725" lon="9.137550350278616">
<ele>148</ele>
<time>2024-05-08T12:31:46Z</time>
</trkpt>
<trkpt lat="49.30854415521026" lon="9.137499807402492">
<ele>148</ele>
<time>2024-05-08T12:31:47Z</time>
</trkpt>
<trkpt lat="49.30858229286969" lon="9.137448258697988">
<ele>148</ele>
<time>2024-05-08T12:31:48Z</time>
</trkpt>
<trkpt lat="49.30861657485366" lon="9.137392016127706">
<ele>147.8</ele>
<time>2024-05-08T12:31:49Z</time>
</trkpt>
<trkpt lat="49.30865471251309" lon="9.137334767729044">
<ele>147.8</ele>
<time>2024-05-08T12:31:50Z</time>
</trkpt>
<trkpt lat="49.30869285017252" lon="9.137280452996492">
<ele>147.6</ele>
<time>2024-05-08T12:31:51Z</time>
</trkpt>
<trkpt lat="49.30873107165098" lon="9.137218426913025">
<ele>147.6</ele>
<time>2024-05-08T12:31:52Z</time>
</trkpt>
<trkpt lat="49.30877298116684" lon="9.13716117851436">
<ele>147.6</ele>
<time>2024-05-08T12:31:53Z</time>
</trkpt>
<trkpt lat="49.30881111882627" lon="9.13710493594408">
<ele>147.4</ele>
<time>2024-05-08T12:31:54Z</time>
</trkpt>
<trkpt lat="49.30885311216116" lon="9.137051543220878">
<ele>147.4</ele>
<time>2024-05-08T12:31:55Z</time>
</trkpt>
<trkpt lat="49.30889124982059" lon="9.137000078335404">
<ele>147.2</ele>
<time>2024-05-08T12:31:56Z</time>
</trkpt>
<trkpt lat="49.30893324315548" lon="9.136944757774472">
<ele>147.2</ele>
<time>2024-05-08T12:31:58Z</time>
</trkpt>
<trkpt lat="49.30896752513945" lon="9.136893209069967">
<ele>147</ele>
<time>2024-05-08T12:31:59Z</time>
</trkpt>
<trkpt lat="49.309040028601885" lon="9.136794973164797">
<ele>146.8</ele>
<time>2024-05-08T12:32:01Z</time>
</trkpt>
<trkpt lat="49.309101048856974" lon="9.136701514944434">
<ele>146.8</ele>
<time>2024-05-08T12:32:03Z</time>
</trkpt>
<trkpt lat="49.30913155898452" lon="9.136654827743769">
<ele>146.8</ele>
<time>2024-05-08T12:32:04Z</time>
</trkpt>
<trkpt lat="49.30916592478752" lon="9.136608056724072">
<ele>146.8</ele>
<time>2024-05-08T12:32:05Z</time>
</trkpt>
<trkpt lat="49.30921931751072" lon="9.136503199115396">
<ele>147</ele>
<time>2024-05-08T12:32:06Z</time>
</trkpt>
<trkpt lat="49.30924605578184" lon="9.13645357824862">
<ele>147</ele>
<time>2024-05-08T12:32:08Z</time>
</trkpt>
<trkpt lat="49.30929944850504" lon="9.13635634817183">
<ele>147.4</ele>
<time>2024-05-08T12:32:10Z</time>
</trkpt>
<trkpt lat="49.309356613084674" lon="9.136261884123089">
<ele>147.6</ele>
<time>2024-05-08T12:32:11Z</time>
</trkpt>
<trkpt lat="49.30938335135579" lon="9.136211341246964">
<ele>147.8</ele>
<time>2024-05-08T12:32:13Z</time>
</trkpt>
<trkpt lat="49.30941008962691" lon="9.13616180419922">
<ele>148</ele>
<time>2024-05-08T12:32:14Z</time>
</trkpt>
<trkpt lat="49.30946348235011" lon="9.136066418141128">
<ele>148.6</ele>
<time>2024-05-08T12:32:15Z</time>
</trkpt>
<trkpt lat="49.3094901368022" lon="9.13601964712143">
<ele>148.8</ele>
<time>2024-05-08T12:32:16Z</time>
</trkpt>
<trkpt lat="49.309516875073314" lon="9.135971954092383">
<ele>148.8</ele>
<time>2024-05-08T12:32:18Z</time>
</trkpt>
<trkpt lat="49.3095435295254" lon="9.135923339053988">
<ele>149</ele>
<time>2024-05-08T12:32:19Z</time>
</trkpt>
<trkpt lat="49.309597006067634" lon="9.135829880833626">
<ele>149.2</ele>
<time>2024-05-08T12:32:20Z</time>
</trkpt>
<trkpt lat="49.30962366051972" lon="9.13578319363296">
<ele>149.4</ele>
<time>2024-05-08T12:32:21Z</time>
</trkpt>
<trkpt lat="49.30965039879083" lon="9.135740278288722">
<ele>149.4</ele>
<time>2024-05-08T12:32:22Z</time>
</trkpt>
<trkpt lat="49.30967705324292" lon="9.135696357116103">
<ele>149.6</ele>
<time>2024-05-08T12:32:23Z</time>
</trkpt>
<trkpt lat="49.30970379151404" lon="9.135655369609594">
<ele>149.6</ele>
<time>2024-05-08T12:32:24Z</time>
</trkpt>
<trkpt lat="49.3097266741097" lon="9.135611532256007">
<ele>149.6</ele>
<time>2024-05-08T12:32:26Z</time>
</trkpt>
<trkpt lat="49.3097800668329" lon="9.13552662357688">
<ele>149.8</ele>
<time>2024-05-08T12:32:27Z</time>
</trkpt>
<trkpt lat="49.30980680510402" lon="9.13548655807972">
<ele>149.8</ele>
<time>2024-05-08T12:32:28Z</time>
</trkpt>
<trkpt lat="49.3098334595561" lon="9.13544649258256">
<ele>150</ele>
<time>2024-05-08T12:32:30Z</time>
</trkpt>
<trkpt lat="49.309886852279305" lon="9.13536636158824">
<ele>150</ele>
<time>2024-05-08T12:32:31Z</time>
</trkpt>
<trkpt lat="49.30991359055042" lon="9.13532822392881">
<ele>150</ele>
<time>2024-05-08T12:32:33Z</time>
</trkpt>
<trkpt lat="49.3099632114172" lon="9.13525002077222">
<ele>150</ele>
<time>2024-05-08T12:32:35Z</time>
</trkpt>
<trkpt lat="49.310008976608515" lon="9.135179445147514">
<ele>149.8</ele>
<time>2024-05-08T12:32:36Z</time>
</trkpt>
<trkpt lat="49.31003185920417" lon="9.135156562551856">
<ele>149.8</ele>
<time>2024-05-08T12:32:38Z</time>
</trkpt>
<trkpt lat="49.31007762439549" lon="9.13512990809977">
<ele>149.6</ele>
<time>2024-05-08T12:32:39Z</time>
</trkpt>
<trkpt lat="49.31010436266661" lon="9.13512798026204">
<ele>149.4</ele>
<time>2024-05-08T12:32:41Z</time>
</trkpt>
<trkpt lat="49.310127245262265" lon="9.135136529803276">
<ele>149.2</ele>
<time>2024-05-08T12:32:42Z</time>
</trkpt>
<trkpt lat="49.31015012785792" lon="9.135156562551856">
<ele>149</ele>
<time>2024-05-08T12:32:43Z</time>
</trkpt>
<trkpt lat="49.310165382921696" lon="9.135179445147514">
<ele>148.8</ele>
<time>2024-05-08T12:32:44Z</time>
</trkpt>
<trkpt lat="49.31020729243755" lon="9.135256726294756">
<ele>148.2</ele>
<time>2024-05-08T12:32:45Z</time>
</trkpt>
<trkpt lat="49.31023403070867" lon="9.135303497314451">
<ele>148</ele>
<time>2024-05-08T12:32:46Z</time>
</trkpt>
<trkpt lat="49.310264540836215" lon="9.135364517569542">
<ele>147.6</ele>
<time>2024-05-08T12:32:47Z</time>
</trkpt>
<trkpt lat="49.31029127910733" lon="9.135428387671707">
<ele>147.4</ele>
<time>2024-05-08T12:32:49Z</time>
</trkpt>
<trkpt lat="49.31035229936242" lon="9.135569538921118">
<ele>146.8</ele>
<time>2024-05-08T12:32:51Z</time>
</trkpt>
<trkpt lat="49.31042094714939" lon="9.135709684342146">
<ele>146.2</ele>
<time>2024-05-08T12:32:52Z</time>
</trkpt>
<trkpt lat="49.31045145727694" lon="9.13578126579523">
<ele>146</ele>
<time>2024-05-08T12:32:54Z</time>
</trkpt>
<trkpt lat="49.310520105063915" lon="9.13592141121626">
<ele>145.4</ele>
<time>2024-05-08T12:32:55Z</time>
</trkpt>
<trkpt lat="49.31055447086692" lon="9.135990142822266">
<ele>145.2</ele>
<time>2024-05-08T12:32:57Z</time>
</trkpt>
<trkpt lat="49.310619346797466" lon="9.136133138090372">
<ele>144.8</ele>
<time>2024-05-08T12:32:58Z</time>
</trkpt>
<trkpt lat="49.31064985692501" lon="9.136206563562157">
<ele>144.4</ele>
<time>2024-05-08T12:33:00Z</time>
</trkpt>
<trkpt lat="49.31072227656841" lon="9.13635341450572">
<ele>143.8</ele>
<time>2024-05-08T12:33:01Z</time>
</trkpt>
<trkpt lat="49.310756642371416" lon="9.136424995958803">
<ele>143.6</ele>
<time>2024-05-08T12:33:03Z</time>
</trkpt>
<trkpt lat="49.31079478003085" lon="9.136496493592858">
<ele>143.4</ele>
<time>2024-05-08T12:33:04Z</time>
</trkpt>
<trkpt lat="49.31086342781782" lon="9.136638566851616">
<ele>143</ele>
<time>2024-05-08T12:33:05Z</time>
</trkpt>
<trkpt lat="49.310893937945366" lon="9.1367101483047">
<ele>143</ele>
<time>2024-05-08T12:33:06Z</time>
</trkpt>
<trkpt lat="49.31092830374837" lon="9.136781645938754">
<ele>143</ele>
<time>2024-05-08T12:33:07Z</time>
</trkpt>
<trkpt lat="49.310955042019486" lon="9.136850293725727">
<ele>142.8</ele>
<time>2024-05-08T12:33:09Z</time>
</trkpt>
<trkpt lat="49.31098555214703" lon="9.136911313980818">
<ele>142.8</ele>
<time>2024-05-08T12:33:10Z</time>
</trkpt>
<trkpt lat="49.31103894487023" lon="9.137018183246257">
<ele>142.6</ele>
<time>2024-05-08T12:33:12Z</time>
</trkpt>
<trkpt lat="49.31106945499778" lon="9.13706487044692">
<ele>142.4</ele>
<time>2024-05-08T12:33:13Z</time>
</trkpt>
<trkpt lat="49.31110382080078" lon="9.137096386402844">
<ele>142.4</ele>
<time>2024-05-08T12:33:14Z</time>
</trkpt>
<trkpt lat="49.31114573031664" lon="9.137098230421543">
<ele>142</ele>
<time>2024-05-08T12:33:15Z</time>
</trkpt>
<trkpt lat="49.31118009611964" lon="9.137089680880308">
<ele>141.6</ele>
<time>2024-05-08T12:33:16Z</time>
</trkpt>
<trkpt lat="49.311214378103614" lon="9.137063026428224">
<ele>141.4</ele>
<time>2024-05-08T12:33:17Z</time>
</trkpt>
<trkpt lat="49.31124488823116" lon="9.137029582634568">
<ele>141.4</ele>
<time>2024-05-08T12:33:18Z</time>
</trkpt>
<trkpt lat="49.31130599230528" lon="9.136939980089664">
<ele>141</ele>
<time>2024-05-08T12:33:19Z</time>
</trkpt>
<trkpt lat="49.31132887490094" lon="9.13689136505127">
<ele>141</ele>
<time>2024-05-08T12:33:21Z</time>
</trkpt>
<trkpt lat="49.31137841194868" lon="9.136797823011875">
<ele>141</ele>
<time>2024-05-08T12:33:22Z</time>
</trkpt>
<trkpt lat="49.31140129454434" lon="9.136758763343096">
<ele>141</ele>
<time>2024-05-08T12:33:24Z</time>
</trkpt>
<trkpt lat="49.31142040528357" lon="9.136721547693014">
<ele>141</ele>
<time>2024-05-08T12:33:25Z</time>
</trkpt>
<trkpt lat="49.31144328787923" lon="9.136686259880662">
<ele>141</ele>
<time>2024-05-08T12:33:26Z</time>
</trkpt>
<trkpt lat="49.31147379800677" lon="9.136621467769146">
<ele>140.8</ele>
<time>2024-05-08T12:33:28Z</time>
</trkpt>
<trkpt lat="49.311508163809776" lon="9.13656991906464">
<ele>141</ele>
<time>2024-05-08T12:33:30Z</time>
</trkpt>
<trkpt lat="49.31151956319809" lon="9.136545108631251">
<ele>141</ele>
<time>2024-05-08T12:33:31Z</time>
</trkpt>
<trkpt lat="49.31154244579375" lon="9.13649171590805">
<ele>141</ele>
<time>2024-05-08T12:33:32Z</time>
</trkpt>
<trkpt lat="49.31156155653298" lon="9.136460283771155">
<ele>141</ele>
<time>2024-05-08T12:33:33Z</time>
</trkpt>
<trkpt lat="49.31157681159675" lon="9.136427845805883">
<ele>141</ele>
<time>2024-05-08T12:33:35Z</time>
</trkpt>
<trkpt lat="49.31161494925618" lon="9.136369675397871">
<ele>141.2</ele>
<time>2024-05-08T12:33:36Z</time>
</trkpt>
<trkpt lat="49.311630204319954" lon="9.136344864964483">
<ele>141.4</ele>
<time>2024-05-08T12:33:38Z</time>
</trkpt>
<trkpt lat="49.31165694259107" lon="9.136304799467323">
<ele>141.4</ele>
<time>2024-05-08T12:33:39Z</time>
</trkpt>
<trkpt lat="49.311668341979384" lon="9.136291472241282">
<ele>141.4</ele>
<time>2024-05-08T12:33:40Z</time>
</trkpt>
<trkpt lat="49.31167219765484" lon="9.136286694556476">
<ele>141.4</ele>
<time>2024-05-08T12:33:42Z</time>
</trkpt>
<trkpt lat="49.31167596951127" lon="9.136284766718743">
<ele>141.2</ele>
<time>2024-05-08T12:33:43Z</time>
</trkpt>
<trkpt lat="49.31167596951127" lon="9.136282838881016">
<ele>141.2</ele>
<time>2024-05-08T12:33:44Z</time>
</trkpt>
<trkpt lat="49.31167596951127" lon="9.136284766718743">
<ele>141.2</ele>
<time>2024-05-08T12:33:46Z</time>
</trkpt>
<trkpt lat="49.31167596951127" lon="9.136286694556476">
<ele>141.2</ele>
<time>2024-05-08T12:33:51Z</time>
</trkpt>
<trkpt lat="49.31167596951127" lon="9.136288622394204">
<ele>141.2</ele>
<time>2024-05-08T12:33:54Z</time>
</trkpt>
<trkpt lat="49.31167596951127" lon="9.136289544403551">
<ele>141.2</ele>
<time>2024-05-08T12:33:58Z</time>
</trkpt>
<trkpt lat="49.31167596951127" lon="9.136291472241282">
<ele>141.2</ele>
<time>2024-05-08T12:34:02Z</time>
</trkpt>
<trkpt lat="49.31167596951127" lon="9.136293400079012">
<ele>141.2</ele>
<time>2024-05-08T12:34:08Z</time>
</trkpt>
<trkpt lat="49.31167596951127" lon="9.136291472241282">
<ele>141</ele>
<time>2024-05-08T12:34:23Z</time>
</trkpt>
<trkpt lat="49.31167596951127" lon="9.136293400079012">
<ele>141</ele>
<time>2024-05-08T12:34:50Z</time>
</trkpt>
<trkpt lat="49.31167982518673" lon="9.136291472241282">
<ele>141</ele>
<time>2024-05-08T12:35:08Z</time>
</trkpt>
<trkpt lat="49.31167982518673" lon="9.136289544403551">
<ele>141</ele>
<time>2024-05-08T12:35:14Z</time>
</trkpt>
<trkpt lat="49.31167982518673" lon="9.136291472241282">
<ele>141</ele>
<time>2024-05-08T12:35:16Z</time>
</trkpt>
<trkpt lat="49.31167982518673" lon="9.136289544403551">
<ele>141</ele>
<time>2024-05-08T12:35:21Z</time>
</trkpt>
<trkpt lat="49.31167982518673" lon="9.136291472241282">
<ele>141</ele>
<time>2024-05-08T12:35:24Z</time>
</trkpt>
<trkpt lat="49.31167982518673" lon="9.136293400079012">
<ele>141</ele>
<time>2024-05-08T12:35:42Z</time>
</trkpt>
<trkpt lat="49.31167596951127" lon="9.136293400079012">
<ele>141</ele>
<time>2024-05-08T12:35:46Z</time>
</trkpt>
<trkpt lat="49.31167982518673" lon="9.136293400079012">
<ele>141</ele>
<time>2024-05-08T12:35:50Z</time>
</trkpt>
<trkpt lat="49.31167596951127" lon="9.13629524409771">
<ele>140.8</ele>
<time>2024-05-08T12:35:53Z</time>
</trkpt>
<trkpt lat="49.31167982518673" lon="9.13629524409771">
<ele>140.8</ele>
<time>2024-05-08T12:35:56Z</time>
</trkpt>
<trkpt lat="49.31167982518673" lon="9.13629624992609">
<ele>140.8</ele>
<time>2024-05-08T12:36:06Z</time>
</trkpt>
<trkpt lat="49.31167982518673" lon="9.13629817776382">
<ele>140.8</ele>
<time>2024-05-08T12:36:17Z</time>
</trkpt>
<trkpt lat="49.31167982518673" lon="9.136300021782516">
<ele>141</ele>
<time>2024-05-08T12:36:22Z</time>
</trkpt>
<trkpt lat="49.31167982518673" lon="9.13629817776382">
<ele>141</ele>
<time>2024-05-08T12:36:42Z</time>
</trkpt>
<trkpt lat="49.31168359704316" lon="9.13629817776382">
<ele>141</ele>
<time>2024-05-08T12:36:50Z</time>
</trkpt>
<trkpt lat="49.31168359704316" lon="9.136300021782516">
<ele>140.8</ele>
<time>2024-05-08T12:36:52Z</time>
</trkpt>
<trkpt lat="49.311687452718616" lon="9.136301949620249">
<ele>140.8</ele>
<time>2024-05-08T12:36:59Z</time>
</trkpt>
<trkpt lat="49.311687452718616" lon="9.136300021782516">
<ele>140.8</ele>
<time>2024-05-08T12:37:04Z</time>
</trkpt>
<trkpt lat="49.311687452718616" lon="9.13629817776382">
<ele>140.8</ele>
<time>2024-05-08T12:37:15Z</time>
</trkpt>
<trkpt lat="49.311687452718616" lon="9.136300021782516">
<ele>140.8</ele>
<time>2024-05-08T12:37:16Z</time>
</trkpt>
<trkpt lat="49.311687452718616" lon="9.13629817776382">
<ele>140.6</ele>
<time>2024-05-08T12:37:20Z</time>
</trkpt>
<trkpt lat="49.311687452718616" lon="9.136300021782516">
<ele>140.6</ele>
<time>2024-05-08T12:37:35Z</time>
</trkpt>
<trkpt lat="49.311687452718616" lon="9.13629817776382">
<ele>140.6</ele>
<time>2024-05-08T12:37:51Z</time>
</trkpt>
<trkpt lat="49.311687452718616" lon="9.136300021782516">
<ele>140.6</ele>
<time>2024-05-08T12:37:56Z</time>
</trkpt>
<trkpt lat="49.311687452718616" lon="9.136301949620249">
<ele>140.6</ele>
<time>2024-05-08T12:38:03Z</time>
</trkpt>
<trkpt lat="49.311687452718616" lon="9.136302871629596">
<ele>140.6</ele>
<time>2024-05-08T12:38:12Z</time>
</trkpt>
<trkpt lat="49.311687452718616" lon="9.136304799467323">
<ele>140.6</ele>
<time>2024-05-08T12:38:21Z</time>
</trkpt>
<trkpt lat="49.311687452718616" lon="9.136302871629596">
<ele>140.6</ele>
<time>2024-05-08T12:38:49Z</time>
</trkpt>
<trkpt lat="49.31168359704316" lon="9.136302871629596">
<ele>140.6</ele>
<time>2024-05-08T12:38:52Z</time>
</trkpt>
<trkpt lat="49.311687452718616" lon="9.136302871629596">
<ele>140.4</ele>
<time>2024-05-08T12:38:57Z</time>
</trkpt>
<trkpt lat="49.311687452718616" lon="9.136304799467323">
<ele>140.4</ele>
<time>2024-05-08T12:38:58Z</time>
</trkpt>
<trkpt lat="49.31168359704316" lon="9.136302871629596">
<ele>140.4</ele>
<time>2024-05-08T12:38:59Z</time>
</trkpt>
<trkpt lat="49.31168359704316" lon="9.136304799467323">
<ele>140.2</ele>
<time>2024-05-08T12:39:02Z</time>
</trkpt>
<trkpt lat="49.311687452718616" lon="9.136304799467323">
<ele>140.2</ele>
<time>2024-05-08T12:39:05Z</time>
</trkpt>
<trkpt lat="49.311687452718616" lon="9.136306727305056">
<ele>140.2</ele>
<time>2024-05-08T12:39:07Z</time>
</trkpt>
<trkpt lat="49.31169122457504" lon="9.136308655142784">
<ele>140.2</ele>
<time>2024-05-08T12:39:08Z</time>
</trkpt>
<trkpt lat="49.31169122457504" lon="9.136309577152131">
<ele>140.2</ele>
<time>2024-05-08T12:39:09Z</time>
</trkpt>
<trkpt lat="49.31169122457504" lon="9.136311504989862">
<ele>140.2</ele>
<time>2024-05-08T12:39:11Z</time>
</trkpt>
<trkpt lat="49.311687452718616" lon="9.136311504989862">
<ele>140.2</ele>
<time>2024-05-08T12:39:12Z</time>
</trkpt>
<trkpt lat="49.311687452718616" lon="9.136313432827592">
<ele>140.2</ele>
<time>2024-05-08T12:39:17Z</time>
</trkpt>
<trkpt lat="49.311687452718616" lon="9.13631527684629">
<ele>140.2</ele>
<time>2024-05-08T12:39:23Z</time>
</trkpt>
<trkpt lat="49.311687452718616" lon="9.136313432827592">
<ele>140.2</ele>
<time>2024-05-08T12:39:30Z</time>
</trkpt>
<trkpt lat="49.311687452718616" lon="9.13631527684629">
<ele>140.2</ele>
<time>2024-05-08T12:39:31Z</time>
</trkpt>
<trkpt lat="49.311687452718616" lon="9.136313432827592">
<ele>140.2</ele>
<time>2024-05-08T12:39:46Z</time>
</trkpt>
<trkpt lat="49.311687452718616" lon="9.13631527684629">
<ele>140.2</ele>
<time>2024-05-08T12:39:51Z</time>
</trkpt>
<trkpt lat="49.311687452718616" lon="9.13631628267467">
<ele>140.2</ele>
<time>2024-05-08T12:40:16Z</time>
</trkpt>
<trkpt lat="49.311687452718616" lon="9.13631527684629">
<ele>140.2</ele>
<time>2024-05-08T12:40:19Z</time>
</trkpt>
<trkpt lat="49.311687452718616" lon="9.13631628267467">
<ele>140.2</ele>
<time>2024-05-08T12:40:26Z</time>
</trkpt>
<trkpt lat="49.31169122457504" lon="9.13631628267467">
<ele>140.2</ele>
<time>2024-05-08T12:40:37Z</time>
</trkpt>
<trkpt lat="49.311687452718616" lon="9.13631628267467">
<ele>140.2</ele>
<time>2024-05-08T12:40:38Z</time>
</trkpt>
<trkpt lat="49.311687452718616" lon="9.136318126693368">
<ele>140.2</ele>
<time>2024-05-08T12:40:39Z</time>
</trkpt>
<trkpt lat="49.31169122457504" lon="9.136318126693368">
<ele>140.2</ele>
<time>2024-05-08T12:40:51Z</time>
</trkpt>
<trkpt lat="49.31169122457504" lon="9.136320054531096">
<ele>140.2</ele>
<time>2024-05-08T12:41:03Z</time>
</trkpt>
<trkpt lat="49.31169122457504" lon="9.136318126693368">
<ele>140.2</ele>
<time>2024-05-08T12:41:05Z</time>
</trkpt>
<trkpt lat="49.3116950802505" lon="9.136328687891364">
<ele>140.2</ele>
<time>2024-05-08T12:41:14Z</time>
</trkpt>
<trkpt lat="49.311706479638815" lon="9.136342015117409">
<ele>140.2</ele>
<time>2024-05-08T12:41:15Z</time>
</trkpt>
<trkpt lat="49.31171796284616" lon="9.136358192190528">
<ele>140.2</ele>
<time>2024-05-08T12:41:16Z</time>
</trkpt>
<trkpt lat="49.31173321790993" lon="9.13637638092041">
<ele>140.2</ele>
<time>2024-05-08T12:41:17Z</time>
</trkpt>
<trkpt lat="49.31175610050559" lon="9.136404963210223">
<ele>140.2</ele>
<time>2024-05-08T12:41:18Z</time>
</trkpt>
<trkpt lat="49.31177898310125" lon="9.136436395347118">
<ele>140.2</ele>
<time>2024-05-08T12:41:19Z</time>
</trkpt>
<trkpt lat="49.31180186569691" lon="9.1364736109972">
<ele>140.2</ele>
<time>2024-05-08T12:41:21Z</time>
</trkpt>
<trkpt lat="49.311824748292565" lon="9.136507976800203">
<ele>140.2</ele>
<time>2024-05-08T12:41:22Z</time>
</trkpt>
<trkpt lat="49.31185148656368" lon="9.136545108631251">
<ele>140.2</ele>
<time>2024-05-08T12:41:23Z</time>
</trkpt>
<trkpt lat="49.31187814101577" lon="9.136580396443604">
<ele>140.2</ele>
<time>2024-05-08T12:41:24Z</time>
</trkpt>
<trkpt lat="49.31193538941443" lon="9.136654827743769">
<ele>140.2</ele>
<time>2024-05-08T12:41:25Z</time>
</trkpt>
<trkpt lat="49.311965899541974" lon="9.136694893240929">
<ele>140.2</ele>
<time>2024-05-08T12:41:27Z</time>
</trkpt>
<trkpt lat="49.31199640966952" lon="9.13673303090036">
<ele>140.2</ele>
<time>2024-05-08T12:41:28Z</time>
</trkpt>
<trkpt lat="49.31206505745649" lon="9.136815005913377">
<ele>140.2</ele>
<time>2024-05-08T12:41:29Z</time>
</trkpt>
<trkpt lat="49.31210319511592" lon="9.136857921257617">
<ele>140.2</ele>
<time>2024-05-08T12:41:31Z</time>
</trkpt>
<trkpt lat="49.31213756091893" lon="9.136903686448932">
<ele>140.2</ele>
<time>2024-05-08T12:41:32Z</time>
</trkpt>
<trkpt lat="49.3122062087059" lon="9.136991444975138">
<ele>140.2</ele>
<time>2024-05-08T12:41:34Z</time>
</trkpt>
<trkpt lat="49.31227485649288" lon="9.13708683103323">
<ele>140.2</ele>
<time>2024-05-08T12:41:35Z</time>
</trkpt>
<trkpt lat="49.31230922229588" lon="9.137133518233895">
<ele>140.2</ele>
<time>2024-05-08T12:41:36Z</time>
</trkpt>
<trkpt lat="49.31234358809888" lon="9.13718313910067">
<ele>140.2</ele>
<time>2024-05-08T12:41:37Z</time>
</trkpt>
<trkpt lat="49.312381725758314" lon="9.137233681976795">
<ele>140.2</ele>
<time>2024-05-08T12:41:38Z</time>
</trkpt>
<trkpt lat="49.312416007742286" lon="9.13728330284357">
<ele>140.2</ele>
<time>2024-05-08T12:41:39Z</time>
</trkpt>
<trkpt lat="49.31245037354529" lon="9.137331917881966">
<ele>140.2</ele>
<time>2024-05-08T12:41:40Z</time>
</trkpt>
<trkpt lat="49.31248851120472" lon="9.13738153874874">
<ele>140.2</ele>
<time>2024-05-08T12:41:41Z</time>
</trkpt>
<trkpt lat="49.31252664886415" lon="9.137433003634214">
<ele>140.2</ele>
<time>2024-05-08T12:41:42Z</time>
</trkpt>
<trkpt lat="49.31256864219904" lon="9.137484468519688">
<ele>140.2</ele>
<time>2024-05-08T12:41:44Z</time>
</trkpt>
<trkpt lat="49.31264877319336" lon="9.137590331956744">
<ele>140.2</ele>
<time>2024-05-08T12:41:46Z</time>
</trkpt>
<trkpt lat="49.31273267604411" lon="9.137691417708991">
<ele>140.2</ele>
<time>2024-05-08T12:41:48Z</time>
</trkpt>
<trkpt lat="49.31280895136297" lon="9.137789653614163">
<ele>140</ele>
<time>2024-05-08T12:41:49Z</time>
</trkpt>
<trkpt lat="49.31285094469786" lon="9.137840196490288">
<ele>139.8</ele>
<time>2024-05-08T12:41:50Z</time>
</trkpt>
<trkpt lat="49.31288908235729" lon="9.137889817357063">
<ele>139.6</ele>
<time>2024-05-08T12:41:52Z</time>
</trkpt>
<trkpt lat="49.31292722001672" lon="9.137941282242537">
<ele>139.4</ele>
<time>2024-05-08T12:41:53Z</time>
</trkpt>
<trkpt lat="49.31299972347915" lon="9.138038596138358">
<ele>139</ele>
<time>2024-05-08T12:41:54Z</time>
</trkpt>
<trkpt lat="49.31303786113858" lon="9.138085283339024">
<ele>139</ele>
<time>2024-05-08T12:41:55Z</time>
</trkpt>
<trkpt lat="49.31307599879801" lon="9.1381349042058">
<ele>138.8</ele>
<time>2024-05-08T12:41:56Z</time>
</trkpt>
<trkpt lat="49.31310650892556" lon="9.138177819550036">
<ele>138.6</ele>
<time>2024-05-08T12:41:58Z</time>
</trkpt>
<trkpt lat="49.31318278424442" lon="9.138243617489934">
<ele>138.2</ele>
<time>2024-05-08T12:42:00Z</time>
</trkpt>
<trkpt lat="49.31322477757931" lon="9.138259878382089">
<ele>138</ele>
<time>2024-05-08T12:42:01Z</time>
</trkpt>
<trkpt lat="49.31330105289817" lon="9.13825124502182">
<ele>137.6</ele>
<time>2024-05-08T12:42:03Z</time>
</trkpt>
<trkpt lat="49.313327707350254" lon="9.13821503520012">
<ele>137.4</ele>
<time>2024-05-08T12:42:04Z</time>
</trkpt>
<trkpt lat="49.313346818089485" lon="9.13817496970296">
<ele>137.2</ele>
<time>2024-05-08T12:42:05Z</time>
</trkpt>
<trkpt lat="49.3133925832808" lon="9.138081511482596">
<ele>137</ele>
<time>2024-05-08T12:42:06Z</time>
</trkpt>
<trkpt lat="49.31341546587646" lon="9.138025268912315">
<ele>136.8</ele>
<time>2024-05-08T12:42:08Z</time>
</trkpt>
<trkpt lat="49.31346508674323" lon="9.137914627790453">
<ele>136.4</ele>
<time>2024-05-08T12:42:09Z</time>
</trkpt>
<trkpt lat="49.31349174119532" lon="9.137861235067248">
<ele>136.2</ele>
<time>2024-05-08T12:42:10Z</time>
</trkpt>
<trkpt lat="49.31351470761001" lon="9.137803064659238">
<ele>136.2</ele>
<time>2024-05-08T12:42:11Z</time>
</trkpt>
<trkpt lat="49.31353759020567" lon="9.137746738269923">
<ele>136</ele>
<time>2024-05-08T12:42:13Z</time>
</trkpt>
<trkpt lat="49.31356047280133" lon="9.137689573690295">
<ele>135.8</ele>
<time>2024-05-08T12:42:14Z</time>
</trkpt>
<trkpt lat="49.31360623799264" lon="9.137575076892972">
<ele>135.6</ele>
<time>2024-05-08T12:42:15Z</time>
</trkpt>
<trkpt lat="49.31362526491285" lon="9.137516906484962">
<ele>135.6</ele>
<time>2024-05-08T12:42:16Z</time>
</trkpt>
<trkpt lat="49.3136481475085" lon="9.137459741905332">
<ele>135.6</ele>
<time>2024-05-08T12:42:17Z</time>
</trkpt>
<trkpt lat="49.31366725824773" lon="9.13740341551602">
<ele>135.8</ele>
<time>2024-05-08T12:42:18Z</time>
</trkpt>
<trkpt lat="49.31369014084339" lon="9.137346250936387">
<ele>135.8</ele>
<time>2024-05-08T12:42:19Z</time>
</trkpt>
<trkpt lat="49.31371687911451" lon="9.137289924547076">
<ele>135.8</ele>
<time>2024-05-08T12:42:20Z</time>
</trkpt>
<trkpt lat="49.31373976171017" lon="9.137231754139066">
<ele>135.8</ele>
<time>2024-05-08T12:42:21Z</time>
</trkpt>
<trkpt lat="49.313758788630366" lon="9.137173583731055">
<ele>135.8</ele>
<time>2024-05-08T12:42:23Z</time>
</trkpt>
<trkpt lat="49.313800781965256" lon="9.137055315077305">
<ele>135.8</ele>
<time>2024-05-08T12:42:24Z</time>
</trkpt>
<trkpt lat="49.313823664560914" lon="9.136995300650597">
<ele>135.8</ele>
<time>2024-05-08T12:42:25Z</time>
</trkpt>
<trkpt lat="49.31384654715657" lon="9.136936124414206">
<ele>135.8</ele>
<time>2024-05-08T12:42:26Z</time>
</trkpt>
<trkpt lat="49.3138656578958" lon="9.136877031996846">
<ele>135.8</ele>
<time>2024-05-08T12:42:27Z</time>
</trkpt>
<trkpt lat="49.31388854049146" lon="9.136815005913377">
<ele>135.8</ele>
<time>2024-05-08T12:42:28Z</time>
</trkpt>
<trkpt lat="49.31391142308712" lon="9.13675306364894">
<ele>135.8</ele>
<time>2024-05-08T12:42:29Z</time>
</trkpt>
<trkpt lat="49.31393045000732" lon="9.13669204339385">
<ele>135.6</ele>
<time>2024-05-08T12:42:30Z</time>
</trkpt>
<trkpt lat="49.31395333260298" lon="9.13663001731038">
<ele>135.6</ele>
<time>2024-05-08T12:42:31Z</time>
</trkpt>
<trkpt lat="49.31397244334221" lon="9.13656991906464">
<ele>135.6</ele>
<time>2024-05-08T12:42:33Z</time>
</trkpt>
<trkpt lat="49.31401058100164" lon="9.136446872726085">
<ele>135.8</ele>
<time>2024-05-08T12:42:34Z</time>
</trkpt>
<trkpt lat="49.3140334635973" lon="9.136383002623916">
<ele>135.8</ele>
<time>2024-05-08T12:42:35Z</time>
</trkpt>
<trkpt lat="49.31404871866107" lon="9.136320054531096">
<ele>135.8</ele>
<time>2024-05-08T12:42:36Z</time>
</trkpt>
<trkpt lat="49.3140678294003" lon="9.13625618442893">
<ele>135.8</ele>
<time>2024-05-08T12:42:37Z</time>
</trkpt>
<trkpt lat="49.3140868563205" lon="9.136193236336112">
<ele>135.8</ele>
<time>2024-05-08T12:42:39Z</time>
</trkpt>
<trkpt lat="49.314121222123504" lon="9.136070189997554">
<ele>136</ele>
<time>2024-05-08T12:42:40Z</time>
</trkpt>
<trkpt lat="49.3141402490437" lon="9.136012019589543">
<ele>136</ele>
<time>2024-05-08T12:42:42Z</time>
</trkpt>
<trkpt lat="49.314159359782934" lon="9.135951921343803">
<ele>136</ele>
<time>2024-05-08T12:42:43Z</time>
</trkpt>
<trkpt lat="49.31419372558594" lon="9.135829880833626">
<ele>136</ele>
<time>2024-05-08T12:42:44Z</time>
</trkpt>
<trkpt lat="49.31421275250614" lon="9.135769782587886">
<ele>136</ele>
<time>2024-05-08T12:42:45Z</time>
</trkpt>
<trkpt lat="49.31422800756991" lon="9.135709684342146">
<ele>136</ele>
<time>2024-05-08T12:42:46Z</time>
</trkpt>
<trkpt lat="49.31424326263368" lon="9.135648664087055">
<ele>135.8</ele>
<time>2024-05-08T12:42:47Z</time>
</trkpt>
<trkpt lat="49.31425851769745" lon="9.13558672182262">
<ele>135.8</ele>
<time>2024-05-08T12:42:48Z</time>
</trkpt>
<trkpt lat="49.314273772761226" lon="9.13552469573915">
<ele>135.8</ele>
<time>2024-05-08T12:42:49Z</time>
</trkpt>
<trkpt lat="49.314289027825" lon="9.13546367548406">
<ele>135.8</ele>
<time>2024-05-08T12:42:50Z</time>
</trkpt>
<trkpt lat="49.31430813856423" lon="9.135401649400592">
<ele>135.8</ele>
<time>2024-05-08T12:42:51Z</time>
</trkpt>
<trkpt lat="49.314323393628" lon="9.13534347899258">
<ele>135.8</ele>
<time>2024-05-08T12:42:53Z</time>
</trkpt>
<trkpt lat="49.314334793016315" lon="9.135283464565871">
<ele>135.8</ele>
<time>2024-05-08T12:42:54Z</time>
</trkpt>
<trkpt lat="49.31436538696289" lon="9.135163268074391">
<ele>135.8</ele>
<time>2024-05-08T12:42:55Z</time>
</trkpt>
<trkpt lat="49.31438064202666" lon="9.135103169828652">
<ele>135.8</ele>
<time>2024-05-08T12:42:56Z</time>
</trkpt>
<trkpt lat="49.314395897090435" lon="9.135046927258372">
<ele>135.8</ele>
<time>2024-05-08T12:42:57Z</time>
</trkpt>
<trkpt lat="49.31440729647875" lon="9.134988756850362">
<ele>135.8</ele>
<time>2024-05-08T12:42:59Z</time>
</trkpt>
<trkpt lat="49.31441877968609" lon="9.1349315084517">
<ele>135.8</ele>
<time>2024-05-08T12:43:00Z</time>
</trkpt>
<trkpt lat="49.31444928981364" lon="9.13481323979795">
<ele>135.8</ele>
<time>2024-05-08T12:43:01Z</time>
</trkpt>
<trkpt lat="49.31446454487741" lon="9.134753225371242">
<ele>135.8</ele>
<time>2024-05-08T12:43:03Z</time>
</trkpt>
<trkpt lat="49.31447979994118" lon="9.134696898981929">
<ele>135.8</ele>
<time>2024-05-08T12:43:04Z</time>
</trkpt>
<trkpt lat="49.31450645439327" lon="9.13457678630948">
<ele>135.8</ele>
<time>2024-05-08T12:43:06Z</time>
</trkpt>
<trkpt lat="49.314533192664385" lon="9.13445851765573">
<ele>135.8</ele>
<time>2024-05-08T12:43:08Z</time>
</trkpt>
<trkpt lat="49.31454844772816" lon="9.13440034724772">
<ele>135.8</ele>
<time>2024-05-08T12:43:09Z</time>
</trkpt>
<trkpt lat="49.3145599309355" lon="9.134341171011329">
<ele>135.8</ele>
<time>2024-05-08T12:43:10Z</time>
</trkpt>
<trkpt lat="49.31458281353116" lon="9.134226758033035">
<ele>135.8</ele>
<time>2024-05-08T12:43:12Z</time>
</trkpt>
<trkpt lat="49.31460569612682" lon="9.134136149659753">
<ele>135.8</ele>
<time>2024-05-08T12:43:14Z</time>
</trkpt>
<trkpt lat="49.31462472304702" lon="9.134070351719856">
<ele>135.8</ele>
<time>2024-05-08T12:43:15Z</time>
</trkpt>
<trkpt lat="49.31463620625436" lon="9.134036991745234">
<ele>135.8</ele>
<time>2024-05-08T12:43:17Z</time>
</trkpt>
<trkpt lat="49.31464383378625" lon="9.13400648161769">
<ele>135.8</ele>
<time>2024-05-08T12:43:18Z</time>
</trkpt>
<trkpt lat="49.31465523317456" lon="9.133950155228376">
<ele>135.8</ele>
<time>2024-05-08T12:43:20Z</time>
</trkpt>
<trkpt lat="49.31466671638191" lon="9.13392542861402">
<ele>135.8</ele>
<time>2024-05-08T12:43:21Z</time>
</trkpt>
<trkpt lat="49.314674343913794" lon="9.133896762505174">
<ele>135.8</ele>
<time>2024-05-08T12:43:22Z</time>
</trkpt>
<trkpt lat="49.31468197144568" lon="9.13386533036828">
<ele>135.8</ele>
<time>2024-05-08T12:43:23Z</time>
</trkpt>
<trkpt lat="49.31469722650945" lon="9.133831970393658">
<ele>135.8</ele>
<time>2024-05-08T12:43:24Z</time>
</trkpt>
<trkpt lat="49.314712481573224" lon="9.133789977058768">
<ele>135.8</ele>
<time>2024-05-08T12:43:25Z</time>
</trkpt>
<trkpt lat="49.31472396478057" lon="9.133741362020372">
<ele>135.8</ele>
<time>2024-05-08T12:43:26Z</time>
</trkpt>
<trkpt lat="49.31474299170077" lon="9.133636420592666">
<ele>135.6</ele>
<time>2024-05-08T12:43:27Z</time>
</trkpt>
<trkpt lat="49.31475447490811" lon="9.133584955707192">
<ele>135.6</ele>
<time>2024-05-08T12:43:29Z</time>
</trkpt>
<trkpt lat="49.31477350182831" lon="9.133475236594675">
<ele>135.4</ele>
<time>2024-05-08T12:43:30Z</time>
</trkpt>
<trkpt lat="49.3147811293602" lon="9.13341329433024">
<ele>135.4</ele>
<time>2024-05-08T12:43:31Z</time>
</trkpt>
<trkpt lat="49.314788756892085" lon="9.13335034623742">
<ele>135.4</ele>
<time>2024-05-08T12:43:33Z</time>
</trkpt>
<trkpt lat="49.31479638442397" lon="9.133286476135254">
<ele>135.4</ele>
<time>2024-05-08T12:43:34Z</time>
</trkpt>
<trkpt lat="49.3148154951632" lon="9.133161501958966">
<ele>135.4</ele>
<time>2024-05-08T12:43:35Z</time>
</trkpt>
<trkpt lat="49.31482312269509" lon="9.133101403713226">
<ele>135.6</ele>
<time>2024-05-08T12:43:36Z</time>
</trkpt>
<trkpt lat="49.3148345220834" lon="9.133040383458138">
<ele>135.6</ele>
<time>2024-05-08T12:43:38Z</time>
</trkpt>
<trkpt lat="49.314849777147174" lon="9.13291641511023">
<ele>135.6</ele>
<time>2024-05-08T12:43:40Z</time>
</trkpt>
<trkpt lat="49.31486126035452" lon="9.132795296609402">
<ele>135.8</ele>
<time>2024-05-08T12:43:42Z</time>
</trkpt>
<trkpt lat="49.314865032210946" lon="9.132735198363662">
<ele>135.8</ele>
<time>2024-05-08T12:43:43Z</time>
</trkpt>
<trkpt lat="49.31487651541829" lon="9.132613157853484">
<ele>135.8</ele>
<time>2024-05-08T12:43:44Z</time>
</trkpt>
<trkpt lat="49.31487651541829" lon="9.132551131770017">
<ele>135.8</ele>
<time>2024-05-08T12:43:46Z</time>
</trkpt>
<trkpt lat="49.31487651541829" lon="9.132492039352655">
<ele>135.8</ele>
<time>2024-05-08T12:43:47Z</time>
</trkpt>
<trkpt lat="49.31487651541829" lon="9.132434790953994">
<ele>136</ele>
<time>2024-05-08T12:43:48Z</time>
</trkpt>
<trkpt lat="49.31487651541829" lon="9.132374692708254">
<ele>136</ele>
<time>2024-05-08T12:43:49Z</time>
</trkpt>
<trkpt lat="49.31487651541829" lon="9.132314678281546">
<ele>136.2</ele>
<time>2024-05-08T12:43:50Z</time>
</trkpt>
<trkpt lat="49.31488799862563" lon="9.132254580035806">
<ele>136.2</ele>
<time>2024-05-08T12:43:51Z</time>
</trkpt>
<trkpt lat="49.31490325368941" lon="9.132140083238482">
<ele>136.4</ele>
<time>2024-05-08T12:43:53Z</time>
</trkpt>
<trkpt lat="49.314910881221294" lon="9.132084846496582">
<ele>136.6</ele>
<time>2024-05-08T12:43:54Z</time>
</trkpt>
<trkpt lat="49.31492613628507" lon="9.131977977231143">
<ele>136.6</ele>
<time>2024-05-08T12:43:56Z</time>
</trkpt>
<trkpt lat="49.31493753567338" lon="9.131881669163704">
<ele>136.8</ele>
<time>2024-05-08T12:43:57Z</time>
</trkpt>
<trkpt lat="49.314945163205266" lon="9.131839675828816">
<ele>136.8</ele>
<time>2024-05-08T12:43:58Z</time>
</trkpt>
<trkpt lat="49.31495279073715" lon="9.131806315854192">
<ele>136.8</ele>
<time>2024-05-08T12:43:59Z</time>
</trkpt>
<trkpt lat="49.31496041826904" lon="9.1317748837173">
<ele>136.8</ele>
<time>2024-05-08T12:44:00Z</time>
</trkpt>
<trkpt lat="49.3149642739445" lon="9.13175485096872">
<ele>137</ele>
<time>2024-05-08T12:44:01Z</time>
</trkpt>
<trkpt lat="49.31496804580093" lon="9.131741523742676">
<ele>137</ele>
<time>2024-05-08T12:44:03Z</time>
</trkpt>
<trkpt lat="49.31496804580093" lon="9.13173196837306">
<ele>137</ele>
<time>2024-05-08T12:44:04Z</time>
</trkpt>
<trkpt lat="49.31496804580093" lon="9.13173004053533">
<ele>137</ele>
<time>2024-05-08T12:44:09Z</time>
</trkpt>
<trkpt lat="49.31497190147638" lon="9.13173004053533">
<ele>137</ele>
<time>2024-05-08T12:44:14Z</time>
</trkpt>
<trkpt lat="49.31497190147638" lon="9.1317281126976">
<ele>137</ele>
<time>2024-05-08T12:44:17Z</time>
</trkpt>
<trkpt lat="49.31497190147638" lon="9.131726184859872">
<ele>137.2</ele>
<time>2024-05-08T12:44:18Z</time>
</trkpt>
<trkpt lat="49.31497190147638" lon="9.131725262850525">
<ele>137.2</ele>
<time>2024-05-08T12:44:22Z</time>
</trkpt>
<trkpt lat="49.31496804580093" lon="9.131718557327986">
<ele>137.2</ele>
<time>2024-05-08T12:44:23Z</time>
</trkpt>
<trkpt lat="49.31496804580093" lon="9.13171000778675">
<ele>137.2</ele>
<time>2024-05-08T12:44:24Z</time>
</trkpt>
<trkpt lat="49.3149642739445" lon="9.131696680560708">
<ele>137.2</ele>
<time>2024-05-08T12:44:25Z</time>
</trkpt>
<trkpt lat="49.3149642739445" lon="9.13168804720044">
<ele>137.2</ele>
<time>2024-05-08T12:44:26Z</time>
</trkpt>
<trkpt lat="49.31496041826904" lon="9.13167379796505">
<ele>137.2</ele>
<time>2024-05-08T12:44:27Z</time>
</trkpt>
<trkpt lat="49.31496041826904" lon="9.13165376521647">
<ele>137.2</ele>
<time>2024-05-08T12:44:28Z</time>
</trkpt>
<trkpt lat="49.31495664641261" lon="9.131641359999776">
<ele>137.2</ele>
<time>2024-05-08T12:44:29Z</time>
</trkpt>
<trkpt lat="49.31496041826904" lon="9.131628032773731">
<ele>137.2</ele>
<time>2024-05-08T12:44:31Z</time>
</trkpt>
<trkpt lat="49.31495664641261" lon="9.131605066359043">
<ele>137.2</ele>
<time>2024-05-08T12:44:33Z</time>
</trkpt>
<trkpt lat="49.31495664641261" lon="9.131567934527991">
<ele>137.2</ele>
<time>2024-05-08T12:44:35Z</time>
</trkpt>
<trkpt lat="49.314949018880725" lon="9.13151454180479">
<ele>137</ele>
<time>2024-05-08T12:44:36Z</time>
</trkpt>
<trkpt lat="49.314945163205266" lon="9.131411528214812">
<ele>136.8</ele>
<time>2024-05-08T12:44:38Z</time>
</trkpt>
<trkpt lat="49.31495279073715" lon="9.13137624040246">
<ele>136.6</ele>
<time>2024-05-08T12:44:39Z</time>
</trkpt>
<trkpt lat="49.31495664641261" lon="9.131313292309642">
<ele>136.6</ele>
<time>2024-05-08T12:44:40Z</time>
</trkpt>
<trkpt lat="49.31496041826904" lon="9.13127800449729">
<ele>136.6</ele>
<time>2024-05-08T12:44:41Z</time>
</trkpt>
<trkpt lat="49.3149642739445" lon="9.131241794675589">
<ele>136.6</ele>
<time>2024-05-08T12:44:43Z</time>
</trkpt>
<trkpt lat="49.31496804580093" lon="9.13119787350297">
<ele>136.6</ele>
<time>2024-05-08T12:44:44Z</time>
</trkpt>
<trkpt lat="49.31497952900827" lon="9.131113048642874">
<ele>136.8</ele>
<time>2024-05-08T12:44:45Z</time>
</trkpt>
<trkpt lat="49.31497952900827" lon="9.131065355613828">
<ele>136.8</ele>
<time>2024-05-08T12:44:46Z</time>
</trkpt>
<trkpt lat="49.3149833008647" lon="9.1310166567564">
<ele>136.8</ele>
<time>2024-05-08T12:44:48Z</time>
</trkpt>
<trkpt lat="49.314987156540155" lon="9.130969969555736">
<ele>136.8</ele>
<time>2024-05-08T12:44:49Z</time>
</trkpt>
<trkpt lat="49.31499478407204" lon="9.130873661488296">
<ele>136.8</ele>
<time>2024-05-08T12:44:50Z</time>
</trkpt>
<trkpt lat="49.31500241160393" lon="9.130820268765092">
<ele>137</ele>
<time>2024-05-08T12:44:51Z</time>
</trkpt>
<trkpt lat="49.315010039135814" lon="9.13076494820416">
<ele>137</ele>
<time>2024-05-08T12:44:53Z</time>
</trkpt>
<trkpt lat="49.31502143852413" lon="9.13066285662353">
<ele>137.2</ele>
<time>2024-05-08T12:44:55Z</time>
</trkpt>
<trkpt lat="49.315025294199586" lon="9.13060468621552">
<ele>137.4</ele>
<time>2024-05-08T12:44:56Z</time>
</trkpt>
<trkpt lat="49.3150366935879" lon="9.13048641756177">
<ele>137.6</ele>
<time>2024-05-08T12:44:58Z</time>
</trkpt>
<trkpt lat="49.31504054926336" lon="9.130421625450252">
<ele>137.8</ele>
<time>2024-05-08T12:44:59Z</time>
</trkpt>
<trkpt lat="49.31504817679525" lon="9.130291873589158">
<ele>138</ele>
<time>2024-05-08T12:45:00Z</time>
</trkpt>
<trkpt lat="49.3150520324707" lon="9.13022993132472">
<ele>138.2</ele>
<time>2024-05-08T12:45:02Z</time>
</trkpt>
<trkpt lat="49.31504817679525" lon="9.13010973483324">
<ele>138.4</ele>
<time>2024-05-08T12:45:04Z</time>
</trkpt>
<trkpt lat="49.31502906605601" lon="9.130015354603527">
<ele>138.4</ele>
<time>2024-05-08T12:45:05Z</time>
</trkpt>
<trkpt lat="49.315010039135814" lon="9.129964811727405">
<ele>138.6</ele>
<time>2024-05-08T12:45:07Z</time>
</trkpt>
<trkpt lat="49.31499478407204" lon="9.129919968545437">
<ele>138.8</ele>
<time>2024-05-08T12:45:08Z</time>
</trkpt>
<trkpt lat="49.3149833008647" lon="9.129879903048275">
<ele>138.8</ele>
<time>2024-05-08T12:45:09Z</time>
</trkpt>
<trkpt lat="49.31496804580093" lon="9.129844615235925">
<ele>139</ele>
<time>2024-05-08T12:45:10Z</time>
</trkpt>
<trkpt lat="49.31495664641261" lon="9.129811255261302">
<ele>139</ele>
<time>2024-05-08T12:45:11Z</time>
</trkpt>
<trkpt lat="49.314945163205266" lon="9.129779739305375">
<ele>139.2</ele>
<time>2024-05-08T12:45:12Z</time>
</trkpt>
<trkpt lat="49.31492613628507" lon="9.129751157015562">
<ele>139.2</ele>
<time>2024-05-08T12:45:13Z</time>
</trkpt>
<trkpt lat="49.314907025545835" lon="9.129719724878669">
<ele>139.2</ele>
<time>2024-05-08T12:45:14Z</time>
</trkpt>
<trkpt lat="49.31488799862563" lon="9.129692064598204">
<ele>139.2</ele>
<time>2024-05-08T12:45:15Z</time>
</trkpt>
<trkpt lat="49.3148345220834" lon="9.12961478345096">
<ele>139</ele>
<time>2024-05-08T12:45:17Z</time>
</trkpt>
<trkpt lat="49.31480024009943" lon="9.129586201161146">
<ele>139.2</ele>
<time>2024-05-08T12:45:18Z</time>
</trkpt>
<trkpt lat="49.31477350182831" lon="9.129551835358145">
<ele>139.2</ele>
<time>2024-05-08T12:45:19Z</time>
</trkpt>
<trkpt lat="49.31471633724868" lon="9.129481259733438">
<ele>139.2</ele>
<time>2024-05-08T12:45:20Z</time>
</trkpt>
<trkpt lat="49.314689598977566" lon="9.129451671615245">
<ele>139.4</ele>
<time>2024-05-08T12:45:21Z</time>
</trkpt>
<trkpt lat="49.31465908885002" lon="9.129425017163156">
<ele>139.4</ele>
<time>2024-05-08T12:45:22Z</time>
</trkpt>
<trkpt lat="49.314632350578904" lon="9.12940112873912">
<ele>139.4</ele>
<time>2024-05-08T12:45:24Z</time>
</trkpt>
<trkpt lat="49.31460184045136" lon="9.12937824614346">
<ele>139.6</ele>
<time>2024-05-08T12:45:25Z</time>
</trkpt>
<trkpt lat="49.31454082019627" lon="9.129308676347136">
<ele>140</ele>
<time>2024-05-08T12:45:26Z</time>
</trkpt>
<trkpt lat="49.31450645439327" lon="9.129269532859324">
<ele>140.2</ele>
<time>2024-05-08T12:45:28Z</time>
</trkpt>
<trkpt lat="49.314472172409296" lon="9.129233323037624">
<ele>140.4</ele>
<time>2024-05-08T12:45:29Z</time>
</trkpt>
<trkpt lat="49.314434034749866" lon="9.129197113215923">
<ele>140.4</ele>
<time>2024-05-08T12:45:30Z</time>
</trkpt>
<trkpt lat="49.314353903755546" lon="9.129117904230952">
<ele>140.8</ele>
<time>2024-05-08T12:45:31Z</time>
</trkpt>
<trkpt lat="49.314315766096115" lon="9.129081694409251">
<ele>141</ele>
<time>2024-05-08T12:45:33Z</time>
</trkpt>
<trkpt lat="49.31428140029311" lon="9.129039701074362">
<ele>141.2</ele>
<time>2024-05-08T12:45:34Z</time>
</trkpt>
<trkpt lat="49.31424711830914" lon="9.128996785730124">
<ele>141.4</ele>
<time>2024-05-08T12:45:35Z</time>
</trkpt>
<trkpt lat="49.31419372558594" lon="9.128896705806255">
<ele>142</ele>
<time>2024-05-08T12:45:37Z</time>
</trkpt>
<trkpt lat="49.314174614846706" lon="9.128840379416944">
<ele>142.2</ele>
<time>2024-05-08T12:45:38Z</time>
</trkpt>
<trkpt lat="49.314159359782934" lon="9.128781286999583">
<ele>142.4</ele>
<time>2024-05-08T12:45:39Z</time>
</trkpt>
<trkpt lat="49.31414787657559" lon="9.128658240661023">
<ele>142.8</ele>
<time>2024-05-08T12:45:40Z</time>
</trkpt>
<trkpt lat="49.31415173225105" lon="9.128604847937822">
<ele>143</ele>
<time>2024-05-08T12:45:41Z</time>
</trkpt>
<trkpt lat="49.31415173225105" lon="9.12855145521462">
<ele>143</ele>
<time>2024-05-08T12:45:43Z</time>
</trkpt>
<trkpt lat="49.31415173225105" lon="9.12849521264434">
<ele>143.2</ele>
<time>2024-05-08T12:45:44Z</time>
</trkpt>
<trkpt lat="49.314155504107475" lon="9.128437964245675">
<ele>143.4</ele>
<time>2024-05-08T12:45:45Z</time>
</trkpt>
<trkpt lat="49.31416313163936" lon="9.128316845744848">
<ele>143.6</ele>
<time>2024-05-08T12:45:46Z</time>
</trkpt>
<trkpt lat="49.31416698731482" lon="9.128256747499108">
<ele>143.6</ele>
<time>2024-05-08T12:45:48Z</time>
</trkpt>
<trkpt lat="49.314178386703134" lon="9.12813663482666">
<ele>143.8</ele>
<time>2024-05-08T12:45:49Z</time>
</trkpt>
<trkpt lat="49.31418224237859" lon="9.12807653658092">
<ele>144</ele>
<time>2024-05-08T12:45:50Z</time>
</trkpt>
<trkpt lat="49.31418601423502" lon="9.12801836617291">
<ele>144.2</ele>
<time>2024-05-08T12:45:51Z</time>
</trkpt>
<trkpt lat="49.31418986991048" lon="9.127962039783595">
<ele>144.4</ele>
<time>2024-05-08T12:45:53Z</time>
</trkpt>
<trkpt lat="49.31420512497425" lon="9.127851482480764">
<ele>145</ele>
<time>2024-05-08T12:45:54Z</time>
</trkpt>
<trkpt lat="49.31421275250614" lon="9.127795156091452">
<ele>145.2</ele>
<time>2024-05-08T12:45:55Z</time>
</trkpt>
<trkpt lat="49.3142166081816" lon="9.12773983553052">
<ele>145.4</ele>
<time>2024-05-08T12:45:56Z</time>
</trkpt>
<trkpt lat="49.31422423571348" lon="9.127683592960238">
<ele>145.6</ele>
<time>2024-05-08T12:45:57Z</time>
</trkpt>
<trkpt lat="49.314235635101795" lon="9.127625422552228">
<ele>145.8</ele>
<time>2024-05-08T12:45:58Z</time>
</trkpt>
<trkpt lat="49.31424326263368" lon="9.127568174153566">
<ele>146</ele>
<time>2024-05-08T12:45:59Z</time>
</trkpt>
<trkpt lat="49.314254745841026" lon="9.127510003745556">
<ele>146.4</ele>
<time>2024-05-08T12:46:01Z</time>
</trkpt>
<trkpt lat="49.3142700009048" lon="9.127454683184624">
<ele>146.6</ele>
<time>2024-05-08T12:46:02Z</time>
</trkpt>
<trkpt lat="49.31428140029311" lon="9.12740129046142">
<ele>146.8</ele>
<time>2024-05-08T12:46:03Z</time>
</trkpt>
<trkpt lat="49.31430813856423" lon="9.127294505015016">
<ele>147.2</ele>
<time>2024-05-08T12:46:04Z</time>
</trkpt>
<trkpt lat="49.314323393628" lon="9.127238262444736">
<ele>147.6</ele>
<time>2024-05-08T12:46:05Z</time>
</trkpt>
<trkpt lat="49.314334793016315" lon="9.127182941883802">
<ele>147.8</ele>
<time>2024-05-08T12:46:06Z</time>
</trkpt>
<trkpt lat="49.31435004808009" lon="9.1271295491606">
<ele>148</ele>
<time>2024-05-08T12:46:07Z</time>
</trkpt>
<trkpt lat="49.31436538696289" lon="9.127078000456097">
<ele>148.2</ele>
<time>2024-05-08T12:46:08Z</time>
</trkpt>
<trkpt lat="49.3143767863512" lon="9.12702653557062">
<ele>148.6</ele>
<time>2024-05-08T12:46:09Z</time>
</trkpt>
<trkpt lat="49.314392041414976" lon="9.126977920532228">
<ele>148.8</ele>
<time>2024-05-08T12:46:11Z</time>
</trkpt>
<trkpt lat="49.31441115215421" lon="9.12693022750318">
<ele>149</ele>
<time>2024-05-08T12:46:12Z</time>
</trkpt>
<trkpt lat="49.31443017907441" lon="9.126881528645754">
<ele>149.2</ele>
<time>2024-05-08T12:46:13Z</time>
</trkpt>
<trkpt lat="49.31444166228175" lon="9.126821514219046">
<ele>149.6</ele>
<time>2024-05-08T12:46:14Z</time>
</trkpt>
<trkpt lat="49.31445691734552" lon="9.126766193658112">
<ele>149.8</ele>
<time>2024-05-08T12:46:15Z</time>
</trkpt>
<trkpt lat="49.314491199329495" lon="9.126661252230406">
<ele>150.6</ele>
<time>2024-05-08T12:46:16Z</time>
</trkpt>
<trkpt lat="49.31450645439327" lon="9.126609787344933">
<ele>150.8</ele>
<time>2024-05-08T12:46:18Z</time>
</trkpt>
<trkpt lat="49.314533192664385" lon="9.126504845917225">
<ele>151.4</ele>
<time>2024-05-08T12:46:19Z</time>
</trkpt>
<trkpt lat="49.31454844772816" lon="9.126453381031752">
<ele>151.8</ele>
<time>2024-05-08T12:46:20Z</time>
</trkpt>
<trkpt lat="49.3145599309355" lon="9.126403760164976">
<ele>152</ele>
<time>2024-05-08T12:46:21Z</time>
</trkpt>
<trkpt lat="49.314575185999274" lon="9.126351289451122">
<ele>152.2</ele>
<time>2024-05-08T12:46:23Z</time>
</trkpt>
<trkpt lat="49.31460569612682" lon="9.126251209527254">
<ele>152.6</ele>
<time>2024-05-08T12:46:25Z</time>
</trkpt>
<trkpt lat="49.31461709551513" lon="9.12619966082275">
<ele>152.6</ele>
<time>2024-05-08T12:46:26Z</time>
</trkpt>
<trkpt lat="49.31464760564267" lon="9.126106202602386">
<ele>153</ele>
<time>2024-05-08T12:46:27Z</time>
</trkpt>
<trkpt lat="49.314651461318135" lon="9.126049960032104">
<ele>153.2</ele>
<time>2024-05-08T12:46:29Z</time>
</trkpt>
<trkpt lat="49.31466286070645" lon="9.125996567308905">
<ele>153.2</ele>
<time>2024-05-08T12:46:30Z</time>
</trkpt>
<trkpt lat="49.31466671638191" lon="9.1259431745857">
<ele>153.4</ele>
<time>2024-05-08T12:46:31Z</time>
</trkpt>
<trkpt lat="49.31467811577022" lon="9.125833455473185">
<ele>153.8</ele>
<time>2024-05-08T12:46:33Z</time>
</trkpt>
<trkpt lat="49.31468574330211" lon="9.125776290893556">
<ele>154.2</ele>
<time>2024-05-08T12:46:34Z</time>
</trkpt>
<trkpt lat="49.31470099836588" lon="9.12566372193396">
<ele>154.6</ele>
<time>2024-05-08T12:46:36Z</time>
</trkpt>
<trkpt lat="49.31470485404134" lon="9.1256064735353">
<ele>155</ele>
<time>2024-05-08T12:46:37Z</time>
</trkpt>
<trkpt lat="49.31471633724868" lon="9.125492060557008">
<ele>155.4</ele>
<time>2024-05-08T12:46:39Z</time>
</trkpt>
<trkpt lat="49.31472010910511" lon="9.125434812158346">
<ele>155.6</ele>
<time>2024-05-08T12:46:40Z</time>
</trkpt>
<trkpt lat="49.31472396478057" lon="9.125378569588063">
<ele>155.8</ele>
<time>2024-05-08T12:46:41Z</time>
</trkpt>
<trkpt lat="49.31473536416888" lon="9.125273628160356">
<ele>156.2</ele>
<time>2024-05-08T12:46:42Z</time>
</trkpt>
<trkpt lat="49.31473921984434" lon="9.125221241265535">
<ele>156.4</ele>
<time>2024-05-08T12:46:44Z</time>
</trkpt>
<trkpt lat="49.31475447490811" lon="9.125116299837828">
<ele>156.8</ele>
<time>2024-05-08T12:46:45Z</time>
</trkpt>
<trkpt lat="49.31476210244" lon="9.125066678971052">
<ele>157</ele>
<time>2024-05-08T12:46:46Z</time>
</trkpt>
<trkpt lat="49.31477350182831" lon="9.12501521408558">
<ele>157.2</ele>
<time>2024-05-08T12:46:48Z</time>
</trkpt>
<trkpt lat="49.31479638442397" lon="9.12491505034268">
<ele>157.8</ele>
<time>2024-05-08T12:46:49Z</time>
</trkpt>
<trkpt lat="49.31481163948774" lon="9.124866435304284">
<ele>158</ele>
<time>2024-05-08T12:46:51Z</time>
</trkpt>
<trkpt lat="49.31483837775886" lon="9.124772055074573">
<ele>158.2</ele>
<time>2024-05-08T12:46:52Z</time>
</trkpt>
<trkpt lat="49.314849777147174" lon="9.124723356217146">
<ele>158.4</ele>
<time>2024-05-08T12:46:53Z</time>
</trkpt>
<trkpt lat="49.314865032210946" lon="9.124672813341022">
<ele>158.8</ele>
<time>2024-05-08T12:46:55Z</time>
</trkpt>
<trkpt lat="49.31489562615752" lon="9.124571727588773">
<ele>159.2</ele>
<time>2024-05-08T12:46:57Z</time>
</trkpt>
<trkpt lat="49.314910881221294" lon="9.124523112550378">
<ele>159.6</ele>
<time>2024-05-08T12:46:58Z</time>
</trkpt>
<trkpt lat="49.314949018880725" lon="9.124431582167745">
<ele>159.8</ele>
<time>2024-05-08T12:47:00Z</time>
</trkpt>
<trkpt lat="49.31499478407204" lon="9.12434290163219">
<ele>160.2</ele>
<time>2024-05-08T12:47:02Z</time>
</trkpt>
<trkpt lat="49.3150366935879" lon="9.12426184862852">
<ele>160.4</ele>
<time>2024-05-08T12:47:04Z</time>
</trkpt>
<trkpt lat="49.315063431859016" lon="9.12422178313136">
<ele>160.4</ele>
<time>2024-05-08T12:47:05Z</time>
</trkpt>
<trkpt lat="49.31510919705033" lon="9.12414165213704">
<ele>160.6</ele>
<time>2024-05-08T12:47:06Z</time>
</trkpt>
<trkpt lat="49.31512830778957" lon="9.12410158663988">
<ele>160.8</ele>
<time>2024-05-08T12:47:08Z</time>
</trkpt>
<trkpt lat="49.31517021730542" lon="9.124026233330367">
<ele>161.2</ele>
<time>2024-05-08T12:47:09Z</time>
</trkpt>
<trkpt lat="49.31519309990108" lon="9.123990023508668">
<ele>161.4</ele>
<time>2024-05-08T12:47:11Z</time>
</trkpt>
<trkpt lat="49.31523509323597" lon="9.123921375721691">
<ele>161.8</ele>
<time>2024-05-08T12:47:13Z</time>
</trkpt>
<trkpt lat="49.3152542039752" lon="9.123889859765768">
<ele>162</ele>
<time>2024-05-08T12:47:14Z</time>
</trkpt>
<trkpt lat="49.31529611349106" lon="9.123821211978791">
<ele>162.4</ele>
<time>2024-05-08T12:47:15Z</time>
</trkpt>
<trkpt lat="49.31531522423029" lon="9.12378785200417">
<ele>162.6</ele>
<time>2024-05-08T12:47:16Z</time>
</trkpt>
<trkpt lat="49.31533810682595" lon="9.123753486201169">
<ele>162.8</ele>
<time>2024-05-08T12:47:17Z</time>
</trkpt>
<trkpt lat="49.315360989421606" lon="9.123716354370115">
<ele>163</ele>
<time>2024-05-08T12:47:18Z</time>
</trkpt>
<trkpt lat="49.315383872017264" lon="9.123678132891657">
<ele>163.2</ele>
<time>2024-05-08T12:47:19Z</time>
</trkpt>
<trkpt lat="49.31540675461292" lon="9.123639995232224">
<ele>163.4</ele>
<time>2024-05-08T12:47:20Z</time>
</trkpt>
<trkpt lat="49.31542963720858" lon="9.123601857572794">
<ele>163.6</ele>
<time>2024-05-08T12:47:21Z</time>
</trkpt>
<trkpt lat="49.3154563754797" lon="9.123561792075634">
<ele>163.8</ele>
<time>2024-05-08T12:47:23Z</time>
</trkpt>
<trkpt lat="49.315502140671015" lon="9.123477889224889">
<ele>164</ele>
<time>2024-05-08T12:47:24Z</time>
</trkpt>
<trkpt lat="49.31552502326667" lon="9.123436901718378">
<ele>164</ele>
<time>2024-05-08T12:47:25Z</time>
</trkpt>
<trkpt lat="49.31555167771876" lon="9.12339298054576">
<ele>164</ele>
<time>2024-05-08T12:47:27Z</time>
</trkpt>
<trkpt lat="49.31557464413345" lon="9.123346293345094">
<ele>164.2</ele>
<time>2024-05-08T12:47:28Z</time>
</trkpt>
<trkpt lat="49.31561278179288" lon="9.123261384665966">
<ele>164.4</ele>
<time>2024-05-08T12:47:29Z</time>
</trkpt>
<trkpt lat="49.31563566438854" lon="9.123221319168806">
<ele>164.4</ele>
<time>2024-05-08T12:47:31Z</time>
</trkpt>
<trkpt lat="49.31567380204797" lon="9.123153677210212">
<ele>164.8</ele>
<time>2024-05-08T12:47:32Z</time>
</trkpt>
<trkpt lat="49.31568905711174" lon="9.12311646156013">
<ele>164.8</ele>
<time>2024-05-08T12:47:33Z</time>
</trkpt>
<trkpt lat="49.31570808403194" lon="9.123080251738427">
<ele>165.2</ele>
<time>2024-05-08T12:47:35Z</time>
</trkpt>
<trkpt lat="49.31575007736683" lon="9.1229953430593">
<ele>165.4</ele>
<time>2024-05-08T12:47:37Z</time>
</trkpt>
<trkpt lat="49.31578821502626" lon="9.122906662523746">
<ele>165.4</ele>
<time>2024-05-08T12:47:39Z</time>
</trkpt>
<trkpt lat="49.31581109762192" lon="9.12285989150405">
<ele>165.4</ele>
<time>2024-05-08T12:47:40Z</time>
</trkpt>
<trkpt lat="49.31583020836115" lon="9.122811276465654">
<ele>165.4</ele>
<time>2024-05-08T12:47:41Z</time>
</trkpt>
<trkpt lat="49.31585309095681" lon="9.122764505445955">
<ele>165.4</ele>
<time>2024-05-08T12:47:42Z</time>
</trkpt>
<trkpt lat="49.315895000472665" lon="9.122674902901052">
<ele>165.6</ele>
<time>2024-05-08T12:47:44Z</time>
</trkpt>
<trkpt lat="49.31592173874378" lon="9.122628131881356">
<ele>165.6</ele>
<time>2024-05-08T12:47:45Z</time>
</trkpt>
<trkpt lat="49.31594462133944" lon="9.12258337251842">
<ele>165.8</ele>
<time>2024-05-08T12:47:46Z</time>
</trkpt>
<trkpt lat="49.31599038653076" lon="9.122496536001565">
<ele>165.8</ele>
<time>2024-05-08T12:47:48Z</time>
</trkpt>
<trkpt lat="49.316013269126415" lon="9.122451776638629">
<ele>165.8</ele>
<time>2024-05-08T12:47:49Z</time>
</trkpt>
<trkpt lat="49.31604000739753" lon="9.12240693345666">
<ele>165.8</ele>
<time>2024-05-08T12:47:50Z</time>
</trkpt>
<trkpt lat="49.31606666184962" lon="9.122356390580537">
<ele>165.8</ele>
<time>2024-05-08T12:47:51Z</time>
</trkpt>
<trkpt lat="49.31608962826431" lon="9.12230676971376">
<ele>166</ele>
<time>2024-05-08T12:47:52Z</time>
</trkpt>
<trkpt lat="49.316135393455625" lon="9.122208533808587">
<ele>166.2</ele>
<time>2024-05-08T12:47:54Z</time>
</trkpt>
<trkpt lat="49.31616204790771" lon="9.122159918770194">
<ele>166.2</ele>
<time>2024-05-08T12:47:55Z</time>
</trkpt>
<trkpt lat="49.31620781309903" lon="9.122064532712102">
<ele>166.4</ele>
<time>2024-05-08T12:47:56Z</time>
</trkpt>
<trkpt lat="49.316234551370144" lon="9.122017845511436">
<ele>166.6</ele>
<time>2024-05-08T12:47:57Z</time>
</trkpt>
<trkpt lat="49.3162574339658" lon="9.12197015248239">
<ele>166.6</ele>
<time>2024-05-08T12:47:59Z</time>
</trkpt>
<trkpt lat="49.31628794409335" lon="9.121914831921458">
<ele>166.6</ele>
<time>2024-05-08T12:48:00Z</time>
</trkpt>
<trkpt lat="49.316314682364464" lon="9.121859511360526">
<ele>166.8</ele>
<time>2024-05-08T12:48:01Z</time>
</trkpt>
<trkpt lat="49.31637570261955" lon="9.121736465021968">
<ele>166.8</ele>
<time>2024-05-08T12:48:02Z</time>
</trkpt>
<trkpt lat="49.31640998460352" lon="9.121669745072722">
<ele>167</ele>
<time>2024-05-08T12:48:03Z</time>
</trkpt>
<trkpt lat="49.316448206081986" lon="9.121604869142176">
<ele>167</ele>
<time>2024-05-08T12:48:04Z</time>
</trkpt>
<trkpt lat="49.31648248806596" lon="9.1215362213552">
<ele>167.2</ele>
<time>2024-05-08T12:48:06Z</time>
</trkpt>
<trkpt lat="49.31655113585293" lon="9.121401775628328">
<ele>167.4</ele>
<time>2024-05-08T12:48:08Z</time>
</trkpt>
<trkpt lat="49.31661601178348" lon="9.121268251910806">
<ele>167.6</ele>
<time>2024-05-08T12:48:10Z</time>
</trkpt>
<trkpt lat="49.316646521911025" lon="9.121201448142529">
<ele>167.6</ele>
<time>2024-05-08T12:48:11Z</time>
</trkpt>
<trkpt lat="49.3166961427778" lon="9.1210803296417">
<ele>167.8</ele>
<time>2024-05-08T12:48:12Z</time>
</trkpt>
<trkpt lat="49.316722797229886" lon="9.121026936918495">
<ele>167.8</ele>
<time>2024-05-08T12:48:13Z</time>
</trkpt>
<trkpt lat="49.316745679825544" lon="9.120976394042373">
<ele>167.8</ele>
<time>2024-05-08T12:48:15Z</time>
</trkpt>
<trkpt lat="49.31679152883589" lon="9.120878158137202">
<ele>168</ele>
<time>2024-05-08T12:48:16Z</time>
</trkpt>
<trkpt lat="49.31681441143155" lon="9.120833314955236">
<ele>168.2</ele>
<time>2024-05-08T12:48:18Z</time>
</trkpt>
<trkpt lat="49.31685632094741" lon="9.120738012716174">
<ele>168.4</ele>
<time>2024-05-08T12:48:19Z</time>
</trkpt>
<trkpt lat="49.31687543168664" lon="9.1206883918494">
<ele>168.4</ele>
<time>2024-05-08T12:48:21Z</time>
</trkpt>
<trkpt lat="49.316902086138725" lon="9.120633071288466">
<ele>168.6</ele>
<time>2024-05-08T12:48:22Z</time>
</trkpt>
<trkpt lat="49.31692882440984" lon="9.120579678565264">
<ele>168.6</ele>
<time>2024-05-08T12:48:23Z</time>
</trkpt>
<trkpt lat="49.31695556268096" lon="9.12052528001368">
<ele>168.8</ele>
<time>2024-05-08T12:48:24Z</time>
</trkpt>
<trkpt lat="49.316982217133045" lon="9.12047004327178">
<ele>169</ele>
<time>2024-05-08T12:48:25Z</time>
</trkpt>
<trkpt lat="49.31703183799982" lon="9.120358396321537">
<ele>169</ele>
<time>2024-05-08T12:48:27Z</time>
</trkpt>
<trkpt lat="49.31707374751568" lon="9.12025161087513">
<ele>169.2</ele>
<time>2024-05-08T12:48:29Z</time>
</trkpt>
<trkpt lat="49.31709285825491" lon="9.120200145989656">
<ele>169.2</ele>
<time>2024-05-08T12:48:30Z</time>
</trkpt>
<trkpt lat="49.31711196899414" lon="9.120148597285151">
<ele>169.2</ele>
<time>2024-05-08T12:48:31Z</time>
</trkpt>
<trkpt lat="49.31715387851" lon="9.120048517361283">
<ele>169.2</ele>
<time>2024-05-08T12:48:32Z</time>
</trkpt>
<trkpt lat="49.31717298924923" lon="9.119996968656778">
<ele>169.2</ele>
<time>2024-05-08T12:48:33Z</time>
</trkpt>
<trkpt lat="49.31719587184489" lon="9.119944497942924">
<ele>169.2</ele>
<time>2024-05-08T12:48:35Z</time>
</trkpt>
<trkpt lat="49.31723400950432" lon="9.119841568171978">
<ele>169</ele>
<time>2024-05-08T12:48:37Z</time>
</trkpt>
<trkpt lat="49.317275919020176" lon="9.11973662674427">
<ele>168.8</ele>
<time>2024-05-08T12:48:39Z</time>
</trkpt>
<trkpt lat="49.317317912355065" lon="9.1196383908391">
<ele>168.8</ele>
<time>2024-05-08T12:48:41Z</time>
</trkpt>
<trkpt lat="49.3173370230943" lon="9.119593547657132">
<ele>168.6</ele>
<time>2024-05-08T12:48:42Z</time>
</trkpt>
<trkpt lat="49.31737516075373" lon="9.119509644806383">
<ele>168.4</ele>
<time>2024-05-08T12:48:44Z</time>
</trkpt>
<trkpt lat="49.317417070269585" lon="9.119428591802716">
<ele>168.2</ele>
<time>2024-05-08T12:48:46Z</time>
</trkpt>
<trkpt lat="49.317436181008816" lon="9.119386598467829">
<ele>168.2</ele>
<time>2024-05-08T12:48:47Z</time>
</trkpt>
<trkpt lat="49.317459063604474" lon="9.119343683123589">
<ele>168.2</ele>
<time>2024-05-08T12:48:48Z</time>
</trkpt>
<trkpt lat="49.317478174343705" lon="9.119296995922925">
<ele>168.2</ele>
<time>2024-05-08T12:48:49Z</time>
</trkpt>
<trkpt lat="49.31750482879579" lon="9.119250224903226">
<ele>168.2</ele>
<time>2024-05-08T12:48:50Z</time>
</trkpt>
<trkpt lat="49.31752393953502" lon="9.119198760017753">
<ele>168.2</ele>
<time>2024-05-08T12:48:51Z</time>
</trkpt>
<trkpt lat="49.31754682213068" lon="9.119141511619093">
<ele>168.2</ele>
<time>2024-05-08T12:48:52Z</time>
</trkpt>
<trkpt lat="49.317573476582766" lon="9.11908526904881">
<ele>168</ele>
<time>2024-05-08T12:48:53Z</time>
</trkpt>
<trkpt lat="49.317596359178424" lon="9.11902324296534">
<ele>168</ele>
<time>2024-05-08T12:48:54Z</time>
</trkpt>
<trkpt lat="49.31764220818877" lon="9.118900280445814">
<ele>167.8</ele>
<time>2024-05-08T12:48:56Z</time>
</trkpt>
<trkpt lat="49.317695600911975" lon="9.118780083954334">
<ele>167.4</ele>
<time>2024-05-08T12:48:57Z</time>
</trkpt>
<trkpt lat="49.31772225536406" lon="9.118719985708594">
<ele>167.2</ele>
<time>2024-05-08T12:48:59Z</time>
</trkpt>
<trkpt lat="49.31777564808726" lon="9.11859123967588">
<ele>166.6</ele>
<time>2024-05-08T12:49:01Z</time>
</trkpt>
<trkpt lat="49.31779861450195" lon="9.118526447564363">
<ele>166.4</ele>
<time>2024-05-08T12:49:02Z</time>
</trkpt>
<trkpt lat="49.31782526895404" lon="9.118459643796086">
<ele>166.2</ele>
<time>2024-05-08T12:49:03Z</time>
</trkpt>
<trkpt lat="49.31788628920913" lon="9.118311870843172">
<ele>165.4</ele>
<time>2024-05-08T12:49:04Z</time>
</trkpt>
<trkpt lat="49.31791679933667" lon="9.118233667686582">
<ele>165.2</ele>
<time>2024-05-08T12:49:06Z</time>
</trkpt>
<trkpt lat="49.317951165139675" lon="9.118143059313295">
<ele>165</ele>
<time>2024-05-08T12:49:07Z</time>
</trkpt>
<trkpt lat="49.317993158474565" lon="9.11795706488192">
<ele>164.4</ele>
<time>2024-05-08T12:49:09Z</time>
</trkpt>
<trkpt lat="49.31801218539477" lon="9.117861678823829">
<ele>164</ele>
<time>2024-05-08T12:49:10Z</time>
</trkpt>
<trkpt lat="49.318027440458536" lon="9.117772076278923">
<ele>163.8</ele>
<time>2024-05-08T12:49:11Z</time>
</trkpt>
<trkpt lat="49.31803892366588" lon="9.117686245590448">
<ele>163.4</ele>
<time>2024-05-08T12:49:12Z</time>
</trkpt>
<trkpt lat="49.31805795058608" lon="9.11752506159246">
<ele>162.8</ele>
<time>2024-05-08T12:49:13Z</time>
</trkpt>
<trkpt lat="49.31806557811797" lon="9.117458341643214">
<ele>162.4</ele>
<time>2024-05-08T12:49:14Z</time>
</trkpt>
<trkpt lat="49.31807320564985" lon="9.11738868802786">
<ele>162.2</ele>
<time>2024-05-08T12:49:15Z</time>
</trkpt>
<trkpt lat="49.31807706132531" lon="9.117318112403154">
<ele>162</ele>
<time>2024-05-08T12:49:17Z</time>
</trkpt>
<trkpt lat="49.31809231638909" lon="9.117179811000824">
<ele>161.8</ele>
<time>2024-05-08T12:49:18Z</time>
</trkpt>
<trkpt lat="49.31809608824551" lon="9.11710831336677">
<ele>161.8</ele>
<time>2024-05-08T12:49:20Z</time>
</trkpt>
<trkpt lat="49.3181037157774" lon="9.117036815732718">
<ele>161.8</ele>
<time>2024-05-08T12:49:21Z</time>
</trkpt>
<trkpt lat="49.318107571452856" lon="9.116966240108011">
<ele>161.8</ele>
<time>2024-05-08T12:49:22Z</time>
</trkpt>
<trkpt lat="49.318107571452856" lon="9.116894658654928">
<ele>161.8</ele>
<time>2024-05-08T12:49:23Z</time>
</trkpt>
<trkpt lat="49.31811519898474" lon="9.116827938705685">
<ele>161.8</ele>
<time>2024-05-08T12:49:24Z</time>
</trkpt>
<trkpt lat="49.31811897084117" lon="9.116760212928057">
<ele>162</ele>
<time>2024-05-08T12:49:25Z</time>
</trkpt>
<trkpt lat="49.318126598373055" lon="9.116621911525726">
<ele>162.2</ele>
<time>2024-05-08T12:49:26Z</time>
</trkpt>
<trkpt lat="49.31813422590494" lon="9.11655519157648">
<ele>162.4</ele>
<time>2024-05-08T12:49:27Z</time>
</trkpt>
<trkpt lat="49.31814193725586" lon="9.116483610123396">
<ele>162.6</ele>
<time>2024-05-08T12:49:28Z</time>
</trkpt>
<trkpt lat="49.31814570911229" lon="9.116413034498692">
<ele>162.6</ele>
<time>2024-05-08T12:49:29Z</time>
</trkpt>
<trkpt lat="49.318149564787745" lon="9.116343464702368">
<ele>162.8</ele>
<time>2024-05-08T12:49:31Z</time>
</trkpt>
<trkpt lat="49.31815333664417" lon="9.116272889077663">
<ele>163</ele>
<time>2024-05-08T12:49:32Z</time>
</trkpt>
<trkpt lat="49.31815333664417" lon="9.116207091137769">
<ele>163.2</ele>
<time>2024-05-08T12:49:33Z</time>
</trkpt>
<trkpt lat="49.31815719231963" lon="9.11614129319787">
<ele>163.2</ele>
<time>2024-05-08T12:49:34Z</time>
</trkpt>
<trkpt lat="49.31816096417606" lon="9.116076417267324">
<ele>163.4</ele>
<time>2024-05-08T12:49:35Z</time>
</trkpt>
<trkpt lat="49.31816481985152" lon="9.116015397012234">
<ele>163.4</ele>
<time>2024-05-08T12:49:36Z</time>
</trkpt>
<trkpt lat="49.31817244738341" lon="9.115891428664328">
<ele>163.6</ele>
<time>2024-05-08T12:49:38Z</time>
</trkpt>
<trkpt lat="49.31818007491529" lon="9.115831330418589">
<ele>163.8</ele>
<time>2024-05-08T12:49:39Z</time>
</trkpt>
<trkpt lat="49.3181914743036" lon="9.115775087848306">
<ele>164</ele>
<time>2024-05-08T12:49:40Z</time>
</trkpt>
<trkpt lat="49.31820295751095" lon="9.115711133927109">
<ele>164.2</ele>
<time>2024-05-08T12:49:41Z</time>
</trkpt>
<trkpt lat="49.31821821257472" lon="9.11564826965332">
<ele>164.2</ele>
<time>2024-05-08T12:49:42Z</time>
</trkpt>
<trkpt lat="49.31823723949492" lon="9.115581465885043">
<ele>164.4</ele>
<time>2024-05-08T12:49:43Z</time>
</trkpt>
<trkpt lat="49.31826012209058" lon="9.115513740107415">
<ele>164.4</ele>
<time>2024-05-08T12:49:44Z</time>
</trkpt>
<trkpt lat="49.31827923282981" lon="9.115447020158172">
<ele>164.4</ele>
<time>2024-05-08T12:49:45Z</time>
</trkpt>
<trkpt lat="49.318324998021126" lon="9.115316346287727">
<ele>164.2</ele>
<time>2024-05-08T12:49:47Z</time>
</trkpt>
<trkpt lat="49.31835173629224" lon="9.11525532603264">
<ele>164.2</ele>
<time>2024-05-08T12:49:48Z</time>
</trkpt>
<trkpt lat="49.31841275654733" lon="9.115143762901424">
<ele>164</ele>
<time>2024-05-08T12:49:50Z</time>
</trkpt>
<trkpt lat="49.31846992112696" lon="9.115037899464369">
<ele>164</ele>
<time>2024-05-08T12:49:52Z</time>
</trkpt>
<trkpt lat="49.31850051507354" lon="9.114992134273052">
<ele>164</ele>
<time>2024-05-08T12:49:53Z</time>
</trkpt>
<trkpt lat="49.31853102520108" lon="9.114948213100432">
<ele>164</ele>
<time>2024-05-08T12:49:54Z</time>
</trkpt>
<trkpt lat="49.31858818978071" lon="9.114865232259037">
<ele>164</ele>
<time>2024-05-08T12:49:56Z</time>
</trkpt>
<trkpt lat="49.31865306571126" lon="9.114787029102445">
<ele>163.8</ele>
<time>2024-05-08T12:49:58Z</time>
</trkpt>
<trkpt lat="49.3186835758388" lon="9.114751741290092">
<ele>163.8</ele>
<time>2024-05-08T12:49:59Z</time>
</trkpt>
<trkpt lat="49.31871408596635" lon="9.114714609459044">
<ele>164</ele>
<time>2024-05-08T12:50:00Z</time>
</trkpt>
<trkpt lat="49.31876747868955" lon="9.114647805690764">
<ele>164.6</ele>
<time>2024-05-08T12:50:02Z</time>
</trkpt>
<trkpt lat="49.31882472708821" lon="9.114582007750869">
<ele>165</ele>
<time>2024-05-08T12:50:03Z</time>
</trkpt>
<trkpt lat="49.31885146535933" lon="9.114549569785597">
<ele>165</ele>
<time>2024-05-08T12:50:04Z</time>
</trkpt>
<trkpt lat="49.318878119811416" lon="9.114516209810972">
<ele>165.2</ele>
<time>2024-05-08T12:50:06Z</time>
</trkpt>
<trkpt lat="49.31892774067819" lon="9.11444471217692">
<ele>165.6</ele>
<time>2024-05-08T12:50:07Z</time>
</trkpt>
<trkpt lat="49.31895439513028" lon="9.114410346373916">
<ele>165.8</ele>
<time>2024-05-08T12:50:09Z</time>
</trkpt>
<trkpt lat="49.31897350586951" lon="9.114373130723834">
<ele>166</ele>
<time>2024-05-08T12:50:10Z</time>
</trkpt>
<trkpt lat="49.319000244140625" lon="9.114337842911482">
<ele>166.4</ele>
<time>2024-05-08T12:50:11Z</time>
</trkpt>
<trkpt lat="49.31905363686383" lon="9.114270200952888">
<ele>167</ele>
<time>2024-05-08T12:50:13Z</time>
</trkpt>
<trkpt lat="49.319099402055144" lon="9.114198619499804">
<ele>167.4</ele>
<time>2024-05-08T12:50:15Z</time>
</trkpt>
<trkpt lat="49.31915279477835" lon="9.11412519402802">
<ele>167.8</ele>
<time>2024-05-08T12:50:17Z</time>
</trkpt>
<trkpt lat="49.319179533049464" lon="9.114087978377938">
<ele>167.8</ele>
<time>2024-05-08T12:50:18Z</time>
</trkpt>
<trkpt lat="49.31922907009721" lon="9.114003153517842">
<ele>168.2</ele>
<time>2024-05-08T12:50:19Z</time>
</trkpt>
<trkpt lat="49.319255808368325" lon="9.113958310335876">
<ele>168.2</ele>
<time>2024-05-08T12:50:21Z</time>
</trkpt>
<trkpt lat="49.31928246282041" lon="9.113918244838716">
<ele>168.4</ele>
<time>2024-05-08T12:50:22Z</time>
</trkpt>
<trkpt lat="49.31930920109153" lon="9.113878179341556">
<ele>168.4</ele>
<time>2024-05-08T12:50:23Z</time>
</trkpt>
<trkpt lat="49.31933971121907" lon="9.11383149214089">
<ele>168.4</ele>
<time>2024-05-08T12:50:24Z</time>
</trkpt>
<trkpt lat="49.31940835900605" lon="9.113723700866103">
<ele>168.2</ele>
<time>2024-05-08T12:50:26Z</time>
</trkpt>
<trkpt lat="49.31948849000037" lon="9.11361305974424">
<ele>168</ele>
<time>2024-05-08T12:50:28Z</time>
</trkpt>
<trkpt lat="49.31953048333526" lon="9.113556817173958">
<ele>168</ele>
<time>2024-05-08T12:50:29Z</time>
</trkpt>
<trkpt lat="49.31957624852657" lon="9.113498646765947">
<ele>167.8</ele>
<time>2024-05-08T12:50:30Z</time>
</trkpt>
<trkpt lat="49.319667778909206" lon="9.113385155797005">
<ele>167.4</ele>
<time>2024-05-08T12:50:32Z</time>
</trkpt>
<trkpt lat="49.31971739977598" lon="9.113326985388994">
<ele>167</ele>
<time>2024-05-08T12:50:33Z</time>
</trkpt>
<trkpt lat="49.3197631649673" lon="9.113267892971637">
<ele>166.6</ele>
<time>2024-05-08T12:50:34Z</time>
</trkpt>
<trkpt lat="49.31985469534993" lon="9.113144846633077">
<ele>165.8</ele>
<time>2024-05-08T12:50:36Z</time>
</trkpt>
<trkpt lat="49.31990046054125" lon="9.113088604062796">
<ele>165.6</ele>
<time>2024-05-08T12:50:37Z</time>
</trkpt>
<trkpt lat="49.31998059153557" lon="9.11297695711255">
<ele>164.8</ele>
<time>2024-05-08T12:50:39Z</time>
</trkpt>
<trkpt lat="49.320018729195" lon="9.112911159172654">
<ele>164.6</ele>
<time>2024-05-08T12:50:40Z</time>
</trkpt>
<trkpt lat="49.32005686685443" lon="9.112850138917564">
<ele>164.4</ele>
<time>2024-05-08T12:50:41Z</time>
</trkpt>
<trkpt lat="49.32013699784875" lon="9.112708065658808">
<ele>164</ele>
<time>2024-05-08T12:50:43Z</time>
</trkpt>
<trkpt lat="49.32017127983272" lon="9.112634640187023">
<ele>163.8</ele>
<time>2024-05-08T12:50:44Z</time>
</trkpt>
<trkpt lat="49.32023238390684" lon="9.112491561099889">
<ele>163.2</ele>
<time>2024-05-08T12:50:46Z</time>
</trkpt>
<trkpt lat="49.320262894034386" lon="9.112420063465834">
<ele>163.2</ele>
<time>2024-05-08T12:50:47Z</time>
</trkpt>
<trkpt lat="49.32031628675759" lon="9.112283689901233">
<ele>162.8</ele>
<time>2024-05-08T12:50:48Z</time>
</trkpt>
<trkpt lat="49.320342941209674" lon="9.112216886132956">
<ele>162.6</ele>
<time>2024-05-08T12:50:50Z</time>
</trkpt>
<trkpt lat="49.32039641775191" lon="9.112072885036469">
<ele>162.4</ele>
<time>2024-05-08T12:50:52Z</time>
</trkpt>
<trkpt lat="49.32041544467211" lon="9.111998537555335">
<ele>162.2</ele>
<time>2024-05-08T12:50:53Z</time>
</trkpt>
<trkpt lat="49.320461209863424" lon="9.11185453645885">
<ele>161.6</ele>
<time>2024-05-08T12:50:54Z</time>
</trkpt>
<trkpt lat="49.320480320602655" lon="9.111786810681224">
<ele>161.4</ele>
<time>2024-05-08T12:50:56Z</time>
</trkpt>
<trkpt lat="49.320499347522855" lon="9.111720006912948">
<ele>161.2</ele>
<time>2024-05-08T12:50:57Z</time>
</trkpt>
<trkpt lat="49.320518458262086" lon="9.11165613681078">
<ele>160.8</ele>
<time>2024-05-08T12:50:58Z</time>
</trkpt>
<trkpt lat="49.320537485182285" lon="9.11159704439342">
<ele>160.6</ele>
<time>2024-05-08T12:50:59Z</time>
</trkpt>
<trkpt lat="49.320560451596975" lon="9.11153694614768">
<ele>160.4</ele>
<time>2024-05-08T12:51:00Z</time>
</trkpt>
<trkpt lat="49.32058710604906" lon="9.111472070217133">
<ele>160</ele>
<time>2024-05-08T12:51:01Z</time>
</trkpt>
<trkpt lat="49.32060998864472" lon="9.111408200114964">
<ele>159.8</ele>
<time>2024-05-08T12:51:02Z</time>
</trkpt>
<trkpt lat="49.32065575383603" lon="9.111278532072902">
<ele>158.8</ele>
<time>2024-05-08T12:51:04Z</time>
</trkpt>
<trkpt lat="49.320693891495466" lon="9.111146852374077">
<ele>158</ele>
<time>2024-05-08T12:51:06Z</time>
</trkpt>
<trkpt lat="49.32072825729847" lon="9.11100285127759">
<ele>157.2</ele>
<time>2024-05-08T12:51:08Z</time>
</trkpt>
<trkpt lat="49.32075499556959" lon="9.110933281481266">
<ele>156.8</ele>
<time>2024-05-08T12:51:09Z</time>
</trkpt>
<trkpt lat="49.320777878165245" lon="9.110857928171754">
<ele>156.4</ele>
<time>2024-05-08T12:51:10Z</time>
</trkpt>
<trkpt lat="49.32080453261733" lon="9.110784502699971">
<ele>156</ele>
<time>2024-05-08T12:51:11Z</time>
</trkpt>
<trkpt lat="49.32085792534053" lon="9.110641423612831">
<ele>155</ele>
<time>2024-05-08T12:51:13Z</time>
</trkpt>
<trkpt lat="49.32088851928711" lon="9.110576547682284">
<ele>154.4</ele>
<time>2024-05-08T12:51:14Z</time>
</trkpt>
<trkpt lat="49.320919029414654" lon="9.11051175557077">
<ele>154</ele>
<time>2024-05-08T12:51:15Z</time>
</trkpt>
<trkpt lat="49.32098382152617" lon="9.11037152633071">
<ele>153.2</ele>
<time>2024-05-08T12:51:16Z</time>
</trkpt>
<trkpt lat="49.321014331653714" lon="9.110301956534386">
<ele>152.8</ele>
<time>2024-05-08T12:51:17Z</time>
</trkpt>
<trkpt lat="49.32104484178126" lon="9.110237080603838">
<ele>152.4</ele>
<time>2024-05-08T12:51:18Z</time>
</trkpt>
<trkpt lat="49.321071580052376" lon="9.110168432816865">
<ele>151.8</ele>
<time>2024-05-08T12:51:20Z</time>
</trkpt>
<trkpt lat="49.32113645598292" lon="9.110046308487654">
<ele>150.8</ele>
<time>2024-05-08T12:51:21Z</time>
</trkpt>
<trkpt lat="49.321170737966895" lon="9.109985288232563">
<ele>150.2</ele>
<time>2024-05-08T12:51:23Z</time>
</trkpt>
<trkpt lat="49.32119362056255" lon="9.10991471260786">
<ele>149.4</ele>
<time>2024-05-08T12:51:24Z</time>
</trkpt>
<trkpt lat="49.32124324142933" lon="9.109789822250605">
<ele>148</ele>
<time>2024-05-08T12:51:26Z</time>
</trkpt>
<trkpt lat="49.3212584964931" lon="9.109649593010545">
<ele>146.8</ele>
<time>2024-05-08T12:51:27Z</time>
</trkpt>
<trkpt lat="49.321250868961215" lon="9.109575245529411">
<ele>146.2</ele>
<time>2024-05-08T12:51:29Z</time>
</trkpt>
<trkpt lat="49.321250868961215" lon="9.109555212780831">
<ele>145.6</ele>
<time>2024-05-08T12:51:30Z</time>
</trkpt>
<trkpt lat="49.321231842041016" lon="9.109511375427246">
<ele>145</ele>
<time>2024-05-08T12:51:31Z</time>
</trkpt>
<trkpt lat="49.321174593642354" lon="9.1094636823982">
<ele>143.8</ele>
<time>2024-05-08T12:51:32Z</time>
</trkpt>
<trkpt lat="49.32113645598292" lon="9.10944172181189">
<ele>143.4</ele>
<time>2024-05-08T12:51:33Z</time>
</trkpt>
<trkpt lat="49.32110594585538" lon="9.109410205855966">
<ele>142.8</ele>
<time>2024-05-08T12:51:34Z</time>
</trkpt>
<trkpt lat="49.32108683511615" lon="9.109368296340108">
<ele>142.4</ele>
<time>2024-05-08T12:51:35Z</time>
</trkpt>
<trkpt lat="49.32108306325972" lon="9.109328230842948">
<ele>142</ele>
<time>2024-05-08T12:51:37Z</time>
</trkpt>
<trkpt lat="49.32108683511615" lon="9.109292021021249">
<ele>141.6</ele>
<time>2024-05-08T12:51:38Z</time>
</trkpt>
<trkpt lat="49.32110209017992" lon="9.1092461720109">
<ele>141</ele>
<time>2024-05-08T12:51:39Z</time>
</trkpt>
<trkpt lat="49.321113573387265" lon="9.109232844784856">
<ele>140.6</ele>
<time>2024-05-08T12:51:40Z</time>
</trkpt>
<trkpt lat="49.32112497277558" lon="9.109211890026929">
<ele>140.4</ele>
<time>2024-05-08T12:51:41Z</time>
</trkpt>
<trkpt lat="49.32114408351481" lon="9.10918707959354">
<ele>140</ele>
<time>2024-05-08T12:51:43Z</time>
</trkpt>
<trkpt lat="49.321174593642354" lon="9.10916704684496">
<ele>139.8</ele>
<time>2024-05-08T12:51:44Z</time>
</trkpt>
<trkpt lat="49.32124709710479" lon="9.109134608879684">
<ele>139</ele>
<time>2024-05-08T12:51:46Z</time>
</trkpt>
<trkpt lat="49.32128523476422" lon="9.1091079544276">
<ele>138.6</ele>
<time>2024-05-08T12:51:47Z</time>
</trkpt>
<trkpt lat="49.32136528193951" lon="9.10908792167902">
<ele>138.2</ele>
<time>2024-05-08T12:51:49Z</time>
</trkpt>
<trkpt lat="49.32141490280628" lon="9.10908984951675">
<ele>137.8</ele>
<time>2024-05-08T12:51:50Z</time>
</trkpt>
<trkpt lat="49.3214606679976" lon="9.109100326895714">
<ele>137.6</ele>
<time>2024-05-08T12:51:51Z</time>
</trkpt>
<trkpt lat="49.32150266133249" lon="9.109114576131104">
<ele>137.2</ele>
<time>2024-05-08T12:51:52Z</time>
</trkpt>
<trkpt lat="49.321586564183235" lon="9.109161347150804">
<ele>136.6</ele>
<time>2024-05-08T12:51:54Z</time>
</trkpt>
<trkpt lat="49.321624701842666" lon="9.109193785116076">
<ele>136.4</ele>
<time>2024-05-08T12:51:55Z</time>
</trkpt>
<trkpt lat="49.321662839502096" lon="9.10922328941524">
<ele>136.2</ele>
<time>2024-05-08T12:51:56Z</time>
</trkpt>
<trkpt lat="49.3216972053051" lon="9.109252877533436">
<ele>136.2</ele>
<time>2024-05-08T12:51:57Z</time>
</trkpt>
<trkpt lat="49.32173534296453" lon="9.10928623750806">
<ele>136</ele>
<time>2024-05-08T12:51:58Z</time>
</trkpt>
<trkpt lat="49.32177348062396" lon="9.109316747635605">
<ele>136</ele>
<time>2024-05-08T12:51:59Z</time>
</trkpt>
<trkpt lat="49.321845984086394" lon="9.109373074024916">
<ele>135.8</ele>
<time>2024-05-08T12:52:01Z</time>
</trkpt>
<trkpt lat="49.321884121745825" lon="9.10940358415246">
<ele>135.8</ele>
<time>2024-05-08T12:52:02Z</time>
</trkpt>
<trkpt lat="49.32191848754883" lon="9.109436944127085">
<ele>135.6</ele>
<time>2024-05-08T12:52:03Z</time>
</trkpt>
<trkpt lat="49.32195662520826" lon="9.109471309930086">
<ele>135.4</ele>
<time>2024-05-08T12:52:04Z</time>
</trkpt>
<trkpt lat="49.32202904485166" lon="9.109551357105374">
<ele>135.2</ele>
<time>2024-05-08T12:52:06Z</time>
</trkpt>
<trkpt lat="49.322063410654664" lon="9.109596200287342">
<ele>135.2</ele>
<time>2024-05-08T12:52:07Z</time>
</trkpt>
<trkpt lat="49.3221359141171" lon="9.109691586345434">
<ele>135.2</ele>
<time>2024-05-08T12:52:09Z</time>
</trkpt>
<trkpt lat="49.32216642424464" lon="9.109736429527402">
<ele>135.2</ele>
<time>2024-05-08T12:52:10Z</time>
</trkpt>
<trkpt lat="49.32223507203162" lon="9.109814632683992">
<ele>135.2</ele>
<time>2024-05-08T12:52:12Z</time>
</trkpt>
<trkpt lat="49.32227320969105" lon="9.109854698181152">
<ele>135</ele>
<time>2024-05-08T12:52:13Z</time>
</trkpt>
<trkpt lat="49.32231520302594" lon="9.109880430623887">
<ele>135</ele>
<time>2024-05-08T12:52:14Z</time>
</trkpt>
<trkpt lat="49.322357112541795" lon="9.109883280470967">
<ele>134.8</ele>
<time>2024-05-08T12:52:15Z</time>
</trkpt>
<trkpt lat="49.32240673340857" lon="9.10985654219985">
<ele>134.6</ele>
<time>2024-05-08T12:52:16Z</time>
</trkpt>
<trkpt lat="49.32244872674346" lon="9.109814632683992">
<ele>134.6</ele>
<time>2024-05-08T12:52:17Z</time>
</trkpt>
<trkpt lat="49.32252500206232" lon="9.109716396778822">
<ele>134.4</ele>
<time>2024-05-08T12:52:19Z</time>
</trkpt>
<trkpt lat="49.322593649849296" lon="9.109595278277991">
<ele>134.2</ele>
<time>2024-05-08T12:52:20Z</time>
</trkpt>
<trkpt lat="49.322631787508726" lon="9.109531324356794">
<ele>134</ele>
<time>2024-05-08T12:52:21Z</time>
</trkpt>
<trkpt lat="49.32266615331173" lon="9.109468460083008">
<ele>133.8</ele>
<time>2024-05-08T12:52:23Z</time>
</trkpt>
<trkpt lat="49.3227004352957" lon="9.109406433999538">
<ele>133.8</ele>
<time>2024-05-08T12:52:24Z</time>
</trkpt>
<trkpt lat="49.322734801098704" lon="9.109346335753798">
<ele>133.6</ele>
<time>2024-05-08T12:52:25Z</time>
</trkpt>
<trkpt lat="49.32280344888568" lon="9.109228067100048">
<ele>133.6</ele>
<time>2024-05-08T12:52:27Z</time>
</trkpt>
<trkpt lat="49.32286832481623" lon="9.1091079544276">
<ele>133.4</ele>
<time>2024-05-08T12:52:29Z</time>
</trkpt>
<trkpt lat="49.32293311692774" lon="9.108995385468006">
<ele>133.6</ele>
<time>2024-05-08T12:52:31Z</time>
</trkpt>
<trkpt lat="49.322967482730746" lon="9.10893151536584">
<ele>133.6</ele>
<time>2024-05-08T12:52:32Z</time>
</trkpt>
<trkpt lat="49.323032358661294" lon="9.108801763504744">
<ele>133.4</ele>
<time>2024-05-08T12:52:34Z</time>
</trkpt>
<trkpt lat="49.323066640645266" lon="9.108739821240306">
<ele>133.6</ele>
<time>2024-05-08T12:52:35Z</time>
</trkpt>
<trkpt lat="49.32313151657581" lon="9.108619624748826">
<ele>133.6</ele>
<time>2024-05-08T12:52:36Z</time>
</trkpt>
<trkpt lat="49.32316202670336" lon="9.108561454340816">
<ele>133.8</ele>
<time>2024-05-08T12:52:38Z</time>
</trkpt>
<trkpt lat="49.323226902633905" lon="9.108447963371871">
<ele>133.8</ele>
<time>2024-05-08T12:52:39Z</time>
</trkpt>
<trkpt lat="49.32326118461788" lon="9.108389792963862">
<ele>133.8</ele>
<time>2024-05-08T12:52:40Z</time>
</trkpt>
<trkpt lat="49.32329177856445" lon="9.108329694718122">
<ele>133.8</ele>
<time>2024-05-08T12:52:42Z</time>
</trkpt>
<trkpt lat="49.32335657067597" lon="9.108209582045674">
<ele>133.8</ele>
<time>2024-05-08T12:52:44Z</time>
</trkpt>
<trkpt lat="49.32339093647897" lon="9.108149483799934">
<ele>133.8</ele>
<time>2024-05-08T12:52:45Z</time>
</trkpt>
<trkpt lat="49.323425218462944" lon="9.108091313391924">
<ele>133.6</ele>
<time>2024-05-08T12:52:46Z</time>
</trkpt>
<trkpt lat="49.32349772192538" lon="9.10798167809844">
<ele>133.6</ele>
<time>2024-05-08T12:52:48Z</time>
</trkpt>
<trkpt lat="49.32356636971235" lon="9.107876736670732">
<ele>133.6</ele>
<time>2024-05-08T12:52:49Z</time>
</trkpt>
<trkpt lat="49.32360073551536" lon="9.107818566262722">
<ele>133.6</ele>
<time>2024-05-08T12:52:51Z</time>
</trkpt>
<trkpt lat="49.32363510131836" lon="9.107758468016982">
<ele>133.6</ele>
<time>2024-05-08T12:52:52Z</time>
</trkpt>
<trkpt lat="49.323703749105334" lon="9.107647826895118">
<ele>133.4</ele>
<time>2024-05-08T12:52:54Z</time>
</trkpt>
<trkpt lat="49.323776168748736" lon="9.107538191601634">
<ele>133.4</ele>
<time>2024-05-08T12:52:55Z</time>
</trkpt>
<trkpt lat="49.32380676269531" lon="9.107484798878431">
<ele>133.4</ele>
<time>2024-05-08T12:52:57Z</time>
</trkpt>
<trkpt lat="49.32387155480683" lon="9.107379857450724">
<ele>133.4</ele>
<time>2024-05-08T12:52:59Z</time>
</trkpt>
<trkpt lat="49.323936430737376" lon="9.107274999842048">
<ele>133.4</ele>
<time>2024-05-08T12:53:01Z</time>
</trkpt>
<trkpt lat="49.323997450992465" lon="9.10717198625207">
<ele>133</ele>
<time>2024-05-08T12:53:03Z</time>
</trkpt>
<trkpt lat="49.324058471247554" lon="9.1070737503469">
<ele>133</ele>
<time>2024-05-08T12:53:05Z</time>
</trkpt>
<trkpt lat="49.32408135384321" lon="9.107026979327202">
<ele>133</ele>
<time>2024-05-08T12:53:06Z</time>
</trkpt>
<trkpt lat="49.32410809211433" lon="9.106983141973616">
<ele>133.2</ele>
<time>2024-05-08T12:53:07Z</time>
</trkpt>
<trkpt lat="49.32415008544922" lon="9.10691449418664">
<ele>133.4</ele>
<time>2024-05-08T12:53:09Z</time>
</trkpt>
<trkpt lat="49.32416534051299" lon="9.106882056221366">
<ele>133.4</ele>
<time>2024-05-08T12:53:10Z</time>
</trkpt>
<trkpt lat="49.32418436743319" lon="9.106853473931553">
<ele>133.4</ele>
<time>2024-05-08T12:53:11Z</time>
</trkpt>
<trkpt lat="49.324214877560735" lon="9.106826735660434">
<ele>133.4</ele>
<time>2024-05-08T12:53:13Z</time>
</trkpt>
<trkpt lat="49.32422636076808" lon="9.106822963804008">
<ele>133.4</ele>
<time>2024-05-08T12:53:14Z</time>
</trkpt>
<trkpt lat="49.32423013262451" lon="9.106822963804008">
<ele>133.4</ele>
<time>2024-05-08T12:53:15Z</time>
</trkpt>
<trkpt lat="49.32423013262451" lon="9.106824807822704">
<ele>133.2</ele>
<time>2024-05-08T12:53:18Z</time>
</trkpt>
<trkpt lat="49.32423013262451" lon="9.106826735660434">
<ele>133.2</ele>
<time>2024-05-08T12:53:20Z</time>
</trkpt>
<trkpt lat="49.324233988299966" lon="9.106824807822704">
<ele>133.2</ele>
<time>2024-05-08T12:53:22Z</time>
</trkpt>
<trkpt lat="49.32423013262451" lon="9.106824807822704">
<ele>133.4</ele>
<time>2024-05-08T12:53:23Z</time>
</trkpt>
<trkpt lat="49.324233988299966" lon="9.106824807822704">
<ele>133.4</ele>
<time>2024-05-08T12:53:24Z</time>
</trkpt>
<trkpt lat="49.324233988299966" lon="9.106828663498163">
<ele>133.4</ele>
<time>2024-05-08T12:53:25Z</time>
</trkpt>
<trkpt lat="49.32423776015639" lon="9.106828663498163">
<ele>133.4</ele>
<time>2024-05-08T12:53:26Z</time>
</trkpt>
<trkpt lat="49.32423776015639" lon="9.106826735660434">
<ele>133.4</ele>
<time>2024-05-08T12:53:28Z</time>
</trkpt>
<trkpt lat="49.32423776015639" lon="9.106828663498163">
<ele>133.4</ele>
<time>2024-05-08T12:53:34Z</time>
</trkpt>
<trkpt lat="49.32424161583185" lon="9.106829585507512">
<ele>133.4</ele>
<time>2024-05-08T12:53:35Z</time>
</trkpt>
<trkpt lat="49.32424924336374" lon="9.106833441182973">
<ele>133.4</ele>
<time>2024-05-08T12:53:36Z</time>
</trkpt>
<trkpt lat="49.324253015220165" lon="9.106840062886477">
<ele>133.2</ele>
<time>2024-05-08T12:53:37Z</time>
</trkpt>
<trkpt lat="49.32426449842751" lon="9.10685632377863">
<ele>133.2</ele>
<time>2024-05-08T12:53:38Z</time>
</trkpt>
<trkpt lat="49.32428352534771" lon="9.106864873319864">
<ele>133.2</ele>
<time>2024-05-08T12:53:39Z</time>
</trkpt>
<trkpt lat="49.32430263608694" lon="9.106849618256092">
<ele>133.2</ele>
<time>2024-05-08T12:53:41Z</time>
</trkpt>
<trkpt lat="49.32431789115071" lon="9.106833441182973">
<ele>133.2</ele>
<time>2024-05-08T12:53:42Z</time>
</trkpt>
<trkpt lat="49.32435225695371" lon="9.106793375685813">
<ele>133.2</ele>
<time>2024-05-08T12:53:44Z</time>
</trkpt>
<trkpt lat="49.324375139549375" lon="9.106769487261772">
<ele>133.2</ele>
<time>2024-05-08T12:53:45Z</time>
</trkpt>
<trkpt lat="49.32439802214503" lon="9.106739982962608">
<ele>133.2</ele>
<time>2024-05-08T12:53:46Z</time>
</trkpt>
<trkpt lat="49.32442090474069" lon="9.106699917465448">
<ele>133.2</ele>
<time>2024-05-08T12:53:47Z</time>
</trkpt>
<trkpt lat="49.324470441788435" lon="9.10661693662405">
<ele>133.2</ele>
<time>2024-05-08T12:53:49Z</time>
</trkpt>
<trkpt lat="49.324493408203125" lon="9.106573099270465">
<ele>133.2</ele>
<time>2024-05-08T12:53:50Z</time>
</trkpt>
<trkpt lat="49.32454680092633" lon="9.106488190591335">
<ele>133.2</ele>
<time>2024-05-08T12:53:51Z</time>
</trkpt>
<trkpt lat="49.324569683521986" lon="9.106445275247095">
<ele>133.4</ele>
<time>2024-05-08T12:53:52Z</time>
</trkpt>
<trkpt lat="49.32459633797407" lon="9.106403281912208">
<ele>133.4</ele>
<time>2024-05-08T12:53:53Z</time>
</trkpt>
<trkpt lat="49.32462307624519" lon="9.106363216415048">
<ele>133.4</ele>
<time>2024-05-08T12:53:55Z</time>
</trkpt>
<trkpt lat="49.324649730697274" lon="9.10632030107081">
<ele>133.6</ele>
<time>2024-05-08T12:53:56Z</time>
</trkpt>
<trkpt lat="49.32470320723951" lon="9.106227848678827">
<ele>133.6</ele>
<time>2024-05-08T12:53:57Z</time>
</trkpt>
<trkpt lat="49.324729861691594" lon="9.10618300549686">
<ele>133.6</ele>
<time>2024-05-08T12:53:58Z</time>
</trkpt>
<trkpt lat="49.32475659996271" lon="9.1061429399997">
<ele>133.6</ele>
<time>2024-05-08T12:54:00Z</time>
</trkpt>
<trkpt lat="49.3247832544148" lon="9.106109580025077">
<ele>133.8</ele>
<time>2024-05-08T12:54:01Z</time>
</trkpt>
<trkpt lat="49.3248176202178" lon="9.10608191974461">
<ele>133.8</ele>
<time>2024-05-08T12:54:02Z</time>
</trkpt>
<trkpt lat="49.32487864047289" lon="9.106030454859138">
<ele>133.8</ele>
<time>2024-05-08T12:54:04Z</time>
</trkpt>
<trkpt lat="49.324905378744006" lon="9.10600371658802">
<ele>134</ele>
<time>2024-05-08T12:54:05Z</time>
</trkpt>
<trkpt lat="49.324928261339664" lon="9.105973206460476">
<ele>134</ele>
<time>2024-05-08T12:54:06Z</time>
</trkpt>
<trkpt lat="49.32497402653098" lon="9.10590355284512">
<ele>134</ele>
<time>2024-05-08T12:54:08Z</time>
</trkpt>
<trkpt lat="49.32500068098307" lon="9.105852087959647">
<ele>134.2</ele>
<time>2024-05-08T12:54:09Z</time>
</trkpt>
<trkpt lat="49.32502364739776" lon="9.105791989713907">
<ele>134.2</ele>
<time>2024-05-08T12:54:10Z</time>
</trkpt>
<trkpt lat="49.32505030184984" lon="9.105732897296548">
<ele>134.2</ele>
<time>2024-05-08T12:54:11Z</time>
</trkpt>
<trkpt lat="49.325103694573045" lon="9.105621334165336">
<ele>134.2</ele>
<time>2024-05-08T12:54:12Z</time>
</trkpt>
<trkpt lat="49.32513043284416" lon="9.105546902865171">
<ele>134</ele>
<time>2024-05-08T12:54:14Z</time>
</trkpt>
<trkpt lat="49.325160942971706" lon="9.105476327240469">
<ele>134</ele>
<time>2024-05-08T12:54:15Z</time>
</trkpt>
<trkpt lat="49.32521819137037" lon="9.105351436883211">
<ele>133.8</ele>
<time>2024-05-08T12:54:17Z</time>
</trkpt>
<trkpt lat="49.32524484582245" lon="9.105286560952663">
<ele>133.8</ele>
<time>2024-05-08T12:54:18Z</time>
</trkpt>
<trkpt lat="49.325298238545656" lon="9.105161586776376">
<ele>134</ele>
<time>2024-05-08T12:54:19Z</time>
</trkpt>
<trkpt lat="49.325321121141315" lon="9.1050929389894">
<ele>134</ele>
<time>2024-05-08T12:54:21Z</time>
</trkpt>
<trkpt lat="49.32537074200809" lon="9.104949943721294">
<ele>134</ele>
<time>2024-05-08T12:54:23Z</time>
</trkpt>
<trkpt lat="49.32542413473129" lon="9.104814492166042">
<ele>134.2</ele>
<time>2024-05-08T12:54:25Z</time>
</trkpt>
<trkpt lat="49.32547375559807" lon="9.10468004643917">
<ele>134.2</ele>
<time>2024-05-08T12:54:27Z</time>
</trkpt>
<trkpt lat="49.32549663819373" lon="9.104613242670894">
<ele>134.2</ele>
<time>2024-05-08T12:54:28Z</time>
</trkpt>
<trkpt lat="49.325519520789385" lon="9.10454459488392">
<ele>134.2</ele>
<time>2024-05-08T12:54:29Z</time>
</trkpt>
<trkpt lat="49.32554240338504" lon="9.104477874934672">
<ele>134.2</ele>
<time>2024-05-08T12:54:30Z</time>
</trkpt>
<trkpt lat="49.3255652859807" lon="9.104412076994777">
<ele>134.2</ele>
<time>2024-05-08T12:54:31Z</time>
</trkpt>
<trkpt lat="49.32558816857636" lon="9.104346195235848">
<ele>134.2</ele>
<time>2024-05-08T12:54:32Z</time>
</trkpt>
<trkpt lat="49.32560727931559" lon="9.104281403124332">
<ele>134.2</ele>
<time>2024-05-08T12:54:33Z</time>
</trkpt>
<trkpt lat="49.32564541697502" lon="9.10414787940681">
<ele>134.2</ele>
<time>2024-05-08T12:54:35Z</time>
</trkpt>
<trkpt lat="49.32568355463445" lon="9.104011505842209">
<ele>134</ele>
<time>2024-05-08T12:54:36Z</time>
</trkpt>
<trkpt lat="49.32570266537368" lon="9.103942858055234">
<ele>134</ele>
<time>2024-05-08T12:54:37Z</time>
</trkpt>
<trkpt lat="49.32572554796934" lon="9.103877060115336">
<ele>133.8</ele>
<time>2024-05-08T12:54:39Z</time>
</trkpt>
<trkpt lat="49.32577131316066" lon="9.103743536397817">
<ele>133.8</ele>
<time>2024-05-08T12:54:40Z</time>
</trkpt>
<trkpt lat="49.32579419575632" lon="9.10367488861084">
<ele>133.8</ele>
<time>2024-05-08T12:54:42Z</time>
</trkpt>
<trkpt lat="49.32584373280406" lon="9.10353658720851">
<ele>134</ele>
<time>2024-05-08T12:54:43Z</time>
</trkpt>
<trkpt lat="49.32586669921875" lon="9.103467939421536">
<ele>134</ele>
<time>2024-05-08T12:54:44Z</time>
</trkpt>
<trkpt lat="49.325893353670835" lon="9.103400213643909">
<ele>134</ele>
<time>2024-05-08T12:54:46Z</time>
</trkpt>
<trkpt lat="49.32594297453761" lon="9.103262834250929">
<ele>134</ele>
<time>2024-05-08T12:54:48Z</time>
</trkpt>
<trkpt lat="49.325996367260814" lon="9.103126460686326">
<ele>133.8</ele>
<time>2024-05-08T12:54:50Z</time>
</trkpt>
<trkpt lat="49.3260230217129" lon="9.103057812899351">
<ele>133.8</ele>
<time>2024-05-08T12:54:51Z</time>
</trkpt>
<trkpt lat="49.326049759984016" lon="9.102988243103027">
<ele>133.8</ele>
<time>2024-05-08T12:54:52Z</time>
</trkpt>
<trkpt lat="49.326072642579675" lon="9.102918589487672">
<ele>133.8</ele>
<time>2024-05-08T12:54:53Z</time>
</trkpt>
<trkpt lat="49.326129890978336" lon="9.102776516228914">
<ele>133.8</ele>
<time>2024-05-08T12:54:55Z</time>
</trkpt>
<trkpt lat="49.326187055557966" lon="9.102635364979506">
<ele>133.6</ele>
<time>2024-05-08T12:54:56Z</time>
</trkpt>
<trkpt lat="49.32621764950454" lon="9.102562861517072">
<ele>133.6</ele>
<time>2024-05-08T12:54:58Z</time>
</trkpt>
<trkpt lat="49.32627866975963" lon="9.102421710267665">
<ele>133.6</ele>
<time>2024-05-08T12:54:59Z</time>
</trkpt>
<trkpt lat="49.326309179887176" lon="9.10235214047134">
<ele>133.6</ele>
<time>2024-05-08T12:55:01Z</time>
</trkpt>
<trkpt lat="49.32633969001472" lon="9.102281564846637">
<ele>133.6</ele>
<time>2024-05-08T12:55:02Z</time>
</trkpt>
<trkpt lat="49.32640071026981" lon="9.102147035300732">
<ele>133.8</ele>
<time>2024-05-08T12:55:03Z</time>
</trkpt>
<trkpt lat="49.32643122039735" lon="9.102081237360837">
<ele>133.8</ele>
<time>2024-05-08T12:55:05Z</time>
</trkpt>
<trkpt lat="49.32649224065244" lon="9.1019553411752">
<ele>133.8</ele>
<time>2024-05-08T12:55:07Z</time>
</trkpt>
<trkpt lat="49.32655711658299" lon="9.101824751123786">
<ele>134</ele>
<time>2024-05-08T12:55:08Z</time>
</trkpt>
<trkpt lat="49.32659148238599" lon="9.101759875193238">
<ele>134</ele>
<time>2024-05-08T12:55:10Z</time>
</trkpt>
<trkpt lat="49.326625764369965" lon="9.10169692710042">
<ele>134</ele>
<time>2024-05-08T12:55:11Z</time>
</trkpt>
<trkpt lat="49.32666013017297" lon="9.10163490101695">
<ele>134.2</ele>
<time>2024-05-08T12:55:12Z</time>
</trkpt>
<trkpt lat="49.3266982678324" lon="9.101572958752511">
<ele>134.2</ele>
<time>2024-05-08T12:55:13Z</time>
</trkpt>
<trkpt lat="49.32677077129483" lon="9.10144329071045">
<ele>134.2</ele>
<time>2024-05-08T12:55:15Z</time>
</trkpt>
<trkpt lat="49.32680890895426" lon="9.10138126462698">
<ele>134.2</ele>
<time>2024-05-08T12:55:16Z</time>
</trkpt>
<trkpt lat="49.326843190938234" lon="9.101326866075397">
<ele>134.4</ele>
<time>2024-05-08T12:55:17Z</time>
</trkpt>
<trkpt lat="49.32692717760801" lon="9.101218152791262">
<ele>134.2</ele>
<time>2024-05-08T12:55:18Z</time>
</trkpt>
<trkpt lat="49.32696908712387" lon="9.10116283223033">
<ele>134.2</ele>
<time>2024-05-08T12:55:20Z</time>
</trkpt>
<trkpt lat="49.32704921811819" lon="9.101055124774575">
<ele>134.2</ele>
<time>2024-05-08T12:55:21Z</time>
</trkpt>
<trkpt lat="49.32708735577762" lon="9.100999804213645">
<ele>134.2</ele>
<time>2024-05-08T12:55:23Z</time>
</trkpt>
<trkpt lat="49.32712549343705" lon="9.100943561643362">
<ele>134.2</ele>
<time>2024-05-08T12:55:24Z</time>
</trkpt>
<trkpt lat="49.327159859240055" lon="9.1008863132447">
<ele>134.2</ele>
<time>2024-05-08T12:55:25Z</time>
</trkpt>
<trkpt lat="49.32723227888346" lon="9.100763266906142">
<ele>134</ele>
<time>2024-05-08T12:55:27Z</time>
</trkpt>
<trkpt lat="49.327301010489464" lon="9.100640220567584">
<ele>133.8</ele>
<time>2024-05-08T12:55:29Z</time>
</trkpt>
<trkpt lat="49.327373430132866" lon="9.100524885579944">
<ele>133.8</ele>
<time>2024-05-08T12:55:31Z</time>
</trkpt>
<trkpt lat="49.32741165161133" lon="9.100469565019011">
<ele>133.8</ele>
<time>2024-05-08T12:55:32Z</time>
</trkpt>
<trkpt lat="49.32748407125473" lon="9.100359845906496">
<ele>133.6</ele>
<time>2024-05-08T12:55:34Z</time>
</trkpt>
<trkpt lat="49.32756034657359" lon="9.10025691613555">
<ele>133.6</ele>
<time>2024-05-08T12:55:36Z</time>
</trkpt>
<trkpt lat="49.32760233990848" lon="9.100206373259423">
<ele>133.6</ele>
<time>2024-05-08T12:55:37Z</time>
</trkpt>
<trkpt lat="49.3276824709028" lon="9.10009472630918">
<ele>133.6</ele>
<time>2024-05-08T12:55:38Z</time>
</trkpt>
<trkpt lat="49.32772438041866" lon="9.100041333585978">
<ele>133.6</ele>
<time>2024-05-08T12:55:40Z</time>
</trkpt>
<trkpt lat="49.32776637375355" lon="9.099993640556931">
<ele>133.6</ele>
<time>2024-05-08T12:55:41Z</time>
</trkpt>
<trkpt lat="49.32780836708844" lon="9.099945025518537">
<ele>133.6</ele>
<time>2024-05-08T12:55:42Z</time>
</trkpt>
<trkpt lat="49.327850276604295" lon="9.099896410480142">
<ele>133.6</ele>
<time>2024-05-08T12:55:43Z</time>
</trkpt>
<trkpt lat="49.327930407598615" lon="9.099804796278477">
<ele>133.8</ele>
<time>2024-05-08T12:55:45Z</time>
</trkpt>
<trkpt lat="49.32797617278993" lon="9.09976003691554">
<ele>133.8</ele>
<time>2024-05-08T12:55:46Z</time>
</trkpt>
<trkpt lat="49.32801816612482" lon="9.099718043580651">
<ele>133.8</ele>
<time>2024-05-08T12:55:47Z</time>
</trkpt>
<trkpt lat="49.32810206897557" lon="9.099630285054443">
<ele>134</ele>
<time>2024-05-08T12:55:49Z</time>
</trkpt>
<trkpt lat="49.328140206635" lon="9.099584519863129">
<ele>134</ele>
<time>2024-05-08T12:55:50Z</time>
</trkpt>
<trkpt lat="49.3282279651612" lon="9.099499695003033">
<ele>134</ele>
<time>2024-05-08T12:55:51Z</time>
</trkpt>
<trkpt lat="49.328269958496094" lon="9.099456779658794">
<ele>134.2</ele>
<time>2024-05-08T12:55:52Z</time>
</trkpt>
<trkpt lat="49.32830809615552" lon="9.099416714161634">
<ele>134.2</ele>
<time>2024-05-08T12:55:54Z</time>
</trkpt>
<trkpt lat="49.32839199900627" lon="9.099333733320236">
<ele>134.2</ele>
<time>2024-05-08T12:55:55Z</time>
</trkpt>
<trkpt lat="49.32844161987305" lon="9.099289812147616">
<ele>134.2</ele>
<time>2024-05-08T12:55:57Z</time>
</trkpt>
<trkpt lat="49.32848738506436" lon="9.09924689680338">
<ele>134.2</ele>
<time>2024-05-08T12:55:58Z</time>
</trkpt>
<trkpt lat="49.32853315025568" lon="9.09920498728752">
<ele>134.2</ele>
<time>2024-05-08T12:55:59Z</time>
</trkpt>
<trkpt lat="49.32857505977154" lon="9.099158216267824">
<ele>134.2</ele>
<time>2024-05-08T12:56:00Z</time>
</trkpt>
<trkpt lat="49.32861705310643" lon="9.099113456904888">
<ele>134</ele>
<time>2024-05-08T12:56:01Z</time>
</trkpt>
<trkpt lat="49.3286666739732" lon="9.09907146357">
<ele>134</ele>
<time>2024-05-08T12:56:02Z</time>
</trkpt>
<trkpt lat="49.32875820435584" lon="9.098997116088867">
<ele>134</ele>
<time>2024-05-08T12:56:03Z</time>
</trkpt>
<trkpt lat="49.328800197690725" lon="9.098963672295213">
<ele>133.8</ele>
<time>2024-05-08T12:56:05Z</time>
</trkpt>
<trkpt lat="49.32888024486601" lon="9.098897874355316">
<ele>133.8</ele>
<time>2024-05-08T12:56:07Z</time>
</trkpt>
<trkpt lat="49.32895274832845" lon="9.09883014857769">
<ele>133.8</ele>
<time>2024-05-08T12:56:08Z</time>
</trkpt>
<trkpt lat="49.32899088598788" lon="9.098794860765338">
<ele>133.8</ele>
<time>2024-05-08T12:56:10Z</time>
</trkpt>
<trkpt lat="49.32902902364731" lon="9.098759572952986">
<ele>133.8</ele>
<time>2024-05-08T12:56:11Z</time>
</trkpt>
<trkpt lat="49.3290710169822" lon="9.098723363131285">
<ele>133.8</ele>
<time>2024-05-08T12:56:12Z</time>
</trkpt>
<trkpt lat="49.32910915464163" lon="9.098688075318933">
<ele>133.8</ele>
<time>2024-05-08T12:56:13Z</time>
</trkpt>
<trkpt lat="49.329193057492375" lon="9.098621355369689">
<ele>133.8</ele>
<time>2024-05-08T12:56:14Z</time>
</trkpt>
<trkpt lat="49.32923882268369" lon="9.098585061728954">
<ele>133.8</ele>
<time>2024-05-08T12:56:16Z</time>
</trkpt>
<trkpt lat="49.32928081601858" lon="9.098547929897904">
<ele>133.8</ele>
<time>2024-05-08T12:56:17Z</time>
</trkpt>
<trkpt lat="49.329372346401215" lon="9.09847634844482">
<ele>133.8</ele>
<time>2024-05-08T12:56:18Z</time>
</trkpt>
<trkpt lat="49.32941811159253" lon="9.098440138623118">
<ele>133.8</ele>
<time>2024-05-08T12:56:20Z</time>
</trkpt>
<trkpt lat="49.32950972579419" lon="9.098362857475877">
<ele>133.8</ele>
<time>2024-05-08T12:56:21Z</time>
</trkpt>
<trkpt lat="49.32955926284194" lon="9.098322791978717">
<ele>133.8</ele>
<time>2024-05-08T12:56:22Z</time>
</trkpt>
<trkpt lat="49.32960502803326" lon="9.098284654319286">
<ele>133.8</ele>
<time>2024-05-08T12:56:23Z</time>
</trkpt>
<trkpt lat="49.329647021368146" lon="9.098250372335317">
<ele>133.8</ele>
<time>2024-05-08T12:56:25Z</time>
</trkpt>
<trkpt lat="49.329689014703035" lon="9.09821986220777">
<ele>133.8</ele>
<time>2024-05-08T12:56:26Z</time>
</trkpt>
<trkpt lat="49.329765290021896" lon="9.098153058439491">
<ele>134</ele>
<time>2024-05-08T12:56:27Z</time>
</trkpt>
<trkpt lat="49.32979957200587" lon="9.0981216263026">
<ele>134.2</ele>
<time>2024-05-08T12:56:29Z</time>
</trkpt>
<trkpt lat="49.32983016595245" lon="9.098086338490248">
<ele>134.4</ele>
<time>2024-05-08T12:56:30Z</time>
</trkpt>
<trkpt lat="49.329868303611875" lon="9.098050044849517">
<ele>134.6</ele>
<time>2024-05-08T12:56:31Z</time>
</trkpt>
<trkpt lat="49.329902585595846" lon="9.098012913018463">
<ele>134.8</ele>
<time>2024-05-08T12:56:32Z</time>
</trkpt>
<trkpt lat="49.32997886091471" lon="9.097949964925649">
<ele>135.4</ele>
<time>2024-05-08T12:56:34Z</time>
</trkpt>
<trkpt lat="49.33007047511637" lon="9.097894644364716">
<ele>135.8</ele>
<time>2024-05-08T12:56:36Z</time>
</trkpt>
<trkpt lat="49.33011624030769" lon="9.09786312840879">
<ele>136</ele>
<time>2024-05-08T12:56:37Z</time>
</trkpt>
<trkpt lat="49.33020014315843" lon="9.097801186144352">
<ele>136.4</ele>
<time>2024-05-08T12:56:39Z</time>
</trkpt>
<trkpt lat="49.33028027415275" lon="9.097746787592769">
<ele>136.8</ele>
<time>2024-05-08T12:56:40Z</time>
</trkpt>
<trkpt lat="49.330318411812186" lon="9.097716277465224">
<ele>136.8</ele>
<time>2024-05-08T12:56:42Z</time>
</trkpt>
<trkpt lat="49.33040994219482" lon="9.097668584436178">
<ele>137</ele>
<time>2024-05-08T12:56:43Z</time>
</trkpt>
<trkpt lat="49.33045193552971" lon="9.097644779831173">
<ele>137</ele>
<time>2024-05-08T12:56:44Z</time>
</trkpt>
<trkpt lat="49.33049384504557" lon="9.097622819244862">
<ele>137</ele>
<time>2024-05-08T12:56:45Z</time>
</trkpt>
<trkpt lat="49.330535838380456" lon="9.097601864486933">
<ele>137</ele>
<time>2024-05-08T12:56:47Z</time>
</trkpt>
<trkpt lat="49.330634996294975" lon="9.097551321610808">
<ele>137</ele>
<time>2024-05-08T12:56:49Z</time>
</trkpt>
<trkpt lat="49.33068084530533" lon="9.09752651117742">
<ele>137</ele>
<time>2024-05-08T12:56:50Z</time>
</trkpt>
<trkpt lat="49.330734238028526" lon="9.097503628581762">
<ele>137</ele>
<time>2024-05-08T12:56:51Z</time>
</trkpt>
<trkpt lat="49.33078000321984" lon="9.097476890310643">
<ele>136.8</ele>
<time>2024-05-08T12:56:52Z</time>
</trkpt>
<trkpt lat="49.330875389277935" lon="9.09742827527225">
<ele>136.8</ele>
<time>2024-05-08T12:56:53Z</time>
</trkpt>
<trkpt lat="49.33092115446925" lon="9.097403464838862">
<ele>136.8</ele>
<time>2024-05-08T12:56:55Z</time>
</trkpt>
<trkpt lat="49.331008829176426" lon="9.09735199995339">
<ele>136.8</ele>
<time>2024-05-08T12:56:56Z</time>
</trkpt>
<trkpt lat="49.331050822511315" lon="9.09733003936708">
<ele>136.8</ele>
<time>2024-05-08T12:56:57Z</time>
</trkpt>
<trkpt lat="49.33109658770263" lon="9.097306234762073">
<ele>136.8</ele>
<time>2024-05-08T12:56:59Z</time>
</trkpt>
<trkpt lat="49.33113858103752" lon="9.097285196185112">
<ele>136.6</ele>
<time>2024-05-08T12:57:00Z</time>
</trkpt>
<trkpt lat="49.33118049055338" lon="9.097259463742375">
<ele>136.6</ele>
<time>2024-05-08T12:57:01Z</time>
</trkpt>
<trkpt lat="49.33122248388827" lon="9.097243286669254">
<ele>136.6</ele>
<time>2024-05-08T12:57:02Z</time>
</trkpt>
<trkpt lat="49.331306386739016" lon="9.097196515649555">
<ele>136.6</ele>
<time>2024-05-08T12:57:04Z</time>
</trkpt>
<trkpt lat="49.331386517733335" lon="9.097146978601812">
<ele>136.6</ele>
<time>2024-05-08T12:57:05Z</time>
</trkpt>
<trkpt lat="49.331428511068225" lon="9.097125018015504">
<ele>136.4</ele>
<time>2024-05-08T12:57:07Z</time>
</trkpt>
<trkpt lat="49.3315161857754" lon="9.097082102671266">
<ele>136.4</ele>
<time>2024-05-08T12:57:09Z</time>
</trkpt>
<trkpt lat="49.331603944301605" lon="9.09703348763287">
<ele>136.4</ele>
<time>2024-05-08T12:57:10Z</time>
</trkpt>
<trkpt lat="49.33164970949292" lon="9.097008677199485">
<ele>136.4</ele>
<time>2024-05-08T12:57:12Z</time>
</trkpt>
<trkpt lat="49.33174132369459" lon="9.096960062161088">
<ele>136.2</ele>
<time>2024-05-08T12:57:13Z</time>
</trkpt>
<trkpt lat="49.331783233210444" lon="9.096940029412508">
<ele>136.2</ele>
<time>2024-05-08T12:57:15Z</time>
</trkpt>
<trkpt lat="49.33187484741211" lon="9.09689711406827">
<ele>136</ele>
<time>2024-05-08T12:57:16Z</time>
</trkpt>
<trkpt lat="49.33191675692797" lon="9.09687515348196">
<ele>136</ele>
<time>2024-05-08T12:57:17Z</time>
</trkpt>
<trkpt lat="49.33196252211928" lon="9.09685704857111">
<ele>136</ele>
<time>2024-05-08T12:57:18Z</time>
</trkpt>
<trkpt lat="49.3320082873106" lon="9.096839865669608">
<ele>136</ele>
<time>2024-05-08T12:57:20Z</time>
</trkpt>
<trkpt lat="49.332096045836806" lon="9.096813127398493">
<ele>136</ele>
<time>2024-05-08T12:57:22Z</time>
</trkpt>
<trkpt lat="49.332138039171696" lon="9.096793094649913">
<ele>136</ele>
<time>2024-05-08T12:57:23Z</time>
</trkpt>
<trkpt lat="49.33222194202244" lon="9.096748335286977">
<ele>136</ele>
<time>2024-05-08T12:57:25Z</time>
</trkpt>
<trkpt lat="49.33226393535733" lon="9.096726374700664">
<ele>136</ele>
<time>2024-05-08T12:57:26Z</time>
</trkpt>
<trkpt lat="49.33235161006451" lon="9.096688237041237">
<ele>136</ele>
<time>2024-05-08T12:57:27Z</time>
</trkpt>
<trkpt lat="49.33238983154297" lon="9.09667675383389">
<ele>136</ele>
<time>2024-05-08T12:57:29Z</time>
</trkpt>
<trkpt lat="49.332431741058826" lon="9.096670132130384">
<ele>136</ele>
<time>2024-05-08T12:57:30Z</time>
</trkpt>
<trkpt lat="49.33247750625014" lon="9.096665354445577">
<ele>136</ele>
<time>2024-05-08T12:57:31Z</time>
</trkpt>
<trkpt lat="49.33252712711692" lon="9.096661498770118">
<ele>135.8</ele>
<time>2024-05-08T12:57:32Z</time>
</trkpt>
<trkpt lat="49.33264154009521" lon="9.096663426607847">
<ele>135.6</ele>
<time>2024-05-08T12:57:34Z</time>
</trkpt>
<trkpt lat="49.332710187882185" lon="9.096666276454926">
<ele>135.4</ele>
<time>2024-05-08T12:57:35Z</time>
</trkpt>
<trkpt lat="49.33277891948819" lon="9.096665354445577">
<ele>135.2</ele>
<time>2024-05-08T12:57:36Z</time>
</trkpt>
<trkpt lat="49.33292384259403" lon="9.096641466021538">
<ele>134.6</ele>
<time>2024-05-08T12:57:37Z</time>
</trkpt>
<trkpt lat="49.33300011791289" lon="9.096628138795497">
<ele>134.4</ele>
<time>2024-05-08T12:57:38Z</time>
</trkpt>
<trkpt lat="49.33307262137532" lon="9.096614811569452">
<ele>134</ele>
<time>2024-05-08T12:57:40Z</time>
</trkpt>
<trkpt lat="49.3331412691623" lon="9.096606178209186">
<ele>133.8</ele>
<time>2024-05-08T12:57:41Z</time>
</trkpt>
<trkpt lat="49.33327102102339" lon="9.096583295613527">
<ele>133.2</ele>
<time>2024-05-08T12:57:42Z</time>
</trkpt>
<trkpt lat="49.33333581313491" lon="9.096571896225214">
<ele>133</ele>
<time>2024-05-08T12:57:43Z</time>
</trkpt>
<trkpt lat="49.33339683339" lon="9.09656141884625">
<ele>133</ele>
<time>2024-05-08T12:57:45Z</time>
</trkpt>
<trkpt lat="49.33351133018732" lon="9.096543230116367">
<ele>132.6</ele>
<time>2024-05-08T12:57:46Z</time>
</trkpt>
<trkpt lat="49.33356472291052" lon="9.096534680575132">
<ele>132.6</ele>
<time>2024-05-08T12:57:47Z</time>
</trkpt>
<trkpt lat="49.333618115633726" lon="9.096527053043246">
<ele>132.4</ele>
<time>2024-05-08T12:57:49Z</time>
</trkpt>
<trkpt lat="49.333721129223704" lon="9.096513725817204">
<ele>132.4</ele>
<time>2024-05-08T12:57:50Z</time>
</trkpt>
<trkpt lat="49.33376689441502" lon="9.096509870141745">
<ele>132.4</ele>
<time>2024-05-08T12:57:52Z</time>
</trkpt>
<trkpt lat="49.333873679861426" lon="9.09650324843824">
<ele>132</ele>
<time>2024-05-08T12:57:54Z</time>
</trkpt>
<trkpt lat="49.333976693451405" lon="9.096476510167122">
<ele>132</ele>
<time>2024-05-08T12:57:55Z</time>
</trkpt>
<trkpt lat="49.33402631431818" lon="9.096465110778809">
<ele>132</ele>
<time>2024-05-08T12:57:56Z</time>
</trkpt>
<trkpt lat="49.3340720795095" lon="9.096453627571464">
<ele>132</ele>
<time>2024-05-08T12:57:57Z</time>
</trkpt>
<trkpt lat="49.33411784470081" lon="9.09644030034542">
<ele>132</ele>
<time>2024-05-08T12:57:58Z</time>
</trkpt>
<trkpt lat="49.33416360989213" lon="9.096425045281649">
<ele>132</ele>
<time>2024-05-08T12:57:59Z</time>
</trkpt>
<trkpt lat="49.334213230758905" lon="9.096406856551766">
<ele>132</ele>
<time>2024-05-08T12:58:00Z</time>
</trkpt>
<trkpt lat="49.33425899595022" lon="9.096386907622218">
<ele>132</ele>
<time>2024-05-08T12:58:02Z</time>
</trkpt>
<trkpt lat="49.33430098928511" lon="9.09636301919818">
<ele>132</ele>
<time>2024-05-08T12:58:03Z</time>
</trkpt>
<trkpt lat="49.3343810364604" lon="9.096313398331404">
<ele>132.2</ele>
<time>2024-05-08T12:58:05Z</time>
</trkpt>
<trkpt lat="49.33446116745472" lon="9.096269560977817">
<ele>132.6</ele>
<time>2024-05-08T12:58:07Z</time>
</trkpt>
<trkpt lat="49.33454129844904" lon="9.096244750544429">
<ele>133</ele>
<time>2024-05-08T12:58:08Z</time>
</trkpt>
<trkpt lat="49.3345832079649" lon="9.096235195174811">
<ele>133</ele>
<time>2024-05-08T12:58:10Z</time>
</trkpt>
<trkpt lat="49.33462142944336" lon="9.096226645633578">
<ele>133.2</ele>
<time>2024-05-08T12:58:11Z</time>
</trkpt>
<trkpt lat="49.33466333895922" lon="9.09622186794877">
<ele>133.4</ele>
<time>2024-05-08T12:58:12Z</time>
</trkpt>
<trkpt lat="49.33475109748542" lon="9.096215246245263">
<ele>133.6</ele>
<time>2024-05-08T12:58:13Z</time>
</trkpt>
<trkpt lat="49.33479309082031" lon="9.096215246245263">
<ele>133.6</ele>
<time>2024-05-08T12:58:15Z</time>
</trkpt>
<trkpt lat="49.33488076552749" lon="9.096218096092343">
<ele>134</ele>
<time>2024-05-08T12:58:17Z</time>
</trkpt>
<trkpt lat="49.33497237972915" lon="9.09622186794877">
<ele>134.2</ele>
<time>2024-05-08T12:58:19Z</time>
</trkpt>
<trkpt lat="49.33506768196821" lon="9.09624190069735">
<ele>134.4</ele>
<time>2024-05-08T12:58:20Z</time>
</trkpt>
<trkpt lat="49.33511730283499" lon="9.096253383904696">
<ele>134.6</ele>
<time>2024-05-08T12:58:21Z</time>
</trkpt>
<trkpt lat="49.33516692370176" lon="9.096266711130738">
<ele>134.6</ele>
<time>2024-05-08T12:58:23Z</time>
</trkpt>
<trkpt lat="49.33521646074951" lon="9.096278110519052">
<ele>134.6</ele>
<time>2024-05-08T12:58:24Z</time>
</trkpt>
<trkpt lat="49.33526608161628" lon="9.096288671717048">
<ele>134.6</ele>
<time>2024-05-08T12:58:25Z</time>
</trkpt>
<trkpt lat="49.335361467674375" lon="9.09630007110536">
<ele>134.6</ele>
<time>2024-05-08T12:58:27Z</time>
</trkpt>
<trkpt lat="49.33546439744532" lon="9.096315326169131">
<ele>134.4</ele>
<time>2024-05-08T12:58:29Z</time>
</trkpt>
<trkpt lat="49.33555978350341" lon="9.09632203169167">
<ele>134.2</ele>
<time>2024-05-08T12:58:30Z</time>
</trkpt>
<trkpt lat="49.33560940437019" lon="9.096326809376478">
<ele>134.2</ele>
<time>2024-05-08T12:58:32Z</time>
</trkpt>
<trkpt lat="49.33570479042828" lon="9.096336364746094">
<ele>134</ele>
<time>2024-05-08T12:58:34Z</time>
</trkpt>
<trkpt lat="49.335796320810914" lon="9.096346842125058">
<ele>134</ele>
<time>2024-05-08T12:58:36Z</time>
</trkpt>
<trkpt lat="49.33588785119355" lon="9.096355391666291">
<ele>133.8</ele>
<time>2024-05-08T12:58:37Z</time>
</trkpt>
<trkpt lat="49.335933616384864" lon="9.096356313675642">
<ele>133.8</ele>
<time>2024-05-08T12:58:39Z</time>
</trkpt>
<trkpt lat="49.33602523058653" lon="9.096353463828564">
<ele>133.8</ele>
<time>2024-05-08T12:58:40Z</time>
</trkpt>
<trkpt lat="49.336070995777845" lon="9.096346842125058">
<ele>133.8</ele>
<time>2024-05-08T12:58:41Z</time>
</trkpt>
<trkpt lat="49.33611676096916" lon="9.096335358917711">
<ele>133.8</ele>
<time>2024-05-08T12:58:42Z</time>
</trkpt>
<trkpt lat="49.33615867048502" lon="9.09632203169167">
<ele>133.8</ele>
<time>2024-05-08T12:58:44Z</time>
</trkpt>
<trkpt lat="49.33620066381991" lon="9.096308704465628">
<ele>133.8</ele>
<time>2024-05-08T12:58:45Z</time>
</trkpt>
<trkpt lat="49.336246429011226" lon="9.096295293420551">
<ele>133.8</ele>
<time>2024-05-08T12:58:46Z</time>
</trkpt>
<trkpt lat="49.33629219420254" lon="9.09628003835678">
<ele>133.8</ele>
<time>2024-05-08T12:58:47Z</time>
</trkpt>
<trkpt lat="49.33633804321289" lon="9.096264783293009">
<ele>133.8</ele>
<time>2024-05-08T12:58:48Z</time>
</trkpt>
<trkpt lat="49.33637995272875" lon="9.096251456066966">
<ele>133.8</ele>
<time>2024-05-08T12:58:49Z</time>
</trkpt>
<trkpt lat="49.33647148311138" lon="9.096249528229237">
<ele>133.8</ele>
<time>2024-05-08T12:58:51Z</time>
</trkpt>
<trkpt lat="49.33651733212173" lon="9.096258161589503">
<ele>133.8</ele>
<time>2024-05-08T12:58:52Z</time>
</trkpt>
<trkpt lat="49.336605006828904" lon="9.096278110519052">
<ele>133.8</ele>
<time>2024-05-08T12:58:53Z</time>
</trkpt>
<trkpt lat="49.336647000163794" lon="9.096286743879318">
<ele>134</ele>
<time>2024-05-08T12:58:54Z</time>
</trkpt>
<trkpt lat="49.33668899349868" lon="9.096295293420551">
<ele>134</ele>
<time>2024-05-08T12:58:56Z</time>
</trkpt>
<trkpt lat="49.33673853054643" lon="9.096316331997514">
<ele>134</ele>
<time>2024-05-08T12:58:57Z</time>
</trkpt>
<trkpt lat="49.336837688460946" lon="9.096351619809866">
<ele>134</ele>
<time>2024-05-08T12:58:58Z</time>
</trkpt>
<trkpt lat="49.33689116500318" lon="9.096369724720716">
<ele>134</ele>
<time>2024-05-08T12:59:00Z</time>
</trkpt>
<trkpt lat="49.3369903229177" lon="9.096418339759111">
<ele>134</ele>
<time>2024-05-08T12:59:02Z</time>
</trkpt>
<trkpt lat="49.33709333650768" lon="9.09650324843824">
<ele>134</ele>
<time>2024-05-08T12:59:04Z</time>
</trkpt>
<trkpt lat="49.33715050108731" lon="9.09660148434341">
<ele>133.6</ele>
<time>2024-05-08T12:59:06Z</time>
</trkpt>
<trkpt lat="49.33720397762954" lon="9.096713047474625">
<ele>133.2</ele>
<time>2024-05-08T12:59:08Z</time>
</trkpt>
<trkpt lat="49.337238259613514" lon="9.096748335286977">
<ele>133</ele>
<time>2024-05-08T12:59:09Z</time>
</trkpt>
<trkpt lat="49.33731076307595" lon="9.09675495699048">
<ele>132.4</ele>
<time>2024-05-08T12:59:11Z</time>
</trkpt>
<trkpt lat="49.33739089407027" lon="9.09673685207963">
<ele>132</ele>
<time>2024-05-08T12:59:13Z</time>
</trkpt>
<trkpt lat="49.33746331371367" lon="9.09671681933105">
<ele>131.4</ele>
<time>2024-05-08T12:59:14Z</time>
</trkpt>
<trkpt lat="49.3375014513731" lon="9.096712041646242">
<ele>131.4</ele>
<time>2024-05-08T12:59:16Z</time>
</trkpt>
<trkpt lat="49.337535817176104" lon="9.096705419942737">
<ele>131.2</ele>
<time>2024-05-08T12:59:17Z</time>
</trkpt>
<trkpt lat="49.337573954835534" lon="9.096713047474625">
<ele>131.2</ele>
<time>2024-05-08T12:59:18Z</time>
</trkpt>
<trkpt lat="49.337612092494965" lon="9.096730230376124">
<ele>131.2</ele>
<time>2024-05-08T12:59:19Z</time>
</trkpt>
<trkpt lat="49.337688367813826" lon="9.096770212054253">
<ele>131.2</ele>
<time>2024-05-08T12:59:20Z</time>
</trkpt>
<trkpt lat="49.33772273361683" lon="9.096806505694984">
<ele>131.2</ele>
<time>2024-05-08T12:59:21Z</time>
</trkpt>
<trkpt lat="49.33775709941983" lon="9.09683316014707">
<ele>131.2</ele>
<time>2024-05-08T12:59:22Z</time>
</trkpt>
<trkpt lat="49.33779523707926" lon="9.096850343048573">
<ele>131.4</ele>
<time>2024-05-08T12:59:24Z</time>
</trkpt>
<trkpt lat="49.33783714659512" lon="9.096864676102996">
<ele>131.4</ele>
<time>2024-05-08T12:59:25Z</time>
</trkpt>
<trkpt lat="49.33791350573301" lon="9.096899963915348">
<ele>131.6</ele>
<time>2024-05-08T12:59:27Z</time>
</trkpt>
<trkpt lat="49.338005036115646" lon="9.096944807097316">
<ele>131.8</ele>
<time>2024-05-08T12:59:28Z</time>
</trkpt>
<trkpt lat="49.33805080130696" lon="9.096961906179786">
<ele>131.8</ele>
<time>2024-05-08T12:59:29Z</time>
</trkpt>
<trkpt lat="49.33809279464185" lon="9.096980094909668">
<ele>131.8</ele>
<time>2024-05-08T12:59:30Z</time>
</trkpt>
<trkpt lat="49.33813855983317" lon="9.096998199820518">
<ele>131.8</ele>
<time>2024-05-08T12:59:31Z</time>
</trkpt>
<trkpt lat="49.33818046934903" lon="9.097020076587796">
<ele>131.8</ele>
<time>2024-05-08T12:59:33Z</time>
</trkpt>
<trkpt lat="49.33826822787523" lon="9.097060142084956">
<ele>131.8</ele>
<time>2024-05-08T12:59:35Z</time>
</trkpt>
<trkpt lat="49.33835213072598" lon="9.09709450788796">
<ele>131.8</ele>
<time>2024-05-08T12:59:37Z</time>
</trkpt>
<trkpt lat="49.338439889252186" lon="9.09713457338512">
<ele>131.8</ele>
<time>2024-05-08T12:59:39Z</time>
</trkpt>
<trkpt lat="49.33852764777839" lon="9.0971736330539">
<ele>131.8</ele>
<time>2024-05-08T12:59:41Z</time>
</trkpt>
<trkpt lat="49.33856964111328" lon="9.097189893946052">
<ele>131.8</ele>
<time>2024-05-08T12:59:42Z</time>
</trkpt>
<trkpt lat="49.338661171495914" lon="9.097227025777102">
<ele>131.8</ele>
<time>2024-05-08T12:59:43Z</time>
</trkpt>
<trkpt lat="49.33870693668723" lon="9.097241358831525">
<ele>132</ele>
<time>2024-05-08T12:59:45Z</time>
</trkpt>
<trkpt lat="49.33879469521344" lon="9.097272790968418">
<ele>132.2</ele>
<time>2024-05-08T12:59:47Z</time>
</trkpt>
<trkpt lat="49.338878598064184" lon="9.097305228933692">
<ele>132.2</ele>
<time>2024-05-08T12:59:49Z</time>
</trkpt>
<trkpt lat="49.338920591399074" lon="9.097319561988115">
<ele>132.4</ele>
<time>2024-05-08T12:59:50Z</time>
</trkpt>
<trkpt lat="49.33896250091493" lon="9.09732811152935">
<ele>132.4</ele>
<time>2024-05-08T12:59:51Z</time>
</trkpt>
<trkpt lat="49.33904263190925" lon="9.09732811152935">
<ele>132.6</ele>
<time>2024-05-08T12:59:52Z</time>
</trkpt>
<trkpt lat="49.33908462524414" lon="9.097325261682272">
<ele>132.6</ele>
<time>2024-05-08T12:59:53Z</time>
</trkpt>
<trkpt lat="49.33913416229189" lon="9.097319561988115">
<ele>132.6</ele>
<time>2024-05-08T12:59:55Z</time>
</trkpt>
<trkpt lat="49.33922569267452" lon="9.09730807878077">
<ele>132.6</ele>
<time>2024-05-08T12:59:56Z</time>
</trkpt>
<trkpt lat="49.339271541684866" lon="9.097296679392455">
<ele>132.6</ele>
<time>2024-05-08T12:59:58Z</time>
</trkpt>
<trkpt lat="49.33931730687618" lon="9.09728997386992">
<ele>132.6</ele>
<time>2024-05-08T12:59:59Z</time>
</trkpt>
<trkpt lat="49.33940120972693" lon="9.097278574481606">
<ele>132.6</ele>
<time>2024-05-08T13:00:01Z</time>
</trkpt>
<trkpt lat="49.33949274010956" lon="9.097234653308988">
<ele>132.6</ele>
<time>2024-05-08T13:00:02Z</time>
</trkpt>
<trkpt lat="49.33953850530088" lon="9.09721369855106">
<ele>132.6</ele>
<time>2024-05-08T13:00:04Z</time>
</trkpt>
<trkpt lat="49.33962249197066" lon="9.097181260585783">
<ele>132.6</ele>
<time>2024-05-08T13:00:05Z</time>
</trkpt>
<trkpt lat="49.33966440148651" lon="9.097165083512664">
<ele>132.6</ele>
<time>2024-05-08T13:00:06Z</time>
</trkpt>
<trkpt lat="49.339706394821405" lon="9.097149828448892">
<ele>132.6</ele>
<time>2024-05-08T13:00:08Z</time>
</trkpt>
<trkpt lat="49.33979792520404" lon="9.097136417403815">
<ele>132.6</ele>
<time>2024-05-08T13:00:09Z</time>
</trkpt>
<trkpt lat="49.339843690395355" lon="9.09713172353804">
<ele>132.6</ele>
<time>2024-05-08T13:00:10Z</time>
</trkpt>
<trkpt lat="49.33989331126213" lon="9.097127867862582">
<ele>132.6</ele>
<time>2024-05-08T13:00:12Z</time>
</trkpt>
<trkpt lat="49.339942932128906" lon="9.097126945853232">
<ele>132.6</ele>
<time>2024-05-08T13:00:13Z</time>
</trkpt>
<trkpt lat="49.33999246917665" lon="9.097136417403815">
<ele>132.6</ele>
<time>2024-05-08T13:00:14Z</time>
</trkpt>
<trkpt lat="49.340042090043426" lon="9.09715175628662">
<ele>132.6</ele>
<time>2024-05-08T13:00:15Z</time>
</trkpt>
<trkpt lat="49.34013747610152" lon="9.097203221172094">
<ele>132.6</ele>
<time>2024-05-08T13:00:17Z</time>
</trkpt>
<trkpt lat="49.340183241292834" lon="9.097227025777102">
<ele>132.4</ele>
<time>2024-05-08T13:00:18Z</time>
</trkpt>
<trkpt lat="49.34022900648415" lon="9.09725376404822">
<ele>132.4</ele>
<time>2024-05-08T13:00:19Z</time>
</trkpt>
<trkpt lat="49.34027091600001" lon="9.097278574481606">
<ele>132.4</ele>
<time>2024-05-08T13:00:20Z</time>
</trkpt>
<trkpt lat="49.34031676501036" lon="9.097299529239535">
<ele>132.4</ele>
<time>2024-05-08T13:00:21Z</time>
</trkpt>
<trkpt lat="49.34036253020167" lon="9.097326267510653">
<ele>132.2</ele>
<time>2024-05-08T13:00:22Z</time>
</trkpt>
<trkpt lat="49.34040829539299" lon="9.09735007211566">
<ele>132.2</ele>
<time>2024-05-08T13:00:23Z</time>
</trkpt>
<trkpt lat="49.3404960539192" lon="9.09739206545055">
<ele>132.2</ele>
<time>2024-05-08T13:00:24Z</time>
</trkpt>
<trkpt lat="49.34054181911051" lon="9.097413020208478">
<ele>132</ele>
<time>2024-05-08T13:00:25Z</time>
</trkpt>
<trkpt lat="49.34057995676994" lon="9.097434980794787">
<ele>132</ele>
<time>2024-05-08T13:00:27Z</time>
</trkpt>
<trkpt lat="49.34062572196126" lon="9.097457863390446">
<ele>132</ele>
<time>2024-05-08T13:00:28Z</time>
</trkpt>
<trkpt lat="49.34066385962069" lon="9.097475046291947">
<ele>132</ele>
<time>2024-05-08T13:00:29Z</time>
</trkpt>
<trkpt lat="49.34074776247144" lon="9.097504550591111">
<ele>132</ele>
<time>2024-05-08T13:00:31Z</time>
</trkpt>
<trkpt lat="49.34078212827444" lon="9.097516955807803">
<ele>132</ele>
<time>2024-05-08T13:00:32Z</time>
</trkpt>
<trkpt lat="49.3408584035933" lon="9.097543694078922">
<ele>132</ele>
<time>2024-05-08T13:00:34Z</time>
</trkpt>
<trkpt lat="49.34090416878462" lon="9.097555093467236">
<ele>132.2</ele>
<time>2024-05-08T13:00:35Z</time>
</trkpt>
<trkpt lat="49.340949933975935" lon="9.097559871152043">
<ele>132.2</ele>
<time>2024-05-08T13:00:36Z</time>
</trkpt>
<trkpt lat="49.341033920645714" lon="9.097551321610808">
<ele>132.6</ele>
<time>2024-05-08T13:00:37Z</time>
</trkpt>
<trkpt lat="49.341068202629685" lon="9.097537994384766">
<ele>132.8</ele>
<time>2024-05-08T13:00:39Z</time>
</trkpt>
<trkpt lat="49.34112545102835" lon="9.097531288862228">
<ele>132.8</ele>
<time>2024-05-08T13:00:41Z</time>
</trkpt>
<trkpt lat="49.34115596115589" lon="9.097531288862228">
<ele>132.8</ele>
<time>2024-05-08T13:00:42Z</time>
</trkpt>
<trkpt lat="49.34119795449078" lon="9.09752843901515">
<ele>132.8</ele>
<time>2024-05-08T13:00:43Z</time>
</trkpt>
<trkpt lat="49.3412627466023" lon="9.097533216699958">
<ele>132.8</ele>
<time>2024-05-08T13:00:45Z</time>
</trkpt>
<trkpt lat="49.341327622532845" lon="9.097555093467236">
<ele>132.8</ele>
<time>2024-05-08T13:00:47Z</time>
</trkpt>
<trkpt lat="49.34135813266039" lon="9.097564648836851">
<ele>132.8</ele>
<time>2024-05-08T13:00:48Z</time>
</trkpt>
<trkpt lat="49.34143826365471" lon="9.09758853726089">
<ele>133</ele>
<time>2024-05-08T13:00:50Z</time>
</trkpt>
<trkpt lat="49.34151839464903" lon="9.097613263875246">
<ele>133.2</ele>
<time>2024-05-08T13:00:51Z</time>
</trkpt>
<trkpt lat="49.34156030416489" lon="9.09762667492032">
<ele>133.2</ele>
<time>2024-05-08T13:00:52Z</time>
</trkpt>
<trkpt lat="49.341602297499776" lon="9.097636146470904">
<ele>133.2</ele>
<time>2024-05-08T13:00:53Z</time>
</trkpt>
<trkpt lat="49.341644207015634" lon="9.097648551687598">
<ele>133.4</ele>
<time>2024-05-08T13:00:54Z</time>
</trkpt>
<trkpt lat="49.34169005602598" lon="9.097661962732673">
<ele>133.4</ele>
<time>2024-05-08T13:00:56Z</time>
</trkpt>
<trkpt lat="49.34177773073315" lon="9.097686689347029">
<ele>133.4</ele>
<time>2024-05-08T13:00:58Z</time>
</trkpt>
<trkpt lat="49.341880744323134" lon="9.097715355455875">
<ele>133.6</ele>
<time>2024-05-08T13:00:59Z</time>
</trkpt>
<trkpt lat="49.34192650951445" lon="9.097728682681918">
<ele>133.6</ele>
<time>2024-05-08T13:01:00Z</time>
</trkpt>
<trkpt lat="49.34197227470577" lon="9.09774200990796">
<ele>133.6</ele>
<time>2024-05-08T13:01:01Z</time>
</trkpt>
<trkpt lat="49.34201426804066" lon="9.097755420953035">
<ele>133.6</ele>
<time>2024-05-08T13:01:03Z</time>
</trkpt>
<trkpt lat="49.342060033231974" lon="9.097769670188429">
<ele>133.6</ele>
<time>2024-05-08T13:01:04Z</time>
</trkpt>
<trkpt lat="49.34214779175818" lon="9.097794480621817">
<ele>133.6</ele>
<time>2024-05-08T13:01:06Z</time>
</trkpt>
<trkpt lat="49.34223932214081" lon="9.097814513370396">
<ele>133.6</ele>
<time>2024-05-08T13:01:07Z</time>
</trkpt>
<trkpt lat="49.34228508733213" lon="9.09782306291163">
<ele>133.6</ele>
<time>2024-05-08T13:01:09Z</time>
</trkpt>
<trkpt lat="49.342330852523446" lon="9.097833624109626">
<ele>133.6</ele>
<time>2024-05-08T13:01:10Z</time>
</trkpt>
<trkpt lat="49.342376701533794" lon="9.09784502349794">
<ele>133.6</ele>
<time>2024-05-08T13:01:11Z</time>
</trkpt>
<trkpt lat="49.34241861104965" lon="9.097856506705284">
<ele>133.6</ele>
<time>2024-05-08T13:01:12Z</time>
</trkpt>
<trkpt lat="49.34246437624097" lon="9.097866984084249">
<ele>133.6</ele>
<time>2024-05-08T13:01:13Z</time>
</trkpt>
<trkpt lat="49.342555990442634" lon="9.097887016832829">
<ele>133.6</ele>
<time>2024-05-08T13:01:15Z</time>
</trkpt>
<trkpt lat="49.34259789995849" lon="9.097896572202444">
<ele>133.6</ele>
<time>2024-05-08T13:01:16Z</time>
</trkpt>
<trkpt lat="49.34268951416016" lon="9.097918448969722">
<ele>133.6</ele>
<time>2024-05-08T13:01:18Z</time>
</trkpt>
<trkpt lat="49.3427734170109" lon="9.097940409556031">
<ele>133.6</ele>
<time>2024-05-08T13:01:20Z</time>
</trkpt>
<trkpt lat="49.34286494739354" lon="9.09796136431396">
<ele>133.6</ele>
<time>2024-05-08T13:01:21Z</time>
</trkpt>
<trkpt lat="49.342906940728426" lon="9.097971841692924">
<ele>133.6</ele>
<time>2024-05-08T13:01:22Z</time>
</trkpt>
<trkpt lat="49.34295270591974" lon="9.09798332490027">
<ele>133.6</ele>
<time>2024-05-08T13:01:24Z</time>
</trkpt>
<trkpt lat="49.343044236302376" lon="9.098006207495928">
<ele>133.6</ele>
<time>2024-05-08T13:01:26Z</time>
</trkpt>
<trkpt lat="49.34313962236047" lon="9.0980214625597">
<ele>133.6</ele>
<time>2024-05-08T13:01:27Z</time>
</trkpt>
<trkpt lat="49.343185387551785" lon="9.098028168082235">
<ele>133.4</ele>
<time>2024-05-08T13:01:28Z</time>
</trkpt>
<trkpt lat="49.3432311527431" lon="9.098038645461202">
<ele>133.4</ele>
<time>2024-05-08T13:01:30Z</time>
</trkpt>
<trkpt lat="49.34332653880119" lon="9.098056750372052">
<ele>133.4</ele>
<time>2024-05-08T13:01:32Z</time>
</trkpt>
<trkpt lat="49.343421924859285" lon="9.098074855282904">
<ele>133.4</ele>
<time>2024-05-08T13:01:33Z</time>
</trkpt>
<trkpt lat="49.34347146190703" lon="9.09808156080544">
<ele>133.4</ele>
<time>2024-05-08T13:01:35Z</time>
</trkpt>
<trkpt lat="49.34356684796512" lon="9.098096815869212">
<ele>133.4</ele>
<time>2024-05-08T13:01:36Z</time>
</trkpt>
<trkpt lat="49.3436164688319" lon="9.09810352139175">
<ele>133.4</ele>
<time>2024-05-08T13:01:38Z</time>
</trkpt>
<trkpt lat="49.343715626746416" lon="9.09811969846487">
<ele>133.4</ele>
<time>2024-05-08T13:01:39Z</time>
</trkpt>
<trkpt lat="49.34376524761319" lon="9.098130175843837">
<ele>133.4</ele>
<time>2024-05-08T13:01:41Z</time>
</trkpt>
<trkpt lat="49.343814784660935" lon="9.098138809204102">
<ele>133.6</ele>
<time>2024-05-08T13:01:42Z</time>
</trkpt>
<trkpt lat="49.34386440552771" lon="9.098143503069878">
<ele>133.8</ele>
<time>2024-05-08T13:01:43Z</time>
</trkpt>
<trkpt lat="49.343914026394486" lon="9.098150208592417">
<ele>133.8</ele>
<time>2024-05-08T13:01:44Z</time>
</trkpt>
<trkpt lat="49.34396356344223" lon="9.098154986277224">
<ele>134</ele>
<time>2024-05-08T13:01:45Z</time>
</trkpt>
<trkpt lat="49.34405894950032" lon="9.098166385665536">
<ele>134</ele>
<time>2024-05-08T13:01:46Z</time>
</trkpt>
<trkpt lat="49.3441085703671" lon="9.098173091188071">
<ele>134</ele>
<time>2024-05-08T13:01:47Z</time>
</trkpt>
<trkpt lat="49.34415810741484" lon="9.09818172454834">
<ele>134</ele>
<time>2024-05-08T13:01:49Z</time>
</trkpt>
<trkpt lat="49.34424972161651" lon="9.098204607143998">
<ele>133.8</ele>
<time>2024-05-08T13:01:50Z</time>
</trkpt>
<trkpt lat="49.34429925866425" lon="9.098215084522964">
<ele>133.8</ele>
<time>2024-05-08T13:01:51Z</time>
</trkpt>
<trkpt lat="49.34434502385557" lon="9.098226483911276">
<ele>133.8</ele>
<time>2024-05-08T13:01:52Z</time>
</trkpt>
<trkpt lat="49.34439464472234" lon="9.098230339586737">
<ele>133.8</ele>
<time>2024-05-08T13:01:54Z</time>
</trkpt>
<trkpt lat="49.34444040991366" lon="9.09823696129024">
<ele>133.8</ele>
<time>2024-05-08T13:01:55Z</time>
</trkpt>
<trkpt lat="49.344486175104976" lon="9.098248444497584">
<ele>133.8</ele>
<time>2024-05-08T13:01:56Z</time>
</trkpt>
<trkpt lat="49.344528168439865" lon="9.0982598438859">
<ele>133.8</ele>
<time>2024-05-08T13:01:57Z</time>
</trkpt>
<trkpt lat="49.34461592696607" lon="9.098284654319286">
<ele>133.8</ele>
<time>2024-05-08T13:01:59Z</time>
</trkpt>
<trkpt lat="49.34466169215739" lon="9.098291359841824">
<ele>133.6</ele>
<time>2024-05-08T13:02:00Z</time>
</trkpt>
<trkpt lat="49.34475322254002" lon="9.098301837220788">
<ele>133.6</ele>
<time>2024-05-08T13:02:01Z</time>
</trkpt>
<trkpt lat="49.34479521587491" lon="9.098310470581056">
<ele>133.6</ele>
<time>2024-05-08T13:02:02Z</time>
</trkpt>
<trkpt lat="49.34484098106623" lon="9.09831994213164">
<ele>133.6</ele>
<time>2024-05-08T13:02:03Z</time>
</trkpt>
<trkpt lat="49.344882890582085" lon="9.098329497501254">
<ele>133.6</ele>
<time>2024-05-08T13:02:05Z</time>
</trkpt>
<trkpt lat="49.344924883916974" lon="9.098338047042487">
<ele>133.6</ele>
<time>2024-05-08T13:02:06Z</time>
</trkpt>
<trkpt lat="49.34501264244318" lon="9.09835522994399">
<ele>133.6</ele>
<time>2024-05-08T13:02:08Z</time>
</trkpt>
<trkpt lat="49.34510417282581" lon="9.09837333485484">
<ele>133.6</ele>
<time>2024-05-08T13:02:10Z</time>
</trkpt>
<trkpt lat="49.34514993801713" lon="9.098382890224457">
<ele>133.6</ele>
<time>2024-05-08T13:02:11Z</time>
</trkpt>
<trkpt lat="49.34519193135202" lon="9.09839336760342">
<ele>133.6</ele>
<time>2024-05-08T13:02:12Z</time>
</trkpt>
<trkpt lat="49.34528346173465" lon="9.098411556333303">
<ele>133.6</ele>
<time>2024-05-08T13:02:14Z</time>
</trkpt>
<trkpt lat="49.34532922692597" lon="9.098420105874538">
<ele>133.6</ele>
<time>2024-05-08T13:02:15Z</time>
</trkpt>
<trkpt lat="49.34542461298406" lon="9.098424883559346">
<ele>133.6</ele>
<time>2024-05-08T13:02:17Z</time>
</trkpt>
<trkpt lat="49.34551237151027" lon="9.098428655415772">
<ele>133.6</ele>
<time>2024-05-08T13:02:18Z</time>
</trkpt>
<trkpt lat="49.345558136701584" lon="9.098424883559346">
<ele>133.6</ele>
<time>2024-05-08T13:02:20Z</time>
</trkpt>
<trkpt lat="49.34564966708422" lon="9.098409628495574">
<ele>133.6</ele>
<time>2024-05-08T13:02:22Z</time>
</trkpt>
<trkpt lat="49.34569928795099" lon="9.098400073125958">
<ele>133.6</ele>
<time>2024-05-08T13:02:23Z</time>
</trkpt>
<trkpt lat="49.34574505314231" lon="9.098391523584723">
<ele>133.6</ele>
<time>2024-05-08T13:02:24Z</time>
</trkpt>
<trkpt lat="49.34583658352494" lon="9.09837526269257">
<ele>133.6</ele>
<time>2024-05-08T13:02:25Z</time>
</trkpt>
<trkpt lat="49.34588234871626" lon="9.098364785313606">
<ele>133.6</ele>
<time>2024-05-08T13:02:26Z</time>
</trkpt>
<trkpt lat="49.345928113907576" lon="9.09835522994399">
<ele>133.6</ele>
<time>2024-05-08T13:02:27Z</time>
</trkpt>
<trkpt lat="49.345970107242465" lon="9.098342824727297">
<ele>133.6</ele>
<time>2024-05-08T13:02:28Z</time>
</trkpt>
<trkpt lat="49.34601587243378" lon="9.098333353176711">
<ele>133.6</ele>
<time>2024-05-08T13:02:29Z</time>
</trkpt>
<trkpt lat="49.3460616376251" lon="9.098322791978717">
<ele>133.6</ele>
<time>2024-05-08T13:02:30Z</time>
</trkpt>
<trkpt lat="49.346107402816415" lon="9.098313320428131">
<ele>133.6</ele>
<time>2024-05-08T13:02:31Z</time>
</trkpt>
<trkpt lat="49.346149396151304" lon="9.098301837220788">
<ele>133.6</ele>
<time>2024-05-08T13:02:32Z</time>
</trkpt>
<trkpt lat="49.34619516134262" lon="9.098290437832476">
<ele>133.6</ele>
<time>2024-05-08T13:02:34Z</time>
</trkpt>
<trkpt lat="49.34623715467751" lon="9.09827803261578">
<ele>133.6</ele>
<time>2024-05-08T13:02:35Z</time>
</trkpt>
<trkpt lat="49.34632868506014" lon="9.098250372335317">
<ele>133.6</ele>
<time>2024-05-08T13:02:37Z</time>
</trkpt>
<trkpt lat="49.34641644358635" lon="9.098228411749004">
<ele>133.6</ele>
<time>2024-05-08T13:02:39Z</time>
</trkpt>
<trkpt lat="49.346466064453125" lon="9.09821986220777">
<ele>133.6</ele>
<time>2024-05-08T13:02:40Z</time>
</trkpt>
<trkpt lat="49.34651182964444" lon="9.098210306838157">
<ele>133.6</ele>
<time>2024-05-08T13:02:41Z</time>
</trkpt>
<trkpt lat="49.34655759483576" lon="9.098201673477888">
<ele>133.6</ele>
<time>2024-05-08T13:02:42Z</time>
</trkpt>
<trkpt lat="49.34664912521839" lon="9.09818172454834">
<ele>133.6</ele>
<time>2024-05-08T13:02:43Z</time>
</trkpt>
<trkpt lat="49.34669489040971" lon="9.098168313503264">
<ele>133.8</ele>
<time>2024-05-08T13:02:44Z</time>
</trkpt>
<trkpt lat="49.3467368837446" lon="9.098154986277224">
<ele>133.8</ele>
<time>2024-05-08T13:02:45Z</time>
</trkpt>
<trkpt lat="49.346782648935914" lon="9.098143503069878">
<ele>133.8</ele>
<time>2024-05-08T13:02:47Z</time>
</trkpt>
<trkpt lat="49.34687417931855" lon="9.098125398159029">
<ele>134</ele>
<time>2024-05-08T13:02:49Z</time>
</trkpt>
<trkpt lat="49.346919944509864" lon="9.098118776455522">
<ele>133.8</ele>
<time>2024-05-08T13:02:50Z</time>
</trkpt>
<trkpt lat="49.34696570970118" lon="9.098112070932984">
<ele>133.8</ele>
<time>2024-05-08T13:02:51Z</time>
</trkpt>
<trkpt lat="49.34701155871153" lon="9.098106371238828">
<ele>133.8</ele>
<time>2024-05-08T13:02:52Z</time>
</trkpt>
<trkpt lat="49.3470992334187" lon="9.098092038184404">
<ele>133.8</ele>
<time>2024-05-08T13:02:53Z</time>
</trkpt>
<trkpt lat="49.34714499861002" lon="9.098086338490248">
<ele>133.8</ele>
<time>2024-05-08T13:02:55Z</time>
</trkpt>
<trkpt lat="49.34719084762037" lon="9.098085332661867">
<ele>133.8</ele>
<time>2024-05-08T13:02:56Z</time>
</trkpt>
<trkpt lat="49.34728614985943" lon="9.098092038184404">
<ele>133.6</ele>
<time>2024-05-08T13:02:57Z</time>
</trkpt>
<trkpt lat="49.34733199886978" lon="9.09809966571629">
<ele>133.6</ele>
<time>2024-05-08T13:02:59Z</time>
</trkpt>
<trkpt lat="49.34742730110884" lon="9.09811969846487">
<ele>133.4</ele>
<time>2024-05-08T13:03:00Z</time>
</trkpt>
<trkpt lat="49.347473066300154" lon="9.098133025690911">
<ele>133.4</ele>
<time>2024-05-08T13:03:02Z</time>
</trkpt>
<trkpt lat="49.3475189153105" lon="9.098148280754684">
<ele>133.4</ele>
<time>2024-05-08T13:03:03Z</time>
</trkpt>
<trkpt lat="49.34761421754956" lon="9.098175019025804">
<ele>133.4</ele>
<time>2024-05-08T13:03:04Z</time>
</trkpt>
<trkpt lat="49.34766383841634" lon="9.098190274089577">
<ele>133.4</ele>
<time>2024-05-08T13:03:06Z</time>
</trkpt>
<trkpt lat="49.34775922447443" lon="9.09821986220777">
<ele>133.4</ele>
<time>2024-05-08T13:03:07Z</time>
</trkpt>
<trkpt lat="49.34780498966575" lon="9.09823696129024">
<ele>133.4</ele>
<time>2024-05-08T13:03:08Z</time>
</trkpt>
<trkpt lat="49.34785075485706" lon="9.098253222182391">
<ele>133.4</ele>
<time>2024-05-08T13:03:09Z</time>
</trkpt>
<trkpt lat="49.34789652004838" lon="9.098268477246163">
<ele>133.4</ele>
<time>2024-05-08T13:03:10Z</time>
</trkpt>
<trkpt lat="49.34793851338327" lon="9.098283732309936">
<ele>133.4</ele>
<time>2024-05-08T13:03:11Z</time>
</trkpt>
<trkpt lat="49.347984278574586" lon="9.098301837220788">
<ele>133.4</ele>
<time>2024-05-08T13:03:12Z</time>
</trkpt>
<trkpt lat="49.3480300437659" lon="9.09831809811294">
<ele>133.4</ele>
<time>2024-05-08T13:03:14Z</time>
</trkpt>
<trkpt lat="49.34807580895722" lon="9.098333353176711">
<ele>133.2</ele>
<time>2024-05-08T13:03:15Z</time>
</trkpt>
<trkpt lat="49.348121574148536" lon="9.098349530249834">
<ele>133.2</ele>
<time>2024-05-08T13:03:16Z</time>
</trkpt>
<trkpt lat="49.34816733933985" lon="9.098366713151336">
<ele>133.2</ele>
<time>2024-05-08T13:03:17Z</time>
</trkpt>
<trkpt lat="49.348262725397944" lon="9.09839336760342">
<ele>133</ele>
<time>2024-05-08T13:03:18Z</time>
</trkpt>
<trkpt lat="49.34830849058926" lon="9.098409628495574">
<ele>132.8</ele>
<time>2024-05-08T13:03:19Z</time>
</trkpt>
<trkpt lat="49.34835433959961" lon="9.098426811397076">
<ele>132.8</ele>
<time>2024-05-08T13:03:21Z</time>
</trkpt>
<trkpt lat="49.348442014306784" lon="9.098468720912932">
<ele>132.8</ele>
<time>2024-05-08T13:03:22Z</time>
</trkpt>
<trkpt lat="49.34849163517356" lon="9.098486825823784">
<ele>132.8</ele>
<time>2024-05-08T13:03:23Z</time>
</trkpt>
<trkpt lat="49.34853740036488" lon="9.098511636257172">
<ele>132.8</ele>
<time>2024-05-08T13:03:24Z</time>
</trkpt>
<trkpt lat="49.34858316555619" lon="9.098538374528289">
<ele>133</ele>
<time>2024-05-08T13:03:26Z</time>
</trkpt>
<trkpt lat="49.34862515889108" lon="9.098569806665182">
<ele>133</ele>
<time>2024-05-08T13:03:27Z</time>
</trkpt>
<trkpt lat="49.34866706840694" lon="9.098607022315264">
<ele>133</ele>
<time>2024-05-08T13:03:28Z</time>
</trkpt>
<trkpt lat="49.34870906174183" lon="9.098647087812424">
<ele>133</ele>
<time>2024-05-08T13:03:29Z</time>
</trkpt>
<trkpt lat="49.34875105507672" lon="9.098690003156662">
<ele>133.2</ele>
<time>2024-05-08T13:03:30Z</time>
</trkpt>
<trkpt lat="49.348792964592576" lon="9.098736690357327">
<ele>133.2</ele>
<time>2024-05-08T13:03:31Z</time>
</trkpt>
<trkpt lat="49.348834957927465" lon="9.098786311224105">
<ele>133</ele>
<time>2024-05-08T13:03:32Z</time>
</trkpt>
<trkpt lat="49.348873095586896" lon="9.098834926262498">
<ele>133</ele>
<time>2024-05-08T13:03:33Z</time>
</trkpt>
<trkpt lat="49.34894559904933" lon="9.098933162167668">
<ele>132.8</ele>
<time>2024-05-08T13:03:35Z</time>
</trkpt>
<trkpt lat="49.34898373670876" lon="9.098979933187366">
<ele>132.8</ele>
<time>2024-05-08T13:03:36Z</time>
</trkpt>
<trkpt lat="49.34902187436819" lon="9.099026620388033">
<ele>132.6</ele>
<time>2024-05-08T13:03:37Z</time>
</trkpt>
<trkpt lat="49.34906001202762" lon="9.099073391407728">
<ele>132.6</ele>
<time>2024-05-08T13:03:38Z</time>
</trkpt>
<trkpt lat="49.34914014302194" lon="9.099160144105554">
<ele>132.4</ele>
<time>2024-05-08T13:03:40Z</time>
</trkpt>
<trkpt lat="49.34917828068137" lon="9.099201131612062">
<ele>132.4</ele>
<time>2024-05-08T13:03:41Z</time>
</trkpt>
<trkpt lat="49.3492164183408" lon="9.099238347262144">
<ele>132.4</ele>
<time>2024-05-08T13:03:42Z</time>
</trkpt>
<trkpt lat="49.34925841167569" lon="9.099271707236769">
<ele>132.4</ele>
<time>2024-05-08T13:03:43Z</time>
</trkpt>
<trkpt lat="49.34930417686701" lon="9.099300373345612">
<ele>132.6</ele>
<time>2024-05-08T13:03:44Z</time>
</trkpt>
<trkpt lat="49.349349942058325" lon="9.099321328103542">
<ele>132.6</ele>
<time>2024-05-08T13:03:45Z</time>
</trkpt>
<trkpt lat="49.3493995629251" lon="9.099333733320236">
<ele>132.6</ele>
<time>2024-05-08T13:03:46Z</time>
</trkpt>
<trkpt lat="49.34944909997285" lon="9.099334655329583">
<ele>132.4</ele>
<time>2024-05-08T13:03:47Z</time>
</trkpt>
<trkpt lat="49.349544486030936" lon="9.099329877644776">
<ele>132.4</ele>
<time>2024-05-08T13:03:49Z</time>
</trkpt>
<trkpt lat="49.34959025122225" lon="9.09932803362608">
<ele>132.4</ele>
<time>2024-05-08T13:03:50Z</time>
</trkpt>
<trkpt lat="49.34963601641357" lon="9.099323255941272">
<ele>132.4</ele>
<time>2024-05-08T13:03:51Z</time>
</trkpt>
<trkpt lat="49.349681781604886" lon="9.099313700571656">
<ele>132.4</ele>
<time>2024-05-08T13:03:52Z</time>
</trkpt>
<trkpt lat="49.349765768274665" lon="9.099276484921576">
<ele>132.6</ele>
<time>2024-05-08T13:03:53Z</time>
</trkpt>
<trkpt lat="49.34980005025864" lon="9.099251674488189">
<ele>132.6</ele>
<time>2024-05-08T13:03:55Z</time>
</trkpt>
<trkpt lat="49.34983056038618" lon="9.0992250200361">
<ele>132.6</ele>
<time>2024-05-08T13:03:56Z</time>
</trkpt>
<trkpt lat="49.349861070513725" lon="9.09920498728752">
<ele>132.8</ele>
<time>2024-05-08T13:03:57Z</time>
</trkpt>
<trkpt lat="49.34989158064127" lon="9.099216386675836">
<ele>132.8</ele>
<time>2024-05-08T13:03:58Z</time>
</trkpt>
<trkpt lat="49.349945057183504" lon="9.099274557083843">
<ele>132.8</ele>
<time>2024-05-08T13:03:59Z</time>
</trkpt>
<trkpt lat="49.34997933916747" lon="9.099311772733929">
<ele>132.8</ele>
<time>2024-05-08T13:04:01Z</time>
</trkpt>
<trkpt lat="49.35004798695445" lon="9.09938519820571">
<ele>132.6</ele>
<time>2024-05-08T13:04:03Z</time>
</trkpt>
<trkpt lat="49.35008620843291" lon="9.099418558180332">
<ele>132.6</ele>
<time>2024-05-08T13:04:04Z</time>
</trkpt>
<trkpt lat="49.35017011128366" lon="9.099468179047108">
<ele>132.6</ele>
<time>2024-05-08T13:04:05Z</time>
</trkpt>
<trkpt lat="49.35021202079952" lon="9.099488211795688">
<ele>132.6</ele>
<time>2024-05-08T13:04:07Z</time>
</trkpt>
<trkpt lat="49.35029977932573" lon="9.099516794085504">
<ele>132.4</ele>
<time>2024-05-08T13:04:09Z</time>
</trkpt>
<trkpt lat="49.35038368217647" lon="9.099532049149277">
<ele>132.4</ele>
<time>2024-05-08T13:04:11Z</time>
</trkpt>
<trkpt lat="49.35042953118682" lon="9.099533054977655">
<ele>132.2</ele>
<time>2024-05-08T13:04:12Z</time>
</trkpt>
<trkpt lat="49.350513434037566" lon="9.099530205130575">
<ele>132.2</ele>
<time>2024-05-08T13:04:13Z</time>
</trkpt>
<trkpt lat="49.350551571697" lon="9.099532049149277">
<ele>132.2</ele>
<time>2024-05-08T13:04:14Z</time>
</trkpt>
<trkpt lat="49.350593565031886" lon="9.099526349455118">
<ele>132.2</ele>
<time>2024-05-08T13:04:16Z</time>
</trkpt>
<trkpt lat="49.350635474547744" lon="9.099526349455118">
<ele>132</ele>
<time>2024-05-08T13:04:17Z</time>
</trkpt>
<trkpt lat="49.35072323307395" lon="9.099526349455118">
<ele>131.8</ele>
<time>2024-05-08T13:04:18Z</time>
</trkpt>
<trkpt lat="49.35076522640884" lon="9.09952157177031">
<ele>131.6</ele>
<time>2024-05-08T13:04:20Z</time>
</trkpt>
<trkpt lat="49.3508071359247" lon="9.099519727751613">
<ele>131.6</ele>
<time>2024-05-08T13:04:21Z</time>
</trkpt>
<trkpt lat="49.35085290111601" lon="9.09952157177031">
<ele>131.8</ele>
<time>2024-05-08T13:04:22Z</time>
</trkpt>
<trkpt lat="49.35092154890299" lon="9.099530205130575">
<ele>131.8</ele>
<time>2024-05-08T13:04:23Z</time>
</trkpt>
<trkpt lat="49.35095591470599" lon="9.099534982815385">
<ele>131.6</ele>
<time>2024-05-08T13:04:24Z</time>
</trkpt>
<trkpt lat="49.35099790804088" lon="9.099546382203698">
<ele>131.4</ele>
<time>2024-05-08T13:04:25Z</time>
</trkpt>
<trkpt lat="49.35103604570031" lon="9.099556859582664">
<ele>131.4</ele>
<time>2024-05-08T13:04:26Z</time>
</trkpt>
<trkpt lat="49.35107418335974" lon="9.099566414952278">
<ele>131.2</ele>
<time>2024-05-08T13:04:27Z</time>
</trkpt>
<trkpt lat="49.35111232101917" lon="9.099574964493511">
<ele>131.2</ele>
<time>2024-05-08T13:04:29Z</time>
</trkpt>
<trkpt lat="49.35115431435406" lon="9.099586447700858">
<ele>131.2</ele>
<time>2024-05-08T13:04:30Z</time>
</trkpt>
<trkpt lat="49.35119622386992" lon="9.099591225385666">
<ele>131.2</ele>
<time>2024-05-08T13:04:31Z</time>
</trkpt>
<trkpt lat="49.35127635486424" lon="9.099597930908203">
<ele>131.2</ele>
<time>2024-05-08T13:04:32Z</time>
</trkpt>
<trkpt lat="49.35131834819913" lon="9.099604552611709">
<ele>131.4</ele>
<time>2024-05-08T13:04:33Z</time>
</trkpt>
<trkpt lat="49.35135648585856" lon="9.099606480449438">
<ele>131.4</ele>
<time>2024-05-08T13:04:35Z</time>
</trkpt>
<trkpt lat="49.35143276117742" lon="9.099610252305864">
<ele>131.4</ele>
<time>2024-05-08T13:04:37Z</time>
</trkpt>
<trkpt lat="49.351505264639854" lon="9.099617879837751">
<ele>131.6</ele>
<time>2024-05-08T13:04:38Z</time>
</trkpt>
<trkpt lat="49.351539546623826" lon="9.099628441035748">
<ele>131.6</ele>
<time>2024-05-08T13:04:39Z</time>
</trkpt>
<trkpt lat="49.35157391242683" lon="9.099637912586331">
<ele>131.6</ele>
<time>2024-05-08T13:04:41Z</time>
</trkpt>
<trkpt lat="49.3516081944108" lon="9.099651323631406">
<ele>131.6</ele>
<time>2024-05-08T13:04:42Z</time>
</trkpt>
<trkpt lat="49.35164256021381" lon="9.09966180101037">
<ele>131.6</ele>
<time>2024-05-08T13:04:43Z</time>
</trkpt>
<trkpt lat="49.351680697873235" lon="9.099670350551603">
<ele>131.6</ele>
<time>2024-05-08T13:04:44Z</time>
</trkpt>
<trkpt lat="49.35171506367624" lon="9.099671356379986">
<ele>131.6</ele>
<time>2024-05-08T13:04:45Z</time>
</trkpt>
<trkpt lat="49.35178371146321" lon="9.099650317803023">
<ele>131.8</ele>
<time>2024-05-08T13:04:47Z</time>
</trkpt>
<trkpt lat="49.35180659405887" lon="9.099616957828404">
<ele>131.6</ele>
<time>2024-05-08T13:04:48Z</time>
</trkpt>
<trkpt lat="49.35183333232999" lon="9.09958359785378">
<ele>131.6</ele>
<time>2024-05-08T13:04:49Z</time>
</trkpt>
<trkpt lat="49.35185621492565" lon="9.09954353235662">
<ele>131.4</ele>
<time>2024-05-08T13:04:50Z</time>
</trkpt>
<trkpt lat="49.35188672505319" lon="9.099450074136255">
<ele>131.2</ele>
<time>2024-05-08T13:04:52Z</time>
</trkpt>
<trkpt lat="49.35189049690962" lon="9.099391903728248">
<ele>131.2</ele>
<time>2024-05-08T13:04:53Z</time>
</trkpt>
<trkpt lat="49.351898124441504" lon="9.099331805482509">
<ele>131.2</ele>
<time>2024-05-08T13:04:54Z</time>
</trkpt>
<trkpt lat="49.35191337950528" lon="9.099216386675836">
<ele>131.4</ele>
<time>2024-05-08T13:04:55Z</time>
</trkpt>
<trkpt lat="49.35192100703716" lon="9.099158216267824">
<ele>131.4</ele>
<time>2024-05-08T13:04:56Z</time>
</trkpt>
<trkpt lat="49.35192486271262" lon="9.099100045859814">
<ele>131.4</ele>
<time>2024-05-08T13:04:58Z</time>
</trkpt>
<trkpt lat="49.351940117776394" lon="9.098981777206063">
<ele>131.6</ele>
<time>2024-05-08T13:05:00Z</time>
</trkpt>
<trkpt lat="49.35194388963282" lon="9.098921762779357">
<ele>131.6</ele>
<time>2024-05-08T13:05:01Z</time>
</trkpt>
<trkpt lat="49.351955372840166" lon="9.098796788603067">
<ele>132</ele>
<time>2024-05-08T13:05:02Z</time>
</trkpt>
<trkpt lat="49.35196300037205" lon="9.0987329185009">
<ele>132</ele>
<time>2024-05-08T13:05:03Z</time>
</trkpt>
<trkpt lat="49.35196685604751" lon="9.098671898245811">
<ele>132.2</ele>
<time>2024-05-08T13:05:05Z</time>
</trkpt>
<trkpt lat="49.351978255435824" lon="9.098540302366018">
<ele>132.4</ele>
<time>2024-05-08T13:05:07Z</time>
</trkpt>
<trkpt lat="49.35198211111128" lon="9.098471570760012">
<ele>132.4</ele>
<time>2024-05-08T13:05:08Z</time>
</trkpt>
<trkpt lat="49.35198588296771" lon="9.098338047042487">
<ele>132.6</ele>
<time>2024-05-08T13:05:10Z</time>
</trkpt>
<trkpt lat="49.35198973864317" lon="9.098273254930971">
<ele>132.6</ele>
<time>2024-05-08T13:05:11Z</time>
</trkpt>
<trkpt lat="49.3519935104996" lon="9.098208379000424">
<ele>132.6</ele>
<time>2024-05-08T13:05:12Z</time>
</trkpt>
<trkpt lat="49.35200113803148" lon="9.09813973121345">
<ele>132.8</ele>
<time>2024-05-08T13:05:13Z</time>
</trkpt>
<trkpt lat="49.35200499370694" lon="9.09800142981112">
<ele>132.8</ele>
<time>2024-05-08T13:05:15Z</time>
</trkpt>
<trkpt lat="49.35200499370694" lon="9.097934709861876">
<ele>132.8</ele>
<time>2024-05-08T13:05:16Z</time>
</trkpt>
<trkpt lat="49.35200499370694" lon="9.097867906093596">
<ele>132.8</ele>
<time>2024-05-08T13:05:17Z</time>
</trkpt>
<trkpt lat="49.35200499370694" lon="9.09780311398208">
<ele>132.8</ele>
<time>2024-05-08T13:05:18Z</time>
</trkpt>
<trkpt lat="49.351997366175056" lon="9.09774200990796">
<ele>132.8</ele>
<time>2024-05-08T13:05:19Z</time>
</trkpt>
<trkpt lat="49.3519935104996" lon="9.097678139805794">
<ele>132.8</ele>
<time>2024-05-08T13:05:20Z</time>
</trkpt>
<trkpt lat="49.35198973864317" lon="9.097615191712976">
<ele>132.8</ele>
<time>2024-05-08T13:05:21Z</time>
</trkpt>
<trkpt lat="49.35198211111128" lon="9.097550315782428">
<ele>132.8</ele>
<time>2024-05-08T13:05:22Z</time>
</trkpt>
<trkpt lat="49.3519744835794" lon="9.09748644568026">
<ele>132.8</ele>
<time>2024-05-08T13:05:23Z</time>
</trkpt>
<trkpt lat="49.35196300037205" lon="9.097419725731015">
<ele>132.8</ele>
<time>2024-05-08T13:05:24Z</time>
</trkpt>
<trkpt lat="49.351940117776394" lon="9.09728997386992">
<ele>132.8</ele>
<time>2024-05-08T13:05:26Z</time>
</trkpt>
<trkpt lat="49.35192486271262" lon="9.09722987562418">
<ele>132.8</ele>
<time>2024-05-08T13:05:27Z</time>
</trkpt>
<trkpt lat="49.35189435258508" lon="9.09711353480816">
<ele>132.8</ele>
<time>2024-05-08T13:05:29Z</time>
</trkpt>
<trkpt lat="49.35188286937773" lon="9.097055364400148">
<ele>132.8</ele>
<time>2024-05-08T13:05:30Z</time>
</trkpt>
<trkpt lat="49.35185235925019" lon="9.096941873431206">
<ele>132.6</ele>
<time>2024-05-08T13:05:32Z</time>
</trkpt>
<trkpt lat="49.35182184912264" lon="9.09683701582253">
<ele>132.6</ele>
<time>2024-05-08T13:05:34Z</time>
</trkpt>
<trkpt lat="49.35178756713867" lon="9.09673785790801">
<ele>132.6</ele>
<time>2024-05-08T13:05:35Z</time>
</trkpt>
<trkpt lat="49.35177222825587" lon="9.096692008897662">
<ele>132.6</ele>
<time>2024-05-08T13:05:37Z</time>
</trkpt>
<trkpt lat="49.35175320133567" lon="9.0965985506773">
<ele>132.6</ele>
<time>2024-05-08T13:05:39Z</time>
</trkpt>
<trkpt lat="49.35174934566021" lon="9.096553791314363">
<ele>132.6</ele>
<time>2024-05-08T13:05:40Z</time>
</trkpt>
<trkpt lat="49.35175320133567" lon="9.09650324843824">
<ele>132.6</ele>
<time>2024-05-08T13:05:41Z</time>
</trkpt>
<trkpt lat="49.351779855787754" lon="9.096431666985154">
<ele>132.8</ele>
<time>2024-05-08T13:05:42Z</time>
</trkpt>
<trkpt lat="49.35179519467056" lon="9.096407862380149">
<ele>132.8</ele>
<time>2024-05-08T13:05:44Z</time>
</trkpt>
<trkpt lat="49.351818077266216" lon="9.096409790217876">
<ele>133</ele>
<time>2024-05-08T13:05:45Z</time>
</trkpt>
<trkpt lat="49.35185235925019" lon="9.096413562074304">
<ele>133.2</ele>
<time>2024-05-08T13:05:46Z</time>
</trkpt>
<trkpt lat="49.35187146998942" lon="9.096425045281649">
<ele>133.2</ele>
<time>2024-05-08T13:05:48Z</time>
</trkpt>
<trkpt lat="49.35188286937773" lon="9.09644030034542">
<ele>133.2</ele>
<time>2024-05-08T13:05:49Z</time>
</trkpt>
<trkpt lat="49.35189435258508" lon="9.09648036584258">
<ele>133.4</ele>
<time>2024-05-08T13:05:51Z</time>
</trkpt>
<trkpt lat="49.351898124441504" lon="9.096496542915702">
<ele>133.2</ele>
<time>2024-05-08T13:05:52Z</time>
</trkpt>
<trkpt lat="49.351898124441504" lon="9.096498470753431">
<ele>133.2</ele>
<time>2024-05-08T13:05:54Z</time>
</trkpt>
<trkpt lat="49.35190198011696" lon="9.09650132060051">
<ele>133.2</ele>
<time>2024-05-08T13:05:55Z</time>
</trkpt>
<trkpt lat="49.35190960764885" lon="9.096514647826552">
<ele>133</ele>
<time>2024-05-08T13:05:57Z</time>
</trkpt>
<trkpt lat="49.35191337950528" lon="9.096549935638905">
<ele>132.8</ele>
<time>2024-05-08T13:05:58Z</time>
</trkpt>
<trkpt lat="49.35192863456905" lon="9.096576673910022">
<ele>132.8</ele>
<time>2024-05-08T13:06:00Z</time>
</trkpt>
<trkpt lat="49.35193249024451" lon="9.096614811569452">
<ele>132.6</ele>
<time>2024-05-08T13:06:01Z</time>
</trkpt>
<trkpt lat="49.351936262100935" lon="9.09665965475142">
<ele>132.6</ele>
<time>2024-05-08T13:06:02Z</time>
</trkpt>
<trkpt lat="49.35194388963282" lon="9.09675688482821">
<ele>132.8</ele>
<time>2024-05-08T13:06:04Z</time>
</trkpt>
<trkpt lat="49.35195151716471" lon="9.09685704857111">
<ele>133</ele>
<time>2024-05-08T13:06:06Z</time>
</trkpt>
<trkpt lat="49.351955372840166" lon="9.096908513456585">
<ele>133</ele>
<time>2024-05-08T13:06:07Z</time>
</trkpt>
<trkpt lat="49.35196685604751" lon="9.096956206485627">
<ele>133.2</ele>
<time>2024-05-08T13:06:08Z</time>
</trkpt>
<trkpt lat="49.351978255435824" lon="9.097004821524024">
<ele>133.2</ele>
<time>2024-05-08T13:06:09Z</time>
</trkpt>
<trkpt lat="49.351997366175056" lon="9.097106913104652">
<ele>133.4</ele>
<time>2024-05-08T13:06:11Z</time>
</trkpt>
<trkpt lat="49.35200499370694" lon="9.0971546061337">
<ele>133.4</ele>
<time>2024-05-08T13:06:12Z</time>
</trkpt>
<trkpt lat="49.352016393095255" lon="9.097203221172094">
<ele>133.4</ele>
<time>2024-05-08T13:06:13Z</time>
</trkpt>
<trkpt lat="49.3520278763026" lon="9.09725183621049">
<ele>133.6</ele>
<time>2024-05-08T13:06:14Z</time>
</trkpt>
<trkpt lat="49.35203927569091" lon="9.097296679392455">
<ele>133.6</ele>
<time>2024-05-08T13:06:15Z</time>
</trkpt>
<trkpt lat="49.35206215828657" lon="9.097392987459898">
<ele>133.6</ele>
<time>2024-05-08T13:06:17Z</time>
</trkpt>
<trkpt lat="49.35207364149392" lon="9.097444452345371">
<ele>133.6</ele>
<time>2024-05-08T13:06:18Z</time>
</trkpt>
<trkpt lat="49.35208504088223" lon="9.097491223365068">
<ele>133.8</ele>
<time>2024-05-08T13:06:19Z</time>
</trkpt>
<trkpt lat="49.35209266841411" lon="9.097541766241193">
<ele>133.8</ele>
<time>2024-05-08T13:06:20Z</time>
</trkpt>
<trkpt lat="49.352100295946" lon="9.097591387107968">
<ele>134</ele>
<time>2024-05-08T13:06:21Z</time>
</trkpt>
<trkpt lat="49.35210415162146" lon="9.097644779831173">
<ele>134.2</ele>
<time>2024-05-08T13:06:22Z</time>
</trkpt>
<trkpt lat="49.35211177915335" lon="9.097698172554374">
<ele>134.4</ele>
<time>2024-05-08T13:06:23Z</time>
</trkpt>
<trkpt lat="49.35211940668523" lon="9.097806885838509">
<ele>134.6</ele>
<time>2024-05-08T13:06:25Z</time>
</trkpt>
<trkpt lat="49.35213088989258" lon="9.097911827266216">
<ele>135.2</ele>
<time>2024-05-08T13:06:27Z</time>
</trkpt>
<trkpt lat="49.35213088989258" lon="9.097966141998768">
<ele>135.4</ele>
<time>2024-05-08T13:06:28Z</time>
</trkpt>
<trkpt lat="49.352138517424464" lon="9.098018612712622">
<ele>135.6</ele>
<time>2024-05-08T13:06:29Z</time>
</trkpt>
<trkpt lat="49.352138517424464" lon="9.098072005435824">
<ele>135.8</ele>
<time>2024-05-08T13:06:30Z</time>
</trkpt>
<trkpt lat="49.35214614495635" lon="9.098126403987408">
<ele>136</ele>
<time>2024-05-08T13:06:31Z</time>
</trkpt>
<trkpt lat="49.35214991681278" lon="9.09817979671061">
<ele>136</ele>
<time>2024-05-08T13:06:32Z</time>
</trkpt>
<trkpt lat="49.35214991681278" lon="9.098235117271544">
<ele>136.2</ele>
<time>2024-05-08T13:06:33Z</time>
</trkpt>
<trkpt lat="49.352157544344664" lon="9.098344752565026">
<ele>136.4</ele>
<time>2024-05-08T13:06:34Z</time>
</trkpt>
<trkpt lat="49.35216140002012" lon="9.098402922973037">
<ele>136.6</ele>
<time>2024-05-08T13:06:35Z</time>
</trkpt>
<trkpt lat="49.35216517187655" lon="9.098460171371698">
<ele>136.8</ele>
<time>2024-05-08T13:06:36Z</time>
</trkpt>
<trkpt lat="49.35216517187655" lon="9.09851641394198">
<ele>136.8</ele>
<time>2024-05-08T13:06:38Z</time>
</trkpt>
<trkpt lat="49.35216902755201" lon="9.098571734502912">
<ele>137</ele>
<time>2024-05-08T13:06:39Z</time>
</trkpt>
<trkpt lat="49.35216902755201" lon="9.098685225471854">
<ele>137.4</ele>
<time>2024-05-08T13:06:40Z</time>
</trkpt>
<trkpt lat="49.35217279940843" lon="9.098741468042135">
<ele>137.4</ele>
<time>2024-05-08T13:06:41Z</time>
</trkpt>
<trkpt lat="49.35217279940843" lon="9.098798716440797">
<ele>137.6</ele>
<time>2024-05-08T13:06:43Z</time>
</trkpt>
<trkpt lat="49.35217279940843" lon="9.09890835173428">
<ele>137.8</ele>
<time>2024-05-08T13:06:44Z</time>
</trkpt>
<trkpt lat="49.35217279940843" lon="9.098964678123592">
<ele>138</ele>
<time>2024-05-08T13:06:45Z</time>
</trkpt>
<trkpt lat="49.35217279940843" lon="9.099019998684524">
<ele>138.2</ele>
<time>2024-05-08T13:06:46Z</time>
</trkpt>
<trkpt lat="49.35217279940843" lon="9.099075235426426">
<ele>138.2</ele>
<time>2024-05-08T13:06:48Z</time>
</trkpt>
<trkpt lat="49.35216902755201" lon="9.09913156181574">
<ele>138.4</ele>
<time>2024-05-08T13:06:49Z</time>
</trkpt>
<trkpt lat="49.35216902755201" lon="9.099188726395369">
<ele>138.6</ele>
<time>2024-05-08T13:06:50Z</time>
</trkpt>
<trkpt lat="49.35216517187655" lon="9.099243124946952">
<ele>138.8</ele>
<time>2024-05-08T13:06:51Z</time>
</trkpt>
<trkpt lat="49.35216140002012" lon="9.099301295354962">
<ele>139</ele>
<time>2024-05-08T13:06:52Z</time>
</trkpt>
<trkpt lat="49.352157544344664" lon="9.099358543753624">
<ele>139.2</ele>
<time>2024-05-08T13:06:53Z</time>
</trkpt>
<trkpt lat="49.35215377248824" lon="9.099472956731915">
<ele>139.4</ele>
<time>2024-05-08T13:06:54Z</time>
</trkpt>
<trkpt lat="49.35214991681278" lon="9.099528277292848">
<ele>139.6</ele>
<time>2024-05-08T13:06:55Z</time>
</trkpt>
<trkpt lat="49.35214991681278" lon="9.09958359785378">
<ele>139.6</ele>
<time>2024-05-08T13:06:57Z</time>
</trkpt>
<trkpt lat="49.35214614495635" lon="9.099637912586331">
<ele>139.8</ele>
<time>2024-05-08T13:06:58Z</time>
</trkpt>
<trkpt lat="49.352138517424464" lon="9.099751403555274">
<ele>140</ele>
<time>2024-05-08T13:06:59Z</time>
</trkpt>
<trkpt lat="49.352138517424464" lon="9.099808651953936">
<ele>140.2</ele>
<time>2024-05-08T13:07:00Z</time>
</trkpt>
<trkpt lat="49.352134661749005" lon="9.099862044677138">
<ele>140.2</ele>
<time>2024-05-08T13:07:01Z</time>
</trkpt>
<trkpt lat="49.35213088989258" lon="9.099916443228722">
<ele>140.4</ele>
<time>2024-05-08T13:07:03Z</time>
</trkpt>
<trkpt lat="49.35212317854166" lon="9.100029934197664">
<ele>140.8</ele>
<time>2024-05-08T13:07:05Z</time>
</trkpt>
<trkpt lat="49.352115551009774" lon="9.100141497328876">
<ele>141</ele>
<time>2024-05-08T13:07:06Z</time>
</trkpt>
<trkpt lat="49.35211177915335" lon="9.10019874572754">
<ele>141.2</ele>
<time>2024-05-08T13:07:08Z</time>
</trkpt>
<trkpt lat="49.35210792347789" lon="9.100257838144898">
<ele>141.4</ele>
<time>2024-05-08T13:07:09Z</time>
</trkpt>
<trkpt lat="49.352100295946" lon="9.100378034636378">
<ele>141.6</ele>
<time>2024-05-08T13:07:10Z</time>
</trkpt>
<trkpt lat="49.352096524089575" lon="9.100438049063088">
<ele>141.8</ele>
<time>2024-05-08T13:07:11Z</time>
</trkpt>
<trkpt lat="49.35208889655769" lon="9.100500075146556">
<ele>142</ele>
<time>2024-05-08T13:07:13Z</time>
</trkpt>
<trkpt lat="49.3520812690258" lon="9.100621193647385">
<ele>142.4</ele>
<time>2024-05-08T13:07:14Z</time>
</trkpt>
<trkpt lat="49.35207364149392" lon="9.100683135911822">
<ele>142.4</ele>
<time>2024-05-08T13:07:16Z</time>
</trkpt>
<trkpt lat="49.35206215828657" lon="9.100805260241032">
<ele>142.4</ele>
<time>2024-05-08T13:07:18Z</time>
</trkpt>
<trkpt lat="49.35205075889826" lon="9.100933000445366">
<ele>142.4</ele>
<time>2024-05-08T13:07:19Z</time>
</trkpt>
<trkpt lat="49.35204313136637" lon="9.100997876375914">
<ele>142.2</ele>
<time>2024-05-08T13:07:20Z</time>
</trkpt>
<trkpt lat="49.35203927569091" lon="9.10106468014419">
<ele>142.2</ele>
<time>2024-05-08T13:07:22Z</time>
</trkpt>
<trkpt lat="49.35203164815903" lon="9.101129472255709">
<ele>142.4</ele>
<time>2024-05-08T13:07:23Z</time>
</trkpt>
<trkpt lat="49.352016393095255" lon="9.10126207396388">
<ele>142.4</ele>
<time>2024-05-08T13:07:25Z</time>
</trkpt>
<trkpt lat="49.35201262123883" lon="9.101326866075397">
<ele>142.4</ele>
<time>2024-05-08T13:07:26Z</time>
</trkpt>
<trkpt lat="49.35200499370694" lon="9.101391742005944">
<ele>142.6</ele>
<time>2024-05-08T13:07:27Z</time>
</trkpt>
<trkpt lat="49.35200113803148" lon="9.101456617936492">
<ele>142.6</ele>
<time>2024-05-08T13:07:28Z</time>
</trkpt>
<trkpt lat="49.35198973864317" lon="9.101590141654016">
<ele>142.6</ele>
<time>2024-05-08T13:07:30Z</time>
</trkpt>
<trkpt lat="49.3519744835794" lon="9.101719809696078">
<ele>142.6</ele>
<time>2024-05-08T13:07:31Z</time>
</trkpt>
<trkpt lat="49.35196685604751" lon="9.101784685626626">
<ele>142.6</ele>
<time>2024-05-08T13:07:32Z</time>
</trkpt>
<trkpt lat="49.35196300037205" lon="9.101849477738142">
<ele>142.8</ele>
<time>2024-05-08T13:07:33Z</time>
</trkpt>
<trkpt lat="49.351955372840166" lon="9.10191535949707">
<ele>142.8</ele>
<time>2024-05-08T13:07:35Z</time>
</trkpt>
<trkpt lat="49.35194774530828" lon="9.101982079446316">
<ele>142.8</ele>
<time>2024-05-08T13:07:36Z</time>
</trkpt>
<trkpt lat="49.35193249024451" lon="9.102116525173187">
<ele>142.6</ele>
<time>2024-05-08T13:07:37Z</time>
</trkpt>
<trkpt lat="49.35192486271262" lon="9.102185172960162">
<ele>142.6</ele>
<time>2024-05-08T13:07:39Z</time>
</trkpt>
<trkpt lat="49.351917235180736" lon="9.102254826575518">
<ele>142.6</ele>
<time>2024-05-08T13:07:40Z</time>
</trkpt>
<trkpt lat="49.351898124441504" lon="9.102396899834275">
<ele>142.4</ele>
<time>2024-05-08T13:07:41Z</time>
</trkpt>
<trkpt lat="49.35189049690962" lon="9.10246848128736">
<ele>142.4</ele>
<time>2024-05-08T13:07:42Z</time>
</trkpt>
<trkpt lat="49.351879097521305" lon="9.102542828768492">
<ele>142.4</ele>
<time>2024-05-08T13:07:43Z</time>
</trkpt>
<trkpt lat="49.35187146998942" lon="9.102615332230926">
<ele>142.2</ele>
<time>2024-05-08T13:07:44Z</time>
</trkpt>
<trkpt lat="49.35186384245753" lon="9.10268682986498">
<ele>142.2</ele>
<time>2024-05-08T13:07:46Z</time>
</trkpt>
<trkpt lat="49.351859986782074" lon="9.102753633633256">
<ele>142</ele>
<time>2024-05-08T13:07:47Z</time>
</trkpt>
<trkpt lat="49.3518447317183" lon="9.10286326892674">
<ele>141.8</ele>
<time>2024-05-08T13:07:48Z</time>
</trkpt>
<trkpt lat="49.35183333232999" lon="9.102912889793515">
<ele>141.6</ele>
<time>2024-05-08T13:07:50Z</time>
</trkpt>
<trkpt lat="49.35182184912264" lon="9.103012969717383">
<ele>141.2</ele>
<time>2024-05-08T13:07:51Z</time>
</trkpt>
<trkpt lat="49.35181422159076" lon="9.103068290278316">
<ele>141</ele>
<time>2024-05-08T13:07:52Z</time>
</trkpt>
<trkpt lat="49.35180659405887" lon="9.103126460686326">
<ele>140.8</ele>
<time>2024-05-08T13:07:54Z</time>
</trkpt>
<trkpt lat="49.35180282220245" lon="9.103190414607525">
<ele>140.6</ele>
<time>2024-05-08T13:07:55Z</time>
</trkpt>
<trkpt lat="49.35178756713867" lon="9.103320082649589">
<ele>140.2</ele>
<time>2024-05-08T13:07:56Z</time>
</trkpt>
<trkpt lat="49.35177608393133" lon="9.103384958580136">
<ele>140</ele>
<time>2024-05-08T13:07:57Z</time>
</trkpt>
<trkpt lat="49.35176845639944" lon="9.103446900844574">
<ele>139.8</ele>
<time>2024-05-08T13:07:59Z</time>
</trkpt>
<trkpt lat="49.35175320133567" lon="9.10357472486794">
<ele>139.4</ele>
<time>2024-05-08T13:08:01Z</time>
</trkpt>
<trkpt lat="49.35174557380378" lon="9.103638594970109">
<ele>139.2</ele>
<time>2024-05-08T13:08:02Z</time>
</trkpt>
<trkpt lat="49.351737946271896" lon="9.103701543062924">
<ele>139</ele>
<time>2024-05-08T13:08:03Z</time>
</trkpt>
<trkpt lat="49.35172646306455" lon="9.103763569146397">
<ele>138.8</ele>
<time>2024-05-08T13:08:04Z</time>
</trkpt>
<trkpt lat="49.351718835532665" lon="9.103824589401484">
<ele>138.8</ele>
<time>2024-05-08T13:08:05Z</time>
</trkpt>
<trkpt lat="49.35169595293701" lon="9.104011505842209">
<ele>138.6</ele>
<time>2024-05-08T13:08:08Z</time>
</trkpt>
<trkpt lat="49.35168832540512" lon="9.10406682640314">
<ele>138.6</ele>
<time>2024-05-08T13:08:09Z</time>
</trkpt>
<trkpt lat="49.35166929848492" lon="9.104174533858895">
<ele>138.4</ele>
<time>2024-05-08T13:08:11Z</time>
</trkpt>
<trkpt lat="49.351661670953035" lon="9.10422801040113">
<ele>138.2</ele>
<time>2024-05-08T13:08:12Z</time>
</trkpt>
<trkpt lat="49.35164256021381" lon="9.104339573532345">
<ele>137.8</ele>
<time>2024-05-08T13:08:13Z</time>
</trkpt>
<trkpt lat="49.35163493268192" lon="9.104396738111973">
<ele>137.4</ele>
<time>2024-05-08T13:08:14Z</time>
</trkpt>
<trkpt lat="49.351623533293605" lon="9.104453064501286">
<ele>137.2</ele>
<time>2024-05-08T13:08:15Z</time>
</trkpt>
<trkpt lat="49.35161590576172" lon="9.104508385062218">
<ele>137</ele>
<time>2024-05-08T13:08:17Z</time>
</trkpt>
<trkpt lat="49.351604422554374" lon="9.104557922109962">
<ele>136.8</ele>
<time>2024-05-08T13:08:18Z</time>
</trkpt>
<trkpt lat="49.3515891674906" lon="9.10460184328258">
<ele>136.6</ele>
<time>2024-05-08T13:08:19Z</time>
</trkpt>
<trkpt lat="49.3515548016876" lon="9.104681890457869">
<ele>136.2</ele>
<time>2024-05-08T13:08:21Z</time>
</trkpt>
<trkpt lat="49.35151289217174" lon="9.104756321758032">
<ele>135.8</ele>
<time>2024-05-08T13:08:23Z</time>
</trkpt>
<trkpt lat="49.351463271304965" lon="9.104823041707276">
<ele>135.6</ele>
<time>2024-05-08T13:08:25Z</time>
</trkpt>
<trkpt lat="49.35140987858176" lon="9.104861179366708">
<ele>135.4</ele>
<time>2024-05-08T13:08:26Z</time>
</trkpt>
<trkpt lat="49.351383140310645" lon="9.104876518249512">
<ele>135.4</ele>
<time>2024-05-08T13:08:27Z</time>
</trkpt>
<trkpt lat="49.3513526301831" lon="9.104893617331982">
<ele>135.2</ele>
<time>2024-05-08T13:08:29Z</time>
</trkpt>
<trkpt lat="49.351325975731015" lon="9.104903172701595">
<ele>135.2</ele>
<time>2024-05-08T13:08:30Z</time>
</trkpt>
<trkpt lat="49.35127635486424" lon="9.104909878224134">
<ele>135.4</ele>
<time>2024-05-08T13:08:31Z</time>
</trkpt>
<trkpt lat="49.35126109980047" lon="9.104913650080562">
<ele>135.4</ele>
<time>2024-05-08T13:08:32Z</time>
</trkpt>
<trkpt lat="49.35123821720481" lon="9.104913650080562">
<ele>135.2</ele>
<time>2024-05-08T13:08:33Z</time>
</trkpt>
<trkpt lat="49.35122296214104" lon="9.104914655908942">
<ele>135.2</ele>
<time>2024-05-08T13:08:35Z</time>
</trkpt>
<trkpt lat="49.35119622386992" lon="9.104907950386403">
<ele>135.2</ele>
<time>2024-05-08T13:08:36Z</time>
</trkpt>
<trkpt lat="49.35119245201349" lon="9.104907950386403">
<ele>135.2</ele>
<time>2024-05-08T13:08:38Z</time>
</trkpt>
<trkpt lat="49.35119245201349" lon="9.104905100539328">
<ele>134.8</ele>
<time>2024-05-08T13:08:40Z</time>
</trkpt>
<trkpt lat="49.35119245201349" lon="9.104887917637823">
<ele>134.8</ele>
<time>2024-05-08T13:08:41Z</time>
</trkpt>
<trkpt lat="49.35119245201349" lon="9.104869812726974">
<ele>134.6</ele>
<time>2024-05-08T13:08:43Z</time>
</trkpt>
<trkpt lat="49.35121910646558" lon="9.104861179366708">
<ele>134.4</ele>
<time>2024-05-08T13:08:45Z</time>
</trkpt>
<trkpt lat="49.35125347226858" lon="9.104849779978396">
<ele>134.2</ele>
<time>2024-05-08T13:08:46Z</time>
</trkpt>
<trkpt lat="49.3512802105397" lon="9.10484123043716">
<ele>134.2</ele>
<time>2024-05-08T13:08:47Z</time>
</trkpt>
<trkpt lat="49.35130309313536" lon="9.104833602905272">
<ele>134.2</ele>
<time>2024-05-08T13:08:49Z</time>
</trkpt>
<trkpt lat="49.35132974758744" lon="9.10482119768858">
<ele>134.2</ele>
<time>2024-05-08T13:08:50Z</time>
</trkpt>
<trkpt lat="49.35136788524687" lon="9.104791609570384">
<ele>134</ele>
<time>2024-05-08T13:08:51Z</time>
</trkpt>
<trkpt lat="49.351386995986104" lon="9.104771576821804">
<ele>134</ele>
<time>2024-05-08T13:08:53Z</time>
</trkpt>
<trkpt lat="49.35140987858176" lon="9.104751544073224">
<ele>133.8</ele>
<time>2024-05-08T13:08:54Z</time>
</trkpt>
<trkpt lat="49.35144801624119" lon="9.104715334251525">
<ele>133.6</ele>
<time>2024-05-08T13:08:56Z</time>
</trkpt>
<trkpt lat="49.351463271304965" lon="9.104691445827484">
<ele>133.6</ele>
<time>2024-05-08T13:08:57Z</time>
</trkpt>
<trkpt lat="49.35147852636874" lon="9.10466286353767">
<ele>133.6</ele>
<time>2024-05-08T13:08:58Z</time>
</trkpt>
<trkpt lat="49.35149378143251" lon="9.104628497734666">
<ele>133.4</ele>
<time>2024-05-08T13:08:59Z</time>
</trkpt>
<trkpt lat="49.35152051970363" lon="9.10454459488392">
<ele>133.4</ele>
<time>2024-05-08T13:09:00Z</time>
</trkpt>
<trkpt lat="49.35153191909194" lon="9.104499751701953">
<ele>133.4</ele>
<time>2024-05-08T13:09:02Z</time>
</trkpt>
<trkpt lat="49.351543402299285" lon="9.104412999004126">
<ele>133.4</ele>
<time>2024-05-08T13:09:03Z</time>
</trkpt>
<trkpt lat="49.35154717415571" lon="9.104376789182425">
<ele>133.4</ele>
<time>2024-05-08T13:09:05Z</time>
</trkpt>
<trkpt lat="49.35155102983117" lon="9.104338567703962">
<ele>133.4</ele>
<time>2024-05-08T13:09:06Z</time>
</trkpt>
<trkpt lat="49.3515548016876" lon="9.104299508035185">
<ele>133.4</ele>
<time>2024-05-08T13:09:07Z</time>
</trkpt>
<trkpt lat="49.35155865736306" lon="9.104260364547372">
<ele>133.4</ele>
<time>2024-05-08T13:09:08Z</time>
</trkpt>
<trkpt lat="49.35156242921949" lon="9.104181239381433">
<ele>133.4</ele>
<time>2024-05-08T13:09:10Z</time>
</trkpt>
<trkpt lat="49.35156628489494" lon="9.104140251874924">
<ele>133.4</ele>
<time>2024-05-08T13:09:11Z</time>
</trkpt>
<trkpt lat="49.35157768428326" lon="9.104056349024177">
<ele>133.2</ele>
<time>2024-05-08T13:09:13Z</time>
</trkpt>
<trkpt lat="49.351581539958715" lon="9.10400865599513">
<ele>133</ele>
<time>2024-05-08T13:09:14Z</time>
</trkpt>
<trkpt lat="49.3515891674906" lon="9.103956185281277">
<ele>133</ele>
<time>2024-05-08T13:09:15Z</time>
</trkpt>
<trkpt lat="49.35159679502249" lon="9.103844622150064">
<ele>133</ele>
<time>2024-05-08T13:09:17Z</time>
</trkpt>
<trkpt lat="49.351604422554374" lon="9.10378829576075">
<ele>133</ele>
<time>2024-05-08T13:09:18Z</time>
</trkpt>
<trkpt lat="49.351604422554374" lon="9.103728281334044">
<ele>133</ele>
<time>2024-05-08T13:09:19Z</time>
</trkpt>
<trkpt lat="49.3516081944108" lon="9.103668183088304">
<ele>133</ele>
<time>2024-05-08T13:09:20Z</time>
</trkpt>
<trkpt lat="49.351623533293605" lon="9.103543208912017">
<ele>133</ele>
<time>2024-05-08T13:09:22Z</time>
</trkpt>
<trkpt lat="49.35162730515003" lon="9.10341831855476">
<ele>133</ele>
<time>2024-05-08T13:09:24Z</time>
</trkpt>
<trkpt lat="49.35162730515003" lon="9.10329627804458">
<ele>132.8</ele>
<time>2024-05-08T13:09:26Z</time>
</trkpt>
<trkpt lat="49.35162730515003" lon="9.103175159543753">
<ele>132.8</ele>
<time>2024-05-08T13:09:28Z</time>
</trkpt>
<trkpt lat="49.35163116082549" lon="9.103116989135742">
<ele>132.8</ele>
<time>2024-05-08T13:09:29Z</time>
</trkpt>
<trkpt lat="49.35163878835738" lon="9.103012969717383">
<ele>132.8</ele>
<time>2024-05-08T13:09:30Z</time>
</trkpt>
<trkpt lat="49.35164256021381" lon="9.102971982210876">
<ele>132.8</ele>
<time>2024-05-08T13:09:31Z</time>
</trkpt>
<trkpt lat="49.35164641588926" lon="9.102936694398522">
<ele>133</ele>
<time>2024-05-08T13:09:33Z</time>
</trkpt>
<trkpt lat="49.35164641588926" lon="9.102908112108707">
<ele>133</ele>
<time>2024-05-08T13:09:34Z</time>
</trkpt>
<trkpt lat="49.35164641588926" lon="9.10288330167532">
<ele>133</ele>
<time>2024-05-08T13:09:35Z</time>
</trkpt>
<trkpt lat="49.35163493268192" lon="9.10286134108901">
<ele>133</ele>
<time>2024-05-08T13:09:36Z</time>
</trkpt>
<trkpt lat="49.3515891674906" lon="9.102833680808544">
<ele>133</ele>
<time>2024-05-08T13:09:38Z</time>
</trkpt>
<trkpt lat="49.35151666402817" lon="9.10280509851873">
<ele>133</ele>
<time>2024-05-08T13:09:40Z</time>
</trkpt>
<trkpt lat="49.35148238204419" lon="9.102787915617228">
<ele>133</ele>
<time>2024-05-08T13:09:41Z</time>
</trkpt>
<trkpt lat="49.35140987858176" lon="9.10274692811072">
<ele>132.8</ele>
<time>2024-05-08T13:09:42Z</time>
</trkpt>
<trkpt lat="49.35137551277876" lon="9.10272496752441">
<ele>132.6</ele>
<time>2024-05-08T13:09:43Z</time>
</trkpt>
<trkpt lat="49.3513336032629" lon="9.10270686261356">
<ele>132.4</ele>
<time>2024-05-08T13:09:44Z</time>
</trkpt>
<trkpt lat="49.35129546560347" lon="9.102691607549788">
<ele>132.4</ele>
<time>2024-05-08T13:09:45Z</time>
</trkpt>
<trkpt lat="49.35125347226858" lon="9.102678280323744">
<ele>132.4</ele>
<time>2024-05-08T13:09:46Z</time>
</trkpt>
<trkpt lat="49.35121147893369" lon="9.102663025259972">
<ele>132.2</ele>
<time>2024-05-08T13:09:47Z</time>
</trkpt>
<trkpt lat="49.35117334127426" lon="9.10264676436782">
<ele>132.2</ele>
<time>2024-05-08T13:09:48Z</time>
</trkpt>
<trkpt lat="49.35113520361483" lon="9.102631509304048">
<ele>132.2</ele>
<time>2024-05-08T13:09:49Z</time>
</trkpt>
<trkpt lat="49.35109321027994" lon="9.102615332230926">
<ele>132.4</ele>
<time>2024-05-08T13:09:50Z</time>
</trkpt>
<trkpt lat="49.35105507262051" lon="9.102602927014232">
<ele>132.4</ele>
<time>2024-05-08T13:09:51Z</time>
</trkpt>
<trkpt lat="49.35101693496108" lon="9.102591443806888">
<ele>132.4</ele>
<time>2024-05-08T13:09:52Z</time>
</trkpt>
<trkpt lat="49.35098265297711" lon="9.102580044418572">
<ele>132.4</ele>
<time>2024-05-08T13:09:53Z</time>
</trkpt>
<trkpt lat="49.35094451531768" lon="9.102568561211228">
<ele>132.4</ele>
<time>2024-05-08T13:09:55Z</time>
</trkpt>
<trkpt lat="49.350906293839216" lon="9.102551378309728">
<ele>132.4</ele>
<time>2024-05-08T13:09:56Z</time>
</trkpt>
<trkpt lat="49.350833874195814" lon="9.102518018335104">
<ele>132.4</ele>
<time>2024-05-08T13:09:57Z</time>
</trkpt>
<trkpt lat="49.350795736536384" lon="9.102503769099712">
<ele>132.4</ele>
<time>2024-05-08T13:09:58Z</time>
</trkpt>
<trkpt lat="49.35075759887695" lon="9.10248851403594">
<ele>132.4</ele>
<time>2024-05-08T13:10:00Z</time>
</trkpt>
<trkpt lat="49.35068509541452" lon="9.1024646256119">
<ele>132.6</ele>
<time>2024-05-08T13:10:01Z</time>
</trkpt>
<trkpt lat="49.35064310207963" lon="9.102453226223588">
<ele>132.6</ele>
<time>2024-05-08T13:10:02Z</time>
</trkpt>
<trkpt lat="49.35060882009566" lon="9.102437971159816">
<ele>132.6</ele>
<time>2024-05-08T13:10:03Z</time>
</trkpt>
<trkpt lat="49.3505705986172" lon="9.102423638105392">
<ele>132.6</ele>
<time>2024-05-08T13:10:04Z</time>
</trkpt>
<trkpt lat="49.350536316633224" lon="9.102413160726428">
<ele>132.6</ele>
<time>2024-05-08T13:10:05Z</time>
</trkpt>
<trkpt lat="49.35050195083022" lon="9.102399749681354">
<ele>132.6</ele>
<time>2024-05-08T13:10:07Z</time>
</trkpt>
<trkpt lat="49.35046766884625" lon="9.10238642245531">
<ele>132.6</ele>
<time>2024-05-08T13:10:08Z</time>
</trkpt>
<trkpt lat="49.350433303043246" lon="9.102373095229268">
<ele>132.6</ele>
<time>2024-05-08T13:10:09Z</time>
</trkpt>
<trkpt lat="49.350395165383816" lon="9.102361612021925">
<ele>132.6</ele>
<time>2024-05-08T13:10:10Z</time>
</trkpt>
<trkpt lat="49.35036079958081" lon="9.10235021263361">
<ele>132.6</ele>
<time>2024-05-08T13:10:11Z</time>
</trkpt>
<trkpt lat="49.35032266192138" lon="9.102338729426265">
<ele>132.6</ele>
<time>2024-05-08T13:10:12Z</time>
</trkpt>
<trkpt lat="49.35025024227798" lon="9.10230821929872">
<ele>132.6</ele>
<time>2024-05-08T13:10:14Z</time>
</trkpt>
<trkpt lat="49.35020824894309" lon="9.102294892072678">
<ele>132.6</ele>
<time>2024-05-08T13:10:15Z</time>
</trkpt>
<trkpt lat="49.35013197362423" lon="9.102274859324098">
<ele>132.8</ele>
<time>2024-05-08T13:10:16Z</time>
</trkpt>
<trkpt lat="49.350097607821226" lon="9.10226815380156">
<ele>132.8</ele>
<time>2024-05-08T13:10:18Z</time>
</trkpt>
<trkpt lat="49.35002510435879" lon="9.10226815380156">
<ele>132.4</ele>
<time>2024-05-08T13:10:19Z</time>
</trkpt>
<trkpt lat="49.34999082237482" lon="9.102266309782864">
<ele>132.4</ele>
<time>2024-05-08T13:10:21Z</time>
</trkpt>
<trkpt lat="49.349922174587846" lon="9.102259604260324">
<ele>132.2</ele>
<time>2024-05-08T13:10:22Z</time>
</trkpt>
<trkpt lat="49.34989158064127" lon="9.102254826575518">
<ele>132.2</ele>
<time>2024-05-08T13:10:23Z</time>
</trkpt>
<trkpt lat="49.34985344298184" lon="9.102245271205902">
<ele>132.2</ele>
<time>2024-05-08T13:10:24Z</time>
</trkpt>
<trkpt lat="49.34981916099787" lon="9.10223194397986">
<ele>132.2</ele>
<time>2024-05-08T13:10:25Z</time>
</trkpt>
<trkpt lat="49.34978865087032" lon="9.102218616753817">
<ele>132.4</ele>
<time>2024-05-08T13:10:27Z</time>
</trkpt>
<trkpt lat="49.349723774939775" lon="9.102192800492048">
<ele>132.4</ele>
<time>2024-05-08T13:10:29Z</time>
</trkpt>
<trkpt lat="49.349666526541114" lon="9.102176623418927">
<ele>132.4</ele>
<time>2024-05-08T13:10:30Z</time>
</trkpt>
<trkpt lat="49.34963987208903" lon="9.102168073877692">
<ele>132.2</ele>
<time>2024-05-08T13:10:32Z</time>
</trkpt>
<trkpt lat="49.34958262369037" lon="9.102140413597226">
<ele>132.2</ele>
<time>2024-05-08T13:10:34Z</time>
</trkpt>
<trkpt lat="49.34955596923828" lon="9.102114597335458">
<ele>132</ele>
<time>2024-05-08T13:10:35Z</time>
</trkpt>
<trkpt lat="49.34952923096717" lon="9.102083165198565">
<ele>132</ele>
<time>2024-05-08T13:10:36Z</time>
</trkpt>
<trkpt lat="49.34949872083962" lon="9.102001190185549">
<ele>131.8</ele>
<time>2024-05-08T13:10:38Z</time>
</trkpt>
<trkpt lat="49.34949872083962" lon="9.101949641481042">
<ele>131.8</ele>
<time>2024-05-08T13:10:39Z</time>
</trkpt>
<trkpt lat="49.34949872083962" lon="9.101891471073031">
<ele>131.8</ele>
<time>2024-05-08T13:10:40Z</time>
</trkpt>
<trkpt lat="49.34949872083962" lon="9.101828522980211">
<ele>131.6</ele>
<time>2024-05-08T13:10:41Z</time>
</trkpt>
<trkpt lat="49.34950249269605" lon="9.101779907941818">
<ele>131.4</ele>
<time>2024-05-08T13:10:42Z</time>
</trkpt>
<trkpt lat="49.34949486516416" lon="9.101699776947498">
<ele>131.2</ele>
<time>2024-05-08T13:10:43Z</time>
</trkpt>
<trkpt lat="49.34948346577585" lon="9.101666416972876">
<ele>131</ele>
<time>2024-05-08T13:10:44Z</time>
</trkpt>
<trkpt lat="49.349464355036616" lon="9.101652083918452">
<ele>131</ele>
<time>2024-05-08T13:10:45Z</time>
</trkpt>
<trkpt lat="49.34944147244096" lon="9.101632051169872">
<ele>130.8</ele>
<time>2024-05-08T13:10:47Z</time>
</trkpt>
<trkpt lat="49.3494185898453" lon="9.101614952087402">
<ele>130.8</ele>
<time>2024-05-08T13:10:48Z</time>
</trkpt>
<trkpt lat="49.34938045218587" lon="9.101599613204598">
<ele>130.6</ele>
<time>2024-05-08T13:10:50Z</time>
</trkpt>
<trkpt lat="49.34935756959021" lon="9.101586285978556">
<ele>130.6</ele>
<time>2024-05-08T13:10:51Z</time>
</trkpt>
<trkpt lat="49.34933845885098" lon="9.10157966427505">
<ele>130.399</ele>
<time>2024-05-08T13:10:52Z</time>
</trkpt>
<trkpt lat="49.349307948723435" lon="9.101594919338822">
<ele>130.399</ele>
<time>2024-05-08T13:10:53Z</time>
</trkpt>
<trkpt lat="49.34928129427135" lon="9.10157966427505">
<ele>130.399</ele>
<time>2024-05-08T13:10:54Z</time>
</trkpt>
<trkpt lat="49.34924315661192" lon="9.101570108905436">
<ele>130.399</ele>
<time>2024-05-08T13:10:55Z</time>
</trkpt>
<trkpt lat="49.34917442500591" lon="9.101543370634316">
<ele>130.399</ele>
<time>2024-05-08T13:10:57Z</time>
</trkpt>
<trkpt lat="49.3491096328944" lon="9.101521410048008">
<ele>130.399</ele>
<time>2024-05-08T13:10:59Z</time>
</trkpt>
<trkpt lat="49.349071495234966" lon="9.101516716182232">
<ele>130.399</ele>
<time>2024-05-08T13:11:00Z</time>
</trkpt>
<trkpt lat="49.3489798810333" lon="9.101491905748844">
<ele>130.399</ele>
<time>2024-05-08T13:11:02Z</time>
</trkpt>
<trkpt lat="49.34893034398556" lon="9.10149953328073">
<ele>130.399</ele>
<time>2024-05-08T13:11:03Z</time>
</trkpt>
<trkpt lat="49.34883872978389" lon="9.101486206054688">
<ele>130.399</ele>
<time>2024-05-08T13:11:04Z</time>
</trkpt>
<trkpt lat="49.348792964592576" lon="9.101486206054688">
<ele>130.6</ele>
<time>2024-05-08T13:11:05Z</time>
</trkpt>
<trkpt lat="49.348754826933146" lon="9.101476650685072">
<ele>130.6</ele>
<time>2024-05-08T13:11:06Z</time>
</trkpt>
<trkpt lat="49.348716689273715" lon="9.101463239639996">
<ele>130.6</ele>
<time>2024-05-08T13:11:07Z</time>
</trkpt>
<trkpt lat="49.34868232347071" lon="9.101454690098764">
<ele>130.6</ele>
<time>2024-05-08T13:11:08Z</time>
</trkpt>
<trkpt lat="49.348640413954854" lon="9.10144329071045">
<ele>130.6</ele>
<time>2024-05-08T13:11:09Z</time>
</trkpt>
<trkpt lat="49.348598420619965" lon="9.101433735340834">
<ele>130.6</ele>
<time>2024-05-08T13:11:11Z</time>
</trkpt>
<trkpt lat="49.34855651110411" lon="9.10142325796187">
<ele>130.6</ele>
<time>2024-05-08T13:11:12Z</time>
</trkpt>
<trkpt lat="49.34847252443433" lon="9.101409846916797">
<ele>130.8</ele>
<time>2024-05-08T13:11:14Z</time>
</trkpt>
<trkpt lat="49.34839624911547" lon="9.10139844752848">
<ele>131</ele>
<time>2024-05-08T13:11:15Z</time>
</trkpt>
<trkpt lat="49.34835811145604" lon="9.101391742005944">
<ele>131</ele>
<time>2024-05-08T13:11:17Z</time>
</trkpt>
<trkpt lat="49.34828946366906" lon="9.101391742005944">
<ele>131.2</ele>
<time>2024-05-08T13:11:19Z</time>
</trkpt>
<trkpt lat="49.34825132600963" lon="9.101393669843674">
<ele>131.2</ele>
<time>2024-05-08T13:11:20Z</time>
</trkpt>
<trkpt lat="49.34815208427608" lon="9.101385036483409">
<ele>131.2</ele>
<time>2024-05-08T13:11:21Z</time>
</trkpt>
<trkpt lat="49.34810631908476" lon="9.101391742005944">
<ele>131</ele>
<time>2024-05-08T13:11:23Z</time>
</trkpt>
<trkpt lat="49.34800716117024" lon="9.101386964321136">
<ele>131</ele>
<time>2024-05-08T13:11:25Z</time>
</trkpt>
<trkpt lat="49.347908003255725" lon="9.101369781419637">
<ele>130.8</ele>
<time>2024-05-08T13:11:27Z</time>
</trkpt>
<trkpt lat="49.347869865596294" lon="9.10136315971613">
<ele>130.6</ele>
<time>2024-05-08T13:11:28Z</time>
</trkpt>
<trkpt lat="49.34780113399029" lon="9.101353604346514">
<ele>130.6</ele>
<time>2024-05-08T13:11:30Z</time>
</trkpt>
<trkpt lat="49.34773634187877" lon="9.101356454193592">
<ele>130.399</ele>
<time>2024-05-08T13:11:31Z</time>
</trkpt>
<trkpt lat="49.34770583175123" lon="9.101353604346514">
<ele>130.2</ele>
<time>2024-05-08T13:11:33Z</time>
</trkpt>
<trkpt lat="49.347671465948224" lon="9.101354526355864">
<ele>130.2</ele>
<time>2024-05-08T13:11:34Z</time>
</trkpt>
<trkpt lat="49.347629472613335" lon="9.101347904652355">
<ele>130.2</ele>
<time>2024-05-08T13:11:35Z</time>
</trkpt>
<trkpt lat="49.34758370742202" lon="9.10134119912982">
<ele>130.2</ele>
<time>2024-05-08T13:11:36Z</time>
</trkpt>
<trkpt lat="49.34754179790616" lon="9.101331643760204">
<ele>130</ele>
<time>2024-05-08T13:11:37Z</time>
</trkpt>
<trkpt lat="49.34746543876827" lon="9.1013250220567">
<ele>130.2</ele>
<time>2024-05-08T13:11:39Z</time>
</trkpt>
<trkpt lat="49.347431156784296" lon="9.1013250220567">
<ele>130.2</ele>
<time>2024-05-08T13:11:40Z</time>
</trkpt>
<trkpt lat="49.347393019124866" lon="9.10132116638124">
<ele>130.2</ele>
<time>2024-05-08T13:11:41Z</time>
</trkpt>
<trkpt lat="49.347354881465435" lon="9.101311611011624">
<ele>130.2</ele>
<time>2024-05-08T13:11:42Z</time>
</trkpt>
<trkpt lat="49.347274750471115" lon="9.101280178874733">
<ele>130.2</ele>
<time>2024-05-08T13:11:44Z</time>
</trkpt>
<trkpt lat="49.347232757136226" lon="9.101271629333496">
<ele>130.2</ele>
<time>2024-05-08T13:11:45Z</time>
</trkpt>
<trkpt lat="49.347194619476795" lon="9.101258218288422">
<ele>130.2</ele>
<time>2024-05-08T13:11:46Z</time>
</trkpt>
<trkpt lat="49.347118344157934" lon="9.10124489106238">
<ele>130.2</ele>
<time>2024-05-08T13:11:48Z</time>
</trkpt>
<trkpt lat="49.347076350823045" lon="9.10124296322465">
<ele>130.2</ele>
<time>2024-05-08T13:11:49Z</time>
</trkpt>
<trkpt lat="49.34698482044041" lon="9.101213375106454">
<ele>130</ele>
<time>2024-05-08T13:11:51Z</time>
</trkpt>
<trkpt lat="49.34688180685043" lon="9.101189570501449">
<ele>130</ele>
<time>2024-05-08T13:11:53Z</time>
</trkpt>
<trkpt lat="49.34678642079234" lon="9.101171465590596">
<ele>130</ele>
<time>2024-05-08T13:11:54Z</time>
</trkpt>
<trkpt lat="49.3467368837446" lon="9.101166687905788">
<ele>130.2</ele>
<time>2024-05-08T13:11:56Z</time>
</trkpt>
<trkpt lat="49.34664912521839" lon="9.101158138364552">
<ele>130.2</ele>
<time>2024-05-08T13:11:58Z</time>
</trkpt>
<trkpt lat="49.346599504351616" lon="9.101149505004289">
<ele>130.2</ele>
<time>2024-05-08T13:11:59Z</time>
</trkpt>
<trkpt lat="49.34650797396898" lon="9.101133327931166">
<ele>130.2</ele>
<time>2024-05-08T13:12:00Z</time>
</trkpt>
<trkpt lat="49.346462208777666" lon="9.101126622408628">
<ele>130.399</ele>
<time>2024-05-08T13:12:02Z</time>
</trkpt>
<trkpt lat="49.34641258791089" lon="9.101117067039011">
<ele>130.399</ele>
<time>2024-05-08T13:12:03Z</time>
</trkpt>
<trkpt lat="49.34632868506014" lon="9.101099967956545">
<ele>130.399</ele>
<time>2024-05-08T13:12:04Z</time>
</trkpt>
<trkpt lat="49.346286691725254" lon="9.10108462907374">
<ele>130.6</ele>
<time>2024-05-08T13:12:06Z</time>
</trkpt>
<trkpt lat="49.34620278887451" lon="9.10106468014419">
<ele>130.6</ele>
<time>2024-05-08T13:12:08Z</time>
</trkpt>
<trkpt lat="49.34616465121507" lon="9.101059902459385">
<ele>130.6</ele>
<time>2024-05-08T13:12:09Z</time>
</trkpt>
<trkpt lat="49.34607312083244" lon="9.101046491414309">
<ele>130.6</ele>
<time>2024-05-08T13:12:10Z</time>
</trkpt>
<trkpt lat="49.34602735564113" lon="9.101035092025995">
<ele>130.399</ele>
<time>2024-05-08T13:12:11Z</time>
</trkpt>
<trkpt lat="49.34598159044981" lon="9.101019836962225">
<ele>130.399</ele>
<time>2024-05-08T13:12:13Z</time>
</trkpt>
<trkpt lat="49.34593959711492" lon="9.101015059277415">
<ele>130.399</ele>
<time>2024-05-08T13:12:14Z</time>
</trkpt>
<trkpt lat="49.34590145945549" lon="9.101016987115145">
<ele>130.399</ele>
<time>2024-05-08T13:12:15Z</time>
</trkpt>
<trkpt lat="49.345828955993056" lon="9.101026458665729">
<ele>130.2</ele>
<time>2024-05-08T13:12:16Z</time>
</trkpt>
<trkpt lat="49.345771707594395" lon="9.101026458665729">
<ele>130.2</ele>
<time>2024-05-08T13:12:17Z</time>
</trkpt>
<trkpt lat="49.345714543014765" lon="9.101028386503458">
<ele>130.2</ele>
<time>2024-05-08T13:12:19Z</time>
</trkpt>
<trkpt lat="49.34568017721176" lon="9.101075157523155">
<ele>130.2</ele>
<time>2024-05-08T13:12:20Z</time>
</trkpt>
<trkpt lat="49.345634412020445" lon="9.101108517497778">
<ele>130.2</ele>
<time>2024-05-08T13:12:21Z</time>
</trkpt>
<trkpt lat="49.345558136701584" lon="9.101188648492098">
<ele>130.2</ele>
<time>2024-05-08T13:12:23Z</time>
</trkpt>
<trkpt lat="49.34552762657404" lon="9.101226786151528">
<ele>130.399</ele>
<time>2024-05-08T13:12:24Z</time>
</trkpt>
<trkpt lat="49.34547037817538" lon="9.101288728415966">
<ele>130.6</ele>
<time>2024-05-08T13:12:26Z</time>
</trkpt>
<trkpt lat="49.34541312977672" lon="9.101356454193592">
<ele>130.8</ele>
<time>2024-05-08T13:12:27Z</time>
</trkpt>
<trkpt lat="49.34539024718106" lon="9.101386964321136">
<ele>130.8</ele>
<time>2024-05-08T13:12:29Z</time>
</trkpt>
<trkpt lat="49.345340710133314" lon="9.101429879665377">
<ele>131</ele>
<time>2024-05-08T13:12:30Z</time>
</trkpt>
<trkpt lat="49.34532159939408" lon="9.10145854577422">
<ele>131</ele>
<time>2024-05-08T13:12:31Z</time>
</trkpt>
<trkpt lat="49.345298716798425" lon="9.101496683433652">
<ele>131</ele>
<time>2024-05-08T13:12:32Z</time>
</trkpt>
<trkpt lat="49.345279689878225" lon="9.101543370634316">
<ele>131.2</ele>
<time>2024-05-08T13:12:34Z</time>
</trkpt>
<trkpt lat="49.345260579138994" lon="9.101585363969209">
<ele>131.2</ele>
<time>2024-05-08T13:12:35Z</time>
</trkpt>
<trkpt lat="49.34524146839976" lon="9.101623501628636">
<ele>131.2</ele>
<time>2024-05-08T13:12:36Z</time>
</trkpt>
<trkpt lat="49.34522244147957" lon="9.101661639288068">
<ele>131.4</ele>
<time>2024-05-08T13:12:37Z</time>
</trkpt>
<trkpt lat="49.34520333074033" lon="9.10169307142496">
<ele>131.4</ele>
<time>2024-05-08T13:12:38Z</time>
</trkpt>
<trkpt lat="49.34518807567656" lon="9.101724587380886">
<ele>131.6</ele>
<time>2024-05-08T13:12:39Z</time>
</trkpt>
<trkpt lat="49.34517282061279" lon="9.10175702534616">
<ele>131.8</ele>
<time>2024-05-08T13:12:40Z</time>
</trkpt>
<trkpt lat="49.34513091109693" lon="9.101808490231631">
<ele>132</ele>
<time>2024-05-08T13:12:42Z</time>
</trkpt>
<trkpt lat="49.34510417282581" lon="9.101826595142484">
<ele>132.2</ele>
<time>2024-05-08T13:12:43Z</time>
</trkpt>
<trkpt lat="49.345081290230155" lon="9.101849477738142">
<ele>132.2</ele>
<time>2024-05-08T13:12:44Z</time>
</trkpt>
<trkpt lat="49.3450584076345" lon="9.101871438324451">
<ele>132.4</ele>
<time>2024-05-08T13:12:45Z</time>
</trkpt>
<trkpt lat="49.34499738737941" lon="9.10191628150642">
<ele>132.6</ele>
<time>2024-05-08T13:12:47Z</time>
</trkpt>
<trkpt lat="49.344963021576405" lon="9.101944863796234">
<ele>132.6</ele>
<time>2024-05-08T13:12:48Z</time>
</trkpt>
<trkpt lat="49.344860007986426" lon="9.102053577080367">
<ele>132.4</ele>
<time>2024-05-08T13:12:49Z</time>
</trkpt>
<trkpt lat="49.34481424279511" lon="9.102107975631952">
<ele>132.4</ele>
<time>2024-05-08T13:12:51Z</time>
</trkpt>
<trkpt lat="49.344764705747366" lon="9.102161368355157">
<ele>132.2</ele>
<time>2024-05-08T13:12:52Z</time>
</trkpt>
<trkpt lat="49.3446730915457" lon="9.102256754413249">
<ele>132</ele>
<time>2024-05-08T13:12:54Z</time>
</trkpt>
<trkpt lat="49.34459681622684" lon="9.10235214047134">
<ele>131.8</ele>
<time>2024-05-08T13:12:55Z</time>
</trkpt>
<trkpt lat="49.34455867856741" lon="9.102395055815578">
<ele>131.6</ele>
<time>2024-05-08T13:12:57Z</time>
</trkpt>
<trkpt lat="49.344490030780435" lon="9.102481808513405">
<ele>131.4</ele>
<time>2024-05-08T13:12:58Z</time>
</trkpt>
<trkpt lat="49.34446329250932" lon="9.102521874010565">
<ele>131.4</ele>
<time>2024-05-08T13:13:00Z</time>
</trkpt>
<trkpt lat="49.344413755461574" lon="9.102602005004885">
<ele>131.4</ele>
<time>2024-05-08T13:13:01Z</time>
</trkpt>
<trkpt lat="49.34439464472234" lon="9.102640142664312">
<ele>131.4</ele>
<time>2024-05-08T13:13:02Z</time>
</trkpt>
<trkpt lat="49.3443641345948" lon="9.102680124342442">
<ele>131.4</ele>
<time>2024-05-08T13:13:03Z</time>
</trkpt>
<trkpt lat="49.344333624467254" lon="9.102716417983174">
<ele>131.4</ele>
<time>2024-05-08T13:13:05Z</time>
</trkpt>
<trkpt lat="49.344272604212165" lon="9.102789843454955">
<ele>131.4</ele>
<time>2024-05-08T13:13:07Z</time>
</trkpt>
<trkpt lat="49.34421150013805" lon="9.10286519676447">
<ele>131.6</ele>
<time>2024-05-08T13:13:09Z</time>
</trkpt>
<trkpt lat="49.34413908049464" lon="9.1029395442456">
<ele>131.6</ele>
<time>2024-05-08T13:13:11Z</time>
</trkpt>
<trkpt lat="49.3441085703671" lon="9.10298153758049">
<ele>131.8</ele>
<time>2024-05-08T13:13:12Z</time>
</trkpt>
<trkpt lat="49.34405509382486" lon="9.103070218116043">
<ele>131.8</ele>
<time>2024-05-08T13:13:13Z</time>
</trkpt>
<trkpt lat="49.344032211229205" lon="9.103116989135742">
<ele>131.8</ele>
<time>2024-05-08T13:13:14Z</time>
</trkpt>
<trkpt lat="49.344013184309006" lon="9.103163676336408">
<ele>131.8</ele>
<time>2024-05-08T13:13:16Z</time>
</trkpt>
<trkpt lat="49.34398644603789" lon="9.103264762088656">
<ele>131.8</ele>
<time>2024-05-08T13:13:17Z</time>
</trkpt>
<trkpt lat="49.343975046649575" lon="9.103309605270624">
<ele>131.8</ele>
<time>2024-05-08T13:13:19Z</time>
</trkpt>
<trkpt lat="49.34396356344223" lon="9.103393508121371">
<ele>132</ele>
<time>2024-05-08T13:13:21Z</time>
</trkpt>
<trkpt lat="49.3439597915858" lon="9.103421168401836">
<ele>132.2</ele>
<time>2024-05-08T13:13:22Z</time>
</trkpt>
<trkpt lat="49.34395216405392" lon="9.103501299396155">
<ele>132.4</ele>
<time>2024-05-08T13:13:24Z</time>
</trkpt>
<trkpt lat="49.34394453652203" lon="9.103541364893315">
<ele>132.4</ele>
<time>2024-05-08T13:13:25Z</time>
</trkpt>
<trkpt lat="49.343936908990145" lon="9.10359282977879">
<ele>132.4</ele>
<time>2024-05-08T13:13:26Z</time>
</trkpt>
<trkpt lat="49.34392928145826" lon="9.103650078177452">
<ele>132.6</ele>
<time>2024-05-08T13:13:27Z</time>
</trkpt>
<trkpt lat="49.34392165392637" lon="9.103741608560084">
<ele>132.8</ele>
<time>2024-05-08T13:13:29Z</time>
</trkpt>
<trkpt lat="49.3439254257828" lon="9.10378829576075">
<ele>132.8</ele>
<time>2024-05-08T13:13:30Z</time>
</trkpt>
<trkpt lat="49.343936908990145" lon="9.103884687647223">
<ele>132.8</ele>
<time>2024-05-08T13:13:31Z</time>
</trkpt>
<trkpt lat="49.34395216405392" lon="9.10392944701016">
<ele>132.8</ele>
<time>2024-05-08T13:13:33Z</time>
</trkpt>
<trkpt lat="49.343975046649575" lon="9.104033466428518">
<ele>133</ele>
<time>2024-05-08T13:13:35Z</time>
</trkpt>
<trkpt lat="49.34398644603789" lon="9.10408685915172">
<ele>133</ele>
<time>2024-05-08T13:13:36Z</time>
</trkpt>
<trkpt lat="49.343994073569775" lon="9.104140251874924">
<ele>133</ele>
<time>2024-05-08T13:13:37Z</time>
</trkpt>
<trkpt lat="49.34400170110166" lon="9.104193644598126">
<ele>133.2</ele>
<time>2024-05-08T13:13:38Z</time>
</trkpt>
<trkpt lat="49.34400932863355" lon="9.104243265464902">
<ele>133.4</ele>
<time>2024-05-08T13:13:39Z</time>
</trkpt>
<trkpt lat="49.34401695616543" lon="9.104289952665567">
<ele>133.6</ele>
<time>2024-05-08T13:13:40Z</time>
</trkpt>
<trkpt lat="49.34402458369732" lon="9.104341501370072">
<ele>133.8</ele>
<time>2024-05-08T13:13:41Z</time>
</trkpt>
<trkpt lat="49.344032211229205" lon="9.104386260733008">
<ele>133.8</ele>
<time>2024-05-08T13:13:42Z</time>
</trkpt>
<trkpt lat="49.34405132196843" lon="9.104471169412136">
<ele>133.6</ele>
<time>2024-05-08T13:13:44Z</time>
</trkpt>
<trkpt lat="49.34405894950032" lon="9.10452171228826">
<ele>133.6</ele>
<time>2024-05-08T13:13:45Z</time>
</trkpt>
<trkpt lat="49.34407043270767" lon="9.1045646276325">
<ele>133.6</ele>
<time>2024-05-08T13:13:46Z</time>
</trkpt>
<trkpt lat="49.34408945962787" lon="9.104649536311626">
<ele>133.4</ele>
<time>2024-05-08T13:13:48Z</time>
</trkpt>
<trkpt lat="49.34409708715975" lon="9.104691445827484">
<ele>133.4</ele>
<time>2024-05-08T13:13:49Z</time>
</trkpt>
<trkpt lat="49.3441085703671" lon="9.104764871299269">
<ele>133.4</ele>
<time>2024-05-08T13:13:51Z</time>
</trkpt>
<trkpt lat="49.3441085703671" lon="9.10479831509292">
<ele>133.6</ele>
<time>2024-05-08T13:13:52Z</time>
</trkpt>
<trkpt lat="49.34410471469164" lon="9.104869812726974">
<ele>133.6</ele>
<time>2024-05-08T13:13:53Z</time>
</trkpt>
<trkpt lat="49.34409708715975" lon="9.104907028377056">
<ele>133.6</ele>
<time>2024-05-08T13:13:55Z</time>
</trkpt>
<trkpt lat="49.344093315303326" lon="9.10499855875969">
<ele>133.6</ele>
<time>2024-05-08T13:13:57Z</time>
</trkpt>
<trkpt lat="49.34407806023955" lon="9.105132082477212">
<ele>133.6</ele>
<time>2024-05-08T13:13:59Z</time>
</trkpt>
<trkpt lat="49.34408568777144" lon="9.105286560952663">
<ele>133.4</ele>
<time>2024-05-08T13:14:01Z</time>
</trkpt>
<trkpt lat="49.344093315303326" lon="9.105381947010756">
<ele>133.2</ele>
<time>2024-05-08T13:14:02Z</time>
</trkpt>
<trkpt lat="49.34409708715975" lon="9.105475405231118">
<ele>133</ele>
<time>2024-05-08T13:14:03Z</time>
</trkpt>
<trkpt lat="49.34407806023955" lon="9.105656621977689">
<ele>132.8</ele>
<time>2024-05-08T13:14:05Z</time>
</trkpt>
<trkpt lat="49.34404746629298" lon="9.105739519000052">
<ele>132.4</ele>
<time>2024-05-08T13:14:06Z</time>
</trkpt>
<trkpt lat="49.34394453652203" lon="9.10590648651123">
<ele>131.8</ele>
<time>2024-05-08T13:14:08Z</time>
</trkpt>
<trkpt lat="49.34392165392637" lon="9.10594361834228">
<ele>131.6</ele>
<time>2024-05-08T13:14:10Z</time>
</trkpt>
<trkpt lat="49.34387966059148" lon="9.105998016893864">
<ele>131.2</ele>
<time>2024-05-08T13:14:12Z</time>
</trkpt>
<trkpt lat="49.34384152293205" lon="9.10606473684311">
<ele>130.8</ele>
<time>2024-05-08T13:14:13Z</time>
</trkpt>
<trkpt lat="49.34382626786828" lon="9.10610002465546">
<ele>130.8</ele>
<time>2024-05-08T13:14:14Z</time>
</trkpt>
<trkpt lat="49.34380715712905" lon="9.106133384630084">
<ele>130.6</ele>
<time>2024-05-08T13:14:15Z</time>
</trkpt>
<trkpt lat="49.34378813020885" lon="9.106166828423738">
<ele>130.6</ele>
<time>2024-05-08T13:14:17Z</time>
</trkpt>
<trkpt lat="49.34376901946962" lon="9.10620303824544">
<ele>130.6</ele>
<time>2024-05-08T13:14:18Z</time>
</trkpt>
<trkpt lat="49.34373088181019" lon="9.106273613870144">
<ele>130.6</ele>
<time>2024-05-08T13:14:19Z</time>
</trkpt>
<trkpt lat="49.34371177107096" lon="9.10630320198834">
<ele>130.6</ele>
<time>2024-05-08T13:14:21Z</time>
</trkpt>
<trkpt lat="49.34369274415076" lon="9.106333712115884">
<ele>130.8</ele>
<time>2024-05-08T13:14:22Z</time>
</trkpt>
<trkpt lat="49.3436698615551" lon="9.106388026848435">
<ele>131</ele>
<time>2024-05-08T13:14:24Z</time>
</trkpt>
<trkpt lat="49.34366223402321" lon="9.106409987434745">
<ele>131.2</ele>
<time>2024-05-08T13:14:25Z</time>
</trkpt>
<trkpt lat="49.34365075081587" lon="9.10643957555294">
<ele>131.2</ele>
<time>2024-05-08T13:14:26Z</time>
</trkpt>
<trkpt lat="49.34361261315644" lon="9.10651677288115">
<ele>131.4</ele>
<time>2024-05-08T13:14:27Z</time>
</trkpt>
<trkpt lat="49.34358973056078" lon="9.106563543900847">
<ele>131.4</ele>
<time>2024-05-08T13:14:29Z</time>
</trkpt>
<trkpt lat="49.34357070364058" lon="9.106606459245086">
<ele>131.4</ele>
<time>2024-05-08T13:14:30Z</time>
</trkpt>
<trkpt lat="49.34353633783758" lon="9.106703689321876">
<ele>131.6</ele>
<time>2024-05-08T13:14:32Z</time>
</trkpt>
<trkpt lat="49.343521082773805" lon="9.106749454513192">
<ele>131.6</ele>
<time>2024-05-08T13:14:33Z</time>
</trkpt>
<trkpt lat="49.3434867169708" lon="9.106855317950249">
<ele>131.8</ele>
<time>2024-05-08T13:14:35Z</time>
</trkpt>
<trkpt lat="49.34347531758249" lon="9.106903010979297">
<ele>131.8</ele>
<time>2024-05-08T13:14:36Z</time>
</trkpt>
<trkpt lat="49.3434676900506" lon="9.106958331540229">
<ele>132</ele>
<time>2024-05-08T13:14:37Z</time>
</trkpt>
<trkpt lat="49.34345620684326" lon="9.10701365210116">
<ele>132</ele>
<time>2024-05-08T13:14:38Z</time>
</trkpt>
<trkpt lat="49.34342955239117" lon="9.10713192075491">
<ele>132.2</ele>
<time>2024-05-08T13:14:40Z</time>
</trkpt>
<trkpt lat="49.34341044165194" lon="9.107245411723852">
<ele>132.4</ele>
<time>2024-05-08T13:14:42Z</time>
</trkpt>
<trkpt lat="49.343402814120054" lon="9.107299726456404">
<ele>132.6</ele>
<time>2024-05-08T13:14:43Z</time>
</trkpt>
<trkpt lat="49.343402814120054" lon="9.107343647629024">
<ele>132.6</ele>
<time>2024-05-08T13:14:44Z</time>
</trkpt>
<trkpt lat="49.34339518658817" lon="9.107393184676766">
<ele>132.6</ele>
<time>2024-05-08T13:14:45Z</time>
</trkpt>
<trkpt lat="49.343383787199855" lon="9.107442805543542">
<ele>132.6</ele>
<time>2024-05-08T13:14:46Z</time>
</trkpt>
<trkpt lat="49.34337230399251" lon="9.107493348419666">
<ele>132.6</ele>
<time>2024-05-08T13:14:47Z</time>
</trkpt>
<trkpt lat="49.343364676460624" lon="9.107542969286442">
<ele>132.6</ele>
<time>2024-05-08T13:14:48Z</time>
</trkpt>
<trkpt lat="49.34334556572139" lon="9.10764304921031">
<ele>132.6</ele>
<time>2024-05-08T13:14:50Z</time>
</trkpt>
<trkpt lat="49.34333793818951" lon="9.107691748067737">
<ele>132.6</ele>
<time>2024-05-08T13:14:51Z</time>
</trkpt>
<trkpt lat="49.34331891126931" lon="9.10774321295321">
<ele>132.6</ele>
<time>2024-05-08T13:14:52Z</time>
</trkpt>
<trkpt lat="49.34328077360988" lon="9.107851926237345">
<ele>132.6</ele>
<time>2024-05-08T13:14:54Z</time>
</trkpt>
<trkpt lat="49.343261662870646" lon="9.107908168807626">
<ele>132.6</ele>
<time>2024-05-08T13:14:55Z</time>
</trkpt>
<trkpt lat="49.3432311527431" lon="9.10801981575787">
<ele>132.6</ele>
<time>2024-05-08T13:14:56Z</time>
</trkpt>
<trkpt lat="49.34321589767933" lon="9.10807798616588">
<ele>132.8</ele>
<time>2024-05-08T13:14:58Z</time>
</trkpt>
<trkpt lat="49.343181531876326" lon="9.108191477134824">
<ele>132.8</ele>
<time>2024-05-08T13:14:59Z</time>
</trkpt>
<trkpt lat="49.34316627681255" lon="9.108242020010948">
<ele>132.8</ele>
<time>2024-05-08T13:15:01Z</time>
</trkpt>
<trkpt lat="49.343147249892354" lon="9.10829348489642">
<ele>132.6</ele>
<time>2024-05-08T13:15:02Z</time>
</trkpt>
<trkpt lat="49.34313199482858" lon="9.108346877619624">
<ele>132.6</ele>
<time>2024-05-08T13:15:03Z</time>
</trkpt>
<trkpt lat="49.34310911223292" lon="9.10843656398356">
<ele>132.6</ele>
<time>2024-05-08T13:15:05Z</time>
</trkpt>
<trkpt lat="49.34310148470104" lon="9.108485179021956">
<ele>132.6</ele>
<time>2024-05-08T13:15:06Z</time>
</trkpt>
<trkpt lat="49.343086229637265" lon="9.108541421592236">
<ele>132.6</ele>
<time>2024-05-08T13:15:07Z</time>
</trkpt>
<trkpt lat="49.34305186383426" lon="9.108666395768523">
<ele>132.6</ele>
<time>2024-05-08T13:15:09Z</time>
</trkpt>
<trkpt lat="49.34301372617483" lon="9.108793213963509">
<ele>132.8</ele>
<time>2024-05-08T13:15:11Z</time>
</trkpt>
<trkpt lat="49.34299084357917" lon="9.108855240046978">
<ele>132.8</ele>
<time>2024-05-08T13:15:12Z</time>
</trkpt>
<trkpt lat="49.34297173283994" lon="9.108918188139796">
<ele>133</ele>
<time>2024-05-08T13:15:13Z</time>
</trkpt>
<trkpt lat="49.34293745085597" lon="9.109041150659325">
<ele>133</ele>
<time>2024-05-08T13:15:15Z</time>
</trkpt>
<trkpt lat="49.34289545752108" lon="9.109161347150804">
<ele>133</ele>
<time>2024-05-08T13:15:17Z</time>
</trkpt>
<trkpt lat="49.34288020245731" lon="9.10922521725297">
<ele>133</ele>
<time>2024-05-08T13:15:18Z</time>
</trkpt>
<trkpt lat="49.34283820912242" lon="9.109348263591528">
<ele>132.8</ele>
<time>2024-05-08T13:15:20Z</time>
</trkpt>
<trkpt lat="49.34282295405865" lon="9.109406433999538">
<ele>132.8</ele>
<time>2024-05-08T13:15:21Z</time>
</trkpt>
<trkpt lat="49.34280392713845" lon="9.1094636823982">
<ele>132.6</ele>
<time>2024-05-08T13:15:22Z</time>
</trkpt>
<trkpt lat="49.3427734170109" lon="9.109556134790182">
<ele>132.6</ele>
<time>2024-05-08T13:15:24Z</time>
</trkpt>
<trkpt lat="49.34276193380356" lon="9.109596200287342">
<ele>132.6</ele>
<time>2024-05-08T13:15:25Z</time>
</trkpt>
<trkpt lat="49.342731423676014" lon="9.10968203097582">
<ele>132.6</ele>
<time>2024-05-08T13:15:27Z</time>
</trkpt>
<trkpt lat="49.3427200242877" lon="9.109727796167135">
<ele>132.8</ele>
<time>2024-05-08T13:15:28Z</time>
</trkpt>
<trkpt lat="49.34270091354847" lon="9.10977833904326">
<ele>132.8</ele>
<time>2024-05-08T13:15:29Z</time>
</trkpt>
<trkpt lat="49.3426856584847" lon="9.109823182225227">
<ele>132.8</ele>
<time>2024-05-08T13:15:30Z</time>
</trkpt>
<trkpt lat="49.342670403420925" lon="9.109869953244925">
<ele>133</ele>
<time>2024-05-08T13:15:31Z</time>
</trkpt>
<trkpt lat="49.34264366514981" lon="9.109970033168793">
<ele>133</ele>
<time>2024-05-08T13:15:32Z</time>
</trkpt>
<trkpt lat="49.34262841008603" lon="9.110025353729725">
<ele>133.2</ele>
<time>2024-05-08T13:15:33Z</time>
</trkpt>
<trkpt lat="49.34261315502226" lon="9.110083524137735">
<ele>133.2</ele>
<time>2024-05-08T13:15:35Z</time>
</trkpt>
<trkpt lat="49.34258650057018" lon="9.110204642638564">
<ele>133.2</ele>
<time>2024-05-08T13:15:37Z</time>
</trkpt>
<trkpt lat="49.34257887303829" lon="9.110266668722034">
<ele>133.2</ele>
<time>2024-05-08T13:15:38Z</time>
</trkpt>
<trkpt lat="49.34255976229906" lon="9.110340094193816">
<ele>133.4</ele>
<time>2024-05-08T13:15:39Z</time>
</trkpt>
<trkpt lat="49.34254836291075" lon="9.110406814143062">
<ele>133.4</ele>
<time>2024-05-08T13:15:40Z</time>
</trkpt>
<trkpt lat="49.3425368797034" lon="9.110474539920688">
<ele>133.4</ele>
<time>2024-05-08T13:15:41Z</time>
</trkpt>
<trkpt lat="49.34252162463963" lon="9.110541343688965">
<ele>133.4</ele>
<time>2024-05-08T13:15:42Z</time>
</trkpt>
<trkpt lat="49.342510141432285" lon="9.11060714162886">
<ele>133.4</ele>
<time>2024-05-08T13:15:43Z</time>
</trkpt>
<trkpt lat="49.34249874204397" lon="9.110671933740376">
<ele>133.4</ele>
<time>2024-05-08T13:15:44Z</time>
</trkpt>
<trkpt lat="49.342491114512086" lon="9.110732953995466">
<ele>133.4</ele>
<time>2024-05-08T13:15:45Z</time>
</trkpt>
<trkpt lat="49.342472003772855" lon="9.110855078324676">
<ele>133.2</ele>
<time>2024-05-08T13:15:47Z</time>
</trkpt>
<trkpt lat="49.34245674870908" lon="9.11098189651966">
<ele>133.2</ele>
<time>2024-05-08T13:15:49Z</time>
</trkpt>
<trkpt lat="49.34244534932077" lon="9.111109720543029">
<ele>133</ele>
<time>2024-05-08T13:15:51Z</time>
</trkpt>
<trkpt lat="49.34244149364531" lon="9.111174512654545">
<ele>133</ele>
<time>2024-05-08T13:15:52Z</time>
</trkpt>
<trkpt lat="49.34242246672511" lon="9.111309964209797">
<ele>133</ele>
<time>2024-05-08T13:15:54Z</time>
</trkpt>
<trkpt lat="49.342410983517766" lon="9.111374840140344">
<ele>133</ele>
<time>2024-05-08T13:15:55Z</time>
</trkpt>
<trkpt lat="49.34238047339022" lon="9.11149780265987">
<ele>133</ele>
<time>2024-05-08T13:15:56Z</time>
</trkpt>
<trkpt lat="49.34236144647002" lon="9.111568378284574">
<ele>133</ele>
<time>2024-05-08T13:15:58Z</time>
</trkpt>
<trkpt lat="49.34234996326268" lon="9.11163995973766">
<ele>132.8</ele>
<time>2024-05-08T13:15:59Z</time>
</trkpt>
<trkpt lat="49.34234619140625" lon="9.11171623505652">
<ele>132.8</ele>
<time>2024-05-08T13:16:00Z</time>
</trkpt>
<trkpt lat="49.34234996326268" lon="9.111786810681224">
<ele>132.8</ele>
<time>2024-05-08T13:16:01Z</time>
</trkpt>
<trkpt lat="49.342376701533794" lon="9.111920334398746">
<ele>132.8</ele>
<time>2024-05-08T13:16:02Z</time>
</trkpt>
<trkpt lat="49.34238810092211" lon="9.111981354653835">
<ele>132.8</ele>
<time>2024-05-08T13:16:04Z</time>
</trkpt>
<trkpt lat="49.342414839193225" lon="9.11210817284882">
<ele>132.8</ele>
<time>2024-05-08T13:16:06Z</time>
</trkpt>
<trkpt lat="49.342430094257" lon="9.11217212677002">
<ele>132.8</ele>
<time>2024-05-08T13:16:07Z</time>
</trkpt>
<trkpt lat="49.34244149364531" lon="9.11223121918738">
<ele>132.8</ele>
<time>2024-05-08T13:16:08Z</time>
</trkpt>
<trkpt lat="49.34245674870908" lon="9.112362815067172">
<ele>132.8</ele>
<time>2024-05-08T13:16:10Z</time>
</trkpt>
<trkpt lat="49.3424834869802" lon="9.11248678341508">
<ele>133</ele>
<time>2024-05-08T13:16:11Z</time>
</trkpt>
<trkpt lat="49.342491114512086" lon="9.112547803670168">
<ele>133</ele>
<time>2024-05-08T13:16:13Z</time>
</trkpt>
<trkpt lat="49.34249488636851" lon="9.112609829753636">
<ele>133.2</ele>
<time>2024-05-08T13:16:14Z</time>
</trkpt>
<trkpt lat="49.34249874204397" lon="9.112673699855804">
<ele>133.2</ele>
<time>2024-05-08T13:16:15Z</time>
</trkpt>
<trkpt lat="49.3425025139004" lon="9.11279959604144">
<ele>133.4</ele>
<time>2024-05-08T13:16:17Z</time>
</trkpt>
<trkpt lat="49.3425025139004" lon="9.11286162212491">
<ele>133.4</ele>
<time>2024-05-08T13:16:18Z</time>
</trkpt>
<trkpt lat="49.34250636957586" lon="9.11292163655162">
<ele>133.2</ele>
<time>2024-05-08T13:16:19Z</time>
</trkpt>
<trkpt lat="49.34250636957586" lon="9.112984584644437">
<ele>133.2</ele>
<time>2024-05-08T13:16:20Z</time>
</trkpt>
<trkpt lat="49.3425025139004" lon="9.113048538565636">
<ele>133.2</ele>
<time>2024-05-08T13:16:21Z</time>
</trkpt>
<trkpt lat="49.342491114512086" lon="9.113173428922892">
<ele>133</ele>
<time>2024-05-08T13:16:22Z</time>
</trkpt>
<trkpt lat="49.34248725883663" lon="9.11323637701571">
<ele>133</ele>
<time>2024-05-08T13:16:24Z</time>
</trkpt>
<trkpt lat="49.34247963130474" lon="9.11335464566946">
<ele>132.8</ele>
<time>2024-05-08T13:16:26Z</time>
</trkpt>
<trkpt lat="49.34248725883663" lon="9.113409966230392">
<ele>132.8</ele>
<time>2024-05-08T13:16:27Z</time>
</trkpt>
<trkpt lat="49.34249488636851" lon="9.113459587097168">
<ele>132.8</ele>
<time>2024-05-08T13:16:28Z</time>
</trkpt>
<trkpt lat="49.34250636957586" lon="9.113503424450755">
<ele>132.8</ele>
<time>2024-05-08T13:16:29Z</time>
</trkpt>
<trkpt lat="49.342513997107744" lon="9.113545417785645">
<ele>132.6</ele>
<time>2024-05-08T13:16:30Z</time>
</trkpt>
<trkpt lat="49.3425368797034" lon="9.113619765266776">
<ele>132.6</ele>
<time>2024-05-08T13:16:31Z</time>
</trkpt>
<trkpt lat="49.34254450723529" lon="9.113657902926208">
<ele>132.6</ele>
<time>2024-05-08T13:16:32Z</time>
</trkpt>
<trkpt lat="49.342555990442634" lon="9.11369126290083">
<ele>132.6</ele>
<time>2024-05-08T13:16:33Z</time>
</trkpt>
<trkpt lat="49.34256361797452" lon="9.113721773028374">
<ele>132.6</ele>
<time>2024-05-08T13:16:34Z</time>
</trkpt>
<trkpt lat="49.342571245506406" lon="9.11375043913722">
<ele>132.8</ele>
<time>2024-05-08T13:16:36Z</time>
</trkpt>
<trkpt lat="49.34257501736283" lon="9.113775249570608">
<ele>132.8</ele>
<time>2024-05-08T13:16:37Z</time>
</trkpt>
<trkpt lat="49.342571245506406" lon="9.113799976184964">
<ele>132.8</ele>
<time>2024-05-08T13:16:38Z</time>
</trkpt>
<trkpt lat="49.34256361797452" lon="9.113821936771274">
<ele>132.8</ele>
<time>2024-05-08T13:16:39Z</time>
</trkpt>
<trkpt lat="49.342555990442634" lon="9.113842891529202">
<ele>133</ele>
<time>2024-05-08T13:16:40Z</time>
</trkpt>
<trkpt lat="49.34254073537886" lon="9.113860074430704">
<ele>133.2</ele>
<time>2024-05-08T13:16:41Z</time>
</trkpt>
<trkpt lat="49.34252548031509" lon="9.11386870779097">
<ele>133.2</ele>
<time>2024-05-08T13:16:42Z</time>
</trkpt>
<trkpt lat="49.34248725883663" lon="9.11388874053955">
<ele>133.6</ele>
<time>2024-05-08T13:16:43Z</time>
</trkpt>
<trkpt lat="49.3424491211772" lon="9.113882035017014">
<ele>133.8</ele>
<time>2024-05-08T13:16:45Z</time>
</trkpt>
<trkpt lat="49.34238810092211" lon="9.113922100514174">
<ele>133.8</ele>
<time>2024-05-08T13:16:47Z</time>
</trkpt>
<trkpt lat="49.34232708066702" lon="9.11398689262569">
<ele>133.8</ele>
<time>2024-05-08T13:16:48Z</time>
</trkpt>
<trkpt lat="49.34230419807136" lon="9.11402796395123">
<ele>133.8</ele>
<time>2024-05-08T13:16:50Z</time>
</trkpt>
<trkpt lat="49.34226606041193" lon="9.11412519402802">
<ele>133.8</ele>
<time>2024-05-08T13:16:52Z</time>
</trkpt>
<trkpt lat="49.342254577204585" lon="9.114178586751224">
<ele>133.8</ele>
<time>2024-05-08T13:16:53Z</time>
</trkpt>
<trkpt lat="49.34224317781627" lon="9.114230135455728">
<ele>133.8</ele>
<time>2024-05-08T13:16:54Z</time>
</trkpt>
<trkpt lat="49.34223932214081" lon="9.11428352817893">
<ele>133.6</ele>
<time>2024-05-08T13:16:55Z</time>
</trkpt>
<trkpt lat="49.34223169460893" lon="9.114333149045706">
<ele>133.6</ele>
<time>2024-05-08T13:16:56Z</time>
</trkpt>
<trkpt lat="49.34222029522061" lon="9.114435156807303">
<ele>133.6</ele>
<time>2024-05-08T13:16:57Z</time>
</trkpt>
<trkpt lat="49.342216439545155" lon="9.114488549530506">
<ele>133.6</ele>
<time>2024-05-08T13:16:59Z</time>
</trkpt>
<trkpt lat="49.34221266768873" lon="9.114546719938517">
<ele>133.6</ele>
<time>2024-05-08T13:17:00Z</time>
</trkpt>
<trkpt lat="49.34221266768873" lon="9.114602962508798">
<ele>133.6</ele>
<time>2024-05-08T13:17:01Z</time>
</trkpt>
<trkpt lat="49.34220881201327" lon="9.114663060754538">
<ele>133.6</ele>
<time>2024-05-08T13:17:02Z</time>
</trkpt>
<trkpt lat="49.342216439545155" lon="9.114721231162548">
<ele>133.6</ele>
<time>2024-05-08T13:17:03Z</time>
</trkpt>
<trkpt lat="49.34223169460893" lon="9.114845199510455">
<ele>133.6</ele>
<time>2024-05-08T13:17:05Z</time>
</trkpt>
<trkpt lat="49.34223932214081" lon="9.114908147603272">
<ele>133.6</ele>
<time>2024-05-08T13:17:06Z</time>
</trkpt>
<trkpt lat="49.3422469496727" lon="9.114972101524472">
<ele>133.6</ele>
<time>2024-05-08T13:17:07Z</time>
</trkpt>
<trkpt lat="49.34225080534816" lon="9.115108475089071">
<ele>133.6</ele>
<time>2024-05-08T13:17:09Z</time>
</trkpt>
<trkpt lat="49.342254577204585" lon="9.115242920815945">
<ele>133.6</ele>
<time>2024-05-08T13:17:11Z</time>
</trkpt>
<trkpt lat="49.34225843288005" lon="9.11531156860292">
<ele>133.6</ele>
<time>2024-05-08T13:17:12Z</time>
</trkpt>
<trkpt lat="49.34226606041193" lon="9.115443164482713">
<ele>133.8</ele>
<time>2024-05-08T13:17:14Z</time>
</trkpt>
<trkpt lat="49.34227745980024" lon="9.115507118403912">
<ele>133.8</ele>
<time>2024-05-08T13:17:15Z</time>
</trkpt>
<trkpt lat="49.34228508733213" lon="9.115571910515428">
<ele>133.8</ele>
<time>2024-05-08T13:17:16Z</time>
</trkpt>
<trkpt lat="49.34230419807136" lon="9.115699734538794">
<ele>134</ele>
<time>2024-05-08T13:17:17Z</time>
</trkpt>
<trkpt lat="49.34231182560325" lon="9.11576461046934">
<ele>134</ele>
<time>2024-05-08T13:17:19Z</time>
</trkpt>
<trkpt lat="49.342315597459674" lon="9.11588472314179">
<ele>134.2</ele>
<time>2024-05-08T13:17:21Z</time>
</trkpt>
<trkpt lat="49.34231182560325" lon="9.115948677062988">
<ele>134.4</ele>
<time>2024-05-08T13:17:22Z</time>
</trkpt>
<trkpt lat="49.342296570539474" lon="9.116066861897709">
<ele>134.4</ele>
<time>2024-05-08T13:17:24Z</time>
</trkpt>
<trkpt lat="49.34226983226836" lon="9.116178508847952">
<ele>134.4</ele>
<time>2024-05-08T13:17:26Z</time>
</trkpt>
<trkpt lat="49.342254577204585" lon="9.116243300959468">
<ele>134.4</ele>
<time>2024-05-08T13:17:27Z</time>
</trkpt>
<trkpt lat="49.34222406707704" lon="9.116363497450948">
<ele>134.6</ele>
<time>2024-05-08T13:17:28Z</time>
</trkpt>
<trkpt lat="49.34222029522061" lon="9.116413034498692">
<ele>134.6</ele>
<time>2024-05-08T13:17:29Z</time>
</trkpt>
<trkpt lat="49.3422279227525" lon="9.116468355059624">
<ele>134.6</ele>
<time>2024-05-08T13:17:31Z</time>
</trkpt>
<trkpt lat="49.342235550284386" lon="9.116524681448936">
<ele>134.6</ele>
<time>2024-05-08T13:17:32Z</time>
</trkpt>
<trkpt lat="49.34226983226836" lon="9.116629539057612">
<ele>134.6</ele>
<time>2024-05-08T13:17:33Z</time>
</trkpt>
<trkpt lat="49.342296570539474" lon="9.116698186844587">
<ele>134.6</ele>
<time>2024-05-08T13:17:36Z</time>
</trkpt>
<trkpt lat="49.342330852523446" lon="9.11681360565126">
<ele>134.6</ele>
<time>2024-05-08T13:17:37Z</time>
</trkpt>
<trkpt lat="49.34236907400191" lon="9.11697001196444">
<ele>134.6</ele>
<time>2024-05-08T13:17:39Z</time>
</trkpt>
<trkpt lat="49.34238810092211" lon="9.11703296005726">
<ele>134.8</ele>
<time>2024-05-08T13:17:40Z</time>
</trkpt>
<trkpt lat="49.342430094257" lon="9.1171464510262">
<ele>134.8</ele>
<time>2024-05-08T13:17:42Z</time>
</trkpt>
<trkpt lat="49.3424834869802" lon="9.1172484587878">
<ele>134.8</ele>
<time>2024-05-08T13:17:44Z</time>
</trkpt>
<trkpt lat="49.3425178527832" lon="9.117300007492304">
<ele>134.8</ele>
<time>2024-05-08T13:17:45Z</time>
</trkpt>
<trkpt lat="49.34257501736283" lon="9.117413498461246">
<ele>134.8</ele>
<time>2024-05-08T13:17:47Z</time>
</trkpt>
<trkpt lat="49.342632265761495" lon="9.11756319925189">
<ele>135</ele>
<time>2024-05-08T13:17:49Z</time>
</trkpt>
<trkpt lat="49.34267417527735" lon="9.117716755717993">
<ele>135.2</ele>
<time>2024-05-08T13:17:51Z</time>
</trkpt>
<trkpt lat="49.34270476922393" lon="9.117873162031174">
<ele>135.4</ele>
<time>2024-05-08T13:17:53Z</time>
</trkpt>
<trkpt lat="49.342712396755815" lon="9.117950359359384">
<ele>135.4</ele>
<time>2024-05-08T13:17:54Z</time>
</trkpt>
<trkpt lat="49.3427200242877" lon="9.118026718497276">
<ele>135.4</ele>
<time>2024-05-08T13:17:55Z</time>
</trkpt>
<trkpt lat="49.34272379614413" lon="9.118106765672565">
<ele>135.6</ele>
<time>2024-05-08T13:17:56Z</time>
</trkpt>
<trkpt lat="49.34273527935147" lon="9.118183124810455">
<ele>135.6</ele>
<time>2024-05-08T13:17:57Z</time>
</trkpt>
<trkpt lat="49.342746678739786" lon="9.11825655028224">
<ele>135.8</ele>
<time>2024-05-08T13:17:58Z</time>
</trkpt>
<trkpt lat="49.34276193380356" lon="9.118323270231484">
<ele>135.8</ele>
<time>2024-05-08T13:17:59Z</time>
</trkpt>
<trkpt lat="49.34278481639922" lon="9.118390073999764">
<ele>135.8</ele>
<time>2024-05-08T13:18:00Z</time>
</trkpt>
<trkpt lat="49.342811554670334" lon="9.11845302209258">
<ele>136</ele>
<time>2024-05-08T13:18:01Z</time>
</trkpt>
<trkpt lat="49.34285731986165" lon="9.118576990440488">
<ele>136</ele>
<time>2024-05-08T13:18:02Z</time>
</trkpt>
<trkpt lat="49.34288020245731" lon="9.118637004867196">
<ele>136</ele>
<time>2024-05-08T13:18:03Z</time>
</trkpt>
<trkpt lat="49.34290308505297" lon="9.118695259094238">
<ele>136.2</ele>
<time>2024-05-08T13:18:05Z</time>
</trkpt>
<trkpt lat="49.3429221957922" lon="9.118762901052833">
<ele>136.2</ele>
<time>2024-05-08T13:18:06Z</time>
</trkpt>
<trkpt lat="49.342964105308056" lon="9.118900280445814">
<ele>136.2</ele>
<time>2024-05-08T13:18:08Z</time>
</trkpt>
<trkpt lat="49.34299084357917" lon="9.11896800622344">
<ele>136.2</ele>
<time>2024-05-08T13:18:09Z</time>
</trkpt>
<trkpt lat="49.34301372617483" lon="9.119038581848145">
<ele>136.2</ele>
<time>2024-05-08T13:18:10Z</time>
</trkpt>
<trkpt lat="49.34303660877049" lon="9.11910337395966">
<ele>136.2</ele>
<time>2024-05-08T13:18:11Z</time>
</trkpt>
<trkpt lat="49.34305186383426" lon="9.1191634722054">
<ele>136.2</ele>
<time>2024-05-08T13:18:12Z</time>
</trkpt>
<trkpt lat="49.34307474642992" lon="9.11922357045114">
<ele>136</ele>
<time>2024-05-08T13:18:13Z</time>
</trkpt>
<trkpt lat="49.34311673976481" lon="9.119353238493204">
<ele>135.8</ele>
<time>2024-05-08T13:18:15Z</time>
</trkpt>
<trkpt lat="49.343143394216895" lon="9.11942289210856">
<ele>135.6</ele>
<time>2024-05-08T13:18:16Z</time>
</trkpt>
<trkpt lat="49.3431967869401" lon="9.119564965367315">
<ele>135.6</ele>
<time>2024-05-08T13:18:17Z</time>
</trkpt>
<trkpt lat="49.34321975335479" lon="9.119631685316564">
<ele>135.8</ele>
<time>2024-05-08T13:18:18Z</time>
</trkpt>
<trkpt lat="49.34324640780687" lon="9.11969848908484">
<ele>135.8</ele>
<time>2024-05-08T13:18:19Z</time>
</trkpt>
<trkpt lat="49.34326929040253" lon="9.119765209034083">
<ele>135.6</ele>
<time>2024-05-08T13:18:20Z</time>
</trkpt>
<trkpt lat="49.34329602867365" lon="9.11983486264944">
<ele>135.6</ele>
<time>2024-05-08T13:18:21Z</time>
</trkpt>
<trkpt lat="49.34331891126931" lon="9.119905438274143">
<ele>135.6</ele>
<time>2024-05-08T13:18:22Z</time>
</trkpt>
<trkpt lat="49.34334556572139" lon="9.119973164051771">
<ele>135.6</ele>
<time>2024-05-08T13:18:24Z</time>
</trkpt>
<trkpt lat="49.34340666979551" lon="9.120106687769294">
<ele>135.4</ele>
<time>2024-05-08T13:18:26Z</time>
</trkpt>
<trkpt lat="49.343440951779485" lon="9.120176257565618">
<ele>135.4</ele>
<time>2024-05-08T13:18:27Z</time>
</trkpt>
<trkpt lat="49.34347531758249" lon="9.120243061333897">
<ele>135.4</ele>
<time>2024-05-08T13:18:28Z</time>
</trkpt>
<trkpt lat="49.34353248216212" lon="9.120360324159265">
<ele>135.4</ele>
<time>2024-05-08T13:18:30Z</time>
</trkpt>
<trkpt lat="49.34355544857681" lon="9.120416566729546">
<ele>135.4</ele>
<time>2024-05-08T13:18:31Z</time>
</trkpt>
<trkpt lat="49.343578331172466" lon="9.120471887290478">
<ele>135.4</ele>
<time>2024-05-08T13:18:32Z</time>
</trkpt>
<trkpt lat="49.34360498562455" lon="9.12056635133922">
<ele>135.4</ele>
<time>2024-05-08T13:18:34Z</time>
</trkpt>
<trkpt lat="49.34362786822021" lon="9.120623515918853">
<ele>135.2</ele>
<time>2024-05-08T13:18:35Z</time>
</trkpt>
<trkpt lat="49.34365075081587" lon="9.12068361416459">
<ele>135.2</ele>
<time>2024-05-08T13:18:36Z</time>
</trkpt>
<trkpt lat="49.34367363341153" lon="9.1207417845726">
<ele>135.4</ele>
<time>2024-05-08T13:18:37Z</time>
</trkpt>
<trkpt lat="49.34370037168264" lon="9.12080188281834">
<ele>135.4</ele>
<time>2024-05-08T13:18:38Z</time>
</trkpt>
<trkpt lat="49.34372710995376" lon="9.12086198106408">
<ele>135.4</ele>
<time>2024-05-08T13:18:39Z</time>
</trkpt>
<trkpt lat="49.343776647001505" lon="9.120969772338867">
<ele>135.4</ele>
<time>2024-05-08T13:18:41Z</time>
</trkpt>
<trkpt lat="49.34379952959716" lon="9.12102316506207">
<ele>135.4</ele>
<time>2024-05-08T13:18:42Z</time>
</trkpt>
<trkpt lat="49.343818640336394" lon="9.121074629947543">
<ele>135.4</ele>
<time>2024-05-08T13:18:43Z</time>
</trkpt>
<trkpt lat="49.34386054985225" lon="9.121183343231678">
<ele>135.4</ele>
<time>2024-05-08T13:18:44Z</time>
</trkpt>
<trkpt lat="49.34388728812337" lon="9.12123673595488">
<ele>135.4</ele>
<time>2024-05-08T13:18:45Z</time>
</trkpt>
<trkpt lat="49.343914026394486" lon="9.121294906362891">
<ele>135.4</ele>
<time>2024-05-08T13:18:47Z</time>
</trkpt>
<trkpt lat="49.34394830837846" lon="9.121351232752204">
<ele>135.6</ele>
<time>2024-05-08T13:18:48Z</time>
</trkpt>
<trkpt lat="49.344013184309006" lon="9.121477045118809">
<ele>135.6</ele>
<time>2024-05-08T13:18:49Z</time>
</trkpt>
<trkpt lat="49.34403983876109" lon="9.12153814919293">
<ele>135.8</ele>
<time>2024-05-08T13:18:51Z</time>
</trkpt>
<trkpt lat="49.344093315303326" lon="9.12165641784668">
<ele>136</ele>
<time>2024-05-08T13:18:53Z</time>
</trkpt>
<trkpt lat="49.34414670802653" lon="9.121767980977893">
<ele>136</ele>
<time>2024-05-08T13:18:55Z</time>
</trkpt>
<trkpt lat="49.344173362478614" lon="9.121828079223633">
<ele>136</ele>
<time>2024-05-08T13:18:56Z</time>
</trkpt>
<trkpt lat="49.34420387260616" lon="9.12189002148807">
<ele>136</ele>
<time>2024-05-08T13:18:57Z</time>
</trkpt>
<trkpt lat="49.34426497668028" lon="9.12201021797955">
<ele>136</ele>
<time>2024-05-08T13:18:58Z</time>
</trkpt>
<trkpt lat="49.34428785927594" lon="9.122064532712102">
<ele>136</ele>
<time>2024-05-08T13:19:00Z</time>
</trkpt>
<trkpt lat="49.344310741871595" lon="9.122117925435305">
<ele>136.2</ele>
<time>2024-05-08T13:19:01Z</time>
</trkpt>
<trkpt lat="49.34434125199914" lon="9.122177101671696">
<ele>136.2</ele>
<time>2024-05-08T13:19:02Z</time>
</trkpt>
<trkpt lat="49.34437176212669" lon="9.122236194089057">
<ele>136.2</ele>
<time>2024-05-08T13:19:03Z</time>
</trkpt>
<trkpt lat="49.34443663805723" lon="9.122355384752154">
<ele>136.2</ele>
<time>2024-05-08T13:19:04Z</time>
</trkpt>
<trkpt lat="49.34447477571666" lon="9.122421182692053">
<ele>136.2</ele>
<time>2024-05-08T13:19:05Z</time>
</trkpt>
<trkpt lat="49.344509057700634" lon="9.122474659234284">
<ele>136.4</ele>
<time>2024-05-08T13:19:07Z</time>
</trkpt>
<trkpt lat="49.34454342350364" lon="9.122534673660994">
<ele>136.4</ele>
<time>2024-05-08T13:19:08Z</time>
</trkpt>
<trkpt lat="49.34457778930664" lon="9.122594771906734">
<ele>136.4</ele>
<time>2024-05-08T13:19:09Z</time>
</trkpt>
<trkpt lat="49.344646437093616" lon="9.122712118551137">
<ele>136.4</ele>
<time>2024-05-08T13:19:11Z</time>
</trkpt>
<trkpt lat="49.34468071907759" lon="9.122766433283688">
<ele>136.4</ele>
<time>2024-05-08T13:19:12Z</time>
</trkpt>
<trkpt lat="49.34474173933267" lon="9.122870368883014">
<ele>136.6</ele>
<time>2024-05-08T13:19:13Z</time>
</trkpt>
<trkpt lat="49.34477996081114" lon="9.122928539291024">
<ele>136.8</ele>
<time>2024-05-08T13:19:15Z</time>
</trkpt>
<trkpt lat="49.34485238045454" lon="9.123033480718732">
<ele>136.8</ele>
<time>2024-05-08T13:19:17Z</time>
</trkpt>
<trkpt lat="49.34487911872566" lon="9.123086873441936">
<ele>136.8</ele>
<time>2024-05-08T13:19:18Z</time>
</trkpt>
<trkpt lat="49.34491340070963" lon="9.123140266165136">
<ele>136.8</ele>
<time>2024-05-08T13:19:19Z</time>
</trkpt>
<trkpt lat="49.34495539404452" lon="9.123256606981158">
<ele>136.8</ele>
<time>2024-05-08T13:19:21Z</time>
</trkpt>
<trkpt lat="49.34497450478375" lon="9.123310083523393">
<ele>136.8</ele>
<time>2024-05-08T13:19:22Z</time>
</trkpt>
<trkpt lat="49.34501264244318" lon="9.123423574492335">
<ele>136.8</ele>
<time>2024-05-08T13:19:24Z</time>
</trkpt>
<trkpt lat="49.34505078010261" lon="9.123537987470629">
<ele>137</ele>
<time>2024-05-08T13:19:26Z</time>
</trkpt>
<trkpt lat="49.345077434554696" lon="9.123601857572794">
<ele>137</ele>
<time>2024-05-08T13:19:27Z</time>
</trkpt>
<trkpt lat="49.34509654529393" lon="9.123661955818534">
<ele>137</ele>
<time>2024-05-08T13:19:28Z</time>
</trkpt>
<trkpt lat="49.345119427889585" lon="9.123724903911352">
<ele>137</ele>
<time>2024-05-08T13:19:29Z</time>
</trkpt>
<trkpt lat="49.34513853862882" lon="9.123778296634557">
<ele>136.8</ele>
<time>2024-05-08T13:19:30Z</time>
</trkpt>
<trkpt lat="49.345161421224475" lon="9.123834539204836">
<ele>137</ele>
<time>2024-05-08T13:19:31Z</time>
</trkpt>
<trkpt lat="49.34518807567656" lon="9.123889859765768">
<ele>137</ele>
<time>2024-05-08T13:19:32Z</time>
</trkpt>
<trkpt lat="49.34520333074033" lon="9.12394710816443">
<ele>137</ele>
<time>2024-05-08T13:19:33Z</time>
</trkpt>
<trkpt lat="49.34521481394768" lon="9.12400142289698">
<ele>137</ele>
<time>2024-05-08T13:19:34Z</time>
</trkpt>
<trkpt lat="49.34524146839976" lon="9.12412161938846">
<ele>136.8</ele>
<time>2024-05-08T13:19:35Z</time>
</trkpt>
<trkpt lat="49.34525295160711" lon="9.124188423156738">
<ele>136.6</ele>
<time>2024-05-08T13:19:37Z</time>
</trkpt>
<trkpt lat="49.345256723463535" lon="9.124253215268254">
<ele>136.6</ele>
<time>2024-05-08T13:19:38Z</time>
</trkpt>
<trkpt lat="49.34526820667088" lon="9.12432286888361">
<ele>136.6</ele>
<time>2024-05-08T13:19:39Z</time>
</trkpt>
<trkpt lat="49.34528346173465" lon="9.124389588832855">
<ele>136.6</ele>
<time>2024-05-08T13:19:40Z</time>
</trkpt>
<trkpt lat="49.34530257247389" lon="9.124462092295287">
<ele>136.4</ele>
<time>2024-05-08T13:19:41Z</time>
</trkpt>
<trkpt lat="49.3453483376652" lon="9.124601315706968">
<ele>136.4</ele>
<time>2024-05-08T13:19:43Z</time>
</trkpt>
<trkpt lat="49.34539410285652" lon="9.1247396171093">
<ele>136.2</ele>
<time>2024-05-08T13:19:44Z</time>
</trkpt>
<trkpt lat="49.34541312977672" lon="9.124812120571733">
<ele>136</ele>
<time>2024-05-08T13:19:45Z</time>
</trkpt>
<trkpt lat="49.345436096191406" lon="9.124876912683249">
<ele>136</ele>
<time>2024-05-08T13:19:47Z</time>
</trkpt>
<trkpt lat="49.345458978787065" lon="9.12493323907256">
<ele>135.8</ele>
<time>2024-05-08T13:19:48Z</time>
</trkpt>
<trkpt lat="49.34548563323915" lon="9.124983781948686">
<ele>135.8</ele>
<time>2024-05-08T13:19:49Z</time>
</trkpt>
<trkpt lat="49.345497116446495" lon="9.12507338449359">
<ele>135.8</ele>
<time>2024-05-08T13:19:50Z</time>
</trkpt>
<trkpt lat="49.34551237151027" lon="9.1251315549016">
<ele>135.8</ele>
<time>2024-05-08T13:19:51Z</time>
</trkpt>
<trkpt lat="49.345535254105926" lon="9.12522786296904">
<ele>136</ele>
<time>2024-05-08T13:19:53Z</time>
</trkpt>
<trkpt lat="49.34556190855801" lon="9.125340431928636">
<ele>136.2</ele>
<time>2024-05-08T13:19:55Z</time>
</trkpt>
<trkpt lat="49.3455695360899" lon="9.125403380021451">
<ele>136.4</ele>
<time>2024-05-08T13:19:56Z</time>
</trkpt>
<trkpt lat="49.34558101929724" lon="9.125459622591734">
<ele>136.6</ele>
<time>2024-05-08T13:19:57Z</time>
</trkpt>
<trkpt lat="49.34560775756836" lon="9.125573113560677">
<ele>136.6</ele>
<time>2024-05-08T13:19:59Z</time>
</trkpt>
<trkpt lat="49.34564589522779" lon="9.125688532367349">
<ele>136.8</ele>
<time>2024-05-08T13:20:00Z</time>
</trkpt>
<trkpt lat="49.34566115029156" lon="9.12574670277536">
<ele>137</ele>
<time>2024-05-08T13:20:01Z</time>
</trkpt>
<trkpt lat="49.34568017721176" lon="9.12580487318337">
<ele>137.2</ele>
<time>2024-05-08T13:20:03Z</time>
</trkpt>
<trkpt lat="49.34569928795099" lon="9.125860193744302">
<ele>137.2</ele>
<time>2024-05-08T13:20:04Z</time>
</trkpt>
<trkpt lat="49.34574505314231" lon="9.12596027366817">
<ele>137.6</ele>
<time>2024-05-08T13:20:06Z</time>
</trkpt>
<trkpt lat="49.345771707594395" lon="9.12600033916533">
<ele>137.6</ele>
<time>2024-05-08T13:20:07Z</time>
</trkpt>
<trkpt lat="49.345794674009085" lon="9.126034704968331">
<ele>137.6</ele>
<time>2024-05-08T13:20:08Z</time>
</trkpt>
<trkpt lat="49.34582132846117" lon="9.126068064942956">
<ele>137.6</ele>
<time>2024-05-08T13:20:09Z</time>
</trkpt>
<trkpt lat="49.34587472118437" lon="9.12613956257701">
<ele>137.6</ele>
<time>2024-05-08T13:20:11Z</time>
</trkpt>
<trkpt lat="49.34589760378003" lon="9.12617870606482">
<ele>137.6</ele>
<time>2024-05-08T13:20:12Z</time>
</trkpt>
<trkpt lat="49.34591671451926" lon="9.12621969357133">
<ele>137.6</ele>
<time>2024-05-08T13:20:13Z</time>
</trkpt>
<trkpt lat="49.34593574143946" lon="9.126266464591026">
<ele>137.8</ele>
<time>2024-05-08T13:20:14Z</time>
</trkpt>
<trkpt lat="49.34595485217869" lon="9.126321785151958">
<ele>137.8</ele>
<time>2024-05-08T13:20:15Z</time>
</trkpt>
<trkpt lat="49.34595870785415" lon="9.12637710571289">
<ele>137.8</ele>
<time>2024-05-08T13:20:16Z</time>
</trkpt>
<trkpt lat="49.34596633538604" lon="9.126433348283172">
<ele>138</ele>
<time>2024-05-08T13:20:17Z</time>
</trkpt>
<trkpt lat="49.345970107242465" lon="9.126489590853453">
<ele>138</ele>
<time>2024-05-08T13:20:18Z</time>
</trkpt>
<trkpt lat="49.34597396291792" lon="9.126544911414385">
<ele>138</ele>
<time>2024-05-08T13:20:19Z</time>
</trkpt>
<trkpt lat="49.34597396291792" lon="9.126649852842093">
<ele>138.2</ele>
<time>2024-05-08T13:20:20Z</time>
</trkpt>
<trkpt lat="49.345970107242465" lon="9.126700395718215">
<ele>138.2</ele>
<time>2024-05-08T13:20:22Z</time>
</trkpt>
<trkpt lat="49.34595485217869" lon="9.1268100310117">
<ele>138.4</ele>
<time>2024-05-08T13:20:24Z</time>
</trkpt>
<trkpt lat="49.34593959711492" lon="9.1269101947546">
<ele>138.4</ele>
<time>2024-05-08T13:20:26Z</time>
</trkpt>
<trkpt lat="49.345931969583035" lon="9.126948332414033">
<ele>138.4</ele>
<time>2024-05-08T13:20:27Z</time>
</trkpt>
<trkpt lat="49.34593574143946" lon="9.127039862796664">
<ele>138.6</ele>
<time>2024-05-08T13:20:29Z</time>
</trkpt>
<trkpt lat="49.34593574143946" lon="9.127175314351916">
<ele>138.8</ele>
<time>2024-05-08T13:20:31Z</time>
</trkpt>
<trkpt lat="49.34594336897135" lon="9.127294505015016">
<ele>138.8</ele>
<time>2024-05-08T13:20:33Z</time>
</trkpt>
<trkpt lat="49.34596633538604" lon="9.127428028732538">
<ele>139</ele>
<time>2024-05-08T13:20:34Z</time>
</trkpt>
<trkpt lat="49.345970107242465" lon="9.127496676519511">
<ele>139</ele>
<time>2024-05-08T13:20:36Z</time>
</trkpt>
<trkpt lat="49.34597773477435" lon="9.127559624612331">
<ele>139.2</ele>
<time>2024-05-08T13:20:37Z</time>
</trkpt>
<trkpt lat="49.34599298983812" lon="9.127691220492125">
<ele>139.2</ele>
<time>2024-05-08T13:20:39Z</time>
</trkpt>
<trkpt lat="49.346008244901896" lon="9.12781996652484">
<ele>139.2</ele>
<time>2024-05-08T13:20:41Z</time>
</trkpt>
<trkpt lat="49.34602349996567" lon="9.127949634566903">
<ele>139.4</ele>
<time>2024-05-08T13:20:43Z</time>
</trkpt>
<trkpt lat="49.34603498317301" lon="9.128021216019988">
<ele>139.4</ele>
<time>2024-05-08T13:20:44Z</time>
</trkpt>
<trkpt lat="49.34605401009321" lon="9.128246270120144">
<ele>139.6</ele>
<time>2024-05-08T13:20:47Z</time>
</trkpt>
<trkpt lat="49.34605786576867" lon="9.128321623429656">
<ele>139.8</ele>
<time>2024-05-08T13:20:48Z</time>
</trkpt>
<trkpt lat="49.34606549330056" lon="9.12847040221095">
<ele>139.8</ele>
<time>2024-05-08T13:20:50Z</time>
</trkpt>
<trkpt lat="49.34606549330056" lon="9.128541899845004">
<ele>140</ele>
<time>2024-05-08T13:20:51Z</time>
</trkpt>
<trkpt lat="49.34606549330056" lon="9.128683051094413">
<ele>140</ele>
<time>2024-05-08T13:20:53Z</time>
</trkpt>
<trkpt lat="49.34607312083244" lon="9.128751698881388">
<ele>139.8</ele>
<time>2024-05-08T13:20:54Z</time>
</trkpt>
<trkpt lat="49.34607689268887" lon="9.128818502649665">
<ele>139.8</ele>
<time>2024-05-08T13:20:55Z</time>
</trkpt>
<trkpt lat="49.346088375896215" lon="9.128881450742483">
<ele>139.8</ele>
<time>2024-05-08T13:20:56Z</time>
</trkpt>
<trkpt lat="49.34610363095999" lon="9.12900349125266">
<ele>139.8</ele>
<time>2024-05-08T13:20:58Z</time>
</trkpt>
<trkpt lat="49.346126513555646" lon="9.12912653759122">
<ele>140</ele>
<time>2024-05-08T13:21:00Z</time>
</trkpt>
<trkpt lat="49.34614176861942" lon="9.129258133471012">
<ele>140</ele>
<time>2024-05-08T13:21:01Z</time>
</trkpt>
<trkpt lat="49.346149396151304" lon="9.12932200357318">
<ele>140</ele>
<time>2024-05-08T13:21:03Z</time>
</trkpt>
<trkpt lat="49.346168506890535" lon="9.129443122074008">
<ele>140</ele>
<time>2024-05-08T13:21:04Z</time>
</trkpt>
<trkpt lat="49.34617613442242" lon="9.129501292482018">
<ele>140</ele>
<time>2024-05-08T13:21:05Z</time>
</trkpt>
<trkpt lat="49.34617990627885" lon="9.129549907520412">
<ele>139.8</ele>
<time>2024-05-08T13:21:06Z</time>
</trkpt>
<trkpt lat="49.34619516134262" lon="9.129599528387187">
<ele>139.8</ele>
<time>2024-05-08T13:21:08Z</time>
</trkpt>
<trkpt lat="49.34622189961374" lon="9.12969684228301">
<ele>139.6</ele>
<time>2024-05-08T13:21:10Z</time>
</trkpt>
<trkpt lat="49.346248554065824" lon="9.129799772053955">
<ele>139.6</ele>
<time>2024-05-08T13:21:12Z</time>
</trkpt>
<trkpt lat="49.3462638091296" lon="9.12985702045262">
<ele>139.6</ele>
<time>2024-05-08T13:21:13Z</time>
</trkpt>
<trkpt lat="49.346305802464485" lon="9.129962883889675">
<ele>139.6</ele>
<time>2024-05-08T13:21:14Z</time>
</trkpt>
<trkpt lat="49.34632491320371" lon="9.130024909973145">
<ele>139.8</ele>
<time>2024-05-08T13:21:16Z</time>
</trkpt>
<trkpt lat="49.34634394012392" lon="9.13008970208466">
<ele>140</ele>
<time>2024-05-08T13:21:17Z</time>
</trkpt>
<trkpt lat="49.34639356099069" lon="9.130234709009528">
<ele>140</ele>
<time>2024-05-08T13:21:19Z</time>
</trkpt>
<trkpt lat="49.34642407111824" lon="9.130316684022546">
<ele>140.2</ele>
<time>2024-05-08T13:21:20Z</time>
</trkpt>
<trkpt lat="49.34645458124578" lon="9.130379632115364">
<ele>140</ele>
<time>2024-05-08T13:21:21Z</time>
</trkpt>
<trkpt lat="49.3464813195169" lon="9.130439730361104">
<ele>140</ele>
<time>2024-05-08T13:21:22Z</time>
</trkpt>
<trkpt lat="49.34650797396898" lon="9.130495050922036">
<ele>140</ele>
<time>2024-05-08T13:21:23Z</time>
</trkpt>
<trkpt lat="49.3465347122401" lon="9.13054844364524">
<ele>140</ele>
<time>2024-05-08T13:21:24Z</time>
</trkpt>
<trkpt lat="49.346561366692185" lon="9.130603764206173">
<ele>140</ele>
<time>2024-05-08T13:21:25Z</time>
</trkpt>
<trkpt lat="49.3466071318835" lon="9.130698144435884">
<ele>140</ele>
<time>2024-05-08T13:21:27Z</time>
</trkpt>
<trkpt lat="49.34665675275028" lon="9.130789674818516">
<ele>139.8</ele>
<time>2024-05-08T13:21:29Z</time>
</trkpt>
<trkpt lat="49.346683491021395" lon="9.130829740315676">
<ele>139.8</ele>
<time>2024-05-08T13:21:30Z</time>
</trkpt>
<trkpt lat="49.34673302806914" lon="9.130923198536038">
<ele>139.8</ele>
<time>2024-05-08T13:21:31Z</time>
</trkpt>
<trkpt lat="49.346759766340256" lon="9.130969969555736">
<ele>139.8</ele>
<time>2024-05-08T13:21:33Z</time>
</trkpt>
<trkpt lat="49.34681315906346" lon="9.13105957210064">
<ele>139.6</ele>
<time>2024-05-08T13:21:35Z</time>
</trkpt>
<trkpt lat="49.34687040746212" lon="9.13115780800581">
<ele>139.6</ele>
<time>2024-05-08T13:21:36Z</time>
</trkpt>
<trkpt lat="49.34689329005778" lon="9.131201729178429">
<ele>139.6</ele>
<time>2024-05-08T13:21:38Z</time>
</trkpt>
<trkpt lat="49.34691617265344" lon="9.131241794675589">
<ele>139.6</ele>
<time>2024-05-08T13:21:39Z</time>
</trkpt>
<trkpt lat="49.346958082169294" lon="9.131322847679256">
<ele>139.6</ele>
<time>2024-05-08T13:21:40Z</time>
</trkpt>
<trkpt lat="49.346977192908525" lon="9.131362913176416">
<ele>139.6</ele>
<time>2024-05-08T13:21:41Z</time>
</trkpt>
<trkpt lat="49.347000075504184" lon="9.131402894854546">
<ele>139.6</ele>
<time>2024-05-08T13:21:43Z</time>
</trkpt>
<trkpt lat="49.347019186243415" lon="9.131442960351706">
<ele>139.6</ele>
<time>2024-05-08T13:21:44Z</time>
</trkpt>
<trkpt lat="49.347038213163614" lon="9.131480176001787">
<ele>139.6</ele>
<time>2024-05-08T13:21:45Z</time>
</trkpt>
<trkpt lat="49.347057323902845" lon="9.131516385823488">
<ele>139.6</ele>
<time>2024-05-08T13:21:46Z</time>
</trkpt>
<trkpt lat="49.347080206498504" lon="9.131558379158378">
<ele>139.6</ele>
<time>2024-05-08T13:21:47Z</time>
</trkpt>
<trkpt lat="49.34710308909416" lon="9.131598444655538">
<ele>139.4</ele>
<time>2024-05-08T13:21:48Z</time>
</trkpt>
<trkpt lat="49.34714499861002" lon="9.131681425496936">
<ele>139.4</ele>
<time>2024-05-08T13:21:49Z</time>
</trkpt>
<trkpt lat="49.34717173688114" lon="9.131726184859872">
<ele>139.4</ele>
<time>2024-05-08T13:21:51Z</time>
</trkpt>
<trkpt lat="49.34720224700868" lon="9.131778655573726">
<ele>139.4</ele>
<time>2024-05-08T13:21:52Z</time>
</trkpt>
<trkpt lat="49.347232757136226" lon="9.131832048296928">
<ele>139.4</ele>
<time>2024-05-08T13:21:53Z</time>
</trkpt>
<trkpt lat="49.34726326726377" lon="9.131884519010782">
<ele>139.4</ele>
<time>2024-05-08T13:21:54Z</time>
</trkpt>
<trkpt lat="49.34733962640166" lon="9.132013265043495">
<ele>139.4</ele>
<time>2024-05-08T13:21:55Z</time>
</trkpt>
<trkpt lat="49.347373908385634" lon="9.132071435451508">
<ele>139.4</ele>
<time>2024-05-08T13:21:56Z</time>
</trkpt>
<trkpt lat="49.34740827418864" lon="9.132121978327632">
<ele>139.4</ele>
<time>2024-05-08T13:21:58Z</time>
</trkpt>
<trkpt lat="49.34743878431618" lon="9.1321668215096">
<ele>139.6</ele>
<time>2024-05-08T13:21:59Z</time>
</trkpt>
<trkpt lat="49.347488321363926" lon="9.132240246981382">
<ele>139.6</ele>
<time>2024-05-08T13:22:01Z</time>
</trkpt>
<trkpt lat="49.347534170374274" lon="9.132280312478542">
<ele>139.8</ele>
<time>2024-05-08T13:22:02Z</time>
</trkpt>
<trkpt lat="49.34757607989013" lon="9.132334627211094">
<ele>139.8</ele>
<time>2024-05-08T13:22:03Z</time>
</trkpt>
<trkpt lat="49.347610445693135" lon="9.132378548383713">
<ele>139.8</ele>
<time>2024-05-08T13:22:04Z</time>
</trkpt>
<trkpt lat="49.34763710014522" lon="9.132408136501908">
<ele>139.8</ele>
<time>2024-05-08T13:22:05Z</time>
</trkpt>
<trkpt lat="49.34770583175123" lon="9.13246630690992">
<ele>140</ele>
<time>2024-05-08T13:22:06Z</time>
</trkpt>
<trkpt lat="49.3477401137352" lon="9.132494889199734">
<ele>140</ele>
<time>2024-05-08T13:22:07Z</time>
</trkpt>
<trkpt lat="49.34777062386274" lon="9.132525399327278">
<ele>140</ele>
<time>2024-05-08T13:22:09Z</time>
</trkpt>
<trkpt lat="49.34785838238895" lon="9.13259983062744">
<ele>140.2</ele>
<time>2024-05-08T13:22:10Z</time>
</trkpt>
<trkpt lat="49.34789652004838" lon="9.132630340754986">
<ele>140.2</ele>
<time>2024-05-08T13:22:11Z</time>
</trkpt>
<trkpt lat="49.34792703017592" lon="9.132658001035452">
<ele>140.2</ele>
<time>2024-05-08T13:22:13Z</time>
</trkpt>
<trkpt lat="49.34799190610647" lon="9.132713237777352">
<ele>140.6</ele>
<time>2024-05-08T13:22:14Z</time>
</trkpt>
<trkpt lat="49.348026271909475" lon="9.132733270525932">
<ele>140.8</ele>
<time>2024-05-08T13:22:16Z</time>
</trkpt>
<trkpt lat="49.34809491969645" lon="9.132784819230436">
<ele>141</ele>
<time>2024-05-08T13:22:18Z</time>
</trkpt>
<trkpt lat="49.34813305735588" lon="9.132813401520252">
<ele>140.8</ele>
<time>2024-05-08T13:22:19Z</time>
</trkpt>
<trkpt lat="49.3482131883502" lon="9.132868722081184">
<ele>140.8</ele>
<time>2024-05-08T13:22:20Z</time>
</trkpt>
<trkpt lat="49.3482665810734" lon="9.132902082055807">
<ele>140.8</ele>
<time>2024-05-08T13:22:21Z</time>
</trkpt>
<trkpt lat="49.34831234626472" lon="9.132931670174004">
<ele>140.8</ele>
<time>2024-05-08T13:22:23Z</time>
</trkpt>
<trkpt lat="49.34834662824869" lon="9.13295840844512">
<ele>140.8</ele>
<time>2024-05-08T13:22:24Z</time>
</trkpt>
<trkpt lat="49.34841150417924" lon="9.13301364518702">
<ele>140.8</ele>
<time>2024-05-08T13:22:25Z</time>
</trkpt>
<trkpt lat="49.34844586998224" lon="9.133041305467486">
<ele>141</ele>
<time>2024-05-08T13:22:26Z</time>
</trkpt>
<trkpt lat="49.34852977283299" lon="9.133098553866148">
<ele>141.2</ele>
<time>2024-05-08T13:22:29Z</time>
</trkpt>
<trkpt lat="49.34856791049242" lon="9.133126214146614">
<ele>141.4</ele>
<time>2024-05-08T13:22:30Z</time>
</trkpt>
<trkpt lat="49.34860990382731" lon="9.13315194658935">
<ele>141.6</ele>
<time>2024-05-08T13:22:31Z</time>
</trkpt>
<trkpt lat="49.34868232347071" lon="9.13319201208651">
<ele>141.8</ele>
<time>2024-05-08T13:22:33Z</time>
</trkpt>
<trkpt lat="49.34875105507672" lon="9.133246410638094">
<ele>142</ele>
<time>2024-05-08T13:22:34Z</time>
</trkpt>
<trkpt lat="49.34878156520426" lon="9.13327306509018">
<ele>142</ele>
<time>2024-05-08T13:22:36Z</time>
</trkpt>
<trkpt lat="49.34884635731578" lon="9.133328385651112">
<ele>142</ele>
<time>2024-05-08T13:22:38Z</time>
</trkpt>
<trkpt lat="49.34888072311878" lon="9.133355123922229">
<ele>142</ele>
<time>2024-05-08T13:22:39Z</time>
</trkpt>
<trkpt lat="49.348915088921785" lon="9.133378006517887">
<ele>142</ele>
<time>2024-05-08T13:22:40Z</time>
</trkpt>
<trkpt lat="49.34894937090576" lon="9.133403738960624">
<ele>142.2</ele>
<time>2024-05-08T13:22:41Z</time>
</trkpt>
<trkpt lat="49.349010391160846" lon="9.133436176925898">
<ele>142.2</ele>
<time>2024-05-08T13:22:43Z</time>
</trkpt>
<trkpt lat="49.34904098510742" lon="9.133458137512209">
<ele>142.4</ele>
<time>2024-05-08T13:22:44Z</time>
</trkpt>
<trkpt lat="49.34906763955951" lon="9.13347339257598">
<ele>142.4</ele>
<time>2024-05-08T13:22:45Z</time>
</trkpt>
<trkpt lat="49.34910577721894" lon="9.133493341505527">
<ele>142.2</ele>
<time>2024-05-08T13:22:46Z</time>
</trkpt>
<trkpt lat="49.349132515490055" lon="9.13351153023541">
<ele>142.2</ele>
<time>2024-05-08T13:22:47Z</time>
</trkpt>
<trkpt lat="49.349189680069685" lon="9.133560145273805">
<ele>142.2</ele>
<time>2024-05-08T13:22:49Z</time>
</trkpt>
<trkpt lat="49.349231673404574" lon="9.133591577410698">
<ele>142.2</ele>
<time>2024-05-08T13:22:50Z</time>
</trkpt>
<trkpt lat="49.34926603920758" lon="9.13362979888916">
<ele>142.2</ele>
<time>2024-05-08T13:22:51Z</time>
</trkpt>
<trkpt lat="49.349307948723435" lon="9.133663158863785">
<ele>142.2</ele>
<time>2024-05-08T13:22:52Z</time>
</trkpt>
<trkpt lat="49.34939570724964" lon="9.133713701739907">
<ele>142.2</ele>
<time>2024-05-08T13:22:54Z</time>
</trkpt>
<trkpt lat="49.34944532811642" lon="9.133738512173297">
<ele>142.2</ele>
<time>2024-05-08T13:22:55Z</time>
</trkpt>
<trkpt lat="49.34947961010039" lon="9.133781427517532">
<ele>142.2</ele>
<time>2024-05-08T13:22:56Z</time>
</trkpt>
<trkpt lat="49.34955211356282" lon="9.133854852989316">
<ele>141.6</ele>
<time>2024-05-08T13:22:58Z</time>
</trkpt>
<trkpt lat="49.34961698949337" lon="9.133930206298828">
<ele>141.6</ele>
<time>2024-05-08T13:23:00Z</time>
</trkpt>
<trkpt lat="49.3496551271528" lon="9.13396641612053">
<ele>141.6</ele>
<time>2024-05-08T13:23:01Z</time>
</trkpt>
<trkpt lat="49.34969703666866" lon="9.13400648161769">
<ele>141.6</ele>
<time>2024-05-08T13:23:02Z</time>
</trkpt>
<trkpt lat="49.349784795194864" lon="9.134073201566936">
<ele>141.6</ele>
<time>2024-05-08T13:23:03Z</time>
</trkpt>
<trkpt lat="49.349822932854295" lon="9.134110417217016">
<ele>141.6</ele>
<time>2024-05-08T13:23:05Z</time>
</trkpt>
<trkpt lat="49.34987255372107" lon="9.13414285518229">
<ele>141.8</ele>
<time>2024-05-08T13:23:06Z</time>
</trkpt>
<trkpt lat="49.349922174587846" lon="9.134176215156913">
<ele>141.6</ele>
<time>2024-05-08T13:23:07Z</time>
</trkpt>
<trkpt lat="49.35002510435879" lon="9.134231535717843">
<ele>141.6</ele>
<time>2024-05-08T13:23:09Z</time>
</trkpt>
<trkpt lat="49.35007472522557" lon="9.13425819016993">
<ele>141.6</ele>
<time>2024-05-08T13:23:10Z</time>
</trkpt>
<trkpt lat="49.35011671856046" lon="9.134291633963583">
<ele>141.6</ele>
<time>2024-05-08T13:23:11Z</time>
</trkpt>
<trkpt lat="49.35015485621989" lon="9.134321138262749">
<ele>141.6</ele>
<time>2024-05-08T13:23:12Z</time>
</trkpt>
<trkpt lat="49.3502006214112" lon="9.134349804371595">
<ele>141.6</ele>
<time>2024-05-08T13:23:13Z</time>
</trkpt>
<trkpt lat="49.350242614746094" lon="9.13438031449914">
<ele>141.4</ele>
<time>2024-05-08T13:23:14Z</time>
</trkpt>
<trkpt lat="49.350276896730065" lon="9.134406968951224">
<ele>141.4</ele>
<time>2024-05-08T13:23:15Z</time>
</trkpt>
<trkpt lat="49.350315034389496" lon="9.134461367502809">
<ele>141.4</ele>
<time>2024-05-08T13:23:16Z</time>
</trkpt>
<trkpt lat="49.35040656477213" lon="9.13453864865005">
<ele>141.4</ele>
<time>2024-05-08T13:23:18Z</time>
</trkpt>
<trkpt lat="49.35044478625059" lon="9.13457678630948">
<ele>141.6</ele>
<time>2024-05-08T13:23:19Z</time>
</trkpt>
<trkpt lat="49.35049055144191" lon="9.134610146284103">
<ele>141.6</ele>
<time>2024-05-08T13:23:20Z</time>
</trkpt>
<trkpt lat="49.350536316633224" lon="9.134641578420997">
<ele>141.6</ele>
<time>2024-05-08T13:23:21Z</time>
</trkpt>
<trkpt lat="49.35057822614908" lon="9.134663539007306">
<ele>141.8</ele>
<time>2024-05-08T13:23:22Z</time>
</trkpt>
<trkpt lat="49.35066598467529" lon="9.134713159874082">
<ele>141.8</ele>
<time>2024-05-08T13:23:24Z</time>
</trkpt>
<trkpt lat="49.35074225999415" lon="9.134761774912477">
<ele>142</ele>
<time>2024-05-08T13:23:26Z</time>
</trkpt>
<trkpt lat="49.35077662579715" lon="9.134777029976249">
<ele>142</ele>
<time>2024-05-08T13:23:27Z</time>
</trkpt>
<trkpt lat="49.35081099160016" lon="9.134804690256717">
<ele>142</ele>
<time>2024-05-08T13:23:28Z</time>
</trkpt>
<trkpt lat="49.3508415017277" lon="9.134836122393608">
<ele>142</ele>
<time>2024-05-08T13:23:29Z</time>
</trkpt>
<trkpt lat="49.35087963938713" lon="9.134888593107462">
<ele>142</ele>
<time>2024-05-08T13:23:30Z</time>
</trkpt>
<trkpt lat="49.35089103877544" lon="9.134920109063389">
<ele>142</ele>
<time>2024-05-08T13:23:31Z</time>
</trkpt>
<trkpt lat="49.35089866630733" lon="9.13495346903801">
<ele>142</ele>
<time>2024-05-08T13:23:33Z</time>
</trkpt>
<trkpt lat="49.3508948944509" lon="9.134984901174905">
<ele>142</ele>
<time>2024-05-08T13:23:34Z</time>
</trkpt>
<trkpt lat="49.35087578371167" lon="9.135046927258372">
<ele>142.2</ele>
<time>2024-05-08T13:23:35Z</time>
</trkpt>
<trkpt lat="49.35085675679147" lon="9.135073581710458">
<ele>142.2</ele>
<time>2024-05-08T13:23:37Z</time>
</trkpt>
<trkpt lat="49.3508415017277" lon="9.135103169828652">
<ele>142.4</ele>
<time>2024-05-08T13:23:38Z</time>
</trkpt>
<trkpt lat="49.350830018520355" lon="9.135133679956198">
<ele>142.4</ele>
<time>2024-05-08T13:23:39Z</time>
</trkpt>
<trkpt lat="49.350795736536384" lon="9.135194700211288">
<ele>142.6</ele>
<time>2024-05-08T13:23:40Z</time>
</trkpt>
<trkpt lat="49.3507881090045" lon="9.135232921689749">
<ele>142.6</ele>
<time>2024-05-08T13:23:41Z</time>
</trkpt>
<trkpt lat="49.3507881090045" lon="9.135279608890414">
<ele>142.6</ele>
<time>2024-05-08T13:23:43Z</time>
</trkpt>
<trkpt lat="49.35080336406827" lon="9.135336857289076">
<ele>142.6</ele>
<time>2024-05-08T13:23:44Z</time>
</trkpt>
<trkpt lat="49.35081861913204" lon="9.135377844795585">
<ele>142.6</ele>
<time>2024-05-08T13:23:45Z</time>
</trkpt>
<trkpt lat="49.35086438432336" lon="9.135431237518787">
<ele>142.4</ele>
<time>2024-05-08T13:23:47Z</time>
</trkpt>
<trkpt lat="49.35089103877544" lon="9.135451270267367">
<ele>142.2</ele>
<time>2024-05-08T13:23:48Z</time>
</trkpt>
<trkpt lat="49.35094065964222" lon="9.13550374098122">
<ele>142</ele>
<time>2024-05-08T13:23:50Z</time>
</trkpt>
<trkpt lat="49.35095591470599" lon="9.135530395433308">
<ele>142</ele>
<time>2024-05-08T13:23:51Z</time>
</trkpt>
<trkpt lat="49.35096354223788" lon="9.135551434010267">
<ele>141.8</ele>
<time>2024-05-08T13:23:52Z</time>
</trkpt>
<trkpt lat="49.35096739791334" lon="9.135578088462353">
<ele>141.8</ele>
<time>2024-05-08T13:23:53Z</time>
</trkpt>
<trkpt lat="49.35095977038145" lon="9.135631481185555">
<ele>141.6</ele>
<time>2024-05-08T13:23:55Z</time>
</trkpt>
<trkpt lat="49.350952142849565" lon="9.135662075132132">
<ele>141.6</ele>
<time>2024-05-08T13:23:56Z</time>
</trkpt>
<trkpt lat="49.350948287174106" lon="9.135709684342146">
<ele>141.4</ele>
<time>2024-05-08T13:23:58Z</time>
</trkpt>
<trkpt lat="49.35095977038145" lon="9.135771710425615">
<ele>141.2</ele>
<time>2024-05-08T13:24:00Z</time>
</trkpt>
<trkpt lat="49.350990280508995" lon="9.135814625769854">
<ele>141.2</ele>
<time>2024-05-08T13:24:02Z</time>
</trkpt>
<trkpt lat="49.351009307429194" lon="9.135827030986547">
<ele>141.2</ele>
<time>2024-05-08T13:24:03Z</time>
</trkpt>
<trkpt lat="49.35102456249297" lon="9.13584035821259">
<ele>141.2</ele>
<time>2024-05-08T13:24:04Z</time>
</trkpt>
<trkpt lat="49.35103604570031" lon="9.135854691267014">
<ele>141.2</ele>
<time>2024-05-08T13:24:05Z</time>
</trkpt>
<trkpt lat="49.351047445088625" lon="9.135874724015594">
<ele>141.2</ele>
<time>2024-05-08T13:24:06Z</time>
</trkpt>
<trkpt lat="49.3510627001524" lon="9.135892828926444">
<ele>141.2</ele>
<time>2024-05-08T13:24:07Z</time>
</trkpt>
<trkpt lat="49.35107795521617" lon="9.135908083990216">
<ele>141.2</ele>
<time>2024-05-08T13:24:08Z</time>
</trkpt>
<trkpt lat="49.35110092163086" lon="9.13593951612711">
<ele>141.2</ele>
<time>2024-05-08T13:24:09Z</time>
</trkpt>
<trkpt lat="49.35111617669463" lon="9.135956699028611">
<ele>141.2</ele>
<time>2024-05-08T13:24:10Z</time>
</trkpt>
<trkpt lat="49.35113520361483" lon="9.135974803939462">
<ele>141.2</ele>
<time>2024-05-08T13:24:11Z</time>
</trkpt>
<trkpt lat="49.3511504586786" lon="9.135992992669344">
<ele>141.2</ele>
<time>2024-05-08T13:24:13Z</time>
</trkpt>
<trkpt lat="49.351169569417834" lon="9.136014869436622">
<ele>141.4</ele>
<time>2024-05-08T13:24:14Z</time>
</trkpt>
<trkpt lat="49.35118482448161" lon="9.136032052338123">
<ele>141.4</ele>
<time>2024-05-08T13:24:15Z</time>
</trkpt>
<trkpt lat="49.35120007954538" lon="9.136046385392548">
<ele>141.4</ele>
<time>2024-05-08T13:24:16Z</time>
</trkpt>
<trkpt lat="49.35121910646558" lon="9.136054934933782">
<ele>141.4</ele>
<time>2024-05-08T13:24:17Z</time>
</trkpt>
<trkpt lat="49.35123436152935" lon="9.136053007096052">
<ele>141.4</ele>
<time>2024-05-08T13:24:18Z</time>
</trkpt>
<trkpt lat="49.351264871656895" lon="9.13603875786066">
<ele>141.4</ele>
<time>2024-05-08T13:24:20Z</time>
</trkpt>
<trkpt lat="49.35127635486424" lon="9.136034902185202">
<ele>141.4</ele>
<time>2024-05-08T13:24:21Z</time>
</trkpt>
<trkpt lat="49.351283982396126" lon="9.136034902185202">
<ele>141.4</ele>
<time>2024-05-08T13:24:22Z</time>
</trkpt>
<trkpt lat="49.35129160992801" lon="9.13603967987001">
<ele>141.4</ele>
<time>2024-05-08T13:24:23Z</time>
</trkpt>
<trkpt lat="49.3512992374599" lon="9.136048313230276">
<ele>141.6</ele>
<time>2024-05-08T13:24:25Z</time>
</trkpt>
<trkpt lat="49.3512992374599" lon="9.136050157248974">
<ele>141.8</ele>
<time>2024-05-08T13:24:26Z</time>
</trkpt>
<trkpt lat="49.35130309313536" lon="9.136054934933782">
<ele>142</ele>
<time>2024-05-08T13:24:28Z</time>
</trkpt>
<trkpt lat="49.351306864991784" lon="9.136056862771513">
<ele>142.2</ele>
<time>2024-05-08T13:24:29Z</time>
</trkpt>
<trkpt lat="49.351306864991784" lon="9.13605879060924">
<ele>142.2</ele>
<time>2024-05-08T13:24:31Z</time>
</trkpt>
<trkpt lat="49.35131072066724" lon="9.136056862771513">
<ele>142.2</ele>
<time>2024-05-08T13:24:33Z</time>
</trkpt>
<trkpt lat="49.35131072066724" lon="9.13605879060924">
<ele>142</ele>
<time>2024-05-08T13:24:35Z</time>
</trkpt>
<trkpt lat="49.35131072066724" lon="9.13605971261859">
<ele>142</ele>
<time>2024-05-08T13:24:38Z</time>
</trkpt>
<trkpt lat="49.35131072066724" lon="9.13606164045632">
<ele>142</ele>
<time>2024-05-08T13:24:39Z</time>
</trkpt>
<trkpt lat="49.35131072066724" lon="9.136063568294048">
<ele>141.8</ele>
<time>2024-05-08T13:24:40Z</time>
</trkpt>
<trkpt lat="49.35131449252367" lon="9.136064490303395">
<ele>141.8</ele>
<time>2024-05-08T13:24:42Z</time>
</trkpt>
<trkpt lat="49.35131449252367" lon="9.136066418141128">
<ele>141.8</ele>
<time>2024-05-08T13:24:45Z</time>
</trkpt>
<trkpt lat="49.35131449252367" lon="9.136068262159824">
<ele>141.8</ele>
<time>2024-05-08T13:24:53Z</time>
</trkpt>
<trkpt lat="49.35131834819913" lon="9.1360816732049">
<ele>141.8</ele>
<time>2024-05-08T13:24:58Z</time>
</trkpt>
<trkpt lat="49.35134123079479" lon="9.136116961017253">
<ele>141.8</ele>
<time>2024-05-08T13:24:59Z</time>
</trkpt>
<trkpt lat="49.35135648585856" lon="9.13613984361291">
<ele>141.6</ele>
<time>2024-05-08T13:25:01Z</time>
</trkpt>
<trkpt lat="49.35137551277876" lon="9.136168425902724">
<ele>141.6</ele>
<time>2024-05-08T13:25:02Z</time>
</trkpt>
<trkpt lat="49.35139839537442" lon="9.13619516417384">
<ele>141.6</ele>
<time>2024-05-08T13:25:03Z</time>
</trkpt>
<trkpt lat="49.35141365043819" lon="9.136226596310737">
<ele>141.6</ele>
<time>2024-05-08T13:25:04Z</time>
</trkpt>
<trkpt lat="49.351425133645535" lon="9.136262889951468">
<ele>141.6</ele>
<time>2024-05-08T13:25:05Z</time>
</trkpt>
<trkpt lat="49.35143653303385" lon="9.136300021782516">
<ele>141.6</ele>
<time>2024-05-08T13:25:06Z</time>
</trkpt>
<trkpt lat="49.35145187191665" lon="9.13637537509203">
<ele>141.6</ele>
<time>2024-05-08T13:25:08Z</time>
</trkpt>
<trkpt lat="49.351467126980424" lon="9.136461205780506">
<ele>141.4</ele>
<time>2024-05-08T13:25:09Z</time>
</trkpt>
<trkpt lat="49.35147852636874" lon="9.13651174865663">
<ele>141.6</ele>
<time>2024-05-08T13:25:11Z</time>
</trkpt>
<trkpt lat="49.35148238204419" lon="9.136567991226912">
<ele>141.6</ele>
<time>2024-05-08T13:25:12Z</time>
</trkpt>
<trkpt lat="49.35148615390062" lon="9.136626161634922">
<ele>141.6</ele>
<time>2024-05-08T13:25:13Z</time>
</trkpt>
<trkpt lat="49.35148615390062" lon="9.136743508279324">
<ele>141.6</ele>
<time>2024-05-08T13:25:14Z</time>
</trkpt>
<trkpt lat="49.35148238204419" lon="9.1367931291461">
<ele>141.6</ele>
<time>2024-05-08T13:25:16Z</time>
</trkpt>
<trkpt lat="49.35147852636874" lon="9.136843672022223">
<ele>141.6</ele>
<time>2024-05-08T13:25:17Z</time>
</trkpt>
<trkpt lat="49.35147852636874" lon="9.136893209069967">
<ele>141.6</ele>
<time>2024-05-08T13:25:18Z</time>
</trkpt>
<trkpt lat="49.35147852636874" lon="9.1369485296309">
<ele>141.6</ele>
<time>2024-05-08T13:25:19Z</time>
</trkpt>
<trkpt lat="49.35147475451231" lon="9.137055315077305">
<ele>141.6</ele>
<time>2024-05-08T13:25:21Z</time>
</trkpt>
<trkpt lat="49.35147475451231" lon="9.137111641466618">
<ele>141.8</ele>
<time>2024-05-08T13:25:22Z</time>
</trkpt>
<trkpt lat="49.35147475451231" lon="9.137229910120368">
<ele>141.8</ele>
<time>2024-05-08T13:25:24Z</time>
</trkpt>
<trkpt lat="49.35147089883685" lon="9.137292858213186">
<ele>141.8</ele>
<time>2024-05-08T13:25:25Z</time>
</trkpt>
<trkpt lat="49.351467126980424" lon="9.137414898723364">
<ele>142</ele>
<time>2024-05-08T13:25:26Z</time>
</trkpt>
<trkpt lat="49.351463271304965" lon="9.137479774653912">
<ele>142</ele>
<time>2024-05-08T13:25:28Z</time>
</trkpt>
<trkpt lat="49.351467126980424" lon="9.137544566765428">
<ele>142.2</ele>
<time>2024-05-08T13:25:29Z</time>
</trkpt>
<trkpt lat="49.35147089883685" lon="9.13765612989664">
<ele>142.4</ele>
<time>2024-05-08T13:25:30Z</time>
</trkpt>
<trkpt lat="49.35147089883685" lon="9.137704828754067">
<ele>142.6</ele>
<time>2024-05-08T13:25:32Z</time>
</trkpt>
<trkpt lat="49.35147475451231" lon="9.137755371630192">
<ele>142.6</ele>
<time>2024-05-08T13:25:33Z</time>
</trkpt>
<trkpt lat="49.35147852636874" lon="9.137869784608483">
<ele>142.6</ele>
<time>2024-05-08T13:25:35Z</time>
</trkpt>
<trkpt lat="49.35147475451231" lon="9.137989981099963">
<ele>142.8</ele>
<time>2024-05-08T13:25:36Z</time>
</trkpt>
<trkpt lat="49.35147852636874" lon="9.13805477321148">
<ele>142.8</ele>
<time>2024-05-08T13:25:38Z</time>
</trkpt>
<trkpt lat="49.35149000957608" lon="9.138183519244194">
<ele>143</ele>
<time>2024-05-08T13:25:40Z</time>
</trkpt>
<trkpt lat="49.35148615390062" lon="9.138257950544356">
<ele>143.2</ele>
<time>2024-05-08T13:25:41Z</time>
</trkpt>
<trkpt lat="49.35147852636874" lon="9.138406729325652">
<ele>143.2</ele>
<time>2024-05-08T13:25:42Z</time>
</trkpt>
<trkpt lat="49.35147852636874" lon="9.138475377112629">
<ele>143.2</ele>
<time>2024-05-08T13:25:44Z</time>
</trkpt>
<trkpt lat="49.35148238204419" lon="9.138558357954023">
<ele>143</ele>
<time>2024-05-08T13:25:45Z</time>
</trkpt>
<trkpt lat="49.35148238204419" lon="9.138641338795424">
<ele>143.2</ele>
<time>2024-05-08T13:25:46Z</time>
</trkpt>
<trkpt lat="49.35148238204419" lon="9.138730019330978">
<ele>143.2</ele>
<time>2024-05-08T13:25:47Z</time>
</trkpt>
<trkpt lat="49.35148238204419" lon="9.138813000172377">
<ele>143.2</ele>
<time>2024-05-08T13:25:48Z</time>
</trkpt>
<trkpt lat="49.35147475451231" lon="9.138981811702251">
<ele>143.2</ele>
<time>2024-05-08T13:25:49Z</time>
</trkpt>
<trkpt lat="49.35147475451231" lon="9.139060014858842">
<ele>143.2</ele>
<time>2024-05-08T13:25:50Z</time>
</trkpt>
<trkpt lat="49.351467126980424" lon="9.139136290177705">
<ele>143.2</ele>
<time>2024-05-08T13:25:52Z</time>
</trkpt>
<trkpt lat="49.351467126980424" lon="9.13927836343646">
<ele>143.2</ele>
<time>2024-05-08T13:25:54Z</time>
</trkpt>
<trkpt lat="49.35147089883685" lon="9.139349861070514">
<ele>143.4</ele>
<time>2024-05-08T13:25:55Z</time>
</trkpt>
<trkpt lat="49.35147475451231" lon="9.139423370361328">
<ele>143.4</ele>
<time>2024-05-08T13:25:56Z</time>
</trkpt>
<trkpt lat="49.35149000957608" lon="9.139584470540283">
<ele>143.4</ele>
<time>2024-05-08T13:25:58Z</time>
</trkpt>
<trkpt lat="49.3515014089644" lon="9.139659823849795">
<ele>143.4</ele>
<time>2024-05-08T13:25:59Z</time>
</trkpt>
<trkpt lat="49.35152051970363" lon="9.139739954844115">
<ele>143.4</ele>
<time>2024-05-08T13:26:00Z</time>
</trkpt>
<trkpt lat="49.35155102983117" lon="9.139866773039104">
<ele>143.4</ele>
<time>2024-05-08T13:26:01Z</time>
</trkpt>
<trkpt lat="49.35157391242683" lon="9.139934498816729">
<ele>143.4</ele>
<time>2024-05-08T13:26:03Z</time>
</trkpt>
<trkpt lat="49.351600566878915" lon="9.140003146603703">
<ele>143.2</ele>
<time>2024-05-08T13:26:04Z</time>
</trkpt>
<trkpt lat="49.35164641588926" lon="9.140138598158956">
<ele>143.2</ele>
<time>2024-05-08T13:26:06Z</time>
</trkpt>
<trkpt lat="49.351699808612466" lon="9.140263488516212">
<ele>143.2</ele>
<time>2024-05-08T13:26:08Z</time>
</trkpt>
<trkpt lat="49.351760828867555" lon="9.140376979485154">
<ele>143.2</ele>
<time>2024-05-08T13:26:09Z</time>
</trkpt>
<trkpt lat="49.35179519467056" lon="9.140423750504851">
<ele>143.2</ele>
<time>2024-05-08T13:26:11Z</time>
</trkpt>
<trkpt lat="49.35184858739376" lon="9.140496253967283">
<ele>143.4</ele>
<time>2024-05-08T13:26:13Z</time>
</trkpt>
<trkpt lat="49.35189049690962" lon="9.14056297391653">
<ele>143.4</ele>
<time>2024-05-08T13:26:15Z</time>
</trkpt>
<trkpt lat="49.35192100703716" lon="9.14060303941369">
<ele>143.4</ele>
<time>2024-05-08T13:26:16Z</time>
</trkpt>
<trkpt lat="49.35196300037205" lon="9.1406802367419">
<ele>143.4</ele>
<time>2024-05-08T13:26:18Z</time>
</trkpt>
<trkpt lat="49.351959228515625" lon="9.140718458220364">
<ele>143.6</ele>
<time>2024-05-08T13:26:19Z</time>
</trkpt>
<trkpt lat="49.351940117776394" lon="9.140751818194984">
<ele>143.6</ele>
<time>2024-05-08T13:26:20Z</time>
</trkpt>
<trkpt lat="49.35192100703716" lon="9.140788028016686">
<ele>143.8</ele>
<time>2024-05-08T13:26:21Z</time>
</trkpt>
<trkpt lat="49.351898124441504" lon="9.140826165676115">
<ele>143.8</ele>
<time>2024-05-08T13:26:22Z</time>
</trkpt>
<trkpt lat="49.351859986782074" lon="9.140908224508166">
<ele>144</ele>
<time>2024-05-08T13:26:23Z</time>
</trkpt>
<trkpt lat="49.3518447317183" lon="9.140954911708832">
<ele>144.2</ele>
<time>2024-05-08T13:26:25Z</time>
</trkpt>
<trkpt lat="49.3518447317183" lon="9.141023559495808">
<ele>144.2</ele>
<time>2024-05-08T13:26:26Z</time>
</trkpt>
<trkpt lat="49.35185621492565" lon="9.141071252524853">
<ele>144.2</ele>
<time>2024-05-08T13:26:27Z</time>
</trkpt>
<trkpt lat="49.35188286937773" lon="9.141121795400975">
<ele>144.4</ele>
<time>2024-05-08T13:26:28Z</time>
</trkpt>
<trkpt lat="49.351940117776394" lon="9.141211481764913">
<ele>144.4</ele>
<time>2024-05-08T13:26:30Z</time>
</trkpt>
<trkpt lat="49.3519744835794" lon="9.141260096803308">
<ele>144.4</ele>
<time>2024-05-08T13:26:31Z</time>
</trkpt>
<trkpt lat="49.35204313136637" lon="9.14135162718594">
<ele>144.4</ele>
<time>2024-05-08T13:26:33Z</time>
</trkpt>
<trkpt lat="49.352115551009774" lon="9.14143368601799">
<ele>144.6</ele>
<time>2024-05-08T13:26:35Z</time>
</trkpt>
<trkpt lat="49.35218805447221" lon="9.141529994085433">
<ele>144.6</ele>
<time>2024-05-08T13:26:36Z</time>
</trkpt>
<trkpt lat="49.35222242027521" lon="9.141578609123826">
<ele>144.6</ele>
<time>2024-05-08T13:26:38Z</time>
</trkpt>
<trkpt lat="49.352291068062186" lon="9.141670223325493">
<ele>144.6</ele>
<time>2024-05-08T13:26:39Z</time>
</trkpt>
<trkpt lat="49.35232543386519" lon="9.14171020500362">
<ele>144.6</ele>
<time>2024-05-08T13:26:40Z</time>
</trkpt>
<trkpt lat="49.352352088317275" lon="9.14175027050078">
<ele>144.6</ele>
<time>2024-05-08T13:26:42Z</time>
</trkpt>
<trkpt lat="49.35238645412028" lon="9.14178840816021">
<ele>144.6</ele>
<time>2024-05-08T13:26:43Z</time>
</trkpt>
<trkpt lat="49.35242073610425" lon="9.141826629638672">
<ele>144.6</ele>
<time>2024-05-08T13:26:44Z</time>
</trkpt>
<trkpt lat="49.35248946771026" lon="9.141898127272723">
<ele>144.6</ele>
<time>2024-05-08T13:26:46Z</time>
</trkpt>
<trkpt lat="49.35256188735366" lon="9.141976330429316">
<ele>144.6</ele>
<time>2024-05-08T13:26:48Z</time>
</trkpt>
<trkpt lat="49.35259625315666" lon="9.142013546079395">
<ele>144.6</ele>
<time>2024-05-08T13:26:49Z</time>
</trkpt>
<trkpt lat="49.352668756619096" lon="9.142091749235988">
<ele>144.4</ele>
<time>2024-05-08T13:26:51Z</time>
</trkpt>
<trkpt lat="49.35270303860307" lon="9.142127959057689">
<ele>144.4</ele>
<time>2024-05-08T13:26:52Z</time>
</trkpt>
<trkpt lat="49.35273354873061" lon="9.14216517470777">
<ele>144.4</ele>
<time>2024-05-08T13:26:53Z</time>
</trkpt>
<trkpt lat="49.35276405885816" lon="9.142198534682391">
<ele>144.4</ele>
<time>2024-05-08T13:26:54Z</time>
</trkpt>
<trkpt lat="49.35279079712927" lon="9.142232816666365">
<ele>144.6</ele>
<time>2024-05-08T13:26:55Z</time>
</trkpt>
<trkpt lat="49.35281753540039" lon="9.14226626046002">
<ele>144.6</ele>
<time>2024-05-08T13:26:56Z</time>
</trkpt>
<trkpt lat="49.35284418985248" lon="9.142299620434642">
<ele>144.6</ele>
<time>2024-05-08T13:26:57Z</time>
</trkpt>
<trkpt lat="49.352867072448134" lon="9.142330130562186">
<ele>144.8</ele>
<time>2024-05-08T13:26:58Z</time>
</trkpt>
<trkpt lat="49.35288995504379" lon="9.142356868833303">
<ele>144.8</ele>
<time>2024-05-08T13:26:59Z</time>
</trkpt>
<trkpt lat="49.35293572023511" lon="9.142408333718777">
<ele>144.6</ele>
<time>2024-05-08T13:27:00Z</time>
</trkpt>
<trkpt lat="49.35295483097434" lon="9.142437921836972">
<ele>144.6</ele>
<time>2024-05-08T13:27:01Z</time>
</trkpt>
<trkpt lat="49.35297008603811" lon="9.142471281811597">
<ele>144.6</ele>
<time>2024-05-08T13:27:03Z</time>
</trkpt>
<trkpt lat="49.35297385789454" lon="9.142510341480374">
<ele>144.6</ele>
<time>2024-05-08T13:27:04Z</time>
</trkpt>
<trkpt lat="49.35297385789454" lon="9.142550406977534">
<ele>144.6</ele>
<time>2024-05-08T13:27:05Z</time>
</trkpt>
<trkpt lat="49.35297008603811" lon="9.142586700618269">
<ele>144.6</ele>
<time>2024-05-08T13:27:06Z</time>
</trkpt>
<trkpt lat="49.35295483097434" lon="9.142615282908082">
<ele>144.4</ele>
<time>2024-05-08T13:27:07Z</time>
</trkpt>
<trkpt lat="49.352943347766995" lon="9.142644871026278">
<ele>144.4</ele>
<time>2024-05-08T13:27:08Z</time>
</trkpt>
<trkpt lat="49.3529243208468" lon="9.142671525478365">
<ele>144.4</ele>
<time>2024-05-08T13:27:09Z</time>
</trkpt>
<trkpt lat="49.352867072448134" lon="9.142746878787875">
<ele>144.4</ele>
<time>2024-05-08T13:27:10Z</time>
</trkpt>
<trkpt lat="49.35284041799605" lon="9.142793649807572">
<ele>144.4</ele>
<time>2024-05-08T13:27:11Z</time>
</trkpt>
<trkpt lat="49.35281367972493" lon="9.14283463731408">
<ele>144.4</ele>
<time>2024-05-08T13:27:13Z</time>
</trkpt>
<trkpt lat="49.35276028700173" lon="9.142918540164828">
<ele>144.4</ele>
<time>2024-05-08T13:27:14Z</time>
</trkpt>
<trkpt lat="49.35273740440607" lon="9.14295667782426">
<ele>144.4</ele>
<time>2024-05-08T13:27:15Z</time>
</trkpt>
<trkpt lat="49.35271066613495" lon="9.142990037798882">
<ele>144.4</ele>
<time>2024-05-08T13:27:16Z</time>
</trkpt>
<trkpt lat="49.352687783539295" lon="9.143025325611234">
<ele>144.4</ele>
<time>2024-05-08T13:27:18Z</time>
</trkpt>
<trkpt lat="49.35266112908721" lon="9.14305491372943">
<ele>144.4</ele>
<time>2024-05-08T13:27:19Z</time>
</trkpt>
<trkpt lat="49.352611508220434" lon="9.143123561516404">
<ele>144.4</ele>
<time>2024-05-08T13:27:20Z</time>
</trkpt>
<trkpt lat="49.352588625624776" lon="9.143157927319407">
<ele>144.4</ele>
<time>2024-05-08T13:27:21Z</time>
</trkpt>
<trkpt lat="49.352569514885545" lon="9.14319321513176">
<ele>144.4</ele>
<time>2024-05-08T13:27:23Z</time>
</trkpt>
<trkpt lat="49.35254663228989" lon="9.143224647268651">
<ele>144.4</ele>
<time>2024-05-08T13:27:24Z</time>
</trkpt>
<trkpt lat="49.3525199778378" lon="9.143268568441272">
<ele>144.6</ele>
<time>2024-05-08T13:27:26Z</time>
</trkpt>
<trkpt lat="49.352512350305915" lon="9.143279967829583">
<ele>144.8</ele>
<time>2024-05-08T13:27:27Z</time>
</trkpt>
<trkpt lat="49.352508494630456" lon="9.143286673352122">
<ele>145</ele>
<time>2024-05-08T13:27:28Z</time>
</trkpt>
<trkpt lat="49.352508494630456" lon="9.143284745514393">
<ele>145</ele>
<time>2024-05-08T13:27:30Z</time>
</trkpt>
<trkpt lat="49.352508494630456" lon="9.143282817676663">
<ele>145</ele>
<time>2024-05-08T13:27:31Z</time>
</trkpt>
<trkpt lat="49.352508494630456" lon="9.143286673352122">
<ele>145.2</ele>
<time>2024-05-08T13:27:33Z</time>
</trkpt>
<trkpt lat="49.35249323956669" lon="9.143296228721738">
<ele>145.2</ele>
<time>2024-05-08T13:27:34Z</time>
</trkpt>
<trkpt lat="49.35246650129557" lon="9.143313327804208">
<ele>145.4</ele>
<time>2024-05-08T13:27:35Z</time>
</trkpt>
<trkpt lat="49.35243984684348" lon="9.143315255641935">
<ele>145.4</ele>
<time>2024-05-08T13:27:36Z</time>
</trkpt>
<trkpt lat="49.35241310857237" lon="9.14330955594778">
<ele>145.4</ele>
<time>2024-05-08T13:27:38Z</time>
</trkpt>
<trkpt lat="49.35236357152462" lon="9.14329145103693">
<ele>145.4</ele>
<time>2024-05-08T13:27:39Z</time>
</trkpt>
<trkpt lat="49.35234068892896" lon="9.143282817676663">
<ele>145.4</ele>
<time>2024-05-08T13:27:40Z</time>
</trkpt>
<trkpt lat="49.35232157818973" lon="9.143276195973158">
<ele>145.4</ele>
<time>2024-05-08T13:27:41Z</time>
</trkpt>
<trkpt lat="49.35230632312596" lon="9.14326949045062">
<ele>145.4</ele>
<time>2024-05-08T13:27:43Z</time>
</trkpt>
<trkpt lat="49.35227958485484" lon="9.1432533133775">
<ele>145.4</ele>
<time>2024-05-08T13:27:45Z</time>
</trkpt>
<trkpt lat="49.352271957322955" lon="9.143239902332423">
<ele>145.4</ele>
<time>2024-05-08T13:27:46Z</time>
</trkpt>
<trkpt lat="49.352271957322955" lon="9.143238058313727">
<ele>145.4</ele>
<time>2024-05-08T13:27:48Z</time>
</trkpt>
<trkpt lat="49.35226818546653" lon="9.143235124647616">
<ele>145.4</ele>
<time>2024-05-08T13:27:49Z</time>
</trkpt>
<trkpt lat="49.35226818546653" lon="9.14323043078184">
<ele>145.4</ele>
<time>2024-05-08T13:27:50Z</time>
</trkpt>
<trkpt lat="49.35226818546653" lon="9.143218025565147">
<ele>145.4</ele>
<time>2024-05-08T13:27:52Z</time>
</trkpt>
<trkpt lat="49.35226818546653" lon="9.143219869583843">
<ele>145.4</ele>
<time>2024-05-08T13:27:53Z</time>
</trkpt>
<trkpt lat="49.35226818546653" lon="9.143218025565147">
<ele>145.4</ele>
<time>2024-05-08T13:27:54Z</time>
</trkpt>
<trkpt lat="49.35226818546653" lon="9.143217019736769">
<ele>145.4</ele>
<time>2024-05-08T13:27:56Z</time>
</trkpt>
<trkpt lat="49.35226818546653" lon="9.14321132004261">
<ele>145.4</ele>
<time>2024-05-08T13:27:59Z</time>
</trkpt>
<trkpt lat="49.352271957322955" lon="9.143206542357802">
<ele>145.4</ele>
<time>2024-05-08T13:28:01Z</time>
</trkpt>
<trkpt lat="49.352271957322955" lon="9.143199920654297">
<ele>145.4</ele>
<time>2024-05-08T13:28:03Z</time>
</trkpt>
<trkpt lat="49.352271957322955" lon="9.143196986988189">
<ele>145.4</ele>
<time>2024-05-08T13:28:04Z</time>
</trkpt>
<trkpt lat="49.352271957322955" lon="9.143195142969487">
<ele>145.4</ele>
<time>2024-05-08T13:28:05Z</time>
</trkpt>
<trkpt lat="49.352271957322955" lon="9.14319321513176">
<ele>145.4</ele>
<time>2024-05-08T13:28:06Z</time>
</trkpt>
<trkpt lat="49.352271957322955" lon="9.14319128729403">
<ele>145.4</ele>
<time>2024-05-08T13:28:09Z</time>
</trkpt>
<trkpt lat="49.352271957322955" lon="9.14319036528468">
<ele>145.4</ele>
<time>2024-05-08T13:28:10Z</time>
</trkpt>
<trkpt lat="49.352275812998414" lon="9.14319321513176">
<ele>145.4</ele>
<time>2024-05-08T13:28:14Z</time>
</trkpt>
<trkpt lat="49.352271957322955" lon="9.14319128729403">
<ele>145.2</ele>
<time>2024-05-08T13:28:15Z</time>
</trkpt>
<trkpt lat="49.352271957322955" lon="9.14319321513176">
<ele>145.2</ele>
<time>2024-05-08T13:28:16Z</time>
</trkpt>
<trkpt lat="49.352271957322955" lon="9.14319128729403">
<ele>145</ele>
<time>2024-05-08T13:28:23Z</time>
</trkpt>
<trkpt lat="49.352271957322955" lon="9.14319036528468">
<ele>145</ele>
<time>2024-05-08T13:28:26Z</time>
</trkpt>
<trkpt lat="49.352271957322955" lon="9.143188437446952">
<ele>145</ele>
<time>2024-05-08T13:28:29Z</time>
</trkpt>
<trkpt lat="49.352271957322955" lon="9.143186509609222">
<ele>145</ele>
<time>2024-05-08T13:28:34Z</time>
</trkpt>
<trkpt lat="49.352271957322955" lon="9.143184581771491">
<ele>145</ele>
<time>2024-05-08T13:28:38Z</time>
</trkpt>
<trkpt lat="49.352271957322955" lon="9.143183659762144">
<ele>144.8</ele>
<time>2024-05-08T13:28:39Z</time>
</trkpt>
<trkpt lat="49.352271957322955" lon="9.14317511022091">
<ele>144.8</ele>
<time>2024-05-08T13:28:43Z</time>
</trkpt>
<trkpt lat="49.35226818546653" lon="9.143168404698372">
<ele>145</ele>
<time>2024-05-08T13:28:44Z</time>
</trkpt>
<trkpt lat="49.35226818546653" lon="9.143164632841945">
<ele>145</ele>
<time>2024-05-08T13:28:45Z</time>
</trkpt>
<trkpt lat="49.35226818546653" lon="9.143161699175836">
<ele>145</ele>
<time>2024-05-08T13:28:46Z</time>
</trkpt>
<trkpt lat="49.35226818546653" lon="9.14315700531006">
<ele>145</ele>
<time>2024-05-08T13:28:48Z</time>
</trkpt>
<trkpt lat="49.35226432979107" lon="9.14315029978752">
<ele>145</ele>
<time>2024-05-08T13:28:49Z</time>
</trkpt>
<trkpt lat="49.35226818546653" lon="9.143144600093365">
<ele>145.2</ele>
<time>2024-05-08T13:28:50Z</time>
</trkpt>
<trkpt lat="49.35226818546653" lon="9.143139822408555">
<ele>145.2</ele>
<time>2024-05-08T13:28:51Z</time>
</trkpt>
<trkpt lat="49.352271957322955" lon="9.143137894570827">
<ele>145.2</ele>
<time>2024-05-08T13:28:53Z</time>
</trkpt>
<trkpt lat="49.352271957322955" lon="9.14313311688602">
<ele>145.2</ele>
<time>2024-05-08T13:28:55Z</time>
</trkpt>
<trkpt lat="49.352271957322955" lon="9.14313118904829">
<ele>145.2</ele>
<time>2024-05-08T13:28:58Z</time>
</trkpt>
<trkpt lat="49.352271957322955" lon="9.14313311688602">
<ele>145.2</ele>
<time>2024-05-08T13:29:01Z</time>
</trkpt>
<trkpt lat="49.352271957322955" lon="9.143128339201212">
<ele>145</ele>
<time>2024-05-08T13:29:04Z</time>
</trkpt>
<trkpt lat="49.352271957322955" lon="9.143126411363482">
<ele>145</ele>
<time>2024-05-08T13:29:05Z</time>
</trkpt>
<trkpt lat="49.352275812998414" lon="9.143121717497706">
<ele>144.8</ele>
<time>2024-05-08T13:29:06Z</time>
</trkpt>
<trkpt lat="49.35227958485484" lon="9.14311115629971">
<ele>144.8</ele>
<time>2024-05-08T13:29:08Z</time>
</trkpt>
<trkpt lat="49.35228721238673" lon="9.143104534596205">
<ele>144.4</ele>
<time>2024-05-08T13:29:09Z</time>
</trkpt>
<trkpt lat="49.35229483991861" lon="9.143099756911395">
<ele>144.2</ele>
<time>2024-05-08T13:29:10Z</time>
</trkpt>
<trkpt lat="49.35229869559407" lon="9.143099756911395">
<ele>144</ele>
<time>2024-05-08T13:29:11Z</time>
</trkpt>
<trkpt lat="49.35230632312596" lon="9.143101684749126">
<ele>144</ele>
<time>2024-05-08T13:29:13Z</time>
</trkpt>
<trkpt lat="49.352313950657845" lon="9.143104534596205">
<ele>143.8</ele>
<time>2024-05-08T13:29:14Z</time>
</trkpt>
<trkpt lat="49.35232157818973" lon="9.143099756911395">
<ele>143.6</ele>
<time>2024-05-08T13:29:15Z</time>
</trkpt>
<trkpt lat="49.35232543386519" lon="9.143101684749126">
<ele>143.6</ele>
<time>2024-05-08T13:29:18Z</time>
</trkpt>
<trkpt lat="49.35232543386519" lon="9.143103528767824">
<ele>143.4</ele>
<time>2024-05-08T13:29:19Z</time>
</trkpt>
<trkpt lat="49.35232920572162" lon="9.143104534596205">
<ele>143.4</ele>
<time>2024-05-08T13:29:20Z</time>
</trkpt>
<trkpt lat="49.35232920572162" lon="9.143108306452632">
<ele>143.4</ele>
<time>2024-05-08T13:29:21Z</time>
</trkpt>
<trkpt lat="49.3523368332535" lon="9.14311115629971">
<ele>143.4</ele>
<time>2024-05-08T13:29:24Z</time>
</trkpt>
<trkpt lat="49.35234831646085" lon="9.143119789659975">
<ele>143.2</ele>
<time>2024-05-08T13:29:25Z</time>
</trkpt>
<trkpt lat="49.352352088317275" lon="9.143124567344785">
<ele>143.2</ele>
<time>2024-05-08T13:29:26Z</time>
</trkpt>
<trkpt lat="49.35236357152462" lon="9.14313118904829">
<ele>143.2</ele>
<time>2024-05-08T13:29:28Z</time>
</trkpt>
<trkpt lat="49.35237497091293" lon="9.143146444112062">
<ele>143.2</ele>
<time>2024-05-08T13:29:29Z</time>
</trkpt>
<trkpt lat="49.35238259844482" lon="9.1431531496346">
<ele>143.2</ele>
<time>2024-05-08T13:29:30Z</time>
</trkpt>
<trkpt lat="49.35238645412028" lon="9.143159855157135">
<ele>143.2</ele>
<time>2024-05-08T13:29:31Z</time>
</trkpt>
<trkpt lat="49.35238645412028" lon="9.143161699175836">
<ele>143.2</ele>
<time>2024-05-08T13:29:33Z</time>
</trkpt>
<trkpt lat="49.35238259844482" lon="9.143164632841945">
<ele>143.2</ele>
<time>2024-05-08T13:29:34Z</time>
</trkpt>
<trkpt lat="49.35238645412028" lon="9.143164632841945">
<ele>143</ele>
<time>2024-05-08T13:29:35Z</time>
</trkpt>
<trkpt lat="49.35238645412028" lon="9.143166476860642">
<ele>143</ele>
<time>2024-05-08T13:29:38Z</time>
</trkpt>
<trkpt lat="49.35238259844482" lon="9.143168404698372">
<ele>142.8</ele>
<time>2024-05-08T13:29:39Z</time>
</trkpt>
<trkpt lat="49.35238645412028" lon="9.143168404698372">
<ele>142.6</ele>
<time>2024-05-08T13:29:41Z</time>
</trkpt>
<trkpt lat="49.35238259844482" lon="9.143168404698372">
<ele>142.4</ele>
<time>2024-05-08T13:29:43Z</time>
</trkpt>
<trkpt lat="49.35238259844482" lon="9.1431703325361">
<ele>142.4</ele>
<time>2024-05-08T13:29:44Z</time>
</trkpt>
<trkpt lat="49.35238259844482" lon="9.143168404698372">
<ele>142.2</ele>
<time>2024-05-08T13:29:45Z</time>
</trkpt>
<trkpt lat="49.35237882658839" lon="9.1431703325361">
<ele>142</ele>
<time>2024-05-08T13:29:49Z</time>
</trkpt>
<trkpt lat="49.35237882658839" lon="9.14317125454545">
<ele>141.8</ele>
<time>2024-05-08T13:29:50Z</time>
</trkpt>
<trkpt lat="49.35237882658839" lon="9.14317318238318">
<ele>141.8</ele>
<time>2024-05-08T13:29:53Z</time>
</trkpt>
<trkpt lat="49.35237882658839" lon="9.14317125454545">
<ele>141.6</ele>
<time>2024-05-08T13:29:55Z</time>
</trkpt>
<trkpt lat="49.35237497091293" lon="9.14317318238318">
<ele>141.6</ele>
<time>2024-05-08T13:29:58Z</time>
</trkpt>
<trkpt lat="49.35237497091293" lon="9.14317511022091">
<ele>141.6</ele>
<time>2024-05-08T13:29:59Z</time>
</trkpt>
<trkpt lat="49.35237497091293" lon="9.143177960067987">
<ele>141.6</ele>
<time>2024-05-08T13:30:00Z</time>
</trkpt>
<trkpt lat="49.35237497091293" lon="9.143181731924416">
<ele>141.4</ele>
<time>2024-05-08T13:30:02Z</time>
</trkpt>
<trkpt lat="49.35237497091293" lon="9.143183659762144">
<ele>141.4</ele>
<time>2024-05-08T13:30:04Z</time>
</trkpt>
<trkpt lat="49.35237497091293" lon="9.143184581771491">
<ele>141.4</ele>
<time>2024-05-08T13:30:05Z</time>
</trkpt>
<trkpt lat="49.35237882658839" lon="9.143184581771491">
<ele>141.4</ele>
<time>2024-05-08T13:30:07Z</time>
</trkpt>
<trkpt lat="49.35237882658839" lon="9.143183659762144">
<ele>141.4</ele>
<time>2024-05-08T13:30:14Z</time>
</trkpt>
<trkpt lat="49.35238259844482" lon="9.143184581771491">
<ele>141.4</ele>
<time>2024-05-08T13:30:18Z</time>
</trkpt>
<trkpt lat="49.35238259844482" lon="9.143183659762144">
<ele>141.4</ele>
<time>2024-05-08T13:30:19Z</time>
</trkpt>
<trkpt lat="49.35237882658839" lon="9.143183659762144">
<ele>141.4</ele>
<time>2024-05-08T13:30:24Z</time>
</trkpt>
<trkpt lat="49.35237882658839" lon="9.143184581771491">
<ele>141.4</ele>
<time>2024-05-08T13:30:26Z</time>
</trkpt>
<trkpt lat="49.35237882658839" lon="9.143183659762144">
<ele>141.6</ele>
<time>2024-05-08T13:30:29Z</time>
</trkpt>
<trkpt lat="49.35237882658839" lon="9.143181731924416">
<ele>141.6</ele>
<time>2024-05-08T13:30:31Z</time>
</trkpt>
<trkpt lat="49.35238259844482" lon="9.143181731924416">
<ele>141.8</ele>
<time>2024-05-08T13:30:33Z</time>
</trkpt>
<trkpt lat="49.35238259844482" lon="9.143183659762144">
<ele>142</ele>
<time>2024-05-08T13:30:34Z</time>
</trkpt>
<trkpt lat="49.35238259844482" lon="9.143188437446952">
<ele>142</ele>
<time>2024-05-08T13:30:35Z</time>
</trkpt>
<trkpt lat="49.35238259844482" lon="9.14319321513176">
<ele>142.2</ele>
<time>2024-05-08T13:30:36Z</time>
</trkpt>
<trkpt lat="49.35238259844482" lon="9.143195142969487">
<ele>142.4</ele>
<time>2024-05-08T13:30:38Z</time>
</trkpt>
<trkpt lat="49.35237882658839" lon="9.143196986988189">
<ele>142.4</ele>
<time>2024-05-08T13:30:39Z</time>
</trkpt>
<trkpt lat="49.35237882658839" lon="9.143197992816567">
<ele>142.4</ele>
<time>2024-05-08T13:30:40Z</time>
</trkpt>
<trkpt lat="49.35238259844482" lon="9.143197992816567">
<ele>142.6</ele>
<time>2024-05-08T13:30:41Z</time>
</trkpt>
<trkpt lat="49.35238259844482" lon="9.143199920654297">
<ele>142.6</ele>
<time>2024-05-08T13:30:43Z</time>
</trkpt>
<trkpt lat="49.35237882658839" lon="9.143199920654297">
<ele>142.6</ele>
<time>2024-05-08T13:30:44Z</time>
</trkpt>
<trkpt lat="49.35238259844482" lon="9.143197992816567">
<ele>142.6</ele>
<time>2024-05-08T13:30:46Z</time>
</trkpt>
<trkpt lat="49.35238259844482" lon="9.143196986988189">
<ele>142.6</ele>
<time>2024-05-08T13:30:48Z</time>
</trkpt>
<trkpt lat="49.35238259844482" lon="9.143195142969487">
<ele>142.4</ele>
<time>2024-05-08T13:30:49Z</time>
</trkpt>
<trkpt lat="49.35238259844482" lon="9.14319321513176">
<ele>142.4</ele>
<time>2024-05-08T13:30:50Z</time>
</trkpt>
<trkpt lat="49.35238259844482" lon="9.143195142969487">
<ele>142.4</ele>
<time>2024-05-08T13:30:51Z</time>
</trkpt>
<trkpt lat="49.35238259844482" lon="9.14319321513176">
<ele>142.2</ele>
<time>2024-05-08T13:30:53Z</time>
</trkpt>
<trkpt lat="49.35238645412028" lon="9.143203692510724">
<ele>142.2</ele>
<time>2024-05-08T13:30:56Z</time>
</trkpt>
<trkpt lat="49.35238645412028" lon="9.14323043078184">
<ele>142.2</ele>
<time>2024-05-08T13:30:57Z</time>
</trkpt>
<trkpt lat="49.352390225976706" lon="9.143248535692692">
<ele>142.2</ele>
<time>2024-05-08T13:30:58Z</time>
</trkpt>
<trkpt lat="49.352390225976706" lon="9.143258091062307">
<ele>142</ele>
<time>2024-05-08T13:30:59Z</time>
</trkpt>
<trkpt lat="49.35239408165216" lon="9.14325138553977">
<ele>142</ele>
<time>2024-05-08T13:31:01Z</time>
</trkpt>
<trkpt lat="49.35240548104048" lon="9.14325138553977">
<ele>142</ele>
<time>2024-05-08T13:31:02Z</time>
</trkpt>
<trkpt lat="49.35240548104048" lon="9.14325046353042">
<ele>142</ele>
<time>2024-05-08T13:31:04Z</time>
</trkpt>
<trkpt lat="49.35240933671594" lon="9.1432533133775">
<ele>142</ele>
<time>2024-05-08T13:31:05Z</time>
</trkpt>
<trkpt lat="49.35240548104048" lon="9.143284745514393">
<ele>141.8</ele>
<time>2024-05-08T13:31:07Z</time>
</trkpt>
<trkpt lat="49.35240933671594" lon="9.14329337887466">
<ele>141.6</ele>
<time>2024-05-08T13:31:08Z</time>
</trkpt>
<trkpt lat="49.35241310857237" lon="9.143320033326743">
<ele>141.4</ele>
<time>2024-05-08T13:31:09Z</time>
</trkpt>
<trkpt lat="49.35241696424782" lon="9.14333151653409">
<ele>141.4</ele>
<time>2024-05-08T13:31:10Z</time>
</trkpt>
<trkpt lat="49.35242459177971" lon="9.143338138237596">
<ele>141.4</ele>
<time>2024-05-08T13:31:12Z</time>
</trkpt>
<trkpt lat="49.35243984684348" lon="9.143360098823903">
<ele>141.4</ele>
<time>2024-05-08T13:31:13Z</time>
</trkpt>
<trkpt lat="49.35243984684348" lon="9.143380131572483">
<ele>141.4</ele>
<time>2024-05-08T13:31:14Z</time>
</trkpt>
<trkpt lat="49.352451246231794" lon="9.143403014168143">
<ele>141.4</ele>
<time>2024-05-08T13:31:16Z</time>
</trkpt>
<trkpt lat="49.352451246231794" lon="9.143451629206538">
<ele>141.6</ele>
<time>2024-05-08T13:31:18Z</time>
</trkpt>
<trkpt lat="49.35243599116802" lon="9.14348498918116">
<ele>141.8</ele>
<time>2024-05-08T13:31:19Z</time>
</trkpt>
<trkpt lat="49.35243599116802" lon="9.143494544550776">
<ele>141.8</ele>
<time>2024-05-08T13:31:20Z</time>
</trkpt>
<trkpt lat="49.35243984684348" lon="9.143503177911043">
<ele>141.8</ele>
<time>2024-05-08T13:31:21Z</time>
</trkpt>
<trkpt lat="49.35243599116802" lon="9.143520276993511">
<ele>141.8</ele>
<time>2024-05-08T13:31:22Z</time>
</trkpt>
<trkpt lat="49.35244361869991" lon="9.143529832363129">
<ele>141.8</ele>
<time>2024-05-08T13:31:23Z</time>
</trkpt>
<trkpt lat="49.35245510190725" lon="9.143536537885666">
<ele>142</ele>
<time>2024-05-08T13:31:25Z</time>
</trkpt>
<trkpt lat="49.352470356971025" lon="9.143556570634246">
<ele>142</ele>
<time>2024-05-08T13:31:26Z</time>
</trkpt>
<trkpt lat="49.35249709524214" lon="9.143596636131406">
<ele>142.2</ele>
<time>2024-05-08T13:31:27Z</time>
</trkpt>
<trkpt lat="49.35250472277403" lon="9.143631923943758">
<ele>142.2</ele>
<time>2024-05-08T13:31:28Z</time>
</trkpt>
<trkpt lat="49.35256188735366" lon="9.14364617317915">
<ele>142.2</ele>
<time>2024-05-08T13:31:30Z</time>
</trkpt>
<trkpt lat="49.35257337056101" lon="9.14366528391838">
<ele>142.4</ele>
<time>2024-05-08T13:31:31Z</time>
</trkpt>
<trkpt lat="49.352607652544975" lon="9.143719598650932">
<ele>142.6</ele>
<time>2024-05-08T13:31:33Z</time>
</trkpt>
<trkpt lat="49.352508494630456" lon="9.143759664148092">
<ele>142.6</ele>
<time>2024-05-08T13:31:34Z</time>
</trkpt>
<trkpt lat="49.3525199778378" lon="9.143833089619877">
<ele>142.8</ele>
<time>2024-05-08T13:31:35Z</time>
</trkpt>
<trkpt lat="49.3525199778378" lon="9.14392369799316">
<ele>143</ele>
<time>2024-05-08T13:31:36Z</time>
</trkpt>
<trkpt lat="49.35250472277403" lon="9.14396284148097">
<ele>143.2</ele>
<time>2024-05-08T13:31:37Z</time>
</trkpt>
<trkpt lat="49.35243984684348" lon="9.14410013705492">
<ele>143.4</ele>
<time>2024-05-08T13:31:38Z</time>
</trkpt>
<trkpt lat="49.35243599116802" lon="9.144144980236888">
<ele>143.6</ele>
<time>2024-05-08T13:31:39Z</time>
</trkpt>
<trkpt lat="49.35242459177971" lon="9.144193595275285">
<ele>143.8</ele>
<time>2024-05-08T13:31:41Z</time>
</trkpt>
<trkpt lat="49.35244361869991" lon="9.144245143979788">
<ele>144</ele>
<time>2024-05-08T13:31:43Z</time>
</trkpt>
<trkpt lat="49.35247421264648" lon="9.144287053495646">
<ele>144.2</ele>
<time>2024-05-08T13:31:45Z</time>
</trkpt>
<trkpt lat="49.352508494630456" lon="9.144321419298649">
<ele>144.4</ele>
<time>2024-05-08T13:31:46Z</time>
</trkpt>
<trkpt lat="49.35252374969423" lon="9.14433860220015">
<ele>144.4</ele>
<time>2024-05-08T13:31:48Z</time>
</trkpt>
<trkpt lat="49.35255811549723" lon="9.144366262480617">
<ele>144.4</ele>
<time>2024-05-08T13:31:49Z</time>
</trkpt>
<trkpt lat="49.35257714241743" lon="9.14437958970666">
<ele>144.6</ele>
<time>2024-05-08T13:31:50Z</time>
</trkpt>
<trkpt lat="49.35260002501309" lon="9.14439861662686">
<ele>144.6</ele>
<time>2024-05-08T13:31:51Z</time>
</trkpt>
<trkpt lat="49.35262290760875" lon="9.14441680535674">
<ele>144.8</ele>
<time>2024-05-08T13:31:53Z</time>
</trkpt>
<trkpt lat="49.352649645879865" lon="9.14443675428629">
<ele>144.8</ele>
<time>2024-05-08T13:31:54Z</time>
</trkpt>
<trkpt lat="49.35269926674664" lon="9.144474975764751">
<ele>145.2</ele>
<time>2024-05-08T13:31:56Z</time>
</trkpt>
<trkpt lat="49.352725921198726" lon="9.144495008513331">
<ele>145.2</ele>
<time>2024-05-08T13:31:57Z</time>
</trkpt>
<trkpt lat="49.35275643132627" lon="9.144511185586452">
<ele>145.4</ele>
<time>2024-05-08T13:31:58Z</time>
</trkpt>
<trkpt lat="49.35278316959739" lon="9.144526440650225">
<ele>145.6</ele>
<time>2024-05-08T13:31:59Z</time>
</trkpt>
<trkpt lat="49.35280982404947" lon="9.144546473398805">
<ele>145.8</ele>
<time>2024-05-08T13:32:00Z</time>
</trkpt>
<trkpt lat="49.35285567305982" lon="9.144584611058235">
<ele>145.8</ele>
<time>2024-05-08T13:32:02Z</time>
</trkpt>
<trkpt lat="49.35287469998002" lon="9.144611349329352">
<ele>146</ele>
<time>2024-05-08T13:32:03Z</time>
</trkpt>
<trkpt lat="49.35291283763945" lon="9.144650408998132">
<ele>146.2</ele>
<time>2024-05-08T13:32:05Z</time>
</trkpt>
<trkpt lat="49.35293194837868" lon="9.144679997116327">
<ele>146.2</ele>
<time>2024-05-08T13:32:06Z</time>
</trkpt>
<trkpt lat="49.35297385789454" lon="9.144721906632183">
<ele>146.2</ele>
<time>2024-05-08T13:32:08Z</time>
</trkpt>
<trkpt lat="49.35299296863377" lon="9.144744873046877">
<ele>146.2</ele>
<time>2024-05-08T13:32:09Z</time>
</trkpt>
<trkpt lat="49.35300445184112" lon="9.144768677651882">
<ele>146.2</ele>
<time>2024-05-08T13:32:10Z</time>
</trkpt>
<trkpt lat="49.35300822369754" lon="9.144784854725003">
<ele>146.2</ele>
<time>2024-05-08T13:32:11Z</time>
</trkpt>
<trkpt lat="49.35301585122943" lon="9.144802037626503">
<ele>146.2</ele>
<time>2024-05-08T13:32:13Z</time>
</trkpt>
<trkpt lat="49.35301585122943" lon="9.144822992384434">
<ele>146.2</ele>
<time>2024-05-08T13:32:15Z</time>
</trkpt>
<trkpt lat="49.35301585122943" lon="9.14483447559178">
<ele>146.2</ele>
<time>2024-05-08T13:32:16Z</time>
</trkpt>
<trkpt lat="49.353012079373" lon="9.144844952970743">
<ele>146.2</ele>
<time>2024-05-08T13:32:17Z</time>
</trkpt>
<trkpt lat="49.35301585122943" lon="9.144844952970743">
<ele>146.2</ele>
<time>2024-05-08T13:32:18Z</time>
</trkpt>
<trkpt lat="49.35301585122943" lon="9.144843025133014">
<ele>146.2</ele>
<time>2024-05-08T13:32:19Z</time>
</trkpt>
<trkpt lat="49.35301585122943" lon="9.144846880808473">
<ele>146.2</ele>
<time>2024-05-08T13:32:20Z</time>
</trkpt>
<trkpt lat="49.35301585122943" lon="9.144858280196786">
<ele>146.2</ele>
<time>2024-05-08T13:32:21Z</time>
</trkpt>
<trkpt lat="49.353012079373" lon="9.14487169124186">
<ele>146.2</ele>
<time>2024-05-08T13:32:23Z</time>
</trkpt>
<trkpt lat="49.353012079373" lon="9.14488786831498">
<ele>146.2</ele>
<time>2024-05-08T13:32:24Z</time>
</trkpt>
<trkpt lat="49.353023478761315" lon="9.144909828901293">
<ele>146.2</ele>
<time>2024-05-08T13:32:25Z</time>
</trkpt>
<trkpt lat="49.353023478761315" lon="9.14491175673902">
<ele>146.2</ele>
<time>2024-05-08T13:32:26Z</time>
</trkpt>
<trkpt lat="49.353027334436774" lon="9.144913600757718">
<ele>146.2</ele>
<time>2024-05-08T13:32:28Z</time>
</trkpt>
<trkpt lat="49.35303873382509" lon="9.144920306280255">
<ele>146.2</ele>
<time>2024-05-08T13:32:29Z</time>
</trkpt>
<trkpt lat="49.35303496196866" lon="9.144925083965065">
<ele>146.2</ele>
<time>2024-05-08T13:32:30Z</time>
</trkpt>
<trkpt lat="49.35303873382509" lon="9.144933633506298">
<ele>146.2</ele>
<time>2024-05-08T13:32:31Z</time>
</trkpt>
<trkpt lat="49.35303873382509" lon="9.144940339028835">
<ele>146.2</ele>
<time>2024-05-08T13:32:33Z</time>
</trkpt>
<trkpt lat="49.35303873382509" lon="9.144958443939686">
<ele>146.4</ele>
<time>2024-05-08T13:32:34Z</time>
</trkpt>
<trkpt lat="49.35304258950055" lon="9.144965149462225">
<ele>146.4</ele>
<time>2024-05-08T13:32:35Z</time>
</trkpt>
<trkpt lat="49.35304258950055" lon="9.14496992714703">
<ele>146.4</ele>
<time>2024-05-08T13:32:36Z</time>
</trkpt>
<trkpt lat="49.35303873382509" lon="9.144980404525995">
<ele>146.4</ele>
<time>2024-05-08T13:32:38Z</time>
</trkpt>
<trkpt lat="49.353023478761315" lon="9.144993731752038">
<ele>146.2</ele>
<time>2024-05-08T13:32:40Z</time>
</trkpt>
<trkpt lat="49.35301970690489" lon="9.145003287121654">
<ele>146.2</ele>
<time>2024-05-08T13:32:41Z</time>
</trkpt>
<trkpt lat="49.35301585122943" lon="9.14500705897808">
<ele>146.2</ele>
<time>2024-05-08T13:32:43Z</time>
</trkpt>
<trkpt lat="49.35300822369754" lon="9.145001359283924">
<ele>146.2</ele>
<time>2024-05-08T13:32:44Z</time>
</trkpt>
<trkpt lat="49.35300445184112" lon="9.145000437274575">
<ele>146.2</ele>
<time>2024-05-08T13:32:45Z</time>
</trkpt>
<trkpt lat="49.35299682430923" lon="9.145005214959385">
<ele>146.2</ele>
<time>2024-05-08T13:32:46Z</time>
</trkpt>
<trkpt lat="49.35299682430923" lon="9.145003287121654">
<ele>146.4</ele>
<time>2024-05-08T13:32:47Z</time>
</trkpt>
<trkpt lat="49.35299296863377" lon="9.145005214959385">
<ele>146.2</ele>
<time>2024-05-08T13:32:48Z</time>
</trkpt>
<trkpt lat="49.35299296863377" lon="9.14500705897808">
<ele>146.2</ele>
<time>2024-05-08T13:32:49Z</time>
</trkpt>
<trkpt lat="49.352989196777344" lon="9.145005214959385">
<ele>146.2</ele>
<time>2024-05-08T13:32:50Z</time>
</trkpt>
<trkpt lat="49.352985341101885" lon="9.145005214959385">
<ele>146.2</ele>
<time>2024-05-08T13:32:53Z</time>
</trkpt>
<trkpt lat="49.352985341101885" lon="9.14500705897808">
<ele>146.2</ele>
<time>2024-05-08T13:32:55Z</time>
</trkpt>
<trkpt lat="49.352985341101885" lon="9.14500806480646">
<ele>146.2</ele>
<time>2024-05-08T13:32:56Z</time>
</trkpt>
<trkpt lat="49.352985341101885" lon="9.14500999264419">
<ele>146.2</ele>
<time>2024-05-08T13:32:57Z</time>
</trkpt>
<trkpt lat="49.352985341101885" lon="9.145011836662889">
<ele>146.2</ele>
<time>2024-05-08T13:32:58Z</time>
</trkpt>
<trkpt lat="49.352985341101885" lon="9.145013764500618">
<ele>146.2</ele>
<time>2024-05-08T13:32:59Z</time>
</trkpt>
<trkpt lat="49.352909065783024" lon="9.145132033154368">
<ele>145.6</ele>
<time>2024-05-08T13:32:59Z</time>
</trkpt>
<trkpt lat="49.352905210107565" lon="9.145132955163715">
<ele>145.6</ele>
<time>2024-05-08T13:33:02Z</time>
</trkpt>
<trkpt lat="49.352905210107565" lon="9.145134883001449">
<ele>145.6</ele>
<time>2024-05-08T13:33:07Z</time>
</trkpt>
<trkpt lat="49.352905210107565" lon="9.145136810839176">
<ele>145.6</ele>
<time>2024-05-08T13:33:08Z</time>
</trkpt>
<trkpt lat="49.352905210107565" lon="9.145138738676906">
<ele>145.6</ele>
<time>2024-05-08T13:33:11Z</time>
</trkpt>
<trkpt lat="49.352909065783024" lon="9.145138738676906">
<ele>145.6</ele>
<time>2024-05-08T13:33:13Z</time>
</trkpt>
<trkpt lat="49.35291283763945" lon="9.145136810839176">
<ele>145.6</ele>
<time>2024-05-08T13:33:21Z</time>
</trkpt>
<trkpt lat="49.35291283763945" lon="9.145134883001449">
<ele>145.6</ele>
<time>2024-05-08T13:33:25Z</time>
</trkpt>
<trkpt lat="49.35291283763945" lon="9.145126333460212">
<ele>145.6</ele>
<time>2024-05-08T13:33:27Z</time>
</trkpt>
<trkpt lat="49.35291283763945" lon="9.145125327631831">
<ele>145.6</ele>
<time>2024-05-08T13:33:28Z</time>
</trkpt>
<trkpt lat="49.352909065783024" lon="9.14512817747891">
<ele>145.6</ele>
<time>2024-05-08T13:33:30Z</time>
</trkpt>
<trkpt lat="49.352905210107565" lon="9.14512817747891">
<ele>145.6</ele>
<time>2024-05-08T13:33:32Z</time>
</trkpt>
<trkpt lat="49.35290143825114" lon="9.145126333460212">
<ele>145.6</ele>
<time>2024-05-08T13:33:36Z</time>
</trkpt>
<trkpt lat="49.35290143825114" lon="9.14512817747891">
<ele>145.6</ele>
<time>2024-05-08T13:33:37Z</time>
</trkpt>
<trkpt lat="49.35290143825114" lon="9.145126333460212">
<ele>145.6</ele>
<time>2024-05-08T13:33:38Z</time>
</trkpt>
<trkpt lat="49.35290143825114" lon="9.14512817747891">
<ele>145.6</ele>
<time>2024-05-08T13:33:45Z</time>
</trkpt>
<trkpt lat="49.35290143825114" lon="9.145126333460212">
<ele>145.6</ele>
<time>2024-05-08T13:33:46Z</time>
</trkpt>
<trkpt lat="49.35289758257568" lon="9.14512817747891">
<ele>145.6</ele>
<time>2024-05-08T13:33:49Z</time>
</trkpt>
<trkpt lat="49.35289758257568" lon="9.14513010531664">
<ele>145.6</ele>
<time>2024-05-08T13:33:52Z</time>
</trkpt>
<trkpt lat="49.35289758257568" lon="9.145132033154368">
<ele>145.6</ele>
<time>2024-05-08T13:33:56Z</time>
</trkpt>
<trkpt lat="49.35289758257568" lon="9.145132955163715">
<ele>145.6</ele>
<time>2024-05-08T13:33:58Z</time>
</trkpt>
<trkpt lat="49.35289758257568" lon="9.145134883001449">
<ele>145.6</ele>
<time>2024-05-08T13:34:02Z</time>
</trkpt>
<trkpt lat="49.35289758257568" lon="9.145136810839176">
<ele>145.6</ele>
<time>2024-05-08T13:34:07Z</time>
</trkpt>
<trkpt lat="49.35289381071925" lon="9.145136810839176">
<ele>145.6</ele>
<time>2024-05-08T13:34:10Z</time>
</trkpt>
<trkpt lat="49.35289381071925" lon="9.145138738676906">
<ele>145.6</ele>
<time>2024-05-08T13:34:13Z</time>
</trkpt>
<trkpt lat="49.35289381071925" lon="9.145139660686256">
<ele>145.6</ele>
<time>2024-05-08T13:34:16Z</time>
</trkpt>
<trkpt lat="49.35289381071925" lon="9.145141588523984">
<ele>145.6</ele>
<time>2024-05-08T13:34:18Z</time>
</trkpt>
<trkpt lat="49.35289381071925" lon="9.145143432542682">
<ele>145.6</ele>
<time>2024-05-08T13:34:21Z</time>
</trkpt>
<trkpt lat="49.35289381071925" lon="9.145145360380411">
<ele>145.6</ele>
<time>2024-05-08T13:34:24Z</time>
</trkpt>
<trkpt lat="49.35289381071925" lon="9.145146366208792">
<ele>145.6</ele>
<time>2024-05-08T13:34:26Z</time>
</trkpt>
<trkpt lat="49.35289381071925" lon="9.145145360380411">
<ele>145.6</ele>
<time>2024-05-08T13:34:31Z</time>
</trkpt>
<trkpt lat="49.35289381071925" lon="9.145146366208792">
<ele>145.6</ele>
<time>2024-05-08T13:34:57Z</time>
</trkpt>
<trkpt lat="49.35289381071925" lon="9.145145360380411">
<ele>145.6</ele>
<time>2024-05-08T13:35:06Z</time>
</trkpt>
<trkpt lat="49.35289758257568" lon="9.145143432542682">
<ele>145.6</ele>
<time>2024-05-08T13:35:14Z</time>
</trkpt>
<trkpt lat="49.35289758257568" lon="9.145141588523984">
<ele>145.6</ele>
<time>2024-05-08T13:35:16Z</time>
</trkpt>
<trkpt lat="49.35289758257568" lon="9.145139660686256">
<ele>145.6</ele>
<time>2024-05-08T13:35:26Z</time>
</trkpt>
<trkpt lat="49.35290143825114" lon="9.145138738676906">
<ele>145.6</ele>
<time>2024-05-08T13:35:30Z</time>
</trkpt>
<trkpt lat="49.35290143825114" lon="9.145139660686256">
<ele>145.6</ele>
<time>2024-05-08T13:35:32Z</time>
</trkpt>
<trkpt lat="49.35290143825114" lon="9.145138738676906">
<ele>145.6</ele>
<time>2024-05-08T13:35:33Z</time>
</trkpt>
<trkpt lat="49.35290143825114" lon="9.145136810839176">
<ele>145.6</ele>
<time>2024-05-08T13:35:35Z</time>
</trkpt>
<trkpt lat="49.35289758257568" lon="9.145136810839176">
<ele>145.6</ele>
<time>2024-05-08T13:35:37Z</time>
</trkpt>
<trkpt lat="49.35289758257568" lon="9.145134883001449">
<ele>145.6</ele>
<time>2024-05-08T13:35:39Z</time>
</trkpt>
<trkpt lat="49.35290143825114" lon="9.145134883001449">
<ele>145.6</ele>
<time>2024-05-08T13:35:40Z</time>
</trkpt>
<trkpt lat="49.35290143825114" lon="9.145132955163715">
<ele>145.6</ele>
<time>2024-05-08T13:35:42Z</time>
</trkpt>
<trkpt lat="49.35290143825114" lon="9.145132033154368">
<ele>145.6</ele>
<time>2024-05-08T13:35:43Z</time>
</trkpt>
<trkpt lat="49.35290143825114" lon="9.14513010531664">
<ele>145.6</ele>
<time>2024-05-08T13:35:46Z</time>
</trkpt>
<trkpt lat="49.352905210107565" lon="9.14513010531664">
<ele>145.6</ele>
<time>2024-05-08T13:35:55Z</time>
</trkpt>
<trkpt lat="49.352905210107565" lon="9.14512817747891">
<ele>145.6</ele>
<time>2024-05-08T13:35:57Z</time>
</trkpt>
<trkpt lat="49.352905210107565" lon="9.14513010531664">
<ele>145.6</ele>
<time>2024-05-08T13:35:59Z</time>
</trkpt>
<trkpt lat="49.35290143825114" lon="9.14513010531664">
<ele>145.6</ele>
<time>2024-05-08T13:36:01Z</time>
</trkpt>
<trkpt lat="49.35290143825114" lon="9.145132033154368">
<ele>145.6</ele>
<time>2024-05-08T13:36:03Z</time>
</trkpt>
<trkpt lat="49.352905210107565" lon="9.145132033154368">
<ele>145.6</ele>
<time>2024-05-08T13:36:06Z</time>
</trkpt>
<trkpt lat="49.35290143825114" lon="9.14513010531664">
<ele>145.6</ele>
<time>2024-05-08T13:36:08Z</time>
</trkpt>
<trkpt lat="49.35290143825114" lon="9.14512817747891">
<ele>145.6</ele>
<time>2024-05-08T13:36:11Z</time>
</trkpt>
<trkpt lat="49.35290143825114" lon="9.145126333460212">
<ele>145.6</ele>
<time>2024-05-08T13:36:18Z</time>
</trkpt>
<trkpt lat="49.35290143825114" lon="9.14512817747891">
<ele>145.6</ele>
<time>2024-05-08T13:36:19Z</time>
</trkpt>
<trkpt lat="49.35290143825114" lon="9.145126333460212">
<ele>145.6</ele>
<time>2024-05-08T13:36:21Z</time>
</trkpt>
<trkpt lat="49.35290143825114" lon="9.14512817747891">
<ele>145.6</ele>
<time>2024-05-08T13:36:24Z</time>
</trkpt>
<trkpt lat="49.35290143825114" lon="9.14513010531664">
<ele>145.6</ele>
<time>2024-05-08T13:36:28Z</time>
</trkpt>
<trkpt lat="49.352905210107565" lon="9.14513010531664">
<ele>145.6</ele>
<time>2024-05-08T13:36:29Z</time>
</trkpt>
<trkpt lat="49.352905210107565" lon="9.14512817747891">
<ele>145.6</ele>
<time>2024-05-08T13:36:31Z</time>
</trkpt>
<trkpt lat="49.352905210107565" lon="9.145126333460212">
<ele>145.6</ele>
<time>2024-05-08T13:36:35Z</time>
</trkpt>
<trkpt lat="49.352905210107565" lon="9.145125327631831">
<ele>145.6</ele>
<time>2024-05-08T13:36:38Z</time>
</trkpt>
<trkpt lat="49.352905210107565" lon="9.145123399794102">
<ele>145.6</ele>
<time>2024-05-08T13:36:41Z</time>
</trkpt>
<trkpt lat="49.352909065783024" lon="9.145119627937676">
<ele>145.6</ele>
<time>2024-05-08T13:36:43Z</time>
</trkpt>
<trkpt lat="49.352909065783024" lon="9.145118705928326">
<ele>145.6</ele>
<time>2024-05-08T13:36:45Z</time>
</trkpt>
<trkpt lat="49.352909065783024" lon="9.145114850252869">
<ele>145.6</ele>
<time>2024-05-08T13:36:47Z</time>
</trkpt>
<trkpt lat="49.352909065783024" lon="9.145116778090596">
<ele>145.6</ele>
<time>2024-05-08T13:36:49Z</time>
</trkpt>
<trkpt lat="49.352905210107565" lon="9.145116778090596">
<ele>145.6</ele>
<time>2024-05-08T13:36:51Z</time>
</trkpt>
<trkpt lat="49.352905210107565" lon="9.145118705928326">
<ele>145.6</ele>
<time>2024-05-08T13:36:52Z</time>
</trkpt>
<trkpt lat="49.352905210107565" lon="9.145119627937676">
<ele>145.6</ele>
<time>2024-05-08T13:36:58Z</time>
</trkpt>
<trkpt lat="49.35290143825114" lon="9.145119627937676">
<ele>145.6</ele>
<time>2024-05-08T13:37:01Z</time>
</trkpt>
<trkpt lat="49.35290143825114" lon="9.145121555775404">
<ele>145.6</ele>
<time>2024-05-08T13:37:02Z</time>
</trkpt>
<trkpt lat="49.35290143825114" lon="9.145123399794102">
<ele>145.6</ele>
<time>2024-05-08T13:37:06Z</time>
</trkpt>
<trkpt lat="49.35290143825114" lon="9.145125327631831">
<ele>145.6</ele>
<time>2024-05-08T13:37:09Z</time>
</trkpt>
<trkpt lat="49.35290143825114" lon="9.145126333460212">
<ele>145.6</ele>
<time>2024-05-08T13:37:11Z</time>
</trkpt>
<trkpt lat="49.35289758257568" lon="9.145126333460212">
<ele>145.6</ele>
<time>2024-05-08T13:37:13Z</time>
</trkpt>
<trkpt lat="49.35289758257568" lon="9.14512817747891">
<ele>145.6</ele>
<time>2024-05-08T13:37:14Z</time>
</trkpt>
<trkpt lat="49.35289758257568" lon="9.14513010531664">
<ele>145.6</ele>
<time>2024-05-08T13:37:17Z</time>
</trkpt>
<trkpt lat="49.35289758257568" lon="9.145132033154368">
<ele>145.6</ele>
<time>2024-05-08T13:37:19Z</time>
</trkpt>
<trkpt lat="49.35289758257568" lon="9.145132955163715">
<ele>145.6</ele>
<time>2024-05-08T13:37:21Z</time>
</trkpt>
<trkpt lat="49.35289758257568" lon="9.145134883001449">
<ele>145.6</ele>
<time>2024-05-08T13:37:24Z</time>
</trkpt>
<trkpt lat="49.35289758257568" lon="9.145136810839176">
<ele>145.6</ele>
<time>2024-05-08T13:37:26Z</time>
</trkpt>
<trkpt lat="49.35289758257568" lon="9.145134883001449">
<ele>145.6</ele>
<time>2024-05-08T13:37:28Z</time>
</trkpt>
<trkpt lat="49.35289758257568" lon="9.145139660686256">
<ele>145.6</ele>
<time>2024-05-08T13:37:32Z</time>
</trkpt>
<trkpt lat="49.35290143825114" lon="9.145139660686256">
<ele>145.6</ele>
<time>2024-05-08T13:37:33Z</time>
</trkpt>
<trkpt lat="49.35290143825114" lon="9.145141588523984">
<ele>145.6</ele>
<time>2024-05-08T13:37:37Z</time>
</trkpt>
<trkpt lat="49.35290143825114" lon="9.145143432542682">
<ele>145.6</ele>
<time>2024-05-08T13:37:41Z</time>
</trkpt>
<trkpt lat="49.35290143825114" lon="9.145145360380411">
<ele>145.6</ele>
<time>2024-05-08T13:37:42Z</time>
</trkpt>
<trkpt lat="49.35290143825114" lon="9.145146366208792">
<ele>145.6</ele>
<time>2024-05-08T13:37:43Z</time>
</trkpt>
<trkpt lat="49.35289758257568" lon="9.145146366208792">
<ele>145.6</ele>
<time>2024-05-08T13:37:50Z</time>
</trkpt>
<trkpt lat="49.35289758257568" lon="9.14514821022749">
<ele>145.6</ele>
<time>2024-05-08T13:37:52Z</time>
</trkpt>
<trkpt lat="49.35289758257568" lon="9.14515013806522">
<ele>145.6</ele>
<time>2024-05-08T13:37:57Z</time>
</trkpt>
<trkpt lat="49.35289758257568" lon="9.14514821022749">
<ele>145.6</ele>
<time>2024-05-08T13:38:01Z</time>
</trkpt>
<trkpt lat="49.35290143825114" lon="9.145146366208792">
<ele>145.6</ele>
<time>2024-05-08T13:38:02Z</time>
</trkpt>
<trkpt lat="49.35290143825114" lon="9.145145360380411">
<ele>145.6</ele>
<time>2024-05-08T13:38:03Z</time>
</trkpt>
<trkpt lat="49.35290143825114" lon="9.145143432542682">
<ele>145.6</ele>
<time>2024-05-08T13:38:04Z</time>
</trkpt>
<trkpt lat="49.352905210107565" lon="9.145143432542682">
<ele>145.6</ele>
<time>2024-05-08T13:38:14Z</time>
</trkpt>
<trkpt lat="49.352905210107565" lon="9.145141588523984">
<ele>145.6</ele>
<time>2024-05-08T13:38:18Z</time>
</trkpt>
<trkpt lat="49.352905210107565" lon="9.145139660686256">
<ele>145.6</ele>
<time>2024-05-08T13:38:19Z</time>
</trkpt>
<trkpt lat="49.35290143825114" lon="9.145141588523984">
<ele>145.6</ele>
<time>2024-05-08T13:38:31Z</time>
</trkpt>
<trkpt lat="49.35290143825114" lon="9.145143432542682">
<ele>145.6</ele>
<time>2024-05-08T13:38:36Z</time>
</trkpt>
<trkpt lat="49.35290143825114" lon="9.145145360380411">
<ele>145.6</ele>
<time>2024-05-08T13:38:38Z</time>
</trkpt>
<trkpt lat="49.352905210107565" lon="9.145145360380411">
<ele>145.6</ele>
<time>2024-05-08T13:38:41Z</time>
</trkpt>
<trkpt lat="49.352905210107565" lon="9.145143432542682">
<ele>145.6</ele>
<time>2024-05-08T13:38:43Z</time>
</trkpt>
<trkpt lat="49.352905210107565" lon="9.145141588523984">
<ele>145.6</ele>
<time>2024-05-08T13:38:46Z</time>
</trkpt>
<trkpt lat="49.352905210107565" lon="9.145139660686256">
<ele>145.6</ele>
<time>2024-05-08T13:38:49Z</time>
</trkpt>
<trkpt lat="49.352909065783024" lon="9.145138738676906">
<ele>145.6</ele>
<time>2024-05-08T13:38:52Z</time>
</trkpt>
<trkpt lat="49.352909065783024" lon="9.145134883001449">
<ele>145.6</ele>
<time>2024-05-08T13:38:53Z</time>
</trkpt>
<trkpt lat="49.35291283763945" lon="9.145132955163715">
<ele>145.6</ele>
<time>2024-05-08T13:38:54Z</time>
</trkpt>
<trkpt lat="49.35291669331491" lon="9.145126333460212">
<ele>145.6</ele>
<time>2024-05-08T13:38:56Z</time>
</trkpt>
<trkpt lat="49.35291669331491" lon="9.145123399794102">
<ele>145.6</ele>
<time>2024-05-08T13:38:57Z</time>
</trkpt>
<trkpt lat="49.35291669331491" lon="9.145118705928326">
<ele>145.6</ele>
<time>2024-05-08T13:38:58Z</time>
</trkpt>
<trkpt lat="49.35292046517134" lon="9.145114850252869">
<ele>145.6</ele>
<time>2024-05-08T13:38:59Z</time>
</trkpt>
<trkpt lat="49.35292046517134" lon="9.145112000405788">
<ele>145.6</ele>
<time>2024-05-08T13:39:01Z</time>
</trkpt>
<trkpt lat="49.35292046517134" lon="9.14511007256806">
<ele>145.6</ele>
<time>2024-05-08T13:39:02Z</time>
</trkpt>
<trkpt lat="49.35292046517134" lon="9.14510814473033">
<ele>145.6</ele>
<time>2024-05-08T13:39:03Z</time>
</trkpt>
<trkpt lat="49.3529243208468" lon="9.145106300711632">
<ele>145.6</ele>
<time>2024-05-08T13:39:04Z</time>
</trkpt>
<trkpt lat="49.3529243208468" lon="9.145105294883251">
<ele>145.6</ele>
<time>2024-05-08T13:39:05Z</time>
</trkpt>
<trkpt lat="49.3529243208468" lon="9.145103450864552">
<ele>145.6</ele>
<time>2024-05-08T13:39:09Z</time>
</trkpt>
<trkpt lat="49.3529243208468" lon="9.145099595189096">
<ele>145.6</ele>
<time>2024-05-08T13:39:10Z</time>
</trkpt>
<trkpt lat="49.35292809270322" lon="9.145099595189096">
<ele>145.6</ele>
<time>2024-05-08T13:39:11Z</time>
</trkpt>
<trkpt lat="49.3529243208468" lon="9.145101523026824">
<ele>145.6</ele>
<time>2024-05-08T13:39:14Z</time>
</trkpt>
<trkpt lat="49.3529243208468" lon="9.145103450864552">
<ele>145.6</ele>
<time>2024-05-08T13:39:17Z</time>
</trkpt>
<trkpt lat="49.3529243208468" lon="9.145105294883251">
<ele>145.6</ele>
<time>2024-05-08T13:39:18Z</time>
</trkpt>
<trkpt lat="49.3529243208468" lon="9.145106300711632">
<ele>145.6</ele>
<time>2024-05-08T13:39:21Z</time>
</trkpt>
<trkpt lat="49.3529243208468" lon="9.14510814473033">
<ele>145.6</ele>
<time>2024-05-08T13:39:22Z</time>
</trkpt>
<trkpt lat="49.3529243208468" lon="9.14511007256806">
<ele>145.6</ele>
<time>2024-05-08T13:39:24Z</time>
</trkpt>
<trkpt lat="49.3529243208468" lon="9.145112000405788">
<ele>145.6</ele>
<time>2024-05-08T13:39:26Z</time>
</trkpt>
<trkpt lat="49.3529243208468" lon="9.145112922415136">
<ele>145.6</ele>
<time>2024-05-08T13:39:28Z</time>
</trkpt>
<trkpt lat="49.3529243208468" lon="9.145114850252869">
<ele>145.6</ele>
<time>2024-05-08T13:39:29Z</time>
</trkpt>
<trkpt lat="49.3529243208468" lon="9.145116778090596">
<ele>145.6</ele>
<time>2024-05-08T13:39:31Z</time>
</trkpt>
<trkpt lat="49.3529243208468" lon="9.145118705928326">
<ele>145.6</ele>
<time>2024-05-08T13:39:33Z</time>
</trkpt>
<trkpt lat="49.3529243208468" lon="9.145119627937676">
<ele>145.6</ele>
<time>2024-05-08T13:39:36Z</time>
</trkpt>
<trkpt lat="49.35292046517134" lon="9.145121555775404">
<ele>145.6</ele>
<time>2024-05-08T13:39:37Z</time>
</trkpt>
<trkpt lat="49.35292046517134" lon="9.145123399794102">
<ele>145.6</ele>
<time>2024-05-08T13:39:39Z</time>
</trkpt>
<trkpt lat="49.35292046517134" lon="9.145125327631831">
<ele>145.6</ele>
<time>2024-05-08T13:39:41Z</time>
</trkpt>
<trkpt lat="49.35292046517134" lon="9.145126333460212">
<ele>145.6</ele>
<time>2024-05-08T13:39:44Z</time>
</trkpt>
<trkpt lat="49.35292046517134" lon="9.145125327631831">
<ele>145.6</ele>
<time>2024-05-08T13:39:46Z</time>
</trkpt>
<trkpt lat="49.35292046517134" lon="9.145126333460212">
<ele>145.6</ele>
<time>2024-05-08T13:39:47Z</time>
</trkpt>
<trkpt lat="49.35292046517134" lon="9.145125327631831">
<ele>145.6</ele>
<time>2024-05-08T13:39:51Z</time>
</trkpt>
<trkpt lat="49.35292046517134" lon="9.145123399794102">
<ele>145.6</ele>
<time>2024-05-08T13:39:52Z</time>
</trkpt>
<trkpt lat="49.35292046517134" lon="9.145121555775404">
<ele>145.6</ele>
<time>2024-05-08T13:39:53Z</time>
</trkpt>
<trkpt lat="49.35292046517134" lon="9.145123399794102">
<ele>145.6</ele>
<time>2024-05-08T13:39:54Z</time>
</trkpt>
<trkpt lat="49.35292046517134" lon="9.145125327631831">
<ele>145.6</ele>
<time>2024-05-08T13:39:57Z</time>
</trkpt>
<trkpt lat="49.3529243208468" lon="9.145123399794102">
<ele>145.6</ele>
<time>2024-05-08T13:40:02Z</time>
</trkpt>
<trkpt lat="49.3529243208468" lon="9.145121555775404">
<ele>145.6</ele>
<time>2024-05-08T13:40:04Z</time>
</trkpt>
<trkpt lat="49.35292046517134" lon="9.145121555775404">
<ele>145.6</ele>
<time>2024-05-08T13:40:12Z</time>
</trkpt>
<trkpt lat="49.35292046517134" lon="9.145123399794102">
<ele>145.6</ele>
<time>2024-05-08T13:40:23Z</time>
</trkpt>
<trkpt lat="49.35292046517134" lon="9.145126333460212">
<ele>145.6</ele>
<time>2024-05-08T13:40:26Z</time>
</trkpt>
<trkpt lat="49.35291669331491" lon="9.145126333460212">
<ele>145.6</ele>
<time>2024-05-08T13:40:27Z</time>
</trkpt>
<trkpt lat="49.35291669331491" lon="9.14512817747891">
<ele>145.6</ele>
<time>2024-05-08T13:40:28Z</time>
</trkpt>
<trkpt lat="49.35291669331491" lon="9.14513010531664">
<ele>145.6</ele>
<time>2024-05-08T13:40:31Z</time>
</trkpt>
<trkpt lat="49.35291669331491" lon="9.145132033154368">
<ele>145.6</ele>
<time>2024-05-08T13:40:33Z</time>
</trkpt>
<trkpt lat="49.35291669331491" lon="9.145132955163715">
<ele>145.6</ele>
<time>2024-05-08T13:40:34Z</time>
</trkpt>
<trkpt lat="49.35291283763945" lon="9.145134883001449">
<ele>145.6</ele>
<time>2024-05-08T13:40:36Z</time>
</trkpt>
<trkpt lat="49.35291283763945" lon="9.145136810839176">
<ele>145.6</ele>
<time>2024-05-08T13:40:38Z</time>
</trkpt>
<trkpt lat="49.35291283763945" lon="9.145138738676906">
<ele>145.6</ele>
<time>2024-05-08T13:40:40Z</time>
</trkpt>
<trkpt lat="49.352909065783024" lon="9.145139660686256">
<ele>145.6</ele>
<time>2024-05-08T13:40:41Z</time>
</trkpt>
<trkpt lat="49.352909065783024" lon="9.145141588523984">
<ele>145.6</ele>
<time>2024-05-08T13:40:42Z</time>
</trkpt>
<trkpt lat="49.352909065783024" lon="9.145143432542682">
<ele>145.6</ele>
<time>2024-05-08T13:40:43Z</time>
</trkpt>
<trkpt lat="49.352909065783024" lon="9.145145360380411">
<ele>145.6</ele>
<time>2024-05-08T13:40:45Z</time>
</trkpt>
<trkpt lat="49.352905210107565" lon="9.14514821022749">
<ele>145.6</ele>
<time>2024-05-08T13:40:46Z</time>
</trkpt>
<trkpt lat="49.352905210107565" lon="9.14515013806522">
<ele>145.6</ele>
<time>2024-05-08T13:40:47Z</time>
</trkpt>
<trkpt lat="49.352905210107565" lon="9.145152065902948">
<ele>145.6</ele>
<time>2024-05-08T13:40:48Z</time>
</trkpt>
<trkpt lat="49.352905210107565" lon="9.145152987912295">
<ele>145.6</ele>
<time>2024-05-08T13:40:49Z</time>
</trkpt>
<trkpt lat="49.35290143825114" lon="9.145156843587756">
<ele>145.6</ele>
<time>2024-05-08T13:40:51Z</time>
</trkpt>
<trkpt lat="49.35290143825114" lon="9.145158687606454">
<ele>145.6</ele>
<time>2024-05-08T13:40:52Z</time>
</trkpt>
<trkpt lat="49.35290143825114" lon="9.145159693434834">
<ele>145.6</ele>
<time>2024-05-08T13:40:53Z</time>
</trkpt>
<trkpt lat="49.35290143825114" lon="9.145165393128991">
<ele>145.6</ele>
<time>2024-05-08T13:40:56Z</time>
</trkpt>
<trkpt lat="49.35290143825114" lon="9.14516631513834">
<ele>145.6</ele>
<time>2024-05-08T13:40:58Z</time>
</trkpt>
<trkpt lat="49.35290143825114" lon="9.14516824297607">
<ele>145.6</ele>
<time>2024-05-08T13:40:59Z</time>
</trkpt>
<trkpt lat="49.35289758257568" lon="9.14516824297607">
<ele>145.6</ele>
<time>2024-05-08T13:41:01Z</time>
</trkpt>
<trkpt lat="49.35289381071925" lon="9.1451701708138">
<ele>145.6</ele>
<time>2024-05-08T13:41:04Z</time>
</trkpt>
<trkpt lat="49.35289381071925" lon="9.145172098651528">
<ele>145.6</ele>
<time>2024-05-08T13:41:07Z</time>
</trkpt>
<trkpt lat="49.35289381071925" lon="9.145173020660875">
<ele>145.6</ele>
<time>2024-05-08T13:41:09Z</time>
</trkpt>
<trkpt lat="49.35289381071925" lon="9.145174948498608">
<ele>145.6</ele>
<time>2024-05-08T13:41:11Z</time>
</trkpt>
<trkpt lat="49.35289381071925" lon="9.145176876336336">
<ele>145.6</ele>
<time>2024-05-08T13:41:12Z</time>
</trkpt>
<trkpt lat="49.35289381071925" lon="9.145178720355034">
<ele>145.6</ele>
<time>2024-05-08T13:41:14Z</time>
</trkpt>
<trkpt lat="49.35289381071925" lon="9.145179726183414">
<ele>145.6</ele>
<time>2024-05-08T13:41:17Z</time>
</trkpt>
<trkpt lat="49.35289381071925" lon="9.145181654021144">
<ele>145.6</ele>
<time>2024-05-08T13:41:19Z</time>
</trkpt>
<trkpt lat="49.35289381071925" lon="9.145179726183414">
<ele>145.6</ele>
<time>2024-05-08T13:41:21Z</time>
</trkpt>
<trkpt lat="49.35289758257568" lon="9.145179726183414">
<ele>145.6</ele>
<time>2024-05-08T13:41:26Z</time>
</trkpt>
<trkpt lat="49.35289381071925" lon="9.145178720355034">
<ele>145.6</ele>
<time>2024-05-08T13:41:28Z</time>
</trkpt>
<trkpt lat="49.35289758257568" lon="9.145178720355034">
<ele>145.6</ele>
<time>2024-05-08T13:41:29Z</time>
</trkpt>
<trkpt lat="49.35289758257568" lon="9.145179726183414">
<ele>145.6</ele>
<time>2024-05-08T13:41:34Z</time>
</trkpt>
<trkpt lat="49.35289758257568" lon="9.145178720355034">
<ele>145.6</ele>
<time>2024-05-08T13:41:36Z</time>
</trkpt>
<trkpt lat="49.35289381071925" lon="9.145178720355034">
<ele>145.6</ele>
<time>2024-05-08T13:41:42Z</time>
</trkpt>
<trkpt lat="49.35289758257568" lon="9.145176876336336">
<ele>145.6</ele>
<time>2024-05-08T13:41:43Z</time>
</trkpt>
<trkpt lat="49.35289758257568" lon="9.145174948498608">
<ele>145.6</ele>
<time>2024-05-08T13:41:44Z</time>
</trkpt>
<trkpt lat="49.35289758257568" lon="9.145173020660875">
<ele>145.6</ele>
<time>2024-05-08T13:41:46Z</time>
</trkpt>
<trkpt lat="49.35290143825114" lon="9.145172098651528">
<ele>145.6</ele>
<time>2024-05-08T13:41:47Z</time>
</trkpt>
<trkpt lat="49.35290143825114" lon="9.1451701708138">
<ele>145.6</ele>
<time>2024-05-08T13:41:49Z</time>
</trkpt>
<trkpt lat="49.35290143825114" lon="9.14516824297607">
<ele>145.6</ele>
<time>2024-05-08T13:41:52Z</time>
</trkpt>
<trkpt lat="49.352905210107565" lon="9.14516824297607">
<ele>145.6</ele>
<time>2024-05-08T13:41:56Z</time>
</trkpt>
<trkpt lat="49.352905210107565" lon="9.14516631513834">
<ele>145.6</ele>
<time>2024-05-08T13:41:57Z</time>
</trkpt>
<trkpt lat="49.352905210107565" lon="9.145165393128991">
<ele>145.6</ele>
<time>2024-05-08T13:41:58Z</time>
</trkpt>
<trkpt lat="49.352905210107565" lon="9.145163465291262">
<ele>145.6</ele>
<time>2024-05-08T13:42:01Z</time>
</trkpt>
<trkpt lat="49.352909065783024" lon="9.145161621272564">
<ele>145.6</ele>
<time>2024-05-08T13:42:03Z</time>
</trkpt>
<trkpt lat="49.35291283763945" lon="9.145161621272564">
<ele>145.6</ele>
<time>2024-05-08T13:42:13Z</time>
</trkpt>
<trkpt lat="49.35291283763945" lon="9.145163465291262">
<ele>145.6</ele>
<time>2024-05-08T13:42:14Z</time>
</trkpt>
<trkpt lat="49.35291283763945" lon="9.145165393128991">
<ele>145.6</ele>
<time>2024-05-08T13:42:16Z</time>
</trkpt>
<trkpt lat="49.35291283763945" lon="9.14516631513834">
<ele>145.6</ele>
<time>2024-05-08T13:42:21Z</time>
</trkpt>
<trkpt lat="49.35291283763945" lon="9.14516824297607">
<ele>145.6</ele>
<time>2024-05-08T13:42:26Z</time>
</trkpt>
<trkpt lat="49.35291669331491" lon="9.14516824297607">
<ele>145.6</ele>
<time>2024-05-08T13:42:32Z</time>
</trkpt>
<trkpt lat="49.35291669331491" lon="9.14516631513834">
<ele>145.6</ele>
<time>2024-05-08T13:42:34Z</time>
</trkpt>
<trkpt lat="49.35291669331491" lon="9.145165393128991">
<ele>145.6</ele>
<time>2024-05-08T13:42:36Z</time>
</trkpt>
<trkpt lat="49.35291669331491" lon="9.145161621272564">
<ele>145.6</ele>
<time>2024-05-08T13:42:37Z</time>
</trkpt>
<trkpt lat="49.35292046517134" lon="9.145161621272564">
<ele>145.6</ele>
<time>2024-05-08T13:42:41Z</time>
</trkpt>
<trkpt lat="49.35292046517134" lon="9.145163465291262">
<ele>145.6</ele>
<time>2024-05-08T13:42:42Z</time>
</trkpt>
<trkpt lat="49.3529243208468" lon="9.145163465291262">
<ele>145.6</ele>
<time>2024-05-08T13:42:44Z</time>
</trkpt>
<trkpt lat="49.35292809270322" lon="9.145165393128991">
<ele>145.6</ele>
<time>2024-05-08T13:42:48Z</time>
</trkpt>
<trkpt lat="49.35292809270322" lon="9.14516631513834">
<ele>145.6</ele>
<time>2024-05-08T13:42:54Z</time>
</trkpt>
<trkpt lat="49.35292809270322" lon="9.14516824297607">
<ele>145.6</ele>
<time>2024-05-08T13:42:59Z</time>
</trkpt>
<trkpt lat="49.35292809270322" lon="9.1451701708138">
<ele>145.6</ele>
<time>2024-05-08T13:43:03Z</time>
</trkpt>
<trkpt lat="49.35292809270322" lon="9.145172098651528">
<ele>145.6</ele>
<time>2024-05-08T13:43:08Z</time>
</trkpt>
<trkpt lat="49.3529243208468" lon="9.145173020660875">
<ele>145.6</ele>
<time>2024-05-08T13:43:11Z</time>
</trkpt>
<trkpt lat="49.3529243208468" lon="9.145174948498608">
<ele>145.6</ele>
<time>2024-05-08T13:43:14Z</time>
</trkpt>
<trkpt lat="49.35292046517134" lon="9.145174948498608">
<ele>145.6</ele>
<time>2024-05-08T13:43:17Z</time>
</trkpt>
<trkpt lat="49.35292046517134" lon="9.145176876336336">
<ele>145.6</ele>
<time>2024-05-08T13:43:22Z</time>
</trkpt>
<trkpt lat="49.35292046517134" lon="9.145178720355034">
<ele>145.6</ele>
<time>2024-05-08T13:43:33Z</time>
</trkpt>
<trkpt lat="49.35292046517134" lon="9.145176876336336">
<ele>145.6</ele>
<time>2024-05-08T13:43:34Z</time>
</trkpt>
<trkpt lat="49.3529243208468" lon="9.145174948498608">
<ele>145.6</ele>
<time>2024-05-08T13:43:36Z</time>
</trkpt>
<trkpt lat="49.3529243208468" lon="9.145173020660875">
<ele>145.6</ele>
<time>2024-05-08T13:43:37Z</time>
</trkpt>
<trkpt lat="49.3529243208468" lon="9.145172098651528">
<ele>145.6</ele>
<time>2024-05-08T13:43:38Z</time>
</trkpt>
<trkpt lat="49.35292809270322" lon="9.145172098651528">
<ele>145.6</ele>
<time>2024-05-08T13:43:41Z</time>
</trkpt>
<trkpt lat="49.3529243208468" lon="9.1451701708138">
<ele>145.6</ele>
<time>2024-05-08T13:43:44Z</time>
</trkpt>
<trkpt lat="49.3529243208468" lon="9.145172098651528">
<ele>145.6</ele>
<time>2024-05-08T13:43:46Z</time>
</trkpt>
<trkpt lat="49.3529243208468" lon="9.1451701708138">
<ele>145.6</ele>
<time>2024-05-08T13:43:47Z</time>
</trkpt>
<trkpt lat="49.3529243208468" lon="9.145172098651528">
<ele>145.6</ele>
<time>2024-05-08T13:43:48Z</time>
</trkpt>
<trkpt lat="49.3529243208468" lon="9.1451701708138">
<ele>145.6</ele>
<time>2024-05-08T13:43:49Z</time>
</trkpt>
<trkpt lat="49.35292046517134" lon="9.1451701708138">
<ele>145.6</ele>
<time>2024-05-08T13:43:52Z</time>
</trkpt>
<trkpt lat="49.35292046517134" lon="9.14516824297607">
<ele>145.6</ele>
<time>2024-05-08T13:43:53Z</time>
</trkpt>
<trkpt lat="49.35291669331491" lon="9.14516824297607">
<ele>145.6</ele>
<time>2024-05-08T13:43:56Z</time>
</trkpt>
<trkpt lat="49.35291669331491" lon="9.14516631513834">
<ele>145.6</ele>
<time>2024-05-08T13:43:57Z</time>
</trkpt>
<trkpt lat="49.35291669331491" lon="9.145165393128991">
<ele>145.6</ele>
<time>2024-05-08T13:43:58Z</time>
</trkpt>
<trkpt lat="49.35291669331491" lon="9.145163465291262">
<ele>145.6</ele>
<time>2024-05-08T13:44:01Z</time>
</trkpt>
<trkpt lat="49.35291669331491" lon="9.145161621272564">
<ele>145.6</ele>
<time>2024-05-08T13:44:02Z</time>
</trkpt>
<trkpt lat="49.35291669331491" lon="9.145159693434834">
<ele>145.6</ele>
<time>2024-05-08T13:44:03Z</time>
</trkpt>
<trkpt lat="49.35291283763945" lon="9.145161621272564">
<ele>145.6</ele>
<time>2024-05-08T13:44:04Z</time>
</trkpt>
<trkpt lat="49.35291283763945" lon="9.145159693434834">
<ele>145.6</ele>
<time>2024-05-08T13:44:09Z</time>
</trkpt>
<trkpt lat="49.35291283763945" lon="9.145161621272564">
<ele>145.6</ele>
<time>2024-05-08T13:44:11Z</time>
</trkpt>
<trkpt lat="49.352909065783024" lon="9.145161621272564">
<ele>145.6</ele>
<time>2024-05-08T13:44:14Z</time>
</trkpt>
<trkpt lat="49.352909065783024" lon="9.145163465291262">
<ele>145.6</ele>
<time>2024-05-08T13:44:22Z</time>
</trkpt>
<trkpt lat="49.352905210107565" lon="9.145163465291262">
<ele>145.6</ele>
<time>2024-05-08T13:44:24Z</time>
</trkpt>
<trkpt lat="49.352905210107565" lon="9.145165393128991">
<ele>145.6</ele>
<time>2024-05-08T13:44:26Z</time>
</trkpt>
<trkpt lat="49.352905210107565" lon="9.14516631513834">
<ele>145.6</ele>
<time>2024-05-08T13:44:32Z</time>
</trkpt>
<trkpt lat="49.35290143825114" lon="9.14516631513834">
<ele>145.6</ele>
<time>2024-05-08T13:44:34Z</time>
</trkpt>
<trkpt lat="49.35290143825114" lon="9.14516824297607">
<ele>145.6</ele>
<time>2024-05-08T13:44:36Z</time>
</trkpt>
<trkpt lat="49.35290143825114" lon="9.1451701708138">
<ele>145.6</ele>
<time>2024-05-08T13:44:38Z</time>
</trkpt>
<trkpt lat="49.35290143825114" lon="9.145173020660875">
<ele>145.6</ele>
<time>2024-05-08T13:44:41Z</time>
</trkpt>
<trkpt lat="49.35289758257568" lon="9.145174948498608">
<ele>145.6</ele>
<time>2024-05-08T13:44:43Z</time>
</trkpt>
<trkpt lat="49.35289758257568" lon="9.145176876336336">
<ele>145.6</ele>
<time>2024-05-08T13:44:44Z</time>
</trkpt>
<trkpt lat="49.35289381071925" lon="9.145178720355034">
<ele>145.6</ele>
<time>2024-05-08T13:44:47Z</time>
</trkpt>
<trkpt lat="49.35289381071925" lon="9.145179726183414">
<ele>145.6</ele>
<time>2024-05-08T13:44:49Z</time>
</trkpt>
<trkpt lat="49.35289381071925" lon="9.145181654021144">
<ele>145.6</ele>
<time>2024-05-08T13:44:51Z</time>
</trkpt>
<trkpt lat="49.35289381071925" lon="9.145183498039842">
<ele>145.6</ele>
<time>2024-05-08T13:44:53Z</time>
</trkpt>
<trkpt lat="49.35288995504379" lon="9.145185425877573">
<ele>145.6</ele>
<time>2024-05-08T13:44:54Z</time>
</trkpt>
<trkpt lat="49.35288995504379" lon="9.14518634788692">
<ele>145.6</ele>
<time>2024-05-08T13:44:56Z</time>
</trkpt>
<trkpt lat="49.35288995504379" lon="9.14518827572465">
<ele>145.6</ele>
<time>2024-05-08T13:44:58Z</time>
</trkpt>
<trkpt lat="49.35288995504379" lon="9.14519020356238">
<ele>145.6</ele>
<time>2024-05-08T13:45:01Z</time>
</trkpt>
<trkpt lat="49.35288995504379" lon="9.145191125571728">
<ele>145.6</ele>
<time>2024-05-08T13:45:03Z</time>
</trkpt>
<trkpt lat="49.35288995504379" lon="9.145193053409455">
<ele>145.6</ele>
<time>2024-05-08T13:45:06Z</time>
</trkpt>
<trkpt lat="49.35288995504379" lon="9.145194981247188">
<ele>145.6</ele>
<time>2024-05-08T13:45:07Z</time>
</trkpt>
<trkpt lat="49.352886183187366" lon="9.145194981247188">
<ele>145.6</ele>
<time>2024-05-08T13:45:09Z</time>
</trkpt>
<trkpt lat="49.35288995504379" lon="9.145193053409455">
<ele>145.6</ele>
<time>2024-05-08T13:45:12Z</time>
</trkpt>
<trkpt lat="49.352886183187366" lon="9.145191125571728">
<ele>145.6</ele>
<time>2024-05-08T13:45:14Z</time>
</trkpt>
<trkpt lat="49.352886183187366" lon="9.14519020356238">
<ele>145.6</ele>
<time>2024-05-08T13:45:16Z</time>
</trkpt>
<trkpt lat="49.352886183187366" lon="9.14518827572465">
<ele>145.6</ele>
<time>2024-05-08T13:45:18Z</time>
</trkpt>
<trkpt lat="49.35288232751191" lon="9.14518827572465">
<ele>145.6</ele>
<time>2024-05-08T13:45:22Z</time>
</trkpt>
<trkpt lat="49.35288232751191" lon="9.14518634788692">
<ele>145.6</ele>
<time>2024-05-08T13:45:23Z</time>
</trkpt>
<trkpt lat="49.35287855565548" lon="9.145185425877573">
<ele>145.6</ele>
<time>2024-05-08T13:45:28Z</time>
</trkpt>
<trkpt lat="49.35287855565548" lon="9.145183498039842">
<ele>145.6</ele>
<time>2024-05-08T13:45:31Z</time>
</trkpt>
<trkpt lat="49.35287855565548" lon="9.145181654021144">
<ele>145.6</ele>
<time>2024-05-08T13:45:32Z</time>
</trkpt>
<trkpt lat="49.35287855565548" lon="9.145179726183414">
<ele>145.6</ele>
<time>2024-05-08T13:45:33Z</time>
</trkpt>
<trkpt lat="49.352886183187366" lon="9.145178720355034">
<ele>145.6</ele>
<time>2024-05-08T13:45:36Z</time>
</trkpt>
<trkpt lat="49.35288995504379" lon="9.145178720355034">
<ele>145.6</ele>
<time>2024-05-08T13:45:37Z</time>
</trkpt>
<trkpt lat="49.35289381071925" lon="9.145179726183414">
<ele>145.6</ele>
<time>2024-05-08T13:45:38Z</time>
</trkpt>
<trkpt lat="49.35289758257568" lon="9.145176876336336">
<ele>145.6</ele>
<time>2024-05-08T13:45:39Z</time>
</trkpt>
<trkpt lat="49.352909065783024" lon="9.145158687606454">
<ele>145.6</ele>
<time>2024-05-08T13:45:41Z</time>
</trkpt>
<trkpt lat="49.352905210107565" lon="9.145156843587756">
<ele>145.6</ele>
<time>2024-05-08T13:45:42Z</time>
</trkpt>
<trkpt lat="49.352905210107565" lon="9.145152987912295">
<ele>145.6</ele>
<time>2024-05-08T13:45:46Z</time>
</trkpt>
<trkpt lat="49.352909065783024" lon="9.145152065902948">
<ele>145.6</ele>
<time>2024-05-08T13:45:47Z</time>
</trkpt>
<trkpt lat="49.352909065783024" lon="9.14515013806522">
<ele>145.6</ele>
<time>2024-05-08T13:45:48Z</time>
</trkpt>
<trkpt lat="49.352909065783024" lon="9.145146366208792">
<ele>145.6</ele>
<time>2024-05-08T13:45:49Z</time>
</trkpt>
<trkpt lat="49.35291283763945" lon="9.145145360380411">
<ele>145.6</ele>
<time>2024-05-08T13:45:51Z</time>
</trkpt>
<trkpt lat="49.35291283763945" lon="9.145143432542682">
<ele>145.6</ele>
<time>2024-05-08T13:45:52Z</time>
</trkpt>
<trkpt lat="49.35291283763945" lon="9.145141588523984">
<ele>145.6</ele>
<time>2024-05-08T13:45:54Z</time>
</trkpt>
<trkpt lat="49.35291669331491" lon="9.145139660686256">
<ele>145.6</ele>
<time>2024-05-08T13:45:57Z</time>
</trkpt>
<trkpt lat="49.35291669331491" lon="9.145138738676906">
<ele>145.6</ele>
<time>2024-05-08T13:46:01Z</time>
</trkpt>
<trkpt lat="49.35291669331491" lon="9.145136810839176">
<ele>145.6</ele>
<time>2024-05-08T13:46:06Z</time>
</trkpt>
<trkpt lat="49.35292046517134" lon="9.145136810839176">
<ele>145.6</ele>
<time>2024-05-08T13:46:07Z</time>
</trkpt>
<trkpt lat="49.35292046517134" lon="9.145134883001449">
<ele>145.6</ele>
<time>2024-05-08T13:46:08Z</time>
</trkpt>
<trkpt lat="49.35292046517134" lon="9.145132955163715">
<ele>145.6</ele>
<time>2024-05-08T13:46:13Z</time>
</trkpt>
<trkpt lat="49.3529243208468" lon="9.145132955163715">
<ele>145.6</ele>
<time>2024-05-08T13:46:16Z</time>
</trkpt>
<trkpt lat="49.3529243208468" lon="9.145132033154368">
<ele>145.6</ele>
<time>2024-05-08T13:46:17Z</time>
</trkpt>
<trkpt lat="49.3529243208468" lon="9.14513010531664">
<ele>145.6</ele>
<time>2024-05-08T13:46:21Z</time>
</trkpt>
<trkpt lat="49.3529243208468" lon="9.14512817747891">
<ele>145.6</ele>
<time>2024-05-08T13:46:23Z</time>
</trkpt>
<trkpt lat="49.3529243208468" lon="9.145126333460212">
<ele>145.6</ele>
<time>2024-05-08T13:46:25Z</time>
</trkpt>
<trkpt lat="49.35292809270322" lon="9.145123399794102">
<ele>145.6</ele>
<time>2024-05-08T13:46:32Z</time>
</trkpt>
<trkpt lat="49.35292809270322" lon="9.145121555775404">
<ele>145.6</ele>
<time>2024-05-08T13:46:33Z</time>
</trkpt>
<trkpt lat="49.35292809270322" lon="9.145118705928326">
<ele>145.6</ele>
<time>2024-05-08T13:46:35Z</time>
</trkpt>
<trkpt lat="49.35292809270322" lon="9.145116778090596">
<ele>145.6</ele>
<time>2024-05-08T13:46:37Z</time>
</trkpt>
<trkpt lat="49.35293194837868" lon="9.145116778090596">
<ele>145.6</ele>
<time>2024-05-08T13:46:43Z</time>
</trkpt>
<trkpt lat="49.35293194837868" lon="9.145112922415136">
<ele>145.6</ele>
<time>2024-05-08T13:46:45Z</time>
</trkpt>
<trkpt lat="49.35293194837868" lon="9.145112000405788">
<ele>145.6</ele>
<time>2024-05-08T13:46:46Z</time>
</trkpt>
<trkpt lat="49.35293194837868" lon="9.14511007256806">
<ele>145.6</ele>
<time>2024-05-08T13:46:47Z</time>
</trkpt>
<trkpt lat="49.35293194837868" lon="9.14510814473033">
<ele>145.6</ele>
<time>2024-05-08T13:46:48Z</time>
</trkpt>
<trkpt lat="49.35292809270322" lon="9.145105294883251">
<ele>145.6</ele>
<time>2024-05-08T13:46:50Z</time>
</trkpt>
<trkpt lat="49.35293194837868" lon="9.145105294883251">
<ele>145.6</ele>
<time>2024-05-08T13:46:51Z</time>
</trkpt>
<trkpt lat="49.35293194837868" lon="9.145103450864552">
<ele>145.6</ele>
<time>2024-05-08T13:46:52Z</time>
</trkpt>
<trkpt lat="49.35293194837868" lon="9.145101523026824">
<ele>145.6</ele>
<time>2024-05-08T13:46:53Z</time>
</trkpt>
<trkpt lat="49.35293194837868" lon="9.145099595189096">
<ele>145.6</ele>
<time>2024-05-08T13:46:56Z</time>
</trkpt>
<trkpt lat="49.35293572023511" lon="9.145098673179746">
<ele>145.6</ele>
<time>2024-05-08T13:46:58Z</time>
</trkpt>
<trkpt lat="49.35293957591057" lon="9.145098673179746">
<ele>145.6</ele>
<time>2024-05-08T13:47:05Z</time>
</trkpt>
<trkpt lat="49.35293957591057" lon="9.145096745342016">
<ele>145.6</ele>
<time>2024-05-08T13:47:10Z</time>
</trkpt>
<trkpt lat="49.352943347766995" lon="9.145096745342016">
<ele>145.6</ele>
<time>2024-05-08T13:47:12Z</time>
</trkpt>
<trkpt lat="49.352943347766995" lon="9.145094817504289">
<ele>145.6</ele>
<time>2024-05-08T13:47:21Z</time>
</trkpt>
<trkpt lat="49.352943347766995" lon="9.145092889666556">
<ele>145.6</ele>
<time>2024-05-08T13:47:26Z</time>
</trkpt>
<trkpt lat="49.352943347766995" lon="9.145091967657208">
<ele>145.6</ele>
<time>2024-05-08T13:47:28Z</time>
</trkpt>
<trkpt lat="49.352943347766995" lon="9.14508819580078">
<ele>145.6</ele>
<time>2024-05-08T13:47:30Z</time>
</trkpt>
<trkpt lat="49.352943347766995" lon="9.145086267963052">
<ele>145.6</ele>
<time>2024-05-08T13:47:32Z</time>
</trkpt>
<trkpt lat="49.352943347766995" lon="9.145085262134671">
<ele>145.6</ele>
<time>2024-05-08T13:47:33Z</time>
</trkpt>
<trkpt lat="49.352943347766995" lon="9.145081490278244">
<ele>145.6</ele>
<time>2024-05-08T13:47:35Z</time>
</trkpt>
<trkpt lat="49.352943347766995" lon="9.145079562440516">
<ele>145.6</ele>
<time>2024-05-08T13:47:37Z</time>
</trkpt>
<trkpt lat="49.352943347766995" lon="9.145081490278244">
<ele>145.6</ele>
<time>2024-05-08T13:47:38Z</time>
</trkpt>
<trkpt lat="49.352947203442454" lon="9.145081490278244">
<ele>145.6</ele>
<time>2024-05-08T13:47:40Z</time>
</trkpt>
<trkpt lat="49.352947203442454" lon="9.145083418115972">
<ele>145.6</ele>
<time>2024-05-08T13:47:41Z</time>
</trkpt>
<trkpt lat="49.352947203442454" lon="9.14508819580078">
<ele>145.6</ele>
<time>2024-05-08T13:47:42Z</time>
</trkpt>
<trkpt lat="49.35295097529888" lon="9.145083418115972">
<ele>145.6</ele>
<time>2024-05-08T13:47:43Z</time>
</trkpt>
<trkpt lat="49.352947203442454" lon="9.145086267963052">
<ele>145.6</ele>
<time>2024-05-08T13:47:44Z</time>
</trkpt>
<trkpt lat="49.352947203442454" lon="9.145091967657208">
<ele>145.6</ele>
<time>2024-05-08T13:47:45Z</time>
</trkpt>
<trkpt lat="49.35295097529888" lon="9.14509003981948">
<ele>145.6</ele>
<time>2024-05-08T13:47:46Z</time>
</trkpt>
<trkpt lat="49.35295097529888" lon="9.145085262134671">
<ele>145.6</ele>
<time>2024-05-08T13:47:47Z</time>
</trkpt>
<trkpt lat="49.35295097529888" lon="9.145079562440516">
<ele>145.6</ele>
<time>2024-05-08T13:47:48Z</time>
</trkpt>
<trkpt lat="49.35295483097434" lon="9.145079562440516">
<ele>145.6</ele>
<time>2024-05-08T13:47:50Z</time>
</trkpt>
<trkpt lat="49.35295097529888" lon="9.145076712593436">
<ele>145.6</ele>
<time>2024-05-08T13:47:51Z</time>
</trkpt>
<trkpt lat="49.352947203442454" lon="9.145072856917976">
<ele>145.6</ele>
<time>2024-05-08T13:47:52Z</time>
</trkpt>
<trkpt lat="49.352947203442454" lon="9.145071934908628">
<ele>145.6</ele>
<time>2024-05-08T13:47:56Z</time>
</trkpt>
<trkpt lat="49.352947203442454" lon="9.1450700070709">
<ele>145.6</ele>
<time>2024-05-08T13:47:57Z</time>
</trkpt>
<trkpt lat="49.352947203442454" lon="9.145063385367392">
<ele>145.6</ele>
<time>2024-05-08T13:47:58Z</time>
</trkpt>
<trkpt lat="49.352947203442454" lon="9.145061457529664">
<ele>145.6</ele>
<time>2024-05-08T13:48:00Z</time>
</trkpt>
<trkpt lat="49.35295097529888" lon="9.145059529691936">
<ele>145.6</ele>
<time>2024-05-08T13:48:01Z</time>
</trkpt>
<trkpt lat="49.35295097529888" lon="9.145058607682586">
<ele>145.6</ele>
<time>2024-05-08T13:48:02Z</time>
</trkpt>
<trkpt lat="49.35295097529888" lon="9.145056679844856">
<ele>145.6</ele>
<time>2024-05-08T13:48:06Z</time>
</trkpt>
<trkpt lat="49.35295097529888" lon="9.145054752007129">
<ele>145.6</ele>
<time>2024-05-08T13:48:10Z</time>
</trkpt>
<trkpt lat="49.35295097529888" lon="9.145052907988427">
<ele>145.6</ele>
<time>2024-05-08T13:48:13Z</time>
</trkpt>
<trkpt lat="49.35295097529888" lon="9.145051902160048">
<ele>145.6</ele>
<time>2024-05-08T13:48:16Z</time>
</trkpt>
<trkpt lat="49.35295097529888" lon="9.14504997432232">
<ele>145.6</ele>
<time>2024-05-08T13:48:20Z</time>
</trkpt>
<trkpt lat="49.35295097529888" lon="9.14504813030362">
<ele>145.6</ele>
<time>2024-05-08T13:48:21Z</time>
</trkpt>
<trkpt lat="49.352947203442454" lon="9.14504813030362">
<ele>145.6</ele>
<time>2024-05-08T13:48:22Z</time>
</trkpt>
<trkpt lat="49.352947203442454" lon="9.145046202465892">
<ele>145.6</ele>
<time>2024-05-08T13:48:25Z</time>
</trkpt>
<trkpt lat="49.352947203442454" lon="9.145045280456545">
<ele>145.6</ele>
<time>2024-05-08T13:48:30Z</time>
</trkpt>
<trkpt lat="49.352947203442454" lon="9.145043352618814">
<ele>145.6</ele>
<time>2024-05-08T13:48:35Z</time>
</trkpt>
<trkpt lat="49.352947203442454" lon="9.145041424781084">
<ele>145.6</ele>
<time>2024-05-08T13:48:40Z</time>
</trkpt>
<trkpt lat="49.35295097529888" lon="9.145036647096276">
<ele>145.6</ele>
<time>2024-05-08T13:48:42Z</time>
</trkpt>
<trkpt lat="49.35295483097434" lon="9.14502994157374">
<ele>145.6</ele>
<time>2024-05-08T13:48:43Z</time>
</trkpt>
<trkpt lat="49.35297008603811" lon="9.145023319870234">
<ele>145.6</ele>
<time>2024-05-08T13:48:44Z</time>
</trkpt>
<trkpt lat="49.35297385789454" lon="9.145023319870234">
<ele>145.6</ele>
<time>2024-05-08T13:48:46Z</time>
</trkpt>
<trkpt lat="49.35297771357" lon="9.145023319870234">
<ele>145.6</ele>
<time>2024-05-08T13:48:48Z</time>
</trkpt>
<trkpt lat="49.352981485426426" lon="9.145021392032504">
<ele>145.6</ele>
<time>2024-05-08T13:48:50Z</time>
</trkpt>
<trkpt lat="49.352985341101885" lon="9.145019464194776">
<ele>145.6</ele>
<time>2024-05-08T13:48:52Z</time>
</trkpt>
<trkpt lat="49.352985341101885" lon="9.145016614347696">
<ele>145.6</ele>
<time>2024-05-08T13:48:54Z</time>
</trkpt>
<trkpt lat="49.35300822369754" lon="9.144996581599116">
<ele>145.6</ele>
<time>2024-05-08T13:48:56Z</time>
</trkpt>
<trkpt lat="49.35301970690489" lon="9.1449870262295">
<ele>145.6</ele>
<time>2024-05-08T13:48:57Z</time>
</trkpt>
<trkpt lat="49.353023478761315" lon="9.144976548850536">
<ele>145.6</ele>
<time>2024-05-08T13:48:58Z</time>
</trkpt>
<trkpt lat="49.3530311062932" lon="9.144965149462225">
<ele>145.6</ele>
<time>2024-05-08T13:48:59Z</time>
</trkpt>
<trkpt lat="49.35304258950055" lon="9.144938411191106">
<ele>145.6</ele>
<time>2024-05-08T13:49:00Z</time>
</trkpt>
<trkpt lat="49.35305021703243" lon="9.144927011802793">
<ele>145.6</ele>
<time>2024-05-08T13:49:02Z</time>
</trkpt>
<trkpt lat="49.35305784456432" lon="9.144900273531675">
<ele>145.6</ele>
<time>2024-05-08T13:49:04Z</time>
</trkpt>
<trkpt lat="49.35305784456432" lon="9.144876468926668">
<ele>145.6</ele>
<time>2024-05-08T13:49:06Z</time>
</trkpt>
<trkpt lat="49.353061616420746" lon="9.144861213862896">
<ele>145.6</ele>
<time>2024-05-08T13:49:08Z</time>
</trkpt>
<trkpt lat="49.353061616420746" lon="9.144856436178088">
<ele>145.6</ele>
<time>2024-05-08T13:49:09Z</time>
</trkpt>
<trkpt lat="49.353061616420746" lon="9.14485450834036">
<ele>145.6</ele>
<time>2024-05-08T13:49:10Z</time>
</trkpt>
<trkpt lat="49.353061616420746" lon="9.14485358633101">
<ele>145.6</ele>
<time>2024-05-08T13:49:11Z</time>
</trkpt>
<trkpt lat="49.353065472096205" lon="9.144849730655553">
<ele>145.6</ele>
<time>2024-05-08T13:49:12Z</time>
</trkpt>
<trkpt lat="49.35306924395263" lon="9.144846880808473">
<ele>145.6</ele>
<time>2024-05-08T13:49:13Z</time>
</trkpt>
<trkpt lat="49.35307309962809" lon="9.144826848059893">
<ele>145.6</ele>
<time>2024-05-08T13:49:15Z</time>
</trkpt>
<trkpt lat="49.35309598222375" lon="9.144809665158393">
<ele>145.6</ele>
<time>2024-05-08T13:49:16Z</time>
</trkpt>
<trkpt lat="49.35311500914395" lon="9.144795415923">
<ele>145.6</ele>
<time>2024-05-08T13:49:18Z</time>
</trkpt>
<trkpt lat="49.35313411988318" lon="9.14477152749896">
<ele>145.6</ele>
<time>2024-05-08T13:49:19Z</time>
</trkpt>
<trkpt lat="49.353179885074496" lon="9.144701957702637">
<ele>145.6</ele>
<time>2024-05-08T13:49:20Z</time>
</trkpt>
<trkpt lat="49.35319514013827" lon="9.144659964367747">
<ele>145.6</ele>
<time>2024-05-08T13:49:21Z</time>
</trkpt>
<trkpt lat="49.35321039520204" lon="9.14461319334805">
<ele>145.6</ele>
<time>2024-05-08T13:49:23Z</time>
</trkpt>
<trkpt lat="49.353221878409386" lon="9.144564578309655">
<ele>145.6</ele>
<time>2024-05-08T13:49:24Z</time>
</trkpt>
<trkpt lat="49.35324853286147" lon="9.144474975764751">
<ele>145.6</ele>
<time>2024-05-08T13:49:26Z</time>
</trkpt>
<trkpt lat="49.3532676436007" lon="9.144432982429862">
<ele>145.6</ele>
<time>2024-05-08T13:49:27Z</time>
</trkpt>
<trkpt lat="49.3532866705209" lon="9.144394844770432">
<ele>145.6</ele>
<time>2024-05-08T13:49:28Z</time>
</trkpt>
<trkpt lat="49.35330578126013" lon="9.144352851435542">
<ele>145.6</ele>
<time>2024-05-08T13:49:29Z</time>
</trkpt>
<trkpt lat="49.35334777459502" lon="9.144287053495646">
<ele>145.6</ele>
<time>2024-05-08T13:49:31Z</time>
</trkpt>
<trkpt lat="49.35336680151522" lon="9.144267020747066">
<ele>145.6</ele>
<time>2024-05-08T13:49:32Z</time>
</trkpt>
<trkpt lat="49.35339353978634" lon="9.144251765683292">
<ele>145.6</ele>
<time>2024-05-08T13:49:33Z</time>
</trkpt>
<trkpt lat="49.353420194238424" lon="9.144253693521025">
<ele>145.6</ele>
<time>2024-05-08T13:49:34Z</time>
</trkpt>
<trkpt lat="49.353477442637086" lon="9.144287053495646">
<ele>145.6</ele>
<time>2024-05-08T13:49:36Z</time>
</trkpt>
<trkpt lat="49.35351180844009" lon="9.144308008253574">
<ele>145.6</ele>
<time>2024-05-08T13:49:37Z</time>
</trkpt>
<trkpt lat="49.353542318567634" lon="9.144325191155076">
<ele>145.6</ele>
<time>2024-05-08T13:49:38Z</time>
</trkpt>
<trkpt lat="49.35357282869518" lon="9.144341452047229">
<ele>145.6</ele>
<time>2024-05-08T13:49:39Z</time>
</trkpt>
<trkpt lat="49.35359948314726" lon="9.14435955695808">
<ele>145.6</ele>
<time>2024-05-08T13:49:40Z</time>
</trkpt>
<trkpt lat="49.35362622141838" lon="9.14437858387828">
<ele>145.6</ele>
<time>2024-05-08T13:49:41Z</time>
</trkpt>
<trkpt lat="49.35367961414158" lon="9.14441864937544">
<ele>145.6</ele>
<time>2024-05-08T13:49:43Z</time>
</trkpt>
<trkpt lat="49.35374449007213" lon="9.1444396879524">
<ele>145.4</ele>
<time>2024-05-08T13:49:45Z</time>
</trkpt>
<trkpt lat="49.35377500019968" lon="9.144443459808826">
<ele>145.4</ele>
<time>2024-05-08T13:49:46Z</time>
</trkpt>
<trkpt lat="49.35380551032722" lon="9.144446309655905">
<ele>145.4</ele>
<time>2024-05-08T13:49:47Z</time>
</trkpt>
<trkpt lat="49.35383602045477" lon="9.14443868212402">
<ele>145.4</ele>
<time>2024-05-08T13:49:48Z</time>
</trkpt>
<trkpt lat="49.35386653058231" lon="9.144428204745054">
<ele>145.4</ele>
<time>2024-05-08T13:49:49Z</time>
</trkpt>
<trkpt lat="49.3539275508374" lon="9.144368106499314">
<ele>145.4</ele>
<time>2024-05-08T13:49:51Z</time>
</trkpt>
<trkpt lat="49.3539619166404" lon="9.144343296065928">
<ele>145.4</ele>
<time>2024-05-08T13:49:52Z</time>
</trkpt>
<trkpt lat="49.35400382615626" lon="9.144314713776112">
<ele>145.4</ele>
<time>2024-05-08T13:49:53Z</time>
</trkpt>
<trkpt lat="49.354053447023034" lon="9.144289903342724">
<ele>145.4</ele>
<time>2024-05-08T13:49:54Z</time>
</trkpt>
<trkpt lat="49.35414497740567" lon="9.144253693521025">
<ele>145.4</ele>
<time>2024-05-08T13:49:56Z</time>
</trkpt>
<trkpt lat="49.35417934320867" lon="9.144245143979788">
<ele>145.4</ele>
<time>2024-05-08T13:49:57Z</time>
</trkpt>
<trkpt lat="49.35420608147979" lon="9.14423843845725">
<ele>145.6</ele>
<time>2024-05-08T13:49:58Z</time>
</trkpt>
<trkpt lat="49.354228964075446" lon="9.144231732934712">
<ele>145.6</ele>
<time>2024-05-08T13:49:59Z</time>
</trkpt>
<trkpt lat="49.35426710173488" lon="9.144214550033212">
<ele>145.6</ele>
<time>2024-05-08T13:50:01Z</time>
</trkpt>
<trkpt lat="49.35428235679865" lon="9.144205078482628">
<ele>145.8</ele>
<time>2024-05-08T13:50:02Z</time>
</trkpt>
<trkpt lat="49.35429761186242" lon="9.14419837296009">
<ele>146</ele>
<time>2024-05-08T13:50:03Z</time>
</trkpt>
<trkpt lat="49.354309011250734" lon="9.144191667437552">
<ele>146.2</ele>
<time>2024-05-08T13:50:04Z</time>
</trkpt>
<trkpt lat="49.35432049445808" lon="9.144191667437552">
<ele>146.4</ele>
<time>2024-05-08T13:50:06Z</time>
</trkpt>
<trkpt lat="49.35432426631451" lon="9.144193595275285">
<ele>146.6</ele>
<time>2024-05-08T13:50:07Z</time>
</trkpt>
<trkpt lat="49.354328121989965" lon="9.14419644512236">
<ele>146.8</ele>
<time>2024-05-08T13:50:08Z</time>
</trkpt>
<trkpt lat="49.35433952137828" lon="9.144207928329706">
<ele>146.8</ele>
<time>2024-05-08T13:50:09Z</time>
</trkpt>
<trkpt lat="49.35436248779297" lon="9.144245143979788">
<ele>147</ele>
<time>2024-05-08T13:50:11Z</time>
</trkpt>
<trkpt lat="49.35439676977694" lon="9.14431664161384">
<ele>147</ele>
<time>2024-05-08T13:50:13Z</time>
</trkpt>
<trkpt lat="49.35441202484071" lon="9.14435863494873">
<ele>147.2</ele>
<time>2024-05-08T13:50:14Z</time>
</trkpt>
<trkpt lat="49.35445779003203" lon="9.144452093169091">
<ele>147.2</ele>
<time>2024-05-08T13:50:15Z</time>
</trkpt>
<trkpt lat="49.35448067262769" lon="9.144501630216835">
<ele>147</ele>
<time>2024-05-08T13:50:17Z</time>
</trkpt>
<trkpt lat="49.35449978336692" lon="9.144556950777767">
<ele>147</ele>
<time>2024-05-08T13:50:18Z</time>
</trkpt>
<trkpt lat="49.35451881028712" lon="9.14461319334805">
<ele>147</ele>
<time>2024-05-08T13:50:19Z</time>
</trkpt>
<trkpt lat="49.35456843115389" lon="9.14471335709095">
<ele>146.8</ele>
<time>2024-05-08T13:50:20Z</time>
</trkpt>
<trkpt lat="49.35459516942501" lon="9.144746717065573">
<ele>146.8</ele>
<time>2024-05-08T13:50:22Z</time>
</trkpt>
<trkpt lat="49.35463707894087" lon="9.144798265770078">
<ele>146.8</ele>
<time>2024-05-08T13:50:24Z</time>
</trkpt>
<trkpt lat="49.35467907227576" lon="9.14485165849328">
<ele>146.6</ele>
<time>2024-05-08T13:50:26Z</time>
</trkpt>
<trkpt lat="49.354701954871416" lon="9.144880240783095">
<ele>146.4</ele>
<time>2024-05-08T13:50:27Z</time>
</trkpt>
<trkpt lat="49.354724837467074" lon="9.144905051216483">
<ele>146.6</ele>
<time>2024-05-08T13:50:28Z</time>
</trkpt>
<trkpt lat="49.354743948206306" lon="9.144925083965065">
<ele>146.8</ele>
<time>2024-05-08T13:50:29Z</time>
</trkpt>
<trkpt lat="49.35476683080197" lon="9.144927011802793">
<ele>147</ele>
<time>2024-05-08T13:50:30Z</time>
</trkpt>
<trkpt lat="49.35480874031782" lon="9.144893568009138">
<ele>147.2</ele>
<time>2024-05-08T13:50:32Z</time>
</trkpt>
<trkpt lat="49.35482785105705" lon="9.144864985719323">
<ele>147.4</ele>
<time>2024-05-08T13:50:33Z</time>
</trkpt>
<trkpt lat="49.354843106120825" lon="9.144828775897622">
<ele>147.4</ele>
<time>2024-05-08T13:50:34Z</time>
</trkpt>
<trkpt lat="49.354881243780255" lon="9.144744873046877">
<ele>147.4</ele>
<time>2024-05-08T13:50:36Z</time>
</trkpt>
<trkpt lat="49.354900354519486" lon="9.144701957702637">
<ele>147.6</ele>
<time>2024-05-08T13:50:37Z</time>
</trkpt>
<trkpt lat="49.354919381439686" lon="9.144658036530018">
<ele>147.6</ele>
<time>2024-05-08T13:50:38Z</time>
</trkpt>
<trkpt lat="49.354942264035344" lon="9.144617049023507">
<ele>147.6</ele>
<time>2024-05-08T13:50:39Z</time>
</trkpt>
<trkpt lat="49.354965146631" lon="9.144573211669922">
<ele>147.4</ele>
<time>2024-05-08T13:50:41Z</time>
</trkpt>
<trkpt lat="49.35500328429043" lon="9.144479669630527">
<ele>147.4</ele>
<time>2024-05-08T13:50:42Z</time>
</trkpt>
<trkpt lat="49.355018539354205" lon="9.14443675428629">
<ele>147.4</ele>
<time>2024-05-08T13:50:43Z</time>
</trkpt>
<trkpt lat="49.35503765009344" lon="9.144392916932702">
<ele>147.4</ele>
<time>2024-05-08T13:50:44Z</time>
</trkpt>
<trkpt lat="49.35508341528475" lon="9.144306164234877">
<ele>147</ele>
<time>2024-05-08T13:50:46Z</time>
</trkpt>
<trkpt lat="49.35511015355587" lon="9.144269870594144">
<ele>146.8</ele>
<time>2024-05-08T13:50:47Z</time>
</trkpt>
<trkpt lat="49.355136808007956" lon="9.14423843845725">
<ele>146.8</ele>
<time>2024-05-08T13:50:48Z</time>
</trkpt>
<trkpt lat="49.355174945667386" lon="9.14421840570867">
<ele>146.8</ele>
<time>2024-05-08T13:50:49Z</time>
</trkpt>
<trkpt lat="49.355255076661706" lon="9.144227961078286">
<ele>146.8</ele>
<time>2024-05-08T13:50:51Z</time>
</trkpt>
<trkpt lat="49.35533135198057" lon="9.144261321052907">
<ele>146.8</ele>
<time>2024-05-08T13:50:53Z</time>
</trkpt>
<trkpt lat="49.35536948964" lon="9.144281353801489">
<ele>146.8</ele>
<time>2024-05-08T13:50:54Z</time>
</trkpt>
<trkpt lat="49.355453476309776" lon="9.144323347136378">
<ele>146.8</ele>
<time>2024-05-08T13:50:56Z</time>
</trkpt>
<trkpt lat="49.355495385825634" lon="9.144341452047229">
<ele>146.8</ele>
<time>2024-05-08T13:50:57Z</time>
</trkpt>
<trkpt lat="49.35553737916052" lon="9.144363328814508">
<ele>146.8</ele>
<time>2024-05-08T13:50:58Z</time>
</trkpt>
<trkpt lat="49.35564416460693" lon="9.144432982429862">
<ele>147</ele>
<time>2024-05-08T13:51:00Z</time>
</trkpt>
<trkpt lat="49.35567853040993" lon="9.14445678703487">
<ele>147</ele>
<time>2024-05-08T13:51:02Z</time>
</trkpt>
<trkpt lat="49.355735778808594" lon="9.144506407901645">
<ele>147</ele>
<time>2024-05-08T13:51:04Z</time>
</trkpt>
<trkpt lat="49.35576243326068" lon="9.144530296325684">
<ele>147</ele>
<time>2024-05-08T13:51:05Z</time>
</trkpt>
<trkpt lat="49.355792943388224" lon="9.144551251083612">
<ele>147</ele>
<time>2024-05-08T13:51:06Z</time>
</trkpt>
<trkpt lat="49.35582345351577" lon="9.144571283832192">
<ele>147</ele>
<time>2024-05-08T13:51:08Z</time>
</trkpt>
<trkpt lat="49.35588070191443" lon="9.144608415663242">
<ele>146.8</ele>
<time>2024-05-08T13:51:09Z</time>
</trkpt>
<trkpt lat="49.35590744018555" lon="9.144626604393125">
<ele>146.8</ele>
<time>2024-05-08T13:51:11Z</time>
</trkpt>
<trkpt lat="49.35599897056818" lon="9.144702879711986">
<ele>147</ele>
<time>2024-05-08T13:51:13Z</time>
</trkpt>
<trkpt lat="49.356025625020266" lon="9.144736239686608">
<ele>147.2</ele>
<time>2024-05-08T13:51:14Z</time>
</trkpt>
<trkpt lat="49.356086729094386" lon="9.144800109788775">
<ele>147.4</ele>
<time>2024-05-08T13:51:16Z</time>
</trkpt>
<trkpt lat="49.35612486675382" lon="9.144829697906973">
<ele>147.4</ele>
<time>2024-05-08T13:51:17Z</time>
</trkpt>
<trkpt lat="49.35615537688136" lon="9.144861213862896">
<ele>147.6</ele>
<time>2024-05-08T13:51:18Z</time>
</trkpt>
<trkpt lat="49.35619351454079" lon="9.14489457383752">
<ele>147.6</ele>
<time>2024-05-08T13:51:19Z</time>
</trkpt>
<trkpt lat="49.356266018003225" lon="9.144956516101956">
<ele>147.8</ele>
<time>2024-05-08T13:51:20Z</time>
</trkpt>
<trkpt lat="49.356304155662656" lon="9.14498803205788">
<ele>147.8</ele>
<time>2024-05-08T13:51:22Z</time>
</trkpt>
<trkpt lat="49.356342293322086" lon="9.145019464194776">
<ele>147.8</ele>
<time>2024-05-08T13:51:23Z</time>
</trkpt>
<trkpt lat="49.356403313577175" lon="9.145081490278244">
<ele>148</ele>
<time>2024-05-08T13:51:25Z</time>
</trkpt>
<trkpt lat="49.356464333832264" lon="9.145145360380411">
<ele>148</ele>
<time>2024-05-08T13:51:27Z</time>
</trkpt>
<trkpt lat="49.35649869963527" lon="9.145176876336336">
<ele>148.2</ele>
<time>2024-05-08T13:51:28Z</time>
</trkpt>
<trkpt lat="49.35653298161924" lon="9.1452063806355">
<ele>148.2</ele>
<time>2024-05-08T13:51:29Z</time>
</trkpt>
<trkpt lat="49.35656349174678" lon="9.145237896591423">
<ele>148.2</ele>
<time>2024-05-08T13:51:30Z</time>
</trkpt>
<trkpt lat="49.35659785754979" lon="9.1452703345567">
<ele>148</ele>
<time>2024-05-08T13:51:31Z</time>
</trkpt>
<trkpt lat="49.35663222335279" lon="9.145299838855864">
<ele>148</ele>
<time>2024-05-08T13:51:32Z</time>
</trkpt>
<trkpt lat="49.35670464299619" lon="9.145353315398095">
<ele>148</ele>
<time>2024-05-08T13:51:34Z</time>
</trkpt>
<trkpt lat="49.35676951892674" lon="9.145393297076224">
<ele>148</ele>
<time>2024-05-08T13:51:36Z</time>
</trkpt>
<trkpt lat="49.35680002905429" lon="9.145411485806108">
<ele>148</ele>
<time>2024-05-08T13:51:37Z</time>
</trkpt>
<trkpt lat="49.356838166713715" lon="9.145431518554688">
<ele>148</ele>
<time>2024-05-08T13:51:38Z</time>
</trkpt>
<trkpt lat="49.35687253251672" lon="9.145449623465538">
<ele>148.2</ele>
<time>2024-05-08T13:51:39Z</time>
</trkpt>
<trkpt lat="49.356956435367465" lon="9.145482061430812">
<ele>148.2</ele>
<time>2024-05-08T13:51:41Z</time>
</trkpt>
<trkpt lat="49.356998428702354" lon="9.145498238503931">
<ele>148.2</ele>
<time>2024-05-08T13:51:42Z</time>
</trkpt>
<trkpt lat="49.35707847587764" lon="9.145540231838822">
<ele>148.4</ele>
<time>2024-05-08T13:51:44Z</time>
</trkpt>
<trkpt lat="49.357154835015535" lon="9.145574513822794">
<ele>148.4</ele>
<time>2024-05-08T13:51:45Z</time>
</trkpt>
<trkpt lat="49.357192972674966" lon="9.145586919039488">
<ele>148.4</ele>
<time>2024-05-08T13:51:47Z</time>
</trkpt>
<trkpt lat="49.3572311103344" lon="9.145598402246833">
<ele>148.2</ele>
<time>2024-05-08T13:51:48Z</time>
</trkpt>
<trkpt lat="49.357273019850254" lon="9.145613657310603">
<ele>148.2</ele>
<time>2024-05-08T13:51:49Z</time>
</trkpt>
<trkpt lat="49.35735700652003" lon="9.14563838392496">
<ele>148.2</ele>
<time>2024-05-08T13:51:51Z</time>
</trkpt>
<trkpt lat="49.35739514417946" lon="9.145653722807763">
<ele>148.2</ele>
<time>2024-05-08T13:51:52Z</time>
</trkpt>
<trkpt lat="49.35743705369532" lon="9.145667972043157">
<ele>148.2</ele>
<time>2024-05-08T13:51:53Z</time>
</trkpt>
<trkpt lat="49.35748290270567" lon="9.14568037725985">
<ele>148</ele>
<time>2024-05-08T13:51:54Z</time>
</trkpt>
<trkpt lat="49.35757820494473" lon="9.145713737234471">
<ele>148</ele>
<time>2024-05-08T13:51:56Z</time>
</trkpt>
<trkpt lat="49.357627825811505" lon="9.145736619830132">
<ele>147.8</ele>
<time>2024-05-08T13:51:57Z</time>
</trkpt>
<trkpt lat="49.357726983726025" lon="9.14577953517437">
<ele>147.6</ele>
<time>2024-05-08T13:51:58Z</time>
</trkpt>
<trkpt lat="49.357826225459576" lon="9.145814822986722">
<ele>147.6</ele>
<time>2024-05-08T13:52:01Z</time>
</trkpt>
<trkpt lat="49.35791390016675" lon="9.14583963342011">
<ele>147.4</ele>
<time>2024-05-08T13:52:03Z</time>
</trkpt>
<trkpt lat="49.35795203782618" lon="9.145846338942649">
<ele>147.4</ele>
<time>2024-05-08T13:52:04Z</time>
</trkpt>
<trkpt lat="49.35799403116107" lon="9.14585966616869">
<ele>147.4</ele>
<time>2024-05-08T13:52:05Z</time>
</trkpt>
<trkpt lat="49.35807793401182" lon="9.145888248458505">
<ele>147.4</ele>
<time>2024-05-08T13:52:07Z</time>
</trkpt>
<trkpt lat="49.3581619206816" lon="9.145923536270857">
<ele>147.6</ele>
<time>2024-05-08T13:52:08Z</time>
</trkpt>
<trkpt lat="49.35821145772934" lon="9.145946502685549">
<ele>147.8</ele>
<time>2024-05-08T13:52:10Z</time>
</trkpt>
<trkpt lat="49.358261078596115" lon="9.145970307290554">
<ele>147.8</ele>
<time>2024-05-08T13:52:11Z</time>
</trkpt>
<trkpt lat="49.35834883712232" lon="9.146010372787714">
<ele>148</ele>
<time>2024-05-08T13:52:12Z</time>
</trkpt>
<trkpt lat="49.35839074663818" lon="9.146024622023106">
<ele>148</ele>
<time>2024-05-08T13:52:14Z</time>
</trkpt>
<trkpt lat="49.35846325010061" lon="9.146051360294225">
<ele>148</ele>
<time>2024-05-08T13:52:16Z</time>
</trkpt>
<trkpt lat="49.3585052434355" lon="9.146064687520266">
<ele>148</ele>
<time>2024-05-08T13:52:17Z</time>
</trkpt>
<trkpt lat="49.358539525419474" lon="9.146079942584038">
<ele>148</ele>
<time>2024-05-08T13:52:18Z</time>
</trkpt>
<trkpt lat="49.35858151875436" lon="9.14609620347619">
<ele>148</ele>
<time>2024-05-08T13:52:19Z</time>
</trkpt>
<trkpt lat="49.35862342827022" lon="9.14611523039639">
<ele>148</ele>
<time>2024-05-08T13:52:20Z</time>
</trkpt>
<trkpt lat="49.358715042471886" lon="9.146146746352317">
<ele>148</ele>
<time>2024-05-08T13:52:22Z</time>
</trkpt>
<trkpt lat="49.3587608076632" lon="9.146162001416087">
<ele>148</ele>
<time>2024-05-08T13:52:23Z</time>
</trkpt>
<trkpt lat="49.358856193721294" lon="9.14619343355298">
<ele>147.8</ele>
<time>2024-05-08T13:52:25Z</time>
</trkpt>
<trkpt lat="49.358955351635814" lon="9.146228721365333">
<ele>147.6</ele>
<time>2024-05-08T13:52:26Z</time>
</trkpt>
<trkpt lat="49.35900497250259" lon="9.146242132410409">
<ele>147.6</ele>
<time>2024-05-08T13:52:27Z</time>
</trkpt>
<trkpt lat="49.35905836522579" lon="9.1462545376271">
<ele>147.6</ele>
<time>2024-05-08T13:52:28Z</time>
</trkpt>
<trkpt lat="49.359107902273536" lon="9.146267864853144">
<ele>147.4</ele>
<time>2024-05-08T13:52:30Z</time>
</trkpt>
<trkpt lat="49.35920714400709" lon="9.146300302818418">
<ele>147.2</ele>
<time>2024-05-08T13:52:31Z</time>
</trkpt>
<trkpt lat="49.35925668105483" lon="9.14631647989154">
<ele>147.2</ele>
<time>2024-05-08T13:52:33Z</time>
</trkpt>
<trkpt lat="49.35931007377803" lon="9.14633173495531">
<ele>147.2</ele>
<time>2024-05-08T13:52:34Z</time>
</trkpt>
<trkpt lat="49.3594016879797" lon="9.146360317245126">
<ele>147.2</ele>
<time>2024-05-08T13:52:35Z</time>
</trkpt>
<trkpt lat="49.35945122502744" lon="9.1463737282902">
<ele>147.2</ele>
<time>2024-05-08T13:52:36Z</time>
</trkpt>
<trkpt lat="49.35949699021876" lon="9.146387055516245">
<ele>147</ele>
<time>2024-05-08T13:52:38Z</time>
</trkpt>
<trkpt lat="49.35954283922911" lon="9.146400382742286">
<ele>147</ele>
<time>2024-05-08T13:52:39Z</time>
</trkpt>
<trkpt lat="49.35959237627685" lon="9.146414715796707">
<ele>147</ele>
<time>2024-05-08T13:52:40Z</time>
</trkpt>
<trkpt lat="49.35968399047851" lon="9.146439526230097">
<ele>147</ele>
<time>2024-05-08T13:52:41Z</time>
</trkpt>
<trkpt lat="49.35973352752626" lon="9.14645000360906">
<ele>147</ele>
<time>2024-05-08T13:52:43Z</time>
</trkpt>
<trkpt lat="49.35977552086115" lon="9.146458553150296">
<ele>147</ele>
<time>2024-05-08T13:52:44Z</time>
</trkpt>
<trkpt lat="49.35982505790889" lon="9.146468108519912">
<ele>147</ele>
<time>2024-05-08T13:52:45Z</time>
</trkpt>
<trkpt lat="49.35991667211056" lon="9.146485291421412">
<ele>147</ele>
<time>2024-05-08T13:52:46Z</time>
</trkpt>
<trkpt lat="49.35995480976999" lon="9.1464929189533">
<ele>147</ele>
<time>2024-05-08T13:52:48Z</time>
</trkpt>
<trkpt lat="49.36003494076431" lon="9.14651202969253">
<ele>147</ele>
<time>2024-05-08T13:52:50Z</time>
</trkpt>
<trkpt lat="49.360099732875824" lon="9.146528206765652">
<ele>147</ele>
<time>2024-05-08T13:52:51Z</time>
</trkpt>
<trkpt lat="49.36013024300337" lon="9.146539606153963">
<ele>147</ele>
<time>2024-05-08T13:52:52Z</time>
</trkpt>
<trkpt lat="49.36016075313091" lon="9.14655201137066">
<ele>147.2</ele>
<time>2024-05-08T13:52:53Z</time>
</trkpt>
<trkpt lat="49.36018749140203" lon="9.146566344425082">
<ele>147.2</ele>
<time>2024-05-08T13:52:55Z</time>
</trkpt>
<trkpt lat="49.36022562906146" lon="9.146594926714895">
<ele>147.4</ele>
<time>2024-05-08T13:52:57Z</time>
</trkpt>
<trkpt lat="49.360256139189005" lon="9.146626442670822">
<ele>147.6</ele>
<time>2024-05-08T13:52:59Z</time>
</trkpt>
<trkpt lat="49.36027139425278" lon="9.146657874807715">
<ele>147.8</ele>
<time>2024-05-08T13:53:01Z</time>
</trkpt>
<trkpt lat="49.36028287746012" lon="9.14667128585279">
<ele>148.2</ele>
<time>2024-05-08T13:53:02Z</time>
</trkpt>
<trkpt lat="49.36028287746012" lon="9.146673129871488">
<ele>148.2</ele>
<time>2024-05-08T13:53:04Z</time>
</trkpt>
<trkpt lat="49.36028664931655" lon="9.146676985546948">
<ele>148.4</ele>
<time>2024-05-08T13:53:05Z</time>
</trkpt>
<trkpt lat="49.36029050499201" lon="9.146683691069484">
<ele>148.4</ele>
<time>2024-05-08T13:53:06Z</time>
</trkpt>
<trkpt lat="49.360298132523894" lon="9.14669131860137">
<ele>148.4</ele>
<time>2024-05-08T13:53:07Z</time>
</trkpt>
<trkpt lat="49.36030953191221" lon="9.146699868142605">
<ele>148.4</ele>
<time>2024-05-08T13:53:08Z</time>
</trkpt>
<trkpt lat="49.36032478697598" lon="9.146703639999032">
<ele>148.2</ele>
<time>2024-05-08T13:53:09Z</time>
</trkpt>
<trkpt lat="49.36036292463541" lon="9.146711267530918">
<ele>148.2</ele>
<time>2024-05-08T13:53:10Z</time>
</trkpt>
<trkpt lat="49.36038966290653" lon="9.146717973053455">
<ele>148.2</ele>
<time>2024-05-08T13:53:12Z</time>
</trkpt>
<trkpt lat="49.3604583106935" lon="9.146726606413722">
<ele>148.2</ele>
<time>2024-05-08T13:53:14Z</time>
</trkpt>
<trkpt lat="49.36053844168782" lon="9.146751333028078">
<ele>148.2</ele>
<time>2024-05-08T13:53:15Z</time>
</trkpt>
<trkpt lat="49.36058043502271" lon="9.14676851592958">
<ele>148.2</ele>
<time>2024-05-08T13:53:16Z</time>
</trkpt>
<trkpt lat="49.36062620021403" lon="9.146779999136925">
<ele>148.2</ele>
<time>2024-05-08T13:53:18Z</time>
</trkpt>
<trkpt lat="49.360668109729886" lon="9.146789470687509">
<ele>148.2</ele>
<time>2024-05-08T13:53:19Z</time>
</trkpt>
<trkpt lat="49.36075972393155" lon="9.146816208958626">
<ele>148.2</ele>
<time>2024-05-08T13:53:20Z</time>
</trkpt>
<trkpt lat="49.36080163344741" lon="9.146831464022398">
<ele>148.2</ele>
<time>2024-05-08T13:53:22Z</time>
</trkpt>
<trkpt lat="49.3608436267823" lon="9.14684671908617">
<ele>148.2</ele>
<time>2024-05-08T13:53:23Z</time>
</trkpt>
<trkpt lat="49.360893247649074" lon="9.146860046312211">
<ele>148</ele>
<time>2024-05-08T13:53:24Z</time>
</trkpt>
<trkpt lat="49.36098477803171" lon="9.146889634430408">
<ele>148</ele>
<time>2024-05-08T13:53:26Z</time>
</trkpt>
<trkpt lat="49.36103431507945" lon="9.14690488949418">
<ele>148</ele>
<time>2024-05-08T13:53:27Z</time>
</trkpt>
<trkpt lat="49.3610801640898" lon="9.146922072395682">
<ele>148</ele>
<time>2024-05-08T13:53:28Z</time>
</trkpt>
<trkpt lat="49.36112970113754" lon="9.146935399621723">
<ele>148</ele>
<time>2024-05-08T13:53:29Z</time>
</trkpt>
<trkpt lat="49.361221231520176" lon="9.146960210055113">
<ele>148</ele>
<time>2024-05-08T13:53:31Z</time>
</trkpt>
<trkpt lat="49.36126708053053" lon="9.146974543109536">
<ele>148</ele>
<time>2024-05-08T13:53:32Z</time>
</trkpt>
<trkpt lat="49.36131661757827" lon="9.146989798173308">
<ele>148.2</ele>
<time>2024-05-08T13:53:33Z</time>
</trkpt>
<trkpt lat="49.36136623844504" lon="9.14700698107481">
<ele>148.2</ele>
<time>2024-05-08T13:53:34Z</time>
</trkpt>
<trkpt lat="49.361461624503136" lon="9.147043190896513">
<ele>148.2</ele>
<time>2024-05-08T13:53:36Z</time>
</trkpt>
<trkpt lat="49.36150738969445" lon="9.147060373798013">
<ele>148.4</ele>
<time>2024-05-08T13:53:37Z</time>
</trkpt>
<trkpt lat="49.36155692674219" lon="9.147076550871134">
<ele>148.4</ele>
<time>2024-05-08T13:53:38Z</time>
</trkpt>
<trkpt lat="49.36160654760897" lon="9.147091805934906">
<ele>148.4</ele>
<time>2024-05-08T13:53:39Z</time>
</trkpt>
<trkpt lat="49.361701933667064" lon="9.147121394053102">
<ele>148.4</ele>
<time>2024-05-08T13:53:41Z</time>
</trkpt>
<trkpt lat="49.36175155453384" lon="9.147132793441417">
<ele>148.4</ele>
<time>2024-05-08T13:53:42Z</time>
</trkpt>
<trkpt lat="49.3618468567729" lon="9.147165231406689">
<ele>148.4</ele>
<time>2024-05-08T13:53:44Z</time>
</trkpt>
<trkpt lat="49.36194987036288" lon="9.147196747362614">
<ele>148.4</ele>
<time>2024-05-08T13:53:46Z</time>
</trkpt>
<trkpt lat="49.3620490282774" lon="9.147226251661776">
<ele>148.4</ele>
<time>2024-05-08T13:53:47Z</time>
</trkpt>
<trkpt lat="49.36209864914417" lon="9.147245362401009">
<ele>148.4</ele>
<time>2024-05-08T13:53:48Z</time>
</trkpt>
<trkpt lat="49.36219780705869" lon="9.147279728204012">
<ele>148.4</ele>
<time>2024-05-08T13:53:51Z</time>
</trkpt>
<trkpt lat="49.362251199781895" lon="9.147296827286482">
<ele>148.4</ele>
<time>2024-05-08T13:53:52Z</time>
</trkpt>
<trkpt lat="49.36230082064867" lon="9.147315016016364">
<ele>148.4</ele>
<time>2024-05-08T13:53:53Z</time>
</trkpt>
<trkpt lat="49.36235421337187" lon="9.147331193089483">
<ele>148.4</ele>
<time>2024-05-08T13:53:54Z</time>
</trkpt>
<trkpt lat="49.362453455105424" lon="9.147366480901836">
<ele>148.4</ele>
<time>2024-05-08T13:53:56Z</time>
</trkpt>
<trkpt lat="49.36249922029674" lon="9.147384585812688">
<ele>148.4</ele>
<time>2024-05-08T13:53:57Z</time>
</trkpt>
<trkpt lat="49.36254875734448" lon="9.14739984087646">
<ele>148.4</ele>
<time>2024-05-08T13:53:58Z</time>
</trkpt>
<trkpt lat="49.36259837821126" lon="9.147413251921536">
<ele>148.4</ele>
<time>2024-05-08T13:53:59Z</time>
</trkpt>
<trkpt lat="49.36270139180124" lon="9.14743990637362">
<ele>148.4</ele>
<time>2024-05-08T13:54:01Z</time>
</trkpt>
<trkpt lat="49.36275092884898" lon="9.147455161437392">
<ele>148.6</ele>
<time>2024-05-08T13:54:02Z</time>
</trkpt>
<trkpt lat="49.36280054971576" lon="9.147470416501164">
<ele>148.6</ele>
<time>2024-05-08T13:54:03Z</time>
</trkpt>
<trkpt lat="49.362846314907074" lon="9.147482821717858">
<ele>148.6</ele>
<time>2024-05-08T13:54:04Z</time>
</trkpt>
<trkpt lat="49.36293784528971" lon="9.147511404007671">
<ele>148.6</ele>
<time>2024-05-08T13:54:06Z</time>
</trkpt>
<trkpt lat="49.362983694300056" lon="9.147526659071444">
<ele>148.6</ele>
<time>2024-05-08T13:54:07Z</time>
</trkpt>
<trkpt lat="49.36302945949137" lon="9.147544847801328">
<ele>148.6</ele>
<time>2024-05-08T13:54:08Z</time>
</trkpt>
<trkpt lat="49.36307522468269" lon="9.147561946883798">
<ele>148.6</ele>
<time>2024-05-08T13:54:09Z</time>
</trkpt>
<trkpt lat="49.36317061074078" lon="9.147591535001991">
<ele>148.6</ele>
<time>2024-05-08T13:54:11Z</time>
</trkpt>
<trkpt lat="49.363220147788525" lon="9.147604862228036">
<ele>148.8</ele>
<time>2024-05-08T13:54:12Z</time>
</trkpt>
<trkpt lat="49.36326591297984" lon="9.147622045129538">
<ele>148.8</ele>
<time>2024-05-08T13:54:13Z</time>
</trkpt>
<trkpt lat="49.36331553384662" lon="9.14763830602169">
<ele>148.8</ele>
<time>2024-05-08T13:54:14Z</time>
</trkpt>
<trkpt lat="49.36336129903793" lon="9.147653561085464">
<ele>148.8</ele>
<time>2024-05-08T13:54:15Z</time>
</trkpt>
<trkpt lat="49.363456685096025" lon="9.147680215537548">
<ele>148.8</ele>
<time>2024-05-08T13:54:17Z</time>
</trkpt>
<trkpt lat="49.36350245028734" lon="9.147694548591971">
<ele>148.8</ele>
<time>2024-05-08T13:54:18Z</time>
</trkpt>
<trkpt lat="49.36354821547866" lon="9.147706953808663">
<ele>148.8</ele>
<time>2024-05-08T13:54:19Z</time>
</trkpt>
<trkpt lat="49.36363982968032" lon="9.147731764242051">
<ele>148.8</ele>
<time>2024-05-08T13:54:20Z</time>
</trkpt>
<trkpt lat="49.36368559487164" lon="9.147747019305823">
<ele>148.8</ele>
<time>2024-05-08T13:54:22Z</time>
</trkpt>
<trkpt lat="49.36377712525427" lon="9.14777845144272">
<ele>148.8</ele>
<time>2024-05-08T13:54:23Z</time>
</trkpt>
<trkpt lat="49.363872511312366" lon="9.147808039560914">
<ele>148.8</ele>
<time>2024-05-08T13:54:25Z</time>
</trkpt>
<trkpt lat="49.36391827650368" lon="9.147821366786957">
<ele>148.8</ele>
<time>2024-05-08T13:54:27Z</time>
</trkpt>
<trkpt lat="49.363967813551426" lon="9.147834777832031">
<ele>148.8</ele>
<time>2024-05-08T13:54:28Z</time>
</trkpt>
<trkpt lat="49.364013662561774" lon="9.147848105058074">
<ele>148.8</ele>
<time>2024-05-08T13:54:29Z</time>
</trkpt>
<trkpt lat="49.36410519294441" lon="9.147872915491462">
<ele>148.8</ele>
<time>2024-05-08T13:54:31Z</time>
</trkpt>
<trkpt lat="49.36415095813573" lon="9.147886242717505">
<ele>149</ele>
<time>2024-05-08T13:54:32Z</time>
</trkpt>
<trkpt lat="49.3642005790025" lon="9.147901497781277">
<ele>149</ele>
<time>2024-05-08T13:54:33Z</time>
</trkpt>
<trkpt lat="49.36425011605024" lon="9.14791482500732">
<ele>149.2</ele>
<time>2024-05-08T13:54:34Z</time>
</trkpt>
<trkpt lat="49.36435312964022" lon="9.147939635440707">
<ele>149.2</ele>
<time>2024-05-08T13:54:36Z</time>
</trkpt>
<trkpt lat="49.364406522363424" lon="9.14795296266675">
<ele>149.4</ele>
<time>2024-05-08T13:54:37Z</time>
</trkpt>
<trkpt lat="49.36445991508663" lon="9.147970145568252">
<ele>149.4</ele>
<time>2024-05-08T13:54:38Z</time>
</trkpt>
<trkpt lat="49.36451339162886" lon="9.147988250479102">
<ele>149.6</ele>
<time>2024-05-08T13:54:39Z</time>
</trkpt>
<trkpt lat="49.36461254954338" lon="9.148021694272757">
<ele>149.8</ele>
<time>2024-05-08T13:54:41Z</time>
</trkpt>
<trkpt lat="49.3646583147347" lon="9.148036949336529">
<ele>149.8</ele>
<time>2024-05-08T13:54:42Z</time>
</trkpt>
<trkpt lat="49.364704079926014" lon="9.14805312640965">
<ele>150</ele>
<time>2024-05-08T13:54:43Z</time>
</trkpt>
<trkpt lat="49.36474984511733" lon="9.1480712313205">
<ele>150.2</ele>
<time>2024-05-08T13:54:44Z</time>
</trkpt>
<trkpt lat="49.364841459318995" lon="9.148108446970582">
<ele>150.2</ele>
<time>2024-05-08T13:54:46Z</time>
</trkpt>
<trkpt lat="49.36492913402617" lon="9.148138035088778">
<ele>150.6</ele>
<time>2024-05-08T13:54:48Z</time>
</trkpt>
<trkpt lat="49.36497112736106" lon="9.148155134171247">
<ele>150.8</ele>
<time>2024-05-08T13:54:49Z</time>
</trkpt>
<trkpt lat="49.36505125835538" lon="9.14818949997425">
<ele>150.8</ele>
<time>2024-05-08T13:54:51Z</time>
</trkpt>
<trkpt lat="49.36509316787124" lon="9.148204755038025">
<ele>151</ele>
<time>2024-05-08T13:54:52Z</time>
</trkpt>
<trkpt lat="49.36513893306255" lon="9.148222859948874">
<ele>151</ele>
<time>2024-05-08T13:54:53Z</time>
</trkpt>
<trkpt lat="49.36518092639744" lon="9.148244820535185">
<ele>151</ele>
<time>2024-05-08T13:54:54Z</time>
</trkpt>
<trkpt lat="49.36526868492365" lon="9.148284886032345">
<ele>151.2</ele>
<time>2024-05-08T13:54:56Z</time>
</trkpt>
<trkpt lat="49.36531059443951" lon="9.148304918780925">
<ele>151.2</ele>
<time>2024-05-08T13:54:57Z</time>
</trkpt>
<trkpt lat="49.365356443449855" lon="9.148322101682425">
<ele>151</ele>
<time>2024-05-08T13:54:58Z</time>
</trkpt>
<trkpt lat="49.36539835296571" lon="9.148338278755546">
<ele>151</ele>
<time>2024-05-08T13:54:59Z</time>
</trkpt>
<trkpt lat="49.36548611149192" lon="9.148378344252706">
<ele>151</ele>
<time>2024-05-08T13:55:01Z</time>
</trkpt>
<trkpt lat="49.36552810482681" lon="9.148401226848364">
<ele>151.2</ele>
<time>2024-05-08T13:55:02Z</time>
</trkpt>
<trkpt lat="49.36561577953398" lon="9.148451769724488">
<ele>151.2</ele>
<time>2024-05-08T13:55:04Z</time>
</trkpt>
<trkpt lat="49.36570353806019" lon="9.148500384762883">
<ele>151.2</ele>
<time>2024-05-08T13:55:06Z</time>
</trkpt>
<trkpt lat="49.365749303251505" lon="9.148527123034">
<ele>151.2</ele>
<time>2024-05-08T13:55:07Z</time>
</trkpt>
<trkpt lat="49.365791296586394" lon="9.148552855476735">
<ele>151.4</ele>
<time>2024-05-08T13:55:08Z</time>
</trkpt>
<trkpt lat="49.36583320610225" lon="9.148581437766552">
<ele>151.4</ele>
<time>2024-05-08T13:55:09Z</time>
</trkpt>
<trkpt lat="49.36592482030392" lon="9.148632986471055">
<ele>151.4</ele>
<time>2024-05-08T13:55:11Z</time>
</trkpt>
<trkpt lat="49.365966729819775" lon="9.148659640923142">
<ele>151.4</ele>
<time>2024-05-08T13:55:12Z</time>
</trkpt>
<trkpt lat="49.36601249501109" lon="9.14868537336588">
<ele>151.4</ele>
<time>2024-05-08T13:55:13Z</time>
</trkpt>
<trkpt lat="49.36605834402144" lon="9.148711189627647">
<ele>151.4</ele>
<time>2024-05-08T13:55:14Z</time>
</trkpt>
<trkpt lat="49.36614224687219" lon="9.14876651018858">
<ele>151.4</ele>
<time>2024-05-08T13:55:16Z</time>
</trkpt>
<trkpt lat="49.36618415638805" lon="9.148797020316124">
<ele>151.6</ele>
<time>2024-05-08T13:55:17Z</time>
</trkpt>
<trkpt lat="49.36627191491425" lon="9.148853262886403">
<ele>151.6</ele>
<time>2024-05-08T13:55:19Z</time>
</trkpt>
<trkpt lat="49.366359673440456" lon="9.148911433294415">
<ele>151.8</ele>
<time>2024-05-08T13:55:21Z</time>
</trkpt>
<trkpt lat="49.366401666775346" lon="9.14894001558423">
<ele>151.8</ele>
<time>2024-05-08T13:55:22Z</time>
</trkpt>
<trkpt lat="49.3664435762912" lon="9.148966753855348">
<ele>151.8</ele>
<time>2024-05-08T13:55:23Z</time>
</trkpt>
<trkpt lat="49.36648556962609" lon="9.148993492126465">
<ele>151.8</ele>
<time>2024-05-08T13:55:24Z</time>
</trkpt>
<trkpt lat="49.36656570062041" lon="9.149047806859016">
<ele>151.8</ele>
<time>2024-05-08T13:55:26Z</time>
</trkpt>
<trkpt lat="49.36660761013627" lon="9.149076389148831">
<ele>151.8</ele>
<time>2024-05-08T13:55:27Z</time>
</trkpt>
<trkpt lat="49.36669151298702" lon="9.149131709709764">
<ele>152</ele>
<time>2024-05-08T13:55:29Z</time>
</trkpt>
<trkpt lat="49.36677164398134" lon="9.149185102432966">
<ele>152</ele>
<time>2024-05-08T13:55:31Z</time>
</trkpt>
<trkpt lat="49.36681363731623" lon="9.149214690551162">
<ele>152.2</ele>
<time>2024-05-08T13:55:32Z</time>
</trkpt>
<trkpt lat="49.36685177497566" lon="9.149246206507089">
<ele>152.2</ele>
<time>2024-05-08T13:55:33Z</time>
</trkpt>
<trkpt lat="49.36688991263509" lon="9.149278560653327">
<ele>152.2</ele>
<time>2024-05-08T13:55:34Z</time>
</trkpt>
<trkpt lat="49.36697004362941" lon="9.149338658899069">
<ele>152.4</ele>
<time>2024-05-08T13:55:36Z</time>
</trkpt>
<trkpt lat="49.36700818128884" lon="9.149370174854994">
<ele>152.4</ele>
<time>2024-05-08T13:55:37Z</time>
</trkpt>
<trkpt lat="49.36704631894827" lon="9.149399679154158">
<ele>152.4</ele>
<time>2024-05-08T13:55:38Z</time>
</trkpt>
<trkpt lat="49.36708831228316" lon="9.149433122947812">
<ele>152.4</ele>
<time>2024-05-08T13:55:39Z</time>
</trkpt>
<trkpt lat="49.367172215133905" lon="9.149506548419597">
<ele>152.4</ele>
<time>2024-05-08T13:55:41Z</time>
</trkpt>
<trkpt lat="49.36721798032522" lon="9.149541836231949">
<ele>152.4</ele>
<time>2024-05-08T13:55:42Z</time>
</trkpt>
<trkpt lat="49.36725997366011" lon="9.149578046053648">
<ele>152.4</ele>
<time>2024-05-08T13:55:43Z</time>
</trkpt>
<trkpt lat="49.36729811131954" lon="9.14961526170373">
<ele>152.4</ele>
<time>2024-05-08T13:55:44Z</time>
</trkpt>
<trkpt lat="49.36737815849483" lon="9.14969153702259">
<ele>152.4</ele>
<time>2024-05-08T13:55:46Z</time>
</trkpt>
<trkpt lat="49.36742015182972" lon="9.14972967468202">
<ele>152.4</ele>
<time>2024-05-08T13:55:47Z</time>
</trkpt>
<trkpt lat="49.36745828948915" lon="9.149767812341452">
<ele>152.4</ele>
<time>2024-05-08T13:55:48Z</time>
</trkpt>
<trkpt lat="49.36750028282404" lon="9.149807877838612">
<ele>152.4</ele>
<time>2024-05-08T13:55:49Z</time>
</trkpt>
<trkpt lat="49.36759181320667" lon="9.14988993667066">
<ele>152.6</ele>
<time>2024-05-08T13:55:51Z</time>
</trkpt>
<trkpt lat="49.36763380654156" lon="9.1499328520149">
<ele>152.6</ele>
<time>2024-05-08T13:55:52Z</time>
</trkpt>
<trkpt lat="49.36771770939231" lon="9.150023460388184">
<ele>152.8</ele>
<time>2024-05-08T13:55:54Z</time>
</trkpt>
<trkpt lat="49.36779784038663" lon="9.15010828524828">
<ele>152.8</ele>
<time>2024-05-08T13:55:56Z</time>
</trkpt>
<trkpt lat="49.36783974990249" lon="9.15014835074544">
<ele>153</ele>
<time>2024-05-08T13:55:57Z</time>
</trkpt>
<trkpt lat="49.367881743237376" lon="9.150190344080327">
<ele>153.2</ele>
<time>2024-05-08T13:55:58Z</time>
</trkpt>
<trkpt lat="49.367923736572266" lon="9.15022848173976">
<ele>153.2</ele>
<time>2024-05-08T13:55:59Z</time>
</trkpt>
<trkpt lat="49.36800001189113" lon="9.150296207517384">
<ele>153.4</ele>
<time>2024-05-08T13:56:01Z</time>
</trkpt>
<trkpt lat="49.36803814955056" lon="9.150331495329738">
<ele>153.4</ele>
<time>2024-05-08T13:56:02Z</time>
</trkpt>
<trkpt lat="49.368080059066415" lon="9.15036678314209">
<ele>153.4</ele>
<time>2024-05-08T13:56:03Z</time>
</trkpt>
<trkpt lat="49.36811442486942" lon="9.150400143116713">
<ele>153.6</ele>
<time>2024-05-08T13:56:04Z</time>
</trkpt>
<trkpt lat="49.36818307265639" lon="9.15046786889434">
<ele>153.2</ele>
<time>2024-05-08T13:56:05Z</time>
</trkpt>
<trkpt lat="49.36821358278394" lon="9.15050315670669">
<ele>153.2</ele>
<time>2024-05-08T13:56:06Z</time>
</trkpt>
<trkpt lat="49.36829371377826" lon="9.150573648512363">
<ele>153.2</ele>
<time>2024-05-08T13:56:09Z</time>
</trkpt>
<trkpt lat="49.368377616629004" lon="9.15064137428999">
<ele>153.4</ele>
<time>2024-05-08T13:56:11Z</time>
</trkpt>
<trkpt lat="49.368415754288435" lon="9.150674818083644">
<ele>153.6</ele>
<time>2024-05-08T13:56:12Z</time>
</trkpt>
<trkpt lat="49.3684539757669" lon="9.150706250220535">
<ele>153.6</ele>
<time>2024-05-08T13:56:13Z</time>
</trkpt>
<trkpt lat="49.36849211342633" lon="9.150738688185813">
<ele>153.8</ele>
<time>2024-05-08T13:56:14Z</time>
</trkpt>
<trkpt lat="49.36856838874519" lon="9.15080356411636">
<ele>154.2</ele>
<time>2024-05-08T13:56:16Z</time>
</trkpt>
<trkpt lat="49.36860267072916" lon="9.150831140577791">
<ele>154.4</ele>
<time>2024-05-08T13:56:17Z</time>
</trkpt>
<trkpt lat="49.36863703653216" lon="9.15086173452437">
<ele>154.8</ele>
<time>2024-05-08T13:56:18Z</time>
</trkpt>
<trkpt lat="49.36867902986705" lon="9.150893166661264">
<ele>155.2</ele>
<time>2024-05-08T13:56:19Z</time>
</trkpt>
<trkpt lat="49.368751449510455" lon="9.150959886610508">
<ele>155.4</ele>
<time>2024-05-08T13:56:21Z</time>
</trkpt>
<trkpt lat="49.36878967098892" lon="9.150993330404162">
<ele>155.8</ele>
<time>2024-05-08T13:56:22Z</time>
</trkpt>
<trkpt lat="49.36882395297289" lon="9.151024762541056">
<ele>156</ele>
<time>2024-05-08T13:56:23Z</time>
</trkpt>
<trkpt lat="49.36886209063232" lon="9.151060050353408">
<ele>156.2</ele>
<time>2024-05-08T13:56:24Z</time>
</trkpt>
<trkpt lat="49.36893836595118" lon="9.151136325672269">
<ele>156.4</ele>
<time>2024-05-08T13:56:26Z</time>
</trkpt>
<trkpt lat="49.36898421496153" lon="9.151178319007158">
<ele>156.6</ele>
<time>2024-05-08T13:56:27Z</time>
</trkpt>
<trkpt lat="49.36902612447739" lon="9.151220312342048">
<ele>156.8</ele>
<time>2024-05-08T13:56:28Z</time>
</trkpt>
<trkpt lat="49.36906811781227" lon="9.151265071704984">
<ele>156.8</ele>
<time>2024-05-08T13:56:29Z</time>
</trkpt>
<trkpt lat="49.36915202066302" lon="9.151361463591456">
<ele>157</ele>
<time>2024-05-08T13:56:30Z</time>
</trkpt>
<trkpt lat="49.36919778585434" lon="9.15141200646758">
<ele>157</ele>
<time>2024-05-08T13:56:32Z</time>
</trkpt>
<trkpt lat="49.36923977918923" lon="9.15145492181182">
<ele>157</ele>
<time>2024-05-08T13:56:33Z</time>
</trkpt>
<trkpt lat="49.36928168870509" lon="9.151498759165406">
<ele>157</ele>
<time>2024-05-08T13:56:34Z</time>
</trkpt>
<trkpt lat="49.36936181969941" lon="9.151577884331346">
<ele>157</ele>
<time>2024-05-08T13:56:36Z</time>
</trkpt>
<trkpt lat="49.36940758489072" lon="9.151613172143698">
<ele>157</ele>
<time>2024-05-08T13:56:37Z</time>
</trkpt>
<trkpt lat="49.369445722550154" lon="9.15165038779378">
<ele>157</ele>
<time>2024-05-08T13:56:38Z</time>
</trkpt>
<trkpt lat="49.36948771588504" lon="9.15168852545321">
<ele>157</ele>
<time>2024-05-08T13:56:39Z</time>
</trkpt>
<trkpt lat="49.369563991203904" lon="9.151756251230836">
<ele>157</ele>
<time>2024-05-08T13:56:41Z</time>
</trkpt>
<trkpt lat="49.369602128863335" lon="9.15178868919611">
<ele>157</ele>
<time>2024-05-08T13:56:42Z</time>
</trkpt>
<trkpt lat="49.3696403503418" lon="9.15182297118008">
<ele>157.2</ele>
<time>2024-05-08T13:56:43Z</time>
</trkpt>
<trkpt lat="49.36967463232577" lon="9.151858258992434">
<ele>157.2</ele>
<time>2024-05-08T13:56:44Z</time>
</trkpt>
<trkpt lat="49.3697471357882" lon="9.15192313492298">
<ele>157.2</ele>
<time>2024-05-08T13:56:46Z</time>
</trkpt>
<trkpt lat="49.36978904530406" lon="9.151951717212796">
<ele>157.2</ele>
<time>2024-05-08T13:56:47Z</time>
</trkpt>
<trkpt lat="49.369861548766494" lon="9.152020448818805">
<ele>157.4</ele>
<time>2024-05-08T13:56:49Z</time>
</trkpt>
<trkpt lat="49.36993019655347" lon="9.152091946452856">
<ele>157.6</ele>
<time>2024-05-08T13:56:51Z</time>
</trkpt>
<trkpt lat="49.3699683342129" lon="9.152121534571052">
<ele>157.8</ele>
<time>2024-05-08T13:56:52Z</time>
</trkpt>
<trkpt lat="49.3700027000159" lon="9.152152966707945">
<ele>158</ele>
<time>2024-05-08T13:56:53Z</time>
</trkpt>
<trkpt lat="49.370037065818906" lon="9.152186326682568">
<ele>158.2</ele>
<time>2024-05-08T13:56:54Z</time>
</trkpt>
<trkpt lat="49.37011334113777" lon="9.152256902307272">
<ele>158.4</ele>
<time>2024-05-08T13:56:56Z</time>
</trkpt>
<trkpt lat="49.37014762312174" lon="9.152293195948005">
<ele>158.6</ele>
<time>2024-05-08T13:56:57Z</time>
</trkpt>
<trkpt lat="49.3701858446002" lon="9.152333177626131">
<ele>158.8</ele>
<time>2024-05-08T13:56:58Z</time>
</trkpt>
<trkpt lat="49.37022775411606" lon="9.152370393276216">
<ele>159</ele>
<time>2024-05-08T13:56:59Z</time>
</trkpt>
<trkpt lat="49.370311656966805" lon="9.1524419747293">
<ele>159</ele>
<time>2024-05-08T13:57:01Z</time>
</trkpt>
<trkpt lat="49.370391787961125" lon="9.152516322210433">
<ele>159.4</ele>
<time>2024-05-08T13:57:02Z</time>
</trkpt>
<trkpt lat="49.37042615376413" lon="9.152551610022783">
<ele>159.4</ele>
<time>2024-05-08T13:57:04Z</time>
</trkpt>
<trkpt lat="49.37052153982222" lon="9.152660323306918">
<ele>159.6</ele>
<time>2024-05-08T13:57:07Z</time>
</trkpt>
<trkpt lat="49.37059781514108" lon="9.152729976922274">
<ele>159.6</ele>
<time>2024-05-08T13:57:09Z</time>
</trkpt>
<trkpt lat="49.37066646292806" lon="9.152806252241136">
<ele>159.6</ele>
<time>2024-05-08T13:57:10Z</time>
</trkpt>
<trkpt lat="49.37070082873106" lon="9.152848161756992">
<ele>159.8</ele>
<time>2024-05-08T13:57:12Z</time>
</trkpt>
<trkpt lat="49.37073896639049" lon="9.15289493277669">
<ele>159.8</ele>
<time>2024-05-08T13:57:13Z</time>
</trkpt>
<trkpt lat="49.37077324837446" lon="9.152944553643463">
<ele>160</ele>
<time>2024-05-08T13:57:14Z</time>
</trkpt>
<trkpt lat="49.370845751836896" lon="9.1530532669276">
<ele>160</ele>
<time>2024-05-08T13:57:16Z</time>
</trkpt>
<trkpt lat="49.37091825529933" lon="9.153161980211737">
<ele>160.2</ele>
<time>2024-05-08T13:57:18Z</time>
</trkpt>
<trkpt lat="49.3709525372833" lon="9.15320967324078">
<ele>160.2</ele>
<time>2024-05-08T13:57:19Z</time>
</trkpt>
<trkpt lat="49.370986903086305" lon="9.153261138126254">
<ele>160.4</ele>
<time>2024-05-08T13:57:20Z</time>
</trkpt>
<trkpt lat="49.37105555087328" lon="9.153358452022076">
<ele>160.2</ele>
<time>2024-05-08T13:57:22Z</time>
</trkpt>
<trkpt lat="49.3710822891444" lon="9.15340706706047">
<ele>160.4</ele>
<time>2024-05-08T13:57:23Z</time>
</trkpt>
<trkpt lat="49.37110894359648" lon="9.153458531945944">
<ele>160.4</ele>
<time>2024-05-08T13:57:24Z</time>
</trkpt>
<trkpt lat="49.37111657112837" lon="9.153572022914886">
<ele>160.4</ele>
<time>2024-05-08T13:57:26Z</time>
</trkpt>
<trkpt lat="49.37109368853271" lon="9.153623571619391">
<ele>160.2</ele>
<time>2024-05-08T13:57:27Z</time>
</trkpt>
<trkpt lat="49.37105555087328" lon="9.153673108667135">
<ele>160.2</ele>
<time>2024-05-08T13:57:28Z</time>
</trkpt>
<trkpt lat="49.37101741321385" lon="9.15372365154326">
<ele>160.2</ele>
<time>2024-05-08T13:57:29Z</time>
</trkpt>
<trkpt lat="49.37097164802253" lon="9.153773272410035">
<ele>160</ele>
<time>2024-05-08T13:57:30Z</time>
</trkpt>
<trkpt lat="49.37091439962387" lon="9.153878130018713">
<ele>160</ele>
<time>2024-05-08T13:57:31Z</time>
</trkpt>
<trkpt lat="49.37090300023556" lon="9.15394015610218">
<ele>159.8</ele>
<time>2024-05-08T13:57:33Z</time>
</trkpt>
<trkpt lat="49.37091062776744" lon="9.15400117635727">
<ele>159.4</ele>
<time>2024-05-08T13:57:34Z</time>
</trkpt>
<trkpt lat="49.37097164802253" lon="9.15406127460301">
<ele>159.2</ele>
<time>2024-05-08T13:57:36Z</time>
</trkpt>
<trkpt lat="49.37101364135742" lon="9.154074601829052">
<ele>159</ele>
<time>2024-05-08T13:57:37Z</time>
</trkpt>
<trkpt lat="49.37105555087328" lon="9.154087007045746">
<ele>158.6</ele>
<time>2024-05-08T13:57:38Z</time>
</trkpt>
<trkpt lat="49.37110131606459" lon="9.15410134010017">
<ele>158.4</ele>
<time>2024-05-08T13:57:39Z</time>
</trkpt>
<trkpt lat="49.3711890745908" lon="9.154134700074792">
<ele>158</ele>
<time>2024-05-08T13:57:41Z</time>
</trkpt>
<trkpt lat="49.37123106792569" lon="9.15415858849883">
<ele>157.8</ele>
<time>2024-05-08T13:57:42Z</time>
</trkpt>
<trkpt lat="49.37126534990966" lon="9.154183315113189">
<ele>157.6</ele>
<time>2024-05-08T13:57:43Z</time>
</trkpt>
<trkpt lat="49.371303487569094" lon="9.154211981222034">
<ele>157.4</ele>
<time>2024-05-08T13:57:44Z</time>
</trkpt>
<trkpt lat="49.3713722191751" lon="9.15427970699966">
<ele>157.4</ele>
<time>2024-05-08T13:57:46Z</time>
</trkpt>
<trkpt lat="49.37143323943019" lon="9.154353132471442">
<ele>157.4</ele>
<time>2024-05-08T13:57:48Z</time>
</trkpt>
<trkpt lat="49.37146374955773" lon="9.154391270130873">
<ele>157.4</ele>
<time>2024-05-08T13:57:49Z</time>
</trkpt>
<trkpt lat="49.37149040400982" lon="9.154424630105495">
<ele>157.4</ele>
<time>2024-05-08T13:57:50Z</time>
</trkpt>
<trkpt lat="49.37152091413736" lon="9.154450362548232">
<ele>157.2</ele>
<time>2024-05-08T13:57:51Z</time>
</trkpt>
<trkpt lat="49.371578162536025" lon="9.154470395296812">
<ele>157.4</ele>
<time>2024-05-08T13:57:52Z</time>
</trkpt>
<trkpt lat="49.37160490080714" lon="9.15447710081935">
<ele>157.4</ele>
<time>2024-05-08T13:57:53Z</time>
</trkpt>
<trkpt lat="49.37166969291866" lon="9.154483722522857">
<ele>157.6</ele>
<time>2024-05-08T13:57:55Z</time>
</trkpt>
<trkpt lat="49.371696431189775" lon="9.154486656188965">
<ele>157.8</ele>
<time>2024-05-08T13:57:57Z</time>
</trkpt>
<trkpt lat="49.37173079699278" lon="9.1544952057302">
<ele>158.2</ele>
<time>2024-05-08T13:57:58Z</time>
</trkpt>
<trkpt lat="49.37176507897675" lon="9.154502833262086">
<ele>158.6</ele>
<time>2024-05-08T13:57:59Z</time>
</trkpt>
<trkpt lat="49.3718299549073" lon="9.15451138280332">
<ele>158.8</ele>
<time>2024-05-08T13:58:01Z</time>
</trkpt>
<trkpt lat="49.371894830837846" lon="9.15451138280332">
<ele>159.2</ele>
<time>2024-05-08T13:58:02Z</time>
</trkpt>
<trkpt lat="49.37192911282182" lon="9.154509538784623">
<ele>159.6</ele>
<time>2024-05-08T13:58:04Z</time>
</trkpt>
<trkpt lat="49.37200161628425" lon="9.154508532956244">
<ele>160</ele>
<time>2024-05-08T13:58:06Z</time>
</trkpt>
<trkpt lat="49.372074119746685" lon="9.154502833262086">
<ele>161</ele>
<time>2024-05-08T13:58:08Z</time>
</trkpt>
<trkpt lat="49.37210840173066" lon="9.154498055577278">
<ele>161.4</ele>
<time>2024-05-08T13:58:09Z</time>
</trkpt>
<trkpt lat="49.37217704951763" lon="9.15449135005474">
<ele>161.6</ele>
<time>2024-05-08T13:58:11Z</time>
</trkpt>
<trkpt lat="49.372211415320635" lon="9.15449135005474">
<ele>162</ele>
<time>2024-05-08T13:58:12Z</time>
</trkpt>
<trkpt lat="49.37224192544818" lon="9.154489506036043">
<ele>162.4</ele>
<time>2024-05-08T13:58:13Z</time>
</trkpt>
<trkpt lat="49.37227629125118" lon="9.154488500207664">
<ele>162.8</ele>
<time>2024-05-08T13:58:14Z</time>
</trkpt>
<trkpt lat="49.37234493903816" lon="9.154486656188965">
<ele>163.2</ele>
<time>2024-05-08T13:58:16Z</time>
</trkpt>
<trkpt lat="49.372409814968705" lon="9.154486656188965">
<ele>163.6</ele>
<time>2024-05-08T13:58:18Z</time>
</trkpt>
<trkpt lat="49.37244032509625" lon="9.154484728351235">
<ele>164.2</ele>
<time>2024-05-08T13:58:19Z</time>
</trkpt>
<trkpt lat="49.372505117207766" lon="9.154478022828698">
<ele>164.6</ele>
<time>2024-05-08T13:58:21Z</time>
</trkpt>
<trkpt lat="49.37253562733531" lon="9.154478022828698">
<ele>165</ele>
<time>2024-05-08T13:58:22Z</time>
</trkpt>
<trkpt lat="49.372566221281886" lon="9.154481878504155">
<ele>165.4</ele>
<time>2024-05-08T13:58:23Z</time>
</trkpt>
<trkpt lat="49.37259673140943" lon="9.154488500207664">
<ele>165.8</ele>
<time>2024-05-08T13:58:24Z</time>
</trkpt>
<trkpt lat="49.37265012413263" lon="9.154521860182284">
<ele>166.2</ele>
<time>2024-05-08T13:58:25Z</time>
</trkpt>
<trkpt lat="49.37266915105283" lon="9.154549520462751">
<ele>166.6</ele>
<time>2024-05-08T13:58:26Z</time>
</trkpt>
<trkpt lat="49.37270728871226" lon="9.154600063338876">
<ele>167</ele>
<time>2024-05-08T13:58:29Z</time>
</trkpt>
<trkpt lat="49.372745510190725" lon="9.154635351151228">
<ele>167.4</ele>
<time>2024-05-08T13:58:30Z</time>
</trkpt>
<trkpt lat="49.37279504723847" lon="9.154624873772264">
<ele>167.8</ele>
<time>2024-05-08T13:58:33Z</time>
</trkpt>
<trkpt lat="49.3728141579777" lon="9.15461154654622">
<ele>168.2</ele>
<time>2024-05-08T13:58:34Z</time>
</trkpt>
<trkpt lat="49.37285606749356" lon="9.154549520462751">
<ele>168.6</ele>
<time>2024-05-08T13:58:36Z</time>
</trkpt>
<trkpt lat="49.37287517823279" lon="9.154518088325858">
<ele>169.2</ele>
<time>2024-05-08T13:58:37Z</time>
</trkpt>
<trkpt lat="49.37289043329656" lon="9.15447517298162">
<ele>169.4</ele>
<time>2024-05-08T13:58:38Z</time>
</trkpt>
<trkpt lat="49.37290954403579" lon="9.15443317964673">
<ele>169.8</ele>
<time>2024-05-08T13:58:39Z</time>
</trkpt>
<trkpt lat="49.37294005416334" lon="9.154350198805332">
<ele>170.2</ele>
<time>2024-05-08T13:58:41Z</time>
</trkpt>
<trkpt lat="49.37295530922711" lon="9.154306361451743">
<ele>170.4</ele>
<time>2024-05-08T13:58:42Z</time>
</trkpt>
<trkpt lat="49.37299344688654" lon="9.154223380610349">
<ele>170.8</ele>
<time>2024-05-08T13:58:44Z</time>
</trkpt>
<trkpt lat="49.37305061146617" lon="9.154154732823372">
<ele>170.8</ele>
<time>2024-05-08T13:58:46Z</time>
</trkpt>
<trkpt lat="49.373081205412745" lon="9.15413855575025">
<ele>171</ele>
<time>2024-05-08T13:58:47Z</time>
</trkpt>
<trkpt lat="49.37314985319972" lon="9.154120367020369">
<ele>171</ele>
<time>2024-05-08T13:58:49Z</time>
</trkpt>
<trkpt lat="49.37321464531123" lon="9.154107039794326">
<ele>171.2</ele>
<time>2024-05-08T13:58:51Z</time>
</trkpt>
<trkpt lat="49.37324523925781" lon="9.15410041809082">
<ele>171.2</ele>
<time>2024-05-08T13:58:52Z</time>
</trkpt>
<trkpt lat="49.37331003136933" lon="9.154089856892824">
<ele>171.2</ele>
<time>2024-05-08T13:58:53Z</time>
</trkpt>
<trkpt lat="49.3733786791563" lon="9.154073679819705">
<ele>171.4</ele>
<time>2024-05-08T13:58:55Z</time>
</trkpt>
<trkpt lat="49.37341304495931" lon="9.154065130278468">
<ele>171.4</ele>
<time>2024-05-08T13:58:57Z</time>
</trkpt>
<trkpt lat="49.37344355508685" lon="9.1540564969182">
<ele>171.2</ele>
<time>2024-05-08T13:58:58Z</time>
</trkpt>
<trkpt lat="49.3734740652144" lon="9.154046941548586">
<ele>171.2</ele>
<time>2024-05-08T13:58:59Z</time>
</trkpt>
<trkpt lat="49.37353894114494" lon="9.154031686484814">
<ele>171.2</ele>
<time>2024-05-08T13:59:00Z</time>
</trkpt>
<trkpt lat="49.373573223128915" lon="9.154025064781308">
<ele>171.4</ele>
<time>2024-05-08T13:59:01Z</time>
</trkpt>
<trkpt lat="49.37360381707549" lon="9.154014587402344">
<ele>171.4</ele>
<time>2024-05-08T13:59:02Z</time>
</trkpt>
<trkpt lat="49.373630471527576" lon="9.154005032032728">
<ele>171.6</ele>
<time>2024-05-08T13:59:04Z</time>
</trkpt>
<trkpt lat="49.373653354123235" lon="9.153993548825383">
<ele>171.6</ele>
<time>2024-05-08T13:59:05Z</time>
</trkpt>
<trkpt lat="49.37371437437832" lon="9.153968738391995">
<ele>171.8</ele>
<time>2024-05-08T13:59:07Z</time>
</trkpt>
<trkpt lat="49.37374488450587" lon="9.15396018885076">
<ele>171.8</ele>
<time>2024-05-08T13:59:08Z</time>
</trkpt>
<trkpt lat="49.37377547845245" lon="9.153953483328223">
<ele>171.8</ele>
<time>2024-05-08T13:59:09Z</time>
</trkpt>
<trkpt lat="49.373847898095846" lon="9.153928756713867">
<ele>172</ele>
<time>2024-05-08T13:59:10Z</time>
</trkpt>
<trkpt lat="49.37388226389885" lon="9.153918195515873">
<ele>172</ele>
<time>2024-05-08T13:59:11Z</time>
</trkpt>
<trkpt lat="49.37391654588282" lon="9.153908723965287">
<ele>172</ele>
<time>2024-05-08T13:59:12Z</time>
</trkpt>
<trkpt lat="49.373950911685824" lon="9.15390009060502">
<ele>172.2</ele>
<time>2024-05-08T13:59:14Z</time>
</trkpt>
<trkpt lat="49.37398527748883" lon="9.153893468901517">
<ele>172.4</ele>
<time>2024-05-08T13:59:15Z</time>
</trkpt>
<trkpt lat="49.37402341514826" lon="9.153884835541248">
<ele>172.6</ele>
<time>2024-05-08T13:59:16Z</time>
</trkpt>
<trkpt lat="49.37409206293523" lon="9.153873436152937">
<ele>172.8</ele>
<time>2024-05-08T13:59:18Z</time>
</trkpt>
<trkpt lat="49.374130200594664" lon="9.153864802792668">
<ele>173</ele>
<time>2024-05-08T13:59:19Z</time>
</trkpt>
<trkpt lat="49.374206475913525" lon="9.153853403404357">
<ele>173.2</ele>
<time>2024-05-08T13:59:20Z</time>
</trkpt>
<trkpt lat="49.374244613572955" lon="9.153844770044088">
<ele>173.4</ele>
<time>2024-05-08T13:59:21Z</time>
</trkpt>
<trkpt lat="49.37428283505142" lon="9.153836220502852">
<ele>173.8</ele>
<time>2024-05-08T13:59:23Z</time>
</trkpt>
<trkpt lat="49.37431711703539" lon="9.153831442818046">
<ele>174</ele>
<time>2024-05-08T13:59:24Z</time>
</trkpt>
<trkpt lat="49.37439339235425" lon="9.153813337907197">
<ele>174.4</ele>
<time>2024-05-08T13:59:25Z</time>
</trkpt>
<trkpt lat="49.37443153001368" lon="9.153800010681152">
<ele>174.6</ele>
<time>2024-05-08T13:59:26Z</time>
</trkpt>
<trkpt lat="49.37451551668346" lon="9.153775200247765">
<ele>174.8</ele>
<time>2024-05-08T13:59:28Z</time>
</trkpt>
<trkpt lat="49.37455365434289" lon="9.15376178920269">
<ele>175</ele>
<time>2024-05-08T13:59:30Z</time>
</trkpt>
<trkpt lat="49.37459556385875" lon="9.153751311823726">
<ele>175</ele>
<time>2024-05-08T13:59:31Z</time>
</trkpt>
<trkpt lat="49.374679550528526" lon="9.153730357065797">
<ele>175.2</ele>
<time>2024-05-08T13:59:32Z</time>
</trkpt>
<trkpt lat="49.374721460044384" lon="9.153719879686832">
<ele>175.4</ele>
<time>2024-05-08T13:59:34Z</time>
</trkpt>
<trkpt lat="49.374801591038704" lon="9.153701774775982">
<ele>175.4</ele>
<time>2024-05-08T13:59:35Z</time>
</trkpt>
<trkpt lat="49.374839728698134" lon="9.153695069253445">
<ele>175.4</ele>
<time>2024-05-08T13:59:37Z</time>
</trkpt>
<trkpt lat="49.374881722033024" lon="9.153691213577986">
<ele>175.6</ele>
<time>2024-05-08T13:59:38Z</time>
</trkpt>
<trkpt lat="49.37492363154888" lon="9.153691213577986">
<ele>175.6</ele>
<time>2024-05-08T13:59:39Z</time>
</trkpt>
<trkpt lat="49.37496562488377" lon="9.153691213577986">
<ele>175.6</ele>
<time>2024-05-08T13:59:40Z</time>
</trkpt>
<trkpt lat="49.37504575587809" lon="9.153696997091174">
<ele>175.6</ele>
<time>2024-05-08T13:59:42Z</time>
</trkpt>
<trkpt lat="49.37512203119695" lon="9.153711246326566">
<ele>175.4</ele>
<time>2024-05-08T13:59:43Z</time>
</trkpt>
<trkpt lat="49.37516016885638" lon="9.153721807524562">
<ele>175.4</ele>
<time>2024-05-08T13:59:45Z</time>
</trkpt>
<trkpt lat="49.37519830651581" lon="9.153735134750605">
<ele>175.6</ele>
<time>2024-05-08T13:59:46Z</time>
</trkpt>
<trkpt lat="49.37523644417524" lon="9.15374469012022">
<ele>175.6</ele>
<time>2024-05-08T13:59:47Z</time>
</trkpt>
<trkpt lat="49.37531657516956" lon="9.153768494725227">
<ele>175.6</ele>
<time>2024-05-08T13:59:48Z</time>
</trkpt>
<trkpt lat="49.37539670616388" lon="9.153793305158615">
<ele>175.6</ele>
<time>2024-05-08T13:59:51Z</time>
</trkpt>
<trkpt lat="49.37546535395086" lon="9.153813337907197">
<ele>175.8</ele>
<time>2024-05-08T13:59:53Z</time>
</trkpt>
<trkpt lat="49.37549971975386" lon="9.15382289327681">
<ele>175.8</ele>
<time>2024-05-08T13:59:54Z</time>
</trkpt>
<trkpt lat="49.37555688433349" lon="9.15384292602539">
<ele>176</ele>
<time>2024-05-08T13:59:56Z</time>
</trkpt>
<trkpt lat="49.375610277056694" lon="9.153864802792668">
<ele>176.2</ele>
<time>2024-05-08T13:59:58Z</time>
</trkpt>
<trkpt lat="49.3756446428597" lon="9.153878130018713">
<ele>176.4</ele>
<time>2024-05-08T13:59:59Z</time>
</trkpt>
<trkpt lat="49.37571329064667" lon="9.153906796127558">
<ele>176.4</ele>
<time>2024-05-08T14:00:01Z</time>
</trkpt>
<trkpt lat="49.37577816657722" lon="9.153933450579643">
<ele>176.4</ele>
<time>2024-05-08T14:00:03Z</time>
</trkpt>
<trkpt lat="49.37582393176854" lon="9.153944933786988">
<ele>176.6</ele>
<time>2024-05-08T14:00:04Z</time>
</trkpt>
<trkpt lat="49.37589643523097" lon="9.153968738391995">
<ele>176.6</ele>
<time>2024-05-08T14:00:06Z</time>
</trkpt>
<trkpt lat="49.37593834474683" lon="9.15398114360869">
<ele>176.8</ele>
<time>2024-05-08T14:00:07Z</time>
</trkpt>
<trkpt lat="49.37598033808172" lon="9.153991620987654">
<ele>177</ele>
<time>2024-05-08T14:00:08Z</time>
</trkpt>
<trkpt lat="49.37602233141661" lon="9.15400117635727">
<ele>177.2</ele>
<time>2024-05-08T14:00:09Z</time>
</trkpt>
<trkpt lat="49.376106234267354" lon="9.15402313694358">
<ele>177.2</ele>
<time>2024-05-08T14:00:11Z</time>
</trkpt>
<trkpt lat="49.376144371926785" lon="9.154034536331892">
<ele>177.2</ele>
<time>2024-05-08T14:00:12Z</time>
</trkpt>
<trkpt lat="49.3761901371181" lon="9.154046941548586">
<ele>177.2</ele>
<time>2024-05-08T14:00:13Z</time>
</trkpt>
<trkpt lat="49.37622827477753" lon="9.154058424755933">
<ele>177.2</ele>
<time>2024-05-08T14:00:14Z</time>
</trkpt>
<trkpt lat="49.37631217762828" lon="9.154074601829052">
<ele>177.2</ele>
<time>2024-05-08T14:00:16Z</time>
</trkpt>
<trkpt lat="49.37638468109071" lon="9.154087007045746">
<ele>177.4</ele>
<time>2024-05-08T14:00:17Z</time>
</trkpt>
<trkpt lat="49.37642281875014" lon="9.15409849025309">
<ele>177.4</ele>
<time>2024-05-08T14:00:18Z</time>
</trkpt>
<trkpt lat="49.37645332887769" lon="9.154109889641404">
<ele>177.4</ele>
<time>2024-05-08T14:00:20Z</time>
</trkpt>
<trkpt lat="49.37651057727635" lon="9.154131850227714">
<ele>177.6</ele>
<time>2024-05-08T14:00:21Z</time>
</trkpt>
<trkpt lat="49.376537315547466" lon="9.154134700074792">
<ele>177.8</ele>
<time>2024-05-08T14:00:22Z</time>
</trkpt>
<trkpt lat="49.37656396999955" lon="9.154134700074792">
<ele>177.8</ele>
<time>2024-05-08T14:00:24Z</time>
</trkpt>
<trkpt lat="49.37661359086633" lon="9.15414140559733">
<ele>178.2</ele>
<time>2024-05-08T14:00:26Z</time>
</trkpt>
<trkpt lat="49.376678466796875" lon="9.154163282364609">
<ele>178.4</ele>
<time>2024-05-08T14:00:27Z</time>
</trkpt>
<trkpt lat="49.376716604456306" lon="9.154181471094487">
<ele>178.8</ele>
<time>2024-05-08T14:00:29Z</time>
</trkpt>
<trkpt lat="49.37676236964762" lon="9.154192870482802">
<ele>179</ele>
<time>2024-05-08T14:00:30Z</time>
</trkpt>
<trkpt lat="49.37685012817383" lon="9.154210053384304">
<ele>179</ele>
<time>2024-05-08T14:00:32Z</time>
</trkpt>
<trkpt lat="49.37693017534912" lon="9.15421860292554">
<ele>179.2</ele>
<time>2024-05-08T14:00:34Z</time>
</trkpt>
<trkpt lat="49.37700645066798" lon="9.154221452772616">
<ele>179.4</ele>
<time>2024-05-08T14:00:35Z</time>
</trkpt>
<trkpt lat="49.377052299678326" lon="9.154225308448076">
<ele>179.4</ele>
<time>2024-05-08T14:00:37Z</time>
</trkpt>
<trkpt lat="49.37709043733776" lon="9.154223380610349">
<ele>179.6</ele>
<time>2024-05-08T14:00:38Z</time>
</trkpt>
<trkpt lat="49.3771399743855" lon="9.154225308448076">
<ele>179.8</ele>
<time>2024-05-08T14:00:39Z</time>
</trkpt>
<trkpt lat="49.377227732911706" lon="9.154208125546576">
<ele>179.8</ele>
<time>2024-05-08T14:00:40Z</time>
</trkpt>
<trkpt lat="49.37731163576245" lon="9.15419857017696">
<ele>180.2</ele>
<time>2024-05-08T14:00:43Z</time>
</trkpt>
<trkpt lat="49.377346001565456" lon="9.154194798320532">
<ele>180.4</ele>
<time>2024-05-08T14:00:44Z</time>
</trkpt>
<trkpt lat="49.37738036736846" lon="9.154186248779297">
<ele>180.4</ele>
<time>2024-05-08T14:00:45Z</time>
</trkpt>
<trkpt lat="49.37745278701186" lon="9.154166216030715">
<ele>180.6</ele>
<time>2024-05-08T14:00:47Z</time>
</trkpt>
<trkpt lat="49.377487152814865" lon="9.1541566606611">
<ele>180.8</ele>
<time>2024-05-08T14:00:48Z</time>
</trkpt>
<trkpt lat="49.37752143479884" lon="9.154140399768949">
<ele>181</ele>
<time>2024-05-08T14:00:49Z</time>
</trkpt>
<trkpt lat="49.37759779393673" lon="9.15409849025309">
<ele>181.2</ele>
<time>2024-05-08T14:00:51Z</time>
</trkpt>
<trkpt lat="49.3776320759207" lon="9.15408130735159">
<ele>181.2</ele>
<time>2024-05-08T14:00:52Z</time>
</trkpt>
<trkpt lat="49.37769309617579" lon="9.15404031984508">
<ele>181.4</ele>
<time>2024-05-08T14:00:53Z</time>
</trkpt>
<trkpt lat="49.37773131765425" lon="9.15401643142104">
<ele>181.6</ele>
<time>2024-05-08T14:00:55Z</time>
</trkpt>
<trkpt lat="49.37780759297311" lon="9.153973516076803">
<ele>181.6</ele>
<time>2024-05-08T14:00:56Z</time>
</trkpt>
<trkpt lat="49.377845730632544" lon="9.153944933786988">
<ele>181.8</ele>
<time>2024-05-08T14:00:57Z</time>
</trkpt>
<trkpt lat="49.37789535149932" lon="9.153916351497172">
<ele>182</ele>
<time>2024-05-08T14:00:59Z</time>
</trkpt>
<trkpt lat="49.378002136945724" lon="9.153869580477476">
<ele>182.2</ele>
<time>2024-05-08T14:01:01Z</time>
</trkpt>
<trkpt lat="49.3780517578125" lon="9.15384292602539">
<ele>182.6</ele>
<time>2024-05-08T14:01:02Z</time>
</trkpt>
<trkpt lat="49.3781051505357" lon="9.153809482231736">
<ele>182.8</ele>
<time>2024-05-08T14:01:03Z</time>
</trkpt>
<trkpt lat="49.37815091572702" lon="9.153777044266462">
<ele>183</ele>
<time>2024-05-08T14:01:04Z</time>
</trkpt>
<trkpt lat="49.37823104672134" lon="9.153711246326566">
<ele>183.2</ele>
<time>2024-05-08T14:01:06Z</time>
</trkpt>
<trkpt lat="49.37826918438077" lon="9.15368459187448">
<ele>183.4</ele>
<time>2024-05-08T14:01:07Z</time>
</trkpt>
<trkpt lat="49.37830346636474" lon="9.153659781441092">
<ele>183.4</ele>
<time>2024-05-08T14:01:08Z</time>
</trkpt>
<trkpt lat="49.37834160402417" lon="9.153636898845434">
<ele>183.6</ele>
<time>2024-05-08T14:01:09Z</time>
</trkpt>
<trkpt lat="49.37842173501849" lon="9.153576800599694">
<ele>183.8</ele>
<time>2024-05-08T14:01:11Z</time>
</trkpt>
<trkpt lat="49.37849038280547" lon="9.153516702353954">
<ele>184</ele>
<time>2024-05-08T14:01:13Z</time>
</trkpt>
<trkpt lat="49.37852474860847" lon="9.15348619222641">
<ele>184.2</ele>
<time>2024-05-08T14:01:14Z</time>
</trkpt>
<trkpt lat="49.378593396395445" lon="9.153421400114894">
<ele>184.4</ele>
<time>2024-05-08T14:01:15Z</time>
</trkpt>
<trkpt lat="49.37862776219845" lon="9.153389884158967">
<ele>184.6</ele>
<time>2024-05-08T14:01:17Z</time>
</trkpt>
<trkpt lat="49.37866589985788" lon="9.153361301869154">
<ele>185</ele>
<time>2024-05-08T14:01:18Z</time>
</trkpt>
<trkpt lat="49.37870403751731" lon="9.153333641588688">
<ele>185.4</ele>
<time>2024-05-08T14:01:19Z</time>
</trkpt>
<trkpt lat="49.37877654097974" lon="9.153263065963984">
<ele>185.6</ele>
<time>2024-05-08T14:01:21Z</time>
</trkpt>
<trkpt lat="49.378810822963715" lon="9.15323155000806">
<ele>185.6</ele>
<time>2024-05-08T14:01:22Z</time>
</trkpt>
<trkpt lat="49.37884133309126" lon="9.153198190033436">
<ele>185.8</ele>
<time>2024-05-08T14:01:23Z</time>
</trkpt>
<trkpt lat="49.3788718432188" lon="9.15316960774362">
<ele>186</ele>
<time>2024-05-08T14:01:24Z</time>
</trkpt>
<trkpt lat="49.37893294729293" lon="9.153106659650804">
<ele>186.2</ele>
<time>2024-05-08T14:01:26Z</time>
</trkpt>
<trkpt lat="49.37896345742047" lon="9.153075143694878">
<ele>186.2</ele>
<time>2024-05-08T14:01:27Z</time>
</trkpt>
<trkpt lat="49.37899396754801" lon="9.153044633567331">
<ele>186.2</ele>
<time>2024-05-08T14:01:28Z</time>
</trkpt>
<trkpt lat="49.379028249531984" lon="9.153017979115248">
<ele>186.2</ele>
<time>2024-05-08T14:01:29Z</time>
</trkpt>
<trkpt lat="49.37910460866988" lon="9.152966430410745">
<ele>186.4</ele>
<time>2024-05-08T14:01:31Z</time>
</trkpt>
<trkpt lat="49.37914274632931" lon="9.152937848120928">
<ele>186.4</ele>
<time>2024-05-08T14:01:32Z</time>
</trkpt>
<trkpt lat="49.37917702831328" lon="9.152912115678191">
<ele>186.6</ele>
<time>2024-05-08T14:01:33Z</time>
</trkpt>
<trkpt lat="49.37921516597271" lon="9.152885377407074">
<ele>186.6</ele>
<time>2024-05-08T14:01:34Z</time>
</trkpt>
<trkpt lat="49.3792915251106" lon="9.15283290669322">
<ele>186.6</ele>
<time>2024-05-08T14:01:36Z</time>
</trkpt>
<trkpt lat="49.37936017289758" lon="9.152789991348982">
<ele>186.8</ele>
<time>2024-05-08T14:01:38Z</time>
</trkpt>
<trkpt lat="49.37939445488155" lon="9.152772892266512">
<ele>187</ele>
<time>2024-05-08T14:01:39Z</time>
</trkpt>
<trkpt lat="49.37947844155133" lon="9.15273475460708">
<ele>187.2</ele>
<time>2024-05-08T14:01:41Z</time>
</trkpt>
<trkpt lat="49.37951657921076" lon="9.1527165658772">
<ele>187.2</ele>
<time>2024-05-08T14:01:42Z</time>
</trkpt>
<trkpt lat="49.37955086119473" lon="9.152701310813429">
<ele>187.4</ele>
<time>2024-05-08T14:01:43Z</time>
</trkpt>
<trkpt lat="49.379581371322274" lon="9.152689911425114">
<ele>187.4</ele>
<time>2024-05-08T14:01:44Z</time>
</trkpt>
<trkpt lat="49.379661502316594" lon="9.152649845927954">
<ele>187.4</ele>
<time>2024-05-08T14:01:45Z</time>
</trkpt>
<trkpt lat="49.3796958681196" lon="9.152629813179374">
<ele>187.6</ele>
<time>2024-05-08T14:01:47Z</time>
</trkpt>
<trkpt lat="49.379741633310914" lon="9.152605002745986">
<ele>187.6</ele>
<time>2024-05-08T14:01:48Z</time>
</trkpt>
<trkpt lat="49.379779770970345" lon="9.152583042159677">
<ele>187.8</ele>
<time>2024-05-08T14:01:49Z</time>
</trkpt>
<trkpt lat="49.37986367382109" lon="9.152540126815438">
<ele>187.8</ele>
<time>2024-05-08T14:01:51Z</time>
</trkpt>
<trkpt lat="49.37990943901241" lon="9.15251825004816">
<ele>187.8</ele>
<time>2024-05-08T14:01:52Z</time>
</trkpt>
<trkpt lat="49.37999342568219" lon="9.152468629181383">
<ele>188.2</ele>
<time>2024-05-08T14:01:53Z</time>
</trkpt>
<trkpt lat="49.3800582177937" lon="9.15241808630526">
<ele>188.4</ele>
<time>2024-05-08T14:01:56Z</time>
</trkpt>
<trkpt lat="49.380092583596706" lon="9.152388498187063">
<ele>188.6</ele>
<time>2024-05-08T14:01:57Z</time>
</trkpt>
<trkpt lat="49.38016508705914" lon="9.152328483760355">
<ele>189</ele>
<time>2024-05-08T14:01:59Z</time>
</trkpt>
<trkpt lat="49.38022610731423" lon="9.152255058288574">
<ele>189.4</ele>
<time>2024-05-08T14:02:01Z</time>
</trkpt>
<trkpt lat="49.38025661744177" lon="9.152219770476222">
<ele>189.6</ele>
<time>2024-05-08T14:02:02Z</time>
</trkpt>
<trkpt lat="49.38032149337232" lon="9.152156822383404">
<ele>189.8</ele>
<time>2024-05-08T14:02:03Z</time>
</trkpt>
<trkpt lat="49.38040154054761" lon="9.152094796299934">
<ele>190</ele>
<time>2024-05-08T14:02:06Z</time>
</trkpt>
<trkpt lat="49.38047404401004" lon="9.152018520981072">
<ele>190.2</ele>
<time>2024-05-08T14:02:08Z</time>
</trkpt>
<trkpt lat="49.38050455413759" lon="9.151980383321645">
<ele>190.4</ele>
<time>2024-05-08T14:02:09Z</time>
</trkpt>
<trkpt lat="49.38057320192456" lon="9.151907879859207">
<ele>190.6</ele>
<time>2024-05-08T14:02:11Z</time>
</trkpt>
<trkpt lat="49.38063807785511" lon="9.15182967670262">
<ele>190.8</ele>
<time>2024-05-08T14:02:13Z</time>
</trkpt>
<trkpt lat="49.380668587982655" lon="9.151795310899615">
<ele>191</ele>
<time>2024-05-08T14:02:14Z</time>
</trkpt>
<trkpt lat="49.38073723576963" lon="9.151733368635178">
<ele>191.2</ele>
<time>2024-05-08T14:02:16Z</time>
</trkpt>
<trkpt lat="49.380767745897174" lon="9.151700008660557">
<ele>191.4</ele>
<time>2024-05-08T14:02:17Z</time>
</trkpt>
<trkpt lat="49.38083647750318" lon="9.15162842720747">
<ele>191.6</ele>
<time>2024-05-08T14:02:19Z</time>
</trkpt>
<trkpt lat="49.38091275282204" lon="9.151557851582766">
<ele>191.8</ele>
<time>2024-05-08T14:02:21Z</time>
</trkpt>
<trkpt lat="49.38095089048147" lon="9.151521641761065">
<ele>192</ele>
<time>2024-05-08T14:02:22Z</time>
</trkpt>
<trkpt lat="49.3809890281409" lon="9.151485431939363">
<ele>192.2</ele>
<time>2024-05-08T14:02:23Z</time>
</trkpt>
<trkpt lat="49.38102716580033" lon="9.151451988145707">
<ele>192.4</ele>
<time>2024-05-08T14:02:24Z</time>
</trkpt>
<trkpt lat="49.381061531603336" lon="9.151418628171086">
<ele>192.6</ele>
<time>2024-05-08T14:02:25Z</time>
</trkpt>
<trkpt lat="49.381141662597656" lon="9.151348052546382">
<ele>192.6</ele>
<time>2024-05-08T14:02:27Z</time>
</trkpt>
<trkpt lat="49.38117980025709" lon="9.151316620409489">
<ele>192.8</ele>
<time>2024-05-08T14:02:28Z</time>
</trkpt>
<trkpt lat="49.38121408224106" lon="9.151281332597136">
<ele>193</ele>
<time>2024-05-08T14:02:29Z</time>
</trkpt>
<trkpt lat="49.38128658570349" lon="9.151218384504318">
<ele>193.2</ele>
<time>2024-05-08T14:02:30Z</time>
</trkpt>
<trkpt lat="49.38132472336292" lon="9.1511916462332">
<ele>193.4</ele>
<time>2024-05-08T14:02:32Z</time>
</trkpt>
<trkpt lat="49.38136671669781" lon="9.151164991781116">
<ele>193.4</ele>
<time>2024-05-08T14:02:33Z</time>
</trkpt>
<trkpt lat="49.38140862621367" lon="9.151138253509998">
<ele>193.6</ele>
<time>2024-05-08T14:02:34Z</time>
</trkpt>
<trkpt lat="49.3814467638731" lon="9.151109671220183">
<ele>193.8</ele>
<time>2024-05-08T14:02:35Z</time>
</trkpt>
<trkpt lat="49.38152312301099" lon="9.151051500812171">
<ele>193.8</ele>
<time>2024-05-08T14:02:36Z</time>
</trkpt>
<trkpt lat="49.381557404994965" lon="9.151021912693976">
<ele>193.8</ele>
<time>2024-05-08T14:02:37Z</time>
</trkpt>
<trkpt lat="49.38159177079797" lon="9.150989474728703">
<ele>194</ele>
<time>2024-05-08T14:02:39Z</time>
</trkpt>
<trkpt lat="49.38166041858494" lon="9.150926526635883">
<ele>194</ele>
<time>2024-05-08T14:02:40Z</time>
</trkpt>
<trkpt lat="49.38169855624437" lon="9.150901716202496">
<ele>194</ele>
<time>2024-05-08T14:02:42Z</time>
</trkpt>
<trkpt lat="49.38179008662701" lon="9.15085787884891">
<ele>194.2</ele>
<time>2024-05-08T14:02:44Z</time>
</trkpt>
<trkpt lat="49.38186259008944" lon="9.15081974118948">
<ele>194.4</ele>
<time>2024-05-08T14:02:46Z</time>
</trkpt>
<trkpt lat="49.381935093551874" lon="9.150772970169784">
<ele>194.8</ele>
<time>2024-05-08T14:02:48Z</time>
</trkpt>
<trkpt lat="49.381973231211305" lon="9.150750087574124">
<ele>194.8</ele>
<time>2024-05-08T14:02:49Z</time>
</trkpt>
<trkpt lat="49.382015224546194" lon="9.150731982663274">
<ele>194.8</ele>
<time>2024-05-08T14:02:50Z</time>
</trkpt>
<trkpt lat="49.3820876441896" lon="9.150690073147416">
<ele>194.8</ele>
<time>2024-05-08T14:02:52Z</time>
</trkpt>
<trkpt lat="49.382129637524486" lon="9.150668112561108">
<ele>195</ele>
<time>2024-05-08T14:02:53Z</time>
</trkpt>
<trkpt lat="49.382171630859375" lon="9.150645229965448">
<ele>195</ele>
<time>2024-05-08T14:02:54Z</time>
</trkpt>
<trkpt lat="49.38224405050278" lon="9.15060038678348">
<ele>195.2</ele>
<time>2024-05-08T14:02:56Z</time>
</trkpt>
<trkpt lat="49.38228218816221" lon="9.150578426197171">
<ele>195.4</ele>
<time>2024-05-08T14:02:57Z</time>
</trkpt>
<trkpt lat="49.38231655396521" lon="9.150565098971128">
<ele>195.4</ele>
<time>2024-05-08T14:02:58Z</time>
</trkpt>
<trkpt lat="49.38236231915653" lon="9.150545066222548">
<ele>195.4</ele>
<time>2024-05-08T14:02:59Z</time>
</trkpt>
<trkpt lat="49.38243859447539" lon="9.150505000725389">
<ele>195.6</ele>
<time>2024-05-08T14:03:00Z</time>
</trkpt>
<trkpt lat="49.382484359666705" lon="9.15048312395811">
<ele>195.6</ele>
<time>2024-05-08T14:03:01Z</time>
</trkpt>
<trkpt lat="49.38255686312914" lon="9.150444902479649">
<ele>195.8</ele>
<time>2024-05-08T14:03:04Z</time>
</trkpt>
<trkpt lat="49.38263699412346" lon="9.150408692657948">
<ele>196</ele>
<time>2024-05-08T14:03:05Z</time>
</trkpt>
<trkpt lat="49.38267513178289" lon="9.150393437594175">
<ele>196.2</ele>
<time>2024-05-08T14:03:07Z</time>
</trkpt>
<trkpt lat="49.38274763524532" lon="9.150373404845595">
<ele>196.6</ele>
<time>2024-05-08T14:03:09Z</time>
</trkpt>
<trkpt lat="49.382823910564184" lon="9.150335267186165">
<ele>196.8</ele>
<time>2024-05-08T14:03:11Z</time>
</trkpt>
<trkpt lat="49.382862048223615" lon="9.150318084284663">
<ele>197</ele>
<time>2024-05-08T14:03:12Z</time>
</trkpt>
<trkpt lat="49.3829230684787" lon="9.150298051536083">
<ele>197.2</ele>
<time>2024-05-08T14:03:13Z</time>
</trkpt>
<trkpt lat="49.38298794440925" lon="9.150275168940423">
<ele>197.4</ele>
<time>2024-05-08T14:03:16Z</time>
</trkpt>
<trkpt lat="49.38302993774414" lon="9.150261841714382">
<ele>197.8</ele>
<time>2024-05-08T14:03:17Z</time>
</trkpt>
<trkpt lat="49.38307570293546" lon="9.150250358507035">
<ele>198</ele>
<time>2024-05-08T14:03:18Z</time>
</trkpt>
<trkpt lat="49.383121468126774" lon="9.150241808965802">
<ele>198.2</ele>
<time>2024-05-08T14:03:19Z</time>
</trkpt>
<trkpt lat="49.38320537097752" lon="9.150223704054952">
<ele>198.2</ele>
<time>2024-05-08T14:03:21Z</time>
</trkpt>
<trkpt lat="49.38325113616884" lon="9.150203671306372">
<ele>198.4</ele>
<time>2024-05-08T14:03:22Z</time>
</trkpt>
<trkpt lat="49.38329312950373" lon="9.150181710720062">
<ele>198.6</ele>
<time>2024-05-08T14:03:23Z</time>
</trkpt>
<trkpt lat="49.383335039019585" lon="9.15016452781856">
<ele>198.6</ele>
<time>2024-05-08T14:03:24Z</time>
</trkpt>
<trkpt lat="49.38342279754579" lon="9.15014449506998">
<ele>198.8</ele>
<time>2024-05-08T14:03:26Z</time>
</trkpt>
<trkpt lat="49.38350670039654" lon="9.150121612474322">
<ele>199</ele>
<time>2024-05-08T14:03:28Z</time>
</trkpt>
<trkpt lat="49.38354869373143" lon="9.150113062933087">
<ele>199.2</ele>
<time>2024-05-08T14:03:29Z</time>
</trkpt>
<trkpt lat="49.38362496905029" lon="9.1500882524997">
<ele>199.4</ele>
<time>2024-05-08T14:03:30Z</time>
</trkpt>
<trkpt lat="49.38365547917783" lon="9.15008540265262">
<ele>199.6</ele>
<time>2024-05-08T14:03:32Z</time>
</trkpt>
<trkpt lat="49.38368598930538" lon="9.15008632466197">
<ele>199.8</ele>
<time>2024-05-08T14:03:33Z</time>
</trkpt>
<trkpt lat="49.383727982640266" lon="9.15008632466197">
<ele>200</ele>
<time>2024-05-08T14:03:34Z</time>
</trkpt>
<trkpt lat="49.383827140554786" lon="9.150078697130084">
<ele>200.2</ele>
<time>2024-05-08T14:03:36Z</time>
</trkpt>
<trkpt lat="49.3838729057461" lon="9.150081630796194">
<ele>200.4</ele>
<time>2024-05-08T14:03:37Z</time>
</trkpt>
<trkpt lat="49.38391489908099" lon="9.15009210817516">
<ele>200.6</ele>
<time>2024-05-08T14:03:38Z</time>
</trkpt>
<trkpt lat="49.38395303674042" lon="9.150103507563472">
<ele>200.8</ele>
<time>2024-05-08T14:03:39Z</time>
</trkpt>
<trkpt lat="49.384048422798514" lon="9.150116918608546">
<ele>201</ele>
<time>2024-05-08T14:03:41Z</time>
</trkpt>
<trkpt lat="49.384124698117375" lon="9.150110213086007">
<ele>201.2</ele>
<time>2024-05-08T14:03:43Z</time>
</trkpt>
<trkpt lat="49.38415520824492" lon="9.150119768455625">
<ele>201.4</ele>
<time>2024-05-08T14:03:44Z</time>
</trkpt>
<trkpt lat="49.38421245664358" lon="9.150151200592518">
<ele>201.4</ele>
<time>2024-05-08T14:03:46Z</time>
</trkpt>
<trkpt lat="49.38425059430301" lon="9.15016452781856">
<ele>201.6</ele>
<time>2024-05-08T14:03:47Z</time>
</trkpt>
<trkpt lat="49.38428873196244" lon="9.150177938863637">
<ele>201.6</ele>
<time>2024-05-08T14:03:48Z</time>
</trkpt>
<trkpt lat="49.38432686962187" lon="9.1501884162426">
<ele>201.8</ele>
<time>2024-05-08T14:03:49Z</time>
</trkpt>
<trkpt lat="49.38439174555242" lon="9.150219848379493">
<ele>202</ele>
<time>2024-05-08T14:03:51Z</time>
</trkpt>
<trkpt lat="49.38442988321185" lon="9.150231331586838">
<ele>202</ele>
<time>2024-05-08T14:03:52Z</time>
</trkpt>
<trkpt lat="49.38450615853071" lon="9.150251364335418">
<ele>202.2</ele>
<time>2024-05-08T14:03:54Z</time>
</trkpt>
<trkpt lat="49.38455577939749" lon="9.150255136191843">
<ele>202.4</ele>
<time>2024-05-08T14:03:55Z</time>
</trkpt>
<trkpt lat="49.384582517668605" lon="9.150257986038923">
<ele>202.4</ele>
<time>2024-05-08T14:03:56Z</time>
</trkpt>
<trkpt lat="49.38462442718446" lon="9.150257986038923">
<ele>202.6</ele>
<time>2024-05-08T14:03:57Z</time>
</trkpt>
<trkpt lat="49.384719813242555" lon="9.150253292173147">
<ele>202.8</ele>
<time>2024-05-08T14:03:58Z</time>
</trkpt>
<trkpt lat="49.38481134362519" lon="9.150230325758455">
<ele>203</ele>
<time>2024-05-08T14:04:00Z</time>
</trkpt>
<trkpt lat="49.38490672968328" lon="9.150210376828907">
<ele>203.2</ele>
<time>2024-05-08T14:04:03Z</time>
</trkpt>
<trkpt lat="49.38496774993837" lon="9.150199815630913">
<ele>203.4</ele>
<time>2024-05-08T14:04:04Z</time>
</trkpt>
<trkpt lat="49.385074535384774" lon="9.150170311331747">
<ele>203.6</ele>
<time>2024-05-08T14:04:06Z</time>
</trkpt>
<trkpt lat="49.38517754897475" lon="9.150139801204205">
<ele>204</ele>
<time>2024-05-08T14:04:08Z</time>
</trkpt>
<trkpt lat="49.38522331416607" lon="9.150116918608546">
<ele>204.2</ele>
<time>2024-05-08T14:04:09Z</time>
</trkpt>
<trkpt lat="49.385272935032845" lon="9.150093030184507">
<ele>204.4</ele>
<time>2024-05-08T14:04:10Z</time>
</trkpt>
<trkpt lat="49.385314928367734" lon="9.150063442066312">
<ele>204.4</ele>
<time>2024-05-08T14:04:11Z</time>
</trkpt>
<trkpt lat="49.38540645875037" lon="9.150012899190187">
<ele>204.4</ele>
<time>2024-05-08T14:04:13Z</time>
</trkpt>
<trkpt lat="49.3854445964098" lon="9.149986244738102">
<ele>204.6</ele>
<time>2024-05-08T14:04:14Z</time>
</trkpt>
<trkpt lat="49.38552472740412" lon="9.149934696033595">
<ele>204.6</ele>
<time>2024-05-08T14:04:16Z</time>
</trkpt>
<trkpt lat="49.38559714704752" lon="9.149880381301044">
<ele>205</ele>
<time>2024-05-08T14:04:18Z</time>
</trkpt>
<trkpt lat="49.38563914038241" lon="9.149856492877008">
<ele>205</ele>
<time>2024-05-08T14:04:19Z</time>
</trkpt>
<trkpt lat="49.38567350618541" lon="9.149827910587192">
<ele>205.2</ele>
<time>2024-05-08T14:04:20Z</time>
</trkpt>
<trkpt lat="49.38573829829693" lon="9.14976974017918">
<ele>205.2</ele>
<time>2024-05-08T14:04:22Z</time>
</trkpt>
<trkpt lat="49.38579554669559" lon="9.149723052978516">
<ele>205.4</ele>
<time>2024-05-08T14:04:24Z</time>
</trkpt>
<trkpt lat="49.38587182201445" lon="9.149681981652977">
<ele>205.4</ele>
<time>2024-05-08T14:04:25Z</time>
</trkpt>
<trkpt lat="49.38589470461011" lon="9.149658177047968">
<ele>205.6</ele>
<time>2024-05-08T14:04:26Z</time>
</trkpt>
<trkpt lat="49.38595958054066" lon="9.149624817073343">
<ele>205.8</ele>
<time>2024-05-08T14:04:29Z</time>
</trkpt>
<trkpt lat="49.38603208400309" lon="9.14959330111742">
<ele>205.8</ele>
<time>2024-05-08T14:04:31Z</time>
</trkpt>
<trkpt lat="49.386062594130635" lon="9.14957326836884">
<ele>206</ele>
<time>2024-05-08T14:04:32Z</time>
</trkpt>
<trkpt lat="49.386100731790066" lon="9.149558013305068">
<ele>206</ele>
<time>2024-05-08T14:04:33Z</time>
</trkpt>
<trkpt lat="49.38613509759307" lon="9.149543680250645">
<ele>206</ele>
<time>2024-05-08T14:04:34Z</time>
</trkpt>
<trkpt lat="49.38618849031627" lon="9.149519875645638">
<ele>206.2</ele>
<time>2024-05-08T14:04:36Z</time>
</trkpt>
<trkpt lat="49.386241883039474" lon="9.149501770734789">
<ele>206.4</ele>
<time>2024-05-08T14:04:38Z</time>
</trkpt>
<trkpt lat="49.38626853749156" lon="9.14949506521225">
<ele>206.4</ele>
<time>2024-05-08T14:04:39Z</time>
</trkpt>
<trkpt lat="49.38632964156568" lon="9.1494769603014">
<ele>206.6</ele>
<time>2024-05-08T14:04:41Z</time>
</trkpt>
<trkpt lat="49.38639066182077" lon="9.149461705237629">
<ele>206.6</ele>
<time>2024-05-08T14:04:42Z</time>
</trkpt>
<trkpt lat="49.38642494380474" lon="9.149453155696392">
<ele>206.8</ele>
<time>2024-05-08T14:04:44Z</time>
</trkpt>
<trkpt lat="49.386455453932285" lon="9.149444522336124">
<ele>206.8</ele>
<time>2024-05-08T14:04:45Z</time>
</trkpt>
<trkpt lat="49.38651270233095" lon="9.149430273100734">
<ele>207</ele>
<time>2024-05-08T14:04:46Z</time>
</trkpt>
<trkpt lat="49.38654321245849" lon="9.149419711902738">
<ele>207.2</ele>
<time>2024-05-08T14:04:47Z</time>
</trkpt>
<trkpt lat="49.38657372258603" lon="9.149411162361504">
<ele>207.2</ele>
<time>2024-05-08T14:04:48Z</time>
</trkpt>
<trkpt lat="49.38660046085715" lon="9.149401606991889">
<ele>207.2</ele>
<time>2024-05-08T14:04:50Z</time>
</trkpt>
<trkpt lat="49.38662711530924" lon="9.149394985288382">
<ele>207.4</ele>
<time>2024-05-08T14:04:51Z</time>
</trkpt>
<trkpt lat="49.38665008172393" lon="9.149386351928117">
<ele>207.4</ele>
<time>2024-05-08T14:04:52Z</time>
</trkpt>
<trkpt lat="49.38670347444713" lon="9.149373024702072">
<ele>207.4</ele>
<time>2024-05-08T14:04:53Z</time>
</trkpt>
<trkpt lat="49.38674923963845" lon="9.149366319179537">
<ele>207.4</ele>
<time>2024-05-08T14:04:56Z</time>
</trkpt>
<trkpt lat="49.38680263236165" lon="9.149352069944143">
<ele>207.4</ele>
<time>2024-05-08T14:04:58Z</time>
</trkpt>
<trkpt lat="49.38682551495731" lon="9.149346286430957">
<ele>207.6</ele>
<time>2024-05-08T14:04:59Z</time>
</trkpt>
<trkpt lat="49.386871280148625" lon="9.149343436583877">
<ele>207.6</ele>
<time>2024-05-08T14:05:00Z</time>
</trkpt>
<trkpt lat="49.38692467287183" lon="9.149332037195563">
<ele>207.8</ele>
<time>2024-05-08T14:05:02Z</time>
</trkpt>
<trkpt lat="49.386951411142945" lon="9.149326253682377">
<ele>208</ele>
<time>2024-05-08T14:05:04Z</time>
</trkpt>
<trkpt lat="49.38700103200972" lon="9.14931963197887">
<ele>208</ele>
<time>2024-05-08T14:05:06Z</time>
</trkpt>
<trkpt lat="49.387027686461806" lon="9.149314854294062">
<ele>208.2</ele>
<time>2024-05-08T14:05:07Z</time>
</trkpt>
<trkpt lat="49.38707345165312" lon="9.149298593401909">
<ele>208.2</ele>
<time>2024-05-08T14:05:08Z</time>
</trkpt>
<trkpt lat="49.38709633424878" lon="9.149296749383211">
<ele>208.4</ele>
<time>2024-05-08T14:05:10Z</time>
</trkpt>
<trkpt lat="49.38711921684444" lon="9.149292893707752">
<ele>208.4</ele>
<time>2024-05-08T14:05:11Z</time>
</trkpt>
<trkpt lat="49.38716121017933" lon="9.14928149431944">
<ele>208.6</ele>
<time>2024-05-08T14:05:12Z</time>
</trkpt>
<trkpt lat="49.38718032091856" lon="9.149272860959172">
<ele>208.6</ele>
<time>2024-05-08T14:05:14Z</time>
</trkpt>
<trkpt lat="49.387229857966304" lon="9.14925953373313">
<ele>208.8</ele>
<time>2024-05-08T14:05:16Z</time>
</trkpt>
<trkpt lat="49.38725274056196" lon="9.14925953373313">
<ele>209</ele>
<time>2024-05-08T14:05:17Z</time>
</trkpt>
<trkpt lat="49.38729850575328" lon="9.14926146157086">
<ele>209.2</ele>
<time>2024-05-08T14:05:19Z</time>
</trkpt>
<trkpt lat="49.38735575415194" lon="9.149252828210592">
<ele>209.4</ele>
<time>2024-05-08T14:05:20Z</time>
</trkpt>
<trkpt lat="49.38741677440703" lon="9.149248050525784">
<ele>209.6</ele>
<time>2024-05-08T14:05:22Z</time>
</trkpt>
<trkpt lat="49.38743965700269" lon="9.149249978363514">
<ele>209.6</ele>
<time>2024-05-08T14:05:24Z</time>
</trkpt>
<trkpt lat="49.387485422194" lon="9.149252828210592">
<ele>209.8</ele>
<time>2024-05-08T14:05:25Z</time>
</trkpt>
<trkpt lat="49.387508388608694" lon="9.149256683886051">
<ele>209.8</ele>
<time>2024-05-08T14:05:27Z</time>
</trkpt>
<trkpt lat="49.38753504306078" lon="9.14925953373313">
<ele>210</ele>
<time>2024-05-08T14:05:28Z</time>
</trkpt>
<trkpt lat="49.38757318072021" lon="9.14926146157086">
<ele>210.2</ele>
<time>2024-05-08T14:05:29Z</time>
</trkpt>
<trkpt lat="49.387622801586986" lon="9.149270011112094">
<ele>210.4</ele>
<time>2024-05-08T14:05:31Z</time>
</trkpt>
<trkpt lat="49.38763805665076" lon="9.149276716634631">
<ele>210.4</ele>
<time>2024-05-08T14:05:32Z</time>
</trkpt>
<trkpt lat="49.387664794921875" lon="9.14928149431944">
<ele>210.6</ele>
<time>2024-05-08T14:05:33Z</time>
</trkpt>
<trkpt lat="49.387702932581306" lon="9.149288116022944">
<ele>210.6</ele>
<time>2024-05-08T14:05:34Z</time>
</trkpt>
<trkpt lat="49.38772958703339" lon="9.149292893707752">
<ele>210.8</ele>
<time>2024-05-08T14:05:35Z</time>
</trkpt>
<trkpt lat="49.387760097160935" lon="9.149296749383211">
<ele>211</ele>
<time>2024-05-08T14:05:36Z</time>
</trkpt>
<trkpt lat="49.38782497309148" lon="9.149305298924446">
<ele>211.2</ele>
<time>2024-05-08T14:05:38Z</time>
</trkpt>
<trkpt lat="49.3878517113626" lon="9.149312004446983">
<ele>211.4</ele>
<time>2024-05-08T14:05:39Z</time>
</trkpt>
<trkpt lat="49.387924131006" lon="9.149318626150489">
<ele>211.6</ele>
<time>2024-05-08T14:05:41Z</time>
</trkpt>
<trkpt lat="49.387958496809006" lon="9.149316782131791">
<ele>211.8</ele>
<time>2024-05-08T14:05:42Z</time>
</trkpt>
<trkpt lat="49.388019517064095" lon="9.149314854294062">
<ele>211.8</ele>
<time>2024-05-08T14:05:44Z</time>
</trkpt>
<trkpt lat="49.38808053731918" lon="9.149321475997567">
<ele>212</ele>
<time>2024-05-08T14:05:45Z</time>
</trkpt>
<trkpt lat="49.38811104744673" lon="9.149321475997567">
<ele>212</ele>
<time>2024-05-08T14:05:47Z</time>
</trkpt>
<trkpt lat="49.38814155757427" lon="9.149325331673026">
<ele>212.2</ele>
<time>2024-05-08T14:05:48Z</time>
</trkpt>
<trkpt lat="49.38817206770182" lon="9.149328181520104">
<ele>212.2</ele>
<time>2024-05-08T14:05:49Z</time>
</trkpt>
<trkpt lat="49.38823317177594" lon="9.149328181520104">
<ele>212.2</ele>
<time>2024-05-08T14:05:51Z</time>
</trkpt>
<trkpt lat="49.388294192031026" lon="9.149330109357834">
<ele>212.2</ele>
<time>2024-05-08T14:05:53Z</time>
</trkpt>
<trkpt lat="49.38832470215857" lon="9.149330109357834">
<ele>212.2</ele>
<time>2024-05-08T14:05:54Z</time>
</trkpt>
<trkpt lat="49.38834758475423" lon="9.149330109357834">
<ele>212.2</ele>
<time>2024-05-08T14:05:55Z</time>
</trkpt>
<trkpt lat="49.38839720562101" lon="9.149332037195563">
<ele>212.4</ele>
<time>2024-05-08T14:05:56Z</time>
</trkpt>
<trkpt lat="49.38842771574855" lon="9.149328181520104">
<ele>212.4</ele>
<time>2024-05-08T14:05:58Z</time>
</trkpt>
<trkpt lat="49.388454370200634" lon="9.149332037195563">
<ele>212.4</ele>
<time>2024-05-08T14:05:59Z</time>
</trkpt>
<trkpt lat="49.38847725279629" lon="9.149328181520104">
<ele>212.4</ele>
<time>2024-05-08T14:06:00Z</time>
</trkpt>
<trkpt lat="49.38853835687041" lon="9.149312004446983">
<ele>212.4</ele>
<time>2024-05-08T14:06:01Z</time>
</trkpt>
<trkpt lat="49.388553611934185" lon="9.149305298924446">
<ele>212.6</ele>
<time>2024-05-08T14:06:03Z</time>
</trkpt>
<trkpt lat="49.38856886699796" lon="9.149303371086717">
<ele>212.8</ele>
<time>2024-05-08T14:06:04Z</time>
</trkpt>
<trkpt lat="49.388629887253046" lon="9.149286188185217">
<ele>212.8</ele>
<time>2024-05-08T14:06:06Z</time>
</trkpt>
<trkpt lat="49.38865654170513" lon="9.149276716634631">
<ele>213</ele>
<time>2024-05-08T14:06:07Z</time>
</trkpt>
<trkpt lat="49.388710018247366" lon="9.14925953373313">
<ele>213.2</ele>
<time>2024-05-08T14:06:08Z</time>
</trkpt>
<trkpt lat="49.388729045167565" lon="9.149249978363514">
<ele>213.4</ele>
<time>2024-05-08T14:06:10Z</time>
</trkpt>
<trkpt lat="49.38877481035888" lon="9.149243272840977">
<ele>213.6</ele>
<time>2024-05-08T14:06:11Z</time>
</trkpt>
<trkpt lat="49.38879392109811" lon="9.149234723299742">
<ele>213.8</ele>
<time>2024-05-08T14:06:13Z</time>
</trkpt>
<trkpt lat="49.38881680369377" lon="9.149229945614934">
<ele>213.8</ele>
<time>2024-05-08T14:06:14Z</time>
</trkpt>
<trkpt lat="49.38887782394886" lon="9.1492213960737">
<ele>214</ele>
<time>2024-05-08T14:06:16Z</time>
</trkpt>
<trkpt lat="49.388908334076405" lon="9.14921854622662">
<ele>214</ele>
<time>2024-05-08T14:06:17Z</time>
</trkpt>
<trkpt lat="49.38893884420395" lon="9.149216618388891">
<ele>214</ele>
<time>2024-05-08T14:06:18Z</time>
</trkpt>
<trkpt lat="49.38897698186338" lon="9.149209912866354">
<ele>214.2</ele>
<time>2024-05-08T14:06:19Z</time>
</trkpt>
<trkpt lat="49.38905334100127" lon="9.149194657802582">
<ele>214.2</ele>
<time>2024-05-08T14:06:20Z</time>
</trkpt>
<trkpt lat="49.3890914786607" lon="9.149193735793231">
<ele>214.4</ele>
<time>2024-05-08T14:06:21Z</time>
</trkpt>
<trkpt lat="49.38911813311279" lon="9.149193735793231">
<ele>214.6</ele>
<time>2024-05-08T14:06:23Z</time>
</trkpt>
<trkpt lat="49.38914864324033" lon="9.149187030270696">
<ele>214.8</ele>
<time>2024-05-08T14:06:24Z</time>
</trkpt>
<trkpt lat="49.38921737484634" lon="9.149185102432966">
<ele>215</ele>
<time>2024-05-08T14:06:26Z</time>
</trkpt>
<trkpt lat="49.38925165683031" lon="9.149187030270696">
<ele>215</ele>
<time>2024-05-08T14:06:27Z</time>
</trkpt>
<trkpt lat="49.38931653276086" lon="9.149187030270696">
<ele>215.2</ele>
<time>2024-05-08T14:06:28Z</time>
</trkpt>
<trkpt lat="49.38937755301595" lon="9.149189880117774">
<ele>215.4</ele>
<time>2024-05-08T14:06:31Z</time>
</trkpt>
<trkpt lat="49.38940806314349" lon="9.149187030270696">
<ele>215.6</ele>
<time>2024-05-08T14:06:32Z</time>
</trkpt>
<trkpt lat="49.38943857327104" lon="9.149183258414268">
<ele>215.8</ele>
<time>2024-05-08T14:06:33Z</time>
</trkpt>
<trkpt lat="49.38946908339858" lon="9.14918040856719">
<ele>216</ele>
<time>2024-05-08T14:06:34Z</time>
</trkpt>
<trkpt lat="49.38953010365367" lon="9.14918040856719">
<ele>216.2</ele>
<time>2024-05-08T14:06:36Z</time>
</trkpt>
<trkpt lat="49.38960646279156" lon="9.14918040856719">
<ele>216.6</ele>
<time>2024-05-08T14:06:38Z</time>
</trkpt>
<trkpt lat="49.38964460045099" lon="9.14918133057654">
<ele>216.6</ele>
<time>2024-05-08T14:06:39Z</time>
</trkpt>
<trkpt lat="49.38970562070608" lon="9.149188036099076">
<ele>216.8</ele>
<time>2024-05-08T14:06:40Z</time>
</trkpt>
<trkpt lat="49.38976664096117" lon="9.14919851347804">
<ele>217</ele>
<time>2024-05-08T14:06:43Z</time>
</trkpt>
<trkpt lat="49.38979337923229" lon="9.149203291162848">
<ele>217</ele>
<time>2024-05-08T14:06:44Z</time>
</trkpt>
<trkpt lat="49.3898391444236" lon="9.149216618388891">
<ele>217.2</ele>
<time>2024-05-08T14:06:46Z</time>
</trkpt>
<trkpt lat="49.389877282083035" lon="9.149225167930126">
<ele>217.2</ele>
<time>2024-05-08T14:06:47Z</time>
</trkpt>
<trkpt lat="49.38991927541792" lon="9.149232795462012">
<ele>217.2</ele>
<time>2024-05-08T14:06:48Z</time>
</trkpt>
<trkpt lat="49.389957413077354" lon="9.14923950098455">
<ele>217.2</ele>
<time>2024-05-08T14:06:49Z</time>
</trkpt>
<trkpt lat="49.39002220518887" lon="9.149254756048322">
<ele>217.2</ele>
<time>2024-05-08T14:06:51Z</time>
</trkpt>
<trkpt lat="49.390052715316415" lon="9.14925861172378">
<ele>217.2</ele>
<time>2024-05-08T14:06:52Z</time>
</trkpt>
<trkpt lat="49.39012144692242" lon="9.149266239255669">
<ele>217.4</ele>
<time>2024-05-08T14:06:53Z</time>
</trkpt>
<trkpt lat="49.39015572890639" lon="9.149271938949823">
<ele>217.6</ele>
<time>2024-05-08T14:06:55Z</time>
</trkpt>
<trkpt lat="49.39019009470939" lon="9.149274788796902">
<ele>217.8</ele>
<time>2024-05-08T14:06:56Z</time>
</trkpt>
<trkpt lat="49.390254970639944" lon="9.149292893707752">
<ele>217.8</ele>
<time>2024-05-08T14:06:58Z</time>
</trkpt>
<trkpt lat="49.39028925262392" lon="9.14930152706802">
<ele>218</ele>
<time>2024-05-08T14:06:59Z</time>
</trkpt>
<trkpt lat="49.39035790041089" lon="9.149310076609254">
<ele>218.2</ele>
<time>2024-05-08T14:07:01Z</time>
</trkpt>
<trkpt lat="49.39038463868201" lon="9.149312004446983">
<ele>218.4</ele>
<time>2024-05-08T14:07:02Z</time>
</trkpt>
<trkpt lat="49.39040366560221" lon="9.149316782131791">
<ele>218.4</ele>
<time>2024-05-08T14:07:03Z</time>
</trkpt>
<trkpt lat="49.39043425954878" lon="9.149321475997567">
<ele>218.6</ele>
<time>2024-05-08T14:07:04Z</time>
</trkpt>
<trkpt lat="49.39051053486765" lon="9.149318626150489">
<ele>218.8</ele>
<time>2024-05-08T14:07:05Z</time>
</trkpt>
<trkpt lat="49.39054104499519" lon="9.149310076609254">
<ele>218.8</ele>
<time>2024-05-08T14:07:07Z</time>
</trkpt>
<trkpt lat="49.39057532697916" lon="9.149308148771524">
<ele>219</ele>
<time>2024-05-08T14:07:08Z</time>
</trkpt>
<trkpt lat="49.39061354845762" lon="9.14930152706802">
<ele>219.2</ele>
<time>2024-05-08T14:07:09Z</time>
</trkpt>
<trkpt lat="49.39065168611705" lon="9.149294821545482">
<ele>219.2</ele>
<time>2024-05-08T14:07:10Z</time>
</trkpt>
<trkpt lat="49.390724105760455" lon="9.149276716634631">
<ele>219.4</ele>
<time>2024-05-08T14:07:12Z</time>
</trkpt>
<trkpt lat="49.39076232723892" lon="9.149266239255669">
<ele>219.6</ele>
<time>2024-05-08T14:07:13Z</time>
</trkpt>
<trkpt lat="49.39079283736646" lon="9.14925953373313">
<ele>219.6</ele>
<time>2024-05-08T14:07:14Z</time>
</trkpt>
<trkpt lat="49.390823347494006" lon="9.149256683886051">
<ele>219.6</ele>
<time>2024-05-08T14:07:15Z</time>
</trkpt>
<trkpt lat="49.39087674021721" lon="9.149229945614934">
<ele>219.8</ele>
<time>2024-05-08T14:07:17Z</time>
</trkpt>
<trkpt lat="49.3909377604723" lon="9.149205135181546">
<ele>219.8</ele>
<time>2024-05-08T14:07:19Z</time>
</trkpt>
<trkpt lat="49.3909721262753" lon="9.149193735793231">
<ele>219.8</ele>
<time>2024-05-08T14:07:20Z</time>
</trkpt>
<trkpt lat="49.39104077406227" lon="9.149165153503418">
<ele>219.8</ele>
<time>2024-05-08T14:07:21Z</time>
</trkpt>
<trkpt lat="49.39107128418982" lon="9.149147970601916">
<ele>219.8</ele>
<time>2024-05-08T14:07:23Z</time>
</trkpt>
<trkpt lat="49.391101794317365" lon="9.149129865691066">
<ele>220</ele>
<time>2024-05-08T14:07:24Z</time>
</trkpt>
<trkpt lat="49.39113230444491" lon="9.149111676961184">
<ele>220</ele>
<time>2024-05-08T14:07:25Z</time>
</trkpt>
<trkpt lat="49.39116281457245" lon="9.149094577878714">
<ele>220.2</ele>
<time>2024-05-08T14:07:26Z</time>
</trkpt>
<trkpt lat="49.3911933247" lon="9.14907831698656">
<ele>220.2</ele>
<time>2024-05-08T14:07:27Z</time>
</trkpt>
<trkpt lat="49.39122383482754" lon="9.14906113408506">
<ele>220.4</ele>
<time>2024-05-08T14:07:28Z</time>
</trkpt>
<trkpt lat="49.39125434495509" lon="9.149043029174209">
<ele>220.4</ele>
<time>2024-05-08T14:07:29Z</time>
</trkpt>
<trkpt lat="49.391319220885634" lon="9.149008747190235">
<ele>220.4</ele>
<time>2024-05-08T14:07:30Z</time>
</trkpt>
<trkpt lat="49.39134973101318" lon="9.148991564288735">
<ele>220.4</ele>
<time>2024-05-08T14:07:32Z</time>
</trkpt>
<trkpt lat="49.39141075126827" lon="9.14896004833281">
<ele>220.6</ele>
<time>2024-05-08T14:07:34Z</time>
</trkpt>
<trkpt lat="49.39144134521485" lon="9.14894194342196">
<ele>220.6</ele>
<time>2024-05-08T14:07:35Z</time>
</trkpt>
<trkpt lat="49.39147185534239" lon="9.148924760520458">
<ele>220.8</ele>
<time>2024-05-08T14:07:36Z</time>
</trkpt>
<trkpt lat="49.391498509794474" lon="9.148911433294415">
<ele>220.8</ele>
<time>2024-05-08T14:07:37Z</time>
</trkpt>
<trkpt lat="49.39153287559748" lon="9.148898106068373">
<ele>220.8</ele>
<time>2024-05-08T14:07:38Z</time>
</trkpt>
<trkpt lat="49.39156338572502" lon="9.148886622861028">
<ele>221</ele>
<time>2024-05-08T14:07:39Z</time>
</trkpt>
<trkpt lat="49.39159004017711" lon="9.148875223472714">
<ele>221</ele>
<time>2024-05-08T14:07:40Z</time>
</trkpt>
<trkpt lat="49.3916130065918" lon="9.14886474609375">
<ele>221</ele>
<time>2024-05-08T14:07:41Z</time>
</trkpt>
<trkpt lat="49.391632033512" lon="9.148855190724134">
<ele>221.2</ele>
<time>2024-05-08T14:07:42Z</time>
</trkpt>
<trkpt lat="49.391654916107655" lon="9.14884370751679">
<ele>221.2</ele>
<time>2024-05-08T14:07:43Z</time>
</trkpt>
<trkpt lat="49.39168165437877" lon="9.148837085813284">
<ele>221.2</ele>
<time>2024-05-08T14:07:44Z</time>
</trkpt>
<trkpt lat="49.39170453697443" lon="9.148835157975554">
<ele>221.4</ele>
<time>2024-05-08T14:07:45Z</time>
</trkpt>
<trkpt lat="49.39173119142651" lon="9.148837085813284">
<ele>221.4</ele>
<time>2024-05-08T14:07:46Z</time>
</trkpt>
<trkpt lat="49.391754074022174" lon="9.14884471334517">
<ele>221.4</ele>
<time>2024-05-08T14:07:47Z</time>
</trkpt>
<trkpt lat="49.39177695661783" lon="9.148855190724134">
<ele>221.4</ele>
<time>2024-05-08T14:07:48Z</time>
</trkpt>
<trkpt lat="49.39179992303252" lon="9.148868517950175">
<ele>221.4</ele>
<time>2024-05-08T14:07:49Z</time>
</trkpt>
<trkpt lat="49.39182280562818" lon="9.148876145482063">
<ele>221.4</ele>
<time>2024-05-08T14:07:50Z</time>
</trkpt>
<trkpt lat="49.391853315755725" lon="9.1488828510046">
<ele>221.4</ele>
<time>2024-05-08T14:07:51Z</time>
</trkpt>
<trkpt lat="49.39187997020781" lon="9.148889472708106">
<ele>221.6</ele>
<time>2024-05-08T14:07:52Z</time>
</trkpt>
<trkpt lat="49.39194484613836" lon="9.14889995008707">
<ele>221.6</ele>
<time>2024-05-08T14:07:53Z</time>
</trkpt>
<trkpt lat="49.39198683947325" lon="9.148915288969874">
<ele>221.8</ele>
<time>2024-05-08T14:07:55Z</time>
</trkpt>
<trkpt lat="49.39203260466456" lon="9.148928616195915">
<ele>222</ele>
<time>2024-05-08T14:07:56Z</time>
</trkpt>
<trkpt lat="49.39207836985588" lon="9.14894194342196">
<ele>222.2</ele>
<time>2024-05-08T14:07:57Z</time>
</trkpt>
<trkpt lat="49.39212027937174" lon="9.148955270648004">
<ele>222.4</ele>
<time>2024-05-08T14:07:58Z</time>
</trkpt>
<trkpt lat="49.39216227270663" lon="9.148966753855348">
<ele>222.6</ele>
<time>2024-05-08T14:07:59Z</time>
</trkpt>
<trkpt lat="49.39220041036606" lon="9.148975303396584">
<ele>222.8</ele>
<time>2024-05-08T14:08:00Z</time>
</trkpt>
<trkpt lat="49.39223854802549" lon="9.148986786603928">
<ele>222.8</ele>
<time>2024-05-08T14:08:01Z</time>
</trkpt>
<trkpt lat="49.39227668568492" lon="9.14899818599224">
<ele>222.8</ele>
<time>2024-05-08T14:08:02Z</time>
</trkpt>
<trkpt lat="49.39231490716338" lon="9.149013441056011">
<ele>223</ele>
<time>2024-05-08T14:08:03Z</time>
</trkpt>
<trkpt lat="49.39235304482281" lon="9.149024924263358">
<ele>223</ele>
<time>2024-05-08T14:08:04Z</time>
</trkpt>
<trkpt lat="49.39239118248224" lon="9.1490382514894">
<ele>223</ele>
<time>2024-05-08T14:08:05Z</time>
</trkpt>
<trkpt lat="49.392425464466214" lon="9.149049734696746">
<ele>223</ele>
<time>2024-05-08T14:08:06Z</time>
</trkpt>
<trkpt lat="49.39250182360411" lon="9.149076389148831">
<ele>223.2</ele>
<time>2024-05-08T14:08:07Z</time>
</trkpt>
<trkpt lat="49.39253610558808" lon="9.149087872356176">
<ele>223.2</ele>
<time>2024-05-08T14:08:09Z</time>
</trkpt>
<trkpt lat="49.39256661571562" lon="9.14909834973514">
<ele>223.2</ele>
<time>2024-05-08T14:08:10Z</time>
</trkpt>
<trkpt lat="49.39259712584317" lon="9.149106899276376">
<ele>223.2</ele>
<time>2024-05-08T14:08:11Z</time>
</trkpt>
<trkpt lat="49.39262763597071" lon="9.14911838248372">
<ele>223.2</ele>
<time>2024-05-08T14:08:12Z</time>
</trkpt>
<trkpt lat="49.39265437424183" lon="9.149126932024956">
<ele>223.4</ele>
<time>2024-05-08T14:08:13Z</time>
</trkpt>
<trkpt lat="49.39268488436937" lon="9.1491384152323">
<ele>223.4</ele>
<time>2024-05-08T14:08:14Z</time>
</trkpt>
<trkpt lat="49.39270776696503" lon="9.149154592305422">
<ele>223.6</ele>
<time>2024-05-08T14:08:15Z</time>
</trkpt>
<trkpt lat="49.39273064956069" lon="9.149168003350496">
<ele>223.6</ele>
<time>2024-05-08T14:08:16Z</time>
</trkpt>
<trkpt lat="49.39275738783181" lon="9.14917848072946">
<ele>223.8</ele>
<time>2024-05-08T14:08:17Z</time>
</trkpt>
<trkpt lat="49.392780270427465" lon="9.149193735793231">
<ele>224</ele>
<time>2024-05-08T14:08:18Z</time>
</trkpt>
<trkpt lat="49.39280315302312" lon="9.149207063019276">
<ele>224</ele>
<time>2024-05-08T14:08:19Z</time>
</trkpt>
<trkpt lat="49.39283366315067" lon="9.149223323911428">
<ele>224.2</ele>
<time>2024-05-08T14:08:20Z</time>
</trkpt>
<trkpt lat="49.39286417327821" lon="9.14924142882228">
<ele>224.4</ele>
<time>2024-05-08T14:08:21Z</time>
</trkpt>
<trkpt lat="49.39289468340576" lon="9.149254756048322">
<ele>224.4</ele>
<time>2024-05-08T14:08:22Z</time>
</trkpt>
<trkpt lat="49.392936676740646" lon="9.149266239255669">
<ele>224.4</ele>
<time>2024-05-08T14:08:23Z</time>
</trkpt>
<trkpt lat="49.39297481440008" lon="9.14927956648171">
<ele>224.4</ele>
<time>2024-05-08T14:08:24Z</time>
</trkpt>
<trkpt lat="49.393058717250824" lon="9.14930152706802">
<ele>224.4</ele>
<time>2024-05-08T14:08:25Z</time>
</trkpt>
<trkpt lat="49.39308922737837" lon="9.149312926456332">
<ele>224.4</ele>
<time>2024-05-08T14:08:27Z</time>
</trkpt>
<trkpt lat="49.39311210997403" lon="9.149323403835297">
<ele>224.4</ele>
<time>2024-05-08T14:08:28Z</time>
</trkpt>
<trkpt lat="49.393134992569685" lon="9.149330109357834">
<ele>224.6</ele>
<time>2024-05-08T14:08:29Z</time>
</trkpt>
<trkpt lat="49.3931617308408" lon="9.149332037195563">
<ele>224.6</ele>
<time>2024-05-08T14:08:30Z</time>
</trkpt>
<trkpt lat="49.393196096643806" lon="9.149336814880373">
<ele>224.8</ele>
<time>2024-05-08T14:08:31Z</time>
</trkpt>
<trkpt lat="49.39322660677135" lon="9.149343436583877">
<ele>225</ele>
<time>2024-05-08T14:08:32Z</time>
</trkpt>
<trkpt lat="49.393257116898894" lon="9.149343436583877">
<ele>225</ele>
<time>2024-05-08T14:08:33Z</time>
</trkpt>
<trkpt lat="49.393295254558325" lon="9.149346286430957">
<ele>225.2</ele>
<time>2024-05-08T14:08:34Z</time>
</trkpt>
<trkpt lat="49.39332962036133" lon="9.149352991953492">
<ele>225.4</ele>
<time>2024-05-08T14:08:35Z</time>
</trkpt>
<trkpt lat="49.393371529877186" lon="9.149354919791222">
<ele>225.4</ele>
<time>2024-05-08T14:08:36Z</time>
</trkpt>
<trkpt lat="49.39342115074396" lon="9.14935676380992">
<ele>225.2</ele>
<time>2024-05-08T14:08:37Z</time>
</trkpt>
<trkpt lat="49.39346306025982" lon="9.149358691647649">
<ele>225.2</ele>
<time>2024-05-08T14:08:38Z</time>
</trkpt>
<trkpt lat="49.39350505359471" lon="9.149352991953492">
<ele>225.4</ele>
<time>2024-05-08T14:08:39Z</time>
</trkpt>
<trkpt lat="49.39355844631791" lon="9.149343436583877">
<ele>225.4</ele>
<time>2024-05-08T14:08:40Z</time>
</trkpt>
<trkpt lat="49.3936004396528" lon="9.149328181520104">
<ele>225.6</ele>
<time>2024-05-08T14:08:41Z</time>
</trkpt>
<trkpt lat="49.39364620484412" lon="9.149316782131791">
<ele>225.8</ele>
<time>2024-05-08T14:08:42Z</time>
</trkpt>
<trkpt lat="49.39368819817901" lon="9.149305298924446">
<ele>226</ele>
<time>2024-05-08T14:08:43Z</time>
</trkpt>
<trkpt lat="49.39372633583844" lon="9.149292893707752">
<ele>226.2</ele>
<time>2024-05-08T14:08:44Z</time>
</trkpt>
<trkpt lat="49.393768245354295" lon="9.149276716634631">
<ele>226.2</ele>
<time>2024-05-08T14:08:45Z</time>
</trkpt>
<trkpt lat="49.393806383013725" lon="9.149256683886051">
<ele>226.4</ele>
<time>2024-05-08T14:08:46Z</time>
</trkpt>
<trkpt lat="49.39384460449219" lon="9.149234723299742">
<ele>226.4</ele>
<time>2024-05-08T14:08:47Z</time>
</trkpt>
<trkpt lat="49.393886514008045" lon="9.149216618388891">
<ele>226.6</ele>
<time>2024-05-08T14:08:48Z</time>
</trkpt>
<trkpt lat="49.39392087981105" lon="9.14919851347804">
<ele>226.6</ele>
<time>2024-05-08T14:08:49Z</time>
</trkpt>
<trkpt lat="49.39395516179502" lon="9.14918040856719">
<ele>226.6</ele>
<time>2024-05-08T14:08:50Z</time>
</trkpt>
<trkpt lat="49.39399329945445" lon="9.14916037581861">
<ele>226.6</ele>
<time>2024-05-08T14:08:51Z</time>
</trkpt>
<trkpt lat="49.39403152093291" lon="9.14914034307003">
<ele>226.6</ele>
<time>2024-05-08T14:08:52Z</time>
</trkpt>
<trkpt lat="49.39406580291688" lon="9.149123160168529">
<ele>226.8</ele>
<time>2024-05-08T14:08:53Z</time>
</trkpt>
<trkpt lat="49.39409631304443" lon="9.149109832942486">
<ele>226.8</ele>
<time>2024-05-08T14:08:54Z</time>
</trkpt>
<trkpt lat="49.39412682317197" lon="9.14909834973514">
<ele>227</ele>
<time>2024-05-08T14:08:55Z</time>
</trkpt>
<trkpt lat="49.39416118897498" lon="9.149085022509098">
<ele>227.2</ele>
<time>2024-05-08T14:08:56Z</time>
</trkpt>
<trkpt lat="49.394203182309866" lon="9.149067839607596">
<ele>227.2</ele>
<time>2024-05-08T14:08:57Z</time>
</trkpt>
<trkpt lat="49.39424509182573" lon="9.149047806859016">
<ele>227.4</ele>
<time>2024-05-08T14:08:58Z</time>
</trkpt>
<trkpt lat="49.39429085701704" lon="9.149029701948166">
<ele>227.6</ele>
<time>2024-05-08T14:08:59Z</time>
</trkpt>
<trkpt lat="49.39432899467647" lon="9.149013441056011">
<ele>227.8</ele>
<time>2024-05-08T14:09:00Z</time>
</trkpt>
<trkpt lat="49.394363360479474" lon="9.14900011382997">
<ele>228</ele>
<time>2024-05-08T14:09:01Z</time>
</trkpt>
<trkpt lat="49.39439387060702" lon="9.148989636451006">
<ele>228</ele>
<time>2024-05-08T14:09:02Z</time>
</trkpt>
<trkpt lat="49.39442823641002" lon="9.14898200891912">
<ele>228.2</ele>
<time>2024-05-08T14:09:03Z</time>
</trkpt>
<trkpt lat="49.39446637406945" lon="9.148973459377885">
<ele>228.4</ele>
<time>2024-05-08T14:09:04Z</time>
</trkpt>
<trkpt lat="49.394500656053424" lon="9.148971531540155">
<ele>228.4</ele>
<time>2024-05-08T14:09:05Z</time>
</trkpt>
<trkpt lat="49.394538877531886" lon="9.148973459377885">
<ele>228.6</ele>
<time>2024-05-08T14:09:06Z</time>
</trkpt>
<trkpt lat="49.39457701519132" lon="9.148969603702426">
<ele>228.8</ele>
<time>2024-05-08T14:09:07Z</time>
</trkpt>
<trkpt lat="49.39460752531886" lon="9.148968681693075">
<ele>229.2</ele>
<time>2024-05-08T14:09:08Z</time>
</trkpt>
<trkpt lat="49.394638035446405" lon="9.148968681693075">
<ele>229.2</ele>
<time>2024-05-08T14:09:09Z</time>
</trkpt>
<trkpt lat="49.39467994496226" lon="9.148966753855348">
<ele>229.4</ele>
<time>2024-05-08T14:09:10Z</time>
</trkpt>
<trkpt lat="49.394718166440725" lon="9.148968681693075">
<ele>229.6</ele>
<time>2024-05-08T14:09:11Z</time>
</trkpt>
<trkpt lat="49.39476007595658" lon="9.148971531540155">
<ele>229.6</ele>
<time>2024-05-08T14:09:12Z</time>
</trkpt>
<trkpt lat="49.394794441759586" lon="9.148975303396584">
<ele>229.8</ele>
<time>2024-05-08T14:09:13Z</time>
</trkpt>
<trkpt lat="49.39483257941902" lon="9.148976309224963">
<ele>229.8</ele>
<time>2024-05-08T14:09:14Z</time>
</trkpt>
<trkpt lat="49.39486686140299" lon="9.148982930928469">
<ele>230</ele>
<time>2024-05-08T14:09:15Z</time>
</trkpt>
<trkpt lat="49.39490508288145" lon="9.148986786603928">
<ele>230</ele>
<time>2024-05-08T14:09:16Z</time>
</trkpt>
<trkpt lat="49.39494699239731" lon="9.148988714441655">
<ele>230.2</ele>
<time>2024-05-08T14:09:17Z</time>
</trkpt>
<trkpt lat="49.39498513005674" lon="9.148991564288735">
<ele>230.2</ele>
<time>2024-05-08T14:09:18Z</time>
</trkpt>
<trkpt lat="49.39502326771617" lon="9.148996341973543">
<ele>230.4</ele>
<time>2024-05-08T14:09:19Z</time>
</trkpt>
<trkpt lat="49.39505000598729" lon="9.1490020416677">
<ele>230.6</ele>
<time>2024-05-08T14:09:20Z</time>
</trkpt>
<trkpt lat="49.39508437179029" lon="9.149006819352508">
<ele>230.6</ele>
<time>2024-05-08T14:09:21Z</time>
</trkpt>
<trkpt lat="49.395153019577265" lon="9.149015368893744">
<ele>230.8</ele>
<time>2024-05-08T14:09:23Z</time>
</trkpt>
<trkpt lat="49.395191157236695" lon="9.14901821874082">
<ele>230.8</ele>
<time>2024-05-08T14:09:24Z</time>
</trkpt>
<trkpt lat="49.395229294896126" lon="9.149022996425629">
<ele>230.8</ele>
<time>2024-05-08T14:09:25Z</time>
</trkpt>
<trkpt lat="49.39526366069913" lon="9.149026852101088">
<ele>231</ele>
<time>2024-05-08T14:09:26Z</time>
</trkpt>
<trkpt lat="49.39530179835856" lon="9.149033473804591">
<ele>231</ele>
<time>2024-05-08T14:09:27Z</time>
</trkpt>
<trkpt lat="49.39533608034253" lon="9.14904210716486">
<ele>231.2</ele>
<time>2024-05-08T14:09:28Z</time>
</trkpt>
<trkpt lat="49.395370446145535" lon="9.149046884849668">
<ele>231.4</ele>
<time>2024-05-08T14:09:29Z</time>
</trkpt>
<trkpt lat="49.395408583804965" lon="9.149055434390904">
<ele>231.4</ele>
<time>2024-05-08T14:09:30Z</time>
</trkpt>
<trkpt lat="49.39543532207608" lon="9.14906113408506">
<ele>231.6</ele>
<time>2024-05-08T14:09:31Z</time>
</trkpt>
<trkpt lat="49.39546197652817" lon="9.149067839607596">
<ele>231.6</ele>
<time>2024-05-08T14:09:32Z</time>
</trkpt>
<trkpt lat="49.39549634233117" lon="9.149074545130134">
<ele>231.8</ele>
<time>2024-05-08T14:09:33Z</time>
</trkpt>
<trkpt lat="49.39553062431514" lon="9.14908024482429">
<ele>232</ele>
<time>2024-05-08T14:09:34Z</time>
</trkpt>
<trkpt lat="49.39557261765003" lon="9.149083094671369">
<ele>232.2</ele>
<time>2024-05-08T14:09:35Z</time>
</trkpt>
<trkpt lat="49.395606983453035" lon="9.149085022509098">
<ele>232.4</ele>
<time>2024-05-08T14:09:36Z</time>
</trkpt>
<trkpt lat="49.39565652050078" lon="9.14907831698656">
<ele>232.4</ele>
<time>2024-05-08T14:09:37Z</time>
</trkpt>
<trkpt lat="49.39569465816021" lon="9.149074545130134">
<ele>232.6</ele>
<time>2024-05-08T14:09:38Z</time>
</trkpt>
<trkpt lat="49.3957366514951" lon="9.149066917598248">
<ele>232.6</ele>
<time>2024-05-08T14:09:39Z</time>
</trkpt>
<trkpt lat="49.39577864482999" lon="9.149056356400251">
<ele>232.8</ele>
<time>2024-05-08T14:09:40Z</time>
</trkpt>
<trkpt lat="49.39581292681396" lon="9.149049734696746">
<ele>232.8</ele>
<time>2024-05-08T14:09:41Z</time>
</trkpt>
<trkpt lat="49.395843436941504" lon="9.149043029174209">
<ele>233</ele>
<time>2024-05-08T14:09:42Z</time>
</trkpt>
<trkpt lat="49.395885430276394" lon="9.149029701948166">
<ele>233</ele>
<time>2024-05-08T14:09:43Z</time>
</trkpt>
<trkpt lat="49.3959197960794" lon="9.149022996425629">
<ele>233</ele>
<time>2024-05-08T14:09:44Z</time>
</trkpt>
<trkpt lat="49.39594645053148" lon="9.149011597037315">
<ele>233</ele>
<time>2024-05-08T14:09:45Z</time>
</trkpt>
<trkpt lat="49.39598844386637" lon="9.148996341973543">
<ele>233</ele>
<time>2024-05-08T14:09:46Z</time>
</trkpt>
<trkpt lat="49.3960265815258" lon="9.148989636451006">
<ele>233.2</ele>
<time>2024-05-08T14:09:47Z</time>
</trkpt>
<trkpt lat="49.39606849104166" lon="9.148982930928469">
<ele>233.2</ele>
<time>2024-05-08T14:09:48Z</time>
</trkpt>
<trkpt lat="49.39611048437655" lon="9.148975303396584">
<ele>233.4</ele>
<time>2024-05-08T14:09:49Z</time>
</trkpt>
<trkpt lat="49.39614485017955" lon="9.148966753855348">
<ele>233.4</ele>
<time>2024-05-08T14:09:50Z</time>
</trkpt>
<trkpt lat="49.3961753603071" lon="9.148955270648004">
<ele>233.6</ele>
<time>2024-05-08T14:09:51Z</time>
</trkpt>
<trkpt lat="49.39621349796653" lon="9.14894194342196">
<ele>234</ele>
<time>2024-05-08T14:09:52Z</time>
</trkpt>
<trkpt lat="49.39624400809407" lon="9.148928616195915">
<ele>234.2</ele>
<time>2024-05-08T14:09:53Z</time>
</trkpt>
<trkpt lat="49.39627451822162" lon="9.148904727771878">
<ele>234.2</ele>
<time>2024-05-08T14:09:54Z</time>
</trkpt>
<trkpt lat="49.39630502834916" lon="9.14888184517622">
<ele>234.4</ele>
<time>2024-05-08T14:09:55Z</time>
</trkpt>
<trkpt lat="49.39633176662028" lon="9.148859968408942">
<ele>234.4</ele>
<time>2024-05-08T14:09:56Z</time>
</trkpt>
<trkpt lat="49.39636227674782" lon="9.148838007822633">
<ele>234.4</ele>
<time>2024-05-08T14:09:57Z</time>
</trkpt>
<trkpt lat="49.396396558731794" lon="9.148817975074053">
<ele>234.4</ele>
<time>2024-05-08T14:09:58Z</time>
</trkpt>
<trkpt lat="49.3964309245348" lon="9.148797020316124">
<ele>234.4</ele>
<time>2024-05-08T14:09:59Z</time>
</trkpt>
<trkpt lat="49.3964652903378" lon="9.148773131892083">
<ele>234.4</ele>
<time>2024-05-08T14:10:00Z</time>
</trkpt>
<trkpt lat="49.396495800465345" lon="9.148750249296429">
<ele>234.4</ele>
<time>2024-05-08T14:10:01Z</time>
</trkpt>
<trkpt lat="49.39652631059289" lon="9.148731222376227">
<ele>234.4</ele>
<time>2024-05-08T14:10:02Z</time>
</trkpt>
<trkpt lat="49.39654919318855" lon="9.148711189627647">
<ele>234.4</ele>
<time>2024-05-08T14:10:03Z</time>
</trkpt>
<trkpt lat="49.39657970331609" lon="9.148692078888416">
<ele>234.4</ele>
<time>2024-05-08T14:10:04Z</time>
</trkpt>
<trkpt lat="49.39660644158721" lon="9.14866634644568">
<ele>234.6</ele>
<time>2024-05-08T14:10:05Z</time>
</trkpt>
<trkpt lat="49.396636951714754" lon="9.14864346385002">
<ele>234.6</ele>
<time>2024-05-08T14:10:06Z</time>
</trkpt>
<trkpt lat="49.39665983431041" lon="9.148621503263712">
<ele>234.8</ele>
<time>2024-05-08T14:10:07Z</time>
</trkpt>
<trkpt lat="49.3966864887625" lon="9.148598620668054">
<ele>234.8</ele>
<time>2024-05-08T14:10:08Z</time>
</trkpt>
<trkpt lat="49.39670559950173" lon="9.14857003837824">
<ele>234.8</ele>
<time>2024-05-08T14:10:09Z</time>
</trkpt>
<trkpt lat="49.396732253953815" lon="9.148539528250694">
<ele>234.8</ele>
<time>2024-05-08T14:10:10Z</time>
</trkpt>
<trkpt lat="49.39675899222493" lon="9.1485099401325">
<ele>235</ele>
<time>2024-05-08T14:10:11Z</time>
</trkpt>
<trkpt lat="49.39678187482059" lon="9.148485129699113">
<ele>235</ele>
<time>2024-05-08T14:10:12Z</time>
</trkpt>
<trkpt lat="49.39680475741625" lon="9.148458475247024">
<ele>235</ele>
<time>2024-05-08T14:10:13Z</time>
</trkpt>
<trkpt lat="49.39682001248002" lon="9.148434586822988">
<ele>235</ele>
<time>2024-05-08T14:10:14Z</time>
</trkpt>
<trkpt lat="49.39684675075114" lon="9.148403154686092">
<ele>235</ele>
<time>2024-05-08T14:10:15Z</time>
</trkpt>
<trkpt lat="49.39687340520322" lon="9.14836971089244">
<ele>235</ele>
<time>2024-05-08T14:10:16Z</time>
</trkpt>
<trkpt lat="49.39689628779888" lon="9.148333501070738">
<ele>235</ele>
<time>2024-05-08T14:10:17Z</time>
</trkpt>
<trkpt lat="49.39691917039454" lon="9.148298213258386">
<ele>235</ele>
<time>2024-05-08T14:10:18Z</time>
</trkpt>
<trkpt lat="49.39693828113377" lon="9.148260075598955">
<ele>235</ele>
<time>2024-05-08T14:10:19Z</time>
</trkpt>
<trkpt lat="49.39696501940489" lon="9.148221937939525">
<ele>235.2</ele>
<time>2024-05-08T14:10:20Z</time>
</trkpt>
<trkpt lat="49.396991673856974" lon="9.148181872442365">
<ele>235.2</ele>
<time>2024-05-08T14:10:21Z</time>
</trkpt>
<trkpt lat="49.397010784596205" lon="9.148141806945205">
<ele>235.4</ele>
<time>2024-05-08T14:10:22Z</time>
</trkpt>
<trkpt lat="49.39703743904829" lon="9.14809511974454">
<ele>235.4</ele>
<time>2024-05-08T14:10:23Z</time>
</trkpt>
<trkpt lat="49.39706417731941" lon="9.148046420887113">
<ele>235.6</ele>
<time>2024-05-08T14:10:24Z</time>
</trkpt>
<trkpt lat="49.39709468744695" lon="9.148001661524177">
<ele>235.6</ele>
<time>2024-05-08T14:10:25Z</time>
</trkpt>
<trkpt lat="49.39712142571807" lon="9.147958746179938">
<ele>235.8</ele>
<time>2024-05-08T14:10:26Z</time>
</trkpt>
<trkpt lat="49.397148080170155" lon="9.147918680682778">
<ele>235.8</ele>
<time>2024-05-08T14:10:27Z</time>
</trkpt>
<trkpt lat="49.39717481844127" lon="9.147878615185618">
<ele>236</ele>
<time>2024-05-08T14:10:28Z</time>
</trkpt>
<trkpt lat="49.39719770103693" lon="9.147838549688458">
<ele>236</ele>
<time>2024-05-08T14:10:29Z</time>
</trkpt>
<trkpt lat="49.39721672795713" lon="9.147796556353567">
<ele>236</ele>
<time>2024-05-08T14:10:30Z</time>
</trkpt>
<trkpt lat="49.39723961055279" lon="9.14775657467544">
<ele>236</ele>
<time>2024-05-08T14:10:31Z</time>
</trkpt>
<trkpt lat="49.397262493148446" lon="9.14771650917828">
<ele>236</ele>
<time>2024-05-08T14:10:32Z</time>
</trkpt>
<trkpt lat="49.397285459563136" lon="9.147674515843391">
<ele>236</ele>
<time>2024-05-08T14:10:33Z</time>
</trkpt>
<trkpt lat="49.397308342158794" lon="9.147635456174612">
<ele>236.2</ele>
<time>2024-05-08T14:10:34Z</time>
</trkpt>
<trkpt lat="49.39733499661088" lon="9.1475963126868">
<ele>236.2</ele>
<time>2024-05-08T14:10:35Z</time>
</trkpt>
<trkpt lat="49.39735787920654" lon="9.147555325180292">
<ele>236.4</ele>
<time>2024-05-08T14:10:36Z</time>
</trkpt>
<trkpt lat="49.397384617477655" lon="9.147513331845404">
<ele>236.4</ele>
<time>2024-05-08T14:10:37Z</time>
</trkpt>
<trkpt lat="49.397407500073314" lon="9.147475194185972">
<ele>236.6</ele>
<time>2024-05-08T14:10:38Z</time>
</trkpt>
<trkpt lat="49.39743038266897" lon="9.147433200851085">
<ele>236.6</ele>
<time>2024-05-08T14:10:39Z</time>
</trkpt>
<trkpt lat="49.39745712094009" lon="9.147391291335223">
<ele>236.8</ele>
<time>2024-05-08T14:10:40Z</time>
</trkpt>
<trkpt lat="49.39748000353575" lon="9.147353153675796">
<ele>236.8</ele>
<time>2024-05-08T14:10:41Z</time>
</trkpt>
<trkpt lat="49.39750665798783" lon="9.147319793701172">
<ele>236.8</ele>
<time>2024-05-08T14:10:42Z</time>
</trkpt>
<trkpt lat="49.39752954058349" lon="9.147279728204012">
<ele>236.8</ele>
<time>2024-05-08T14:10:43Z</time>
</trkpt>
<trkpt lat="49.39754865132272" lon="9.147234885022044">
<ele>237</ele>
<time>2024-05-08T14:10:44Z</time>
</trkpt>
<trkpt lat="49.39757153391838" lon="9.147192891687157">
<ele>237</ele>
<time>2024-05-08T14:10:45Z</time>
</trkpt>
<trkpt lat="49.397598188370466" lon="9.14714813232422">
<ele>237.2</ele>
<time>2024-05-08T14:10:46Z</time>
</trkpt>
<trkpt lat="49.39762492664158" lon="9.14710521697998">
<ele>237.2</ele>
<time>2024-05-08T14:10:47Z</time>
</trkpt>
<trkpt lat="49.39764780923724" lon="9.147061295807362">
<ele>237.4</ele>
<time>2024-05-08T14:10:48Z</time>
</trkpt>
<trkpt lat="49.3976706918329" lon="9.147021230310202">
<ele>237.6</ele>
<time>2024-05-08T14:10:49Z</time>
</trkpt>
<trkpt lat="49.39769357442856" lon="9.146983092650771">
<ele>237.6</ele>
<time>2024-05-08T14:10:50Z</time>
</trkpt>
<trkpt lat="49.3977240845561" lon="9.146938249468803">
<ele>237.8</ele>
<time>2024-05-08T14:10:51Z</time>
</trkpt>
<trkpt lat="49.397758450359106" lon="9.146896339952946">
<ele>237.8</ele>
<time>2024-05-08T14:10:52Z</time>
</trkpt>
<trkpt lat="49.39783095382154" lon="9.146816208958626">
<ele>237.8</ele>
<time>2024-05-08T14:10:53Z</time>
</trkpt>
<trkpt lat="49.39786909148097" lon="9.146778071299195">
<ele>238</ele>
<time>2024-05-08T14:10:55Z</time>
</trkpt>
<trkpt lat="49.39790337346494" lon="9.146739933639765">
<ele>238</ele>
<time>2024-05-08T14:10:56Z</time>
</trkpt>
<trkpt lat="49.397937739267945" lon="9.146704645827413">
<ele>238.2</ele>
<time>2024-05-08T14:10:57Z</time>
</trkpt>
<trkpt lat="49.39796824939549" lon="9.146673129871488">
<ele>238.4</ele>
<time>2024-05-08T14:10:58Z</time>
</trkpt>
<trkpt lat="49.39800261519849" lon="9.14665125310421">
<ele>238.6</ele>
<time>2024-05-08T14:10:59Z</time>
</trkpt>
<trkpt lat="49.39802926965058" lon="9.14663314819336">
<ele>238.8</ele>
<time>2024-05-08T14:11:00Z</time>
</trkpt>
<trkpt lat="49.39805977977812" lon="9.14661018177867">
<ele>239</ele>
<time>2024-05-08T14:11:01Z</time>
</trkpt>
<trkpt lat="49.398094145581126" lon="9.146583527326584">
<ele>239.2</ele>
<time>2024-05-08T14:11:02Z</time>
</trkpt>
<trkpt lat="49.39813228324056" lon="9.14655301719904">
<ele>239.4</ele>
<time>2024-05-08T14:11:03Z</time>
</trkpt>
<trkpt lat="49.398174276575446" lon="9.146523429080844">
<ele>239.6</ele>
<time>2024-05-08T14:11:04Z</time>
</trkpt>
<trkpt lat="49.39820478670299" lon="9.146501468494534">
<ele>239.6</ele>
<time>2024-05-08T14:11:05Z</time>
</trkpt>
<trkpt lat="49.39824669621885" lon="9.146474814042447">
<ele>239.8</ele>
<time>2024-05-08T14:11:06Z</time>
</trkpt>
<trkpt lat="49.39828868955374" lon="9.146446147933602">
<ele>239.8</ele>
<time>2024-05-08T14:11:07Z</time>
</trkpt>
<trkpt lat="49.39833068288863" lon="9.146419493481517">
<ele>240</ele>
<time>2024-05-08T14:11:08Z</time>
</trkpt>
<trkpt lat="49.398376448079944" lon="9.14639376103878">
<ele>240</ele>
<time>2024-05-08T14:11:09Z</time>
</trkpt>
<trkpt lat="49.3984183575958" lon="9.146367944777012">
<ele>240</ele>
<time>2024-05-08T14:11:10Z</time>
</trkpt>
<trkpt lat="49.39846035093069" lon="9.146341290324926">
<ele>240</ele>
<time>2024-05-08T14:11:11Z</time>
</trkpt>
<trkpt lat="49.39849848859012" lon="9.146318407729268">
<ele>240</ele>
<time>2024-05-08T14:11:12Z</time>
</trkpt>
<trkpt lat="49.39854048192501" lon="9.14629451930523">
<ele>240.2</ele>
<time>2024-05-08T14:11:13Z</time>
</trkpt>
<trkpt lat="49.39857861958444" lon="9.146267864853144">
<ele>240.2</ele>
<time>2024-05-08T14:11:14Z</time>
</trkpt>
<trkpt lat="49.39861675724387" lon="9.146238276734948">
<ele>240.4</ele>
<time>2024-05-08T14:11:15Z</time>
</trkpt>
<trkpt lat="49.3986548949033" lon="9.14621346630156">
<ele>240.4</ele>
<time>2024-05-08T14:11:16Z</time>
</trkpt>
<trkpt lat="49.39869688823819" lon="9.146188655868173">
<ele>240.6</ele>
<time>2024-05-08T14:11:17Z</time>
</trkpt>
<trkpt lat="49.39873502589762" lon="9.146162923425436">
<ele>240.6</ele>
<time>2024-05-08T14:11:18Z</time>
</trkpt>
<trkpt lat="49.39877316355705" lon="9.14613526314497">
<ele>240.6</ele>
<time>2024-05-08T14:11:19Z</time>
</trkpt>
<trkpt lat="49.39881130121648" lon="9.146109530702232">
<ele>240.8</ele>
<time>2024-05-08T14:11:20Z</time>
</trkpt>
<trkpt lat="49.39884181134403" lon="9.146086648106577">
<ele>241</ele>
<time>2024-05-08T14:11:21Z</time>
</trkpt>
<trkpt lat="49.398887576535344" lon="9.146061837673187">
<ele>241.2</ele>
<time>2024-05-08T14:11:22Z</time>
</trkpt>
<trkpt lat="49.39892956987023" lon="9.14603803306818">
<ele>241.4</ele>
<time>2024-05-08T14:11:23Z</time>
</trkpt>
<trkpt lat="49.39897147938609" lon="9.146013222634792">
<ele>241.4</ele>
<time>2024-05-08T14:11:24Z</time>
</trkpt>
<trkpt lat="49.39901732839644" lon="9.145986484363675">
<ele>241.6</ele>
<time>2024-05-08T14:11:25Z</time>
</trkpt>
<trkpt lat="49.39905546605587" lon="9.14596175774932">
<ele>241.6</ele>
<time>2024-05-08T14:11:26Z</time>
</trkpt>
<trkpt lat="49.3990936037153" lon="9.145935019478202">
<ele>241.8</ele>
<time>2024-05-08T14:11:27Z</time>
</trkpt>
<trkpt lat="49.39913551323116" lon="9.145908281207085">
<ele>242</ele>
<time>2024-05-08T14:11:28Z</time>
</trkpt>
<trkpt lat="49.39917750656605" lon="9.14587969891727">
<ele>242.2</ele>
<time>2024-05-08T14:11:29Z</time>
</trkpt>
<trkpt lat="49.39921564422548" lon="9.145854888483882">
<ele>242.2</ele>
<time>2024-05-08T14:11:30Z</time>
</trkpt>
<trkpt lat="49.39925763756037" lon="9.145830078050494">
<ele>242.4</ele>
<time>2024-05-08T14:11:31Z</time>
</trkpt>
<trkpt lat="49.3992957752198" lon="9.145805351436138">
<ele>242.6</ele>
<time>2024-05-08T14:11:32Z</time>
</trkpt>
<trkpt lat="49.39933391287923" lon="9.14577953517437">
<ele>242.8</ele>
<time>2024-05-08T14:11:33Z</time>
</trkpt>
<trkpt lat="49.39936827868223" lon="9.145756652578712">
<ele>243</ele>
<time>2024-05-08T14:11:34Z</time>
</trkpt>
<trkpt lat="49.39940641634166" lon="9.145732847973704">
<ele>243</ele>
<time>2024-05-08T14:11:35Z</time>
</trkpt>
<trkpt lat="49.39944455400109" lon="9.145707115530968">
<ele>243.2</ele>
<time>2024-05-08T14:11:36Z</time>
</trkpt>
<trkpt lat="49.39948269166052" lon="9.1456812992692">
<ele>243.4</ele>
<time>2024-05-08T14:11:37Z</time>
</trkpt>
<trkpt lat="49.399520829319954" lon="9.145654644817114">
<ele>243.4</ele>
<time>2024-05-08T14:11:38Z</time>
</trkpt>
<trkpt lat="49.39955519512296" lon="9.145634612068534">
<ele>243.6</ele>
<time>2024-05-08T14:11:39Z</time>
</trkpt>
<trkpt lat="49.39958947710693" lon="9.145609801635146">
<ele>243.8</ele>
<time>2024-05-08T14:11:40Z</time>
</trkpt>
<trkpt lat="49.39962384290993" lon="9.145584991201758">
<ele>244</ele>
<time>2024-05-08T14:11:41Z</time>
</trkpt>
<trkpt lat="49.39966198056936" lon="9.145561186596751">
<ele>244.2</ele>
<time>2024-05-08T14:11:42Z</time>
</trkpt>
<trkpt lat="49.399696346372366" lon="9.145538304001091">
<ele>244.2</ele>
<time>2024-05-08T14:11:43Z</time>
</trkpt>
<trkpt lat="49.3997344840318" lon="9.145511565729976">
<ele>244.4</ele>
<time>2024-05-08T14:11:44Z</time>
</trkpt>
<trkpt lat="49.399776393547654" lon="9.14548298344016">
<ele>244.6</ele>
<time>2024-05-08T14:11:45Z</time>
</trkpt>
<trkpt lat="49.399818386882544" lon="9.145455323159696">
<ele>244.6</ele>
<time>2024-05-08T14:11:46Z</time>
</trkpt>
<trkpt lat="49.399856524541974" lon="9.14542674086988">
<ele>244.8</ele>
<time>2024-05-08T14:11:47Z</time>
</trkpt>
<trkpt lat="49.39990228973329" lon="9.145400002598764">
<ele>244.8</ele>
<time>2024-05-08T14:11:48Z</time>
</trkpt>
<trkpt lat="49.39994042739272" lon="9.145371420308948">
<ele>245</ele>
<time>2024-05-08T14:11:49Z</time>
</trkpt>
<trkpt lat="49.39998242072761" lon="9.14534468203783">
<ele>245</ele>
<time>2024-05-08T14:11:50Z</time>
</trkpt>
<trkpt lat="49.4000244140625" lon="9.145318027585745">
<ele>245</ele>
<time>2024-05-08T14:11:51Z</time>
</trkpt>
<trkpt lat="49.40006255172193" lon="9.145293217152355">
<ele>245</ele>
<time>2024-05-08T14:11:52Z</time>
</trkpt>
<trkpt lat="49.40010446123779" lon="9.14526647888124">
<ele>245</ele>
<time>2024-05-08T14:11:53Z</time>
</trkpt>
<trkpt lat="49.40014645457268" lon="9.145241668447852">
<ele>245</ele>
<time>2024-05-08T14:11:54Z</time>
</trkpt>
<trkpt lat="49.40018459223211" lon="9.145221635699272">
<ele>245</ele>
<time>2024-05-08T14:11:55Z</time>
</trkpt>
<trkpt lat="49.40022272989154" lon="9.14520830847323">
<ele>245</ele>
<time>2024-05-08T14:11:56Z</time>
</trkpt>
<trkpt lat="49.40025709569454" lon="9.145191125571728">
<ele>245</ele>
<time>2024-05-08T14:11:57Z</time>
</trkpt>
<trkpt lat="49.40029137767851" lon="9.145173020660875">
<ele>245</ele>
<time>2024-05-08T14:11:58Z</time>
</trkpt>
<trkpt lat="49.40032188780606" lon="9.145152065902948">
<ele>245</ele>
<time>2024-05-08T14:11:59Z</time>
</trkpt>
<trkpt lat="49.4003523979336" lon="9.14513010531664">
<ele>245</ele>
<time>2024-05-08T14:12:00Z</time>
</trkpt>
<trkpt lat="49.40038299188018" lon="9.145106300711632">
<ele>245</ele>
<time>2024-05-08T14:12:01Z</time>
</trkpt>
<trkpt lat="49.400409646332264" lon="9.14508819580078">
<ele>245</ele>
<time>2024-05-08T14:12:02Z</time>
</trkpt>
<trkpt lat="49.40043638460338" lon="9.145066235214472">
<ele>245.2</ele>
<time>2024-05-08T14:12:03Z</time>
</trkpt>
<trkpt lat="49.40046303905547" lon="9.14504813030362">
<ele>245.2</ele>
<time>2024-05-08T14:12:04Z</time>
</trkpt>
<trkpt lat="49.400489777326584" lon="9.14502994157374">
<ele>245.4</ele>
<time>2024-05-08T14:12:05Z</time>
</trkpt>
<trkpt lat="49.40051643177867" lon="9.14500999264419">
<ele>245.4</ele>
<time>2024-05-08T14:12:06Z</time>
</trkpt>
<trkpt lat="49.40053939819336" lon="9.14498995989561">
<ele>245.4</ele>
<time>2024-05-08T14:12:07Z</time>
</trkpt>
<trkpt lat="49.400566052645445" lon="9.144973699003458">
<ele>245.6</ele>
<time>2024-05-08T14:12:08Z</time>
</trkpt>
<trkpt lat="49.40059656277299" lon="9.144958443939686">
<ele>245.6</ele>
<time>2024-05-08T14:12:09Z</time>
</trkpt>
<trkpt lat="49.40062330104411" lon="9.144943188875914">
<ele>245.6</ele>
<time>2024-05-08T14:12:10Z</time>
</trkpt>
<trkpt lat="49.40064995549619" lon="9.14492793381214">
<ele>245.8</ele>
<time>2024-05-08T14:12:11Z</time>
</trkpt>
<trkpt lat="49.40067669376731" lon="9.144906979054213">
<ele>245.8</ele>
<time>2024-05-08T14:12:12Z</time>
</trkpt>
<trkpt lat="49.40069957636297" lon="9.144886946305633">
<ele>245.8</ele>
<time>2024-05-08T14:12:13Z</time>
</trkpt>
<trkpt lat="49.40073008649051" lon="9.144866913557053">
<ele>246</ele>
<time>2024-05-08T14:12:14Z</time>
</trkpt>
<trkpt lat="49.40075682476163" lon="9.144844952970743">
<ele>246.2</ele>
<time>2024-05-08T14:12:15Z</time>
</trkpt>
<trkpt lat="49.40078733488917" lon="9.144822992384434">
<ele>246.2</ele>
<time>2024-05-08T14:12:16Z</time>
</trkpt>
<trkpt lat="49.400821616873145" lon="9.144802037626503">
<ele>246.4</ele>
<time>2024-05-08T14:12:17Z</time>
</trkpt>
<trkpt lat="49.40085212700069" lon="9.144778233021498">
<ele>246.4</ele>
<time>2024-05-08T14:12:18Z</time>
</trkpt>
<trkpt lat="49.40088649280369" lon="9.14475149475038">
<ele>246.4</ele>
<time>2024-05-08T14:12:19Z</time>
</trkpt>
<trkpt lat="49.40091700293124" lon="9.144724840298297">
<ele>246.6</ele>
<time>2024-05-08T14:12:20Z</time>
</trkpt>
<trkpt lat="49.40095136873424" lon="9.144698102027178">
<ele>246.6</ele>
<time>2024-05-08T14:12:21Z</time>
</trkpt>
<trkpt lat="49.40098565071821" lon="9.14467329159379">
<ele>246.8</ele>
<time>2024-05-08T14:12:22Z</time>
</trkpt>
<trkpt lat="49.401020016521215" lon="9.144650408998132">
<ele>247</ele>
<time>2024-05-08T14:12:23Z</time>
</trkpt>
<trkpt lat="49.401058154180646" lon="9.144628448411822">
<ele>247</ele>
<time>2024-05-08T14:12:24Z</time>
</trkpt>
<trkpt lat="49.40109251998365" lon="9.144606571644545">
<ele>247.2</ele>
<time>2024-05-08T14:12:25Z</time>
</trkpt>
<trkpt lat="49.40112680196762" lon="9.144584611058235">
<ele>247.2</ele>
<time>2024-05-08T14:12:26Z</time>
</trkpt>
<trkpt lat="49.40116493962705" lon="9.144559800624847">
<ele>247.2</ele>
<time>2024-05-08T14:12:27Z</time>
</trkpt>
<trkpt lat="49.401199305430055" lon="9.14453499019146">
<ele>247.2</ele>
<time>2024-05-08T14:12:28Z</time>
</trkpt>
<trkpt lat="49.40123367123306" lon="9.144510263577104">
<ele>247.2</ele>
<time>2024-05-08T14:12:29Z</time>
</trkpt>
<trkpt lat="49.40126795321703" lon="9.144486375153065">
<ele>247.2</ele>
<time>2024-05-08T14:12:30Z</time>
</trkpt>
<trkpt lat="49.401298463344574" lon="9.144461564719675">
<ele>247.2</ele>
<time>2024-05-08T14:12:31Z</time>
</trkpt>
<trkpt lat="49.40133282914758" lon="9.14443868212402">
<ele>247.2</ele>
<time>2024-05-08T14:12:32Z</time>
</trkpt>
<trkpt lat="49.40137096680701" lon="9.144412949681282">
<ele>247.2</ele>
<time>2024-05-08T14:12:33Z</time>
</trkpt>
<trkpt lat="49.40140533261001" lon="9.144390067085624">
<ele>247.2</ele>
<time>2024-05-08T14:12:34Z</time>
</trkpt>
<trkpt lat="49.40144724212587" lon="9.144363328814508">
<ele>247.2</ele>
<time>2024-05-08T14:12:35Z</time>
</trkpt>
<trkpt lat="49.4014853797853" lon="9.144334746524692">
<ele>247.2</ele>
<time>2024-05-08T14:12:36Z</time>
</trkpt>
<trkpt lat="49.40152737312019" lon="9.144308008253574">
<ele>247.2</ele>
<time>2024-05-08T14:12:37Z</time>
</trkpt>
<trkpt lat="49.40160750411451" lon="9.144249837845564">
<ele>247.2</ele>
<time>2024-05-08T14:12:38Z</time>
</trkpt>
<trkpt lat="49.40164564177394" lon="9.144221255555747">
<ele>247.2</ele>
<time>2024-05-08T14:12:40Z</time>
</trkpt>
<trkpt lat="49.4016875512898" lon="9.144193595275285">
<ele>247.2</ele>
<time>2024-05-08T14:12:41Z</time>
</trkpt>
<trkpt lat="49.401729544624686" lon="9.144166940823196">
<ele>247.2</ele>
<time>2024-05-08T14:12:42Z</time>
</trkpt>
<trkpt lat="49.401771537959576" lon="9.14413827471435">
<ele>247.4</ele>
<time>2024-05-08T14:12:43Z</time>
</trkpt>
<trkpt lat="49.40181344747543" lon="9.144111620262263">
<ele>247.4</ele>
<time>2024-05-08T14:12:44Z</time>
</trkpt>
<trkpt lat="49.40185544081032" lon="9.14408295415342">
<ele>247.4</ele>
<time>2024-05-08T14:12:45Z</time>
</trkpt>
<trkpt lat="49.40189735032618" lon="9.144055293872952">
<ele>247.4</ele>
<time>2024-05-08T14:12:46Z</time>
</trkpt>
<trkpt lat="49.40194319933653" lon="9.144029561430216">
<ele>247.4</ele>
<time>2024-05-08T14:12:47Z</time>
</trkpt>
<trkpt lat="49.40198510885239" lon="9.14400190114975">
<ele>247.4</ele>
<time>2024-05-08T14:12:48Z</time>
</trkpt>
<trkpt lat="49.40202324651182" lon="9.143975246697664">
<ele>247.4</ele>
<time>2024-05-08T14:12:49Z</time>
</trkpt>
<trkpt lat="49.402065239846706" lon="9.14394373074174">
<ele>247.4</ele>
<time>2024-05-08T14:12:50Z</time>
</trkpt>
<trkpt lat="49.40210337750614" lon="9.143906515091658">
<ele>247.4</ele>
<time>2024-05-08T14:12:51Z</time>
</trkpt>
<trkpt lat="49.40214151516557" lon="9.143868377432227">
<ele>247.4</ele>
<time>2024-05-08T14:12:52Z</time>
</trkpt>
<trkpt lat="49.40217202529311" lon="9.143828311935067">
<ele>247.4</ele>
<time>2024-05-08T14:12:53Z</time>
</trkpt>
<trkpt lat="49.402206391096115" lon="9.143790174275637">
<ele>247.4</ele>
<time>2024-05-08T14:12:54Z</time>
</trkpt>
<trkpt lat="49.402244528755546" lon="9.143752036616206">
<ele>247.4</ele>
<time>2024-05-08T14:12:55Z</time>
</trkpt>
<trkpt lat="49.402286522090435" lon="9.143712976947429">
<ele>247.4</ele>
<time>2024-05-08T14:12:56Z</time>
</trkpt>
<trkpt lat="49.402324659749866" lon="9.143672911450269">
<ele>247.4</ele>
<time>2024-05-08T14:12:57Z</time>
</trkpt>
<trkpt lat="49.40236656926572" lon="9.143634773790836">
<ele>247.4</ele>
<time>2024-05-08T14:12:58Z</time>
</trkpt>
<trkpt lat="49.402404706925154" lon="9.143598480150104">
<ele>247.4</ele>
<time>2024-05-08T14:12:59Z</time>
</trkpt>
<trkpt lat="49.40244670026004" lon="9.143561348319054">
<ele>247.4</ele>
<time>2024-05-08T14:13:00Z</time>
</trkpt>
<trkpt lat="49.402484837919474" lon="9.14352505467832">
<ele>247.4</ele>
<time>2024-05-08T14:13:01Z</time>
</trkpt>
<trkpt lat="49.40252683125436" lon="9.14348691701889">
<ele>247.4</ele>
<time>2024-05-08T14:13:02Z</time>
</trkpt>
<trkpt lat="49.402564968913794" lon="9.14344685152173">
<ele>247.4</ele>
<time>2024-05-08T14:13:03Z</time>
</trkpt>
<trkpt lat="49.402603106573224" lon="9.1434087138623">
<ele>247.4</ele>
<time>2024-05-08T14:13:04Z</time>
</trkpt>
<trkpt lat="49.402641244232655" lon="9.14336864836514">
<ele>247.4</ele>
<time>2024-05-08T14:13:05Z</time>
</trkpt>
<trkpt lat="49.402679381892085" lon="9.143333360552788">
<ele>247.6</ele>
<time>2024-05-08T14:13:06Z</time>
</trkpt>
<trkpt lat="49.40271374769509" lon="9.143296228721738">
<ele>247.6</ele>
<time>2024-05-08T14:13:07Z</time>
</trkpt>
<trkpt lat="49.40275188535452" lon="9.143259935081003">
<ele>247.6</ele>
<time>2024-05-08T14:13:08Z</time>
</trkpt>
<trkpt lat="49.40278625115752" lon="9.143223725259304">
<ele>247.8</ele>
<time>2024-05-08T14:13:09Z</time>
</trkpt>
<trkpt lat="49.402820533141494" lon="9.143186509609222">
<ele>247.8</ele>
<time>2024-05-08T14:13:10Z</time>
</trkpt>
<trkpt lat="49.4028548989445" lon="9.1431531496346">
<ele>248</ele>
<time>2024-05-08T14:13:11Z</time>
</trkpt>
<trkpt lat="49.40288918092847" lon="9.143121717497706">
<ele>248</ele>
<time>2024-05-08T14:13:12Z</time>
</trkpt>
<trkpt lat="49.40291969105601" lon="9.143086429685354">
<ele>248.2</ele>
<time>2024-05-08T14:13:13Z</time>
</trkpt>
<trkpt lat="49.40294642932713" lon="9.14305491372943">
<ele>248.2</ele>
<time>2024-05-08T14:13:14Z</time>
</trkpt>
<trkpt lat="49.402976939454675" lon="9.143026331439614">
<ele>248.4</ele>
<time>2024-05-08T14:13:15Z</time>
</trkpt>
<trkpt lat="49.40301130525768" lon="9.143001521006228">
<ele>248.4</ele>
<time>2024-05-08T14:13:16Z</time>
</trkpt>
<trkpt lat="49.40304558724165" lon="9.14297671057284">
<ele>248.4</ele>
<time>2024-05-08T14:13:17Z</time>
</trkpt>
<trkpt lat="49.40307995304465" lon="9.142948128283024">
<ele>248.4</ele>
<time>2024-05-08T14:13:18Z</time>
</trkpt>
<trkpt lat="49.40310660749674" lon="9.1429166123271">
<ele>248.6</ele>
<time>2024-05-08T14:13:19Z</time>
</trkpt>
<trkpt lat="49.403137201443315" lon="9.142883252352476">
<ele>248.6</ele>
<time>2024-05-08T14:13:20Z</time>
</trkpt>
<trkpt lat="49.40316771157086" lon="9.142851820215585">
<ele>248.8</ele>
<time>2024-05-08T14:13:21Z</time>
</trkpt>
<trkpt lat="49.4031982216984" lon="9.142820304259658">
<ele>249</ele>
<time>2024-05-08T14:13:22Z</time>
</trkpt>
<trkpt lat="49.40322873182595" lon="9.142793649807572">
<ele>249.2</ele>
<time>2024-05-08T14:13:23Z</time>
</trkpt>
<trkpt lat="49.40325924195349" lon="9.142764983698726">
<ele>249.2</ele>
<time>2024-05-08T14:13:24Z</time>
</trkpt>
<trkpt lat="49.40328975208104" lon="9.14273640140891">
<ele>249.4</ele>
<time>2024-05-08T14:13:25Z</time>
</trkpt>
<trkpt lat="49.40332026220858" lon="9.142704885452986">
<ele>249.4</ele>
<time>2024-05-08T14:13:26Z</time>
</trkpt>
<trkpt lat="49.403350772336125" lon="9.14267630316317">
<ele>249.4</ele>
<time>2024-05-08T14:13:27Z</time>
</trkpt>
<trkpt lat="49.40338513813913" lon="9.142646715044975">
<ele>249.4</ele>
<time>2024-05-08T14:13:28Z</time>
</trkpt>
<trkpt lat="49.4034194201231" lon="9.14261813275516">
<ele>249.6</ele>
<time>2024-05-08T14:13:29Z</time>
</trkpt>
<trkpt lat="49.403449930250645" lon="9.142591394484043">
<ele>249.6</ele>
<time>2024-05-08T14:13:30Z</time>
</trkpt>
<trkpt lat="49.40348052419722" lon="9.142564740031958">
<ele>249.8</ele>
<time>2024-05-08T14:13:31Z</time>
</trkpt>
<trkpt lat="49.403511034324765" lon="9.1425418574363">
<ele>250</ele>
<time>2024-05-08T14:13:32Z</time>
</trkpt>
<trkpt lat="49.40353768877685" lon="9.142515119165182">
<ele>250</ele>
<time>2024-05-08T14:13:33Z</time>
</trkpt>
<trkpt lat="49.40356442704797" lon="9.142490308731794">
<ele>250</ele>
<time>2024-05-08T14:13:34Z</time>
</trkpt>
<trkpt lat="49.40359108150005" lon="9.14246172644198">
<ele>250.2</ele>
<time>2024-05-08T14:13:35Z</time>
</trkpt>
<trkpt lat="49.40361781977117" lon="9.142430294305086">
<ele>250.2</ele>
<time>2024-05-08T14:13:36Z</time>
</trkpt>
<trkpt lat="49.40364455804229" lon="9.142396850511432">
<ele>250.2</ele>
<time>2024-05-08T14:13:37Z</time>
</trkpt>
<trkpt lat="49.40367121249437" lon="9.142363490536807">
<ele>250</ele>
<time>2024-05-08T14:13:38Z</time>
</trkpt>
<trkpt lat="49.40370172262192" lon="9.142330130562186">
<ele>249.8</ele>
<time>2024-05-08T14:13:39Z</time>
</trkpt>
<trkpt lat="49.403728460893035" lon="9.142292914912105">
<ele>250</ele>
<time>2024-05-08T14:13:40Z</time>
</trkpt>
<trkpt lat="49.40376274287701" lon="9.142254777252674">
<ele>250.2</ele>
<time>2024-05-08T14:13:41Z</time>
</trkpt>
<trkpt lat="49.40379325300455" lon="9.142212867736816">
<ele>250.2</ele>
<time>2024-05-08T14:13:42Z</time>
</trkpt>
<trkpt lat="49.40382384695113" lon="9.142173724249004">
<ele>250.4</ele>
<time>2024-05-08T14:13:43Z</time>
</trkpt>
<trkpt lat="49.4038581289351" lon="9.142129886895418">
<ele>250.6</ele>
<time>2024-05-08T14:13:44Z</time>
</trkpt>
<trkpt lat="49.4038924947381" lon="9.14208504371345">
<ele>250.8</ele>
<time>2024-05-08T14:13:45Z</time>
</trkpt>
<trkpt lat="49.403923004865646" lon="9.142033495008944">
<ele>251</ele>
<time>2024-05-08T14:13:46Z</time>
</trkpt>
<trkpt lat="49.40395728684962" lon="9.141978258267043">
<ele>251.2</ele>
<time>2024-05-08T14:13:47Z</time>
</trkpt>
<trkpt lat="49.40399165265262" lon="9.141921931877732">
<ele>251.4</ele>
<time>2024-05-08T14:13:48Z</time>
</trkpt>
<trkpt lat="49.404022162780166" lon="9.141859989613296">
<ele>251.2</ele>
<time>2024-05-08T14:13:49Z</time>
</trkpt>
<trkpt lat="49.40405652858317" lon="9.141797041520476">
<ele>251.2</ele>
<time>2024-05-08T14:13:50Z</time>
</trkpt>
<trkpt lat="49.40408703871071" lon="9.141735015437009">
<ele>251</ele>
<time>2024-05-08T14:13:51Z</time>
</trkpt>
<trkpt lat="49.404121320694685" lon="9.14167307317257">
<ele>251</ele>
<time>2024-05-08T14:13:52Z</time>
</trkpt>
<trkpt lat="49.40415191464126" lon="9.141610125079753">
<ele>251.2</ele>
<time>2024-05-08T14:13:53Z</time>
</trkpt>
<trkpt lat="49.40417856909335" lon="9.141545249149203">
<ele>251.2</ele>
<time>2024-05-08T14:13:54Z</time>
</trkpt>
<trkpt lat="49.40420907922089" lon="9.141481379047036">
<ele>251.4</ele>
<time>2024-05-08T14:13:55Z</time>
</trkpt>
<trkpt lat="49.404239589348435" lon="9.141418430954218">
<ele>251.8</ele>
<time>2024-05-08T14:13:56Z</time>
</trkpt>
<trkpt lat="49.40427009947598" lon="9.14135456085205">
<ele>252</ele>
<time>2024-05-08T14:13:57Z</time>
</trkpt>
<trkpt lat="49.4042968377471" lon="9.14129538461566">
<ele>252</ele>
<time>2024-05-08T14:13:58Z</time>
</trkpt>
<trkpt lat="49.404323576018214" lon="9.141231514513493">
<ele>252.2</ele>
<time>2024-05-08T14:13:59Z</time>
</trkpt>
<trkpt lat="49.40435408614576" lon="9.141166638582945">
<ele>252.6</ele>
<time>2024-05-08T14:14:00Z</time>
</trkpt>
<trkpt lat="49.40438074059784" lon="9.141103690490128">
<ele>252.8</ele>
<time>2024-05-08T14:14:01Z</time>
</trkpt>
<trkpt lat="49.40440747886896" lon="9.141043592244388">
<ele>253</ele>
<time>2024-05-08T14:14:02Z</time>
</trkpt>
<trkpt lat="49.404437988996506" lon="9.140983577817678">
<ele>253.2</ele>
<time>2024-05-08T14:14:03Z</time>
</trkpt>
<trkpt lat="49.40446464344859" lon="9.140925407409668">
<ele>253.4</ele>
<time>2024-05-08T14:14:04Z</time>
</trkpt>
<trkpt lat="49.40449138171971" lon="9.1408633813262">
<ele>253.4</ele>
<time>2024-05-08T14:14:05Z</time>
</trkpt>
<trkpt lat="49.404518119990826" lon="9.14080328308046">
<ele>253.4</ele>
<time>2024-05-08T14:14:06Z</time>
</trkpt>
<trkpt lat="49.40454477444291" lon="9.14074318483472">
<ele>253.4</ele>
<time>2024-05-08T14:14:07Z</time>
</trkpt>
<trkpt lat="49.40457151271403" lon="9.14068317040801">
<ele>253.4</ele>
<time>2024-05-08T14:14:08Z</time>
</trkpt>
<trkpt lat="49.404598167166114" lon="9.140625">
<ele>253.6</ele>
<time>2024-05-08T14:14:09Z</time>
</trkpt>
<trkpt lat="49.40462490543723" lon="9.140566745772958">
<ele>253.8</ele>
<time>2024-05-08T14:14:10Z</time>
</trkpt>
<trkpt lat="49.40465155988932" lon="9.140508575364947">
<ele>254</ele>
<time>2024-05-08T14:14:11Z</time>
</trkpt>
<trkpt lat="49.404678298160434" lon="9.140451410785316">
<ele>254.2</ele>
<time>2024-05-08T14:14:12Z</time>
</trkpt>
<trkpt lat="49.40470503643155" lon="9.140397012233734">
<ele>254.2</ele>
<time>2024-05-08T14:14:13Z</time>
</trkpt>
<trkpt lat="49.40472791902721" lon="9.140341691672802">
<ele>254.4</ele>
<time>2024-05-08T14:14:14Z</time>
</trkpt>
<trkpt lat="49.404754573479295" lon="9.140284527093172">
<ele>254.4</ele>
<time>2024-05-08T14:14:15Z</time>
</trkpt>
<trkpt lat="49.40478131175041" lon="9.140226356685162">
<ele>254.6</ele>
<time>2024-05-08T14:14:16Z</time>
</trkpt>
<trkpt lat="49.40480419434607" lon="9.14016525261104">
<ele>254.8</ele>
<time>2024-05-08T14:14:17Z</time>
</trkpt>
<trkpt lat="49.40483093261719" lon="9.140103310346603">
<ele>255</ele>
<time>2024-05-08T14:14:18Z</time>
</trkpt>
<trkpt lat="49.40486144274473" lon="9.140038434416056">
<ele>255</ele>
<time>2024-05-08T14:14:19Z</time>
</trkpt>
<trkpt lat="49.40488809719682" lon="9.13997171446681">
<ele>255.2</ele>
<time>2024-05-08T14:14:20Z</time>
</trkpt>
<trkpt lat="49.40491860732436" lon="9.139908766373992">
<ele>255.4</ele>
<time>2024-05-08T14:14:21Z</time>
</trkpt>
<trkpt lat="49.404949117451906" lon="9.139846740290524">
<ele>255.8</ele>
<time>2024-05-08T14:14:22Z</time>
</trkpt>
<trkpt lat="49.40497585572302" lon="9.139781948179008">
<ele>256</ele>
<time>2024-05-08T14:14:23Z</time>
</trkpt>
<trkpt lat="49.40500259399414" lon="9.13971707224846">
<ele>256.4</ele>
<time>2024-05-08T14:14:24Z</time>
</trkpt>
<trkpt lat="49.405029248446226" lon="9.13965504616499">
<ele>256.6</ele>
<time>2024-05-08T14:14:25Z</time>
</trkpt>
<trkpt lat="49.40505598671734" lon="9.139601653441789">
<ele>256.6</ele>
<time>2024-05-08T14:14:26Z</time>
</trkpt>
<trkpt lat="49.40508264116943" lon="9.139548260718584">
<ele>256.6</ele>
<time>2024-05-08T14:14:27Z</time>
</trkpt>
<trkpt lat="49.40511315129697" lon="9.139492940157652">
<ele>256.799</ele>
<time>2024-05-08T14:14:28Z</time>
</trkpt>
<trkpt lat="49.40513988956809" lon="9.139432841911912">
<ele>257</ele>
<time>2024-05-08T14:14:29Z</time>
</trkpt>
<trkpt lat="49.405166544020176" lon="9.139369893819094">
<ele>257</ele>
<time>2024-05-08T14:14:30Z</time>
</trkpt>
<trkpt lat="49.40519328229129" lon="9.139309879392384">
<ele>257.2</ele>
<time>2024-05-08T14:14:31Z</time>
</trkpt>
<trkpt lat="49.40522002056241" lon="9.139247853308916">
<ele>257.2</ele>
<time>2024-05-08T14:14:32Z</time>
</trkpt>
<trkpt lat="49.405246675014496" lon="9.139186833053827">
<ele>257.4</ele>
<time>2024-05-08T14:14:33Z</time>
</trkpt>
<trkpt lat="49.40527341328561" lon="9.139126734808087">
<ele>257.6</ele>
<time>2024-05-08T14:14:34Z</time>
</trkpt>
<trkpt lat="49.40530392341316" lon="9.139068564400077">
<ele>257.799</ele>
<time>2024-05-08T14:14:35Z</time>
</trkpt>
<trkpt lat="49.4053344335407" lon="9.139017099514604">
<ele>257.799</ele>
<time>2024-05-08T14:14:36Z</time>
</trkpt>
<trkpt lat="49.405364943668246" lon="9.13896655663848">
<ele>258</ele>
<time>2024-05-08T14:14:37Z</time>
</trkpt>
<trkpt lat="49.40540308132768" lon="9.138917857781053">
<ele>258.2</ele>
<time>2024-05-08T14:14:38Z</time>
</trkpt>
<trkpt lat="49.40543744713068" lon="9.138874942436814">
<ele>258.4</ele>
<time>2024-05-08T14:14:39Z</time>
</trkpt>
<trkpt lat="49.40547172911465" lon="9.138832027092576">
<ele>258.4</ele>
<time>2024-05-08T14:14:40Z</time>
</trkpt>
<trkpt lat="49.405506094917655" lon="9.138792967423797">
<ele>258.6</ele>
<time>2024-05-08T14:14:41Z</time>
</trkpt>
<trkpt lat="49.405544232577085" lon="9.138758601620792">
<ele>258.799</ele>
<time>2024-05-08T14:14:42Z</time>
</trkpt>
<trkpt lat="49.40557859838009" lon="9.138728091493247">
<ele>259</ele>
<time>2024-05-08T14:14:43Z</time>
</trkpt>
<trkpt lat="49.40561673603952" lon="9.138698503375052">
<ele>259.2</ele>
<time>2024-05-08T14:14:44Z</time>
</trkpt>
<trkpt lat="49.40565101802349" lon="9.138671848922968">
<ele>259.2</ele>
<time>2024-05-08T14:14:45Z</time>
</trkpt>
<trkpt lat="49.40568923950195" lon="9.13864511065185">
<ele>259.4</ele>
<time>2024-05-08T14:14:46Z</time>
</trkpt>
<trkpt lat="49.405727377161384" lon="9.138618456199763">
<ele>259.4</ele>
<time>2024-05-08T14:14:47Z</time>
</trkpt>
<trkpt lat="49.40575788728893" lon="9.138600267469885">
<ele>259.6</ele>
<time>2024-05-08T14:14:48Z</time>
</trkpt>
<trkpt lat="49.40577691420913" lon="9.13858694024384">
<ele>259.799</ele>
<time>2024-05-08T14:14:49Z</time>
</trkpt>
<trkpt lat="49.40578454174101" lon="9.138583168387411">
<ele>259.799</ele>
<time>2024-05-08T14:14:50Z</time>
</trkpt>
<trkpt lat="49.40578454174101" lon="9.13858501240611">
<ele>260</ele>
<time>2024-05-08T14:14:52Z</time>
</trkpt>
<trkpt lat="49.40578454174101" lon="9.138583168387411">
<ele>260</ele>
<time>2024-05-08T14:14:53Z</time>
</trkpt>
<trkpt lat="49.40578454174101" lon="9.138581240549684">
<ele>260.2</ele>
<time>2024-05-08T14:14:54Z</time>
</trkpt>
<trkpt lat="49.405780769884586" lon="9.138581240549684">
<ele>260.2</ele>
<time>2024-05-08T14:14:56Z</time>
</trkpt>
<trkpt lat="49.40578454174101" lon="9.138581240549684">
<ele>260.2</ele>
<time>2024-05-08T14:14:59Z</time>
</trkpt>
<trkpt lat="49.40578454174101" lon="9.138583168387411">
<ele>260.4</ele>
<time>2024-05-08T14:15:01Z</time>
</trkpt>
<trkpt lat="49.40578454174101" lon="9.13858501240611">
<ele>260.4</ele>
<time>2024-05-08T14:15:07Z</time>
</trkpt>
<trkpt lat="49.40578454174101" lon="9.13858694024384">
<ele>260.4</ele>
<time>2024-05-08T14:15:17Z</time>
</trkpt>
<trkpt lat="49.40578454174101" lon="9.13858794607222">
<ele>260.2</ele>
<time>2024-05-08T14:15:21Z</time>
</trkpt>
<trkpt lat="49.405780769884586" lon="9.13858794607222">
<ele>260.2</ele>
<time>2024-05-08T14:15:23Z</time>
</trkpt>
<trkpt lat="49.405780769884586" lon="9.13858979009092">
<ele>260</ele>
<time>2024-05-08T14:15:30Z</time>
</trkpt>
<trkpt lat="49.405780769884586" lon="9.13858794607222">
<ele>259.799</ele>
<time>2024-05-08T14:15:46Z</time>
</trkpt>
<trkpt lat="49.405780769884586" lon="9.13858979009092">
<ele>259.799</ele>
<time>2024-05-08T14:15:51Z</time>
</trkpt>
<trkpt lat="49.405780769884586" lon="9.138591717928648">
<ele>259.6</ele>
<time>2024-05-08T14:15:54Z</time>
</trkpt>
<trkpt lat="49.40577691420913" lon="9.138591717928648">
<ele>259.6</ele>
<time>2024-05-08T14:15:55Z</time>
</trkpt>
<trkpt lat="49.40577691420913" lon="9.138593645766376">
<ele>259.4</ele>
<time>2024-05-08T14:15:58Z</time>
</trkpt>
<trkpt lat="49.40577691420913" lon="9.138591717928648">
<ele>259.4</ele>
<time>2024-05-08T14:16:02Z</time>
</trkpt>
<trkpt lat="49.40577691420913" lon="9.13858979009092">
<ele>259.4</ele>
<time>2024-05-08T14:16:06Z</time>
</trkpt>
<trkpt lat="49.40577691420913" lon="9.138591717928648">
<ele>259.2</ele>
<time>2024-05-08T14:16:10Z</time>
</trkpt>
<trkpt lat="49.40577691420913" lon="9.138593645766376">
<ele>259.2</ele>
<time>2024-05-08T14:16:20Z</time>
</trkpt>
<trkpt lat="49.405780769884586" lon="9.138593645766376">
<ele>259.2</ele>
<time>2024-05-08T14:16:21Z</time>
</trkpt>
<trkpt lat="49.40578454174101" lon="9.138598423451183">
<ele>259.2</ele>
<time>2024-05-08T14:16:22Z</time>
</trkpt>
<trkpt lat="49.40578454174101" lon="9.138600267469885">
<ele>259</ele>
<time>2024-05-08T14:16:23Z</time>
</trkpt>
<trkpt lat="49.40578839741647" lon="9.138601273298264">
<ele>259</ele>
<time>2024-05-08T14:16:24Z</time>
</trkpt>
<trkpt lat="49.40579602494836" lon="9.1386079788208">
<ele>259</ele>
<time>2024-05-08T14:16:25Z</time>
</trkpt>
<trkpt lat="49.405799796804786" lon="9.13860504515469">
<ele>259</ele>
<time>2024-05-08T14:16:26Z</time>
</trkpt>
<trkpt lat="49.405803652480245" lon="9.13860504515469">
<ele>259</ele>
<time>2024-05-08T14:16:27Z</time>
</trkpt>
<trkpt lat="49.405803652480245" lon="9.13860697299242">
<ele>259</ele>
<time>2024-05-08T14:16:28Z</time>
</trkpt>
<trkpt lat="49.40580742433667" lon="9.13860504515469">
<ele>259</ele>
<time>2024-05-08T14:16:30Z</time>
</trkpt>
<trkpt lat="49.40580742433667" lon="9.13860697299242">
<ele>259</ele>
<time>2024-05-08T14:16:32Z</time>
</trkpt>
<trkpt lat="49.40580742433667" lon="9.13860504515469">
<ele>259</ele>
<time>2024-05-08T14:16:34Z</time>
</trkpt>
<trkpt lat="49.40581890754402" lon="9.1386098228395">
<ele>259</ele>
<time>2024-05-08T14:16:35Z</time>
</trkpt>
<trkpt lat="49.4058265350759" lon="9.1386079788208">
<ele>259</ele>
<time>2024-05-08T14:16:36Z</time>
</trkpt>
<trkpt lat="49.4058455619961" lon="9.13860504515469">
<ele>259</ele>
<time>2024-05-08T14:16:37Z</time>
</trkpt>
<trkpt lat="49.40586852841079" lon="9.138598423451183">
<ele>259</ele>
<time>2024-05-08T14:16:38Z</time>
</trkpt>
<trkpt lat="49.40589518286288" lon="9.138591717928648">
<ele>259.2</ele>
<time>2024-05-08T14:16:39Z</time>
</trkpt>
<trkpt lat="49.405921921133995" lon="9.13858794607222">
<ele>259.4</ele>
<time>2024-05-08T14:16:40Z</time>
</trkpt>
<trkpt lat="49.40595620311797" lon="9.13858794607222">
<ele>259.6</ele>
<time>2024-05-08T14:16:41Z</time>
</trkpt>
<trkpt lat="49.40598671324551" lon="9.13858979009092">
<ele>259.6</ele>
<time>2024-05-08T14:16:42Z</time>
</trkpt>
<trkpt lat="49.406017223373055" lon="9.138591717928648">
<ele>259.6</ele>
<time>2024-05-08T14:16:43Z</time>
</trkpt>
<trkpt lat="49.40605158917606" lon="9.138593645766376">
<ele>259.6</ele>
<time>2024-05-08T14:16:44Z</time>
</trkpt>
<trkpt lat="49.406078327447176" lon="9.138603201135991">
<ele>259.799</ele>
<time>2024-05-08T14:16:45Z</time>
</trkpt>
<trkpt lat="49.406101210042834" lon="9.138613678514956">
<ele>260</ele>
<time>2024-05-08T14:16:46Z</time>
</trkpt>
<trkpt lat="49.40613172017038" lon="9.13862507790327">
<ele>260.2</ele>
<time>2024-05-08T14:16:47Z</time>
</trkpt>
<trkpt lat="49.40616600215435" lon="9.138633711263536">
<ele>260.4</ele>
<time>2024-05-08T14:16:48Z</time>
</trkpt>
<trkpt lat="49.4062118511647" lon="9.138647960498927">
<ele>260.6</ele>
<time>2024-05-08T14:16:49Z</time>
</trkpt>
<trkpt lat="49.40625376068056" lon="9.13866514340043">
<ele>260.6</ele>
<time>2024-05-08T14:16:50Z</time>
</trkpt>
<trkpt lat="49.40629189833999" lon="9.138691881671548">
<ele>260.6</ele>
<time>2024-05-08T14:16:51Z</time>
</trkpt>
<trkpt lat="49.40633003599942" lon="9.138716692104936">
<ele>260.799</ele>
<time>2024-05-08T14:16:52Z</time>
</trkpt>
<trkpt lat="49.40636440180242" lon="9.13874334655702">
<ele>261</ele>
<time>2024-05-08T14:16:53Z</time>
</trkpt>
<trkpt lat="49.406398767605424" lon="9.13876622915268">
<ele>261.2</ele>
<time>2024-05-08T14:16:54Z</time>
</trkpt>
<trkpt lat="49.40642927773297" lon="9.138791961595416">
<ele>261.2</ele>
<time>2024-05-08T14:16:55Z</time>
</trkpt>
<trkpt lat="49.4064674153924" lon="9.138821549713612">
<ele>261.4</ele>
<time>2024-05-08T14:16:56Z</time>
</trkpt>
<trkpt lat="49.406532207503915" lon="9.138899752870202">
<ele>261.6</ele>
<time>2024-05-08T14:16:57Z</time>
</trkpt>
<trkpt lat="49.40656657330692" lon="9.138941746205091">
<ele>261.799</ele>
<time>2024-05-08T14:16:59Z</time>
</trkpt>
<trkpt lat="49.40659708343446" lon="9.138979883864522">
<ele>262.2</ele>
<time>2024-05-08T14:17:00Z</time>
</trkpt>
<trkpt lat="49.40662759356201" lon="9.13902179338038">
<ele>262.4</ele>
<time>2024-05-08T14:17:01Z</time>
</trkpt>
<trkpt lat="49.406650476157665" lon="9.13906286470592">
<ele>262.6</ele>
<time>2024-05-08T14:17:02Z</time>
</trkpt>
<trkpt lat="49.40667335875333" lon="9.139104774221778">
<ele>263</ele>
<time>2024-05-08T14:17:03Z</time>
</trkpt>
<trkpt lat="49.406692469492555" lon="9.139149617403746">
<ele>263</ele>
<time>2024-05-08T14:17:04Z</time>
</trkpt>
<trkpt lat="49.4067229796201" lon="9.139208793640137">
<ele>262.8</ele>
<time>2024-05-08T14:17:05Z</time>
</trkpt>
<trkpt lat="49.40675348974764" lon="9.139269813895226">
<ele>262.8</ele>
<time>2024-05-08T14:17:06Z</time>
</trkpt>
<trkpt lat="49.4067763723433" lon="9.139331756159663">
<ele>263</ele>
<time>2024-05-08T14:17:07Z</time>
</trkpt>
<trkpt lat="49.40680311061442" lon="9.139389926567674">
<ele>263</ele>
<time>2024-05-08T14:17:08Z</time>
</trkpt>
<trkpt lat="49.40682213753462" lon="9.139443319290876">
<ele>263.2</ele>
<time>2024-05-08T14:17:09Z</time>
</trkpt>
<trkpt lat="49.40683362074196" lon="9.139510123059154">
<ele>263.4</ele>
<time>2024-05-08T14:17:10Z</time>
</trkpt>
<trkpt lat="49.40684502013028" lon="9.139588326215744">
<ele>263.8</ele>
<time>2024-05-08T14:17:11Z</time>
</trkpt>
<trkpt lat="49.406848875805736" lon="9.139651274308562">
<ele>264</ele>
<time>2024-05-08T14:17:12Z</time>
</trkpt>
<trkpt lat="49.40685264766216" lon="9.139719922095535">
<ele>264.2</ele>
<time>2024-05-08T14:17:13Z</time>
</trkpt>
<trkpt lat="49.40685264766216" lon="9.139784798026083">
<ele>264.4</ele>
<time>2024-05-08T14:17:14Z</time>
</trkpt>
<trkpt lat="49.40685264766216" lon="9.139846740290524">
<ele>264.6</ele>
<time>2024-05-08T14:17:15Z</time>
</trkpt>
<trkpt lat="49.40685264766216" lon="9.139908766373992">
<ele>264.8</ele>
<time>2024-05-08T14:17:16Z</time>
</trkpt>
<trkpt lat="49.40685650333762" lon="9.140047989785671">
<ele>265</ele>
<time>2024-05-08T14:17:17Z</time>
</trkpt>
<trkpt lat="49.40685650333762" lon="9.140119487419724">
<ele>265.2</ele>
<time>2024-05-08T14:17:19Z</time>
</trkpt>
<trkpt lat="49.406848875805736" lon="9.140250161290169">
<ele>265.6</ele>
<time>2024-05-08T14:17:21Z</time>
</trkpt>
<trkpt lat="49.406848875805736" lon="9.140310259535909">
<ele>265.8</ele>
<time>2024-05-08T14:17:22Z</time>
</trkpt>
<trkpt lat="49.40684502013028" lon="9.140375135466456">
<ele>266</ele>
<time>2024-05-08T14:17:23Z</time>
</trkpt>
<trkpt lat="49.40684124827385" lon="9.140437999740245">
<ele>266.2</ele>
<time>2024-05-08T14:17:24Z</time>
</trkpt>
<trkpt lat="49.40681836567819" lon="9.140560124069452">
<ele>266.6</ele>
<time>2024-05-08T14:17:25Z</time>
</trkpt>
<trkpt lat="49.406806882470846" lon="9.140611588954926">
<ele>266.6</ele>
<time>2024-05-08T14:17:27Z</time>
</trkpt>
<trkpt lat="49.406791627407074" lon="9.14066313765943">
<ele>266.8</ele>
<time>2024-05-08T14:17:28Z</time>
</trkpt>
<trkpt lat="49.40676111727953" lon="9.140729857608676">
<ele>267</ele>
<time>2024-05-08T14:17:29Z</time>
</trkpt>
<trkpt lat="49.40673823468387" lon="9.140791883692144">
<ele>267.2</ele>
<time>2024-05-08T14:17:30Z</time>
</trkpt>
<trkpt lat="49.40671920776367" lon="9.14085667580366">
<ele>267.2</ele>
<time>2024-05-08T14:17:31Z</time>
</trkpt>
<trkpt lat="49.40669624134898" lon="9.14091870188713">
<ele>267.4</ele>
<time>2024-05-08T14:17:32Z</time>
</trkpt>
<trkpt lat="49.40667335875333" lon="9.14097687229514">
<ele>267.4</ele>
<time>2024-05-08T14:17:33Z</time>
</trkpt>
<trkpt lat="49.40665433183312" lon="9.14103982038796">
<ele>267.4</ele>
<time>2024-05-08T14:17:34Z</time>
</trkpt>
<trkpt lat="49.40662759356201" lon="9.14109799079597">
<ele>267.6</ele>
<time>2024-05-08T14:17:35Z</time>
</trkpt>
<trkpt lat="49.40658568404615" lon="9.141208631917834">
<ele>267.6</ele>
<time>2024-05-08T14:17:36Z</time>
</trkpt>
<trkpt lat="49.40656280145049" lon="9.141271580010653">
<ele>267.6</ele>
<time>2024-05-08T14:17:37Z</time>
</trkpt>
<trkpt lat="49.40654369071126" lon="9.14133159443736">
<ele>267.8</ele>
<time>2024-05-08T14:17:39Z</time>
</trkpt>
<trkpt lat="49.40652843564749" lon="9.141405103728175">
<ele>267.8</ele>
<time>2024-05-08T14:17:40Z</time>
</trkpt>
<trkpt lat="49.40650932490826" lon="9.141478529199958">
<ele>268</ele>
<time>2024-05-08T14:17:41Z</time>
</trkpt>
<trkpt lat="49.4064864423126" lon="9.141548098996282">
<ele>268</ele>
<time>2024-05-08T14:17:42Z</time>
</trkpt>
<trkpt lat="49.4064674153924" lon="9.141619680449368">
<ele>268.4</ele>
<time>2024-05-08T14:17:43Z</time>
</trkpt>
<trkpt lat="49.40644830465317" lon="9.141701655462384">
<ele>268.4</ele>
<time>2024-05-08T14:17:44Z</time>
</trkpt>
<trkpt lat="49.406436905264854" lon="9.14177030324936">
<ele>268.4</ele>
<time>2024-05-08T14:17:45Z</time>
</trkpt>
<trkpt lat="49.4064140226692" lon="9.14194674231112">
<ele>268.6</ele>
<time>2024-05-08T14:17:47Z</time>
</trkpt>
<trkpt lat="49.40640639513731" lon="9.14210700429976">
<ele>269</ele>
<time>2024-05-08T14:17:48Z</time>
</trkpt>
<trkpt lat="49.40640639513731" lon="9.14218520745635">
<ele>269.2</ele>
<time>2024-05-08T14:17:50Z</time>
</trkpt>
<trkpt lat="49.40641016699374" lon="9.142358712852">
<ele>269.4</ele>
<time>2024-05-08T14:17:51Z</time>
</trkpt>
<trkpt lat="49.40641779452562" lon="9.142443621531129">
<ele>269.6</ele>
<time>2024-05-08T14:17:52Z</time>
</trkpt>
<trkpt lat="49.40642542205751" lon="9.142523752525449">
<ele>269.6</ele>
<time>2024-05-08T14:17:53Z</time>
</trkpt>
<trkpt lat="49.406436905264854" lon="9.14260002784431">
<ele>269.6</ele>
<time>2024-05-08T14:17:55Z</time>
</trkpt>
<trkpt lat="49.40644830465317" lon="9.142666747793555">
<ele>269.8</ele>
<time>2024-05-08T14:17:56Z</time>
</trkpt>
<trkpt lat="49.40646355971694" lon="9.142733551561832">
<ele>270</ele>
<time>2024-05-08T14:17:57Z</time>
</trkpt>
<trkpt lat="49.40649792551994" lon="9.142867997288704">
<ele>270.2</ele>
<time>2024-05-08T14:17:58Z</time>
</trkpt>
<trkpt lat="49.4065208081156" lon="9.142930023372172">
<ele>270.6</ele>
<time>2024-05-08T14:18:00Z</time>
</trkpt>
<trkpt lat="49.406551318243146" lon="9.142990037798882">
<ele>270.8</ele>
<time>2024-05-08T14:18:01Z</time>
</trkpt>
<trkpt lat="49.40657805651426" lon="9.143046364188194">
<ele>271.2</ele>
<time>2024-05-08T14:18:02Z</time>
</trkpt>
<trkpt lat="49.40660471096635" lon="9.143097829073668">
<ele>271.4</ele>
<time>2024-05-08T14:18:03Z</time>
</trkpt>
<trkpt lat="49.406631449237466" lon="9.143143594264984">
<ele>271.8</ele>
<time>2024-05-08T14:18:04Z</time>
</trkpt>
<trkpt lat="49.40665810368955" lon="9.14319321513176">
<ele>271.8</ele>
<time>2024-05-08T14:18:05Z</time>
</trkpt>
<trkpt lat="49.406688613817096" lon="9.143239902332423">
<ele>272</ele>
<time>2024-05-08T14:18:06Z</time>
</trkpt>
<trkpt lat="49.4067229796201" lon="9.143288601189852">
<ele>272.2</ele>
<time>2024-05-08T14:18:07Z</time>
</trkpt>
<trkpt lat="49.40675348974764" lon="9.143335288390515">
<ele>272.4</ele>
<time>2024-05-08T14:18:08Z</time>
</trkpt>
<trkpt lat="49.40678399987519" lon="9.143382059410214">
<ele>272.6</ele>
<time>2024-05-08T14:18:09Z</time>
</trkpt>
<trkpt lat="49.40684124827385" lon="9.143487922847273">
<ele>272.6</ele>
<time>2024-05-08T14:18:10Z</time>
</trkpt>
<trkpt lat="49.406867902725935" lon="9.143529832363129">
<ele>272.8</ele>
<time>2024-05-08T14:18:12Z</time>
</trkpt>
<trkpt lat="49.40689849667251" lon="9.143578447401524">
<ele>272.8</ele>
<time>2024-05-08T14:18:13Z</time>
</trkpt>
<trkpt lat="49.4069251511246" lon="9.1436280682683">
<ele>273</ele>
<time>2024-05-08T14:18:14Z</time>
</trkpt>
<trkpt lat="49.40694426186383" lon="9.143676683306694">
<ele>273</ele>
<time>2024-05-08T14:18:15Z</time>
</trkpt>
<trkpt lat="49.406967144459486" lon="9.14372538216412">
<ele>273.2</ele>
<time>2024-05-08T14:18:16Z</time>
</trkpt>
<trkpt lat="49.40702053718269" lon="9.14380643516779">
<ele>273.4</ele>
<time>2024-05-08T14:18:17Z</time>
</trkpt>
<trkpt lat="49.40703956410289" lon="9.143848344683647">
<ele>273.4</ele>
<time>2024-05-08T14:18:19Z</time>
</trkpt>
<trkpt lat="49.40705867484212" lon="9.143888410180807">
<ele>273.6</ele>
<time>2024-05-08T14:18:20Z</time>
</trkpt>
<trkpt lat="49.40710444003344" lon="9.14396284148097">
<ele>273.8</ele>
<time>2024-05-08T14:18:21Z</time>
</trkpt>
<trkpt lat="49.407127322629094" lon="9.143995279446244">
<ele>274</ele>
<time>2024-05-08T14:18:23Z</time>
</trkpt>
<trkpt lat="49.40715020522475" lon="9.144028639420869">
<ele>274.2</ele>
<time>2024-05-08T14:18:24Z</time>
</trkpt>
<trkpt lat="49.40716931596398" lon="9.144056299701331">
<ele>274.2</ele>
<time>2024-05-08T14:18:25Z</time>
</trkpt>
<trkpt lat="49.40721122547984" lon="9.14410013705492">
<ele>274.2</ele>
<time>2024-05-08T14:18:27Z</time>
</trkpt>
<trkpt lat="49.4072494469583" lon="9.14417641237378">
<ele>274.4</ele>
<time>2024-05-08T14:18:29Z</time>
</trkpt>
<trkpt lat="49.407287584617734" lon="9.144249837845564">
<ele>274.6</ele>
<time>2024-05-08T14:18:30Z</time>
</trkpt>
<trkpt lat="49.40733334980905" lon="9.144328041002154">
<ele>274.6</ele>
<time>2024-05-08T14:18:33Z</time>
</trkpt>
<trkpt lat="49.407360004261136" lon="9.14435955695808">
<ele>274.6</ele>
<time>2024-05-08T14:18:34Z</time>
</trkpt>
<trkpt lat="49.40739437006414" lon="9.1444396879524">
<ele>274.4</ele>
<time>2024-05-08T14:18:36Z</time>
</trkpt>
<trkpt lat="49.407443990930915" lon="9.144493080675602">
<ele>274.6</ele>
<time>2024-05-08T14:18:38Z</time>
</trkpt>
<trkpt lat="49.40745924599469" lon="9.144513113424182">
<ele>274.6</ele>
<time>2024-05-08T14:18:39Z</time>
</trkpt>
<trkpt lat="49.40747827291489" lon="9.144586538895965">
<ele>274.6</ele>
<time>2024-05-08T14:18:40Z</time>
</trkpt>
<trkpt lat="49.40751641057432" lon="9.144646637141705">
<ele>274.6</ele>
<time>2024-05-08T14:18:43Z</time>
</trkpt>
<trkpt lat="49.407543148845434" lon="9.144688546657562">
<ele>274.6</ele>
<time>2024-05-08T14:18:44Z</time>
</trkpt>
<trkpt lat="49.40759654156864" lon="9.14477345533669">
<ele>274.8</ele>
<time>2024-05-08T14:18:45Z</time>
</trkpt>
<trkpt lat="49.40763090737164" lon="9.14481159299612">
<ele>274.8</ele>
<time>2024-05-08T14:18:46Z</time>
</trkpt>
<trkpt lat="49.40766518935561" lon="9.144849730655553">
<ele>274.6</ele>
<time>2024-05-08T14:18:47Z</time>
</trkpt>
<trkpt lat="49.40770332701504" lon="9.144893568009138">
<ele>274.8</ele>
<time>2024-05-08T14:18:48Z</time>
</trkpt>
<trkpt lat="49.407737692818046" lon="9.144938411191106">
<ele>274.8</ele>
<time>2024-05-08T14:18:50Z</time>
</trkpt>
<trkpt lat="49.40778345800936" lon="9.145032875239847">
<ele>275</ele>
<time>2024-05-08T14:18:52Z</time>
</trkpt>
<trkpt lat="49.40779494121671" lon="9.145081490278244">
<ele>275</ele>
<time>2024-05-08T14:18:53Z</time>
</trkpt>
<trkpt lat="49.40780634060502" lon="9.145123399794102">
<ele>275</ele>
<time>2024-05-08T14:18:54Z</time>
</trkpt>
<trkpt lat="49.407840706408024" lon="9.14519020356238">
<ele>275.2</ele>
<time>2024-05-08T14:18:55Z</time>
</trkpt>
<trkpt lat="49.40785973332822" lon="9.14522641338408">
<ele>275.2</ele>
<time>2024-05-08T14:18:56Z</time>
</trkpt>
<trkpt lat="49.40790172666311" lon="9.145279806107284">
<ele>275.4</ele>
<time>2024-05-08T14:18:58Z</time>
</trkpt>
<trkpt lat="49.40792846493423" lon="9.14531040005386">
<ele>275.8</ele>
<time>2024-05-08T14:19:00Z</time>
</trkpt>
<trkpt lat="49.4079627469182" lon="9.145330348983409">
<ele>276.2</ele>
<time>2024-05-08T14:19:01Z</time>
</trkpt>
<trkpt lat="49.40801999531686" lon="9.14538474753499">
<ele>276.4</ele>
<time>2024-05-08T14:19:02Z</time>
</trkpt>
<trkpt lat="49.40804287791252" lon="9.1454067081213">
<ele>276.8</ele>
<time>2024-05-08T14:19:03Z</time>
</trkpt>
<trkpt lat="49.40810012631118" lon="9.145458173006771">
<ele>277</ele>
<time>2024-05-08T14:19:06Z</time>
</trkpt>
<trkpt lat="49.40814203582704" lon="9.14552304893732">
<ele>277.2</ele>
<time>2024-05-08T14:19:07Z</time>
</trkpt>
<trkpt lat="49.40816877409816" lon="9.145540231838822">
<ele>277.2</ele>
<time>2024-05-08T14:19:09Z</time>
</trkpt>
<trkpt lat="49.408214539289474" lon="9.145591696724296">
<ele>277.4</ele>
<time>2024-05-08T14:19:11Z</time>
</trkpt>
<trkpt lat="49.408233566209674" lon="9.14564031176269">
<ele>277.4</ele>
<time>2024-05-08T14:19:12Z</time>
</trkpt>
<trkpt lat="49.40828318707645" lon="9.145719520747662">
<ele>277.6</ele>
<time>2024-05-08T14:19:13Z</time>
</trkpt>
<trkpt lat="49.40833657979965" lon="9.145788168534636">
<ele>277.6</ele>
<time>2024-05-08T14:19:15Z</time>
</trkpt>
<trkpt lat="49.40835946239531" lon="9.145806273445489">
<ele>277.6</ele>
<time>2024-05-08T14:19:17Z</time>
</trkpt>
<trkpt lat="49.40838234499097" lon="9.145843489095569">
<ele>277.6</ele>
<time>2024-05-08T14:19:18Z</time>
</trkpt>
<trkpt lat="49.408409083262086" lon="9.145881626755">
<ele>277.8</ele>
<time>2024-05-08T14:19:19Z</time>
</trkpt>
<trkpt lat="49.4084548484534" lon="9.145964607596396">
<ele>278</ele>
<time>2024-05-08T14:19:21Z</time>
</trkpt>
<trkpt lat="49.408473959192634" lon="9.146001739427447">
<ele>278</ele>
<time>2024-05-08T14:19:22Z</time>
</trkpt>
<trkpt lat="49.40850446932018" lon="9.146084720268846">
<ele>278</ele>
<time>2024-05-08T14:19:23Z</time>
</trkpt>
<trkpt lat="49.40852349624038" lon="9.146128641441464">
<ele>278.2</ele>
<time>2024-05-08T14:19:25Z</time>
</trkpt>
<trkpt lat="49.40854637883603" lon="9.146164851263164">
<ele>278.2</ele>
<time>2024-05-08T14:19:26Z</time>
</trkpt>
<trkpt lat="49.40857311710715" lon="9.146202988922596">
<ele>278.2</ele>
<time>2024-05-08T14:19:27Z</time>
</trkpt>
<trkpt lat="49.40859599970281" lon="9.146242132410409">
<ele>278.2</ele>
<time>2024-05-08T14:19:28Z</time>
</trkpt>
<trkpt lat="49.40861511044204" lon="9.146280270069838">
<ele>278.2</ele>
<time>2024-05-08T14:19:29Z</time>
</trkpt>
<trkpt lat="49.408668503165245" lon="9.146363250911236">
<ele>278.4</ele>
<time>2024-05-08T14:19:31Z</time>
</trkpt>
<trkpt lat="49.40871804021299" lon="9.146445225924252">
<ele>278.4</ele>
<time>2024-05-08T14:19:33Z</time>
</trkpt>
<trkpt lat="49.408744778484106" lon="9.146483363583684">
<ele>278.4</ele>
<time>2024-05-08T14:19:34Z</time>
</trkpt>
<trkpt lat="49.40877143293619" lon="9.146525356918572">
<ele>278.4</ele>
<time>2024-05-08T14:19:35Z</time>
</trkpt>
<trkpt lat="49.40879817120731" lon="9.146565422415732">
<ele>278.4</ele>
<time>2024-05-08T14:19:36Z</time>
</trkpt>
<trkpt lat="49.40882868133485" lon="9.146601632237434">
<ele>278.4</ele>
<time>2024-05-08T14:19:37Z</time>
</trkpt>
<trkpt lat="49.40885541960597" lon="9.146639769896863">
<ele>278.6</ele>
<time>2024-05-08T14:19:38Z</time>
</trkpt>
<trkpt lat="49.40887830220163" lon="9.146676985546948">
<ele>278.6</ele>
<time>2024-05-08T14:19:39Z</time>
</trkpt>
<trkpt lat="49.408904956653714" lon="9.14671034552157">
<ele>278.6</ele>
<time>2024-05-08T14:19:40Z</time>
</trkpt>
<trkpt lat="49.40892783924937" lon="9.146738005802035">
<ele>278.8</ele>
<time>2024-05-08T14:19:41Z</time>
</trkpt>
<trkpt lat="49.40898131579161" lon="9.146802881732585">
<ele>279</ele>
<time>2024-05-08T14:19:42Z</time>
</trkpt>
<trkpt lat="49.409004198387265" lon="9.146835319697855">
<ele>279</ele>
<time>2024-05-08T14:19:44Z</time>
</trkpt>
<trkpt lat="49.409042336046696" lon="9.146891562268138">
<ele>279.2</ele>
<time>2024-05-08T14:19:46Z</time>
</trkpt>
<trkpt lat="49.40905759111047" lon="9.146915366873143">
<ele>279.4</ele>
<time>2024-05-08T14:19:47Z</time>
</trkpt>
<trkpt lat="49.4090957287699" lon="9.146958282217383">
<ele>279.6</ele>
<time>2024-05-08T14:19:48Z</time>
</trkpt>
<trkpt lat="49.409122467041016" lon="9.14698694832623">
<ele>279.8</ele>
<time>2024-05-08T14:19:50Z</time>
</trkpt>
<trkpt lat="49.4091491214931" lon="9.147013602778316">
<ele>279.8</ele>
<time>2024-05-08T14:19:51Z</time>
</trkpt>
<trkpt lat="49.40920636989176" lon="9.147061295807362">
<ele>280</ele>
<time>2024-05-08T14:19:52Z</time>
</trkpt>
<trkpt lat="49.40923302434385" lon="9.147076550871134">
<ele>280</ele>
<time>2024-05-08T14:19:54Z</time>
</trkpt>
<trkpt lat="49.40925590693951" lon="9.147096583619714">
<ele>280</ele>
<time>2024-05-08T14:19:55Z</time>
</trkpt>
<trkpt lat="49.409278789535165" lon="9.147116616368294">
<ele>280.2</ele>
<time>2024-05-08T14:19:56Z</time>
</trkpt>
<trkpt lat="49.409301755949855" lon="9.147136649116874">
<ele>280.4</ele>
<time>2024-05-08T14:19:57Z</time>
</trkpt>
<trkpt lat="49.40932841040194" lon="9.14716145955026">
<ele>280.4</ele>
<time>2024-05-08T14:19:58Z</time>
</trkpt>
<trkpt lat="49.40935514867306" lon="9.14718149229884">
<ele>280.6</ele>
<time>2024-05-08T14:19:59Z</time>
</trkpt>
<trkpt lat="49.40938180312514" lon="9.14720152504742">
<ele>280.6</ele>
<time>2024-05-08T14:20:00Z</time>
</trkpt>
<trkpt lat="49.40940854139626" lon="9.147226251661776">
<ele>280.8</ele>
<time>2024-05-08T14:20:01Z</time>
</trkpt>
<trkpt lat="49.40946578979492" lon="9.147273022681476">
<ele>280.8</ele>
<time>2024-05-08T14:20:02Z</time>
</trkpt>
<trkpt lat="49.409496299922466" lon="9.147294983267784">
<ele>281</ele>
<time>2024-05-08T14:20:03Z</time>
</trkpt>
<trkpt lat="49.40954206511378" lon="9.147328343242409">
<ele>281.2</ele>
<time>2024-05-08T14:20:05Z</time>
</trkpt>
<trkpt lat="49.40956494770944" lon="9.147344520315528">
<ele>281.4</ele>
<time>2024-05-08T14:20:07Z</time>
</trkpt>
<trkpt lat="49.40961834043264" lon="9.14738366380334">
<ele>281.6</ele>
<time>2024-05-08T14:20:08Z</time>
</trkpt>
<trkpt lat="49.40967173315585" lon="9.147424651309848">
<ele>281.6</ele>
<time>2024-05-08T14:20:10Z</time>
</trkpt>
<trkpt lat="49.409694615751505" lon="9.14743797853589">
<ele>281.8</ele>
<time>2024-05-08T14:20:12Z</time>
</trkpt>
<trkpt lat="49.409713726490736" lon="9.147453233599665">
<ele>281.8</ele>
<time>2024-05-08T14:20:13Z</time>
</trkpt>
<trkpt lat="49.409736609086394" lon="9.147473266348245">
<ele>281.8</ele>
<time>2024-05-08T14:20:14Z</time>
</trkpt>
<trkpt lat="49.40976326353848" lon="9.147491455078123">
<ele>282</ele>
<time>2024-05-08T14:20:15Z</time>
</trkpt>
<trkpt lat="49.40980911254883" lon="9.147526659071444">
<ele>282</ele>
<time>2024-05-08T14:20:17Z</time>
</trkpt>
<trkpt lat="49.40982813946903" lon="9.147535292431712">
<ele>282</ele>
<time>2024-05-08T14:20:18Z</time>
</trkpt>
<trkpt lat="49.4098433945328" lon="9.147548619657757">
<ele>282.2</ele>
<time>2024-05-08T14:20:19Z</time>
</trkpt>
<trkpt lat="49.40986250527203" lon="9.147564880549908">
<ele>282.2</ele>
<time>2024-05-08T14:20:20Z</time>
</trkpt>
<trkpt lat="49.409896787256" lon="9.14759824052453">
<ele>282.2</ele>
<time>2024-05-08T14:20:22Z</time>
</trkpt>
<trkpt lat="49.40990064293146" lon="9.147604862228036">
<ele>282.2</ele>
<time>2024-05-08T14:20:23Z</time>
</trkpt>
<trkpt lat="49.40990827046335" lon="9.147615423426032">
<ele>282.2</ele>
<time>2024-05-08T14:20:24Z</time>
</trkpt>
<trkpt lat="49.40991589799523" lon="9.14761634543538">
<ele>282.4</ele>
<time>2024-05-08T14:20:25Z</time>
</trkpt>
<trkpt lat="49.40991966985166" lon="9.14761827327311">
<ele>282.4</ele>
<time>2024-05-08T14:20:27Z</time>
</trkpt>
<trkpt lat="49.40992352552712" lon="9.14762020111084">
<ele>282.4</ele>
<time>2024-05-08T14:20:28Z</time>
</trkpt>
<trkpt lat="49.40992352552712" lon="9.147622045129538">
<ele>282.4</ele>
<time>2024-05-08T14:20:29Z</time>
</trkpt>
<trkpt lat="49.40992352552712" lon="9.147623050957918">
<ele>282.4</ele>
<time>2024-05-08T14:20:30Z</time>
</trkpt>
<trkpt lat="49.40992352552712" lon="9.147624894976616">
<ele>282.4</ele>
<time>2024-05-08T14:20:32Z</time>
</trkpt>
<trkpt lat="49.40992729738355" lon="9.147626822814344">
<ele>282.4</ele>
<time>2024-05-08T14:20:34Z</time>
</trkpt>
<trkpt lat="49.40993492491543" lon="9.147635456174612">
<ele>282.4</ele>
<time>2024-05-08T14:20:35Z</time>
</trkpt>
<trkpt lat="49.40993492491543" lon="9.14763830602169">
<ele>282.4</ele>
<time>2024-05-08T14:20:37Z</time>
</trkpt>
<trkpt lat="49.40993878059089" lon="9.14763830602169">
<ele>282.4</ele>
<time>2024-05-08T14:20:38Z</time>
</trkpt>
<trkpt lat="49.40993878059089" lon="9.147640150040388">
<ele>282.4</ele>
<time>2024-05-08T14:20:39Z</time>
</trkpt>
<trkpt lat="49.40994255244732" lon="9.147640150040388">
<ele>282.4</ele>
<time>2024-05-08T14:20:41Z</time>
</trkpt>
<trkpt lat="49.40994640812278" lon="9.147642077878118">
<ele>282.4</ele>
<time>2024-05-08T14:20:43Z</time>
</trkpt>
<trkpt lat="49.40994640812278" lon="9.147643083706498">
<ele>282.4</ele>
<time>2024-05-08T14:20:44Z</time>
</trkpt>
<trkpt lat="49.40994640812278" lon="9.147642077878118">
<ele>282.4</ele>
<time>2024-05-08T14:20:46Z</time>
</trkpt>
<trkpt lat="49.40994640812278" lon="9.14763830602169">
<ele>282.2</ele>
<time>2024-05-08T14:20:48Z</time>
</trkpt>
<trkpt lat="49.40994640812278" lon="9.14763637818396">
<ele>282.2</ele>
<time>2024-05-08T14:20:49Z</time>
</trkpt>
<trkpt lat="49.40994255244732" lon="9.147633528336884">
<ele>282.2</ele>
<time>2024-05-08T14:20:51Z</time>
</trkpt>
<trkpt lat="49.40994640812278" lon="9.147631600499151">
<ele>282.2</ele>
<time>2024-05-08T14:20:52Z</time>
</trkpt>
<trkpt lat="49.40994640812278" lon="9.147629672661424">
<ele>282.2</ele>
<time>2024-05-08T14:20:53Z</time>
</trkpt>
<trkpt lat="49.40994640812278" lon="9.147631600499151">
<ele>282</ele>
<time>2024-05-08T14:20:56Z</time>
</trkpt>
<trkpt lat="49.409950179979205" lon="9.147633528336884">
<ele>282</ele>
<time>2024-05-08T14:20:57Z</time>
</trkpt>
<trkpt lat="49.409950179979205" lon="9.147631600499151">
<ele>282</ele>
<time>2024-05-08T14:20:58Z</time>
</trkpt>
<trkpt lat="49.409950179979205" lon="9.147633528336884">
<ele>281.8</ele>
<time>2024-05-08T14:21:00Z</time>
</trkpt>
<trkpt lat="49.409954035654664" lon="9.147633528336884">
<ele>281.8</ele>
<time>2024-05-08T14:21:02Z</time>
</trkpt>
<trkpt lat="49.409954035654664" lon="9.147635456174612">
<ele>281.8</ele>
<time>2024-05-08T14:21:04Z</time>
</trkpt>
<trkpt lat="49.409954035654664" lon="9.147633528336884">
<ele>281.6</ele>
<time>2024-05-08T14:21:06Z</time>
</trkpt>
<trkpt lat="49.409954035654664" lon="9.147635456174612">
<ele>281.6</ele>
<time>2024-05-08T14:21:07Z</time>
</trkpt>
<trkpt lat="49.409954035654664" lon="9.14763637818396">
<ele>281.6</ele>
<time>2024-05-08T14:21:09Z</time>
</trkpt>
<trkpt lat="49.40995780751109" lon="9.147635456174612">
<ele>281.6</ele>
<time>2024-05-08T14:21:11Z</time>
</trkpt>
<trkpt lat="49.40996543504298" lon="9.147640150040388">
<ele>281.6</ele>
<time>2024-05-08T14:21:12Z</time>
</trkpt>
<trkpt lat="49.40997691825032" lon="9.147654483094811">
<ele>281.4</ele>
<time>2024-05-08T14:21:13Z</time>
</trkpt>
<trkpt lat="49.40999980084598" lon="9.147664960473776">
<ele>281.4</ele>
<time>2024-05-08T14:21:14Z</time>
</trkpt>
<trkpt lat="49.410034166648984" lon="9.147686921060084">
<ele>281.4</ele>
<time>2024-05-08T14:21:15Z</time>
</trkpt>
<trkpt lat="49.41005319356918" lon="9.1476983204484">
<ele>281.4</ele>
<time>2024-05-08T14:21:17Z</time>
</trkpt>
<trkpt lat="49.410091331228614" lon="9.14771835319698">
<ele>281.6</ele>
<time>2024-05-08T14:21:19Z</time>
</trkpt>
<trkpt lat="49.41014095209539" lon="9.147747019305823">
<ele>281.6</ele>
<time>2024-05-08T14:21:20Z</time>
</trkpt>
<trkpt lat="49.41016006283462" lon="9.147767974063754">
<ele>281.8</ele>
<time>2024-05-08T14:21:22Z</time>
</trkpt>
<trkpt lat="49.41021345555782" lon="9.147789934650064">
<ele>282</ele>
<time>2024-05-08T14:21:24Z</time>
</trkpt>
<trkpt lat="49.410247737541795" lon="9.147800412029028">
<ele>282</ele>
<time>2024-05-08T14:21:25Z</time>
</trkpt>
<trkpt lat="49.41027062013745" lon="9.147814745083451">
<ele>282.2</ele>
<time>2024-05-08T14:21:26Z</time>
</trkpt>
<trkpt lat="49.41029350273311" lon="9.147832849994302">
<ele>282.2</ele>
<time>2024-05-08T14:21:27Z</time>
</trkpt>
<trkpt lat="49.41031638532877" lon="9.14785472676158">
<ele>282.4</ele>
<time>2024-05-08T14:21:28Z</time>
</trkpt>
<trkpt lat="49.41033935174346" lon="9.147869981825352">
<ele>282.4</ele>
<time>2024-05-08T14:21:29Z</time>
</trkpt>
<trkpt lat="49.410366006195545" lon="9.147888170555234">
<ele>282.6</ele>
<time>2024-05-08T14:21:30Z</time>
</trkpt>
<trkpt lat="49.41041939891875" lon="9.147921530529857">
<ele>282.8</ele>
<time>2024-05-08T14:21:32Z</time>
</trkpt>
<trkpt lat="49.41048804670572" lon="9.147965367883444">
<ele>282.8</ele>
<time>2024-05-08T14:21:34Z</time>
</trkpt>
<trkpt lat="49.41053389571607" lon="9.147988250479102">
<ele>283</ele>
<time>2024-05-08T14:21:35Z</time>
</trkpt>
<trkpt lat="49.41061394289136" lon="9.148039799183609">
<ele>283.4</ele>
<time>2024-05-08T14:21:36Z</time>
</trkpt>
<trkpt lat="49.41065593622625" lon="9.148061675950885">
<ele>283.6</ele>
<time>2024-05-08T14:21:38Z</time>
</trkpt>
<trkpt lat="49.41069792956114" lon="9.14809126406908">
<ele>284</ele>
<time>2024-05-08T14:21:39Z</time>
</trkpt>
<trkpt lat="49.4107932318002" lon="9.14817038923502">
<ele>284.4</ele>
<time>2024-05-08T14:21:40Z</time>
</trkpt>
<trkpt lat="49.41089247353375" lon="9.14823149330914">
<ele>284.8</ele>
<time>2024-05-08T14:21:42Z</time>
</trkpt>
<trkpt lat="49.41094201058149" lon="9.148262925446032">
<ele>285.2</ele>
<time>2024-05-08T14:21:44Z</time>
</trkpt>
<trkpt lat="49.410999258980155" lon="9.148302068933845">
<ele>285.6</ele>
<time>2024-05-08T14:21:45Z</time>
</trkpt>
<trkpt lat="49.41106027923525" lon="9.148338278755546">
<ele>286</ele>
<time>2024-05-08T14:21:46Z</time>
</trkpt>
<trkpt lat="49.41118617542088" lon="9.148416481912136">
<ele>286.4</ele>
<time>2024-05-08T14:21:48Z</time>
</trkpt>
<trkpt lat="49.41123956814408" lon="9.14844699203968">
<ele>286.8</ele>
<time>2024-05-08T14:21:49Z</time>
</trkpt>
<trkpt lat="49.4112853333354" lon="9.148474652320148">
<ele>286.8</ele>
<time>2024-05-08T14:21:50Z</time>
</trkpt>
<trkpt lat="49.41133109852672" lon="9.148498456925154">
<ele>287</ele>
<time>2024-05-08T14:21:51Z</time>
</trkpt>
<trkpt lat="49.41140745766461" lon="9.148539528250694">
<ele>287.2</ele>
<time>2024-05-08T14:21:53Z</time>
</trkpt>
<trkpt lat="49.41144936718047" lon="9.148559560999274">
<ele>287.4</ele>
<time>2024-05-08T14:21:54Z</time>
</trkpt>
<trkpt lat="49.41149136051536" lon="9.14858814328909">
<ele>287.6</ele>
<time>2024-05-08T14:21:55Z</time>
</trkpt>
<trkpt lat="49.41153712570667" lon="9.148619575425982">
<ele>287.8</ele>
<time>2024-05-08T14:21:56Z</time>
</trkpt>
<trkpt lat="49.41158674657345" lon="9.148653019219635">
<ele>288</ele>
<time>2024-05-08T14:21:57Z</time>
</trkpt>
<trkpt lat="49.41163628362119" lon="9.14868537336588">
<ele>288</ele>
<time>2024-05-08T14:21:58Z</time>
</trkpt>
<trkpt lat="49.41168204881251" lon="9.148713033646343">
<ele>288</ele>
<time>2024-05-08T14:21:59Z</time>
</trkpt>
<trkpt lat="49.41172027029097" lon="9.148739771917462">
<ele>288</ele>
<time>2024-05-08T14:22:00Z</time>
</trkpt>
<trkpt lat="49.411769807338715" lon="9.148770282045009">
<ele>288</ele>
<time>2024-05-08T14:22:01Z</time>
</trkpt>
<trkpt lat="49.4118118006736" lon="9.14880464784801">
<ele>288.2</ele>
<time>2024-05-08T14:22:02Z</time>
</trkpt>
<trkpt lat="49.411849938333035" lon="9.148835157975554">
<ele>288.4</ele>
<time>2024-05-08T14:22:03Z</time>
</trkpt>
<trkpt lat="49.411888075992465" lon="9.148870445787908">
<ele>288.6</ele>
<time>2024-05-08T14:22:04Z</time>
</trkpt>
<trkpt lat="49.411930069327354" lon="9.1489018779248">
<ele>288.8</ele>
<time>2024-05-08T14:22:05Z</time>
</trkpt>
<trkpt lat="49.41201011650264" lon="9.148955270648004">
<ele>289</ele>
<time>2024-05-08T14:22:07Z</time>
</trkpt>
<trkpt lat="49.412067364901304" lon="9.148982930928469">
<ele>289</ele>
<time>2024-05-08T14:22:08Z</time>
</trkpt>
<trkpt lat="49.41211313009262" lon="9.149008747190235">
<ele>289.2</ele>
<time>2024-05-08T14:22:09Z</time>
</trkpt>
<trkpt lat="49.41215512342751" lon="9.149035401642324">
<ele>289.2</ele>
<time>2024-05-08T14:22:10Z</time>
</trkpt>
<trkpt lat="49.41219703294337" lon="9.149064989760518">
<ele>289.4</ele>
<time>2024-05-08T14:22:11Z</time>
</trkpt>
<trkpt lat="49.412284791469574" lon="9.149123160168529">
<ele>289.8</ele>
<time>2024-05-08T14:22:12Z</time>
</trkpt>
<trkpt lat="49.41233441233635" lon="9.149149814620614">
<ele>290</ele>
<time>2024-05-08T14:22:14Z</time>
</trkpt>
<trkpt lat="49.412380177527666" lon="9.149174625054002">
<ele>290</ele>
<time>2024-05-08T14:22:15Z</time>
</trkpt>
<trkpt lat="49.41243742592633" lon="9.14920136332512">
<ele>290.2</ele>
<time>2024-05-08T14:22:16Z</time>
</trkpt>
<trkpt lat="49.41249081864953" lon="9.149229945614934">
<ele>290.2</ele>
<time>2024-05-08T14:22:17Z</time>
</trkpt>
<trkpt lat="49.412597604095936" lon="9.14927956648171">
<ele>290.4</ele>
<time>2024-05-08T14:22:18Z</time>
</trkpt>
<trkpt lat="49.41268913447857" lon="9.149341508746147">
<ele>290.4</ele>
<time>2024-05-08T14:22:21Z</time>
</trkpt>
<trkpt lat="49.41277312114835" lon="9.149399679154158">
<ele>290.6</ele>
<time>2024-05-08T14:22:22Z</time>
</trkpt>
<trkpt lat="49.41282651387155" lon="9.149426417425277">
<ele>290.8</ele>
<time>2024-05-08T14:22:24Z</time>
</trkpt>
<trkpt lat="49.41286465153098" lon="9.14945499971509">
<ele>291</ele>
<time>2024-05-08T14:22:25Z</time>
</trkpt>
<trkpt lat="49.4129638094455" lon="9.149506548419597">
<ele>291.2</ele>
<time>2024-05-08T14:22:27Z</time>
</trkpt>
<trkpt lat="49.41306682303548" lon="9.14955709129572">
<ele>291.4</ele>
<time>2024-05-08T14:22:29Z</time>
</trkpt>
<trkpt lat="49.41317360848189" lon="9.149616183713078">
<ele>291.6</ele>
<time>2024-05-08T14:22:31Z</time>
</trkpt>
<trkpt lat="49.413230856880546" lon="9.149640072137116">
<ele>291.8</ele>
<time>2024-05-08T14:22:32Z</time>
</trkpt>
<trkpt lat="49.41328424960375" lon="9.14967150427401">
<ele>291.8</ele>
<time>2024-05-08T14:22:33Z</time>
</trkpt>
<trkpt lat="49.41333764232695" lon="9.149704864248632">
<ele>292.2</ele>
<time>2024-05-08T14:22:34Z</time>
</trkpt>
<trkpt lat="49.41344065591693" lon="9.14977359585464">
<ele>292.4</ele>
<time>2024-05-08T14:22:35Z</time>
</trkpt>
<trkpt lat="49.413471166044474" lon="9.149801172316074">
<ele>292.6</ele>
<time>2024-05-08T14:22:37Z</time>
</trkpt>
<trkpt lat="49.41350553184748" lon="9.14983176626265">
<ele>292.8</ele>
<time>2024-05-08T14:22:38Z</time>
</trkpt>
<trkpt lat="49.41353981383145" lon="9.149860348552464">
<ele>293</ele>
<time>2024-05-08T14:22:39Z</time>
</trkpt>
<trkpt lat="49.41357417963445" lon="9.14988993667066">
<ele>293.2</ele>
<time>2024-05-08T14:22:40Z</time>
</trkpt>
<trkpt lat="49.41361231729388" lon="9.14990996941924">
<ele>293.6</ele>
<time>2024-05-08T14:22:41Z</time>
</trkpt>
<trkpt lat="49.4136580824852" lon="9.1499328520149">
<ele>293.8</ele>
<time>2024-05-08T14:22:42Z</time>
</trkpt>
<trkpt lat="49.413707703351974" lon="9.14995288476348">
<ele>294</ele>
<time>2024-05-08T14:22:43Z</time>
</trkpt>
<trkpt lat="49.41374961286783" lon="9.14996998384595">
<ele>294</ele>
<time>2024-05-08T14:22:44Z</time>
</trkpt>
<trkpt lat="49.41379160620272" lon="9.149986244738102">
<ele>294</ele>
<time>2024-05-08T14:22:45Z</time>
</trkpt>
<trkpt lat="49.41383737139404" lon="9.149996722117066">
<ele>294</ele>
<time>2024-05-08T14:22:46Z</time>
</trkpt>
<trkpt lat="49.41387936472893" lon="9.150016754865646">
<ele>294</ele>
<time>2024-05-08T14:22:47Z</time>
</trkpt>
<trkpt lat="49.41397852264345" lon="9.150072997435927">
<ele>294.2</ele>
<time>2024-05-08T14:22:49Z</time>
</trkpt>
<trkpt lat="49.41403191536665" lon="9.15010828524828">
<ele>294.2</ele>
<time>2024-05-08T14:22:50Z</time>
</trkpt>
<trkpt lat="49.414081536233425" lon="9.150136867538096">
<ele>294.4</ele>
<time>2024-05-08T14:22:51Z</time>
</trkpt>
<trkpt lat="49.4141845498234" lon="9.150203671306372">
<ele>294.4</ele>
<time>2024-05-08T14:22:52Z</time>
</trkpt>
<trkpt lat="49.41423031501472" lon="9.150239881128073">
<ele>294.6</ele>
<time>2024-05-08T14:22:53Z</time>
</trkpt>
<trkpt lat="49.41431421786547" lon="9.150318084284663">
<ele>294.8</ele>
<time>2024-05-08T14:22:55Z</time>
</trkpt>
<trkpt lat="49.414398120716214" lon="9.150420175865293">
<ele>294.8</ele>
<time>2024-05-08T14:22:58Z</time>
</trkpt>
<trkpt lat="49.41444396972656" lon="9.15046786889434">
<ele>294.8</ele>
<time>2024-05-08T14:22:59Z</time>
</trkpt>
<trkpt lat="49.41448587924242" lon="9.150514556095004">
<ele>294.8</ele>
<time>2024-05-08T14:23:00Z</time>
</trkpt>
<trkpt lat="49.41452787257731" lon="9.150567948818209">
<ele>295</ele>
<time>2024-05-08T14:23:01Z</time>
</trkpt>
<trkpt lat="49.41460414789617" lon="9.150672890245914">
<ele>295</ele>
<time>2024-05-08T14:23:02Z</time>
</trkpt>
<trkpt lat="49.414638513699174" lon="9.150725360959768">
<ele>295.2</ele>
<time>2024-05-08T14:23:04Z</time>
</trkpt>
<trkpt lat="49.41467665135861" lon="9.15077967569232">
<ele>295.2</ele>
<time>2024-05-08T14:23:05Z</time>
</trkpt>
<trkpt lat="49.41470716148615" lon="9.150831140577791">
<ele>295.4</ele>
<time>2024-05-08T14:23:06Z</time>
</trkpt>
<trkpt lat="49.41474144347012" lon="9.150883611291649">
<ele>295.4</ele>
<time>2024-05-08T14:23:07Z</time>
</trkpt>
<trkpt lat="49.41476818174124" lon="9.150935159996152">
<ele>295.6</ele>
<time>2024-05-08T14:23:08Z</time>
</trkpt>
<trkpt lat="49.414794920012355" lon="9.150988552719356">
<ele>295.8</ele>
<time>2024-05-08T14:23:09Z</time>
</trkpt>
<trkpt lat="49.414813946932554" lon="9.151046723127363">
<ele>295.8</ele>
<time>2024-05-08T14:23:10Z</time>
</trkpt>
<trkpt lat="49.41484068520367" lon="9.151108665391805">
<ele>296</ele>
<time>2024-05-08T14:23:11Z</time>
</trkpt>
<trkpt lat="49.41486356779933" lon="9.151166835799811">
<ele>296.2</ele>
<time>2024-05-08T14:23:12Z</time>
</trkpt>
<trkpt lat="49.4148788228631" lon="9.151225090026855">
<ele>296.4</ele>
<time>2024-05-08T14:23:13Z</time>
</trkpt>
<trkpt lat="49.41490170545876" lon="9.151287954300642">
<ele>296.6</ele>
<time>2024-05-08T14:23:14Z</time>
</trkpt>
<trkpt lat="49.41491696052253" lon="9.15135475806892">
<ele>296.6</ele>
<time>2024-05-08T14:23:15Z</time>
</trkpt>
<trkpt lat="49.414932215586305" lon="9.151421478018165">
<ele>296.8</ele>
<time>2024-05-08T14:23:16Z</time>
</trkpt>
<trkpt lat="49.41494361497462" lon="9.151486353948712">
<ele>296.8</ele>
<time>2024-05-08T14:23:17Z</time>
</trkpt>
<trkpt lat="49.41495895385742" lon="9.151555001735687">
<ele>296.8</ele>
<time>2024-05-08T14:23:18Z</time>
</trkpt>
<trkpt lat="49.414974208921194" lon="9.151626583188772">
<ele>296.8</ele>
<time>2024-05-08T14:23:19Z</time>
</trkpt>
<trkpt lat="49.41499323584139" lon="9.151695230975749">
<ele>297</ele>
<time>2024-05-08T14:23:20Z</time>
</trkpt>
<trkpt lat="49.415008490905166" lon="9.151760023087265">
<ele>297</ele>
<time>2024-05-08T14:23:21Z</time>
</trkpt>
<trkpt lat="49.41502374596894" lon="9.15182297118008">
<ele>297</ele>
<time>2024-05-08T14:23:22Z</time>
</trkpt>
<trkpt lat="49.415031373500824" lon="9.15188977494836">
<ele>297.2</ele>
<time>2024-05-08T14:23:23Z</time>
</trkpt>
<trkpt lat="49.41504662856459" lon="9.151956494897604">
<ele>297.4</ele>
<time>2024-05-08T14:23:24Z</time>
</trkpt>
<trkpt lat="49.41505425609648" lon="9.152016593143344">
<ele>297.6</ele>
<time>2024-05-08T14:23:25Z</time>
</trkpt>
<trkpt lat="49.41506188362837" lon="9.152076691389084">
<ele>297.8</ele>
<time>2024-05-08T14:23:26Z</time>
</trkpt>
<trkpt lat="49.41506573930383" lon="9.152139639481902">
<ele>298</ele>
<time>2024-05-08T14:23:27Z</time>
</trkpt>
<trkpt lat="49.41507713869214" lon="9.152208287268875">
<ele>298.2</ele>
<time>2024-05-08T14:23:28Z</time>
</trkpt>
<trkpt lat="49.41508476622403" lon="9.152271235361695">
<ele>298.2</ele>
<time>2024-05-08T14:23:29Z</time>
</trkpt>
<trkpt lat="49.415088621899486" lon="9.152333177626131">
<ele>298.4</ele>
<time>2024-05-08T14:23:30Z</time>
</trkpt>
<trkpt lat="49.41509624943137" lon="9.152393275871871">
<ele>298.4</ele>
<time>2024-05-08T14:23:31Z</time>
</trkpt>
<trkpt lat="49.41510387696326" lon="9.152456223964691">
<ele>298.4</ele>
<time>2024-05-08T14:23:32Z</time>
</trkpt>
<trkpt lat="49.41511527635157" lon="9.152523027732968">
<ele>298.4</ele>
<time>2024-05-08T14:23:33Z</time>
</trkpt>
<trkpt lat="49.41511913202703" lon="9.152591675519943">
<ele>298.4</ele>
<time>2024-05-08T14:23:34Z</time>
</trkpt>
<trkpt lat="49.41512675955891" lon="9.152656551450493">
<ele>298.4</ele>
<time>2024-05-08T14:23:35Z</time>
</trkpt>
<trkpt lat="49.4151343870908" lon="9.1527165658772">
<ele>298.2</ele>
<time>2024-05-08T14:23:36Z</time>
</trkpt>
<trkpt lat="49.41514587029815" lon="9.152778591960669">
<ele>298.2</ele>
<time>2024-05-08T14:23:37Z</time>
</trkpt>
<trkpt lat="49.41515349783003" lon="9.152841540053489">
<ele>298.2</ele>
<time>2024-05-08T14:23:38Z</time>
</trkpt>
<trkpt lat="49.41516489721835" lon="9.152906415984036">
<ele>298.2</ele>
<time>2024-05-08T14:23:39Z</time>
</trkpt>
<trkpt lat="49.41517638042569" lon="9.15297313593328">
<ele>298.2</ele>
<time>2024-05-08T14:23:40Z</time>
</trkpt>
<trkpt lat="49.415187779814005" lon="9.153038011863828">
<ele>298.4</ele>
<time>2024-05-08T14:23:41Z</time>
</trkpt>
<trkpt lat="49.41519926302135" lon="9.153101881965997">
<ele>298.8</ele>
<time>2024-05-08T14:23:42Z</time>
</trkpt>
<trkpt lat="49.41520303487778" lon="9.153162902221084">
<ele>299</ele>
<time>2024-05-08T14:23:43Z</time>
</trkpt>
<trkpt lat="49.41520689055323" lon="9.153224928304551">
<ele>299.2</ele>
<time>2024-05-08T14:23:44Z</time>
</trkpt>
<trkpt lat="49.41521451808512" lon="9.153287876397371">
<ele>299.4</ele>
<time>2024-05-08T14:23:45Z</time>
</trkpt>
<trkpt lat="49.41521828994155" lon="9.153351746499538">
<ele>299.6</ele>
<time>2024-05-08T14:23:46Z</time>
</trkpt>
<trkpt lat="49.41522214561701" lon="9.153411844745278">
<ele>299.8</ele>
<time>2024-05-08T14:23:47Z</time>
</trkpt>
<trkpt lat="49.415225917473435" lon="9.15346808731556">
<ele>300</ele>
<time>2024-05-08T14:23:48Z</time>
</trkpt>
<trkpt lat="49.415225917473435" lon="9.153523407876492">
<ele>300.2</ele>
<time>2024-05-08T14:23:49Z</time>
</trkpt>
<trkpt lat="49.415229773148894" lon="9.153583506122231">
<ele>300.4</ele>
<time>2024-05-08T14:23:50Z</time>
</trkpt>
<trkpt lat="49.41523354500532" lon="9.15364645421505">
<ele>300.6</ele>
<time>2024-05-08T14:23:51Z</time>
</trkpt>
<trkpt lat="49.41524117253721" lon="9.153708396479487">
<ele>300.8</ele>
<time>2024-05-08T14:23:52Z</time>
</trkpt>
<trkpt lat="49.41524502821267" lon="9.153766566887498">
<ele>301</ele>
<time>2024-05-08T14:23:53Z</time>
</trkpt>
<trkpt lat="49.41525265574455" lon="9.15382188744843">
<ele>301</ele>
<time>2024-05-08T14:23:54Z</time>
</trkpt>
<trkpt lat="49.41525642760098" lon="9.15388005785644">
<ele>301</ele>
<time>2024-05-08T14:23:55Z</time>
</trkpt>
<trkpt lat="49.41526028327644" lon="9.153938228264453">
<ele>301</ele>
<time>2024-05-08T14:23:56Z</time>
</trkpt>
<trkpt lat="49.41527168266475" lon="9.153996398672462">
<ele>301</ele>
<time>2024-05-08T14:23:57Z</time>
</trkpt>
<trkpt lat="49.41527931019664" lon="9.154054569080472">
<ele>301.2</ele>
<time>2024-05-08T14:23:58Z</time>
</trkpt>
<trkpt lat="49.41528693772853" lon="9.15412137284875">
<ele>301.2</ele>
<time>2024-05-08T14:23:59Z</time>
</trkpt>
<trkpt lat="49.41529456526041" lon="9.154190020635724">
<ele>301.4</ele>
<time>2024-05-08T14:24:00Z</time>
</trkpt>
<trkpt lat="49.41530227661133" lon="9.1542586684227">
<ele>301.4</ele>
<time>2024-05-08T14:24:01Z</time>
</trkpt>
<trkpt lat="49.4153175316751" lon="9.154343577101828">
<ele>301.6</ele>
<time>2024-05-08T14:24:02Z</time>
</trkpt>
<trkpt lat="49.41533278673887" lon="9.154430329799652">
<ele>301.8</ele>
<time>2024-05-08T14:24:03Z</time>
</trkpt>
<trkpt lat="49.415344186127186" lon="9.15449713356793">
<ele>302</ele>
<time>2024-05-08T14:24:04Z</time>
</trkpt>
<trkpt lat="49.41535181365907" lon="9.154564775526524">
<ele>302</ele>
<time>2024-05-08T14:24:05Z</time>
</trkpt>
<trkpt lat="49.41535944119096" lon="9.1546315792948">
<ele>302.2</ele>
<time>2024-05-08T14:24:06Z</time>
</trkpt>
<trkpt lat="49.41536706872285" lon="9.154701232910156">
<ele>302.4</ele>
<time>2024-05-08T14:24:07Z</time>
</trkpt>
<trkpt lat="49.41537469625473" lon="9.154767952859402">
<ele>302.6</ele>
<time>2024-05-08T14:24:08Z</time>
</trkpt>
<trkpt lat="49.415386179462075" lon="9.154834672808647">
<ele>302.8</ele>
<time>2024-05-08T14:24:09Z</time>
</trkpt>
<trkpt lat="49.41539380699396" lon="9.154899548739197">
<ele>302.8</ele>
<time>2024-05-08T14:24:10Z</time>
</trkpt>
<trkpt lat="49.41540143452585" lon="9.154965346679091">
<ele>303</ele>
<time>2024-05-08T14:24:11Z</time>
</trkpt>
<trkpt lat="49.41540906205773" lon="9.155025444924831">
<ele>303</ele>
<time>2024-05-08T14:24:12Z</time>
</trkpt>
<trkpt lat="49.41541668958962" lon="9.15508646517992">
<ele>303</ele>
<time>2024-05-08T14:24:13Z</time>
</trkpt>
<trkpt lat="49.415424317121506" lon="9.15514849126339">
<ele>303.2</ele>
<time>2024-05-08T14:24:14Z</time>
</trkpt>
<trkpt lat="49.41543194465339" lon="9.155208505690098">
<ele>303.4</ele>
<time>2024-05-08T14:24:15Z</time>
</trkpt>
<trkpt lat="49.41543957218528" lon="9.15526675991714">
<ele>303.4</ele>
<time>2024-05-08T14:24:16Z</time>
</trkpt>
<trkpt lat="49.415443344041705" lon="9.15532199665904">
<ele>303.6</ele>
<time>2024-05-08T14:24:17Z</time>
</trkpt>
<trkpt lat="49.41545482724905" lon="9.155380167067053">
<ele>303.6</ele>
<time>2024-05-08T14:24:18Z</time>
</trkpt>
<trkpt lat="49.41545859910548" lon="9.155441271141171">
<ele>303.6</ele>
<time>2024-05-08T14:24:19Z</time>
</trkpt>
<trkpt lat="49.41547008231282" lon="9.15550321340561">
<ele>303.8</ele>
<time>2024-05-08T14:24:20Z</time>
</trkpt>
<trkpt lat="49.41547770984471" lon="9.155563311651347">
<ele>303.8</ele>
<time>2024-05-08T14:24:21Z</time>
</trkpt>
<trkpt lat="49.415485337376595" lon="9.155623409897087">
<ele>303.8</ele>
<time>2024-05-08T14:24:22Z</time>
</trkpt>
<trkpt lat="49.41549682058394" lon="9.155683508142827">
<ele>303.8</ele>
<time>2024-05-08T14:24:23Z</time>
</trkpt>
<trkpt lat="49.41550821997225" lon="9.15574167855084">
<ele>303.8</ele>
<time>2024-05-08T14:24:24Z</time>
</trkpt>
<trkpt lat="49.41551207564771" lon="9.155796999111772">
<ele>303.8</ele>
<time>2024-05-08T14:24:25Z</time>
</trkpt>
<trkpt lat="49.415523475036025" lon="9.155853241682053">
<ele>304</ele>
<time>2024-05-08T14:24:26Z</time>
</trkpt>
<trkpt lat="49.41553110256791" lon="9.155909484252334">
<ele>304</ele>
<time>2024-05-08T14:24:27Z</time>
</trkpt>
<trkpt lat="49.41553495824337" lon="9.155968660488725">
<ele>304.2</ele>
<time>2024-05-08T14:24:28Z</time>
</trkpt>
<trkpt lat="49.415542585775256" lon="9.156024903059006">
<ele>304.2</ele>
<time>2024-05-08T14:24:29Z</time>
</trkpt>
<trkpt lat="49.41555021330714" lon="9.156083073467016">
<ele>304.4</ele>
<time>2024-05-08T14:24:30Z</time>
</trkpt>
<trkpt lat="49.41555784083903" lon="9.156138394027948">
<ele>304.6</ele>
<time>2024-05-08T14:24:31Z</time>
</trkpt>
<trkpt lat="49.415565468370914" lon="9.15619463659823">
<ele>304.8</ele>
<time>2024-05-08T14:24:32Z</time>
</trkpt>
<trkpt lat="49.4155730959028" lon="9.156249957159162">
<ele>305</ele>
<time>2024-05-08T14:24:33Z</time>
</trkpt>
<trkpt lat="49.41558072343469" lon="9.156305277720094">
<ele>305</ele>
<time>2024-05-08T14:24:34Z</time>
</trkpt>
<trkpt lat="49.41559597849846" lon="9.156416840851309">
<ele>305.2</ele>
<time>2024-05-08T14:24:35Z</time>
</trkpt>
<trkpt lat="49.415603606030345" lon="9.15647023357451">
<ele>305.4</ele>
<time>2024-05-08T14:24:37Z</time>
</trkpt>
<trkpt lat="49.41561123356223" lon="9.156521782279016">
<ele>305.6</ele>
<time>2024-05-08T14:24:38Z</time>
</trkpt>
<trkpt lat="49.41561500541866" lon="9.156571319326758">
<ele>305.6</ele>
<time>2024-05-08T14:24:39Z</time>
</trkpt>
<trkpt lat="49.415622632950544" lon="9.156620018184183">
<ele>305.8</ele>
<time>2024-05-08T14:24:40Z</time>
</trkpt>
<trkpt lat="49.415626488626" lon="9.15666670538485">
<ele>305.8</ele>
<time>2024-05-08T14:24:41Z</time>
</trkpt>
<trkpt lat="49.41563411615789" lon="9.156715320423244">
<ele>305.8</ele>
<time>2024-05-08T14:24:42Z</time>
</trkpt>
<trkpt lat="49.41563788801432" lon="9.156763013452291">
<ele>305.8</ele>
<time>2024-05-08T14:24:43Z</time>
</trkpt>
<trkpt lat="49.415645599365234" lon="9.156809784471989">
<ele>305.8</ele>
<time>2024-05-08T14:24:44Z</time>
</trkpt>
<trkpt lat="49.41565322689712" lon="9.156901314854622">
<ele>305.8</ele>
<time>2024-05-08T14:24:45Z</time>
</trkpt>
<trkpt lat="49.41566085442901" lon="9.156945152208207">
<ele>305.8</ele>
<time>2024-05-08T14:24:46Z</time>
</trkpt>
<trkpt lat="49.41566848196089" lon="9.156985217705367">
<ele>306</ele>
<time>2024-05-08T14:24:48Z</time>
</trkpt>
<trkpt lat="49.41567225381732" lon="9.157025283202527">
<ele>306</ele>
<time>2024-05-08T14:24:49Z</time>
</trkpt>
<trkpt lat="49.41567610949278" lon="9.157066270709038">
<ele>306</ele>
<time>2024-05-08T14:24:50Z</time>
</trkpt>
<trkpt lat="49.415683737024665" lon="9.157144473865628">
<ele>306</ele>
<time>2024-05-08T14:24:51Z</time>
</trkpt>
<trkpt lat="49.41569136455655" lon="9.15722175501287">
<ele>306</ele>
<time>2024-05-08T14:24:53Z</time>
</trkpt>
<trkpt lat="49.41569513641298" lon="9.157257042825222">
<ele>306</ele>
<time>2024-05-08T14:24:55Z</time>
</trkpt>
<trkpt lat="49.41569899208844" lon="9.157291408628224">
<ele>306.2</ele>
<time>2024-05-08T14:24:56Z</time>
</trkpt>
<trkpt lat="49.41570661962032" lon="9.15735812857747">
<ele>306.2</ele>
<time>2024-05-08T14:24:57Z</time>
</trkpt>
<trkpt lat="49.41571039147675" lon="9.157391488552094">
<ele>306.2</ele>
<time>2024-05-08T14:24:59Z</time>
</trkpt>
<trkpt lat="49.41571801900864" lon="9.157424848526716">
<ele>306.2</ele>
<time>2024-05-08T14:25:00Z</time>
</trkpt>
<trkpt lat="49.415721874684095" lon="9.157494502142072">
<ele>306.4</ele>
<time>2024-05-08T14:25:01Z</time>
</trkpt>
<trkpt lat="49.41572950221598" lon="9.157531717792152">
<ele>306.4</ele>
<time>2024-05-08T14:25:03Z</time>
</trkpt>
<trkpt lat="49.41573327407241" lon="9.157567927613854">
<ele>306.6</ele>
<time>2024-05-08T14:25:04Z</time>
</trkpt>
<trkpt lat="49.415744757279754" lon="9.157648058608174">
<ele>306.6</ele>
<time>2024-05-08T14:25:05Z</time>
</trkpt>
<trkpt lat="49.415744757279754" lon="9.15769189596176">
<ele>306.8</ele>
<time>2024-05-08T14:25:07Z</time>
</trkpt>
<trkpt lat="49.41575238481164" lon="9.15773673914373">
<ele>307</ele>
<time>2024-05-08T14:25:08Z</time>
</trkpt>
<trkpt lat="49.415760012343526" lon="9.157783426344396">
<ele>307</ele>
<time>2024-05-08T14:25:09Z</time>
</trkpt>
<trkpt lat="49.41576378419995" lon="9.15783111937344">
<ele>307.2</ele>
<time>2024-05-08T14:25:10Z</time>
</trkpt>
<trkpt lat="49.41577141173184" lon="9.157879818230867">
<ele>307.4</ele>
<time>2024-05-08T14:25:11Z</time>
</trkpt>
<trkpt lat="49.4157752674073" lon="9.157930361106992">
<ele>307.6</ele>
<time>2024-05-08T14:25:12Z</time>
</trkpt>
<trkpt lat="49.415782894939184" lon="9.157979898154736">
<ele>307.8</ele>
<time>2024-05-08T14:25:13Z</time>
</trkpt>
<trkpt lat="49.41579052247107" lon="9.15803144685924">
<ele>308</ele>
<time>2024-05-08T14:25:14Z</time>
</trkpt>
<trkpt lat="49.4157942943275" lon="9.158080061897635">
<ele>308</ele>
<time>2024-05-08T14:25:15Z</time>
</trkpt>
<trkpt lat="49.41580577753484" lon="9.158178297802806">
<ele>308.2</ele>
<time>2024-05-08T14:25:16Z</time>
</trkpt>
<trkpt lat="49.41581340506673" lon="9.1582269128412">
<ele>308.2</ele>
<time>2024-05-08T14:25:17Z</time>
</trkpt>
<trkpt lat="49.41581726074219" lon="9.158273683860898">
<ele>308.2</ele>
<time>2024-05-08T14:25:19Z</time>
</trkpt>
<trkpt lat="49.415821032598615" lon="9.158318443223834">
<ele>308.4</ele>
<time>2024-05-08T14:25:20Z</time>
</trkpt>
<trkpt lat="49.415824888274074" lon="9.158359514549376">
<ele>308.4</ele>
<time>2024-05-08T14:25:21Z</time>
</trkpt>
<trkpt lat="49.4158286601305" lon="9.158399580046536">
<ele>308.4</ele>
<time>2024-05-08T14:25:22Z</time>
</trkpt>
<trkpt lat="49.41583251580596" lon="9.158441489562392">
<ele>308.4</ele>
<time>2024-05-08T14:25:23Z</time>
</trkpt>
<trkpt lat="49.41583251580596" lon="9.158481555059552">
<ele>308.4</ele>
<time>2024-05-08T14:25:24Z</time>
</trkpt>
<trkpt lat="49.41583251580596" lon="9.158519692718984">
<ele>308.6</ele>
<time>2024-05-08T14:25:25Z</time>
</trkpt>
<trkpt lat="49.415840143337846" lon="9.158554980531337">
<ele>308.8</ele>
<time>2024-05-08T14:25:26Z</time>
</trkpt>
<trkpt lat="49.41584391519427" lon="9.158590268343689">
<ele>308.8</ele>
<time>2024-05-08T14:25:27Z</time>
</trkpt>
<trkpt lat="49.41584777086973" lon="9.158633183687924">
<ele>309</ele>
<time>2024-05-08T14:25:28Z</time>
</trkpt>
<trkpt lat="49.41584777086973" lon="9.158670399338009">
<ele>309.2</ele>
<time>2024-05-08T14:25:29Z</time>
</trkpt>
<trkpt lat="49.41585539840162" lon="9.158697053790092">
<ele>309.6</ele>
<time>2024-05-08T14:25:30Z</time>
</trkpt>
<trkpt lat="49.415863025933504" lon="9.158733347430823">
<ele>309.8</ele>
<time>2024-05-08T14:25:31Z</time>
</trkpt>
<trkpt lat="49.41586679778993" lon="9.158849688246846">
<ele>310</ele>
<time>2024-05-08T14:25:32Z</time>
</trkpt>
<trkpt lat="49.41587065346539" lon="9.158907858654857">
<ele>310.2</ele>
<time>2024-05-08T14:25:34Z</time>
</trkpt>
<trkpt lat="49.41587828099728" lon="9.158963179215789">
<ele>310.4</ele>
<time>2024-05-08T14:25:35Z</time>
</trkpt>
<trkpt lat="49.4158820528537" lon="9.159014644101262">
<ele>310.4</ele>
<time>2024-05-08T14:25:36Z</time>
</trkpt>
<trkpt lat="49.41588968038559" lon="9.159065186977386">
<ele>310.4</ele>
<time>2024-05-08T14:25:37Z</time>
</trkpt>
<trkpt lat="49.41589730791747" lon="9.159112880006433">
<ele>310.4</ele>
<time>2024-05-08T14:25:38Z</time>
</trkpt>
<trkpt lat="49.41590493544936" lon="9.15915965102613">
<ele>310.4</ele>
<time>2024-05-08T14:25:39Z</time>
</trkpt>
<trkpt lat="49.41590879112482" lon="9.159206338226795">
<ele>310.4</ele>
<time>2024-05-08T14:25:40Z</time>
</trkpt>
<trkpt lat="49.41591641865671" lon="9.159253109246492">
<ele>310.4</ele>
<time>2024-05-08T14:25:41Z</time>
</trkpt>
<trkpt lat="49.415920190513134" lon="9.15929694660008">
<ele>310.6</ele>
<time>2024-05-08T14:25:42Z</time>
</trkpt>
<trkpt lat="49.41592781804502" lon="9.159341789782047">
<ele>310.6</ele>
<time>2024-05-08T14:25:43Z</time>
</trkpt>
<trkpt lat="49.41593167372048" lon="9.159384705126286">
<ele>310.6</ele>
<time>2024-05-08T14:25:44Z</time>
</trkpt>
<trkpt lat="49.415939301252365" lon="9.159426614642143">
<ele>310.8</ele>
<time>2024-05-08T14:25:45Z</time>
</trkpt>
<trkpt lat="49.41594307310879" lon="9.159468607977033">
<ele>310.8</ele>
<time>2024-05-08T14:25:46Z</time>
</trkpt>
<trkpt lat="49.41594692878425" lon="9.159502973780036">
<ele>310.8</ele>
<time>2024-05-08T14:25:47Z</time>
</trkpt>
<trkpt lat="49.41595455631614" lon="9.159538261592388">
<ele>310.8</ele>
<time>2024-05-08T14:25:48Z</time>
</trkpt>
<trkpt lat="49.415958328172565" lon="9.15957162156701">
<ele>310.6</ele>
<time>2024-05-08T14:25:49Z</time>
</trkpt>
<trkpt lat="49.415958328172565" lon="9.159604981541634">
<ele>310.6</ele>
<time>2024-05-08T14:25:50Z</time>
</trkpt>
<trkpt lat="49.41596218384802" lon="9.159640269353986">
<ele>310.8</ele>
<time>2024-05-08T14:25:51Z</time>
</trkpt>
<trkpt lat="49.41596595570445" lon="9.159673629328609">
<ele>310.8</ele>
<time>2024-05-08T14:25:52Z</time>
</trkpt>
<trkpt lat="49.41596981137991" lon="9.159706989303231">
<ele>310.8</ele>
<time>2024-05-08T14:25:53Z</time>
</trkpt>
<trkpt lat="49.41597743891179" lon="9.159741355106236">
<ele>311</ele>
<time>2024-05-08T14:25:54Z</time>
</trkpt>
<trkpt lat="49.41598121076822" lon="9.159774715080856">
<ele>311</ele>
<time>2024-05-08T14:25:55Z</time>
</trkpt>
<trkpt lat="49.41598506644368" lon="9.159805225208402">
<ele>311</ele>
<time>2024-05-08T14:25:56Z</time>
</trkpt>
<trkpt lat="49.41598506644368" lon="9.159838669002056">
<ele>311.2</ele>
<time>2024-05-08T14:25:57Z</time>
</trkpt>
<trkpt lat="49.41599269397557" lon="9.159872950986028">
<ele>311.2</ele>
<time>2024-05-08T14:25:58Z</time>
</trkpt>
<trkpt lat="49.41599654965103" lon="9.15990823879838">
<ele>311.2</ele>
<time>2024-05-08T14:25:59Z</time>
</trkpt>
<trkpt lat="49.41599654965103" lon="9.159941598773004">
<ele>311.2</ele>
<time>2024-05-08T14:26:00Z</time>
</trkpt>
<trkpt lat="49.41600417718291" lon="9.159975042566655">
<ele>311.4</ele>
<time>2024-05-08T14:26:01Z</time>
</trkpt>
<trkpt lat="49.41600794903934" lon="9.16000840254128">
<ele>311.4</ele>
<time>2024-05-08T14:26:02Z</time>
</trkpt>
<trkpt lat="49.416015576571226" lon="9.160041762515904">
<ele>311.4</ele>
<time>2024-05-08T14:26:03Z</time>
</trkpt>
<trkpt lat="49.416019432246685" lon="9.160073278471828">
<ele>311.4</ele>
<time>2024-05-08T14:26:04Z</time>
</trkpt>
<trkpt lat="49.41602320410311" lon="9.16010471060872">
<ele>311.6</ele>
<time>2024-05-08T14:26:05Z</time>
</trkpt>
<trkpt lat="49.41602705977857" lon="9.160136142745614">
<ele>311.6</ele>
<time>2024-05-08T14:26:06Z</time>
</trkpt>
<trkpt lat="49.416030831635" lon="9.160168580710888">
<ele>311.6</ele>
<time>2024-05-08T14:26:07Z</time>
</trkpt>
<trkpt lat="49.41603468731046" lon="9.160200096666811">
<ele>311.8</ele>
<time>2024-05-08T14:26:08Z</time>
</trkpt>
<trkpt lat="49.41603845916688" lon="9.160233456641436">
<ele>311.8</ele>
<time>2024-05-08T14:26:09Z</time>
</trkpt>
<trkpt lat="49.41603845916688" lon="9.160268744453788">
<ele>312</ele>
<time>2024-05-08T14:26:10Z</time>
</trkpt>
<trkpt lat="49.41604994237423" lon="9.160338398069143">
<ele>312.2</ele>
<time>2024-05-08T14:26:11Z</time>
</trkpt>
<trkpt lat="49.41605371423066" lon="9.160371758043766">
<ele>312.2</ele>
<time>2024-05-08T14:26:13Z</time>
</trkpt>
<trkpt lat="49.416057569906116" lon="9.160407045856118">
<ele>312.4</ele>
<time>2024-05-08T14:26:14Z</time>
</trkpt>
<trkpt lat="49.416065197438" lon="9.16044325567782">
<ele>312.4</ele>
<time>2024-05-08T14:26:15Z</time>
</trkpt>
<trkpt lat="49.416065197438" lon="9.16047946549952">
<ele>312.4</ele>
<time>2024-05-08T14:26:16Z</time>
</trkpt>
<trkpt lat="49.41607282496989" lon="9.160518608987331">
<ele>312.4</ele>
<time>2024-05-08T14:26:17Z</time>
</trkpt>
<trkpt lat="49.416076596826315" lon="9.160554818809032">
<ele>312.4</ele>
<time>2024-05-08T14:26:18Z</time>
</trkpt>
<trkpt lat="49.416076596826315" lon="9.160590106621385">
<ele>312.4</ele>
<time>2024-05-08T14:26:19Z</time>
</trkpt>
<trkpt lat="49.416080452501774" lon="9.16062355041504">
<ele>312.6</ele>
<time>2024-05-08T14:26:20Z</time>
</trkpt>
<trkpt lat="49.4160842243582" lon="9.160654982551932">
<ele>312.6</ele>
<time>2024-05-08T14:26:21Z</time>
</trkpt>
<trkpt lat="49.41609185189009" lon="9.160688342526557">
<ele>312.8</ele>
<time>2024-05-08T14:26:22Z</time>
</trkpt>
<trkpt lat="49.41609185189009" lon="9.160723630338907">
<ele>312.8</ele>
<time>2024-05-08T14:26:23Z</time>
</trkpt>
<trkpt lat="49.416095707565546" lon="9.16075992397964">
<ele>313</ele>
<time>2024-05-08T14:26:24Z</time>
</trkpt>
<trkpt lat="49.41609947942197" lon="9.160795211791992">
<ele>313</ele>
<time>2024-05-08T14:26:25Z</time>
</trkpt>
<trkpt lat="49.41610333509743" lon="9.160829493775964">
<ele>313</ele>
<time>2024-05-08T14:26:26Z</time>
</trkpt>
<trkpt lat="49.41610710695386" lon="9.160864781588316">
<ele>313</ele>
<time>2024-05-08T14:26:27Z</time>
</trkpt>
<trkpt lat="49.41611096262932" lon="9.160901997238398">
<ele>313</ele>
<time>2024-05-08T14:26:28Z</time>
</trkpt>
<trkpt lat="49.416114734485745" lon="9.16093627922237">
<ele>313.2</ele>
<time>2024-05-08T14:26:29Z</time>
</trkpt>
<trkpt lat="49.416114734485745" lon="9.16097349487245">
<ele>313.2</ele>
<time>2024-05-08T14:26:30Z</time>
</trkpt>
<trkpt lat="49.4161185901612" lon="9.161007860675454">
<ele>313.2</ele>
<time>2024-05-08T14:26:31Z</time>
</trkpt>
<trkpt lat="49.4161185901612" lon="9.161043148487806">
<ele>313.2</ele>
<time>2024-05-08T14:26:32Z</time>
</trkpt>
<trkpt lat="49.41612236201763" lon="9.161081286147237">
<ele>313.2</ele>
<time>2024-05-08T14:26:33Z</time>
</trkpt>
<trkpt lat="49.41612621769309" lon="9.161118501797318">
<ele>313.4</ele>
<time>2024-05-08T14:26:34Z</time>
</trkpt>
<trkpt lat="49.41612998954952" lon="9.16115378960967">
<ele>313.4</ele>
<time>2024-05-08T14:26:35Z</time>
</trkpt>
<trkpt lat="49.41613761708141" lon="9.161185221746564">
<ele>313.4</ele>
<time>2024-05-08T14:26:36Z</time>
</trkpt>
<trkpt lat="49.41614524461329" lon="9.161216653883455">
<ele>313.4</ele>
<time>2024-05-08T14:26:37Z</time>
</trkpt>
<trkpt lat="49.416152872145176" lon="9.161245319992304">
<ele>313.4</ele>
<time>2024-05-08T14:26:38Z</time>
</trkpt>
<trkpt lat="49.416156727820635" lon="9.16127298027277">
<ele>313.6</ele>
<time>2024-05-08T14:26:39Z</time>
</trkpt>
<trkpt lat="49.41616435535252" lon="9.161306340247393">
<ele>313.6</ele>
<time>2024-05-08T14:26:40Z</time>
</trkpt>
<trkpt lat="49.416175838559866" lon="9.161341628059745">
<ele>313.6</ele>
<time>2024-05-08T14:26:41Z</time>
</trkpt>
<trkpt lat="49.41619109362364" lon="9.161373060196638">
<ele>313.8</ele>
<time>2024-05-08T14:26:42Z</time>
</trkpt>
<trkpt lat="49.41620634868741" lon="9.161401726305485">
<ele>313.8</ele>
<time>2024-05-08T14:26:43Z</time>
</trkpt>
<trkpt lat="49.41621012054384" lon="9.16142838075757">
<ele>313.8</ele>
<time>2024-05-08T14:26:44Z</time>
</trkpt>
<trkpt lat="49.41621774807573" lon="9.161453191190958">
<ele>313.8</ele>
<time>2024-05-08T14:26:45Z</time>
</trkpt>
<trkpt lat="49.41622537560761" lon="9.161483701318502">
<ele>313.8</ele>
<time>2024-05-08T14:26:46Z</time>
</trkpt>
<trkpt lat="49.416233003139496" lon="9.161511361598969">
<ele>314</ele>
<time>2024-05-08T14:26:47Z</time>
</trkpt>
<trkpt lat="49.416236858814955" lon="9.161540027707815">
<ele>314</ele>
<time>2024-05-08T14:26:48Z</time>
</trkpt>
<trkpt lat="49.41624448634684" lon="9.16156860999763">
<ele>314.2</ele>
<time>2024-05-08T14:26:49Z</time>
</trkpt>
<trkpt lat="49.41624825820327" lon="9.161600042134523">
<ele>314.2</ele>
<time>2024-05-08T14:26:50Z</time>
</trkpt>
<trkpt lat="49.41624825820327" lon="9.161635329946876">
<ele>314.2</ele>
<time>2024-05-08T14:26:51Z</time>
</trkpt>
<trkpt lat="49.41625211387873" lon="9.16166969574988">
<ele>314.4</ele>
<time>2024-05-08T14:26:52Z</time>
</trkpt>
<trkpt lat="49.416255885735154" lon="9.161703055724502">
<ele>314.4</ele>
<time>2024-05-08T14:26:53Z</time>
</trkpt>
<trkpt lat="49.41625974141061" lon="9.161736415699124">
<ele>314.6</ele>
<time>2024-05-08T14:26:54Z</time>
</trkpt>
<trkpt lat="49.416271140798926" lon="9.16176793165505">
<ele>314.6</ele>
<time>2024-05-08T14:26:55Z</time>
</trkpt>
<trkpt lat="49.41627876833081" lon="9.161801291629672">
<ele>314.6</ele>
<time>2024-05-08T14:26:56Z</time>
</trkpt>
<trkpt lat="49.4162863958627" lon="9.161833729594946">
<ele>314.6</ele>
<time>2024-05-08T14:26:57Z</time>
</trkpt>
<trkpt lat="49.416294023394585" lon="9.161861389875412">
<ele>314.6</ele>
<time>2024-05-08T14:26:58Z</time>
</trkpt>
<trkpt lat="49.41630550660193" lon="9.161891900002956">
<ele>314.6</ele>
<time>2024-05-08T14:26:59Z</time>
</trkpt>
<trkpt lat="49.416313134133816" lon="9.161921488121152">
<ele>314.6</ele>
<time>2024-05-08T14:27:00Z</time>
</trkpt>
<trkpt lat="49.41632453352213" lon="9.161951998248696">
<ele>314.6</ele>
<time>2024-05-08T14:27:01Z</time>
</trkpt>
<trkpt lat="49.41633224487305" lon="9.16198150254786">
<ele>314.6</ele>
<time>2024-05-08T14:27:02Z</time>
</trkpt>
<trkpt lat="49.41633987240493" lon="9.162013018503783">
<ele>314.6</ele>
<time>2024-05-08T14:27:03Z</time>
</trkpt>
<trkpt lat="49.41634364426136" lon="9.1620416007936">
<ele>314.8</ele>
<time>2024-05-08T14:27:04Z</time>
</trkpt>
<trkpt lat="49.416351271793246" lon="9.162071188911796">
<ele>314.8</ele>
<time>2024-05-08T14:27:05Z</time>
</trkpt>
<trkpt lat="49.41635889932513" lon="9.16210169903934">
<ele>314.8</ele>
<time>2024-05-08T14:27:06Z</time>
</trkpt>
<trkpt lat="49.41636652685702" lon="9.162131287157536">
<ele>315</ele>
<time>2024-05-08T14:27:07Z</time>
</trkpt>
<trkpt lat="49.41637038253248" lon="9.16216179728508">
<ele>315</ele>
<time>2024-05-08T14:27:08Z</time>
</trkpt>
<trkpt lat="49.416374154388905" lon="9.162193229421971">
<ele>315.2</ele>
<time>2024-05-08T14:27:09Z</time>
</trkpt>
<trkpt lat="49.41637801006436" lon="9.162226673215628">
<ele>315.2</ele>
<time>2024-05-08T14:27:10Z</time>
</trkpt>
<trkpt lat="49.41638178192079" lon="9.16225810535252">
<ele>315.2</ele>
<time>2024-05-08T14:27:11Z</time>
</trkpt>
<trkpt lat="49.41638563759625" lon="9.162291465327144">
<ele>315.4</ele>
<time>2024-05-08T14:27:12Z</time>
</trkpt>
<trkpt lat="49.416393265128136" lon="9.162324825301766">
<ele>315.4</ele>
<time>2024-05-08T14:27:13Z</time>
</trkpt>
<trkpt lat="49.41639703698456" lon="9.16236011311412">
<ele>315.4</ele>
<time>2024-05-08T14:27:14Z</time>
</trkpt>
<trkpt lat="49.41640466451645" lon="9.16239833459258">
<ele>315.6</ele>
<time>2024-05-08T14:27:15Z</time>
</trkpt>
<trkpt lat="49.41640852019191" lon="9.162438316270707">
<ele>315.8</ele>
<time>2024-05-08T14:27:16Z</time>
</trkpt>
<trkpt lat="49.416412292048335" lon="9.162478381767867">
<ele>315.8</ele>
<time>2024-05-08T14:27:17Z</time>
</trkpt>
<trkpt lat="49.416416147723794" lon="9.162520375102758">
<ele>316</ele>
<time>2024-05-08T14:27:18Z</time>
</trkpt>
<trkpt lat="49.416416147723794" lon="9.162565218284726">
<ele>316</ele>
<time>2024-05-08T14:27:19Z</time>
</trkpt>
<trkpt lat="49.41641991958022" lon="9.162611905485392">
<ele>316.2</ele>
<time>2024-05-08T14:27:20Z</time>
</trkpt>
<trkpt lat="49.41641991958022" lon="9.162658676505089">
<ele>316.2</ele>
<time>2024-05-08T14:27:21Z</time>
</trkpt>
<trkpt lat="49.41641991958022" lon="9.162706369534137">
<ele>316.4</ele>
<time>2024-05-08T14:27:22Z</time>
</trkpt>
<trkpt lat="49.416431402787566" lon="9.162799827754498">
<ele>316.4</ele>
<time>2024-05-08T14:27:23Z</time>
</trkpt>
<trkpt lat="49.41643517464399" lon="9.162843665108085">
<ele>316.4</ele>
<time>2024-05-08T14:27:25Z</time>
</trkpt>
<trkpt lat="49.41643903031945" lon="9.162884652614594">
<ele>316.4</ele>
<time>2024-05-08T14:27:26Z</time>
</trkpt>
<trkpt lat="49.41644280217588" lon="9.162921868264675">
<ele>316.4</ele>
<time>2024-05-08T14:27:27Z</time>
</trkpt>
<trkpt lat="49.41644280217588" lon="9.162956234067678">
<ele>316.6</ele>
<time>2024-05-08T14:27:28Z</time>
</trkpt>
<trkpt lat="49.41644665785134" lon="9.16299152188003">
<ele>316.6</ele>
<time>2024-05-08T14:27:29Z</time>
</trkpt>
<trkpt lat="49.41644665785134" lon="9.163022032007577">
<ele>316.6</ele>
<time>2024-05-08T14:27:30Z</time>
</trkpt>
<trkpt lat="49.416450429707766" lon="9.163044914603232">
<ele>316.6</ele>
<time>2024-05-08T14:27:31Z</time>
</trkpt>
<trkpt lat="49.416454285383224" lon="9.163053464144468">
<ele>316.6</ele>
<time>2024-05-08T14:27:32Z</time>
</trkpt>
<trkpt lat="49.416454285383224" lon="9.16304969228804">
<ele>316.6</ele>
<time>2024-05-08T14:27:33Z</time>
</trkpt>
<trkpt lat="49.416454285383224" lon="9.16304868645966">
<ele>316.6</ele>
<time>2024-05-08T14:27:34Z</time>
</trkpt>
<trkpt lat="49.416450429707766" lon="9.16304868645966">
<ele>316.4</ele>
<time>2024-05-08T14:27:37Z</time>
</trkpt>
<trkpt lat="49.416450429707766" lon="9.163046758621933">
<ele>316.4</ele>
<time>2024-05-08T14:27:39Z</time>
</trkpt>
<trkpt lat="49.416450429707766" lon="9.163044914603232">
<ele>316.4</ele>
<time>2024-05-08T14:27:41Z</time>
</trkpt>
<trkpt lat="49.416450429707766" lon="9.163042986765504">
<ele>316.4</ele>
<time>2024-05-08T14:27:44Z</time>
</trkpt>
<trkpt lat="49.416450429707766" lon="9.163042064756157">
<ele>316.2</ele>
<time>2024-05-08T14:27:47Z</time>
</trkpt>
<trkpt lat="49.41644665785134" lon="9.163040136918426">
<ele>316.2</ele>
<time>2024-05-08T14:27:50Z</time>
</trkpt>
<trkpt lat="49.41644665785134" lon="9.163038209080696">
<ele>316.2</ele>
<time>2024-05-08T14:27:58Z</time>
</trkpt>
<trkpt lat="49.41644665785134" lon="9.163036281242968">
<ele>316.2</ele>
<time>2024-05-08T14:27:59Z</time>
</trkpt>
<trkpt lat="49.41644665785134" lon="9.163035359233618">
<ele>316.2</ele>
<time>2024-05-08T14:28:00Z</time>
</trkpt>
<trkpt lat="49.41644665785134" lon="9.163033431395888">
<ele>316.2</ele>
<time>2024-05-08T14:28:08Z</time>
</trkpt>
<trkpt lat="49.41644665785134" lon="9.163035359233618">
<ele>316.2</ele>
<time>2024-05-08T14:28:13Z</time>
</trkpt>
<trkpt lat="49.41644665785134" lon="9.163033431395888">
<ele>316.2</ele>
<time>2024-05-08T14:28:14Z</time>
</trkpt>
<trkpt lat="49.41644280217588" lon="9.163033431395888">
<ele>316.2</ele>
<time>2024-05-08T14:28:17Z</time>
</trkpt>
<trkpt lat="49.41644280217588" lon="9.16303150355816">
<ele>316.2</ele>
<time>2024-05-08T14:28:24Z</time>
</trkpt>
<trkpt lat="49.41644280217588" lon="9.16302965953946">
<ele>316.2</ele>
<time>2024-05-08T14:28:30Z</time>
</trkpt>
<trkpt lat="49.41644280217588" lon="9.16302865371108">
<ele>316</ele>
<time>2024-05-08T14:28:43Z</time>
</trkpt>
<trkpt lat="49.41644280217588" lon="9.163026809692385">
<ele>316</ele>
<time>2024-05-08T14:28:59Z</time>
</trkpt>
<trkpt lat="49.41644280217588" lon="9.163024881854652">
<ele>315.8</ele>
<time>2024-05-08T14:29:05Z</time>
</trkpt>
<trkpt lat="49.41643903031945" lon="9.163024881854652">
<ele>315.8</ele>
<time>2024-05-08T14:29:07Z</time>
</trkpt>
<trkpt lat="49.41643903031945" lon="9.163022954016924">
<ele>315.8</ele>
<time>2024-05-08T14:29:11Z</time>
</trkpt>
<trkpt lat="49.41643903031945" lon="9.163026809692385">
<ele>315.6</ele>
<time>2024-05-08T14:29:15Z</time>
</trkpt>
<trkpt lat="49.41643903031945" lon="9.163024881854652">
<ele>315.6</ele>
<time>2024-05-08T14:29:17Z</time>
</trkpt>
<trkpt lat="49.41644280217588" lon="9.163024881854652">
<ele>315.6</ele>
<time>2024-05-08T14:29:19Z</time>
</trkpt>
<trkpt lat="49.41643517464399" lon="9.163035359233618">
<ele>315.6</ele>
<time>2024-05-08T14:29:20Z</time>
</trkpt>
<trkpt lat="49.41643517464399" lon="9.163055391982198">
<ele>315.8</ele>
<time>2024-05-08T14:29:21Z</time>
</trkpt>
<trkpt lat="49.41643517464399" lon="9.163080202415586">
<ele>315.8</ele>
<time>2024-05-08T14:29:22Z</time>
</trkpt>
<trkpt lat="49.41643517464399" lon="9.163107862696052">
<ele>315.8</ele>
<time>2024-05-08T14:29:23Z</time>
</trkpt>
<trkpt lat="49.41643903031945" lon="9.163140216842294">
<ele>315.8</ele>
<time>2024-05-08T14:29:24Z</time>
</trkpt>
<trkpt lat="49.41644280217588" lon="9.163176510483028">
<ele>316</ele>
<time>2024-05-08T14:29:26Z</time>
</trkpt>
<trkpt lat="49.41644665785134" lon="9.163214648142455">
<ele>316</ele>
<time>2024-05-08T14:29:27Z</time>
</trkpt>
<trkpt lat="49.416454285383224" lon="9.163298550993204">
<ele>316</ele>
<time>2024-05-08T14:29:28Z</time>
</trkpt>
<trkpt lat="49.41646191291511" lon="9.1633453220129">
<ele>316</ele>
<time>2024-05-08T14:29:29Z</time>
</trkpt>
<trkpt lat="49.416469540447" lon="9.163390081375836">
<ele>316</ele>
<time>2024-05-08T14:29:30Z</time>
</trkpt>
<trkpt lat="49.416473312303424" lon="9.163443557918072">
<ele>316.2</ele>
<time>2024-05-08T14:29:31Z</time>
</trkpt>
<trkpt lat="49.41648093983531" lon="9.163497872650623">
<ele>316.2</ele>
<time>2024-05-08T14:29:32Z</time>
</trkpt>
<trkpt lat="49.41648479551077" lon="9.163557048887014">
<ele>316.2</ele>
<time>2024-05-08T14:29:33Z</time>
</trkpt>
<trkpt lat="49.416492423042655" lon="9.1636199131608">
<ele>316.2</ele>
<time>2024-05-08T14:29:34Z</time>
</trkpt>
<trkpt lat="49.41650005057454" lon="9.163684789091349">
<ele>316.2</ele>
<time>2024-05-08T14:29:35Z</time>
</trkpt>
<trkpt lat="49.41650390625" lon="9.163751592859626">
<ele>316.2</ele>
<time>2024-05-08T14:29:36Z</time>
</trkpt>
<trkpt lat="49.416511533781886" lon="9.16382309049368">
<ele>316.2</ele>
<time>2024-05-08T14:29:37Z</time>
</trkpt>
<trkpt lat="49.41651530563831" lon="9.163893666118383">
<ele>316.4</ele>
<time>2024-05-08T14:29:38Z</time>
</trkpt>
<trkpt lat="49.41652678884566" lon="9.163963235914707">
<ele>316.4</ele>
<time>2024-05-08T14:29:39Z</time>
</trkpt>
<trkpt lat="49.416530560702085" lon="9.164031967520714">
<ele>316.6</ele>
<time>2024-05-08T14:29:40Z</time>
</trkpt>
<trkpt lat="49.41653818823397" lon="9.16409868746996">
<ele>316.8</ele>
<time>2024-05-08T14:29:41Z</time>
</trkpt>
<trkpt lat="49.41654581576586" lon="9.164163563400509">
<ele>316.8</ele>
<time>2024-05-08T14:29:42Z</time>
</trkpt>
<trkpt lat="49.416553443297744" lon="9.164224583655596">
<ele>317</ele>
<time>2024-05-08T14:29:43Z</time>
</trkpt>
<trkpt lat="49.4165572989732" lon="9.164284681901336">
<ele>317.2</ele>
<time>2024-05-08T14:29:44Z</time>
</trkpt>
<trkpt lat="49.4165572989732" lon="9.164342852309346">
<ele>317.2</ele>
<time>2024-05-08T14:29:45Z</time>
</trkpt>
<trkpt lat="49.4165572989732" lon="9.164396245032547">
<ele>317.2</ele>
<time>2024-05-08T14:29:46Z</time>
</trkpt>
<trkpt lat="49.416553443297744" lon="9.164446787908672">
<ele>317.4</ele>
<time>2024-05-08T14:29:47Z</time>
</trkpt>
<trkpt lat="49.416553443297744" lon="9.16449355892837">
<ele>317.6</ele>
<time>2024-05-08T14:29:48Z</time>
</trkpt>
<trkpt lat="49.41656107082963" lon="9.164538318291306">
<ele>317.6</ele>
<time>2024-05-08T14:29:49Z</time>
</trkpt>
<trkpt lat="49.41656869836152" lon="9.164583161473274">
<ele>317.8</ele>
<time>2024-05-08T14:29:50Z</time>
</trkpt>
<trkpt lat="49.41658018156886" lon="9.164628004655242">
<ele>318</ele>
<time>2024-05-08T14:29:51Z</time>
</trkpt>
<trkpt lat="49.41659543663263" lon="9.164681397378445">
<ele>318</ele>
<time>2024-05-08T14:29:52Z</time>
</trkpt>
<trkpt lat="49.41661446355283" lon="9.164734790101647">
<ele>318.2</ele>
<time>2024-05-08T14:29:53Z</time>
</trkpt>
<trkpt lat="49.416629718616605" lon="9.164792038500307">
<ele>318.4</ele>
<time>2024-05-08T14:29:54Z</time>
</trkpt>
<trkpt lat="49.41665260121226" lon="9.16484635323286">
<ele>318.4</ele>
<time>2024-05-08T14:29:55Z</time>
</trkpt>
<trkpt lat="49.416671711951494" lon="9.164901673793793">
<ele>318.4</ele>
<time>2024-05-08T14:29:56Z</time>
</trkpt>
<trkpt lat="49.41669845022261" lon="9.164958000183104">
<ele>318.4</ele>
<time>2024-05-08T14:29:57Z</time>
</trkpt>
<trkpt lat="49.4167251046747" lon="9.165011392906308">
<ele>318.4</ele>
<time>2024-05-08T14:29:58Z</time>
</trkpt>
<trkpt lat="49.416751842945814" lon="9.16506478562951">
<ele>318.4</ele>
<time>2024-05-08T14:29:59Z</time>
</trkpt>
<trkpt lat="49.41678235307336" lon="9.165118178352714">
<ele>318.4</ele>
<time>2024-05-08T14:30:00Z</time>
</trkpt>
<trkpt lat="49.4168128632009" lon="9.165171571075916">
<ele>318.4</ele>
<time>2024-05-08T14:30:01Z</time>
</trkpt>
<trkpt lat="49.41684337332845" lon="9.16522311978042">
<ele>318.4</ele>
<time>2024-05-08T14:30:02Z</time>
</trkpt>
<trkpt lat="49.41687388345599" lon="9.165273662656546">
<ele>318.4</ele>
<time>2024-05-08T14:30:03Z</time>
</trkpt>
<trkpt lat="49.416908249258995" lon="9.16532319970429">
<ele>318.2</ele>
<time>2024-05-08T14:30:04Z</time>
</trkpt>
<trkpt lat="49.41693875938654" lon="9.165369970723988">
<ele>318.2</ele>
<time>2024-05-08T14:30:05Z</time>
</trkpt>
<trkpt lat="49.41697304137051" lon="9.165414730086924">
<ele>318.2</ele>
<time>2024-05-08T14:30:06Z</time>
</trkpt>
<trkpt lat="49.417007407173514" lon="9.165454795584084">
<ele>318.2</ele>
<time>2024-05-08T14:30:07Z</time>
</trkpt>
<trkpt lat="49.41704177297652" lon="9.165492011234164">
<ele>318.2</ele>
<time>2024-05-08T14:30:08Z</time>
</trkpt>
<trkpt lat="49.41707991063595" lon="9.165528221055864">
<ele>318.2</ele>
<time>2024-05-08T14:30:09Z</time>
</trkpt>
<trkpt lat="49.41711804829538" lon="9.165564514696598">
<ele>318</ele>
<time>2024-05-08T14:30:10Z</time>
</trkpt>
<trkpt lat="49.41715995781123" lon="9.16559787467122">
<ele>318</ele>
<time>2024-05-08T14:30:11Z</time>
</trkpt>
<trkpt lat="49.4171981792897" lon="9.165631234645844">
<ele>318</ele>
<time>2024-05-08T14:30:12Z</time>
</trkpt>
<trkpt lat="49.417243944481015" lon="9.165663672611116">
<ele>317.8</ele>
<time>2024-05-08T14:30:13Z</time>
</trkpt>
<trkpt lat="49.41728585399687" lon="9.165693260729311">
<ele>317.8</ele>
<time>2024-05-08T14:30:14Z</time>
</trkpt>
<trkpt lat="49.41733161918819" lon="9.165719915181398">
<ele>317.8</ele>
<time>2024-05-08T14:30:15Z</time>
</trkpt>
<trkpt lat="49.41737361252308" lon="9.165741875767708">
<ele>317.8</ele>
<time>2024-05-08T14:30:16Z</time>
</trkpt>
<trkpt lat="49.4174193777144" lon="9.165761908516288">
<ele>317.6</ele>
<time>2024-05-08T14:30:17Z</time>
</trkpt>
<trkpt lat="49.417461371049285" lon="9.165780013427138">
<ele>317.6</ele>
<time>2024-05-08T14:30:18Z</time>
</trkpt>
<trkpt lat="49.41750328056514" lon="9.165800046175718">
<ele>317.8</ele>
<time>2024-05-08T14:30:19Z</time>
</trkpt>
<trkpt lat="49.41754912957549" lon="9.16581530123949">
<ele>317.8</ele>
<time>2024-05-08T14:30:20Z</time>
</trkpt>
<trkpt lat="49.41759489476681" lon="9.165826784446836">
<ele>317.6</ele>
<time>2024-05-08T14:30:21Z</time>
</trkpt>
<trkpt lat="49.417636804282665" lon="9.16583625599742">
<ele>317.6</ele>
<time>2024-05-08T14:30:22Z</time>
</trkpt>
<trkpt lat="49.41768256947398" lon="9.165842961519957">
<ele>317.6</ele>
<time>2024-05-08T14:30:23Z</time>
</trkpt>
<trkpt lat="49.41772841848433" lon="9.165846817195415">
<ele>317.6</ele>
<time>2024-05-08T14:30:24Z</time>
</trkpt>
<trkpt lat="49.41777418367565" lon="9.165844889357686">
<ele>317.8</ele>
<time>2024-05-08T14:30:25Z</time>
</trkpt>
<trkpt lat="49.41781994886696" lon="9.165844889357686">
<ele>317.8</ele>
<time>2024-05-08T14:30:26Z</time>
</trkpt>
<trkpt lat="49.41786571405828" lon="9.165842961519957">
<ele>317.8</ele>
<time>2024-05-08T14:30:27Z</time>
</trkpt>
<trkpt lat="49.4179114792496" lon="9.165838183835149">
<ele>317.8</ele>
<time>2024-05-08T14:30:28Z</time>
</trkpt>
<trkpt lat="49.41796110011637" lon="9.165828628465531">
<ele>317.6</ele>
<time>2024-05-08T14:30:29Z</time>
</trkpt>
<trkpt lat="49.41800686530769" lon="9.165816307067873">
<ele>317.6</ele>
<time>2024-05-08T14:30:30Z</time>
</trkpt>
<trkpt lat="49.418052630499005" lon="9.165802896022797">
<ele>317.6</ele>
<time>2024-05-08T14:30:31Z</time>
</trkpt>
<trkpt lat="49.41809839569032" lon="9.165789568796754">
<ele>317.6</ele>
<time>2024-05-08T14:30:32Z</time>
</trkpt>
<trkpt lat="49.41814416088164" lon="9.165776241570711">
<ele>317.6</ele>
<time>2024-05-08T14:30:33Z</time>
</trkpt>
<trkpt lat="49.41818615421653" lon="9.165762830525637">
<ele>317.8</ele>
<time>2024-05-08T14:30:34Z</time>
</trkpt>
<trkpt lat="49.418231919407845" lon="9.165749503299594">
<ele>317.8</ele>
<time>2024-05-08T14:30:35Z</time>
</trkpt>
<trkpt lat="49.418273912742734" lon="9.165736176073551">
<ele>317.8</ele>
<time>2024-05-08T14:30:36Z</time>
</trkpt>
<trkpt lat="49.41831582225859" lon="9.165719915181398">
<ele>317.8</ele>
<time>2024-05-08T14:30:37Z</time>
</trkpt>
<trkpt lat="49.41836158744991" lon="9.165704660117626">
<ele>317.8</ele>
<time>2024-05-08T14:30:38Z</time>
</trkpt>
<trkpt lat="49.41840743646026" lon="9.165690410882236">
<ele>318</ele>
<time>2024-05-08T14:30:39Z</time>
</trkpt>
<trkpt lat="49.41845320165157" lon="9.165671300143003">
<ele>318</ele>
<time>2024-05-08T14:30:40Z</time>
</trkpt>
<trkpt lat="49.41849511116743" lon="9.165653195232151">
<ele>318</ele>
<time>2024-05-08T14:30:41Z</time>
</trkpt>
<trkpt lat="49.41854087635875" lon="9.16563693434">
<ele>318</ele>
<time>2024-05-08T14:30:42Z</time>
</trkpt>
<trkpt lat="49.418586725369096" lon="9.165616985410452">
<ele>318</ele>
<time>2024-05-08T14:30:43Z</time>
</trkpt>
<trkpt lat="49.41862863488495" lon="9.16560173034668">
<ele>318</ele>
<time>2024-05-08T14:30:44Z</time>
</trkpt>
<trkpt lat="49.41867825575173" lon="9.165586391463876">
<ele>318</ele>
<time>2024-05-08T14:30:45Z</time>
</trkpt>
<trkpt lat="49.418724020943046" lon="9.165570214390756">
<ele>318</ele>
<time>2024-05-08T14:30:46Z</time>
</trkpt>
<trkpt lat="49.41876978613436" lon="9.165553031489251">
<ele>318.2</ele>
<time>2024-05-08T14:30:47Z</time>
</trkpt>
<trkpt lat="49.41881555132568" lon="9.165536854416132">
<ele>318.2</ele>
<time>2024-05-08T14:30:48Z</time>
</trkpt>
<trkpt lat="49.41885754466057" lon="9.16552352719009">
<ele>318.2</ele>
<time>2024-05-08T14:30:49Z</time>
</trkpt>
<trkpt lat="49.41889182664454" lon="9.165510116145017">
<ele>318.2</ele>
<time>2024-05-08T14:30:50Z</time>
</trkpt>
<trkpt lat="49.41892619244754" lon="9.16549963876605">
<ele>318.4</ele>
<time>2024-05-08T14:30:51Z</time>
</trkpt>
<trkpt lat="49.41895670257509" lon="9.165492011234164">
<ele>318.6</ele>
<time>2024-05-08T14:30:52Z</time>
</trkpt>
<trkpt lat="49.41899106837809" lon="9.1654815338552">
<ele>318.6</ele>
<time>2024-05-08T14:30:53Z</time>
</trkpt>
<trkpt lat="49.41902920603752" lon="9.165468206629155">
<ele>318.6</ele>
<time>2024-05-08T14:30:54Z</time>
</trkpt>
<trkpt lat="49.41907111555338" lon="9.165454795584084">
<ele>318.6</ele>
<time>2024-05-08T14:30:55Z</time>
</trkpt>
<trkpt lat="49.41910933703184" lon="9.16544146835804">
<ele>318.4</ele>
<time>2024-05-08T14:30:56Z</time>
</trkpt>
<trkpt lat="49.4191512465477" lon="9.165428141131995">
<ele>318.4</ele>
<time>2024-05-08T14:30:57Z</time>
</trkpt>
<trkpt lat="49.41919323988259" lon="9.165411880239844">
<ele>318.6</ele>
<time>2024-05-08T14:30:58Z</time>
</trkpt>
<trkpt lat="49.41924277693033" lon="9.165388075634835">
<ele>318.6</ele>
<time>2024-05-08T14:30:59Z</time>
</trkpt>
<trkpt lat="49.419280998408794" lon="9.165378520265222">
<ele>318.6</ele>
<time>2024-05-08T14:31:00Z</time>
</trkpt>
<trkpt lat="49.41932290792465" lon="9.165368042886255">
<ele>318.6</ele>
<time>2024-05-08T14:31:01Z</time>
</trkpt>
<trkpt lat="49.41936490125954" lon="9.165354715660214">
<ele>318.6</ele>
<time>2024-05-08T14:31:02Z</time>
</trkpt>
<trkpt lat="49.4194068107754" lon="9.165340382605793">
<ele>318.6</ele>
<time>2024-05-08T14:31:03Z</time>
</trkpt>
<trkpt lat="49.419456431642175" lon="9.165318422019482">
<ele>318.8</ele>
<time>2024-05-08T14:31:04Z</time>
</trkpt>
<trkpt lat="49.41950219683349" lon="9.165298389270902">
<ele>319</ele>
<time>2024-05-08T14:31:05Z</time>
</trkpt>
<trkpt lat="49.41954796202481" lon="9.165280284360051">
<ele>319</ele>
<time>2024-05-08T14:31:06Z</time>
</trkpt>
<trkpt lat="49.4195899553597" lon="9.165260251611471">
<ele>319.2</ele>
<time>2024-05-08T14:31:07Z</time>
</trkpt>
<trkpt lat="49.41962809301913" lon="9.165240218862891">
<ele>319.4</ele>
<time>2024-05-08T14:31:08Z</time>
</trkpt>
<trkpt lat="49.41966623067856" lon="9.16522496379912">
<ele>319.4</ele>
<time>2024-05-08T14:31:09Z</time>
</trkpt>
<trkpt lat="49.41970822401345" lon="9.165211636573076">
<ele>319.6</ele>
<time>2024-05-08T14:31:10Z</time>
</trkpt>
<trkpt lat="49.41974636167288" lon="9.165200153365731">
<ele>319.6</ele>
<time>2024-05-08T14:31:11Z</time>
</trkpt>
<trkpt lat="49.41978449933231" lon="9.165188753977418">
<ele>319.8</ele>
<time>2024-05-08T14:31:12Z</time>
</trkpt>
<trkpt lat="49.4198264926672" lon="9.165173498913646">
<ele>319.8</ele>
<time>2024-05-08T14:31:13Z</time>
</trkpt>
<trkpt lat="49.419868402183056" lon="9.165153466165066">
<ele>320</ele>
<time>2024-05-08T14:31:14Z</time>
</trkpt>
<trkpt lat="49.419910395517945" lon="9.165136283263564">
<ele>320</ele>
<time>2024-05-08T14:31:15Z</time>
</trkpt>
<trkpt lat="49.419952388852835" lon="9.165120106190445">
<ele>320.2</ele>
<time>2024-05-08T14:31:16Z</time>
</trkpt>
<trkpt lat="49.41999429836869" lon="9.165106695145369">
<ele>320.2</ele>
<time>2024-05-08T14:31:17Z</time>
</trkpt>
<trkpt lat="49.42003629170358" lon="9.1650895960629">
<ele>320.4</ele>
<time>2024-05-08T14:31:18Z</time>
</trkpt>
<trkpt lat="49.42007820121944" lon="9.165075263008475">
<ele>320.4</ele>
<time>2024-05-08T14:31:19Z</time>
</trkpt>
<trkpt lat="49.42012405022979" lon="9.165058080106974">
<ele>320.6</ele>
<time>2024-05-08T14:31:20Z</time>
</trkpt>
<trkpt lat="49.420169815421104" lon="9.165039975196123">
<ele>320.6</ele>
<time>2024-05-08T14:31:21Z</time>
</trkpt>
<trkpt lat="49.42021172493696" lon="9.165023798123002">
<ele>320.6</ele>
<time>2024-05-08T14:31:22Z</time>
</trkpt>
<trkpt lat="49.42025749012828" lon="9.165010387077928">
<ele>320.6</ele>
<time>2024-05-08T14:31:23Z</time>
</trkpt>
<trkpt lat="49.42029185593128" lon="9.164999909698963">
<ele>320.8</ele>
<time>2024-05-08T14:31:24Z</time>
</trkpt>
<trkpt lat="49.42032999359071" lon="9.164984654635193">
<ele>320.8</ele>
<time>2024-05-08T14:31:25Z</time>
</trkpt>
<trkpt lat="49.42036435939371" lon="9.16496654972434">
<ele>320.8</ele>
<time>2024-05-08T14:31:26Z</time>
</trkpt>
<trkpt lat="49.420402497053146" lon="9.16494844481349">
<ele>321</ele>
<time>2024-05-08T14:31:27Z</time>
</trkpt>
<trkpt lat="49.42044440656901" lon="9.16493033990264">
<ele>321</ele>
<time>2024-05-08T14:31:28Z</time>
</trkpt>
<trkpt lat="49.420482628047466" lon="9.16491030715406">
<ele>321</ele>
<time>2024-05-08T14:31:29Z</time>
</trkpt>
<trkpt lat="49.42052453756333" lon="9.16489027440548">
<ele>321.2</ele>
<time>2024-05-08T14:31:30Z</time>
</trkpt>
<trkpt lat="49.420562675222754" lon="9.164871163666248">
<ele>321.2</ele>
<time>2024-05-08T14:31:31Z</time>
</trkpt>
<trkpt lat="49.420600812882185" lon="9.164859764277937">
<ele>321.2</ele>
<time>2024-05-08T14:31:32Z</time>
</trkpt>
<trkpt lat="49.42063903436065" lon="9.16484828107059">
<ele>321.2</ele>
<time>2024-05-08T14:31:33Z</time>
</trkpt>
<trkpt lat="49.420680943876505" lon="9.164838725700974">
<ele>321.2</ele>
<time>2024-05-08T14:31:34Z</time>
</trkpt>
<trkpt lat="49.420722937211394" lon="9.164825398474932">
<ele>321.4</ele>
<time>2024-05-08T14:31:35Z</time>
</trkpt>
<trkpt lat="49.42076870240271" lon="9.164812071248887">
<ele>321.4</ele>
<time>2024-05-08T14:31:36Z</time>
</trkpt>
<trkpt lat="49.4208106957376" lon="9.164798660203816">
<ele>321.6</ele>
<time>2024-05-08T14:31:37Z</time>
</trkpt>
<trkpt lat="49.42085260525346" lon="9.164781561121345">
<ele>321.6</ele>
<time>2024-05-08T14:31:38Z</time>
</trkpt>
<trkpt lat="49.420898370444775" lon="9.164766306057572">
<ele>321.8</ele>
<time>2024-05-08T14:31:39Z</time>
</trkpt>
<trkpt lat="49.42094799131155" lon="9.16474811732769">
<ele>321.8</ele>
<time>2024-05-08T14:31:40Z</time>
</trkpt>
<trkpt lat="49.42099375650287" lon="9.164732862263918">
<ele>322</ele>
<time>2024-05-08T14:31:41Z</time>
</trkpt>
<trkpt lat="49.42104337736964" lon="9.164714757353067">
<ele>322</ele>
<time>2024-05-08T14:31:42Z</time>
</trkpt>
<trkpt lat="49.42108151502907" lon="9.164698580279946">
<ele>322</ele>
<time>2024-05-08T14:31:43Z</time>
</trkpt>
<trkpt lat="49.4211196526885" lon="9.164681397378445">
<ele>322.2</ele>
<time>2024-05-08T14:31:44Z</time>
</trkpt>
<trkpt lat="49.421157790347934" lon="9.164665220305324">
<ele>322.2</ele>
<time>2024-05-08T14:31:45Z</time>
</trkpt>
<trkpt lat="49.42120355553925" lon="9.164645187556744">
<ele>322.2</ele>
<time>2024-05-08T14:31:46Z</time>
</trkpt>
<trkpt lat="49.42124932073057" lon="9.164625154808164">
<ele>322.2</ele>
<time>2024-05-08T14:31:47Z</time>
</trkpt>
<trkpt lat="49.421291314065456" lon="9.16461174376309">
<ele>322.2</ele>
<time>2024-05-08T14:31:48Z</time>
</trkpt>
<trkpt lat="49.42132567986846" lon="9.164598416537046">
<ele>322.4</ele>
<time>2024-05-08T14:31:49Z</time>
</trkpt>
<trkpt lat="49.42135996185243" lon="9.164589866995811">
<ele>322.4</ele>
<time>2024-05-08T14:31:50Z</time>
</trkpt>
<trkpt lat="49.42139809951186" lon="9.164578383788466">
<ele>322.6</ele>
<time>2024-05-08T14:31:51Z</time>
</trkpt>
<trkpt lat="49.421432465314865" lon="9.164563128724694">
<ele>322.6</ele>
<time>2024-05-08T14:31:52Z</time>
</trkpt>
<trkpt lat="49.421470602974296" lon="9.164546951651571">
<ele>322.6</ele>
<time>2024-05-08T14:31:53Z</time>
</trkpt>
<trkpt lat="49.421512596309185" lon="9.1645316965878">
<ele>322.6</ele>
<time>2024-05-08T14:31:54Z</time>
</trkpt>
<trkpt lat="49.4215583615005" lon="9.164516441524029">
<ele>322.6</ele>
<time>2024-05-08T14:31:55Z</time>
</trkpt>
<trkpt lat="49.42160027101636" lon="9.164503030478954">
<ele>322.6</ele>
<time>2024-05-08T14:31:56Z</time>
</trkpt>
<trkpt lat="49.42164226435125" lon="9.164486853405831">
<ele>322.8</ele>
<time>2024-05-08T14:31:57Z</time>
</trkpt>
<trkpt lat="49.42168425768614" lon="9.16447352617979">
<ele>322.8</ele>
<time>2024-05-08T14:31:58Z</time>
</trkpt>
<trkpt lat="49.421730022877455" lon="9.164456343278289">
<ele>323</ele>
<time>2024-05-08T14:31:59Z</time>
</trkpt>
<trkpt lat="49.42177578806877" lon="9.164444860070944">
<ele>323</ele>
<time>2024-05-08T14:32:00Z</time>
</trkpt>
<trkpt lat="49.42182155326009" lon="9.164424827322364">
<ele>323.2</ele>
<time>2024-05-08T14:32:01Z</time>
</trkpt>
<trkpt lat="49.421867318451405" lon="9.164406722411512">
<ele>323.2</ele>
<time>2024-05-08T14:32:02Z</time>
</trkpt>
<trkpt lat="49.42191693931818" lon="9.164389539510012">
<ele>323.2</ele>
<time>2024-05-08T14:32:03Z</time>
</trkpt>
<trkpt lat="49.42196647636592" lon="9.16437143459916">
<ele>323.4</ele>
<time>2024-05-08T14:32:04Z</time>
</trkpt>
<trkpt lat="49.42200846970081" lon="9.16435525752604">
<ele>323.4</ele>
<time>2024-05-08T14:32:05Z</time>
</trkpt>
<trkpt lat="49.4220504630357" lon="9.164340002462268">
<ele>323.4</ele>
<time>2024-05-08T14:32:06Z</time>
</trkpt>
<trkpt lat="49.42209622822702" lon="9.164323741570117">
<ele>323.4</ele>
<time>2024-05-08T14:32:07Z</time>
</trkpt>
<trkpt lat="49.42213813774288" lon="9.164308486506345">
<ele>323.4</ele>
<time>2024-05-08T14:32:08Z</time>
</trkpt>
<trkpt lat="49.422183986753225" lon="9.16429323144257">
<ele>323.6</ele>
<time>2024-05-08T14:32:09Z</time>
</trkpt>
<trkpt lat="49.42222589626908" lon="9.16427705436945">
<ele>323.6</ele>
<time>2024-05-08T14:32:10Z</time>
</trkpt>
<trkpt lat="49.42226788960397" lon="9.164259871467948">
<ele>323.6</ele>
<time>2024-05-08T14:32:11Z</time>
</trkpt>
<trkpt lat="49.42230979911983" lon="9.164244616404176">
<ele>323.6</ele>
<time>2024-05-08T14:32:12Z</time>
</trkpt>
<trkpt lat="49.42235179245472" lon="9.164230283349752">
<ele>323.6</ele>
<time>2024-05-08T14:32:13Z</time>
</trkpt>
<trkpt lat="49.42238993011415" lon="9.16421695612371">
<ele>323.8</ele>
<time>2024-05-08T14:32:14Z</time>
</trkpt>
<trkpt lat="49.42242806777358" lon="9.164204550907016">
<ele>323.8</ele>
<time>2024-05-08T14:32:15Z</time>
</trkpt>
<trkpt lat="49.42246620543301" lon="9.164191223680971">
<ele>323.8</ele>
<time>2024-05-08T14:32:16Z</time>
</trkpt>
<trkpt lat="49.42250434309244" lon="9.16417689062655">
<ele>323.8</ele>
<time>2024-05-08T14:32:17Z</time>
</trkpt>
<trkpt lat="49.422542564570904" lon="9.164163563400509">
<ele>323.8</ele>
<time>2024-05-08T14:32:18Z</time>
</trkpt>
<trkpt lat="49.422580702230334" lon="9.164150236174464">
<ele>323.8</ele>
<time>2024-05-08T14:32:19Z</time>
</trkpt>
<trkpt lat="49.42262261174619" lon="9.16413682512939">
<ele>323.8</ele>
<time>2024-05-08T14:32:20Z</time>
</trkpt>
<trkpt lat="49.42266074940562" lon="9.164125425741076">
<ele>323.6</ele>
<time>2024-05-08T14:32:21Z</time>
</trkpt>
<trkpt lat="49.422698970884085" lon="9.164110170677304">
<ele>323.6</ele>
<time>2024-05-08T14:32:22Z</time>
</trkpt>
<trkpt lat="49.42274088039994" lon="9.16409868746996">
<ele>323.6</ele>
<time>2024-05-08T14:32:23Z</time>
</trkpt>
<trkpt lat="49.42278287373483" lon="9.164085360243917">
<ele>323.6</ele>
<time>2024-05-08T14:32:24Z</time>
</trkpt>
<trkpt lat="49.42282101139426" lon="9.164070105180144">
<ele>323.6</ele>
<time>2024-05-08T14:32:25Z</time>
</trkpt>
<trkpt lat="49.42286300472915" lon="9.164054850116372">
<ele>323.8</ele>
<time>2024-05-08T14:32:26Z</time>
</trkpt>
<trkpt lat="49.42290114238858" lon="9.164041439071298">
<ele>323.8</ele>
<time>2024-05-08T14:32:27Z</time>
</trkpt>
<trkpt lat="49.42293928004801" lon="9.164030039682984">
<ele>324</ele>
<time>2024-05-08T14:32:28Z</time>
</trkpt>
<trkpt lat="49.42298118956387" lon="9.164016712456942">
<ele>324</ele>
<time>2024-05-08T14:32:29Z</time>
</trkpt>
<trkpt lat="49.4230193272233" lon="9.16400145739317">
<ele>324.2</ele>
<time>2024-05-08T14:32:30Z</time>
</trkpt>
<trkpt lat="49.42306132055819" lon="9.163988046348097">
<ele>324.2</ele>
<time>2024-05-08T14:32:31Z</time>
</trkpt>
<trkpt lat="49.42309945821762" lon="9.163974719122052">
<ele>324.4</ele>
<time>2024-05-08T14:32:32Z</time>
</trkpt>
<trkpt lat="49.42313759587705" lon="9.163960386067629">
<ele>324.6</ele>
<time>2024-05-08T14:32:33Z</time>
</trkpt>
<trkpt lat="49.42317958921194" lon="9.163945131003857">
<ele>324.6</ele>
<time>2024-05-08T14:32:34Z</time>
</trkpt>
<trkpt lat="49.42322158254683" lon="9.163929875940084">
<ele>324.8</ele>
<time>2024-05-08T14:32:35Z</time>
</trkpt>
<trkpt lat="49.42325972020626" lon="9.163914620876312">
<ele>325</ele>
<time>2024-05-08T14:32:36Z</time>
</trkpt>
<trkpt lat="49.42330162972212" lon="9.16390037164092">
<ele>325</ele>
<time>2024-05-08T14:32:37Z</time>
</trkpt>
<trkpt lat="49.42334362305701" lon="9.16388126090169">
<ele>325</ele>
<time>2024-05-08T14:32:38Z</time>
</trkpt>
<trkpt lat="49.42338176071644" lon="9.163865083828568">
<ele>325</ele>
<time>2024-05-08T14:32:39Z</time>
</trkpt>
<trkpt lat="49.42342375405133" lon="9.163845051079988">
<ele>325.2</ele>
<time>2024-05-08T14:32:40Z</time>
</trkpt>
<trkpt lat="49.42346189171076" lon="9.163825018331409">
<ele>325.2</ele>
<time>2024-05-08T14:32:41Z</time>
</trkpt>
<trkpt lat="49.42350002937019" lon="9.163804985582829">
<ele>325.2</ele>
<time>2024-05-08T14:32:42Z</time>
</trkpt>
<trkpt lat="49.42353816702962" lon="9.16378302499652">
<ele>325.4</ele>
<time>2024-05-08T14:32:43Z</time>
</trkpt>
<trkpt lat="49.42358016036451" lon="9.16376207023859">
<ele>325.4</ele>
<time>2024-05-08T14:32:44Z</time>
</trkpt>
<trkpt lat="49.423622069880366" lon="9.163736337795854">
<ele>325.6</ele>
<time>2024-05-08T14:32:45Z</time>
</trkpt>
<trkpt lat="49.4236602075398" lon="9.163711527362466">
<ele>325.6</ele>
<time>2024-05-08T14:32:46Z</time>
</trkpt>
<trkpt lat="49.42369834519923" lon="9.163688644766808">
<ele>325.6</ele>
<time>2024-05-08T14:32:47Z</time>
</trkpt>
<trkpt lat="49.4237289391458" lon="9.16366282850504">
<ele>325.6</ele>
<time>2024-05-08T14:32:48Z</time>
</trkpt>
<trkpt lat="49.423767076805234" lon="9.16363994590938">
<ele>325.6</ele>
<time>2024-05-08T14:32:49Z</time>
</trkpt>
<trkpt lat="49.423805214464664" lon="9.163617063313724">
<ele>325.8</ele>
<time>2024-05-08T14:32:50Z</time>
</trkpt>
<trkpt lat="49.42383949644864" lon="9.163591330870986">
<ele>325.8</ele>
<time>2024-05-08T14:32:51Z</time>
</trkpt>
<trkpt lat="49.42387763410807" lon="9.1635646764189">
<ele>326</ele>
<time>2024-05-08T14:32:52Z</time>
</trkpt>
<trkpt lat="49.42391199991107" lon="9.163537016138434">
<ele>326</ele>
<time>2024-05-08T14:32:53Z</time>
</trkpt>
<trkpt lat="49.4239501375705" lon="9.16350650601089">
<ele>326.2</ele>
<time>2024-05-08T14:32:54Z</time>
</trkpt>
<trkpt lat="49.42398827522993" lon="9.163477839902043">
<ele>326.4</ele>
<time>2024-05-08T14:32:55Z</time>
</trkpt>
<trkpt lat="49.42402641288936" lon="9.163450179621575">
<ele>326.4</ele>
<time>2024-05-08T14:32:56Z</time>
</trkpt>
<trkpt lat="49.424060778692365" lon="9.163423525169492">
<ele>326.6</ele>
<time>2024-05-08T14:32:57Z</time>
</trkpt>
<trkpt lat="49.424098916351795" lon="9.163396786898376">
<ele>326.6</ele>
<time>2024-05-08T14:32:58Z</time>
</trkpt>
<trkpt lat="49.424137054011226" lon="9.163370132446287">
<ele>326.8</ele>
<time>2024-05-08T14:32:59Z</time>
</trkpt>
<trkpt lat="49.424175191670656" lon="9.163341466337442">
<ele>326.8</ele>
<time>2024-05-08T14:33:00Z</time>
</trkpt>
<trkpt lat="49.42421332933009" lon="9.163312884047627">
<ele>326.8</ele>
<time>2024-05-08T14:33:01Z</time>
</trkpt>
<trkpt lat="49.424255322664976" lon="9.16328522376716">
<ele>327</ele>
<time>2024-05-08T14:33:02Z</time>
</trkpt>
<trkpt lat="49.42430108785629" lon="9.163254713639615">
<ele>327</ele>
<time>2024-05-08T14:33:03Z</time>
</trkpt>
<trkpt lat="49.42433922551572" lon="9.16322512552142">
<ele>327</ele>
<time>2024-05-08T14:33:04Z</time>
</trkpt>
<trkpt lat="49.42438121885061" lon="9.163196543231606">
<ele>327</ele>
<time>2024-05-08T14:33:05Z</time>
</trkpt>
<trkpt lat="49.4244232121855" lon="9.163166955113413">
<ele>327.2</ele>
<time>2024-05-08T14:33:06Z</time>
</trkpt>
<trkpt lat="49.42446512170136" lon="9.163138372823596">
<ele>327.2</ele>
<time>2024-05-08T14:33:07Z</time>
</trkpt>
<trkpt lat="49.42450325936079" lon="9.163107862696052">
<ele>327.4</ele>
<time>2024-05-08T14:33:08Z</time>
</trkpt>
<trkpt lat="49.42454525269568" lon="9.163076346740128">
<ele>327.4</ele>
<time>2024-05-08T14:33:09Z</time>
</trkpt>
<trkpt lat="49.42458339035511" lon="9.163046758621933">
<ele>327.2</ele>
<time>2024-05-08T14:33:10Z</time>
</trkpt>
<trkpt lat="49.42462538369" lon="9.163016248494388">
<ele>327.2</ele>
<time>2024-05-08T14:33:11Z</time>
</trkpt>
<trkpt lat="49.42466352134943" lon="9.16298858821392">
<ele>327.4</ele>
<time>2024-05-08T14:33:12Z</time>
</trkpt>
<trkpt lat="49.42470165900886" lon="9.162958078086376">
<ele>327.4</ele>
<time>2024-05-08T14:33:13Z</time>
</trkpt>
<trkpt lat="49.42474365234375" lon="9.16293142363429">
<ele>327.4</ele>
<time>2024-05-08T14:33:14Z</time>
</trkpt>
<trkpt lat="49.42478556185961" lon="9.162906613200905">
<ele>327.4</ele>
<time>2024-05-08T14:33:15Z</time>
</trkpt>
<trkpt lat="49.4248275551945" lon="9.162879874929786">
<ele>327.4</ele>
<time>2024-05-08T14:33:16Z</time>
</trkpt>
<trkpt lat="49.424869464710355" lon="9.16285129263997">
<ele>327.4</ele>
<time>2024-05-08T14:33:17Z</time>
</trkpt>
<trkpt lat="49.42491145804525" lon="9.162821704521775">
<ele>327.4</ele>
<time>2024-05-08T14:33:18Z</time>
</trkpt>
<trkpt lat="49.424953451380134" lon="9.16279119439423">
<ele>327.4</ele>
<time>2024-05-08T14:33:19Z</time>
</trkpt>
<trkpt lat="49.42499536089599" lon="9.162761606276035">
<ele>327.4</ele>
<time>2024-05-08T14:33:20Z</time>
</trkpt>
<trkpt lat="49.42503349855542" lon="9.16273302398622">
<ele>327.4</ele>
<time>2024-05-08T14:33:21Z</time>
</trkpt>
<trkpt lat="49.42507163621485" lon="9.162705363705754">
<ele>327.6</ele>
<time>2024-05-08T14:33:22Z</time>
</trkpt>
<trkpt lat="49.425109857693315" lon="9.16267485357821">
<ele>327.6</ele>
<time>2024-05-08T14:33:23Z</time>
</trkpt>
<trkpt lat="49.42515176720917" lon="9.162646271288397">
<ele>327.8</ele>
<time>2024-05-08T14:33:24Z</time>
</trkpt>
<trkpt lat="49.4251899048686" lon="9.162619533017278">
<ele>328</ele>
<time>2024-05-08T14:33:25Z</time>
</trkpt>
<trkpt lat="49.42523567005992" lon="9.162592878565192">
<ele>328</ele>
<time>2024-05-08T14:33:26Z</time>
</trkpt>
<trkpt lat="49.42527766339481" lon="9.162568068131804">
<ele>328</ele>
<time>2024-05-08T14:33:27Z</time>
</trkpt>
<trkpt lat="49.42531580105424" lon="9.162538480013607">
<ele>328</ele>
<time>2024-05-08T14:33:28Z</time>
</trkpt>
<trkpt lat="49.42535779438913" lon="9.162507969886065">
<ele>328</ele>
<time>2024-05-08T14:33:29Z</time>
</trkpt>
<trkpt lat="49.425399703904986" lon="9.162480309605598">
<ele>328</ele>
<time>2024-05-08T14:33:30Z</time>
</trkpt>
<trkpt lat="49.42544169723987" lon="9.162447871640325">
<ele>327.8</ele>
<time>2024-05-08T14:33:31Z</time>
</trkpt>
<trkpt lat="49.425479834899306" lon="9.162418283522127">
<ele>327.8</ele>
<time>2024-05-08T14:33:32Z</time>
</trkpt>
<trkpt lat="49.42552560009062" lon="9.162389701232314">
<ele>327.8</ele>
<time>2024-05-08T14:33:33Z</time>
</trkpt>
<trkpt lat="49.42556759342551" lon="9.16236011311412">
<ele>328</ele>
<time>2024-05-08T14:33:34Z</time>
</trkpt>
<trkpt lat="49.42560573108494" lon="9.162329602986574">
<ele>328.2</ele>
<time>2024-05-08T14:33:35Z</time>
</trkpt>
<trkpt lat="49.42564386874437" lon="9.16230009868741">
<ele>328.2</ele>
<time>2024-05-08T14:33:36Z</time>
</trkpt>
<trkpt lat="49.42568586207926" lon="9.162269588559866">
<ele>328.4</ele>
<time>2024-05-08T14:33:37Z</time>
</trkpt>
<trkpt lat="49.42572777159512" lon="9.1622419282794">
<ele>328.4</ele>
<time>2024-05-08T14:33:38Z</time>
</trkpt>
<trkpt lat="49.42576976493001" lon="9.162211418151855">
<ele>328.6</ele>
<time>2024-05-08T14:33:39Z</time>
</trkpt>
<trkpt lat="49.42580790258944" lon="9.16218183003366">
<ele>328.6</ele>
<time>2024-05-08T14:33:40Z</time>
</trkpt>
<trkpt lat="49.42584989592433" lon="9.162155091762545">
<ele>328.8</ele>
<time>2024-05-08T14:33:41Z</time>
</trkpt>
<trkpt lat="49.42589180544019" lon="9.162126509472728">
<ele>328.8</ele>
<time>2024-05-08T14:33:42Z</time>
</trkpt>
<trkpt lat="49.42592994309962" lon="9.16209977120161">
<ele>329</ele>
<time>2024-05-08T14:33:43Z</time>
</trkpt>
<trkpt lat="49.42596816457808" lon="9.162073116749523">
<ele>329</ele>
<time>2024-05-08T14:33:44Z</time>
</trkpt>
<trkpt lat="49.42600244656205" lon="9.162046378478408">
<ele>329.2</ele>
<time>2024-05-08T14:33:45Z</time>
</trkpt>
<trkpt lat="49.426036812365055" lon="9.162016790360212">
<ele>329.2</ele>
<time>2024-05-08T14:33:46Z</time>
</trkpt>
<trkpt lat="49.42607872188091" lon="9.16198343038559">
<ele>329.4</ele>
<time>2024-05-08T14:33:47Z</time>
</trkpt>
<trkpt lat="49.426116943359375" lon="9.161958619952202">
<ele>329.6</ele>
<time>2024-05-08T14:33:48Z</time>
</trkpt>
<trkpt lat="49.426155081018806" lon="9.161934815347196">
<ele>329.8</ele>
<time>2024-05-08T14:33:49Z</time>
</trkpt>
<trkpt lat="49.42620084621012" lon="9.161905227229">
<ele>330.2</ele>
<time>2024-05-08T14:33:50Z</time>
</trkpt>
<trkpt lat="49.42624275572598" lon="9.161874717101457">
<ele>330.4</ele>
<time>2024-05-08T14:33:51Z</time>
</trkpt>
<trkpt lat="49.42628474906087" lon="9.16184512898326">
<ele>330.6</ele>
<time>2024-05-08T14:33:52Z</time>
</trkpt>
<trkpt lat="49.4263228867203" lon="9.161816546693444">
<ele>330.8</ele>
<time>2024-05-08T14:33:53Z</time>
</trkpt>
<trkpt lat="49.42636102437973" lon="9.16178989224136">
<ele>330.8</ele>
<time>2024-05-08T14:33:54Z</time>
</trkpt>
<trkpt lat="49.42639539018273" lon="9.161766925826669">
<ele>331</ele>
<time>2024-05-08T14:33:55Z</time>
</trkpt>
<trkpt lat="49.426429672166705" lon="9.161740271374583">
<ele>331</ele>
<time>2024-05-08T14:33:56Z</time>
</trkpt>
<trkpt lat="49.42646789364517" lon="9.161713533103466">
<ele>331.2</ele>
<time>2024-05-08T14:33:57Z</time>
</trkpt>
<trkpt lat="49.42650217562914" lon="9.16168972849846">
<ele>331</ele>
<time>2024-05-08T14:33:58Z</time>
</trkpt>
<trkpt lat="49.42653654143214" lon="9.1616668459028">
<ele>331</ele>
<time>2024-05-08T14:33:59Z</time>
</trkpt>
<trkpt lat="49.426570823416114" lon="9.16164681315422">
<ele>330.8</ele>
<time>2024-05-08T14:34:00Z</time>
</trkpt>
<trkpt lat="49.42660133354366" lon="9.161622924730182">
<ele>330.8</ele>
<time>2024-05-08T14:34:01Z</time>
</trkpt>
<trkpt lat="49.42663569934666" lon="9.161598198115826">
<ele>330.6</ele>
<time>2024-05-08T14:34:02Z</time>
</trkpt>
<trkpt lat="49.42667383700609" lon="9.161571459844708">
<ele>330.6</ele>
<time>2024-05-08T14:34:03Z</time>
</trkpt>
<trkpt lat="49.42671197466552" lon="9.161544721573591">
<ele>330.6</ele>
<time>2024-05-08T14:34:04Z</time>
</trkpt>
<trkpt lat="49.4267615955323" lon="9.16150851175189">
<ele>330.8</ele>
<time>2024-05-08T14:34:05Z</time>
</trkpt>
<trkpt lat="49.42680358886719" lon="9.161477079614995">
<ele>330.8</ele>
<time>2024-05-08T14:34:06Z</time>
</trkpt>
<trkpt lat="49.42684172652662" lon="9.161443635821342">
<ele>331</ele>
<time>2024-05-08T14:34:07Z</time>
</trkpt>
<trkpt lat="49.42688363604248" lon="9.1614112816751">
<ele>331.2</ele>
<time>2024-05-08T14:34:08Z</time>
</trkpt>
<trkpt lat="49.42692940123379" lon="9.161377837881446">
<ele>331.4</ele>
<time>2024-05-08T14:34:09Z</time>
</trkpt>
<trkpt lat="49.42697139456868" lon="9.161346405744553">
<ele>331.6</ele>
<time>2024-05-08T14:34:10Z</time>
</trkpt>
<trkpt lat="49.42701338790357" lon="9.16131304576993">
<ele>331.8</ele>
<time>2024-05-08T14:34:11Z</time>
</trkpt>
<trkpt lat="49.427051525563" lon="9.161276752129195">
<ele>331.8</ele>
<time>2024-05-08T14:34:12Z</time>
</trkpt>
<trkpt lat="49.42709729075432" lon="9.161236686632035">
<ele>331.8</ele>
<time>2024-05-08T14:34:13Z</time>
</trkpt>
<trkpt lat="49.427139200270176" lon="9.161196704953907">
<ele>331.8</ele>
<time>2024-05-08T14:34:14Z</time>
</trkpt>
<trkpt lat="49.42717742174864" lon="9.16115471161902">
<ele>331.6</ele>
<time>2024-05-08T14:34:15Z</time>
</trkpt>
<trkpt lat="49.42721170373261" lon="9.161109868437052">
<ele>331.6</ele>
<time>2024-05-08T14:34:16Z</time>
</trkpt>
<trkpt lat="49.42724984139204" lon="9.161066953092812">
<ele>331.6</ele>
<time>2024-05-08T14:34:17Z</time>
</trkpt>
<trkpt lat="49.42728420719504" lon="9.161016410216687">
<ele>331.6</ele>
<time>2024-05-08T14:34:18Z</time>
</trkpt>
<trkpt lat="49.42731857299805" lon="9.160963017493486">
<ele>331.8</ele>
<time>2024-05-08T14:34:19Z</time>
</trkpt>
<trkpt lat="49.42735671065748" lon="9.160902919247746">
<ele>331.8</ele>
<time>2024-05-08T14:34:20Z</time>
</trkpt>
<trkpt lat="49.42739484831691" lon="9.160844748839736">
<ele>332</ele>
<time>2024-05-08T14:34:21Z</time>
</trkpt>
<trkpt lat="49.42742913030088" lon="9.160784650593996">
<ele>332</ele>
<time>2024-05-08T14:34:22Z</time>
</trkpt>
<trkpt lat="49.427459640428424" lon="9.160724636167288">
<ele>332.2</ele>
<time>2024-05-08T14:34:23Z</time>
</trkpt>
<trkpt lat="49.427490234375" lon="9.160663532093167">
<ele>332.2</ele>
<time>2024-05-08T14:34:24Z</time>
</trkpt>
<trkpt lat="49.427516888827085" lon="9.160598739981651">
<ele>332.2</ele>
<time>2024-05-08T14:34:25Z</time>
</trkpt>
<trkpt lat="49.4275436270982" lon="9.160532942041756">
<ele>332.2</ele>
<time>2024-05-08T14:34:26Z</time>
</trkpt>
<trkpt lat="49.42757028155029" lon="9.160467144101858">
<ele>332.2</ele>
<time>2024-05-08T14:34:27Z</time>
</trkpt>
<trkpt lat="49.427597019821405" lon="9.160396568477154">
<ele>332.4</ele>
<time>2024-05-08T14:34:28Z</time>
</trkpt>
<trkpt lat="49.427619902417064" lon="9.160326914861798">
<ele>332.4</ele>
<time>2024-05-08T14:34:29Z</time>
</trkpt>
<trkpt lat="49.42764278501272" lon="9.160255417227743">
<ele>332.4</ele>
<time>2024-05-08T14:34:30Z</time>
</trkpt>
<trkpt lat="49.42766566760838" lon="9.160181991755962">
<ele>332.4</ele>
<time>2024-05-08T14:34:31Z</time>
</trkpt>
<trkpt lat="49.42768477834761" lon="9.160110410302876">
<ele>332.4</ele>
<time>2024-05-08T14:34:32Z</time>
</trkpt>
<trkpt lat="49.42770380526781" lon="9.160041762515904">
<ele>332.2</ele>
<time>2024-05-08T14:34:33Z</time>
</trkpt>
<trkpt lat="49.42771906033158" lon="9.159973114728928">
<ele>332.2</ele>
<time>2024-05-08T14:34:34Z</time>
</trkpt>
<trkpt lat="49.427734315395355" lon="9.159903461113572">
<ele>332.2</ele>
<time>2024-05-08T14:34:35Z</time>
</trkpt>
<trkpt lat="49.4277457986027" lon="9.159836741164328">
<ele>332.2</ele>
<time>2024-05-08T14:34:36Z</time>
</trkpt>
<trkpt lat="49.42776105366647" lon="9.15977287106216">
<ele>332.2</ele>
<time>2024-05-08T14:34:37Z</time>
</trkpt>
<trkpt lat="49.427772453054786" lon="9.159713694825768">
<ele>332.2</ele>
<time>2024-05-08T14:34:38Z</time>
</trkpt>
<trkpt lat="49.42778393626213" lon="9.159656446427109">
<ele>332.2</ele>
<time>2024-05-08T14:34:39Z</time>
</trkpt>
<trkpt lat="49.42779533565045" lon="9.159603053703904">
<ele>332.4</ele>
<time>2024-05-08T14:34:40Z</time>
</trkpt>
<trkpt lat="49.42780681885779" lon="9.1595496609807">
<ele>332.4</ele>
<time>2024-05-08T14:34:41Z</time>
</trkpt>
<trkpt lat="49.4278182182461" lon="9.159498196095228">
<ele>332.4</ele>
<time>2024-05-08T14:34:42Z</time>
</trkpt>
<trkpt lat="49.42782970145345" lon="9.159444803372024">
<ele>332.4</ele>
<time>2024-05-08T14:34:43Z</time>
</trkpt>
<trkpt lat="49.42784118466079" lon="9.159391326829793">
<ele>332.4</ele>
<time>2024-05-08T14:34:44Z</time>
</trkpt>
<trkpt lat="49.42784881219268" lon="9.159331312403085">
<ele>332.6</ele>
<time>2024-05-08T14:34:45Z</time>
</trkpt>
<trkpt lat="49.42786021158099" lon="9.1592769138515">
<ele>332.8</ele>
<time>2024-05-08T14:34:46Z</time>
</trkpt>
<trkpt lat="49.42787169478834" lon="9.159218743443487">
<ele>332.8</ele>
<time>2024-05-08T14:34:47Z</time>
</trkpt>
<trkpt lat="49.42787932232022" lon="9.159163422882555">
<ele>333</ele>
<time>2024-05-08T14:34:48Z</time>
</trkpt>
<trkpt lat="49.427890721708536" lon="9.159108102321625">
<ele>333</ele>
<time>2024-05-08T14:34:49Z</time>
</trkpt>
<trkpt lat="49.42790220491588" lon="9.159053787589071">
<ele>333.2</ele>
<time>2024-05-08T14:34:50Z</time>
</trkpt>
<trkpt lat="49.42790983244777" lon="9.15900039486587">
<ele>333.2</ele>
<time>2024-05-08T14:34:51Z</time>
</trkpt>
<trkpt lat="49.42792123183608" lon="9.158946918323636">
<ele>333.2</ele>
<time>2024-05-08T14:34:52Z</time>
</trkpt>
<trkpt lat="49.42792885936797" lon="9.158893525600432">
<ele>333.4</ele>
<time>2024-05-08T14:34:53Z</time>
</trkpt>
<trkpt lat="49.42793648689985" lon="9.1588382050395">
<ele>333.4</ele>
<time>2024-05-08T14:34:54Z</time>
</trkpt>
<trkpt lat="49.4279479701072" lon="9.15878003463149">
<ele>333.4</ele>
<time>2024-05-08T14:34:55Z</time>
</trkpt>
<trkpt lat="49.42795936949551" lon="9.15872287005186">
<ele>333.4</ele>
<time>2024-05-08T14:34:56Z</time>
</trkpt>
<trkpt lat="49.427970852702856" lon="9.15866469964385">
<ele>333.6</ele>
<time>2024-05-08T14:34:57Z</time>
</trkpt>
<trkpt lat="49.42797848023474" lon="9.15860460139811">
<ele>333.6</ele>
<time>2024-05-08T14:34:58Z</time>
</trkpt>
<trkpt lat="49.427989879623055" lon="9.15854450315237">
<ele>333.6</ele>
<time>2024-05-08T14:34:59Z</time>
</trkpt>
<trkpt lat="49.42799750715494" lon="9.158485410735013">
<ele>333.6</ele>
<time>2024-05-08T14:35:00Z</time>
</trkpt>
<trkpt lat="49.42800521850586" lon="9.158425312489271">
<ele>333.6</ele>
<time>2024-05-08T14:35:01Z</time>
</trkpt>
<trkpt lat="49.428012846037745" lon="9.15836613625288">
<ele>333.6</ele>
<time>2024-05-08T14:35:02Z</time>
</trkpt>
<trkpt lat="49.42802047356963" lon="9.15830796584487">
<ele>333.6</ele>
<time>2024-05-08T14:35:03Z</time>
</trkpt>
<trkpt lat="49.428031872957945" lon="9.15824786759913">
<ele>333.8</ele>
<time>2024-05-08T14:35:04Z</time>
</trkpt>
<trkpt lat="49.42804335616529" lon="9.15818785317242">
<ele>333.8</ele>
<time>2024-05-08T14:35:05Z</time>
</trkpt>
<trkpt lat="49.4280547555536" lon="9.158131526783109">
<ele>333.8</ele>
<time>2024-05-08T14:35:06Z</time>
</trkpt>
<trkpt lat="49.42806623876095" lon="9.1580715123564">
<ele>333.8</ele>
<time>2024-05-08T14:35:07Z</time>
</trkpt>
<trkpt lat="49.428073866292834" lon="9.15801141411066">
<ele>333.8</ele>
<time>2024-05-08T14:35:08Z</time>
</trkpt>
<trkpt lat="49.42808149382472" lon="9.157955087721348">
<ele>333.8</ele>
<time>2024-05-08T14:35:09Z</time>
</trkpt>
<trkpt lat="49.42808912135661" lon="9.157904544845223">
<ele>333.6</ele>
<time>2024-05-08T14:35:10Z</time>
</trkpt>
<trkpt lat="49.42809674888849" lon="9.157857857644558">
<ele>333.6</ele>
<time>2024-05-08T14:35:11Z</time>
</trkpt>
<trkpt lat="49.42810437642038" lon="9.157803459092976">
<ele>333.6</ele>
<time>2024-05-08T14:35:12Z</time>
</trkpt>
<trkpt lat="49.428112003952265" lon="9.157743444666266">
<ele>333.4</ele>
<time>2024-05-08T14:35:13Z</time>
</trkpt>
<trkpt lat="49.42812340334058" lon="9.157688124105334">
<ele>333.6</ele>
<time>2024-05-08T14:35:14Z</time>
</trkpt>
<trkpt lat="49.42813488654792" lon="9.157640431076288">
<ele>333.6</ele>
<time>2024-05-08T14:35:15Z</time>
</trkpt>
<trkpt lat="49.42814628593624" lon="9.157587038353086">
<ele>333.6</ele>
<time>2024-05-08T14:35:16Z</time>
</trkpt>
<trkpt lat="49.428150141611695" lon="9.157533645629885">
<ele>333.6</ele>
<time>2024-05-08T14:35:17Z</time>
</trkpt>
<trkpt lat="49.42816154100001" lon="9.157473547384145">
<ele>333.6</ele>
<time>2024-05-08T14:35:18Z</time>
</trkpt>
<trkpt lat="49.428169168531895" lon="9.157415376976132">
<ele>333.6</ele>
<time>2024-05-08T14:35:19Z</time>
</trkpt>
<trkpt lat="49.42817687988281" lon="9.157364834100008">
<ele>333.8</ele>
<time>2024-05-08T14:35:20Z</time>
</trkpt>
<trkpt lat="49.428188279271126" lon="9.15732284076512">
<ele>333.8</ele>
<time>2024-05-08T14:35:21Z</time>
</trkpt>
<trkpt lat="49.428192134946585" lon="9.15727799758315">
<ele>334</ele>
<time>2024-05-08T14:35:22Z</time>
</trkpt>
<trkpt lat="49.42819590680301" lon="9.157224604859948">
<ele>334.2</ele>
<time>2024-05-08T14:35:23Z</time>
</trkpt>
<trkpt lat="49.4282035343349" lon="9.157164506614208">
<ele>334.4</ele>
<time>2024-05-08T14:35:24Z</time>
</trkpt>
<trkpt lat="49.428211161866784" lon="9.15710348635912">
<ele>334.4</ele>
<time>2024-05-08T14:35:25Z</time>
</trkpt>
<trkpt lat="49.42822264507413" lon="9.157046237960458">
<ele>334.6</ele>
<time>2024-05-08T14:35:26Z</time>
</trkpt>
<trkpt lat="49.428230272606015" lon="9.156989995390177">
<ele>334.6</ele>
<time>2024-05-08T14:35:27Z</time>
</trkpt>
<trkpt lat="49.4282379001379" lon="9.156934674829245">
<ele>334.8</ele>
<time>2024-05-08T14:35:28Z</time>
</trkpt>
<trkpt lat="49.42824552766979" lon="9.156883209943771">
<ele>334.8</ele>
<time>2024-05-08T14:35:29Z</time>
</trkpt>
<trkpt lat="49.4282569270581" lon="9.156833589076996">
<ele>334.8</ele>
<time>2024-05-08T14:35:30Z</time>
</trkpt>
<trkpt lat="49.42827603779733" lon="9.15678782388568">
<ele>334.8</ele>
<time>2024-05-08T14:35:31Z</time>
</trkpt>
<trkpt lat="49.42829506471753" lon="9.15674490854144">
<ele>335</ele>
<time>2024-05-08T14:35:32Z</time>
</trkpt>
<trkpt lat="49.4283103197813" lon="9.156702915206552">
<ele>335</ele>
<time>2024-05-08T14:35:33Z</time>
</trkpt>
<trkpt lat="49.428329430520535" lon="9.156659999862311">
<ele>335</ele>
<time>2024-05-08T14:35:34Z</time>
</trkpt>
<trkpt lat="49.42834468558431" lon="9.156616162508726">
<ele>335</ele>
<time>2024-05-08T14:35:35Z</time>
</trkpt>
<trkpt lat="49.42836379632354" lon="9.156577102839949">
<ele>335</ele>
<time>2024-05-08T14:35:36Z</time>
</trkpt>
<trkpt lat="49.42838282324374" lon="9.156537037342789">
<ele>335</ele>
<time>2024-05-08T14:35:37Z</time>
</trkpt>
<trkpt lat="49.42840193398297" lon="9.156496971845629">
<ele>335.2</ele>
<time>2024-05-08T14:35:38Z</time>
</trkpt>
<trkpt lat="49.42842096090317" lon="9.156454978510736">
<ele>335.4</ele>
<time>2024-05-08T14:35:39Z</time>
</trkpt>
<trkpt lat="49.4284400716424" lon="9.1564120631665">
<ele>335.4</ele>
<time>2024-05-08T14:35:40Z</time>
</trkpt>
<trkpt lat="49.4284590985626" lon="9.15637199766934">
<ele>335.4</ele>
<time>2024-05-08T14:35:41Z</time>
</trkpt>
<trkpt lat="49.42847435362637" lon="9.15633293800056">
<ele>335.6</ele>
<time>2024-05-08T14:35:42Z</time>
</trkpt>
<trkpt lat="49.428485836833715" lon="9.156299578025935">
<ele>335.6</ele>
<time>2024-05-08T14:35:43Z</time>
</trkpt>
<trkpt lat="49.42850109189749" lon="9.156266134232284">
<ele>335.8</ele>
<time>2024-05-08T14:35:44Z</time>
</trkpt>
<trkpt lat="49.42851634696126" lon="9.156231852248313">
<ele>335.8</ele>
<time>2024-05-08T14:35:45Z</time>
</trkpt>
<trkpt lat="49.42853160202503" lon="9.15619463659823">
<ele>335.8</ele>
<time>2024-05-08T14:35:46Z</time>
</trkpt>
<trkpt lat="49.42855071276426" lon="9.156158426776528">
<ele>335.8</ele>
<time>2024-05-08T14:35:47Z</time>
</trkpt>
<trkpt lat="49.42857359535992" lon="9.156123138964176">
<ele>335.8</ele>
<time>2024-05-08T14:35:48Z</time>
</trkpt>
<trkpt lat="49.428588850423694" lon="9.156089778989552">
<ele>335.6</ele>
<time>2024-05-08T14:35:49Z</time>
</trkpt>
<trkpt lat="49.42860787734389" lon="9.156062118709087">
<ele>335.6</ele>
<time>2024-05-08T14:35:50Z</time>
</trkpt>
<trkpt lat="49.428623132407665" lon="9.156040158122778">
<ele>335.6</ele>
<time>2024-05-08T14:35:51Z</time>
</trkpt>
<trkpt lat="49.42863838747144" lon="9.156022053211927">
<ele>335.4</ele>
<time>2024-05-08T14:35:52Z</time>
</trkpt>
<trkpt lat="49.428661270067096" lon="9.156002020463347">
<ele>335.4</ele>
<time>2024-05-08T14:35:53Z</time>
</trkpt>
<trkpt lat="49.42868038080633" lon="9.155981987714767">
<ele>335.4</ele>
<time>2024-05-08T14:35:54Z</time>
</trkpt>
<trkpt lat="49.42869949154556" lon="9.155958099290729">
<ele>335.4</ele>
<time>2024-05-08T14:35:55Z</time>
</trkpt>
<trkpt lat="49.428722374141216" lon="9.155931444838645">
<ele>335.4</ele>
<time>2024-05-08T14:35:56Z</time>
</trkpt>
<trkpt lat="49.428745256736875" lon="9.155904706567526">
<ele>335.2</ele>
<time>2024-05-08T14:35:57Z</time>
</trkpt>
<trkpt lat="49.42876813933253" lon="9.15587805211544">
<ele>335.2</ele>
<time>2024-05-08T14:35:58Z</time>
</trkpt>
<trkpt lat="49.42879102192819" lon="9.155853241682053">
<ele>335.2</ele>
<time>2024-05-08T14:35:59Z</time>
</trkpt>
<trkpt lat="49.42881390452385" lon="9.155830359086394">
<ele>335.2</ele>
<time>2024-05-08T14:36:00Z</time>
</trkpt>
<trkpt lat="49.428840558975935" lon="9.155806470662355">
<ele>335.2</ele>
<time>2024-05-08T14:36:01Z</time>
</trkpt>
<trkpt lat="49.428863525390625" lon="9.155783588066695">
<ele>335.2</ele>
<time>2024-05-08T14:36:02Z</time>
</trkpt>
<trkpt lat="49.42888640798628" lon="9.15575785562396">
<ele>335.2</ele>
<time>2024-05-08T14:36:03Z</time>
</trkpt>
<trkpt lat="49.42891306243837" lon="9.155736900866032">
<ele>335.2</ele>
<time>2024-05-08T14:36:04Z</time>
</trkpt>
<trkpt lat="49.42893594503403" lon="9.155716868117452">
<ele>335.2</ele>
<time>2024-05-08T14:36:05Z</time>
</trkpt>
<trkpt lat="49.428962683305144" lon="9.1556987632066">
<ele>335.2</ele>
<time>2024-05-08T14:36:06Z</time>
</trkpt>
<trkpt lat="49.4289855659008" lon="9.1556815803051">
<ele>335.2</ele>
<time>2024-05-08T14:36:07Z</time>
</trkpt>
<trkpt lat="49.42900844849646" lon="9.155665319412948">
<ele>335.2</ele>
<time>2024-05-08T14:36:08Z</time>
</trkpt>
<trkpt lat="49.42903133109212" lon="9.155651992186904">
<ele>335</ele>
<time>2024-05-08T14:36:09Z</time>
</trkpt>
<trkpt lat="49.42905421368778" lon="9.15563958697021">
<ele>335</ele>
<time>2024-05-08T14:36:10Z</time>
</trkpt>
<trkpt lat="49.42907332442701" lon="9.155632965266705">
<ele>334.8</ele>
<time>2024-05-08T14:36:11Z</time>
</trkpt>
<trkpt lat="49.429099978879094" lon="9.155625337734818">
<ele>334.8</ele>
<time>2024-05-08T14:36:12Z</time>
</trkpt>
<trkpt lat="49.42912671715021" lon="9.155616704374552">
<ele>334.6</ele>
<time>2024-05-08T14:36:13Z</time>
</trkpt>
<trkpt lat="49.4291533716023" lon="9.155608154833317">
<ele>334.6</ele>
<time>2024-05-08T14:36:14Z</time>
</trkpt>
<trkpt lat="49.4291877374053" lon="9.15560144931078">
<ele>334.6</ele>
<time>2024-05-08T14:36:15Z</time>
</trkpt>
<trkpt lat="49.4292221032083" lon="9.155588122084737">
<ele>334.4</ele>
<time>2024-05-08T14:36:16Z</time>
</trkpt>
<trkpt lat="49.429260240867734" lon="9.155572867020965">
<ele>334.4</ele>
<time>2024-05-08T14:36:17Z</time>
</trkpt>
<trkpt lat="49.429298378527164" lon="9.155563311651347">
<ele>334.4</ele>
<time>2024-05-08T14:36:18Z</time>
</trkpt>
<trkpt lat="49.429336516186595" lon="9.155556606128812">
<ele>334.6</ele>
<time>2024-05-08T14:36:19Z</time>
</trkpt>
<trkpt lat="49.429374653846025" lon="9.155552834272385">
<ele>334.6</ele>
<time>2024-05-08T14:36:20Z</time>
</trkpt>
<trkpt lat="49.429416647180915" lon="9.155551828444004">
<ele>334.8</ele>
<time>2024-05-08T14:36:21Z</time>
</trkpt>
<trkpt lat="49.429454784840345" lon="9.155546128749847">
<ele>334.8</ele>
<time>2024-05-08T14:36:22Z</time>
</trkpt>
<trkpt lat="49.42950055003166" lon="9.15554135106504">
<ele>335</ele>
<time>2024-05-08T14:36:23Z</time>
</trkpt>
<trkpt lat="49.42954245954752" lon="9.15553850121796">
<ele>335</ele>
<time>2024-05-08T14:36:24Z</time>
</trkpt>
<trkpt lat="49.42958830855787" lon="9.155536573380232">
<ele>335</ele>
<time>2024-05-08T14:36:25Z</time>
</trkpt>
<trkpt lat="49.429634073749185" lon="9.155531879514456">
<ele>335.2</ele>
<time>2024-05-08T14:36:26Z</time>
</trkpt>
<trkpt lat="49.4296798389405" lon="9.155527101829648">
<ele>335</ele>
<time>2024-05-08T14:36:27Z</time>
</trkpt>
<trkpt lat="49.42972560413182" lon="9.155523246154187">
<ele>335</ele>
<time>2024-05-08T14:36:28Z</time>
</trkpt>
<trkpt lat="49.429771369323134" lon="9.15552131831646">
<ele>335</ele>
<time>2024-05-08T14:36:29Z</time>
</trkpt>
<trkpt lat="49.429813362658024" lon="9.155514696612954">
<ele>335</ele>
<time>2024-05-08T14:36:30Z</time>
</trkpt>
<trkpt lat="49.42985912784934" lon="9.155507991090415">
<ele>334.8</ele>
<time>2024-05-08T14:36:31Z</time>
</trkpt>
<trkpt lat="49.42990489304066" lon="9.15550321340561">
<ele>334.8</ele>
<time>2024-05-08T14:36:32Z</time>
</trkpt>
<trkpt lat="49.429950658231974" lon="9.1554984357208">
<ele>334.8</ele>
<time>2024-05-08T14:36:33Z</time>
</trkpt>
<trkpt lat="49.42999642342329" lon="9.155493658035994">
<ele>334.6</ele>
<time>2024-05-08T14:36:34Z</time>
</trkpt>
<trkpt lat="49.43003841675818" lon="9.155491814017296">
<ele>334.6</ele>
<time>2024-05-08T14:36:35Z</time>
</trkpt>
<trkpt lat="49.43008041009307" lon="9.155487958341835">
<ele>334.6</ele>
<time>2024-05-08T14:36:36Z</time>
</trkpt>
<trkpt lat="49.430126175284386" lon="9.15548510849476">
<ele>334.6</ele>
<time>2024-05-08T14:36:37Z</time>
</trkpt>
<trkpt lat="49.43016808480024" lon="9.15547840297222">
<ele>334.4</ele>
<time>2024-05-08T14:36:38Z</time>
</trkpt>
<trkpt lat="49.43021007813513" lon="9.155469853430986">
<ele>334.4</ele>
<time>2024-05-08T14:36:39Z</time>
</trkpt>
<trkpt lat="49.43024821579456" lon="9.155461303889751">
<ele>334.4</ele>
<time>2024-05-08T14:36:40Z</time>
</trkpt>
<trkpt lat="49.43029398098588" lon="9.155453676357864">
<ele>334.4</ele>
<time>2024-05-08T14:36:41Z</time>
</trkpt>
<trkpt lat="49.43033211864531" lon="9.1554450429976">
<ele>334.4</ele>
<time>2024-05-08T14:36:42Z</time>
</trkpt>
<trkpt lat="49.4303741119802" lon="9.155438421294091">
<ele>334.6</ele>
<time>2024-05-08T14:36:43Z</time>
</trkpt>
<trkpt lat="49.43041610531509" lon="9.155433643609284">
<ele>334.8</ele>
<time>2024-05-08T14:36:44Z</time>
</trkpt>
<trkpt lat="49.43045424297452" lon="9.155431715771556">
<ele>334.8</ele>
<time>2024-05-08T14:36:45Z</time>
</trkpt>
<trkpt lat="49.43049238063395" lon="9.155427860096095">
<ele>335</ele>
<time>2024-05-08T14:36:46Z</time>
</trkpt>
<trkpt lat="49.43053429014981" lon="9.15542501024902">
<ele>335.2</ele>
<time>2024-05-08T14:36:47Z</time>
</trkpt>
<trkpt lat="49.43057242780924" lon="9.15542501024902">
<ele>335.4</ele>
<time>2024-05-08T14:36:48Z</time>
</trkpt>
<trkpt lat="49.43061442114413" lon="9.155429787933826">
<ele>335.4</ele>
<time>2024-05-08T14:36:49Z</time>
</trkpt>
<trkpt lat="49.43065641447902" lon="9.155429787933826">
<ele>335.6</ele>
<time>2024-05-08T14:36:50Z</time>
</trkpt>
<trkpt lat="49.43069455213845" lon="9.155433643609284">
<ele>335.8</ele>
<time>2024-05-08T14:36:51Z</time>
</trkpt>
<trkpt lat="49.43073268979788" lon="9.155436493456364">
<ele>335.8</ele>
<time>2024-05-08T14:36:52Z</time>
</trkpt>
<trkpt lat="49.43076705560088" lon="9.15544311515987">
<ele>336.2</ele>
<time>2024-05-08T14:36:53Z</time>
</trkpt>
<trkpt lat="49.430797565728426" lon="9.155453676357864">
<ele>336.2</ele>
<time>2024-05-08T14:36:54Z</time>
</trkpt>
<trkpt lat="49.4308318477124" lon="9.155461303889751">
<ele>336.4</ele>
<time>2024-05-08T14:36:55Z</time>
</trkpt>
<trkpt lat="49.43086235783994" lon="9.155476558953524">
<ele>336.6</ele>
<time>2024-05-08T14:36:56Z</time>
</trkpt>
<trkpt lat="49.430896723642945" lon="9.15548510849476">
<ele>336.8</ele>
<time>2024-05-08T14:36:57Z</time>
</trkpt>
<trkpt lat="49.43092723377049" lon="9.155494663864374">
<ele>337</ele>
<time>2024-05-08T14:36:58Z</time>
</trkpt>
<trkpt lat="49.43096159957349" lon="9.15550128556788">
<ele>337.2</ele>
<time>2024-05-08T14:36:59Z</time>
</trkpt>
<trkpt lat="49.43098825402558" lon="9.155507991090415">
<ele>337.6</ele>
<time>2024-05-08T14:37:00Z</time>
</trkpt>
<trkpt lat="49.43101876415312" lon="9.155516624450684">
<ele>337.8</ele>
<time>2024-05-08T14:37:01Z</time>
</trkpt>
<trkpt lat="49.43104927428067" lon="9.15552039630711">
<ele>338.2</ele>
<time>2024-05-08T14:37:02Z</time>
</trkpt>
<trkpt lat="49.43107978440821" lon="9.15552131831646">
<ele>338.4</ele>
<time>2024-05-08T14:37:03Z</time>
</trkpt>
<trkpt lat="49.43111037835479" lon="9.155523246154187">
<ele>338.8</ele>
<time>2024-05-08T14:37:04Z</time>
</trkpt>
<trkpt lat="49.43114088848233" lon="9.155528023838997">
<ele>339</ele>
<time>2024-05-08T14:37:05Z</time>
</trkpt>
<trkpt lat="49.431175170466304" lon="9.155534729361534">
<ele>339.4</ele>
<time>2024-05-08T14:37:06Z</time>
</trkpt>
<trkpt lat="49.43120190873742" lon="9.15554042905569">
<ele>339.6</ele>
<time>2024-05-08T14:37:07Z</time>
</trkpt>
<trkpt lat="49.431232418864965" lon="9.155543278902767">
<ele>339.8</ele>
<time>2024-05-08T14:37:08Z</time>
</trkpt>
<trkpt lat="49.43126292899251" lon="9.155546128749847">
<ele>340</ele>
<time>2024-05-08T14:37:09Z</time>
</trkpt>
<trkpt lat="49.43128966726363" lon="9.155549984425306">
<ele>340.4</ele>
<time>2024-05-08T14:37:10Z</time>
</trkpt>
<trkpt lat="49.43132017739117" lon="9.155551828444004">
<ele>340.6</ele>
<time>2024-05-08T14:37:11Z</time>
</trkpt>
<trkpt lat="49.43134683184326" lon="9.155554762110114">
<ele>340.8</ele>
<time>2024-05-08T14:37:12Z</time>
</trkpt>
<trkpt lat="49.431373570114374" lon="9.15555853396654">
<ele>341.2</ele>
<time>2024-05-08T14:37:13Z</time>
</trkpt>
<trkpt lat="49.43139645271003" lon="9.15555853396654">
<ele>341.4</ele>
<time>2024-05-08T14:37:14Z</time>
</trkpt>
<trkpt lat="49.43141933530569" lon="9.15555853396654">
<ele>341.8</ele>
<time>2024-05-08T14:37:15Z</time>
</trkpt>
<trkpt lat="49.43143844604492" lon="9.15555853396654">
<ele>342</ele>
<time>2024-05-08T14:37:16Z</time>
</trkpt>
<trkpt lat="49.43145747296512" lon="9.15556138381362">
<ele>342.2</ele>
<time>2024-05-08T14:37:17Z</time>
</trkpt>
<trkpt lat="49.43148035556078" lon="9.155563311651347">
<ele>342.4</ele>
<time>2024-05-08T14:37:18Z</time>
</trkpt>
<trkpt lat="49.4315070938319" lon="9.155566161498427">
<ele>342.4</ele>
<time>2024-05-08T14:37:19Z</time>
</trkpt>
<trkpt lat="49.43153374828398" lon="9.155574794858694">
<ele>342.6</ele>
<time>2024-05-08T14:37:20Z</time>
</trkpt>
<trkpt lat="49.43156425841153" lon="9.155586194247007">
<ele>342.8</ele>
<time>2024-05-08T14:37:21Z</time>
</trkpt>
<trkpt lat="49.43159476853907" lon="9.1555985994637">
<ele>343</ele>
<time>2024-05-08T14:37:22Z</time>
</trkpt>
<trkpt lat="49.43162150681019" lon="9.155610082671046">
<ele>343.2</ele>
<time>2024-05-08T14:37:23Z</time>
</trkpt>
<trkpt lat="49.43165587261319" lon="9.155623409897087">
<ele>343.4</ele>
<time>2024-05-08T14:37:24Z</time>
</trkpt>
<trkpt lat="49.43169015459716" lon="9.155632965266705">
<ele>343.8</ele>
<time>2024-05-08T14:37:25Z</time>
</trkpt>
<trkpt lat="49.43172066472471" lon="9.155643442645667">
<ele>344</ele>
<time>2024-05-08T14:37:26Z</time>
</trkpt>
<trkpt lat="49.43175880238414" lon="9.155652998015285">
<ele>344.2</ele>
<time>2024-05-08T14:37:27Z</time>
</trkpt>
<trkpt lat="49.43179316818714" lon="9.155665319412948">
<ele>344.4</ele>
<time>2024-05-08T14:37:28Z</time>
</trkpt>
<trkpt lat="49.431827533990145" lon="9.15567873045802">
<ele>344.4</ele>
<time>2024-05-08T14:37:29Z</time>
</trkpt>
<trkpt lat="49.431865671649575" lon="9.155692057684064">
<ele>344.6</ele>
<time>2024-05-08T14:37:30Z</time>
</trkpt>
<trkpt lat="49.431903809309006" lon="9.155705384910108">
<ele>344.6</ele>
<time>2024-05-08T14:37:31Z</time>
</trkpt>
<trkpt lat="49.43194194696843" lon="9.1557177901268">
<ele>344.6</ele>
<time>2024-05-08T14:37:32Z</time>
</trkpt>
<trkpt lat="49.431983940303326" lon="9.155730195343494">
<ele>344.8</ele>
<time>2024-05-08T14:37:33Z</time>
</trkpt>
<trkpt lat="49.43202584981918" lon="9.15574167855084">
<ele>344.8</ele>
<time>2024-05-08T14:37:34Z</time>
</trkpt>
<trkpt lat="49.432063987478614" lon="9.155753077939153">
<ele>344.8</ele>
<time>2024-05-08T14:37:35Z</time>
</trkpt>
<trkpt lat="49.43210975266993" lon="9.155768333002923">
<ele>344.8</ele>
<time>2024-05-08T14:37:36Z</time>
</trkpt>
<trkpt lat="49.43214797414839" lon="9.155786437913775">
<ele>344.8</ele>
<time>2024-05-08T14:37:37Z</time>
</trkpt>
<trkpt lat="49.43218988366425" lon="9.155803620815275">
<ele>344.8</ele>
<time>2024-05-08T14:37:38Z</time>
</trkpt>
<trkpt lat="49.43222802132368" lon="9.155817031860352">
<ele>344.8</ele>
<time>2024-05-08T14:37:39Z</time>
</trkpt>
<trkpt lat="49.43227001465857" lon="9.155828431248665">
<ele>344.8</ele>
<time>2024-05-08T14:37:40Z</time>
</trkpt>
<trkpt lat="49.43231200799346" lon="9.155843686312435">
<ele>344.8</ele>
<time>2024-05-08T14:37:41Z</time>
</trkpt>
<trkpt lat="49.43235014565289" lon="9.15585801936686">
<ele>344.6</ele>
<time>2024-05-08T14:37:42Z</time>
</trkpt>
<trkpt lat="49.43239205516875" lon="9.155873274430633">
<ele>344.6</ele>
<time>2024-05-08T14:37:43Z</time>
</trkpt>
<trkpt lat="49.43243404850364" lon="9.155884673818946">
<ele>344.6</ele>
<time>2024-05-08T14:37:44Z</time>
</trkpt>
<trkpt lat="49.432479813694954" lon="9.15589515119791">
<ele>344.6</ele>
<time>2024-05-08T14:37:45Z</time>
</trkpt>
<trkpt lat="49.43252180702984" lon="9.155904706567526">
<ele>344.6</ele>
<time>2024-05-08T14:37:46Z</time>
</trkpt>
<trkpt lat="49.43256757222116" lon="9.1559181176126">
<ele>344.6</ele>
<time>2024-05-08T14:37:47Z</time>
</trkpt>
<trkpt lat="49.43260948173702" lon="9.15593521669507">
<ele>344.6</ele>
<time>2024-05-08T14:37:48Z</time>
</trkpt>
<trkpt lat="49.43264770321548" lon="9.155953405424953">
<ele>344.6</ele>
<time>2024-05-08T14:37:49Z</time>
</trkpt>
<trkpt lat="49.43268961273134" lon="9.155968660488725">
<ele>344.6</ele>
<time>2024-05-08T14:37:50Z</time>
</trkpt>
<trkpt lat="49.43272775039077" lon="9.155982909724116">
<ele>344.4</ele>
<time>2024-05-08T14:37:51Z</time>
</trkpt>
<trkpt lat="49.4327658880502" lon="9.155998164787889">
<ele>344.4</ele>
<time>2024-05-08T14:37:52Z</time>
</trkpt>
<trkpt lat="49.4328002538532" lon="9.156011575832965">
<ele>344.4</ele>
<time>2024-05-08T14:37:53Z</time>
</trkpt>
<trkpt lat="49.432834619656205" lon="9.156022975221276">
<ele>344.6</ele>
<time>2024-05-08T14:37:54Z</time>
</trkpt>
<trkpt lat="49.43286890164018" lon="9.15603630244732">
<ele>344.6</ele>
<time>2024-05-08T14:37:55Z</time>
</trkpt>
<trkpt lat="49.43290326744318" lon="9.156051557511091">
<ele>344.6</ele>
<time>2024-05-08T14:37:56Z</time>
</trkpt>
<trkpt lat="49.43294140510261" lon="9.156066812574863">
<ele>344.6</ele>
<time>2024-05-08T14:37:57Z</time>
</trkpt>
<trkpt lat="49.43297568708658" lon="9.156081145629289">
<ele>344.6</ele>
<time>2024-05-08T14:37:58Z</time>
</trkpt>
<trkpt lat="49.43301390856504" lon="9.15609640069306">
<ele>344.6</ele>
<time>2024-05-08T14:37:59Z</time>
</trkpt>
<trkpt lat="49.433052046224475" lon="9.156111655756831">
<ele>344.4</ele>
<time>2024-05-08T14:38:00Z</time>
</trkpt>
<trkpt lat="49.43309395574033" lon="9.156125066801906">
<ele>344.4</ele>
<time>2024-05-08T14:38:01Z</time>
</trkpt>
<trkpt lat="49.433128321543336" lon="9.156138394027948">
<ele>344.4</ele>
<time>2024-05-08T14:38:02Z</time>
</trkpt>
<trkpt lat="49.433166459202766" lon="9.156147949397564">
<ele>344.2</ele>
<time>2024-05-08T14:38:03Z</time>
</trkpt>
<trkpt lat="49.4332045968622" lon="9.156160354614258">
<ele>344</ele>
<time>2024-05-08T14:38:04Z</time>
</trkpt>
<trkpt lat="49.43323510698974" lon="9.15617460384965">
<ele>344</ele>
<time>2024-05-08T14:38:05Z</time>
</trkpt>
<trkpt lat="49.433265617117286" lon="9.156191786751153">
<ele>344.2</ele>
<time>2024-05-08T14:38:06Z</time>
</trkpt>
<trkpt lat="49.43329998292029" lon="9.156201342120768">
<ele>344.2</ele>
<time>2024-05-08T14:38:07Z</time>
</trkpt>
<trkpt lat="49.43333434872329" lon="9.156211819499733">
<ele>344.2</ele>
<time>2024-05-08T14:38:08Z</time>
</trkpt>
<trkpt lat="49.43336485885084" lon="9.156221374869348">
<ele>344.2</ele>
<time>2024-05-08T14:38:09Z</time>
</trkpt>
<trkpt lat="49.43339914083481" lon="9.156227996572852">
<ele>344.2</ele>
<time>2024-05-08T14:38:10Z</time>
</trkpt>
<trkpt lat="49.43343727849424" lon="9.15623470209539">
<ele>344.2</ele>
<time>2024-05-08T14:38:11Z</time>
</trkpt>
<trkpt lat="49.43347927182913" lon="9.156248029321432">
<ele>344.2</ele>
<time>2024-05-08T14:38:12Z</time>
</trkpt>
<trkpt lat="49.433525037020445" lon="9.156259512528775">
<ele>344.2</ele>
<time>2024-05-08T14:38:13Z</time>
</trkpt>
<trkpt lat="49.43357842974365" lon="9.156269989907742">
<ele>344.2</ele>
<time>2024-05-08T14:38:14Z</time>
</trkpt>
<trkpt lat="49.43362805061042" lon="9.15627669543028">
<ele>344.2</ele>
<time>2024-05-08T14:38:15Z</time>
</trkpt>
<trkpt lat="49.43367004394531" lon="9.156278539448977">
<ele>344.2</ele>
<time>2024-05-08T14:38:16Z</time>
</trkpt>
<trkpt lat="49.43371580913663" lon="9.156279545277355">
<ele>344.2</ele>
<time>2024-05-08T14:38:17Z</time>
</trkpt>
<trkpt lat="49.43375771865249" lon="9.156283317133784">
<ele>344.2</ele>
<time>2024-05-08T14:38:18Z</time>
</trkpt>
<trkpt lat="49.433799711987376" lon="9.156283317133784">
<ele>344.2</ele>
<time>2024-05-08T14:38:19Z</time>
</trkpt>
<trkpt lat="49.433841705322266" lon="9.156286166980864">
<ele>344.2</ele>
<time>2024-05-08T14:38:20Z</time>
</trkpt>
<trkpt lat="49.43388361483812" lon="9.156286166980864">
<ele>344</ele>
<time>2024-05-08T14:38:22Z</time>
</trkpt>
<trkpt lat="49.434020994231105" lon="9.156286166980864">
<ele>344</ele>
<time>2024-05-08T14:38:24Z</time>
</trkpt>
<trkpt lat="49.43406675942242" lon="9.156283317133784">
<ele>344</ele>
<time>2024-05-08T14:38:25Z</time>
</trkpt>
<trkpt lat="49.43411252461374" lon="9.156285244971514">
<ele>344</ele>
<time>2024-05-08T14:38:26Z</time>
</trkpt>
<trkpt lat="49.43416591733694" lon="9.156281389296057">
<ele>344</ele>
<time>2024-05-08T14:38:27Z</time>
</trkpt>
<trkpt lat="49.43421168252826" lon="9.156278539448977">
<ele>344</ele>
<time>2024-05-08T14:38:28Z</time>
</trkpt>
<trkpt lat="49.434257447719574" lon="9.156271917745473">
<ele>344</ele>
<time>2024-05-08T14:38:29Z</time>
</trkpt>
<trkpt lat="49.43429944105446" lon="9.15627283975482">
<ele>344</ele>
<time>2024-05-08T14:38:30Z</time>
</trkpt>
<trkpt lat="49.43434520624578" lon="9.15627283975482">
<ele>344</ele>
<time>2024-05-08T14:38:31Z</time>
</trkpt>
<trkpt lat="49.43439482711256" lon="9.15627283975482">
<ele>344</ele>
<time>2024-05-08T14:38:32Z</time>
</trkpt>
<trkpt lat="49.4344443641603" lon="9.15627476759255">
<ele>344</ele>
<time>2024-05-08T14:38:33Z</time>
</trkpt>
<trkpt lat="49.434493985027075" lon="9.15627669543028">
<ele>344</ele>
<time>2024-05-08T14:38:34Z</time>
</trkpt>
<trkpt lat="49.43453975021839" lon="9.15627669543028">
<ele>344</ele>
<time>2024-05-08T14:38:35Z</time>
</trkpt>
<trkpt lat="49.43458551540971" lon="9.156279545277355">
<ele>344</ele>
<time>2024-05-08T14:38:36Z</time>
</trkpt>
<trkpt lat="49.434631280601025" lon="9.156278539448977">
<ele>343.8</ele>
<time>2024-05-08T14:38:37Z</time>
</trkpt>
<trkpt lat="49.434673273935914" lon="9.156283317133784">
<ele>343.8</ele>
<time>2024-05-08T14:38:38Z</time>
</trkpt>
<trkpt lat="49.4347152672708" lon="9.156285244971514">
<ele>343.8</ele>
<time>2024-05-08T14:38:39Z</time>
</trkpt>
<trkpt lat="49.43476480431855" lon="9.156286166980864">
<ele>343.8</ele>
<time>2024-05-08T14:38:40Z</time>
</trkpt>
<trkpt lat="49.43480294197798" lon="9.156291950494053">
<ele>343.8</ele>
<time>2024-05-08T14:38:41Z</time>
</trkpt>
<trkpt lat="49.43483730778098" lon="9.156301422044637">
<ele>343.8</ele>
<time>2024-05-08T14:38:42Z</time>
</trkpt>
<trkpt lat="49.434871673583984" lon="9.15631290525198">
<ele>343.8</ele>
<time>2024-05-08T14:38:43Z</time>
</trkpt>
<trkpt lat="49.43490595556795" lon="9.156328160315752">
<ele>343.8</ele>
<time>2024-05-08T14:38:44Z</time>
</trkpt>
<trkpt lat="49.43494409322739" lon="9.156338637694716">
<ele>343.6</ele>
<time>2024-05-08T14:38:45Z</time>
</trkpt>
<trkpt lat="49.4349898584187" lon="9.156346265226604">
<ele>343.6</ele>
<time>2024-05-08T14:38:46Z</time>
</trkpt>
<trkpt lat="49.43503562361002" lon="9.156361520290377">
<ele>343.6</ele>
<time>2024-05-08T14:38:47Z</time>
</trkpt>
<trkpt lat="49.43508147262037" lon="9.156376775354149">
<ele>343.4</ele>
<time>2024-05-08T14:38:48Z</time>
</trkpt>
<trkpt lat="49.43513100966811" lon="9.1563930362463">
<ele>343.4</ele>
<time>2024-05-08T14:38:49Z</time>
</trkpt>
<trkpt lat="49.43518063053489" lon="9.15641306899488">
<ele>343.4</ele>
<time>2024-05-08T14:38:50Z</time>
</trkpt>
<trkpt lat="49.435241650789976" lon="9.15643117390573">
<ele>343.6</ele>
<time>2024-05-08T14:38:51Z</time>
</trkpt>
<trkpt lat="49.43528741598129" lon="9.15645120665431">
<ele>343.6</ele>
<time>2024-05-08T14:38:52Z</time>
</trkpt>
<trkpt lat="49.43534843623638" lon="9.156468389555812">
<ele>343.8</ele>
<time>2024-05-08T14:38:53Z</time>
</trkpt>
<trkpt lat="49.43539042957127" lon="9.156486494466662">
<ele>343.8</ele>
<time>2024-05-08T14:38:54Z</time>
</trkpt>
<trkpt lat="49.43543619476259" lon="9.15651130490005">
<ele>344</ele>
<time>2024-05-08T14:38:55Z</time>
</trkpt>
<trkpt lat="49.43547818809748" lon="9.156535109505056">
<ele>344</ele>
<time>2024-05-08T14:38:56Z</time>
</trkpt>
<trkpt lat="49.43552772514522" lon="9.156551286578178">
<ele>344.2</ele>
<time>2024-05-08T14:38:57Z</time>
</trkpt>
<trkpt lat="49.435581201687455" lon="9.156564697623253">
<ele>344.2</ele>
<time>2024-05-08T14:38:58Z</time>
</trkpt>
<trkpt lat="49.43562696687877" lon="9.156581796705725">
<ele>344.2</ele>
<time>2024-05-08T14:38:59Z</time>
</trkpt>
<trkpt lat="49.435680359601974" lon="9.156593279913068">
<ele>344</ele>
<time>2024-05-08T14:39:00Z</time>
</trkpt>
<trkpt lat="49.43572612479329" lon="9.15660660713911">
<ele>344</ele>
<time>2024-05-08T14:39:01Z</time>
</trkpt>
<trkpt lat="49.43577574566007" lon="9.15662471204996">
<ele>344</ele>
<time>2024-05-08T14:39:02Z</time>
</trkpt>
<trkpt lat="49.43582151085138" lon="9.156648600474">
<ele>344</ele>
<time>2024-05-08T14:39:03Z</time>
</trkpt>
<trkpt lat="49.43586342036724" lon="9.15666670538485">
<ele>344</ele>
<time>2024-05-08T14:39:04Z</time>
</trkpt>
<trkpt lat="49.43590541370213" lon="9.156691515818238">
<ele>344.2</ele>
<time>2024-05-08T14:39:05Z</time>
</trkpt>
<trkpt lat="49.435955034568906" lon="9.15670869871974">
<ele>344</ele>
<time>2024-05-08T14:39:06Z</time>
</trkpt>
<trkpt lat="49.43599694408476" lon="9.156729653477669">
<ele>344</ele>
<time>2024-05-08T14:39:07Z</time>
</trkpt>
<trkpt lat="49.43604270927608" lon="9.15674683637917">
<ele>344</ele>
<time>2024-05-08T14:39:08Z</time>
</trkpt>
<trkpt lat="49.43608470261097" lon="9.156763013452291">
<ele>344</ele>
<time>2024-05-08T14:39:09Z</time>
</trkpt>
<trkpt lat="49.436134323477745" lon="9.156780196353791">
<ele>344</ele>
<time>2024-05-08T14:39:10Z</time>
</trkpt>
<trkpt lat="49.43618386052549" lon="9.156789751723409">
<ele>344.2</ele>
<time>2024-05-08T14:39:11Z</time>
</trkpt>
<trkpt lat="49.436229625716805" lon="9.156800229102371">
<ele>344.2</ele>
<time>2024-05-08T14:39:12Z</time>
</trkpt>
<trkpt lat="49.43627924658358" lon="9.156814562156796">
<ele>344.2</ele>
<time>2024-05-08T14:39:13Z</time>
</trkpt>
<trkpt lat="49.4363250117749" lon="9.156816406175494">
<ele>344</ele>
<time>2024-05-08T14:39:14Z</time>
</trkpt>
<trkpt lat="49.43636700510979" lon="9.156820261850951">
<ele>344</ele>
<time>2024-05-08T14:39:15Z</time>
</trkpt>
<trkpt lat="49.436412770301104" lon="9.156829817220569">
<ele>344</ele>
<time>2024-05-08T14:39:16Z</time>
</trkpt>
<trkpt lat="49.43646239116788" lon="9.156843144446611">
<ele>344</ele>
<time>2024-05-08T14:39:17Z</time>
</trkpt>
<trkpt lat="49.43651192821562" lon="9.15684792213142">
<ele>344</ele>
<time>2024-05-08T14:39:18Z</time>
</trkpt>
<trkpt lat="49.43657294847071" lon="9.15684792213142">
<ele>344</ele>
<time>2024-05-08T14:39:19Z</time>
</trkpt>
<trkpt lat="49.43663019686937" lon="9.156851693987846">
<ele>344</ele>
<time>2024-05-08T14:39:20Z</time>
</trkpt>
<trkpt lat="49.43669121712446" lon="9.156851693987846">
<ele>344</ele>
<time>2024-05-08T14:39:21Z</time>
</trkpt>
<trkpt lat="49.43673698231578" lon="9.156851693987846">
<ele>344</ele>
<time>2024-05-08T14:39:22Z</time>
</trkpt>
<trkpt lat="49.43679423071444" lon="9.15684700012207">
<ele>344</ele>
<time>2024-05-08T14:39:23Z</time>
</trkpt>
<trkpt lat="49.43684762343764" lon="9.156841216608882">
<ele>344</ele>
<time>2024-05-08T14:39:24Z</time>
</trkpt>
<trkpt lat="49.43689724430442" lon="9.156833589076996">
<ele>344</ele>
<time>2024-05-08T14:39:25Z</time>
</trkpt>
<trkpt lat="49.436946865171194" lon="9.15682503953576">
<ele>344</ele>
<time>2024-05-08T14:39:26Z</time>
</trkpt>
<trkpt lat="49.4370002578944" lon="9.156816406175494">
<ele>344</ele>
<time>2024-05-08T14:39:27Z</time>
</trkpt>
<trkpt lat="49.4370536506176" lon="9.15680785663426">
<ele>344</ele>
<time>2024-05-08T14:39:28Z</time>
</trkpt>
<trkpt lat="49.43711089901626" lon="9.156798301264644">
<ele>344.2</ele>
<time>2024-05-08T14:39:29Z</time>
</trkpt>
<trkpt lat="49.437160436064005" lon="9.156793523579836">
<ele>344.2</ele>
<time>2024-05-08T14:39:30Z</time>
</trkpt>
<trkpt lat="49.43721005693078" lon="9.15678782388568">
<ele>344.2</ele>
<time>2024-05-08T14:39:31Z</time>
</trkpt>
<trkpt lat="49.43725959397853" lon="9.156782124191524">
<ele>344.2</ele>
<time>2024-05-08T14:39:32Z</time>
</trkpt>
<trkpt lat="49.4373092148453" lon="9.156776424497366">
<ele>344.2</ele>
<time>2024-05-08T14:39:33Z</time>
</trkpt>
<trkpt lat="49.4373626075685" lon="9.156769718974829">
<ele>344.2</ele>
<time>2024-05-08T14:39:34Z</time>
</trkpt>
<trkpt lat="49.43741222843528" lon="9.156760163605211">
<ele>344.2</ele>
<time>2024-05-08T14:39:35Z</time>
</trkpt>
<trkpt lat="49.43746184930205" lon="9.156755385920404">
<ele>344.2</ele>
<time>2024-05-08T14:39:36Z</time>
</trkpt>
<trkpt lat="49.4375113863498" lon="9.156749686226249">
<ele>344.2</ele>
<time>2024-05-08T14:39:37Z</time>
</trkpt>
<trkpt lat="49.437564779073" lon="9.156742980703712">
<ele>344.2</ele>
<time>2024-05-08T14:39:38Z</time>
</trkpt>
<trkpt lat="49.437614399939775" lon="9.156738203018904">
<ele>344.2</ele>
<time>2024-05-08T14:39:39Z</time>
</trkpt>
<trkpt lat="49.437675420194864" lon="9.15672487579286">
<ele>344.2</ele>
<time>2024-05-08T14:39:40Z</time>
</trkpt>
<trkpt lat="49.437732668593526" lon="9.156718254089355">
<ele>344.2</ele>
<time>2024-05-08T14:39:41Z</time>
</trkpt>
<trkpt lat="49.43778606131673" lon="9.156720098108051">
<ele>344.2</ele>
<time>2024-05-08T14:39:42Z</time>
</trkpt>
<trkpt lat="49.437835682183504" lon="9.156718254089355">
<ele>344.2</ele>
<time>2024-05-08T14:39:43Z</time>
</trkpt>
<trkpt lat="49.43788521923125" lon="9.156713476404548">
<ele>344.4</ele>
<time>2024-05-08T14:39:44Z</time>
</trkpt>
<trkpt lat="49.437930984422565" lon="9.15670869871974">
<ele>344.4</ele>
<time>2024-05-08T14:39:45Z</time>
</trkpt>
<trkpt lat="49.43797683343291" lon="9.15670677088201">
<ele>344.2</ele>
<time>2024-05-08T14:39:46Z</time>
</trkpt>
<trkpt lat="49.43801874294877" lon="9.156713476404548">
<ele>344.2</ele>
<time>2024-05-08T14:39:47Z</time>
</trkpt>
<trkpt lat="49.438068363815546" lon="9.156720098108051">
<ele>344.2</ele>
<time>2024-05-08T14:39:48Z</time>
</trkpt>
<trkpt lat="49.43812175653875" lon="9.15672487579286">
<ele>344.2</ele>
<time>2024-05-08T14:39:49Z</time>
</trkpt>
<trkpt lat="49.43817137740552" lon="9.156735353171824">
<ele>344.4</ele>
<time>2024-05-08T14:39:50Z</time>
</trkpt>
<trkpt lat="49.43822091445327" lon="9.156751614063978">
<ele>344.4</ele>
<time>2024-05-08T14:39:51Z</time>
</trkpt>
<trkpt lat="49.438266679644585" lon="9.156763013452291">
<ele>344.4</ele>
<time>2024-05-08T14:39:52Z</time>
</trkpt>
<trkpt lat="49.438308672979474" lon="9.15676686912775">
<ele>344.4</ele>
<time>2024-05-08T14:39:53Z</time>
</trkpt>
<trkpt lat="49.438346810638905" lon="9.156773490831256">
<ele>344.4</ele>
<time>2024-05-08T14:39:54Z</time>
</trkpt>
<trkpt lat="49.438388803973794" lon="9.156776424497366">
<ele>344.6</ele>
<time>2024-05-08T14:39:55Z</time>
</trkpt>
<trkpt lat="49.43843071348965" lon="9.156789751723409">
<ele>344.6</ele>
<time>2024-05-08T14:39:56Z</time>
</trkpt>
<trkpt lat="49.43846885114908" lon="9.156803078949451">
<ele>344.4</ele>
<time>2024-05-08T14:39:57Z</time>
</trkpt>
<trkpt lat="49.438507072627544" lon="9.156813556328416">
<ele>344.4</ele>
<time>2024-05-08T14:39:58Z</time>
</trkpt>
<trkpt lat="49.4385489821434" lon="9.156829817220569">
<ele>344.4</ele>
<time>2024-05-08T14:39:59Z</time>
</trkpt>
<trkpt lat="49.43859097547829" lon="9.15684700012207">
<ele>344.4</ele>
<time>2024-05-08T14:40:00Z</time>
</trkpt>
<trkpt lat="49.438659623265266" lon="9.156860327348111">
<ele>344.2</ele>
<time>2024-05-08T14:40:01Z</time>
</trkpt>
<trkpt lat="49.438720643520355" lon="9.156881282106042">
<ele>344.2</ele>
<time>2024-05-08T14:40:02Z</time>
</trkpt>
<trkpt lat="49.43878166377544" lon="9.156900392845271">
<ele>344.2</ele>
<time>2024-05-08T14:40:03Z</time>
</trkpt>
<trkpt lat="49.43884653970599" lon="9.15690701454878">
<ele>344.2</ele>
<time>2024-05-08T14:40:04Z</time>
</trkpt>
<trkpt lat="49.43890755996108" lon="9.156918497756124">
<ele>344.2</ele>
<time>2024-05-08T14:40:05Z</time>
</trkpt>
<trkpt lat="49.438980063423514" lon="9.156929897144437">
<ele>344</ele>
<time>2024-05-08T14:40:06Z</time>
</trkpt>
<trkpt lat="49.4390410836786" lon="9.156941380351782">
<ele>344</ele>
<time>2024-05-08T14:40:07Z</time>
</trkpt>
<trkpt lat="49.43910210393369" lon="9.156956635415554">
<ele>344</ele>
<time>2024-05-08T14:40:08Z</time>
</trkpt>
<trkpt lat="49.43916320800781" lon="9.156968034803867">
<ele>344</ele>
<time>2024-05-08T14:40:09Z</time>
</trkpt>
<trkpt lat="49.439216600731015" lon="9.156976668164134">
<ele>344.2</ele>
<time>2024-05-08T14:40:10Z</time>
</trkpt>
<trkpt lat="49.439273765310645" lon="9.156991923227906">
<ele>344.2</ele>
<time>2024-05-08T14:40:11Z</time>
</trkpt>
<trkpt lat="49.439334869384766" lon="9.157010028138757">
<ele>344.2</ele>
<time>2024-05-08T14:40:12Z</time>
</trkpt>
<trkpt lat="49.4393920339644" lon="9.157019583508372">
<ele>344.2</ele>
<time>2024-05-08T14:40:13Z</time>
</trkpt>
<trkpt lat="49.43944928236306" lon="9.157031988725066">
<ele>344.2</ele>
<time>2024-05-08T14:40:14Z</time>
</trkpt>
<trkpt lat="49.43950267508626" lon="9.15704338811338">
<ele>344.2</ele>
<time>2024-05-08T14:40:15Z</time>
</trkpt>
<trkpt lat="49.43959806114435" lon="9.157072054222226">
<ele>344.2</ele>
<time>2024-05-08T14:40:16Z</time>
</trkpt>
<trkpt lat="49.43964382633567" lon="9.15708152577281">
<ele>344.2</ele>
<time>2024-05-08T14:40:18Z</time>
</trkpt>
<trkpt lat="49.43969344720245" lon="9.157090159133077">
<ele>344.2</ele>
<time>2024-05-08T14:40:19Z</time>
</trkpt>
<trkpt lat="49.4397353567183" lon="9.157098708674312">
<ele>344.2</ele>
<time>2024-05-08T14:40:20Z</time>
</trkpt>
<trkpt lat="49.43978112190962" lon="9.157108264043927">
<ele>344.2</ele>
<time>2024-05-08T14:40:21Z</time>
</trkpt>
<trkpt lat="49.439826887100935" lon="9.157114969566464">
<ele>344.2</ele>
<time>2024-05-08T14:40:22Z</time>
</trkpt>
<trkpt lat="49.43987650796771" lon="9.157118741422892">
<ele>344.2</ele>
<time>2024-05-08T14:40:23Z</time>
</trkpt>
<trkpt lat="49.43992227315903" lon="9.1571235191077">
<ele>344.2</ele>
<time>2024-05-08T14:40:24Z</time>
</trkpt>
<trkpt lat="49.439968038350344" lon="9.157126368954778">
<ele>344.2</ele>
<time>2024-05-08T14:40:25Z</time>
</trkpt>
<trkpt lat="49.44002151489258" lon="9.157136846333742">
<ele>344.2</ele>
<time>2024-05-08T14:40:26Z</time>
</trkpt>
<trkpt lat="49.44007490761578" lon="9.157146401703358">
<ele>344.2</ele>
<time>2024-05-08T14:40:27Z</time>
</trkpt>
<trkpt lat="49.440124444663525" lon="9.15716165676713">
<ele>344.2</ele>
<time>2024-05-08T14:40:28Z</time>
</trkpt>
<trkpt lat="49.4401740655303" lon="9.157173139974477">
<ele>344.4</ele>
<time>2024-05-08T14:40:29Z</time>
</trkpt>
<trkpt lat="49.44021983072162" lon="9.157184539362788">
<ele>344.4</ele>
<time>2024-05-08T14:40:30Z</time>
</trkpt>
<trkpt lat="49.44026945158839" lon="9.157196944579482">
<ele>344.6</ele>
<time>2024-05-08T14:40:31Z</time>
</trkpt>
<trkpt lat="49.44037246517837" lon="9.157211277633904">
<ele>344.6</ele>
<time>2024-05-08T14:40:32Z</time>
</trkpt>
<trkpt lat="49.440429629758" lon="9.157224604859948">
<ele>344.8</ele>
<time>2024-05-08T14:40:34Z</time>
</trkpt>
<trkpt lat="49.4404830224812" lon="9.15723985992372">
<ele>344.6</ele>
<time>2024-05-08T14:40:35Z</time>
</trkpt>
<trkpt lat="49.440540270879865" lon="9.157250337302685">
<ele>344.6</ele>
<time>2024-05-08T14:40:36Z</time>
</trkpt>
<trkpt lat="49.44059366360307" lon="9.157264670357108">
<ele>344.6</ele>
<time>2024-05-08T14:40:37Z</time>
</trkpt>
<trkpt lat="49.44064705632627" lon="9.157284703105688">
<ele>344.4</ele>
<time>2024-05-08T14:40:38Z</time>
</trkpt>
<trkpt lat="49.44070044904947" lon="9.15730280801654">
<ele>344.4</ele>
<time>2024-05-08T14:40:39Z</time>
</trkpt>
<trkpt lat="49.44075006991625" lon="9.15731999091804">
<ele>344.2</ele>
<time>2024-05-08T14:40:40Z</time>
</trkpt>
<trkpt lat="49.440799690783024" lon="9.15733809582889">
<ele>344.2</ele>
<time>2024-05-08T14:40:41Z</time>
</trkpt>
<trkpt lat="49.44085308350623" lon="9.157353350892665">
<ele>344.4</ele>
<time>2024-05-08T14:40:42Z</time>
</trkpt>
<trkpt lat="49.440902704373" lon="9.15736290626228">
<ele>344.2</ele>
<time>2024-05-08T14:40:43Z</time>
</trkpt>
<trkpt lat="49.44094846956432" lon="9.157371455803514">
<ele>344.2</ele>
<time>2024-05-08T14:40:44Z</time>
</trkpt>
<trkpt lat="49.441013261675835" lon="9.157373383641245">
<ele>344.2</ele>
<time>2024-05-08T14:40:45Z</time>
</trkpt>
<trkpt lat="49.44106673821807" lon="9.157384866848588">
<ele>344.2</ele>
<time>2024-05-08T14:40:46Z</time>
</trkpt>
<trkpt lat="49.44112775847316" lon="9.157404899597168">
<ele>344.2</ele>
<time>2024-05-08T14:40:47Z</time>
</trkpt>
<trkpt lat="49.44118492305279" lon="9.157423004508018">
<ele>344.2</ele>
<time>2024-05-08T14:40:48Z</time>
</trkpt>
<trkpt lat="49.44123839959502" lon="9.157435409724712">
<ele>344.2</ele>
<time>2024-05-08T14:40:49Z</time>
</trkpt>
<trkpt lat="49.44128030911088" lon="9.15745829232037">
<ele>344.2</ele>
<time>2024-05-08T14:40:50Z</time>
</trkpt>
<trkpt lat="49.4413260743022" lon="9.157480169087648">
<ele>344.2</ele>
<time>2024-05-08T14:40:51Z</time>
</trkpt>
<trkpt lat="49.44137183949351" lon="9.157504979521036">
<ele>344.2</ele>
<time>2024-05-08T14:40:52Z</time>
</trkpt>
<trkpt lat="49.44143671542406" lon="9.157534567639232">
<ele>344.2</ele>
<time>2024-05-08T14:40:53Z</time>
</trkpt>
<trkpt lat="49.44149773567915" lon="9.157569855451584">
<ele>344.2</ele>
<time>2024-05-08T14:40:54Z</time>
</trkpt>
<trkpt lat="49.441608376801014" lon="9.157634731382132">
<ele>344.2</ele>
<time>2024-05-08T14:40:56Z</time>
</trkpt>
<trkpt lat="49.44166176952422" lon="9.15767186321318">
<ele>344</ele>
<time>2024-05-08T14:40:57Z</time>
</trkpt>
<trkpt lat="49.44171139039099" lon="9.157703379169106">
<ele>344</ele>
<time>2024-05-08T14:40:58Z</time>
</trkpt>
<trkpt lat="49.44176101125777" lon="9.15773673914373">
<ele>344</ele>
<time>2024-05-08T14:40:59Z</time>
</trkpt>
<trkpt lat="49.4418525416404" lon="9.15781209245324">
<ele>344</ele>
<time>2024-05-08T14:41:00Z</time>
</trkpt>
<trkpt lat="49.44194792769849" lon="9.15789121761918">
<ele>344</ele>
<time>2024-05-08T14:41:02Z</time>
</trkpt>
<trkpt lat="49.44199369288981" lon="9.157930361106992">
<ele>344</ele>
<time>2024-05-08T14:41:04Z</time>
</trkpt>
<trkpt lat="49.442039458081126" lon="9.157975120469928">
<ele>344</ele>
<time>2024-05-08T14:41:05Z</time>
</trkpt>
<trkpt lat="49.442081451416016" lon="9.158022813498974">
<ele>344</ele>
<time>2024-05-08T14:41:06Z</time>
</trkpt>
<trkpt lat="49.442119589075446" lon="9.158064806833863">
<ele>344</ele>
<time>2024-05-08T14:41:07Z</time>
</trkpt>
<trkpt lat="49.442161498591304" lon="9.158111494034529">
<ele>344.2</ele>
<time>2024-05-08T14:41:08Z</time>
</trkpt>
<trkpt lat="49.442199636250734" lon="9.158163042739034">
<ele>344.2</ele>
<time>2024-05-08T14:41:09Z</time>
</trkpt>
<trkpt lat="49.442279767245054" lon="9.158276533707976">
<ele>344.2</ele>
<time>2024-05-08T14:41:10Z</time>
</trkpt>
<trkpt lat="49.442317904904485" lon="9.158334704115989">
<ele>344.2</ele>
<time>2024-05-08T14:41:12Z</time>
</trkpt>
<trkpt lat="49.442359898239374" lon="9.158392874523996">
<ele>344.2</ele>
<time>2024-05-08T14:41:13Z</time>
</trkpt>
<trkpt lat="49.44240943528712" lon="9.1584462672472">
<ele>344.2</ele>
<time>2024-05-08T14:41:14Z</time>
</trkpt>
<trkpt lat="49.44245142862201" lon="9.15850636549294">
<ele>344.2</ele>
<time>2024-05-08T14:41:15Z</time>
</trkpt>
<trkpt lat="49.44248956628144" lon="9.158568307757378">
<ele>344.4</ele>
<time>2024-05-08T14:41:16Z</time>
</trkpt>
<trkpt lat="49.44252770394087" lon="9.158639889210464">
<ele>344.4</ele>
<time>2024-05-08T14:41:17Z</time>
</trkpt>
<trkpt lat="49.44256206974387" lon="9.158710464835169">
<ele>344.4</ele>
<time>2024-05-08T14:41:18Z</time>
</trkpt>
<trkpt lat="49.442596435546875" lon="9.158778190612791">
<ele>344.2</ele>
<time>2024-05-08T14:41:19Z</time>
</trkpt>
<trkpt lat="49.44262694567442" lon="9.158846838399768">
<ele>344.2</ele>
<time>2024-05-08T14:41:20Z</time>
</trkpt>
<trkpt lat="49.44265745580197" lon="9.158911630511284">
<ele>344.2</ele>
<time>2024-05-08T14:41:21Z</time>
</trkpt>
<trkpt lat="49.44268033839762" lon="9.158974578604102">
<ele>344.2</ele>
<time>2024-05-08T14:41:22Z</time>
</trkpt>
<trkpt lat="49.44270322099328" lon="9.159040376544">
<ele>344.2</ele>
<time>2024-05-08T14:41:23Z</time>
</trkpt>
<trkpt lat="49.442733731120825" lon="9.159114807844162">
<ele>344.2</ele>
<time>2024-05-08T14:41:24Z</time>
</trkpt>
<trkpt lat="49.44276038557291" lon="9.159190161153674">
<ele>344.2</ele>
<time>2024-05-08T14:41:25Z</time>
</trkpt>
<trkpt lat="49.4427833519876" lon="9.1592578869313">
<ele>344.2</ele>
<time>2024-05-08T14:41:26Z</time>
</trkpt>
<trkpt lat="49.4428023789078" lon="9.159330306574702">
<ele>344.2</ele>
<time>2024-05-08T14:41:27Z</time>
</trkpt>
<trkpt lat="49.44282148964703" lon="9.15939711034298">
<ele>344.2</ele>
<time>2024-05-08T14:41:28Z</time>
</trkpt>
<trkpt lat="49.44284051656723" lon="9.159461902454495">
<ele>344.2</ele>
<time>2024-05-08T14:41:29Z</time>
</trkpt>
<trkpt lat="49.44286339916289" lon="9.159528706222773">
<ele>344.2</ele>
<time>2024-05-08T14:41:30Z</time>
</trkpt>
<trkpt lat="49.44288628175855" lon="9.15958972647786">
<ele>344.2</ele>
<time>2024-05-08T14:41:31Z</time>
</trkpt>
<trkpt lat="49.44290153682232" lon="9.159646974876525">
<ele>344.2</ele>
<time>2024-05-08T14:41:32Z</time>
</trkpt>
<trkpt lat="49.44291679188609" lon="9.159705145284534">
<ele>344.2</ele>
<time>2024-05-08T14:41:33Z</time>
</trkpt>
<trkpt lat="49.44292827509344" lon="9.159765243530272">
<ele>344.2</ele>
<time>2024-05-08T14:41:34Z</time>
</trkpt>
<trkpt lat="49.442951157689095" lon="9.159878650680184">
<ele>344.4</ele>
<time>2024-05-08T14:41:35Z</time>
</trkpt>
<trkpt lat="49.44296264089644" lon="9.15993019938469">
<ele>344.4</ele>
<time>2024-05-08T14:41:37Z</time>
</trkpt>
<trkpt lat="49.442970268428326" lon="9.159979820251465">
<ele>344.6</ele>
<time>2024-05-08T14:41:38Z</time>
</trkpt>
<trkpt lat="49.44298166781664" lon="9.16002650745213">
<ele>344.8</ele>
<time>2024-05-08T14:41:39Z</time>
</trkpt>
<trkpt lat="49.442993151023984" lon="9.160077050328256">
<ele>345</ele>
<time>2024-05-08T14:41:40Z</time>
</trkpt>
<trkpt lat="49.44300077855587" lon="9.160119965672491">
<ele>345.2</ele>
<time>2024-05-08T14:41:41Z</time>
</trkpt>
<trkpt lat="49.44300840608776" lon="9.160162881016731">
<ele>345.4</ele>
<time>2024-05-08T14:41:42Z</time>
</trkpt>
<trkpt lat="49.44301217794418" lon="9.160211496055126">
<ele>345.6</ele>
<time>2024-05-08T14:41:43Z</time>
</trkpt>
<trkpt lat="49.44301980547607" lon="9.16026203893125">
<ele>345.8</ele>
<time>2024-05-08T14:41:44Z</time>
</trkpt>
<trkpt lat="49.443027433007956" lon="9.160306882113218">
<ele>346</ele>
<time>2024-05-08T14:41:45Z</time>
</trkpt>
<trkpt lat="49.4430389162153" lon="9.160356502979994">
<ele>346.2</ele>
<time>2024-05-08T14:41:46Z</time>
</trkpt>
<trkpt lat="49.44304654374719" lon="9.16040319018066">
<ele>346.4</ele>
<time>2024-05-08T14:41:47Z</time>
</trkpt>
<trkpt lat="49.443050315603614" lon="9.1604632884264">
<ele>346.6</ele>
<time>2024-05-08T14:41:48Z</time>
</trkpt>
<trkpt lat="49.443050315603614" lon="9.160528164356949">
<ele>346.8</ele>
<time>2024-05-08T14:41:49Z</time>
</trkpt>
<trkpt lat="49.443050315603614" lon="9.160594884306192">
<ele>347</ele>
<time>2024-05-08T14:41:50Z</time>
</trkpt>
<trkpt lat="49.443050315603614" lon="9.160666465759276">
<ele>346.8</ele>
<time>2024-05-08T14:41:51Z</time>
</trkpt>
<trkpt lat="49.443050315603614" lon="9.16073989123106">
<ele>346.8</ele>
<time>2024-05-08T14:41:52Z</time>
</trkpt>
<trkpt lat="49.44305417127907" lon="9.16081516072154">
<ele>346.8</ele>
<time>2024-05-08T14:41:53Z</time>
</trkpt>
<trkpt lat="49.443050315603614" lon="9.160889592021704">
<ele>346.8</ele>
<time>2024-05-08T14:41:54Z</time>
</trkpt>
<trkpt lat="49.44304268807173" lon="9.160963017493486">
<ele>346.8</ele>
<time>2024-05-08T14:41:55Z</time>
</trkpt>
<trkpt lat="49.44303506053984" lon="9.16103359311819">
<ele>347</ele>
<time>2024-05-08T14:41:56Z</time>
</trkpt>
<trkpt lat="49.443027433007956" lon="9.161103246733546">
<ele>347</ele>
<time>2024-05-08T14:41:57Z</time>
</trkpt>
<trkpt lat="49.44301217794418" lon="9.16117281652987">
<ele>346.8</ele>
<time>2024-05-08T14:41:58Z</time>
</trkpt>
<trkpt lat="49.4430045504123" lon="9.16123484261334">
<ele>346.8</ele>
<time>2024-05-08T14:41:59Z</time>
</trkpt>
<trkpt lat="49.442993151023984" lon="9.161303490400314">
<ele>346.8</ele>
<time>2024-05-08T14:42:00Z</time>
</trkpt>
<trkpt lat="49.44297404028475" lon="9.161381693556905">
<ele>346.6</ele>
<time>2024-05-08T14:42:01Z</time>
</trkpt>
<trkpt lat="49.44295501336455" lon="9.161463668569922">
<ele>346.4</ele>
<time>2024-05-08T14:42:02Z</time>
</trkpt>
<trkpt lat="49.44293975830078" lon="9.16154857724905">
<ele>346.2</ele>
<time>2024-05-08T14:42:03Z</time>
</trkpt>
<trkpt lat="49.44292827509344" lon="9.161635329946876">
<ele>346.2</ele>
<time>2024-05-08T14:42:04Z</time>
</trkpt>
<trkpt lat="49.44292441941798" lon="9.161718310788274">
<ele>345.8</ele>
<time>2024-05-08T14:42:05Z</time>
</trkpt>
<trkpt lat="49.44291679188609" lon="9.161813696846366">
<ele>345.6</ele>
<time>2024-05-08T14:42:06Z</time>
</trkpt>
<trkpt lat="49.442909164354205" lon="9.161894749850036">
<ele>345.2</ele>
<time>2024-05-08T14:42:07Z</time>
</trkpt>
<trkpt lat="49.44289390929043" lon="9.161972953006623">
<ele>344.8</ele>
<time>2024-05-08T14:42:09Z</time>
</trkpt>
<trkpt lat="49.442855771631" lon="9.162093149498103">
<ele>344.6</ele>
<time>2024-05-08T14:42:10Z</time>
</trkpt>
<trkpt lat="49.44284051656723" lon="9.162136986851692">
<ele>344.4</ele>
<time>2024-05-08T14:42:11Z</time>
</trkpt>
<trkpt lat="49.44282526150346" lon="9.162177052348852">
<ele>344.2</ele>
<time>2024-05-08T14:42:12Z</time>
</trkpt>
<trkpt lat="49.442810006439686" lon="9.162213262170551">
<ele>344.2</ele>
<time>2024-05-08T14:42:13Z</time>
</trkpt>
<trkpt lat="49.442794751375914" lon="9.162251399829984">
<ele>344</ele>
<time>2024-05-08T14:42:14Z</time>
</trkpt>
<trkpt lat="49.442775724455714" lon="9.162291465327144">
<ele>344</ele>
<time>2024-05-08T14:42:15Z</time>
</trkpt>
<trkpt lat="49.44276424124837" lon="9.162331530824304">
<ele>343.8</ele>
<time>2024-05-08T14:42:16Z</time>
</trkpt>
<trkpt lat="49.442752758041024" lon="9.162368746474383">
<ele>343.8</ele>
<time>2024-05-08T14:42:17Z</time>
</trkpt>
<trkpt lat="49.44274135865271" lon="9.162404956296086">
<ele>343.6</ele>
<time>2024-05-08T14:42:18Z</time>
</trkpt>
<trkpt lat="49.442729875445366" lon="9.162438316270707">
<ele>343.6</ele>
<time>2024-05-08T14:42:19Z</time>
</trkpt>
<trkpt lat="49.44271847605705" lon="9.162469832226634">
<ele>343.6</ele>
<time>2024-05-08T14:42:20Z</time>
</trkpt>
<trkpt lat="49.442714620381594" lon="9.162494642660022">
<ele>343.6</ele>
<time>2024-05-08T14:42:21Z</time>
</trkpt>
<trkpt lat="49.44270322099328" lon="9.162520375102758">
<ele>343.6</ele>
<time>2024-05-08T14:42:22Z</time>
</trkpt>
<trkpt lat="49.44268796592951" lon="9.162545185536146">
<ele>343.6</ele>
<time>2024-05-08T14:42:23Z</time>
</trkpt>
<trkpt lat="49.44267648272216" lon="9.162571839988232">
<ele>343.6</ele>
<time>2024-05-08T14:42:24Z</time>
</trkpt>
<trkpt lat="49.44266508333385" lon="9.162605283781886">
<ele>343.6</ele>
<time>2024-05-08T14:42:25Z</time>
</trkpt>
<trkpt lat="49.44264982827008" lon="9.162646271288397">
<ele>343.4</ele>
<time>2024-05-08T14:42:26Z</time>
</trkpt>
<trkpt lat="49.442634573206306" lon="9.162690108641982">
<ele>343.4</ele>
<time>2024-05-08T14:42:27Z</time>
</trkpt>
<trkpt lat="49.44261931814253" lon="9.162732101976871">
<ele>343.2</ele>
<time>2024-05-08T14:42:28Z</time>
</trkpt>
<trkpt lat="49.44260406307876" lon="9.16277308948338">
<ele>343.2</ele>
<time>2024-05-08T14:42:29Z</time>
</trkpt>
<trkpt lat="49.44258495233953" lon="9.16281122714281">
<ele>343</ele>
<time>2024-05-08T14:42:30Z</time>
</trkpt>
<trkpt lat="49.442573469132185" lon="9.16285129263997">
<ele>343</ele>
<time>2024-05-08T14:42:31Z</time>
</trkpt>
<trkpt lat="49.442554442211986" lon="9.16289328597486">
<ele>343</ele>
<time>2024-05-08T14:42:32Z</time>
</trkpt>
<trkpt lat="49.442535331472754" lon="9.162935195490718">
<ele>343</ele>
<time>2024-05-08T14:42:33Z</time>
</trkpt>
<trkpt lat="49.442516304552555" lon="9.162973333150148">
<ele>343</ele>
<time>2024-05-08T14:42:34Z</time>
</trkpt>
<trkpt lat="49.4424934219569" lon="9.163013398647308">
<ele>343</ele>
<time>2024-05-08T14:42:35Z</time>
</trkpt>
<trkpt lat="49.44247053936124" lon="9.16305153630674">
<ele>343.2</ele>
<time>2024-05-08T14:42:36Z</time>
</trkpt>
<trkpt lat="49.44244380109012" lon="9.163093529641628">
<ele>343.2</ele>
<time>2024-05-08T14:42:37Z</time>
</trkpt>
<trkpt lat="49.44241706281901" lon="9.163141222670674">
<ele>343.4</ele>
<time>2024-05-08T14:42:38Z</time>
</trkpt>
<trkpt lat="49.44239040836692" lon="9.16318790987134">
<ele>343.4</ele>
<time>2024-05-08T14:42:39Z</time>
</trkpt>
<trkpt lat="49.4423636700958" lon="9.163234680891035">
<ele>343.6</ele>
<time>2024-05-08T14:42:40Z</time>
</trkpt>
<trkpt lat="49.44233315996826" lon="9.163278518244624">
<ele>343.6</ele>
<time>2024-05-08T14:42:41Z</time>
</trkpt>
<trkpt lat="49.44230264984071" lon="9.16332621127367">
<ele>343.6</ele>
<time>2024-05-08T14:42:42Z</time>
</trkpt>
<trkpt lat="49.44227599538863" lon="9.163374826312063">
<ele>343.6</ele>
<time>2024-05-08T14:42:43Z</time>
</trkpt>
<trkpt lat="49.44224925711751" lon="9.163430146872996">
<ele>343.8</ele>
<time>2024-05-08T14:42:44Z</time>
</trkpt>
<trkpt lat="49.44222637452185" lon="9.16348647326231">
<ele>343.8</ele>
<time>2024-05-08T14:42:45Z</time>
</trkpt>
<trkpt lat="49.442199636250734" lon="9.16354464367032">
<ele>343.8</ele>
<time>2024-05-08T14:42:46Z</time>
</trkpt>
<trkpt lat="49.44217675365507" lon="9.163599964231253">
<ele>343.8</ele>
<time>2024-05-08T14:42:47Z</time>
</trkpt>
<trkpt lat="49.44215387105942" lon="9.163656206801534">
<ele>343.8</ele>
<time>2024-05-08T14:42:48Z</time>
</trkpt>
<trkpt lat="49.44213098846376" lon="9.163713455200195">
<ele>344</ele>
<time>2024-05-08T14:42:49Z</time>
</trkpt>
<trkpt lat="49.4421081058681" lon="9.163771625608206">
<ele>344</ele>
<time>2024-05-08T14:42:50Z</time>
</trkpt>
<trkpt lat="49.44208522327244" lon="9.163827868178489">
<ele>344</ele>
<time>2024-05-08T14:42:51Z</time>
</trkpt>
<trkpt lat="49.44206611253321" lon="9.163887966424229">
<ele>344</ele>
<time>2024-05-08T14:42:52Z</time>
</trkpt>
<trkpt lat="49.44204322993755" lon="9.163947980850937">
<ele>344</ele>
<time>2024-05-08T14:42:53Z</time>
</trkpt>
<trkpt lat="49.442020347341895" lon="9.164010006934404">
<ele>344</ele>
<time>2024-05-08T14:42:54Z</time>
</trkpt>
<trkpt lat="49.44199746474624" lon="9.164072955027224">
<ele>344</ele>
<time>2024-05-08T14:42:55Z</time>
</trkpt>
<trkpt lat="49.44197458215058" lon="9.16413489729166">
<ele>344</ele>
<time>2024-05-08T14:42:56Z</time>
</trkpt>
<trkpt lat="49.44195169955492" lon="9.16419784538448">
<ele>344.2</ele>
<time>2024-05-08T14:42:57Z</time>
</trkpt>
<trkpt lat="49.44193267263472" lon="9.164259871467948">
<ele>344.2</ele>
<time>2024-05-08T14:42:58Z</time>
</trkpt>
<trkpt lat="49.44190979003906" lon="9.164319969713688">
<ele>344.2</ele>
<time>2024-05-08T14:42:59Z</time>
</trkpt>
<trkpt lat="49.44188682362437" lon="9.164381911978126">
<ele>344.4</ele>
<time>2024-05-08T14:43:00Z</time>
</trkpt>
<trkpt lat="49.441863941028714" lon="9.164443016052246">
<ele>344.6</ele>
<time>2024-05-08T14:43:01Z</time>
</trkpt>
<trkpt lat="49.441844914108515" lon="9.164501186460257">
<ele>344.6</ele>
<time>2024-05-08T14:43:02Z</time>
</trkpt>
<trkpt lat="49.44182203151286" lon="9.16455357335508">
<ele>344.6</ele>
<time>2024-05-08T14:43:03Z</time>
</trkpt>
<trkpt lat="49.44180677644909" lon="9.16460696607828">
<ele>344.6</ele>
<time>2024-05-08T14:43:04Z</time>
</trkpt>
<trkpt lat="49.44179529324174" lon="9.164660442620516">
<ele>344.6</ele>
<time>2024-05-08T14:43:05Z</time>
</trkpt>
<trkpt lat="49.44178003817797" lon="9.164711907505987">
<ele>344.6</ele>
<time>2024-05-08T14:43:06Z</time>
</trkpt>
<trkpt lat="49.441768638789654" lon="9.164766306057572">
<ele>344.6</ele>
<time>2024-05-08T14:43:07Z</time>
</trkpt>
<trkpt lat="49.44175715558231" lon="9.164821542799473">
<ele>344.6</ele>
<time>2024-05-08T14:43:08Z</time>
</trkpt>
<trkpt lat="49.44174190051854" lon="9.164877869188786">
<ele>344.4</ele>
<time>2024-05-08T14:43:09Z</time>
</trkpt>
<trkpt lat="49.44173427298665" lon="9.16493033990264">
<ele>344.4</ele>
<time>2024-05-08T14:43:10Z</time>
</trkpt>
<trkpt lat="49.44173041731119" lon="9.164981804788113">
<ele>344.4</ele>
<time>2024-05-08T14:43:11Z</time>
</trkpt>
<trkpt lat="49.441722789779305" lon="9.165048524737358">
<ele>344.2</ele>
<time>2024-05-08T14:43:12Z</time>
</trkpt>
<trkpt lat="49.44171516224742" lon="9.165118178352714">
<ele>344.2</ele>
<time>2024-05-08T14:43:13Z</time>
</trkpt>
<trkpt lat="49.44171516224742" lon="9.165189675986769">
<ele>344.2</ele>
<time>2024-05-08T14:43:14Z</time>
</trkpt>
<trkpt lat="49.44171901792288" lon="9.165261257439852">
<ele>344</ele>
<time>2024-05-08T14:43:15Z</time>
</trkpt>
<trkpt lat="49.441722789779305" lon="9.165334682911634">
<ele>344</ele>
<time>2024-05-08T14:43:16Z</time>
</trkpt>
<trkpt lat="49.44172664545477" lon="9.16540525853634">
<ele>344</ele>
<time>2024-05-08T14:43:17Z</time>
</trkpt>
<trkpt lat="49.44173427298665" lon="9.165470050647857">
<ele>343.8</ele>
<time>2024-05-08T14:43:18Z</time>
</trkpt>
<trkpt lat="49.441745756193995" lon="9.165530148893597">
<ele>343.8</ele>
<time>2024-05-08T14:43:19Z</time>
</trkpt>
<trkpt lat="49.44175715558231" lon="9.165584547445178">
<ele>343.8</ele>
<time>2024-05-08T14:43:20Z</time>
</trkpt>
<trkpt lat="49.441768638789654" lon="9.165641712024808">
<ele>343.6</ele>
<time>2024-05-08T14:43:21Z</time>
</trkpt>
<trkpt lat="49.441783893853426" lon="9.165701810270548">
<ele>343.6</ele>
<time>2024-05-08T14:43:22Z</time>
</trkpt>
<trkpt lat="49.4417991489172" lon="9.165753358975053">
<ele>343.6</ele>
<time>2024-05-08T14:43:23Z</time>
</trkpt>
<trkpt lat="49.44181054830551" lon="9.165796274319291">
<ele>343.6</ele>
<time>2024-05-08T14:43:24Z</time>
</trkpt>
<trkpt lat="49.44182965904474" lon="9.165840111672878">
<ele>343.6</ele>
<time>2024-05-08T14:43:25Z</time>
</trkpt>
<trkpt lat="49.4418525416404" lon="9.165891576558352">
<ele>343.4</ele>
<time>2024-05-08T14:43:26Z</time>
</trkpt>
<trkpt lat="49.441879196092486" lon="9.165946897119284">
<ele>343.4</ele>
<time>2024-05-08T14:43:27Z</time>
</trkpt>
<trkpt lat="49.441902078688145" lon="9.16599651798606">
<ele>343.4</ele>
<time>2024-05-08T14:43:28Z</time>
</trkpt>
<trkpt lat="49.441925045102835" lon="9.166043205186725">
<ele>343.4</ele>
<time>2024-05-08T14:43:29Z</time>
</trkpt>
<trkpt lat="49.44194792769849" lon="9.16607664898038">
<ele>343.4</ele>
<time>2024-05-08T14:43:30Z</time>
</trkpt>
<trkpt lat="49.44196695461869" lon="9.16611478663981">
<ele>343.4</ele>
<time>2024-05-08T14:43:31Z</time>
</trkpt>
<trkpt lat="49.44198606535792" lon="9.166146218776705">
<ele>343.4</ele>
<time>2024-05-08T14:43:32Z</time>
</trkpt>
<trkpt lat="49.442001320421696" lon="9.166188212111592">
<ele>343.4</ele>
<time>2024-05-08T14:43:33Z</time>
</trkpt>
<trkpt lat="49.44201657548547" lon="9.166226349771025">
<ele>343.4</ele>
<time>2024-05-08T14:43:34Z</time>
</trkpt>
<trkpt lat="49.4420547131449" lon="9.166254932060838">
<ele>343.4</ele>
<time>2024-05-08T14:43:35Z</time>
</trkpt>
<trkpt lat="49.442100478336215" lon="9.16629122570157">
<ele>343.6</ele>
<time>2024-05-08T14:43:36Z</time>
</trkpt>
<trkpt lat="49.44215009920299" lon="9.166324585676191">
<ele>343.6</ele>
<time>2024-05-08T14:43:37Z</time>
</trkpt>
<trkpt lat="49.44219586439431" lon="9.166355095803738">
<ele>343.6</ele>
<time>2024-05-08T14:43:38Z</time>
</trkpt>
<trkpt lat="49.442237773910165" lon="9.166379906237124">
<ele>343.6</ele>
<time>2024-05-08T14:43:39Z</time>
</trkpt>
<trkpt lat="49.442279767245054" lon="9.166404716670511">
<ele>343.6</ele>
<time>2024-05-08T14:43:40Z</time>
</trkpt>
<trkpt lat="49.442321760579944" lon="9.16642852127552">
<ele>343.6</ele>
<time>2024-05-08T14:43:41Z</time>
</trkpt>
<trkpt lat="49.442356042563915" lon="9.166453331708908">
<ele>343.6</ele>
<time>2024-05-08T14:43:42Z</time>
</trkpt>
<trkpt lat="49.44238655269146" lon="9.166476214304566">
<ele>343.6</ele>
<time>2024-05-08T14:43:43Z</time>
</trkpt>
<trkpt lat="49.44242854602635" lon="9.16650672443211">
<ele>343.6</ele>
<time>2024-05-08T14:43:44Z</time>
</trkpt>
<trkpt lat="49.44245905615389" lon="9.166529607027767">
<ele>343.6</ele>
<time>2024-05-08T14:43:45Z</time>
</trkpt>
<trkpt lat="49.44250104948878" lon="9.16656489484012">
<ele>343.6</ele>
<time>2024-05-08T14:43:46Z</time>
</trkpt>
<trkpt lat="49.44253155961633" lon="9.166589705273507">
<ele>343.6</ele>
<time>2024-05-08T14:43:47Z</time>
</trkpt>
<trkpt lat="49.442573469132185" lon="9.166613509878516">
<ele>343.6</ele>
<time>2024-05-08T14:43:48Z</time>
</trkpt>
<trkpt lat="49.442615462467074" lon="9.166640248149632">
<ele>343.8</ele>
<time>2024-05-08T14:43:49Z</time>
</trkpt>
<trkpt lat="49.44265745580197" lon="9.16666505858302">
<ele>343.8</ele>
<time>2024-05-08T14:43:50Z</time>
</trkpt>
<trkpt lat="49.44269936531782" lon="9.16668794117868">
<ele>343.8</ele>
<time>2024-05-08T14:43:51Z</time>
</trkpt>
<trkpt lat="49.44274135865271" lon="9.166714595630763">
<ele>344</ele>
<time>2024-05-08T14:43:52Z</time>
</trkpt>
<trkpt lat="49.4427833519876" lon="9.166736556217074">
<ele>344</ele>
<time>2024-05-08T14:43:53Z</time>
</trkpt>
<trkpt lat="49.44282911717892" lon="9.166758516803384">
<ele>344</ele>
<time>2024-05-08T14:43:54Z</time>
</trkpt>
<trkpt lat="49.44287488237023" lon="9.166781399399042">
<ele>344</ele>
<time>2024-05-08T14:43:55Z</time>
</trkpt>
<trkpt lat="49.44291679188609" lon="9.166808053851128">
<ele>344</ele>
<time>2024-05-08T14:43:56Z</time>
</trkpt>
<trkpt lat="49.44294738583267" lon="9.166828086599708">
<ele>343.8</ele>
<time>2024-05-08T14:43:57Z</time>
</trkpt>
<trkpt lat="49.44297404028475" lon="9.166841497644782">
<ele>343.8</ele>
<time>2024-05-08T14:43:58Z</time>
</trkpt>
<trkpt lat="49.4430045504123" lon="9.166859602555633">
<ele>343.8</ele>
<time>2024-05-08T14:43:59Z</time>
</trkpt>
<trkpt lat="49.44304654374719" lon="9.166886257007718">
<ele>343.8</ele>
<time>2024-05-08T14:44:00Z</time>
</trkpt>
<trkpt lat="49.44308845326304" lon="9.166914923116565">
<ele>343.6</ele>
<time>2024-05-08T14:44:01Z</time>
</trkpt>
<trkpt lat="49.44314192980528" lon="9.166933028027415">
<ele>343.6</ele>
<time>2024-05-08T14:44:03Z</time>
</trkpt>
<trkpt lat="49.44323346018791" lon="9.166990276426075">
<ele>343.6</ele>
<time>2024-05-08T14:44:04Z</time>
</trkpt>
<trkpt lat="49.44327536970377" lon="9.16701978072524">
<ele>343.6</ele>
<time>2024-05-08T14:44:05Z</time>
</trkpt>
<trkpt lat="49.44330973550677" lon="9.167056996375322">
<ele>343.6</ele>
<time>2024-05-08T14:44:06Z</time>
</trkpt>
<trkpt lat="49.44334024563432" lon="9.167088428512216">
<ele>343.8</ele>
<time>2024-05-08T14:44:07Z</time>
</trkpt>
<trkpt lat="49.44337838329375" lon="9.167106617242098">
<ele>343.8</ele>
<time>2024-05-08T14:44:08Z</time>
</trkpt>
<trkpt lat="49.44340889342129" lon="9.167123716324568">
<ele>343.8</ele>
<time>2024-05-08T14:44:09Z</time>
</trkpt>
<trkpt lat="49.44345088675618" lon="9.16713997721672">
<ele>343.8</ele>
<time>2024-05-08T14:44:10Z</time>
</trkpt>
<trkpt lat="49.4434966519475" lon="9.167156154289842">
<ele>343.8</ele>
<time>2024-05-08T14:44:11Z</time>
</trkpt>
<trkpt lat="49.44353478960693" lon="9.167169565334916">
<ele>343.8</ele>
<time>2024-05-08T14:44:12Z</time>
</trkpt>
<trkpt lat="49.44357678294182" lon="9.167198147624733">
<ele>344</ele>
<time>2024-05-08T14:44:13Z</time>
</trkpt>
<trkpt lat="49.44361492060125" lon="9.167229579761624">
<ele>344</ele>
<time>2024-05-08T14:44:14Z</time>
</trkpt>
<trkpt lat="49.44363780319691" lon="9.167255396023393">
<ele>344</ele>
<time>2024-05-08T14:44:15Z</time>
</trkpt>
<trkpt lat="49.44365691393614" lon="9.167276350781322">
<ele>344</ele>
<time>2024-05-08T14:44:16Z</time>
</trkpt>
<trkpt lat="49.44369119592011" lon="9.167291605845094">
<ele>344</ele>
<time>2024-05-08T14:44:17Z</time>
</trkpt>
<trkpt lat="49.44371407851577" lon="9.167311638593674">
<ele>344.2</ele>
<time>2024-05-08T14:44:18Z</time>
</trkpt>
<trkpt lat="49.44374844431877" lon="9.16735648177564">
<ele>344.2</ele>
<time>2024-05-08T14:44:19Z</time>
</trkpt>
<trkpt lat="49.4437865819782" lon="9.167407024651766">
<ele>344.2</ele>
<time>2024-05-08T14:44:20Z</time>
</trkpt>
<trkpt lat="49.443839974701405" lon="9.167461339384316">
<ele>344.4</ele>
<time>2024-05-08T14:44:21Z</time>
</trkpt>
<trkpt lat="49.44388573989272" lon="9.16751665994525">
<ele>344.6</ele>
<time>2024-05-08T14:44:22Z</time>
</trkpt>
<trkpt lat="49.44392773322761" lon="9.167568124830725">
<ele>344.6</ele>
<time>2024-05-08T14:44:23Z</time>
</trkpt>
<trkpt lat="49.443958243355155" lon="9.16761296801269">
<ele>344.6</ele>
<time>2024-05-08T14:44:24Z</time>
</trkpt>
<trkpt lat="49.44400023669005" lon="9.1676711384207">
<ele>344.4</ele>
<time>2024-05-08T14:44:25Z</time>
</trkpt>
<trkpt lat="49.4440421462059" lon="9.16773316450417">
<ele>344.6</ele>
<time>2024-05-08T14:44:26Z</time>
</trkpt>
<trkpt lat="49.44408791139722" lon="9.167783707380297">
<ele>344.6</ele>
<time>2024-05-08T14:44:27Z</time>
</trkpt>
<trkpt lat="49.44412227720022" lon="9.167828550562264">
<ele>344.6</ele>
<time>2024-05-08T14:44:28Z</time>
</trkpt>
<trkpt lat="49.44414901547134" lon="9.16786853224039">
<ele>344.6</ele>
<time>2024-05-08T14:44:29Z</time>
</trkpt>
<trkpt lat="49.44418715313077" lon="9.167924858629704">
<ele>344.6</ele>
<time>2024-05-08T14:44:30Z</time>
</trkpt>
<trkpt lat="49.444217663258314" lon="9.167973473668098">
<ele>344.6</ele>
<time>2024-05-08T14:44:31Z</time>
</trkpt>
<trkpt lat="49.44425957277417" lon="9.168027872219682">
<ele>344.6</ele>
<time>2024-05-08T14:44:32Z</time>
</trkpt>
<trkpt lat="49.4442977104336" lon="9.168083108961582">
<ele>344.4</ele>
<time>2024-05-08T14:44:33Z</time>
</trkpt>
<trkpt lat="49.444335931912065" lon="9.168134657666087">
<ele>344.4</ele>
<time>2024-05-08T14:44:34Z</time>
</trkpt>
<trkpt lat="49.44436644203961" lon="9.16818805038929">
<ele>344.4</ele>
<time>2024-05-08T14:44:35Z</time>
</trkpt>
<trkpt lat="49.44440072402358" lon="9.168243370950222">
<ele>344.4</ele>
<time>2024-05-08T14:44:36Z</time>
</trkpt>
<trkpt lat="49.44443886168301" lon="9.168299613520505">
<ele>344.2</ele>
<time>2024-05-08T14:44:37Z</time>
</trkpt>
<trkpt lat="49.444469371810555" lon="9.168353006243706">
<ele>344.2</ele>
<time>2024-05-08T14:44:38Z</time>
</trkpt>
<trkpt lat="49.44449996575713" lon="9.168396927416325">
<ele>344.2</ele>
<time>2024-05-08T14:44:39Z</time>
</trkpt>
<trkpt lat="49.4445342477411" lon="9.16844462044537">
<ele>344.2</ele>
<time>2024-05-08T14:44:40Z</time>
</trkpt>
<trkpt lat="49.44456861354411" lon="9.168499941006305">
<ele>344.2</ele>
<time>2024-05-08T14:44:41Z</time>
</trkpt>
<trkpt lat="49.44459526799619" lon="9.168555177748203">
<ele>344.4</ele>
<time>2024-05-08T14:44:42Z</time>
</trkpt>
<trkpt lat="49.44461815059185" lon="9.168609576299788">
<ele>344.4</ele>
<time>2024-05-08T14:44:43Z</time>
</trkpt>
<trkpt lat="49.44464488886297" lon="9.16866296902299">
<ele>344.4</ele>
<time>2024-05-08T14:44:44Z</time>
</trkpt>
<trkpt lat="49.444671627134085" lon="9.16871828958392">
<ele>344.4</ele>
<time>2024-05-08T14:44:45Z</time>
</trkpt>
<trkpt lat="49.444705909118056" lon="9.168773610144854">
<ele>344.4</ele>
<time>2024-05-08T14:44:46Z</time>
</trkpt>
<trkpt lat="49.4447364192456" lon="9.168828008696437">
<ele>344.4</ele>
<time>2024-05-08T14:44:47Z</time>
</trkpt>
<trkpt lat="49.44477455690503" lon="9.16887855157256">
<ele>344.4</ele>
<time>2024-05-08T14:44:48Z</time>
</trkpt>
<trkpt lat="49.444805067032576" lon="9.168925238773229">
<ele>344.4</ele>
<time>2024-05-08T14:44:49Z</time>
</trkpt>
<trkpt lat="49.44483566097915" lon="9.168972931802273">
<ele>344.2</ele>
<time>2024-05-08T14:44:50Z</time>
</trkpt>
<trkpt lat="49.44485854357481" lon="9.169025402516128">
<ele>344</ele>
<time>2024-05-08T14:44:51Z</time>
</trkpt>
<trkpt lat="49.444885198026896" lon="9.1690768674016">
<ele>343.8</ele>
<time>2024-05-08T14:44:52Z</time>
</trkpt>
<trkpt lat="49.44491570815444" lon="9.169128416106105">
<ele>343.8</ele>
<time>2024-05-08T14:44:53Z</time>
</trkpt>
<trkpt lat="49.44495007395744" lon="9.1691770311445">
<ele>343.6</ele>
<time>2024-05-08T14:44:54Z</time>
</trkpt>
<trkpt lat="49.44497672840953" lon="9.16923327371478">
<ele>343.4</ele>
<time>2024-05-08T14:44:55Z</time>
</trkpt>
<trkpt lat="49.445007322356105" lon="9.169286666437984">
<ele>343.4</ele>
<time>2024-05-08T14:44:56Z</time>
</trkpt>
<trkpt lat="49.445045460015535" lon="9.16933628730476">
<ele>343.6</ele>
<time>2024-05-08T14:44:57Z</time>
</trkpt>
<trkpt lat="49.44508736953139" lon="9.169384902343154">
<ele>343.6</ele>
<time>2024-05-08T14:44:58Z</time>
</trkpt>
<trkpt lat="49.4451217353344" lon="9.16943452320993">
<ele>343.8</ele>
<time>2024-05-08T14:44:59Z</time>
</trkpt>
<trkpt lat="49.44515601731837" lon="9.16949168778956">
<ele>343.8</ele>
<time>2024-05-08T14:45:00Z</time>
</trkpt>
<trkpt lat="49.445186611264944" lon="9.169547008350492">
<ele>343.8</ele>
<time>2024-05-08T14:45:01Z</time>
</trkpt>
<trkpt lat="49.44522089324891" lon="9.169603334739804">
<ele>343.8</ele>
<time>2024-05-08T14:45:02Z</time>
</trkpt>
<trkpt lat="49.44525140337646" lon="9.169656727463009">
<ele>343.8</ele>
<time>2024-05-08T14:45:03Z</time>
</trkpt>
<trkpt lat="49.44528576917946" lon="9.16971204802394">
<ele>343.8</ele>
<time>2024-05-08T14:45:04Z</time>
</trkpt>
<trkpt lat="49.445320051163435" lon="9.169765440747142">
<ele>343.8</ele>
<time>2024-05-08T14:45:05Z</time>
</trkpt>
<trkpt lat="49.4453582726419" lon="9.169816905632617">
<ele>343.8</ele>
<time>2024-05-08T14:45:06Z</time>
</trkpt>
<trkpt lat="49.44539255462587" lon="9.16986652649939">
<ele>343.8</ele>
<time>2024-05-08T14:45:07Z</time>
</trkpt>
<trkpt lat="49.4454306922853" lon="9.169913213700056">
<ele>343.8</ele>
<time>2024-05-08T14:45:08Z</time>
</trkpt>
<trkpt lat="49.44546882994473" lon="9.169962834566832">
<ele>343.8</ele>
<time>2024-05-08T14:45:09Z</time>
</trkpt>
<trkpt lat="49.44551082327962" lon="9.17000667192042">
<ele>343.8</ele>
<time>2024-05-08T14:45:10Z</time>
</trkpt>
<trkpt lat="49.44554518908262" lon="9.170048665255308">
<ele>344</ele>
<time>2024-05-08T14:45:11Z</time>
</trkpt>
<trkpt lat="49.44558332674205" lon="9.17008680291474">
<ele>344</ele>
<time>2024-05-08T14:45:12Z</time>
</trkpt>
<trkpt lat="49.44562146440148" lon="9.1701268684119">
<ele>344</ele>
<time>2024-05-08T14:45:13Z</time>
</trkpt>
<trkpt lat="49.44566337391734" lon="9.1701630782336">
<ele>344</ele>
<time>2024-05-08T14:45:14Z</time>
</trkpt>
<trkpt lat="49.4457015953958" lon="9.170198366045952">
<ele>344</ele>
<time>2024-05-08T14:45:15Z</time>
</trkpt>
<trkpt lat="49.445739733055234" lon="9.17024320922792">
<ele>344</ele>
<time>2024-05-08T14:45:16Z</time>
</trkpt>
<trkpt lat="49.445777870714664" lon="9.170291824266316">
<ele>344</ele>
<time>2024-05-08T14:45:17Z</time>
</trkpt>
<trkpt lat="49.445816008374095" lon="9.170334739610553">
<ele>344</ele>
<time>2024-05-08T14:45:18Z</time>
</trkpt>
<trkpt lat="49.44585029035807" lon="9.170376732945442">
<ele>344</ele>
<time>2024-05-08T14:45:19Z</time>
</trkpt>
<trkpt lat="49.44588851183653" lon="9.170416798442602">
<ele>344</ele>
<time>2024-05-08T14:45:20Z</time>
</trkpt>
<trkpt lat="49.4459227938205" lon="9.170454936102033">
<ele>344</ele>
<time>2024-05-08T14:45:21Z</time>
</trkpt>
<trkpt lat="49.44596093147993" lon="9.170499779284">
<ele>344</ele>
<time>2024-05-08T14:45:22Z</time>
</trkpt>
<trkpt lat="49.445995297282934" lon="9.17053984478116">
<ele>344</ele>
<time>2024-05-08T14:45:23Z</time>
</trkpt>
<trkpt lat="49.446033434942365" lon="9.17057798244059">
<ele>344</ele>
<time>2024-05-08T14:45:24Z</time>
</trkpt>
<trkpt lat="49.44606780074537" lon="9.170613270252945">
<ele>344</ele>
<time>2024-05-08T14:45:25Z</time>
</trkpt>
<trkpt lat="49.44610208272934" lon="9.170650402083991">
<ele>344.2</ele>
<time>2024-05-08T14:45:26Z</time>
</trkpt>
<trkpt lat="49.44613644853234" lon="9.170684767886996">
<ele>344.2</ele>
<time>2024-05-08T14:45:27Z</time>
</trkpt>
<trkpt lat="49.44617458619177" lon="9.170722905546429">
<ele>344</ele>
<time>2024-05-08T14:45:28Z</time>
</trkpt>
<trkpt lat="49.44620895199478" lon="9.17075819335878">
<ele>343.8</ele>
<time>2024-05-08T14:45:29Z</time>
</trkpt>
<trkpt lat="49.44624323397875" lon="9.17079540900886">
<ele>343.8</ele>
<time>2024-05-08T14:45:30Z</time>
</trkpt>
<trkpt lat="49.44627374410629" lon="9.170833546668293">
<ele>343.6</ele>
<time>2024-05-08T14:45:31Z</time>
</trkpt>
<trkpt lat="49.446308109909296" lon="9.170871684327722">
<ele>343.6</ele>
<time>2024-05-08T14:45:32Z</time>
</trkpt>
<trkpt lat="49.44633862003684" lon="9.170909821987152">
<ele>343.6</ele>
<time>2024-05-08T14:45:33Z</time>
</trkpt>
<trkpt lat="49.44637675769627" lon="9.170947037637234">
<ele>343.6</ele>
<time>2024-05-08T14:45:34Z</time>
</trkpt>
<trkpt lat="49.4464148953557" lon="9.170983247458937">
<ele>343.6</ele>
<time>2024-05-08T14:45:35Z</time>
</trkpt>
<trkpt lat="49.44645303301513" lon="9.171023312956097">
<ele>343.6</ele>
<time>2024-05-08T14:45:36Z</time>
</trkpt>
<trkpt lat="49.446487398818135" lon="9.171063378453256">
<ele>343.6</ele>
<time>2024-05-08T14:45:37Z</time>
</trkpt>
<trkpt lat="49.446525536477566" lon="9.171105371788144">
<ele>343.6</ele>
<time>2024-05-08T14:45:38Z</time>
</trkpt>
<trkpt lat="49.44656367413699" lon="9.171143509447576">
<ele>343.6</ele>
<time>2024-05-08T14:45:39Z</time>
</trkpt>
<trkpt lat="49.44659418426454" lon="9.171181647107003">
<ele>343.6</ele>
<time>2024-05-08T14:45:40Z</time>
</trkpt>
<trkpt lat="49.446628550067544" lon="9.171223640441896">
<ele>343.6</ele>
<time>2024-05-08T14:45:41Z</time>
</trkpt>
<trkpt lat="49.44666283205152" lon="9.171264627948403">
<ele>343.8</ele>
<time>2024-05-08T14:45:42Z</time>
</trkpt>
<trkpt lat="49.446700969710946" lon="9.17130653746426">
<ele>343.8</ele>
<time>2024-05-08T14:45:43Z</time>
</trkpt>
<trkpt lat="49.446742963045835" lon="9.17135045863688">
<ele>343.8</ele>
<time>2024-05-08T14:45:44Z</time>
</trkpt>
<trkpt lat="49.44678872823715" lon="9.17138666845858">
<ele>343.8</ele>
<time>2024-05-08T14:45:45Z</time>
</trkpt>
<trkpt lat="49.44683449342847" lon="9.17140955105424">
<ele>343.8</ele>
<time>2024-05-08T14:45:46Z</time>
</trkpt>
<trkpt lat="49.4468879699707" lon="9.171421956270931">
<ele>344</ele>
<time>2024-05-08T14:45:47Z</time>
</trkpt>
<trkpt lat="49.44694513455033" lon="9.171422878280282">
<ele>344</ele>
<time>2024-05-08T14:45:48Z</time>
</trkpt>
<trkpt lat="49.44699089974165" lon="9.171435283496976">
<ele>343.8</ele>
<time>2024-05-08T14:45:49Z</time>
</trkpt>
<trkpt lat="49.44703289307654" lon="9.171455316245556">
<ele>343.8</ele>
<time>2024-05-08T14:45:50Z</time>
</trkpt>
<trkpt lat="49.44707103073597" lon="9.171476354822516">
<ele>344</ele>
<time>2024-05-08T14:45:51Z</time>
</trkpt>
<trkpt lat="49.44710539653897" lon="9.171496387571096">
<ele>344</ele>
<time>2024-05-08T14:45:52Z</time>
</trkpt>
<trkpt lat="49.4471435341984" lon="9.171513486653566">
<ele>344.2</ele>
<time>2024-05-08T14:45:53Z</time>
</trkpt>
<trkpt lat="49.44717404432595" lon="9.17152781970799">
<ele>344.2</ele>
<time>2024-05-08T14:45:54Z</time>
</trkpt>
<trkpt lat="49.44720832630992" lon="9.171545002609491">
<ele>344.2</ele>
<time>2024-05-08T14:45:55Z</time>
</trkpt>
<trkpt lat="49.44724654778838" lon="9.171565035358071">
<ele>344.4</ele>
<time>2024-05-08T14:45:57Z</time>
</trkpt>
<trkpt lat="49.44732282310724" lon="9.171606944873927">
<ele>344.6</ele>
<time>2024-05-08T14:45:58Z</time>
</trkpt>
<trkpt lat="49.4473647326231" lon="9.171629827469587">
<ele>344.6</ele>
<time>2024-05-08T14:45:59Z</time>
</trkpt>
<trkpt lat="49.44740672595799" lon="9.171647010371087">
<ele>344.6</ele>
<time>2024-05-08T14:46:00Z</time>
</trkpt>
<trkpt lat="49.44744486361742" lon="9.171660421416163">
<ele>344.8</ele>
<time>2024-05-08T14:46:01Z</time>
</trkpt>
<trkpt lat="49.44749062880874" lon="9.171669892966747">
<ele>344.8</ele>
<time>2024-05-08T14:46:02Z</time>
</trkpt>
<trkpt lat="49.447532622143626" lon="9.171680370345712">
<ele>344.8</ele>
<time>2024-05-08T14:46:03Z</time>
</trkpt>
<trkpt lat="49.44757838733494" lon="9.171689925715327">
<ele>344.8</ele>
<time>2024-05-08T14:46:04Z</time>
</trkpt>
<trkpt lat="49.44762038066983" lon="9.171694703400137">
<ele>344.8</ele>
<time>2024-05-08T14:46:05Z</time>
</trkpt>
<trkpt lat="49.44766614586115" lon="9.171701408922672">
<ele>344.8</ele>
<time>2024-05-08T14:46:06Z</time>
</trkpt>
<trkpt lat="49.44770805537701" lon="9.171703336760402">
<ele>344.8</ele>
<time>2024-05-08T14:46:07Z</time>
</trkpt>
<trkpt lat="49.447753904387355" lon="9.171703336760402">
<ele>344.8</ele>
<time>2024-05-08T14:46:08Z</time>
</trkpt>
<trkpt lat="49.44779966957867" lon="9.171701408922672">
<ele>344.8</ele>
<time>2024-05-08T14:46:09Z</time>
</trkpt>
<trkpt lat="49.44784157909453" lon="9.171701408922672">
<ele>344.8</ele>
<time>2024-05-08T14:46:10Z</time>
</trkpt>
<trkpt lat="49.44787971675396" lon="9.171696631237864">
<ele>344.8</ele>
<time>2024-05-08T14:46:11Z</time>
</trkpt>
<trkpt lat="49.44792171008885" lon="9.171694703400137">
<ele>344.8</ele>
<time>2024-05-08T14:46:12Z</time>
</trkpt>
<trkpt lat="49.44795607589185" lon="9.171696631237864">
<ele>344.6</ele>
<time>2024-05-08T14:46:13Z</time>
</trkpt>
<trkpt lat="49.44799421355128" lon="9.171696631237864">
<ele>344.6</ele>
<time>2024-05-08T14:46:14Z</time>
</trkpt>
<trkpt lat="49.44803612306714" lon="9.171694703400137">
<ele>344.4</ele>
<time>2024-05-08T14:46:15Z</time>
</trkpt>
<trkpt lat="49.44807811640203" lon="9.171693781390786">
<ele>344.4</ele>
<time>2024-05-08T14:46:16Z</time>
</trkpt>
<trkpt lat="49.44812388159335" lon="9.171689925715327">
<ele>344.4</ele>
<time>2024-05-08T14:46:17Z</time>
</trkpt>
<trkpt lat="49.44816587492824" lon="9.171683304011822">
<ele>344.4</ele>
<time>2024-05-08T14:46:18Z</time>
</trkpt>
<trkpt lat="49.44820401258767" lon="9.171674670651557">
<ele>344.4</ele>
<time>2024-05-08T14:46:19Z</time>
</trkpt>
<trkpt lat="49.4482421502471" lon="9.17166804894805">
<ele>344.4</ele>
<time>2024-05-08T14:46:20Z</time>
</trkpt>
<trkpt lat="49.448284143581986" lon="9.171660421416163">
<ele>344.4</ele>
<time>2024-05-08T14:46:21Z</time>
</trkpt>
<trkpt lat="49.4483299087733" lon="9.17164801619947">
<ele>344.2</ele>
<time>2024-05-08T14:46:22Z</time>
</trkpt>
<trkpt lat="49.448364190757275" lon="9.171638460829854">
<ele>344.2</ele>
<time>2024-05-08T14:46:23Z</time>
</trkpt>
<trkpt lat="49.44839855656028" lon="9.17162798345089">
<ele>344.2</ele>
<time>2024-05-08T14:46:24Z</time>
</trkpt>
<trkpt lat="49.44842906668782" lon="9.171614572405815">
<ele>344.2</ele>
<time>2024-05-08T14:46:25Z</time>
</trkpt>
<trkpt lat="49.448463432490826" lon="9.171605100855231">
<ele>344.2</ele>
<time>2024-05-08T14:46:26Z</time>
</trkpt>
<trkpt lat="49.44849008694291" lon="9.171611722558737">
<ele>344.2</ele>
<time>2024-05-08T14:46:27Z</time>
</trkpt>
<trkpt lat="49.44851682521403" lon="9.171634605154397">
<ele>344.2</ele>
<time>2024-05-08T14:46:28Z</time>
</trkpt>
<trkpt lat="49.4485320802778" lon="9.17166804894805">
<ele>344</ele>
<time>2024-05-08T14:46:29Z</time>
</trkpt>
<trkpt lat="49.44855496287346" lon="9.1717051807791">
<ele>344</ele>
<time>2024-05-08T14:46:30Z</time>
</trkpt>
<trkpt lat="49.44857784546912" lon="9.171741474419832">
<ele>343.8</ele>
<time>2024-05-08T14:46:31Z</time>
</trkpt>
<trkpt lat="49.44861598312855" lon="9.171768128871918">
<ele>343.6</ele>
<time>2024-05-08T14:46:32Z</time>
</trkpt>
<trkpt lat="49.44865412078798" lon="9.171779612079265">
<ele>343.6</ele>
<time>2024-05-08T14:46:33Z</time>
</trkpt>
<trkpt lat="49.44868848659098" lon="9.17178531177342">
<ele>343.6</ele>
<time>2024-05-08T14:46:34Z</time>
</trkpt>
<trkpt lat="49.44872276857495" lon="9.171790089458227">
<ele>343.4</ele>
<time>2024-05-08T14:46:35Z</time>
</trkpt>
<trkpt lat="49.44874950684607" lon="9.171794867143037">
<ele>343.4</ele>
<time>2024-05-08T14:46:36Z</time>
</trkpt>
<trkpt lat="49.4487876445055" lon="9.17180148884654">
<ele>343.4</ele>
<time>2024-05-08T14:46:37Z</time>
</trkpt>
<trkpt lat="49.448818154633045" lon="9.171805344522">
<ele>343.4</ele>
<time>2024-05-08T14:46:38Z</time>
</trkpt>
<trkpt lat="49.44885252043605" lon="9.171810122206807">
<ele>343.4</ele>
<time>2024-05-08T14:46:39Z</time>
</trkpt>
<trkpt lat="49.44889065809548" lon="9.171806266531348">
<ele>343.4</ele>
<time>2024-05-08T14:46:40Z</time>
</trkpt>
<trkpt lat="49.44892879575491" lon="9.171805344522">
<ele>343.6</ele>
<time>2024-05-08T14:46:41Z</time>
</trkpt>
<trkpt lat="49.448974560946226" lon="9.171806266531348">
<ele>343.6</ele>
<time>2024-05-08T14:46:42Z</time>
</trkpt>
<trkpt lat="49.44902032613754" lon="9.171814899891617">
<ele>343.6</ele>
<time>2024-05-08T14:46:43Z</time>
</trkpt>
<trkpt lat="49.44906609132886" lon="9.171816743910313">
<ele>343.8</ele>
<time>2024-05-08T14:46:44Z</time>
</trkpt>
<trkpt lat="49.449111856520176" lon="9.17182344943285">
<ele>343.8</ele>
<time>2024-05-08T14:46:45Z</time>
</trkpt>
<trkpt lat="49.449153849855065" lon="9.171828227117658">
<ele>343.6</ele>
<time>2024-05-08T14:46:46Z</time>
</trkpt>
<trkpt lat="49.449191987514496" lon="9.17182537727058">
<ele>343.6</ele>
<time>2024-05-08T14:46:47Z</time>
</trkpt>
<trkpt lat="49.449230125173926" lon="9.171830154955387">
<ele>343.6</ele>
<time>2024-05-08T14:46:48Z</time>
</trkpt>
<trkpt lat="49.44927589036524" lon="9.171836776658893">
<ele>343.6</ele>
<time>2024-05-08T14:46:49Z</time>
</trkpt>
<trkpt lat="49.44931788370013" lon="9.171838704496622">
<ele>343.4</ele>
<time>2024-05-08T14:46:50Z</time>
</trkpt>
<trkpt lat="49.44935987703502" lon="9.17184541001916">
<ele>343.4</ele>
<time>2024-05-08T14:46:51Z</time>
</trkpt>
<trkpt lat="49.44940564222634" lon="9.171850187703969">
<ele>343.4</ele>
<time>2024-05-08T14:46:52Z</time>
</trkpt>
<trkpt lat="49.44945517927408" lon="9.171854965388777">
<ele>343.6</ele>
<time>2024-05-08T14:46:53Z</time>
</trkpt>
<trkpt lat="49.449493400752544" lon="9.17186544276774">
<ele>343.6</ele>
<time>2024-05-08T14:46:54Z</time>
</trkpt>
<trkpt lat="49.449531538411975" lon="9.171866364777088">
<ele>343.6</ele>
<time>2024-05-08T14:46:55Z</time>
</trkpt>
<trkpt lat="49.44956582039595" lon="9.171868292614818">
<ele>343.6</ele>
<time>2024-05-08T14:46:56Z</time>
</trkpt>
<trkpt lat="49.44960018619895" lon="9.171873070299624">
<ele>343.6</ele>
<time>2024-05-08T14:46:57Z</time>
</trkpt>
<trkpt lat="49.44962306879461" lon="9.171878769993782">
<ele>343.6</ele>
<time>2024-05-08T14:46:58Z</time>
</trkpt>
<trkpt lat="49.44966120645404" lon="9.171879692003133">
<ele>343.8</ele>
<time>2024-05-08T14:46:59Z</time>
</trkpt>
<trkpt lat="49.44969171658158" lon="9.171896874904633">
<ele>343.8</ele>
<time>2024-05-08T14:47:00Z</time>
</trkpt>
<trkpt lat="49.4497184548527" lon="9.17192168533802">
<ele>343.8</ele>
<time>2024-05-08T14:47:01Z</time>
</trkpt>
<trkpt lat="49.449745109304786" lon="9.17194364592433">
<ele>343.8</ele>
<time>2024-05-08T14:47:02Z</time>
</trkpt>
<trkpt lat="49.44977561943233" lon="9.171948423609138">
<ele>343.8</ele>
<time>2024-05-08T14:47:03Z</time>
</trkpt>
<trkpt lat="49.44981761276722" lon="9.171950267627835">
<ele>343.8</ele>
<time>2024-05-08T14:47:04Z</time>
</trkpt>
<trkpt lat="49.449863377958536" lon="9.171955045312645">
<ele>343.8</ele>
<time>2024-05-08T14:47:05Z</time>
</trkpt>
<trkpt lat="49.44990914314985" lon="9.17195982299745">
<ele>343.8</ele>
<time>2024-05-08T14:47:06Z</time>
</trkpt>
<trkpt lat="49.449985502287745" lon="9.171950267627835">
<ele>343.8</ele>
<time>2024-05-08T14:47:07Z</time>
</trkpt>
<trkpt lat="49.45003889501095" lon="9.17195982299745">
<ele>344</ele>
<time>2024-05-08T14:47:08Z</time>
</trkpt>
<trkpt lat="49.45009991526604" lon="9.171966528519988">
<ele>344</ele>
<time>2024-05-08T14:47:09Z</time>
</trkpt>
<trkpt lat="49.45015330798924" lon="9.17197985574603">
<ele>344</ele>
<time>2024-05-08T14:47:10Z</time>
</trkpt>
<trkpt lat="49.45021432824433" lon="9.17198371142149">
<ele>343.8</ele>
<time>2024-05-08T14:47:11Z</time>
</trkpt>
<trkpt lat="49.450260093435645" lon="9.171997038647532">
<ele>343.8</ele>
<time>2024-05-08T14:47:12Z</time>
</trkpt>
<trkpt lat="49.45030971430242" lon="9.17202184908092">
<ele>343.8</ele>
<time>2024-05-08T14:47:13Z</time>
</trkpt>
<trkpt lat="49.45036310702562" lon="9.172048503533006">
<ele>343.8</ele>
<time>2024-05-08T14:47:14Z</time>
</trkpt>
<trkpt lat="49.450416499748826" lon="9.172069542109966">
<ele>343.8</ele>
<time>2024-05-08T14:47:15Z</time>
</trkpt>
<trkpt lat="49.4504661206156" lon="9.172091418877244">
<ele>343.8</ele>
<time>2024-05-08T14:47:16Z</time>
</trkpt>
<trkpt lat="49.45050811395049" lon="9.172116229310632">
<ele>343.8</ele>
<time>2024-05-08T14:47:17Z</time>
</trkpt>
<trkpt lat="49.45055002346635" lon="9.172146739438176">
<ele>343.8</ele>
<time>2024-05-08T14:47:18Z</time>
</trkpt>
<trkpt lat="49.45058816112578" lon="9.1721800994128">
<ele>343.6</ele>
<time>2024-05-08T14:47:19Z</time>
</trkpt>
<trkpt lat="49.450633926317096" lon="9.172222092747688">
<ele>343.6</ele>
<time>2024-05-08T14:47:20Z</time>
</trkpt>
<trkpt lat="49.450675919651985" lon="9.172266935929656">
<ele>343.6</ele>
<time>2024-05-08T14:47:21Z</time>
</trkpt>
<trkpt lat="49.450717912986875" lon="9.172307923436165">
<ele>343.6</ele>
<time>2024-05-08T14:47:22Z</time>
</trkpt>
<trkpt lat="49.45075982250273" lon="9.172347066923976">
<ele>343.6</ele>
<time>2024-05-08T14:47:23Z</time>
</trkpt>
<trkpt lat="49.45080181583762" lon="9.172383276745675">
<ele>343.8</ele>
<time>2024-05-08T14:47:24Z</time>
</trkpt>
<trkpt lat="49.450836181640625" lon="9.1724166367203">
<ele>343.8</ele>
<time>2024-05-08T14:47:25Z</time>
</trkpt>
<trkpt lat="49.4508704636246" lon="9.172451924532652">
<ele>344</ele>
<time>2024-05-08T14:47:26Z</time>
</trkpt>
<trkpt lat="49.4509048294276" lon="9.172481512650847">
<ele>344.2</ele>
<time>2024-05-08T14:47:27Z</time>
</trkpt>
<trkpt lat="49.45094673894346" lon="9.172508167102931">
<ele>344.6</ele>
<time>2024-05-08T14:47:28Z</time>
</trkpt>
<trkpt lat="49.45098110474646" lon="9.172541610896587">
<ele>344.6</ele>
<time>2024-05-08T14:47:29Z</time>
</trkpt>
<trkpt lat="49.451015470549464" lon="9.17257689870894">
<ele>344.8</ele>
<time>2024-05-08T14:47:30Z</time>
</trkpt>
<trkpt lat="49.45104975253344" lon="9.172611180692911">
<ele>344.8</ele>
<time>2024-05-08T14:47:31Z</time>
</trkpt>
<trkpt lat="49.451087890192866" lon="9.172644540667534">
<ele>344.8</ele>
<time>2024-05-08T14:47:32Z</time>
</trkpt>
<trkpt lat="49.45112225599587" lon="9.172679828479886">
<ele>345</ele>
<time>2024-05-08T14:47:33Z</time>
</trkpt>
<trkpt lat="49.45115653797984" lon="9.172715116292238">
<ele>345</ele>
<time>2024-05-08T14:47:34Z</time>
</trkpt>
<trkpt lat="49.451190903782845" lon="9.172746632248163">
<ele>345</ele>
<time>2024-05-08T14:47:35Z</time>
</trkpt>
<trkpt lat="49.45122526958585" lon="9.172779992222786">
<ele>345.2</ele>
<time>2024-05-08T14:47:36Z</time>
</trkpt>
<trkpt lat="49.45125955156982" lon="9.172815280035138">
<ele>345.2</ele>
<time>2024-05-08T14:47:37Z</time>
</trkpt>
<trkpt lat="49.45128628984094" lon="9.172844868153334">
<ele>345.2</ele>
<time>2024-05-08T14:47:38Z</time>
</trkpt>
<trkpt lat="49.45131679996848" lon="9.172873450443149">
<ele>345.4</ele>
<time>2024-05-08T14:47:39Z</time>
</trkpt>
<trkpt lat="49.45134345442057" lon="9.172903038561344">
<ele>345.4</ele>
<time>2024-05-08T14:47:40Z</time>
</trkpt>
<trkpt lat="49.45137019269168" lon="9.172926843166351">
<ele>345.6</ele>
<time>2024-05-08T14:47:41Z</time>
</trkpt>
<trkpt lat="49.45140070281923" lon="9.172960203140974">
<ele>345.6</ele>
<time>2024-05-08T14:47:42Z</time>
</trkpt>
<trkpt lat="49.45143121294677" lon="9.173000268638134">
<ele>345.8</ele>
<time>2024-05-08T14:47:43Z</time>
</trkpt>
<trkpt lat="49.45146172307432" lon="9.173038406297565">
<ele>345.8</ele>
<time>2024-05-08T14:47:44Z</time>
</trkpt>
<trkpt lat="49.45149986073375" lon="9.173078471794724">
<ele>346</ele>
<time>2024-05-08T14:47:45Z</time>
</trkpt>
<trkpt lat="49.45153808221221" lon="9.173116609454157">
<ele>346</ele>
<time>2024-05-08T14:47:46Z</time>
</trkpt>
<trkpt lat="49.45157236419618" lon="9.173152903094888">
<ele>346</ele>
<time>2024-05-08T14:47:47Z</time>
</trkpt>
<trkpt lat="49.45161050185561" lon="9.173196740448477">
<ele>346.2</ele>
<time>2024-05-08T14:47:48Z</time>
</trkpt>
<trkpt lat="49.451644867658615" lon="9.173238733783364">
<ele>346.2</ele>
<time>2024-05-08T14:47:49Z</time>
</trkpt>
<trkpt lat="49.45167537778616" lon="9.173274943605064">
<ele>346.4</ele>
<time>2024-05-08T14:47:50Z</time>
</trkpt>
<trkpt lat="49.451705887913704" lon="9.173311153426766">
<ele>346.6</ele>
<time>2024-05-08T14:47:51Z</time>
</trkpt>
<trkpt lat="49.45173639804125" lon="9.173339819535611">
<ele>346.6</ele>
<time>2024-05-08T14:47:52Z</time>
</trkpt>
<trkpt lat="49.45177076384425" lon="9.173371251672506">
<ele>346.8</ele>
<time>2024-05-08T14:47:53Z</time>
</trkpt>
<trkpt lat="49.45180504582822" lon="9.173411317169666">
<ele>347</ele>
<time>2024-05-08T14:47:54Z</time>
</trkpt>
<trkpt lat="49.45183941163123" lon="9.173456160351634">
<ele>347</ele>
<time>2024-05-08T14:47:55Z</time>
</trkpt>
<trkpt lat="49.45186992175877" lon="9.1735028475523">
<ele>347.2</ele>
<time>2024-05-08T14:47:56Z</time>
</trkpt>
<trkpt lat="49.45189666002989" lon="9.173551546409726">
<ele>347.2</ele>
<time>2024-05-08T14:47:57Z</time>
</trkpt>
<trkpt lat="49.45193094201386" lon="9.173595383763312">
<ele>347.2</ele>
<time>2024-05-08T14:47:58Z</time>
</trkpt>
<trkpt lat="49.45196530781686" lon="9.173635449260471">
<ele>347.4</ele>
<time>2024-05-08T14:47:59Z</time>
</trkpt>
<trkpt lat="49.45199581794441" lon="9.173676436766982">
<ele>347.4</ele>
<time>2024-05-08T14:48:00Z</time>
</trkpt>
<trkpt lat="49.452018700540066" lon="9.173716502264142">
<ele>347.4</ele>
<time>2024-05-08T14:48:01Z</time>
</trkpt>
<trkpt lat="49.45204158313573" lon="9.173754639923573">
<ele>347.4</ele>
<time>2024-05-08T14:48:02Z</time>
</trkpt>
<trkpt lat="49.45206446573138" lon="9.173791855573654">
<ele>347.6</ele>
<time>2024-05-08T14:48:03Z</time>
</trkpt>
<trkpt lat="49.45208734832704" lon="9.173829993233085">
<ele>347.6</ele>
<time>2024-05-08T14:48:04Z</time>
</trkpt>
<trkpt lat="49.45212171413005" lon="9.173883385956287">
<ele>347.8</ele>
<time>2024-05-08T14:48:05Z</time>
</trkpt>
<trkpt lat="49.45214836858213" lon="9.173930156975985">
<ele>347.8</ele>
<time>2024-05-08T14:48:06Z</time>
</trkpt>
<trkpt lat="49.45217510685325" lon="9.17397491633892">
<ele>348</ele>
<time>2024-05-08T14:48:07Z</time>
</trkpt>
<trkpt lat="49.452194133773446" lon="9.174013137817385">
<ele>348</ele>
<time>2024-05-08T14:48:08Z</time>
</trkpt>
<trkpt lat="49.452217100188136" lon="9.174053119495513">
<ele>348.2</ele>
<time>2024-05-08T14:48:09Z</time>
</trkpt>
<trkpt lat="49.452239982783794" lon="9.17409704066813">
<ele>348.2</ele>
<time>2024-05-08T14:48:10Z</time>
</trkpt>
<trkpt lat="49.45226286537945" lon="9.17413517832756">
<ele>348.2</ele>
<time>2024-05-08T14:48:11Z</time>
</trkpt>
<trkpt lat="49.45228951983154" lon="9.17419812642038">
<ele>348.2</ele>
<time>2024-05-08T14:48:12Z</time>
</trkpt>
<trkpt lat="49.452316258102655" lon="9.174264846369624">
<ele>348.4</ele>
<time>2024-05-08T14:48:13Z</time>
</trkpt>
<trkpt lat="49.45234291255474" lon="9.1743334941566">
<ele>348.4</ele>
<time>2024-05-08T14:48:14Z</time>
</trkpt>
<trkpt lat="49.4523657951504" lon="9.174383115023376">
<ele>348.6</ele>
<time>2024-05-08T14:48:15Z</time>
</trkpt>
<trkpt lat="49.452396389096975" lon="9.174443213269114">
<ele>348.8</ele>
<time>2024-05-08T14:48:16Z</time>
</trkpt>
<trkpt lat="49.45242304354906" lon="9.17450993321836">
<ele>348.8</ele>
<time>2024-05-08T14:48:17Z</time>
</trkpt>
<trkpt lat="49.45244215428829" lon="9.17457195930183">
<ele>349</ele>
<time>2024-05-08T14:48:18Z</time>
</trkpt>
<trkpt lat="49.45246880874038" lon="9.17463012970984">
<ele>349.2</ele>
<time>2024-05-08T14:48:19Z</time>
</trkpt>
<trkpt lat="49.45249169133603" lon="9.174678744748237">
<ele>349.2</ele>
<time>2024-05-08T14:48:20Z</time>
</trkpt>
<trkpt lat="49.452514573931694" lon="9.17472643777728">
<ele>349.4</ele>
<time>2024-05-08T14:48:21Z</time>
</trkpt>
<trkpt lat="49.45253745652735" lon="9.174783686175942">
<ele>349.4</ele>
<time>2024-05-08T14:48:22Z</time>
</trkpt>
<trkpt lat="49.45255279541016" lon="9.174830373376608">
<ele>349.4</ele>
<time>2024-05-08T14:48:23Z</time>
</trkpt>
<trkpt lat="49.45256042294204" lon="9.174873288720846">
<ele>349.6</ele>
<time>2024-05-08T14:48:24Z</time>
</trkpt>
<trkpt lat="49.452575678005815" lon="9.174926681444049">
<ele>349.8</ele>
<time>2024-05-08T14:48:25Z</time>
</trkpt>
<trkpt lat="49.45259856060147" lon="9.174996335059404">
<ele>349.8</ele>
<time>2024-05-08T14:48:26Z</time>
</trkpt>
<trkpt lat="49.45261758752167" lon="9.175073616206646">
<ele>350</ele>
<time>2024-05-08T14:48:27Z</time>
</trkpt>
<trkpt lat="49.45264047011733" lon="9.175154669210317">
<ele>350</ele>
<time>2024-05-08T14:48:28Z</time>
</trkpt>
<trkpt lat="49.45265958085656" lon="9.175231866538525">
<ele>350.2</ele>
<time>2024-05-08T14:48:29Z</time>
</trkpt>
<trkpt lat="49.452674835920334" lon="9.17530344799161">
<ele>350.2</ele>
<time>2024-05-08T14:48:30Z</time>
</trkpt>
<trkpt lat="49.452690090984106" lon="9.175373017787932">
<ele>350.2</ele>
<time>2024-05-08T14:48:31Z</time>
</trkpt>
<trkpt lat="49.45270149037242" lon="9.175441665574908">
<ele>350.4</ele>
<time>2024-05-08T14:48:32Z</time>
</trkpt>
<trkpt lat="49.45271674543619" lon="9.175510397180917">
<ele>350.4</ele>
<time>2024-05-08T14:48:33Z</time>
</trkpt>
<trkpt lat="49.45272822864354" lon="9.17557803913951">
<ele>350.4</ele>
<time>2024-05-08T14:48:34Z</time>
</trkpt>
<trkpt lat="49.45274348370731" lon="9.175642915070055">
<ele>350.4</ele>
<time>2024-05-08T14:48:35Z</time>
</trkpt>
<trkpt lat="49.452754966914654" lon="9.175708713009952">
<ele>350.4</ele>
<time>2024-05-08T14:48:36Z</time>
</trkpt>
<trkpt lat="49.45276259444654" lon="9.175769733265042">
<ele>350.4</ele>
<time>2024-05-08T14:48:37Z</time>
</trkpt>
<trkpt lat="49.452770221978426" lon="9.175831759348512">
<ele>350.6</ele>
<time>2024-05-08T14:48:38Z</time>
</trkpt>
<trkpt lat="49.45278162136674" lon="9.17589470744133">
<ele>350.8</ele>
<time>2024-05-08T14:48:39Z</time>
</trkpt>
<trkpt lat="49.45279310457408" lon="9.17595480568707">
<ele>350.8</ele>
<time>2024-05-08T14:48:40Z</time>
</trkpt>
<trkpt lat="49.45280073210597" lon="9.176014820113778">
<ele>351</ele>
<time>2024-05-08T14:48:41Z</time>
</trkpt>
<trkpt lat="49.45280835963786" lon="9.176074918359518">
<ele>351.2</ele>
<time>2024-05-08T14:48:42Z</time>
</trkpt>
<trkpt lat="49.45281213149429" lon="9.176136944442987">
<ele>351.2</ele>
<time>2024-05-08T14:48:43Z</time>
</trkpt>
<trkpt lat="49.45281598716974" lon="9.176199892535806">
<ele>351.4</ele>
<time>2024-05-08T14:48:44Z</time>
</trkpt>
<trkpt lat="49.45281975902617" lon="9.176266612485051">
<ele>351.4</ele>
<time>2024-05-08T14:48:45Z</time>
</trkpt>
<trkpt lat="49.45281598716974" lon="9.176322855055332">
<ele>351.4</ele>
<time>2024-05-08T14:48:46Z</time>
</trkpt>
<trkpt lat="49.45281598716974" lon="9.176380103453994">
<ele>351.6</ele>
<time>2024-05-08T14:48:47Z</time>
</trkpt>
<trkpt lat="49.45281213149429" lon="9.176435424014926">
<ele>351.6</ele>
<time>2024-05-08T14:48:48Z</time>
</trkpt>
<trkpt lat="49.45281598716974" lon="9.176496444270017">
<ele>351.8</ele>
<time>2024-05-08T14:48:49Z</time>
</trkpt>
<trkpt lat="49.45281598716974" lon="9.176556542515756">
<ele>351.8</ele>
<time>2024-05-08T14:48:50Z</time>
</trkpt>
<trkpt lat="49.45281975902617" lon="9.176616640761496">
<ele>352</ele>
<time>2024-05-08T14:48:51Z</time>
</trkpt>
<trkpt lat="49.45281975902617" lon="9.176672883331776">
<ele>352.2</ele>
<time>2024-05-08T14:48:52Z</time>
</trkpt>
<trkpt lat="49.45282361470163" lon="9.176728203892708">
<ele>352.2</ele>
<time>2024-05-08T14:48:53Z</time>
</trkpt>
<trkpt lat="49.452827386558056" lon="9.17678159661591">
<ele>352.4</ele>
<time>2024-05-08T14:48:54Z</time>
</trkpt>
<trkpt lat="49.452827386558056" lon="9.176834989339111">
<ele>352.4</ele>
<time>2024-05-08T14:48:55Z</time>
</trkpt>
<trkpt lat="49.45282361470163" lon="9.176888465881348">
<ele>352.4</ele>
<time>2024-05-08T14:48:56Z</time>
</trkpt>
<trkpt lat="49.45281975902617" lon="9.176937080919744">
<ele>352.6</ele>
<time>2024-05-08T14:48:57Z</time>
</trkpt>
<trkpt lat="49.45281598716974" lon="9.17698284611106">
<ele>352.6</ele>
<time>2024-05-08T14:48:58Z</time>
</trkpt>
<trkpt lat="49.45281213149429" lon="9.177031461149454">
<ele>352.6</ele>
<time>2024-05-08T14:48:59Z</time>
</trkpt>
<trkpt lat="49.45281598716974" lon="9.177078232169151">
<ele>352.6</ele>
<time>2024-05-08T14:49:00Z</time>
</trkpt>
<trkpt lat="49.45280835963786" lon="9.177129697054625">
<ele>352.8</ele>
<time>2024-05-08T14:49:01Z</time>
</trkpt>
<trkpt lat="49.45279687643051" lon="9.177191723138094">
<ele>353</ele>
<time>2024-05-08T14:49:02Z</time>
</trkpt>
<trkpt lat="49.452789248898625" lon="9.177254671230912">
<ele>353</ele>
<time>2024-05-08T14:49:03Z</time>
</trkpt>
<trkpt lat="49.45277399383485" lon="9.177325246855617">
<ele>353</ele>
<time>2024-05-08T14:49:04Z</time>
</trkpt>
<trkpt lat="49.45275873877108" lon="9.177392888814213">
<ele>353.2</ele>
<time>2024-05-08T14:49:05Z</time>
</trkpt>
<trkpt lat="49.45274348370731" lon="9.177448209375145">
<ele>353.2</ele>
<time>2024-05-08T14:49:06Z</time>
</trkpt>
<trkpt lat="49.45272822864354" lon="9.177499758079648">
<ele>353.4</ele>
<time>2024-05-08T14:49:07Z</time>
</trkpt>
<trkpt lat="49.45271297357976" lon="9.17755315080285">
<ele>353.4</ele>
<time>2024-05-08T14:49:08Z</time>
</trkpt>
<trkpt lat="49.45270149037242" lon="9.177601765841246">
<ele>353.6</ele>
<time>2024-05-08T14:49:09Z</time>
</trkpt>
<trkpt lat="49.452690090984106" lon="9.177655158564448">
<ele>353.6</ele>
<time>2024-05-08T14:49:10Z</time>
</trkpt>
<trkpt lat="49.452674835920334" lon="9.177702851593494">
<ele>353.6</ele>
<time>2024-05-08T14:49:11Z</time>
</trkpt>
<trkpt lat="49.45266335271299" lon="9.177760099992156">
<ele>353.6</ele>
<time>2024-05-08T14:49:12Z</time>
</trkpt>
<trkpt lat="49.45265958085656" lon="9.177822042256594">
<ele>353.8</ele>
<time>2024-05-08T14:49:13Z</time>
</trkpt>
<trkpt lat="49.45266335271299" lon="9.17788784019649">
<ele>353.8</ele>
<time>2024-05-08T14:49:14Z</time>
</trkpt>
<trkpt lat="49.4526557251811" lon="9.177953638136389">
<ele>354</ele>
<time>2024-05-08T14:49:15Z</time>
</trkpt>
<trkpt lat="49.45265195332467" lon="9.178021363914011">
<ele>354</ele>
<time>2024-05-08T14:49:16Z</time>
</trkpt>
<trkpt lat="49.45264047011733" lon="9.17809009552002">
<ele>354.2</ele>
<time>2024-05-08T14:49:17Z</time>
</trkpt>
<trkpt lat="49.45262907072902" lon="9.1781463380903">
<ele>354.2</ele>
<time>2024-05-08T14:49:18Z</time>
</trkpt>
<trkpt lat="49.45262144319713" lon="9.178217835724354">
<ele>354.4</ele>
<time>2024-05-08T14:49:19Z</time>
</trkpt>
<trkpt lat="49.452609959989786" lon="9.178291261196136">
<ele>354.4</ele>
<time>2024-05-08T14:49:20Z</time>
</trkpt>
<trkpt lat="49.4526023324579" lon="9.178350437432528">
<ele>354.6</ele>
<time>2024-05-08T14:49:21Z</time>
</trkpt>
<trkpt lat="49.45259093306959" lon="9.17840475216508">
<ele>354.6</ele>
<time>2024-05-08T14:49:22Z</time>
</trkpt>
<trkpt lat="49.4525833055377" lon="9.17846200056374">
<ele>354.8</ele>
<time>2024-05-08T14:49:23Z</time>
</trkpt>
<trkpt lat="49.45257182233035" lon="9.178515393286943">
<ele>355</ele>
<time>2024-05-08T14:49:24Z</time>
</trkpt>
<trkpt lat="49.45256042294204" lon="9.178587896749375">
<ele>355.2</ele>
<time>2024-05-08T14:49:25Z</time>
</trkpt>
<trkpt lat="49.45255279541016" lon="9.178656544536352">
<ele>355.2</ele>
<time>2024-05-08T14:49:27Z</time>
</trkpt>
<trkpt lat="49.45252605713904" lon="9.178803395479918">
<ele>355.4</ele>
<time>2024-05-08T14:49:28Z</time>
</trkpt>
<trkpt lat="49.452514573931694" lon="9.178872043266892">
<ele>355.6</ele>
<time>2024-05-08T14:49:29Z</time>
</trkpt>
<trkpt lat="49.45250317454338" lon="9.178943624719976">
<ele>355.6</ele>
<time>2024-05-08T14:49:30Z</time>
</trkpt>
<trkpt lat="49.45249169133603" lon="9.17901512235403">
<ele>355.6</ele>
<time>2024-05-08T14:49:31Z</time>
</trkpt>
<trkpt lat="49.45248029194772" lon="9.179079998284578">
<ele>355.6</ele>
<time>2024-05-08T14:49:32Z</time>
</trkpt>
<trkpt lat="49.45246503688395" lon="9.179149568080902">
<ele>355.6</ele>
<time>2024-05-08T14:49:33Z</time>
</trkpt>
<trkpt lat="49.452453553676605" lon="9.179211594164371">
<ele>355.8</ele>
<time>2024-05-08T14:49:34Z</time>
</trkpt>
<trkpt lat="49.45244215428829" lon="9.179278314113615">
<ele>355.8</ele>
<time>2024-05-08T14:49:35Z</time>
</trkpt>
<trkpt lat="49.45243067108095" lon="9.179347967728972">
<ele>355.8</ele>
<time>2024-05-08T14:49:36Z</time>
</trkpt>
<trkpt lat="49.45242304354906" lon="9.179414687678218">
<ele>355.8</ele>
<time>2024-05-08T14:49:37Z</time>
</trkpt>
<trkpt lat="49.45241164416075" lon="9.179476713761687">
<ele>355.8</ele>
<time>2024-05-08T14:49:38Z</time>
</trkpt>
<trkpt lat="49.45240401662886" lon="9.179538656026123">
<ele>355.8</ele>
<time>2024-05-08T14:49:39Z</time>
</trkpt>
<trkpt lat="49.45239253342152" lon="9.179599760100244">
<ele>356</ele>
<time>2024-05-08T14:49:40Z</time>
</trkpt>
<trkpt lat="49.45238490588963" lon="9.179657930508256">
<ele>356.2</ele>
<time>2024-05-08T14:49:41Z</time>
</trkpt>
<trkpt lat="49.452373422682285" lon="9.179721800610425">
<ele>356.2</ele>
<time>2024-05-08T14:49:42Z</time>
</trkpt>
<trkpt lat="49.45235816761851" lon="9.179781898856165">
<ele>356.4</ele>
<time>2024-05-08T14:49:43Z</time>
</trkpt>
<trkpt lat="49.4523467682302" lon="9.179840069264174">
<ele>356.4</ele>
<time>2024-05-08T14:49:44Z</time>
</trkpt>
<trkpt lat="49.45232765749097" lon="9.179889606311916">
<ele>356.6</ele>
<time>2024-05-08T14:49:45Z</time>
</trkpt>
<trkpt lat="49.4523124024272" lon="9.179940149188042">
<ele>356.8</ele>
<time>2024-05-08T14:49:46Z</time>
</trkpt>
<trkpt lat="49.452297147363424" lon="9.179998319596052">
<ele>356.8</ele>
<time>2024-05-08T14:49:47Z</time>
</trkpt>
<trkpt lat="49.45228951983154" lon="9.180049868300555">
<ele>357</ele>
<time>2024-05-08T14:49:48Z</time>
</trkpt>
<trkpt lat="49.45228574797511" lon="9.180096555501224">
<ele>357</ele>
<time>2024-05-08T14:49:49Z</time>
</trkpt>
<trkpt lat="49.45228189229965" lon="9.18014332652092">
<ele>357.2</ele>
<time>2024-05-08T14:49:50Z</time>
</trkpt>
<trkpt lat="49.452274264767766" lon="9.180194791406391">
<ele>357.2</ele>
<time>2024-05-08T14:49:51Z</time>
</trkpt>
<trkpt lat="49.45226663723588" lon="9.180252961814404">
<ele>357.2</ele>
<time>2024-05-08T14:49:52Z</time>
</trkpt>
<trkpt lat="49.452259009703994" lon="9.180308282375336">
<ele>357.2</ele>
<time>2024-05-08T14:49:53Z</time>
</trkpt>
<trkpt lat="49.45225138217211" lon="9.18035689741373">
<ele>357.2</ele>
<time>2024-05-08T14:49:54Z</time>
</trkpt>
<trkpt lat="49.45224375464022" lon="9.180403668433428">
<ele>357.4</ele>
<time>2024-05-08T14:49:55Z</time>
</trkpt>
<trkpt lat="49.452239982783794" lon="9.180446583777666">
<ele>357.4</ele>
<time>2024-05-08T14:49:56Z</time>
</trkpt>
<trkpt lat="49.452236127108335" lon="9.180486649274826">
<ele>357.4</ele>
<time>2024-05-08T14:49:57Z</time>
</trkpt>
<trkpt lat="49.45222849957645" lon="9.180522859096529">
<ele>357.6</ele>
<time>2024-05-08T14:49:58Z</time>
</trkpt>
<trkpt lat="49.45222472772002" lon="9.180553369224072">
<ele>357.6</ele>
<time>2024-05-08T14:49:59Z</time>
</trkpt>
<trkpt lat="49.45222087204456" lon="9.180582957342269">
<ele>357.6</ele>
<time>2024-05-08T14:50:00Z</time>
</trkpt>
<trkpt lat="49.452217100188136" lon="9.180609695613384">
<ele>357.6</ele>
<time>2024-05-08T14:50:01Z</time>
</trkpt>
<trkpt lat="49.45221324451268" lon="9.18063635006547">
<ele>357.6</ele>
<time>2024-05-08T14:50:02Z</time>
</trkpt>
<trkpt lat="49.45221324451268" lon="9.180663088336589">
<ele>357.6</ele>
<time>2024-05-08T14:50:03Z</time>
</trkpt>
<trkpt lat="49.45221324451268" lon="9.180689742788672">
<ele>357.8</ele>
<time>2024-05-08T14:50:04Z</time>
</trkpt>
<trkpt lat="49.45221324451268" lon="9.18071455322206">
<ele>357.8</ele>
<time>2024-05-08T14:50:05Z</time>
</trkpt>
<trkpt lat="49.45220947265625" lon="9.18073651380837">
<ele>357.8</ele>
<time>2024-05-08T14:50:06Z</time>
</trkpt>
<trkpt lat="49.45220561698079" lon="9.180753696709871">
<ele>357.8</ele>
<time>2024-05-08T14:50:07Z</time>
</trkpt>
<trkpt lat="49.45220176130533" lon="9.180761324241756">
<ele>357.8</ele>
<time>2024-05-08T14:50:08Z</time>
</trkpt>
<trkpt lat="49.45220176130533" lon="9.180767945945265">
<ele>357.8</ele>
<time>2024-05-08T14:50:09Z</time>
</trkpt>
<trkpt lat="49.45220176130533" lon="9.18077657930553">
<ele>357.8</ele>
<time>2024-05-08T14:50:10Z</time>
</trkpt>
<trkpt lat="49.45220176130533" lon="9.180787978693845">
<ele>357.8</ele>
<time>2024-05-08T14:50:11Z</time>
</trkpt>
<trkpt lat="49.452197989448905" lon="9.180798456072807">
<ele>357.8</ele>
<time>2024-05-08T14:50:12Z</time>
</trkpt>
<trkpt lat="49.452197989448905" lon="9.18081371113658">
<ele>357.8</ele>
<time>2024-05-08T14:50:13Z</time>
</trkpt>
<trkpt lat="49.452194133773446" lon="9.18083667755127">
<ele>357.6</ele>
<time>2024-05-08T14:50:14Z</time>
</trkpt>
<trkpt lat="49.45218650624156" lon="9.180903397500517">
<ele>357.6</ele>
<time>2024-05-08T14:50:16Z</time>
</trkpt>
<trkpt lat="49.452178878709674" lon="9.180948240682484">
<ele>357.6</ele>
<time>2024-05-08T14:50:17Z</time>
</trkpt>
<trkpt lat="49.45217510685325" lon="9.180996855720878">
<ele>357.6</ele>
<time>2024-05-08T14:50:18Z</time>
</trkpt>
<trkpt lat="49.45216747932136" lon="9.181044548749924">
<ele>357.6</ele>
<time>2024-05-08T14:50:19Z</time>
</trkpt>
<trkpt lat="49.452155996114016" lon="9.18114655651152">
<ele>357.6</ele>
<time>2024-05-08T14:50:21Z</time>
</trkpt>
<trkpt lat="49.45214836858213" lon="9.18120665475726">
<ele>357.6</ele>
<time>2024-05-08T14:50:22Z</time>
</trkpt>
<trkpt lat="49.4521445967257" lon="9.18126868084073">
<ele>357.6</ele>
<time>2024-05-08T14:50:23Z</time>
</trkpt>
<trkpt lat="49.45212934166193" lon="9.181443192064762">
<ele>357.6</ele>
<time>2024-05-08T14:50:26Z</time>
</trkpt>
<trkpt lat="49.45212934166193" lon="9.181500356644392">
<ele>357.6</ele>
<time>2024-05-08T14:50:27Z</time>
</trkpt>
<trkpt lat="49.45212548598647" lon="9.181554755195975">
<ele>357.6</ele>
<time>2024-05-08T14:50:28Z</time>
</trkpt>
<trkpt lat="49.45212548598647" lon="9.1816052980721">
<ele>357.6</ele>
<time>2024-05-08T14:50:29Z</time>
</trkpt>
<trkpt lat="49.45212171413005" lon="9.181716861203313">
<ele>357.6</ele>
<time>2024-05-08T14:50:31Z</time>
</trkpt>
<trkpt lat="49.45212171413005" lon="9.181775031611323">
<ele>357.6</ele>
<time>2024-05-08T14:50:32Z</time>
</trkpt>
<trkpt lat="49.45212171413005" lon="9.181837057694793">
<ele>357.8</ele>
<time>2024-05-08T14:50:33Z</time>
</trkpt>
<trkpt lat="49.452117858454585" lon="9.181896150112152">
<ele>357.8</ele>
<time>2024-05-08T14:50:34Z</time>
</trkpt>
<trkpt lat="49.452117858454585" lon="9.181956248357892">
<ele>358</ele>
<time>2024-05-08T14:50:35Z</time>
</trkpt>
<trkpt lat="49.45211408659816" lon="9.182016346603632">
<ele>358</ele>
<time>2024-05-08T14:50:36Z</time>
</trkpt>
<trkpt lat="49.4521102309227" lon="9.182073511183262">
<ele>358.2</ele>
<time>2024-05-08T14:50:38Z</time>
</trkpt>
<trkpt lat="49.4521102309227" lon="9.182125059887769">
<ele>358.2</ele>
<time>2024-05-08T14:50:39Z</time>
</trkpt>
<trkpt lat="49.45211408659816" lon="9.182223295792936">
<ele>358.4</ele>
<time>2024-05-08T14:50:40Z</time>
</trkpt>
<trkpt lat="49.4521102309227" lon="9.182268138974903">
<ele>358.4</ele>
<time>2024-05-08T14:50:41Z</time>
</trkpt>
<trkpt lat="49.45210645906627" lon="9.1823167540133">
<ele>358.4</ele>
<time>2024-05-08T14:50:42Z</time>
</trkpt>
<trkpt lat="49.45210645906627" lon="9.182370146736504">
<ele>358.4</ele>
<time>2024-05-08T14:50:43Z</time>
</trkpt>
<trkpt lat="49.45210645906627" lon="9.182430244982244">
<ele>358.6</ele>
<time>2024-05-08T14:50:44Z</time>
</trkpt>
<trkpt lat="49.45210645906627" lon="9.182491265237331">
<ele>358.6</ele>
<time>2024-05-08T14:50:45Z</time>
</trkpt>
<trkpt lat="49.45210260339081" lon="9.1825532913208">
<ele>358.6</ele>
<time>2024-05-08T14:50:47Z</time>
</trkpt>
<trkpt lat="49.452098831534386" lon="9.182669632136822">
<ele>358.6</ele>
<time>2024-05-08T14:50:48Z</time>
</trkpt>
<trkpt lat="49.452098831534386" lon="9.18272872455418">
<ele>358.6</ele>
<time>2024-05-08T14:50:49Z</time>
</trkpt>
<trkpt lat="49.45209497585893" lon="9.18278781697154">
<ele>358.6</ele>
<time>2024-05-08T14:50:50Z</time>
</trkpt>
<trkpt lat="49.45209497585893" lon="9.18284984305501">
<ele>358.8</ele>
<time>2024-05-08T14:50:51Z</time>
</trkpt>
<trkpt lat="49.45209497585893" lon="9.18291186913848">
<ele>359</ele>
<time>2024-05-08T14:50:52Z</time>
</trkpt>
<trkpt lat="49.45209497585893" lon="9.182972889393568">
<ele>359.2</ele>
<time>2024-05-08T14:50:53Z</time>
</trkpt>
<trkpt lat="49.45209497585893" lon="9.183034831658006">
<ele>359.2</ele>
<time>2024-05-08T14:50:54Z</time>
</trkpt>
<trkpt lat="49.45209497585893" lon="9.183098785579205">
<ele>359.4</ele>
<time>2024-05-08T14:50:56Z</time>
</trkpt>
<trkpt lat="49.4520912040025" lon="9.18322367593646">
<ele>359.6</ele>
<time>2024-05-08T14:50:57Z</time>
</trkpt>
<trkpt lat="49.45209497585893" lon="9.18328469619155">
<ele>359.8</ele>
<time>2024-05-08T14:50:58Z</time>
</trkpt>
<trkpt lat="49.45209497585893" lon="9.18334672227502">
<ele>359.8</ele>
<time>2024-05-08T14:50:59Z</time>
</trkpt>
<trkpt lat="49.45209497585893" lon="9.183408664539456">
<ele>360</ele>
<time>2024-05-08T14:51:00Z</time>
</trkpt>
<trkpt lat="49.45209497585893" lon="9.183467840775847">
<ele>360</ele>
<time>2024-05-08T14:51:01Z</time>
</trkpt>
<trkpt lat="49.452098831534386" lon="9.183529783040283">
<ele>360</ele>
<time>2024-05-08T14:51:02Z</time>
</trkpt>
<trkpt lat="49.45210260339081" lon="9.183589881286023">
<ele>360.2</ele>
<time>2024-05-08T14:51:03Z</time>
</trkpt>
<trkpt lat="49.45210260339081" lon="9.183651907369494">
<ele>360.2</ele>
<time>2024-05-08T14:51:04Z</time>
</trkpt>
<trkpt lat="49.45210645906627" lon="9.183712005615234">
<ele>360.4</ele>
<time>2024-05-08T14:51:06Z</time>
</trkpt>
<trkpt lat="49.45210645906627" lon="9.18381879106164">
<ele>360.4</ele>
<time>2024-05-08T14:51:07Z</time>
</trkpt>
<trkpt lat="49.45210645906627" lon="9.183868328109384">
<ele>360.6</ele>
<time>2024-05-08T14:51:08Z</time>
</trkpt>
<trkpt lat="49.45210645906627" lon="9.183913171291351">
<ele>360.6</ele>
<time>2024-05-08T14:51:09Z</time>
</trkpt>
<trkpt lat="49.45211408659816" lon="9.18395801447332">
<ele>360.6</ele>
<time>2024-05-08T14:51:10Z</time>
</trkpt>
<trkpt lat="49.45212934166193" lon="9.18399615213275">
<ele>360.6</ele>
<time>2024-05-08T14:51:11Z</time>
</trkpt>
<trkpt lat="49.452155996114016" lon="9.18401811271906">
<ele>360.6</ele>
<time>2024-05-08T14:51:12Z</time>
</trkpt>
<trkpt lat="49.45218273438513" lon="9.184033367782831">
<ele>360.6</ele>
<time>2024-05-08T14:51:13Z</time>
</trkpt>
<trkpt lat="49.45220947265625" lon="9.184051472693682">
<ele>360.6</ele>
<time>2024-05-08T14:51:14Z</time>
</trkpt>
<trkpt lat="49.45223235525191" lon="9.184080054983497">
<ele>360.6</ele>
<time>2024-05-08T14:51:15Z</time>
</trkpt>
<trkpt lat="49.45225138217211" lon="9.184124898165464">
<ele>360.6</ele>
<time>2024-05-08T14:51:16Z</time>
</trkpt>
<trkpt lat="49.452259009703994" lon="9.18417351320386">
<ele>360.6</ele>
<time>2024-05-08T14:51:17Z</time>
</trkpt>
<trkpt lat="49.45226663723588" lon="9.184225061908364">
<ele>360.6</ele>
<time>2024-05-08T14:51:18Z</time>
</trkpt>
<trkpt lat="49.45226663723588" lon="9.184274598956108">
<ele>360.8</ele>
<time>2024-05-08T14:51:19Z</time>
</trkpt>
<trkpt lat="49.45226663723588" lon="9.184328075498344">
<ele>360.8</ele>
<time>2024-05-08T14:51:20Z</time>
</trkpt>
<trkpt lat="49.45226663723588" lon="9.184381468221543">
<ele>361</ele>
<time>2024-05-08T14:51:21Z</time>
</trkpt>
<trkpt lat="49.45226663723588" lon="9.184432933107018">
<ele>361</ele>
<time>2024-05-08T14:51:22Z</time>
</trkpt>
<trkpt lat="49.45226663723588" lon="9.18448825366795">
<ele>361</ele>
<time>2024-05-08T14:51:23Z</time>
</trkpt>
<trkpt lat="49.45226663723588" lon="9.184543574228885">
<ele>361.2</ele>
<time>2024-05-08T14:51:24Z</time>
</trkpt>
<trkpt lat="49.45226663723588" lon="9.184596966952084">
<ele>361.2</ele>
<time>2024-05-08T14:51:25Z</time>
</trkpt>
<trkpt lat="49.45227049291134" lon="9.184651365503669">
<ele>361.2</ele>
<time>2024-05-08T14:51:27Z</time>
</trkpt>
<trkpt lat="49.45227049291134" lon="9.1847619228065">
<ele>361.4</ele>
<time>2024-05-08T14:51:28Z</time>
</trkpt>
<trkpt lat="49.45227049291134" lon="9.184815399348736">
<ele>361.6</ele>
<time>2024-05-08T14:51:29Z</time>
</trkpt>
<trkpt lat="49.45227049291134" lon="9.184869714081287">
<ele>361.8</ele>
<time>2024-05-08T14:51:30Z</time>
</trkpt>
<trkpt lat="49.45227049291134" lon="9.184921262785792">
<ele>361.8</ele>
<time>2024-05-08T14:51:31Z</time>
</trkpt>
<trkpt lat="49.45227049291134" lon="9.184973649680614">
<ele>362</ele>
<time>2024-05-08T14:51:32Z</time>
</trkpt>
<trkpt lat="49.45227049291134" lon="9.18502134270966">
<ele>362.2</ele>
<time>2024-05-08T14:51:33Z</time>
</trkpt>
<trkpt lat="49.452274264767766" lon="9.185071885585783">
<ele>362.4</ele>
<time>2024-05-08T14:51:34Z</time>
</trkpt>
<trkpt lat="49.452278120443225" lon="9.185119578614833">
<ele>362.6</ele>
<time>2024-05-08T14:51:35Z</time>
</trkpt>
<trkpt lat="49.45228574797511" lon="9.185165343806148">
<ele>362.8</ele>
<time>2024-05-08T14:51:36Z</time>
</trkpt>
<trkpt lat="49.452297147363424" lon="9.185208259150386">
<ele>363</ele>
<time>2024-05-08T14:51:37Z</time>
</trkpt>
<trkpt lat="49.4523124024272" lon="9.185248324647546">
<ele>363.2</ele>
<time>2024-05-08T14:51:38Z</time>
</trkpt>
<trkpt lat="49.45232765749097" lon="9.185284534469249">
<ele>363.4</ele>
<time>2024-05-08T14:51:39Z</time>
</trkpt>
<trkpt lat="49.4523467682302" lon="9.18531697243452">
<ele>363.4</ele>
<time>2024-05-08T14:51:40Z</time>
</trkpt>
<trkpt lat="49.45236965082586" lon="9.185343710705638">
<ele>363.6</ele>
<time>2024-05-08T14:51:41Z</time>
</trkpt>
<trkpt lat="49.45239253342152" lon="9.185368521139026">
<ele>363.6</ele>
<time>2024-05-08T14:51:42Z</time>
</trkpt>
<trkpt lat="49.452419271692634" lon="9.185383776202798">
<ele>363.8</ele>
<time>2024-05-08T14:51:43Z</time>
</trkpt>
<trkpt lat="49.45244592614472" lon="9.185390397906303">
<ele>363.8</ele>
<time>2024-05-08T14:51:44Z</time>
</trkpt>
<trkpt lat="49.45247643627226" lon="9.185388553887606">
<ele>364</ele>
<time>2024-05-08T14:51:45Z</time>
</trkpt>
<trkpt lat="49.45250694639981" lon="9.185384698212149">
<ele>364.2</ele>
<time>2024-05-08T14:51:46Z</time>
</trkpt>
<trkpt lat="49.452533684670925" lon="9.185368521139026">
<ele>364.4</ele>
<time>2024-05-08T14:51:47Z</time>
</trkpt>
<trkpt lat="49.45256042294204" lon="9.185341782867908">
<ele>364.6</ele>
<time>2024-05-08T14:51:48Z</time>
</trkpt>
<trkpt lat="49.4525833055377" lon="9.185303645208478">
<ele>364.8</ele>
<time>2024-05-08T14:51:49Z</time>
</trkpt>
<trkpt lat="49.45260618813336" lon="9.185271207243204">
<ele>364.8</ele>
<time>2024-05-08T14:51:50Z</time>
</trkpt>
<trkpt lat="49.45262521505356" lon="9.18523784726858">
<ele>365</ele>
<time>2024-05-08T14:51:51Z</time>
</trkpt>
<trkpt lat="49.45264432579279" lon="9.185203481465578">
<ele>365.2</ele>
<time>2024-05-08T14:51:52Z</time>
</trkpt>
<trkpt lat="49.45266335271299" lon="9.185168193653226">
<ele>365.4</ele>
<time>2024-05-08T14:51:53Z</time>
</trkpt>
<trkpt lat="49.452674835920334" lon="9.18512150645256">
<ele>365.6</ele>
<time>2024-05-08T14:51:54Z</time>
</trkpt>
<trkpt lat="49.452690090984106" lon="9.1850814409554">
<ele>365.8</ele>
<time>2024-05-08T14:51:55Z</time>
</trkpt>
<trkpt lat="49.45270149037242" lon="9.185039447620513">
<ele>366</ele>
<time>2024-05-08T14:51:56Z</time>
</trkpt>
<trkpt lat="49.45271674543619" lon="9.185000387951732">
<ele>366.2</ele>
<time>2024-05-08T14:51:57Z</time>
</trkpt>
<trkpt lat="49.452732084318995" lon="9.184956550598145">
<ele>366.4</ele>
<time>2024-05-08T14:51:58Z</time>
</trkpt>
<trkpt lat="49.45274733938277" lon="9.184916485100985">
<ele>366.6</ele>
<time>2024-05-08T14:51:59Z</time>
</trkpt>
<trkpt lat="49.45276636630297" lon="9.184878347441554">
<ele>366.8</ele>
<time>2024-05-08T14:52:00Z</time>
</trkpt>
<trkpt lat="49.45278162136674" lon="9.184840125963092">
<ele>367</ele>
<time>2024-05-08T14:52:02Z</time>
</trkpt>
<trkpt lat="49.45279687643051" lon="9.184796288609505">
<ele>367.2</ele>
<time>2024-05-08T14:52:03Z</time>
</trkpt>
<trkpt lat="49.45281975902617" lon="9.1847085300833">
<ele>367.6</ele>
<time>2024-05-08T14:52:04Z</time>
</trkpt>
<trkpt lat="49.452831242233515" lon="9.184661842882631">
<ele>367.8</ele>
<time>2024-05-08T14:52:05Z</time>
</trkpt>
<trkpt lat="49.45284649729729" lon="9.184616999700664">
<ele>368</ele>
<time>2024-05-08T14:52:06Z</time>
</trkpt>
<trkpt lat="49.4528578966856" lon="9.184573162347078">
<ele>368.2</ele>
<time>2024-05-08T14:52:07Z</time>
</trkpt>
<trkpt lat="49.45287315174937" lon="9.184531169012187">
<ele>368.4</ele>
<time>2024-05-08T14:52:08Z</time>
</trkpt>
<trkpt lat="49.452888406813145" lon="9.18449210934341">
<ele>368.6</ele>
<time>2024-05-08T14:52:09Z</time>
</trkpt>
<trkpt lat="49.45289989002049" lon="9.18445011600852">
<ele>368.8</ele>
<time>2024-05-08T14:52:10Z</time>
</trkpt>
<trkpt lat="49.45291514508426" lon="9.184406278654931">
<ele>369.2</ele>
<time>2024-05-08T14:52:11Z</time>
</trkpt>
<trkpt lat="49.452930400148034" lon="9.184363363310696">
<ele>369.4</ele>
<time>2024-05-08T14:52:12Z</time>
</trkpt>
<trkpt lat="49.452945655211806" lon="9.184321369975804">
<ele>369.6</ele>
<time>2024-05-08T14:52:13Z</time>
</trkpt>
<trkpt lat="49.45296091027558" lon="9.184287004172802">
<ele>369.8</ele>
<time>2024-05-08T14:52:14Z</time>
</trkpt>
<trkpt lat="49.45298379287124" lon="9.184265127405524">
<ele>370</ele>
<time>2024-05-08T14:52:15Z</time>
</trkpt>
<trkpt lat="49.453006675466895" lon="9.184263199567797">
<ele>370.2</ele>
<time>2024-05-08T14:52:16Z</time>
</trkpt>
<trkpt lat="49.45302955806255" lon="9.184285160154104">
<ele>370.4</ele>
<time>2024-05-08T14:52:17Z</time>
</trkpt>
<trkpt lat="49.4530410412699" lon="9.184321369975804">
<ele>370.6</ele>
<time>2024-05-08T14:52:18Z</time>
</trkpt>
<trkpt lat="49.453044813126326" lon="9.184363363310696">
<ele>370.8</ele>
<time>2024-05-08T14:52:19Z</time>
</trkpt>
<trkpt lat="49.453044813126326" lon="9.18441005051136">
<ele>371</ele>
<time>2024-05-08T14:52:20Z</time>
</trkpt>
<trkpt lat="49.4530410412699" lon="9.184454893693328">
<ele>371.2</ele>
<time>2024-05-08T14:52:21Z</time>
</trkpt>
<trkpt lat="49.45303718559444" lon="9.184501580893992">
<ele>371.4</ele>
<time>2024-05-08T14:52:22Z</time>
</trkpt>
<trkpt lat="49.45303718559444" lon="9.18455027975142">
<ele>371.6</ele>
<time>2024-05-08T14:52:23Z</time>
</trkpt>
<trkpt lat="49.45303341373801" lon="9.184601744636891">
<ele>371.8</ele>
<time>2024-05-08T14:52:24Z</time>
</trkpt>
<trkpt lat="49.45303341373801" lon="9.184650359675288">
<ele>372</ele>
<time>2024-05-08T14:52:25Z</time>
</trkpt>
<trkpt lat="49.45303341373801" lon="9.184698052704334">
<ele>372.4</ele>
<time>2024-05-08T14:52:26Z</time>
</trkpt>
<trkpt lat="49.45303341373801" lon="9.18474960140884">
<ele>372.6</ele>
<time>2024-05-08T14:52:27Z</time>
</trkpt>
<trkpt lat="49.45303341373801" lon="9.18480198830366">
<ele>372.8</ele>
<time>2024-05-08T14:52:28Z</time>
</trkpt>
<trkpt lat="49.45303341373801" lon="9.184856386855245">
<ele>373</ele>
<time>2024-05-08T14:52:29Z</time>
</trkpt>
<trkpt lat="49.45303341373801" lon="9.184911707416177">
<ele>373.2</ele>
<time>2024-05-08T14:52:30Z</time>
</trkpt>
<trkpt lat="49.45303341373801" lon="9.18496317230165">
<ele>373.2</ele>
<time>2024-05-08T14:52:31Z</time>
</trkpt>
<trkpt lat="49.45303341373801" lon="9.185014721006157">
<ele>373.4</ele>
<time>2024-05-08T14:52:32Z</time>
</trkpt>
<trkpt lat="49.45303341373801" lon="9.18506526388228">
<ele>373.6</ele>
<time>2024-05-08T14:52:33Z</time>
</trkpt>
<trkpt lat="49.45303718559444" lon="9.185116728767753">
<ele>373.6</ele>
<time>2024-05-08T14:52:34Z</time>
</trkpt>
<trkpt lat="49.4530410412699" lon="9.185168193653226">
<ele>373.6</ele>
<time>2024-05-08T14:52:35Z</time>
</trkpt>
<trkpt lat="49.4530410412699" lon="9.18522167019546">
<ele>373.8</ele>
<time>2024-05-08T14:52:36Z</time>
</trkpt>
<trkpt lat="49.453044813126326" lon="9.18527690693736">
<ele>373.8</ele>
<time>2024-05-08T14:52:37Z</time>
</trkpt>
<trkpt lat="49.453044813126326" lon="9.185333233326674">
<ele>373.8</ele>
<time>2024-05-08T14:52:38Z</time>
</trkpt>
<trkpt lat="49.453044813126326" lon="9.185388553887606">
<ele>374</ele>
<time>2024-05-08T14:52:39Z</time>
</trkpt>
<trkpt lat="49.453048668801785" lon="9.185444796457888">
<ele>374</ele>
<time>2024-05-08T14:52:40Z</time>
</trkpt>
<trkpt lat="49.45305244065821" lon="9.185502966865895">
<ele>374.2</ele>
<time>2024-05-08T14:52:41Z</time>
</trkpt>
<trkpt lat="49.45305629633367" lon="9.18556021526456">
<ele>374.2</ele>
<time>2024-05-08T14:52:42Z</time>
</trkpt>
<trkpt lat="49.4530600681901" lon="9.18561645783484">
<ele>374.2</ele>
<time>2024-05-08T14:52:43Z</time>
</trkpt>
<trkpt lat="49.453067779541016" lon="9.185671778395772">
<ele>374.4</ele>
<time>2024-05-08T14:52:44Z</time>
</trkpt>
<trkpt lat="49.4530754070729" lon="9.185727098956704">
<ele>374.4</ele>
<time>2024-05-08T14:52:45Z</time>
</trkpt>
<trkpt lat="49.45308303460479" lon="9.185781413689256">
<ele>374.4</ele>
<time>2024-05-08T14:52:46Z</time>
</trkpt>
<trkpt lat="49.453090662136674" lon="9.18583296239376">
<ele>374.4</ele>
<time>2024-05-08T14:52:47Z</time>
</trkpt>
<trkpt lat="49.45310206152499" lon="9.185885349288585">
<ele>374.6</ele>
<time>2024-05-08T14:52:48Z</time>
</trkpt>
<trkpt lat="49.45311731658876" lon="9.185934970155358">
<ele>374.6</ele>
<time>2024-05-08T14:52:49Z</time>
</trkpt>
<trkpt lat="49.453128799796104" lon="9.185984591022134">
<ele>374.8</ele>
<time>2024-05-08T14:52:50Z</time>
</trkpt>
<trkpt lat="49.45314405485988" lon="9.186035133898258">
<ele>374.8</ele>
<time>2024-05-08T14:52:51Z</time>
</trkpt>
<trkpt lat="49.45315930992365" lon="9.186084670946002">
<ele>375</ele>
<time>2024-05-08T14:52:52Z</time>
</trkpt>
<trkpt lat="49.45317070931196" lon="9.186136219650509">
<ele>375</ele>
<time>2024-05-08T14:52:53Z</time>
</trkpt>
<trkpt lat="49.453185964375734" lon="9.18618961237371">
<ele>375.2</ele>
<time>2024-05-08T14:52:54Z</time>
</trkpt>
<trkpt lat="49.45320121943951" lon="9.186246860772371">
<ele>375.2</ele>
<time>2024-05-08T14:52:55Z</time>
</trkpt>
<trkpt lat="49.45321647450328" lon="9.186303103342652">
<ele>375.4</ele>
<time>2024-05-08T14:52:56Z</time>
</trkpt>
<trkpt lat="49.45323172956705" lon="9.186360351741314">
<ele>375.4</ele>
<time>2024-05-08T14:52:57Z</time>
</trkpt>
<trkpt lat="49.4532432127744" lon="9.186418522149324">
<ele>375.6</ele>
<time>2024-05-08T14:52:58Z</time>
</trkpt>
<trkpt lat="49.45325846783817" lon="9.186474764719604">
<ele>375.8</ele>
<time>2024-05-08T14:52:59Z</time>
</trkpt>
<trkpt lat="49.45326995104551" lon="9.186532013118269">
<ele>376</ele>
<time>2024-05-08T14:53:00Z</time>
</trkpt>
<trkpt lat="49.45328897796571" lon="9.186588255688548">
<ele>376.2</ele>
<time>2024-05-08T14:53:01Z</time>
</trkpt>
<trkpt lat="49.453304233029485" lon="9.18664449825883">
<ele>376.4</ele>
<time>2024-05-08T14:53:02Z</time>
</trkpt>
<trkpt lat="49.45331948809326" lon="9.18670174665749">
<ele>376.4</ele>
<time>2024-05-08T14:53:03Z</time>
</trkpt>
<trkpt lat="49.45333474315703" lon="9.1867599170655">
<ele>376.6</ele>
<time>2024-05-08T14:53:04Z</time>
</trkpt>
<trkpt lat="49.453342370688915" lon="9.18682001531124">
<ele>376.8</ele>
<time>2024-05-08T14:53:05Z</time>
</trkpt>
<trkpt lat="49.45335385389626" lon="9.18688195757568">
<ele>377</ele>
<time>2024-05-08T14:53:06Z</time>
</trkpt>
<trkpt lat="49.453361481428146" lon="9.18694205582142">
<ele>377.2</ele>
<time>2024-05-08T14:53:07Z</time>
</trkpt>
<trkpt lat="49.45337673649192" lon="9.187003076076508">
<ele>377.4</ele>
<time>2024-05-08T14:53:08Z</time>
</trkpt>
<trkpt lat="49.453384364023805" lon="9.187067952007055">
<ele>377.6</ele>
<time>2024-05-08T14:53:09Z</time>
</trkpt>
<trkpt lat="49.45339576341212" lon="9.187129894271491">
<ele>377.8</ele>
<time>2024-05-08T14:53:10Z</time>
</trkpt>
<trkpt lat="49.45340724661946" lon="9.187192842364311">
<ele>377.8</ele>
<time>2024-05-08T14:53:11Z</time>
</trkpt>
<trkpt lat="49.45341872982681" lon="9.18725486844778">
<ele>378</ele>
<time>2024-05-08T14:53:12Z</time>
</trkpt>
<trkpt lat="49.453426357358694" lon="9.187318738549948">
<ele>378.2</ele>
<time>2024-05-08T14:53:13Z</time>
</trkpt>
<trkpt lat="49.45343398489058" lon="9.187383614480495">
<ele>378.2</ele>
<time>2024-05-08T14:53:14Z</time>
</trkpt>
<trkpt lat="49.453441612422466" lon="9.187448490411043">
<ele>378.4</ele>
<time>2024-05-08T14:53:15Z</time>
</trkpt>
<trkpt lat="49.45345301181078" lon="9.187516132369636">
<ele>378.4</ele>
<time>2024-05-08T14:53:16Z</time>
</trkpt>
<trkpt lat="49.453460639342666" lon="9.187584863975644">
<ele>378.6</ele>
<time>2024-05-08T14:53:17Z</time>
</trkpt>
<trkpt lat="49.45347212255001" lon="9.18765351176262">
<ele>378.8</ele>
<time>2024-05-08T14:53:18Z</time>
</trkpt>
<trkpt lat="49.45348352193832" lon="9.187720231711864">
<ele>378.8</ele>
<time>2024-05-08T14:53:19Z</time>
</trkpt>
<trkpt lat="49.45349500514567" lon="9.187787035480142">
<ele>378.8</ele>
<time>2024-05-08T14:53:20Z</time>
</trkpt>
<trkpt lat="49.45350640453398" lon="9.187852833420038">
<ele>378.6</ele>
<time>2024-05-08T14:53:22Z</time>
</trkpt>
<trkpt lat="49.4535331428051" lon="9.18798635713756">
<ele>378.6</ele>
<time>2024-05-08T14:53:23Z</time>
</trkpt>
<trkpt lat="49.45354839786887" lon="9.188055004924536">
<ele>378.4</ele>
<time>2024-05-08T14:53:24Z</time>
</trkpt>
<trkpt lat="49.45356365293264" lon="9.188119880855083">
<ele>378.4</ele>
<time>2024-05-08T14:53:25Z</time>
</trkpt>
<trkpt lat="49.453578907996416" lon="9.1881846729666">
<ele>378.4</ele>
<time>2024-05-08T14:53:26Z</time>
</trkpt>
<trkpt lat="49.45359801873565" lon="9.188246699050069">
<ele>378.2</ele>
<time>2024-05-08T14:53:27Z</time>
</trkpt>
<trkpt lat="49.45361327379942" lon="9.188308641314508">
<ele>378.2</ele>
<time>2024-05-08T14:53:28Z</time>
</trkpt>
<trkpt lat="49.45362852886319" lon="9.188375445082784">
<ele>378.4</ele>
<time>2024-05-08T14:53:29Z</time>
</trkpt>
<trkpt lat="49.453639928251505" lon="9.188445014879107">
<ele>378.4</ele>
<time>2024-05-08T14:53:30Z</time>
</trkpt>
<trkpt lat="49.453659038990736" lon="9.188511818647385">
<ele>378.6</ele>
<time>2024-05-08T14:53:31Z</time>
</trkpt>
<trkpt lat="49.45367429405451" lon="9.18857954442501">
<ele>378.6</ele>
<time>2024-05-08T14:53:32Z</time>
</trkpt>
<trkpt lat="49.45371243171394" lon="9.188714912161233">
<ele>378.8</ele>
<time>2024-05-08T14:53:34Z</time>
</trkpt>
<trkpt lat="49.45373145863414" lon="9.188781715929508">
<ele>378.8</ele>
<time>2024-05-08T14:53:35Z</time>
</trkpt>
<trkpt lat="49.45375056937337" lon="9.188846508041024">
<ele>378.8</ele>
<time>2024-05-08T14:53:36Z</time>
</trkpt>
<trkpt lat="49.45377345196903" lon="9.188911383971572">
<ele>379</ele>
<time>2024-05-08T14:53:37Z</time>
</trkpt>
<trkpt lat="49.4537887070328" lon="9.18897625990212">
<ele>379</ele>
<time>2024-05-08T14:53:38Z</time>
</trkpt>
<trkpt lat="49.45381158962846" lon="9.189042057842016">
<ele>379</ele>
<time>2024-05-08T14:53:39Z</time>
</trkpt>
<trkpt lat="49.45383070036769" lon="9.189105005934834">
<ele>379.2</ele>
<time>2024-05-08T14:53:40Z</time>
</trkpt>
<trkpt lat="49.45384972728789" lon="9.189167954027653">
<ele>379.2</ele>
<time>2024-05-08T14:53:41Z</time>
</trkpt>
<trkpt lat="49.45386883802712" lon="9.18923182412982">
<ele>379.2</ele>
<time>2024-05-08T14:53:42Z</time>
</trkpt>
<trkpt lat="49.45388786494732" lon="9.189294772222638">
<ele>379.2</ele>
<time>2024-05-08T14:53:43Z</time>
</trkpt>
<trkpt lat="49.45391074754298" lon="9.189352942630649">
<ele>379.2</ele>
<time>2024-05-08T14:53:44Z</time>
</trkpt>
<trkpt lat="49.45392985828221" lon="9.18941019102931">
<ele>379.2</ele>
<time>2024-05-08T14:53:45Z</time>
</trkpt>
<trkpt lat="49.45395274087787" lon="9.189464505761862">
<ele>379.2</ele>
<time>2024-05-08T14:53:46Z</time>
</trkpt>
<trkpt lat="49.453975623473525" lon="9.189519826322794">
<ele>379.2</ele>
<time>2024-05-08T14:53:47Z</time>
</trkpt>
<trkpt lat="49.45399850606918" lon="9.189575146883726">
<ele>379</ele>
<time>2024-05-08T14:53:48Z</time>
</trkpt>
<trkpt lat="49.45402138866484" lon="9.189631389454007">
<ele>379</ele>
<time>2024-05-08T14:53:49Z</time>
</trkpt>
<trkpt lat="49.45404049940407" lon="9.189684865996242">
<ele>378.8</ele>
<time>2024-05-08T14:53:50Z</time>
</trkpt>
<trkpt lat="49.45405952632427" lon="9.189736330881717">
<ele>378.6</ele>
<time>2024-05-08T14:53:51Z</time>
</trkpt>
<trkpt lat="49.45406338199973" lon="9.189791651442649">
<ele>378.6</ele>
<time>2024-05-08T14:53:53Z</time>
</trkpt>
<trkpt lat="49.454055754467845" lon="9.18984504416585">
<ele>378.4</ele>
<time>2024-05-08T14:53:54Z</time>
</trkpt>
<trkpt lat="49.45399473421275" lon="9.189966162666678">
<ele>378.2</ele>
<time>2024-05-08T14:53:55Z</time>
</trkpt>
<trkpt lat="49.45395274087787" lon="9.19004344381392">
<ele>377.8</ele>
<time>2024-05-08T14:53:56Z</time>
</trkpt>
<trkpt lat="49.45390312001109" lon="9.190128268674016">
<ele>377.4</ele>
<time>2024-05-08T14:53:57Z</time>
</trkpt>
<trkpt lat="49.45384972728789" lon="9.19021694920957">
<ele>377</ele>
<time>2024-05-08T14:53:58Z</time>
</trkpt>
<trkpt lat="49.453796334564686" lon="9.190311413258314">
<ele>376.8</ele>
<time>2024-05-08T14:53:59Z</time>
</trkpt>
<trkpt lat="49.45374294184148" lon="9.190404871478677">
<ele>376.4</ele>
<time>2024-05-08T14:54:00Z</time>
</trkpt>
<trkpt lat="49.45368569344282" lon="9.190493552014232">
<ele>376</ele>
<time>2024-05-08T14:54:01Z</time>
</trkpt>
<trkpt lat="49.45362852886319" lon="9.1905746050179">
<ele>375.6</ele>
<time>2024-05-08T14:54:02Z</time>
</trkpt>
<trkpt lat="49.45357505232096" lon="9.190640402957795">
<ele>375.2</ele>
<time>2024-05-08T14:54:03Z</time>
</trkpt>
<trkpt lat="49.45351788774133" lon="9.190699495375156">
<ele>374.8</ele>
<time>2024-05-08T14:54:04Z</time>
</trkpt>
<trkpt lat="49.45346826687455" lon="9.190759593620896">
<ele>374.2</ele>
<time>2024-05-08T14:54:05Z</time>
</trkpt>
<trkpt lat="49.45343012921512" lon="9.190819691866636">
<ele>373.6</ele>
<time>2024-05-08T14:54:06Z</time>
</trkpt>
<trkpt lat="49.45341110229492" lon="9.190896973013878">
<ele>373</ele>
<time>2024-05-08T14:54:07Z</time>
</trkpt>
<trkpt lat="49.45341487415135" lon="9.190981797873974">
<ele>372.4</ele>
<time>2024-05-08T14:54:08Z</time>
</trkpt>
<trkpt lat="49.45343012921512" lon="9.191066706553102">
<ele>371.8</ele>
<time>2024-05-08T14:54:09Z</time>
</trkpt>
<trkpt lat="49.45345301181078" lon="9.1911496873945">
<ele>371.4</ele>
<time>2024-05-08T14:54:10Z</time>
</trkpt>
<trkpt lat="49.4534797500819" lon="9.19122789055109">
<ele>370.8</ele>
<time>2024-05-08T14:54:11Z</time>
</trkpt>
<trkpt lat="49.45350640453398" lon="9.191301316022871">
<ele>370.4</ele>
<time>2024-05-08T14:54:12Z</time>
</trkpt>
<trkpt lat="49.4535331428051" lon="9.191371891647576">
<ele>370</ele>
<time>2024-05-08T14:54:13Z</time>
</trkpt>
<trkpt lat="49.453559797257185" lon="9.191439617425203">
<ele>369.8</ele>
<time>2024-05-08T14:54:14Z</time>
</trkpt>
<trkpt lat="49.453582763671875" lon="9.1915054153651">
<ele>369.6</ele>
<time>2024-05-08T14:54:15Z</time>
</trkpt>
<trkpt lat="49.45360564626753" lon="9.191571213304996">
<ele>369.4</ele>
<time>2024-05-08T14:54:16Z</time>
</trkpt>
<trkpt lat="49.45362852886319" lon="9.191637011244891">
<ele>369.2</ele>
<time>2024-05-08T14:54:17Z</time>
</trkpt>
<trkpt lat="49.45364755578339" lon="9.19170373119414">
<ele>369.2</ele>
<time>2024-05-08T14:54:18Z</time>
</trkpt>
<trkpt lat="49.45366666652262" lon="9.191773384809494">
<ele>369</ele>
<time>2024-05-08T14:54:19Z</time>
</trkpt>
<trkpt lat="49.45368954911828" lon="9.191842954605818">
<ele>368.8</ele>
<time>2024-05-08T14:54:20Z</time>
</trkpt>
<trkpt lat="49.45371243171394" lon="9.191911686211824">
<ele>368.6</ele>
<time>2024-05-08T14:54:21Z</time>
</trkpt>
<trkpt lat="49.45373145863414" lon="9.191983183845878">
<ele>368.6</ele>
<time>2024-05-08T14:54:22Z</time>
</trkpt>
<trkpt lat="49.453758196905255" lon="9.192051831632853">
<ele>368.4</ele>
<time>2024-05-08T14:54:23Z</time>
</trkpt>
<trkpt lat="49.453781079500914" lon="9.192121485248208">
<ele>368.4</ele>
<time>2024-05-08T14:54:24Z</time>
</trkpt>
<trkpt lat="49.45380396209657" lon="9.192192060872912">
<ele>368.2</ele>
<time>2024-05-08T14:54:25Z</time>
</trkpt>
<trkpt lat="49.45382684469223" lon="9.192263558506966">
<ele>368.2</ele>
<time>2024-05-08T14:54:26Z</time>
</trkpt>
<trkpt lat="49.45384595543146" lon="9.19233321212232">
<ele>368.2</ele>
<time>2024-05-08T14:54:27Z</time>
</trkpt>
<trkpt lat="49.45386498235166" lon="9.192399932071568">
<ele>368.2</ele>
<time>2024-05-08T14:54:28Z</time>
</trkpt>
<trkpt lat="49.45388023741543" lon="9.192464808002114">
<ele>368.2</ele>
<time>2024-05-08T14:54:29Z</time>
</trkpt>
<trkpt lat="49.45389172062278" lon="9.19253152795136">
<ele>368.2</ele>
<time>2024-05-08T14:54:30Z</time>
</trkpt>
<trkpt lat="49.45388023741543" lon="9.192594476044178">
<ele>368.2</ele>
<time>2024-05-08T14:54:31Z</time>
</trkpt>
<trkpt lat="49.45384972728789" lon="9.192641247063875">
<ele>368</ele>
<time>2024-05-08T14:54:32Z</time>
</trkpt>
<trkpt lat="49.453800190240145" lon="9.192678378894923">
<ele>368</ele>
<time>2024-05-08T14:54:33Z</time>
</trkpt>
<trkpt lat="49.45374671369791" lon="9.192713666707276">
<ele>367.8</ele>
<time>2024-05-08T14:54:34Z</time>
</trkpt>
<trkpt lat="49.45368569344282" lon="9.19274996034801">
<ele>367.6</ele>
<time>2024-05-08T14:54:35Z</time>
</trkpt>
<trkpt lat="49.45362467318773" lon="9.192792875692248">
<ele>367.4</ele>
<time>2024-05-08T14:54:36Z</time>
</trkpt>
<trkpt lat="49.45356742478907" lon="9.192854817956686">
<ele>367.2</ele>
<time>2024-05-08T14:54:37Z</time>
</trkpt>
<trkpt lat="49.45351403206587" lon="9.192921621724963">
<ele>367</ele>
<time>2024-05-08T14:54:38Z</time>
</trkpt>
<trkpt lat="49.45347212255001" lon="9.192996975034475">
<ele>366.8</ele>
<time>2024-05-08T14:54:39Z</time>
</trkpt>
<trkpt lat="49.45343775674701" lon="9.193070400506258">
<ele>366.6</ele>
<time>2024-05-08T14:54:40Z</time>
</trkpt>
<trkpt lat="49.45340724661946" lon="9.193141898140311">
<ele>366.6</ele>
<time>2024-05-08T14:54:41Z</time>
</trkpt>
<trkpt lat="49.453380508348346" lon="9.193213395774364">
<ele>366.4</ele>
<time>2024-05-08T14:54:42Z</time>
</trkpt>
<trkpt lat="49.453361481428146" lon="9.193282127380373">
<ele>366.4</ele>
<time>2024-05-08T14:54:43Z</time>
</trkpt>
<trkpt lat="49.453342370688915" lon="9.193344991654158">
<ele>366.2</ele>
<time>2024-05-08T14:54:44Z</time>
</trkpt>
<trkpt lat="49.4533309713006" lon="9.193396540358664">
<ele>366.2</ele>
<time>2024-05-08T14:54:45Z</time>
</trkpt>
<trkpt lat="49.4533309713006" lon="9.193453788757324">
<ele>366.2</ele>
<time>2024-05-08T14:54:46Z</time>
</trkpt>
<trkpt lat="49.453342370688915" lon="9.193510031327603">
<ele>366.2</ele>
<time>2024-05-08T14:54:47Z</time>
</trkpt>
<trkpt lat="49.453365253284574" lon="9.193558646366">
<ele>366.4</ele>
<time>2024-05-08T14:54:48Z</time>
</trkpt>
<trkpt lat="49.45339199155569" lon="9.1935948561877">
<ele>366.4</ele>
<time>2024-05-08T14:54:49Z</time>
</trkpt>
<trkpt lat="49.453422501683235" lon="9.193630144000052">
<ele>366.6</ele>
<time>2024-05-08T14:54:50Z</time>
</trkpt>
<trkpt lat="49.45344923995435" lon="9.193666437640786">
<ele>366.6</ele>
<time>2024-05-08T14:54:51Z</time>
</trkpt>
<trkpt lat="49.45348352193832" lon="9.193704575300217">
<ele>366.8</ele>
<time>2024-05-08T14:54:52Z</time>
</trkpt>
<trkpt lat="49.45351403206587" lon="9.193739863112569">
<ele>366.8</ele>
<time>2024-05-08T14:54:53Z</time>
</trkpt>
<trkpt lat="49.45354454219341" lon="9.193781772628428">
<ele>367</ele>
<time>2024-05-08T14:54:54Z</time>
</trkpt>
<trkpt lat="49.453578907996416" lon="9.193822843953969">
<ele>367</ele>
<time>2024-05-08T14:54:55Z</time>
</trkpt>
<trkpt lat="49.45361704565585" lon="9.19385813176632">
<ele>367.2</ele>
<time>2024-05-08T14:54:56Z</time>
</trkpt>
<trkpt lat="49.45365141145885" lon="9.193893419578671">
<ele>367.4</ele>
<time>2024-05-08T14:54:57Z</time>
</trkpt>
<trkpt lat="49.45369332097471" lon="9.193924851715565">
<ele>367.6</ele>
<time>2024-05-08T14:54:58Z</time>
</trkpt>
<trkpt lat="49.45372768677771" lon="9.193962067365646">
<ele>367.8</ele>
<time>2024-05-08T14:54:59Z</time>
</trkpt>
<trkpt lat="49.453762052580714" lon="9.194000205025077">
<ele>368</ele>
<time>2024-05-08T14:55:00Z</time>
</trkpt>
<trkpt lat="49.45379256270826" lon="9.194045048207045">
<ele>368.2</ele>
<time>2024-05-08T14:55:01Z</time>
</trkpt>
<trkpt lat="49.45382684469223" lon="9.194086957722902">
<ele>368.4</ele>
<time>2024-05-08T14:55:02Z</time>
</trkpt>
<trkpt lat="49.45386498235166" lon="9.194128029048445">
<ele>368.6</ele>
<time>2024-05-08T14:55:03Z</time>
</trkpt>
<trkpt lat="49.453899348154664" lon="9.1941699385643">
<ele>368.8</ele>
<time>2024-05-08T14:55:04Z</time>
</trkpt>
<trkpt lat="49.45393371395767" lon="9.19421000406146">
<ele>369</ele>
<time>2024-05-08T14:55:05Z</time>
</trkpt>
<trkpt lat="49.45396799594164" lon="9.19425006955862">
<ele>369</ele>
<time>2024-05-08T14:55:06Z</time>
</trkpt>
<trkpt lat="49.45400236174464" lon="9.19429298490286">
<ele>369.2</ele>
<time>2024-05-08T14:55:07Z</time>
</trkpt>
<trkpt lat="49.454036643728614" lon="9.19433305040002">
<ele>369.4</ele>
<time>2024-05-08T14:55:08Z</time>
</trkpt>
<trkpt lat="49.45406715385616" lon="9.19437311589718">
<ele>369.4</ele>
<time>2024-05-08T14:55:09Z</time>
</trkpt>
<trkpt lat="49.45410537533462" lon="9.194415025413036">
<ele>369.6</ele>
<time>2024-05-08T14:55:10Z</time>
</trkpt>
<trkpt lat="49.45415114052594" lon="9.194457940757276">
<ele>369.8</ele>
<time>2024-05-08T14:55:11Z</time>
</trkpt>
<trkpt lat="49.454193050041795" lon="9.194503705948591">
<ele>369.8</ele>
<time>2024-05-08T14:55:12Z</time>
</trkpt>
<trkpt lat="49.45423504337669" lon="9.194542849436402">
<ele>370</ele>
<time>2024-05-08T14:55:13Z</time>
</trkpt>
<trkpt lat="49.454277036711574" lon="9.19458861462772">
<ele>370.2</ele>
<time>2024-05-08T14:55:14Z</time>
</trkpt>
<trkpt lat="49.45431517437101" lon="9.194635385647416">
<ele>370.2</ele>
<time>2024-05-08T14:55:15Z</time>
</trkpt>
<trkpt lat="49.45435708388686" lon="9.194678300991654">
<ele>370.4</ele>
<time>2024-05-08T14:55:16Z</time>
</trkpt>
<trkpt lat="49.454391449689865" lon="9.194721216335893">
<ele>370.4</ele>
<time>2024-05-08T14:55:17Z</time>
</trkpt>
<trkpt lat="49.45443335920572" lon="9.194769831374288">
<ele>370.4</ele>
<time>2024-05-08T14:55:18Z</time>
</trkpt>
<trkpt lat="49.454467725008726" lon="9.194809896871448">
<ele>370.4</ele>
<time>2024-05-08T14:55:19Z</time>
</trkpt>
<trkpt lat="49.45450209081173" lon="9.194853734225036">
<ele>370.6</ele>
<time>2024-05-08T14:55:20Z</time>
</trkpt>
<trkpt lat="49.45454022847116" lon="9.194898577407002">
<ele>370.8</ele>
<time>2024-05-08T14:55:21Z</time>
</trkpt>
<trkpt lat="49.454570738598704" lon="9.194938642904162">
<ele>370.8</ele>
<time>2024-05-08T14:55:22Z</time>
</trkpt>
<trkpt lat="49.45460502058267" lon="9.194986335933208">
<ele>371</ele>
<time>2024-05-08T14:55:23Z</time>
</trkpt>
<trkpt lat="49.45463938638568" lon="9.195028245449066">
<ele>371.2</ele>
<time>2024-05-08T14:55:24Z</time>
</trkpt>
<trkpt lat="49.45467375218868" lon="9.195079794153571">
<ele>371.2</ele>
<time>2024-05-08T14:55:25Z</time>
</trkpt>
<trkpt lat="49.45471188984811" lon="9.195131259039044">
<ele>371.4</ele>
<time>2024-05-08T14:55:26Z</time>
</trkpt>
<trkpt lat="49.454750027507544" lon="9.19517702423036">
<ele>371.4</ele>
<time>2024-05-08T14:55:27Z</time>
</trkpt>
<trkpt lat="49.454788165166974" lon="9.195221867412329">
<ele>371.6</ele>
<time>2024-05-08T14:55:28Z</time>
</trkpt>
<trkpt lat="49.454826302826405" lon="9.195266710594296">
<ele>371.6</ele>
<time>2024-05-08T14:55:29Z</time>
</trkpt>
<trkpt lat="49.45485681295395" lon="9.195315325632691">
<ele>371.6</ele>
<time>2024-05-08T14:55:30Z</time>
</trkpt>
<trkpt lat="49.45489117875695" lon="9.195364946499469">
<ele>371.8</ele>
<time>2024-05-08T14:55:31Z</time>
</trkpt>
<trkpt lat="49.45492546074093" lon="9.195411633700132">
<ele>372</ele>
<time>2024-05-08T14:55:32Z</time>
</trkpt>
<trkpt lat="49.45495982654393" lon="9.195453627035022">
<ele>372.2</ele>
<time>2024-05-08T14:55:33Z</time>
</trkpt>
<trkpt lat="49.45499033667147" lon="9.19549461454153">
<ele>372.4</ele>
<time>2024-05-08T14:55:34Z</time>
</trkpt>
<trkpt lat="49.455024702474475" lon="9.19553367421031">
<ele>372.6</ele>
<time>2024-05-08T14:55:35Z</time>
</trkpt>
<trkpt lat="49.45505898445845" lon="9.19557474553585">
<ele>372.8</ele>
<time>2024-05-08T14:55:36Z</time>
</trkpt>
<trkpt lat="49.45508949458599" lon="9.195618582889438">
<ele>372.8</ele>
<time>2024-05-08T14:55:37Z</time>
</trkpt>
<trkpt lat="49.455120004713535" lon="9.19565294869244">
<ele>373</ele>
<time>2024-05-08T14:55:38Z</time>
</trkpt>
<trkpt lat="49.45515437051654" lon="9.19569200836122">
<ele>373</ele>
<time>2024-05-08T14:55:39Z</time>
</trkpt>
<trkpt lat="49.45518873631954" lon="9.19573207385838">
<ele>373.2</ele>
<time>2024-05-08T14:55:40Z</time>
</trkpt>
<trkpt lat="49.45522301830351" lon="9.195771217346191">
<ele>373.2</ele>
<time>2024-05-08T14:55:41Z</time>
</trkpt>
<trkpt lat="49.45524975657463" lon="9.195821760222316">
<ele>373.4</ele>
<time>2024-05-08T14:55:42Z</time>
</trkpt>
<trkpt lat="49.45528789423406" lon="9.195861741900444">
<ele>373.4</ele>
<time>2024-05-08T14:55:43Z</time>
</trkpt>
<trkpt lat="49.455318404361606" lon="9.19590851292014">
<ele>373.6</ele>
<time>2024-05-08T14:55:44Z</time>
</trkpt>
<trkpt lat="49.45534891448915" lon="9.195956205949187">
<ele>373.8</ele>
<time>2024-05-08T14:55:45Z</time>
</trkpt>
<trkpt lat="49.455379424616694" lon="9.196002893149853">
<ele>373.8</ele>
<time>2024-05-08T14:55:46Z</time>
</trkpt>
<trkpt lat="49.45540993474424" lon="9.19605159200728">
<ele>374</ele>
<time>2024-05-08T14:55:47Z</time>
</trkpt>
<trkpt lat="49.4554328173399" lon="9.196118311956525">
<ele>374</ele>
<time>2024-05-08T14:55:48Z</time>
</trkpt>
<trkpt lat="49.45546332746744" lon="9.196174554526806">
<ele>374</ele>
<time>2024-05-08T14:55:49Z</time>
</trkpt>
<trkpt lat="49.45549006573856" lon="9.196223253384233">
<ele>374.2</ele>
<time>2024-05-08T14:55:50Z</time>
</trkpt>
<trkpt lat="49.45552443154156" lon="9.196271868422627">
<ele>374.2</ele>
<time>2024-05-08T14:55:51Z</time>
</trkpt>
<trkpt lat="49.45555494166911" lon="9.196319561451674">
<ele>374.2</ele>
<time>2024-05-08T14:55:52Z</time>
</trkpt>
<trkpt lat="49.45558922365308" lon="9.196361470967531">
<ele>374.2</ele>
<time>2024-05-08T14:55:53Z</time>
</trkpt>
<trkpt lat="49.45561973378062" lon="9.19640346430242">
<ele>374.2</ele>
<time>2024-05-08T14:55:54Z</time>
</trkpt>
<trkpt lat="49.45564647205174" lon="9.196450151503086">
<ele>374.2</ele>
<time>2024-05-08T14:55:55Z</time>
</trkpt>
<trkpt lat="49.45567698217928" lon="9.19650455005467">
<ele>374.2</ele>
<time>2024-05-08T14:55:56Z</time>
</trkpt>
<trkpt lat="49.4557037204504" lon="9.196557020768523">
<ele>374.2</ele>
<time>2024-05-08T14:55:57Z</time>
</trkpt>
<trkpt lat="49.45573037490249" lon="9.19660471379757">
<ele>374.2</ele>
<time>2024-05-08T14:55:58Z</time>
</trkpt>
<trkpt lat="49.45576088503003" lon="9.196656178683044">
<ele>374.2</ele>
<time>2024-05-08T14:55:59Z</time>
</trkpt>
<trkpt lat="49.45578376762569" lon="9.196709571406243">
<ele>374.4</ele>
<time>2024-05-08T14:56:00Z</time>
</trkpt>
<trkpt lat="49.455814361572266" lon="9.196758270263672">
<ele>374.4</ele>
<time>2024-05-08T14:56:01Z</time>
</trkpt>
<trkpt lat="49.45583724416792" lon="9.196807807311416">
<ele>374.6</ele>
<time>2024-05-08T14:56:02Z</time>
</trkpt>
<trkpt lat="49.455871526151896" lon="9.19685835018754">
<ele>374.8</ele>
<time>2024-05-08T14:56:03Z</time>
</trkpt>
<trkpt lat="49.45589826442301" lon="9.19691459275782">
<ele>374.8</ele>
<time>2024-05-08T14:56:04Z</time>
</trkpt>
<trkpt lat="49.45593640208244" lon="9.196968069300056">
<ele>375</ele>
<time>2024-05-08T14:56:05Z</time>
</trkpt>
<trkpt lat="49.45596691220999" lon="9.197019534185529">
<ele>375</ele>
<time>2024-05-08T14:56:06Z</time>
</trkpt>
<trkpt lat="49.45600504986942" lon="9.197072004899384">
<ele>375</ele>
<time>2024-05-08T14:56:07Z</time>
</trkpt>
<trkpt lat="49.45603555999696" lon="9.197121541947126">
<ele>375.2</ele>
<time>2024-05-08T14:56:08Z</time>
</trkpt>
<trkpt lat="49.45606607012451" lon="9.19717686250806">
<ele>375.2</ele>
<time>2024-05-08T14:56:09Z</time>
</trkpt>
<trkpt lat="49.45610420778394" lon="9.197219777852297">
<ele>375.4</ele>
<time>2024-05-08T14:56:10Z</time>
</trkpt>
<trkpt lat="49.45614620111883" lon="9.197261771187186">
<ele>375.4</ele>
<time>2024-05-08T14:56:11Z</time>
</trkpt>
<trkpt lat="49.45618433877826" lon="9.197308458387852">
<ele>375.4</ele>
<time>2024-05-08T14:56:12Z</time>
</trkpt>
<trkpt lat="49.4562148489058" lon="9.197358079254627">
<ele>375.4</ele>
<time>2024-05-08T14:56:13Z</time>
</trkpt>
<trkpt lat="49.45624158717692" lon="9.197409627959132">
<ele>375.4</ele>
<time>2024-05-08T14:56:14Z</time>
</trkpt>
<trkpt lat="49.456268241629004" lon="9.197463020682337">
<ele>375.4</ele>
<time>2024-05-08T14:56:15Z</time>
</trkpt>
<trkpt lat="49.45629875175655" lon="9.197514485567808">
<ele>375.4</ele>
<time>2024-05-08T14:56:16Z</time>
</trkpt>
<trkpt lat="49.456325490027666" lon="9.19756980612874">
<ele>375.4</ele>
<time>2024-05-08T14:56:17Z</time>
</trkpt>
<trkpt lat="49.45635600015521" lon="9.197625126689672">
<ele>375.4</ele>
<time>2024-05-08T14:56:18Z</time>
</trkpt>
<trkpt lat="49.45637888275087" lon="9.197681369259952">
<ele>375.4</ele>
<time>2024-05-08T14:56:19Z</time>
</trkpt>
<trkpt lat="49.456405621021986" lon="9.197741467505692">
<ele>375.4</ele>
<time>2024-05-08T14:56:20Z</time>
</trkpt>
<trkpt lat="49.45643227547407" lon="9.19780634343624">
<ele>375.4</ele>
<time>2024-05-08T14:56:21Z</time>
</trkpt>
<trkpt lat="49.45645901374519" lon="9.197874991223216">
<ele>375.4</ele>
<time>2024-05-08T14:56:22Z</time>
</trkpt>
<trkpt lat="49.456485668197274" lon="9.19794648885727">
<ele>375.4</ele>
<time>2024-05-08T14:56:23Z</time>
</trkpt>
<trkpt lat="49.45650863461197" lon="9.198015136644244">
<ele>375.4</ele>
<time>2024-05-08T14:56:24Z</time>
</trkpt>
<trkpt lat="49.45653528906405" lon="9.198080012574792">
<ele>375.6</ele>
<time>2024-05-08T14:56:25Z</time>
</trkpt>
<trkpt lat="49.45655817165971" lon="9.198146816343067">
<ele>375.6</ele>
<time>2024-05-08T14:56:26Z</time>
</trkpt>
<trkpt lat="49.456581054255366" lon="9.198211608454583">
<ele>375.6</ele>
<time>2024-05-08T14:56:27Z</time>
</trkpt>
<trkpt lat="49.456603936851025" lon="9.198271706700323">
<ele>375.6</ele>
<time>2024-05-08T14:56:28Z</time>
</trkpt>
<trkpt lat="49.45662681944668" lon="9.19833842664957">
<ele>375.8</ele>
<time>2024-05-08T14:56:29Z</time>
</trkpt>
<trkpt lat="49.456645930185914" lon="9.198405230417848">
<ele>375.8</ele>
<time>2024-05-08T14:56:30Z</time>
</trkpt>
<trkpt lat="49.45666495710611" lon="9.198471950367091">
<ele>375.8</ele>
<time>2024-05-08T14:56:31Z</time>
</trkpt>
<trkpt lat="49.45668029598892" lon="9.198545375838876">
<ele>375.8</ele>
<time>2024-05-08T14:56:32Z</time>
</trkpt>
<trkpt lat="49.45669555105269" lon="9.19861980713904">
<ele>375.8</ele>
<time>2024-05-08T14:56:33Z</time>
</trkpt>
<trkpt lat="49.456706950441" lon="9.198701782152057">
<ele>376</ele>
<time>2024-05-08T14:56:34Z</time>
</trkpt>
<trkpt lat="49.45671843364835" lon="9.198786690831184">
<ele>376</ele>
<time>2024-05-08T14:56:35Z</time>
</trkpt>
<trkpt lat="49.45673746056855" lon="9.19885634444654">
<ele>376</ele>
<time>2024-05-08T14:56:36Z</time>
</trkpt>
<trkpt lat="49.45674894377589" lon="9.198929769918324">
<ele>376</ele>
<time>2024-05-08T14:56:37Z</time>
</trkpt>
<trkpt lat="49.456764198839664" lon="9.199005123227836">
<ele>376</ele>
<time>2024-05-08T14:56:38Z</time>
</trkpt>
<trkpt lat="49.45677945390344" lon="9.199074693024158">
<ele>376</ele>
<time>2024-05-08T14:56:39Z</time>
</trkpt>
<trkpt lat="49.45678708143532" lon="9.199145268648865">
<ele>376</ele>
<time>2024-05-08T14:56:40Z</time>
</trkpt>
<trkpt lat="49.45679085329175" lon="9.199212994426489">
<ele>376</ele>
<time>2024-05-08T14:56:41Z</time>
</trkpt>
<trkpt lat="49.45679470896721" lon="9.199273092672229">
<ele>376</ele>
<time>2024-05-08T14:56:42Z</time>
</trkpt>
<trkpt lat="49.456802336499095" lon="9.199335034936666">
<ele>376</ele>
<time>2024-05-08T14:56:43Z</time>
</trkpt>
<trkpt lat="49.45680996403098" lon="9.199399910867214">
<ele>376</ele>
<time>2024-05-08T14:56:44Z</time>
</trkpt>
<trkpt lat="49.45681373588741" lon="9.199464786797762">
<ele>376</ele>
<time>2024-05-08T14:56:45Z</time>
</trkpt>
<trkpt lat="49.456821363419294" lon="9.199535362422466">
<ele>376</ele>
<time>2024-05-08T14:56:46Z</time>
</trkpt>
<trkpt lat="49.456821363419294" lon="9.199607782065868">
<ele>376</ele>
<time>2024-05-08T14:56:47Z</time>
</trkpt>
<trkpt lat="49.45682521909475" lon="9.19968313537538">
<ele>376</ele>
<time>2024-05-08T14:56:48Z</time>
</trkpt>
<trkpt lat="49.45682899095118" lon="9.199756560847163">
<ele>376</ele>
<time>2024-05-08T14:56:49Z</time>
</trkpt>
<trkpt lat="49.45683284662664" lon="9.199825208634138">
<ele>376</ele>
<time>2024-05-08T14:56:50Z</time>
</trkpt>
<trkpt lat="49.45683284662664" lon="9.199896790087225">
<ele>376</ele>
<time>2024-05-08T14:56:51Z</time>
</trkpt>
<trkpt lat="49.45683661848307" lon="9.19995973818004">
<ele>376</ele>
<time>2024-05-08T14:56:52Z</time>
</trkpt>
<trkpt lat="49.456844329833984" lon="9.200023608282208">
<ele>376</ele>
<time>2024-05-08T14:56:53Z</time>
</trkpt>
<trkpt lat="49.45684810169041" lon="9.200084628537295">
<ele>376</ele>
<time>2024-05-08T14:56:54Z</time>
</trkpt>
<trkpt lat="49.45685195736587" lon="9.200143804773688">
<ele>376</ele>
<time>2024-05-08T14:56:55Z</time>
</trkpt>
<trkpt lat="49.4568557292223" lon="9.200208596885204">
<ele>376</ele>
<time>2024-05-08T14:56:56Z</time>
</trkpt>
<trkpt lat="49.45684810169041" lon="9.200269617140291">
<ele>375.8</ele>
<time>2024-05-08T14:56:57Z</time>
</trkpt>
<trkpt lat="49.45684810169041" lon="9.200327871367335">
<ele>375.8</ele>
<time>2024-05-08T14:56:58Z</time>
</trkpt>
<trkpt lat="49.456844329833984" lon="9.200393669307232">
<ele>375.8</ele>
<time>2024-05-08T14:56:59Z</time>
</trkpt>
<trkpt lat="49.45683661848307" lon="9.200465166941283">
<ele>375.8</ele>
<time>2024-05-08T14:57:00Z</time>
</trkpt>
<trkpt lat="49.45683284662664" lon="9.200523337349296">
<ele>375.8</ele>
<time>2024-05-08T14:57:01Z</time>
</trkpt>
<trkpt lat="49.45681759156287" lon="9.200586285442114">
<ele>375.8</ele>
<time>2024-05-08T14:57:02Z</time>
</trkpt>
<trkpt lat="49.45680610835552" lon="9.200654933229089">
<ele>375.8</ele>
<time>2024-05-08T14:57:03Z</time>
</trkpt>
<trkpt lat="49.45679848082363" lon="9.200726430863142">
<ele>375.8</ele>
<time>2024-05-08T14:57:04Z</time>
</trkpt>
<trkpt lat="49.45679085329175" lon="9.200799940153956">
<ele>375.8</ele>
<time>2024-05-08T14:57:05Z</time>
</trkpt>
<trkpt lat="49.456783225759864" lon="9.200868587940931">
<ele>375.6</ele>
<time>2024-05-08T14:57:06Z</time>
</trkpt>
<trkpt lat="49.45677182637155" lon="9.200942013412714">
<ele>375.6</ele>
<time>2024-05-08T14:57:07Z</time>
</trkpt>
<trkpt lat="49.45675657130778" lon="9.201016360893846">
<ele>375.4</ele>
<time>2024-05-08T14:57:08Z</time>
</trkpt>
<trkpt lat="49.45674508810043" lon="9.20108794234693">
<ele>375.4</ele>
<time>2024-05-08T14:57:09Z</time>
</trkpt>
<trkpt lat="49.456726061180234" lon="9.201158517971637">
<ele>375.4</ele>
<time>2024-05-08T14:57:10Z</time>
</trkpt>
<trkpt lat="49.45671080611646" lon="9.201221466064451">
<ele>375.2</ele>
<time>2024-05-08T14:57:11Z</time>
</trkpt>
<trkpt lat="49.45669555105269" lon="9.20128340832889">
<ele>375.2</ele>
<time>2024-05-08T14:57:12Z</time>
</trkpt>
<trkpt lat="49.45667644031346" lon="9.201350212097168">
<ele>375.2</ele>
<time>2024-05-08T14:57:13Z</time>
</trkpt>
<trkpt lat="49.456661185249686" lon="9.20142363756895">
<ele>375</ele>
<time>2024-05-08T14:57:14Z</time>
</trkpt>
<trkpt lat="49.456642074510455" lon="9.201491279527543">
<ele>375</ele>
<time>2024-05-08T14:57:15Z</time>
</trkpt>
<trkpt lat="49.456623047590256" lon="9.201553305611014">
<ele>375</ele>
<time>2024-05-08T14:57:16Z</time>
</trkpt>
<trkpt lat="49.456603936851025" lon="9.201611476019025">
<ele>375</ele>
<time>2024-05-08T14:57:17Z</time>
</trkpt>
<trkpt lat="49.456584909930825" lon="9.201676351949573">
<ele>375</ele>
<time>2024-05-08T14:57:18Z</time>
</trkpt>
<trkpt lat="49.45656202733517" lon="9.201743071898818">
<ele>375</ele>
<time>2024-05-08T14:57:19Z</time>
</trkpt>
<trkpt lat="49.45653528906405" lon="9.201806942000983">
<ele>375</ele>
<time>2024-05-08T14:57:20Z</time>
</trkpt>
<trkpt lat="49.45651626214385" lon="9.201863268390298">
<ele>375</ele>
<time>2024-05-08T14:57:21Z</time>
</trkpt>
<trkpt lat="49.45650100708008" lon="9.201928060501814">
<ele>375</ele>
<time>2024-05-08T14:57:22Z</time>
</trkpt>
<trkpt lat="49.45647804066539" lon="9.201988158747554">
<ele>375</ele>
<time>2024-05-08T14:57:23Z</time>
</trkpt>
<trkpt lat="49.45645515806973" lon="9.202053034678102">
<ele>375</ele>
<time>2024-05-08T14:57:24Z</time>
</trkpt>
<trkpt lat="49.45643227547407" lon="9.202119754627349">
<ele>375</ele>
<time>2024-05-08T14:57:25Z</time>
</trkpt>
<trkpt lat="49.45641324855387" lon="9.202181780710816">
<ele>375</ele>
<time>2024-05-08T14:57:26Z</time>
</trkpt>
<trkpt lat="49.456386510282755" lon="9.202241878956556">
<ele>375</ele>
<time>2024-05-08T14:57:27Z</time>
</trkpt>
<trkpt lat="49.4563636276871" lon="9.202298121526836">
<ele>375</ele>
<time>2024-05-08T14:57:28Z</time>
</trkpt>
<trkpt lat="49.45634837262333" lon="9.202361991629004">
<ele>375</ele>
<time>2024-05-08T14:57:29Z</time>
</trkpt>
<trkpt lat="49.456329345703125" lon="9.202418318018315">
<ele>375.2</ele>
<time>2024-05-08T14:57:30Z</time>
</trkpt>
<trkpt lat="49.456306379288435" lon="9.202476488426328">
<ele>375.2</ele>
<time>2024-05-08T14:57:31Z</time>
</trkpt>
<trkpt lat="49.45628349669278" lon="9.202534658834338">
<ele>375.4</ele>
<time>2024-05-08T14:57:32Z</time>
</trkpt>
<trkpt lat="49.45626061409712" lon="9.202611856162548">
<ele>375.4</ele>
<time>2024-05-08T14:57:33Z</time>
</trkpt>
<trkpt lat="49.45623773150146" lon="9.202679581940174">
<ele>375.6</ele>
<time>2024-05-08T14:57:34Z</time>
</trkpt>
<trkpt lat="49.456211077049375" lon="9.202754935249686">
<ele>375.6</ele>
<time>2024-05-08T14:57:35Z</time>
</trkpt>
<trkpt lat="49.45618819445371" lon="9.20282358303666">
<ele>375.6</ele>
<time>2024-05-08T14:57:36Z</time>
</trkpt>
<trkpt lat="49.4561614561826" lon="9.202891308814287">
<ele>375.8</ele>
<time>2024-05-08T14:57:37Z</time>
</trkpt>
<trkpt lat="49.45613857358694" lon="9.202968589961529">
<ele>375.8</ele>
<time>2024-05-08T14:57:38Z</time>
</trkpt>
<trkpt lat="49.45611569099128" lon="9.203033382073045">
<ele>375.6</ele>
<time>2024-05-08T14:57:39Z</time>
</trkpt>
<trkpt lat="49.456088952720165" lon="9.203095408156514">
<ele>375.6</ele>
<time>2024-05-08T14:57:40Z</time>
</trkpt>
<trkpt lat="49.45606229826808" lon="9.203154500573874">
<ele>375.6</ele>
<time>2024-05-08T14:57:41Z</time>
</trkpt>
<trkpt lat="49.456031788140535" lon="9.203214598819612">
<ele>375.4</ele>
<time>2024-05-08T14:57:42Z</time>
</trkpt>
<trkpt lat="49.45600890554488" lon="9.20328039675951">
<ele>375.4</ele>
<time>2024-05-08T14:57:43Z</time>
</trkpt>
<trkpt lat="49.45598602294922" lon="9.203348122537136">
<ele>375.4</ele>
<time>2024-05-08T14:57:44Z</time>
</trkpt>
<trkpt lat="49.45596305653453" lon="9.203411992639303">
<ele>375.4</ele>
<time>2024-05-08T14:57:45Z</time>
</trkpt>
<trkpt lat="49.45594017393887" lon="9.203473012894392">
<ele>375.2</ele>
<time>2024-05-08T14:57:46Z</time>
</trkpt>
<trkpt lat="49.45591729134321" lon="9.203531183302402">
<ele>375.2</ele>
<time>2024-05-08T14:57:47Z</time>
</trkpt>
<trkpt lat="49.45589826442301" lon="9.203593209385872">
<ele>375.2</ele>
<time>2024-05-08T14:57:48Z</time>
</trkpt>
<trkpt lat="49.45587915368378" lon="9.20365707948804">
<ele>375</ele>
<time>2024-05-08T14:57:49Z</time>
</trkpt>
<trkpt lat="49.45586012676358" lon="9.203722877427936">
<ele>375</ele>
<time>2024-05-08T14:57:50Z</time>
</trkpt>
<trkpt lat="49.45583724416792" lon="9.203788675367832">
<ele>375</ele>
<time>2024-05-08T14:57:51Z</time>
</trkpt>
<trkpt lat="49.45581813342869" lon="9.20385355129838">
<ele>374.8</ele>
<time>2024-05-08T14:57:52Z</time>
</trkpt>
<trkpt lat="49.455795250833035" lon="9.203916499391198">
<ele>375</ele>
<time>2024-05-08T14:57:53Z</time>
</trkpt>
<trkpt lat="49.4557761400938" lon="9.203976597636938">
<ele>375</ele>
<time>2024-05-08T14:57:54Z</time>
</trkpt>
<trkpt lat="49.4557571131736" lon="9.20403284020722">
<ele>375</ele>
<time>2024-05-08T14:57:55Z</time>
</trkpt>
<trkpt lat="49.45573800243437" lon="9.204086232930422">
<ele>375.2</ele>
<time>2024-05-08T14:57:56Z</time>
</trkpt>
<trkpt lat="49.45571897551417" lon="9.20413015410304">
<ele>375.2</ele>
<time>2024-05-08T14:57:57Z</time>
</trkpt>
<trkpt lat="49.45569986477494" lon="9.204165441915393">
<ele>375.2</ele>
<time>2024-05-08T14:57:58Z</time>
</trkpt>
<trkpt lat="49.45567698217928" lon="9.204197879880669">
<ele>375.2</ele>
<time>2024-05-08T14:57:59Z</time>
</trkpt>
<trkpt lat="49.4556503277272" lon="9.204230234026909">
<ele>375.2</ele>
<time>2024-05-08T14:58:00Z</time>
</trkpt>
<trkpt lat="49.45562736131251" lon="9.204263677820563">
<ele>375.2</ele>
<time>2024-05-08T14:58:01Z</time>
</trkpt>
<trkpt lat="49.45560447871685" lon="9.204306593164802">
<ele>375.2</ele>
<time>2024-05-08T14:58:02Z</time>
</trkpt>
<trkpt lat="49.45558159612119" lon="9.204359985888004">
<ele>375.2</ele>
<time>2024-05-08T14:58:03Z</time>
</trkpt>
<trkpt lat="49.45556256920099" lon="9.204422933980824">
<ele>375</ele>
<time>2024-05-08T14:58:04Z</time>
</trkpt>
<trkpt lat="49.45554345846176" lon="9.204483032226563">
<ele>375</ele>
<time>2024-05-08T14:58:05Z</time>
</trkpt>
<trkpt lat="49.45552820339799" lon="9.204541202634571">
<ele>375</ele>
<time>2024-05-08T14:58:06Z</time>
</trkpt>
<trkpt lat="49.45551680400968" lon="9.204598367214205">
<ele>375</ele>
<time>2024-05-08T14:58:07Z</time>
</trkpt>
<trkpt lat="49.455501548945904" lon="9.204654693603516">
<ele>374.8</ele>
<time>2024-05-08T14:58:08Z</time>
</trkpt>
<trkpt lat="49.45548629388213" lon="9.204714708030224">
<ele>374.8</ele>
<time>2024-05-08T14:58:09Z</time>
</trkpt>
<trkpt lat="49.45547481067479" lon="9.204778661951424">
<ele>374.8</ele>
<time>2024-05-08T14:58:10Z</time>
</trkpt>
<trkpt lat="49.45546332746744" lon="9.204845381900668">
<ele>374.8</ele>
<time>2024-05-08T14:58:11Z</time>
</trkpt>
<trkpt lat="49.45545192807913" lon="9.204910257831216">
<ele>374.8</ele>
<time>2024-05-08T14:58:12Z</time>
</trkpt>
<trkpt lat="49.45544044487178" lon="9.20497697778046">
<ele>374.8</ele>
<time>2024-05-08T14:58:13Z</time>
</trkpt>
<trkpt lat="49.4554328173399" lon="9.205044703558087">
<ele>374.8</ele>
<time>2024-05-08T14:58:14Z</time>
</trkpt>
<trkpt lat="49.455421417951584" lon="9.205115279182792">
<ele>375</ele>
<time>2024-05-08T14:58:15Z</time>
</trkpt>
<trkpt lat="49.4554137904197" lon="9.205183004960418">
<ele>375</ele>
<time>2024-05-08T14:58:16Z</time>
</trkpt>
<trkpt lat="49.45540993474424" lon="9.205251652747393">
<ele>375.2</ele>
<time>2024-05-08T14:58:17Z</time>
</trkpt>
<trkpt lat="49.45540616288781" lon="9.205321306362748">
<ele>375.2</ele>
<time>2024-05-08T14:58:18Z</time>
</trkpt>
<trkpt lat="49.45540616288781" lon="9.205389954149725">
<ele>375.4</ele>
<time>2024-05-08T14:58:19Z</time>
</trkpt>
<trkpt lat="49.45540616288781" lon="9.205459523946049">
<ele>375.4</ele>
<time>2024-05-08T14:58:20Z</time>
</trkpt>
<trkpt lat="49.45540616288781" lon="9.205528255552052">
<ele>375.4</ele>
<time>2024-05-08T14:58:21Z</time>
</trkpt>
<trkpt lat="49.45540993474424" lon="9.205596903339028">
<ele>375.6</ele>
<time>2024-05-08T14:58:22Z</time>
</trkpt>
<trkpt lat="49.4554137904197" lon="9.205666473135352">
<ele>375.6</ele>
<time>2024-05-08T14:58:23Z</time>
</trkpt>
<trkpt lat="49.455421417951584" lon="9.205738054588435">
<ele>375.6</ele>
<time>2024-05-08T14:58:24Z</time>
</trkpt>
<trkpt lat="49.45542904548347" lon="9.20581148006022">
<ele>375.6</ele>
<time>2024-05-08T14:58:25Z</time>
</trkpt>
<trkpt lat="49.45543667301536" lon="9.205882977694271">
<ele>375.8</ele>
<time>2024-05-08T14:58:26Z</time>
</trkpt>
<trkpt lat="49.45544807240367" lon="9.205953553318976">
<ele>375.8</ele>
<time>2024-05-08T14:58:27Z</time>
</trkpt>
<trkpt lat="49.455459555611014" lon="9.206021279096603">
<ele>376</ele>
<time>2024-05-08T14:58:28Z</time>
</trkpt>
<trkpt lat="49.4554671831429" lon="9.2060870770365">
<ele>376.2</ele>
<time>2024-05-08T14:58:29Z</time>
</trkpt>
<trkpt lat="49.455478666350245" lon="9.206150025129318">
<ele>376.2</ele>
<time>2024-05-08T14:58:30Z</time>
</trkpt>
<trkpt lat="49.45549392141402" lon="9.206212973222136">
<ele>376.4</ele>
<time>2024-05-08T14:58:31Z</time>
</trkpt>
<trkpt lat="49.45550917647779" lon="9.206276843324304">
<ele>376.4</ele>
<time>2024-05-08T14:58:32Z</time>
</trkpt>
<trkpt lat="49.45552443154156" lon="9.206339791417122">
<ele>376.6</ele>
<time>2024-05-08T14:58:33Z</time>
</trkpt>
<trkpt lat="49.45554345846176" lon="9.206401817500591">
<ele>376.6</ele>
<time>2024-05-08T14:58:34Z</time>
</trkpt>
<trkpt lat="49.45556256920099" lon="9.20646283775568">
<ele>376.6</ele>
<time>2024-05-08T14:58:35Z</time>
</trkpt>
<trkpt lat="49.45558545179665" lon="9.20652293600142">
<ele>376.8</ele>
<time>2024-05-08T14:58:36Z</time>
</trkpt>
<trkpt lat="49.45560833439231" lon="9.20658202841878">
<ele>376.8</ele>
<time>2024-05-08T14:58:37Z</time>
</trkpt>
<trkpt lat="49.45562736131251" lon="9.206643048673868">
<ele>377</ele>
<time>2024-05-08T14:58:38Z</time>
</trkpt>
<trkpt lat="49.4556503277272" lon="9.20670029707253">
<ele>377.2</ele>
<time>2024-05-08T14:58:39Z</time>
</trkpt>
<trkpt lat="49.45567698217928" lon="9.20675461180508">
<ele>377.2</ele>
<time>2024-05-08T14:58:40Z</time>
</trkpt>
<trkpt lat="49.4557037204504" lon="9.206805154681206">
<ele>377.4</ele>
<time>2024-05-08T14:58:41Z</time>
</trkpt>
<trkpt lat="49.455734230577946" lon="9.206851925700905">
<ele>377.4</ele>
<time>2024-05-08T14:58:42Z</time>
</trkpt>
<trkpt lat="49.45576474070549" lon="9.206892913207412">
<ele>377.6</ele>
<time>2024-05-08T14:58:43Z</time>
</trkpt>
<trkpt lat="49.45579902268946" lon="9.206928201019764">
<ele>377.6</ele>
<time>2024-05-08T14:58:44Z</time>
</trkpt>
<trkpt lat="49.455833388492465" lon="9.206963488832116">
<ele>377.6</ele>
<time>2024-05-08T14:58:45Z</time>
</trkpt>
<trkpt lat="49.455871526151896" lon="9.206999698653815">
<ele>377.8</ele>
<time>2024-05-08T14:58:46Z</time>
</trkpt>
<trkpt lat="49.4559058919549" lon="9.207043619826436">
<ele>377.8</ele>
<time>2024-05-08T14:58:47Z</time>
</trkpt>
<trkpt lat="49.45594017393887" lon="9.207086535170674">
<ele>377.8</ele>
<time>2024-05-08T14:58:48Z</time>
</trkpt>
<trkpt lat="49.4559783115983" lon="9.2071370780468">
<ele>377.6</ele>
<time>2024-05-08T14:58:49Z</time>
</trkpt>
<trkpt lat="49.456012677401304" lon="9.207189548760653">
<ele>377.6</ele>
<time>2024-05-08T14:58:50Z</time>
</trkpt>
<trkpt lat="49.456050815060735" lon="9.207248641178012">
<ele>377.4</ele>
<time>2024-05-08T14:58:51Z</time>
</trkpt>
<trkpt lat="49.456088952720165" lon="9.207308739423752">
<ele>377.4</ele>
<time>2024-05-08T14:58:52Z</time>
</trkpt>
<trkpt lat="49.4561270903796" lon="9.207374537363648">
<ele>377.2</ele>
<time>2024-05-08T14:58:53Z</time>
</trkpt>
<trkpt lat="49.4561614561826" lon="9.207445112988353">
<ele>377.2</ele>
<time>2024-05-08T14:58:54Z</time>
</trkpt>
<trkpt lat="49.45619959384203" lon="9.207513760775328">
<ele>377</ele>
<time>2024-05-08T14:58:55Z</time>
</trkpt>
<trkpt lat="49.45624158717692" lon="9.207574781030416">
<ele>376.8</ele>
<time>2024-05-08T14:58:56Z</time>
</trkpt>
<trkpt lat="49.45627972483635" lon="9.207638734951615">
<ele>376.6</ele>
<time>2024-05-08T14:58:57Z</time>
</trkpt>
<trkpt lat="49.45631400682032" lon="9.207697827368976">
<ele>376.4</ele>
<time>2024-05-08T14:58:58Z</time>
</trkpt>
<trkpt lat="49.45634074509144" lon="9.207757925614716">
<ele>376.2</ele>
<time>2024-05-08T14:58:59Z</time>
</trkpt>
<trkpt lat="49.4563636276871" lon="9.207811318337916">
<ele>376</ele>
<time>2024-05-08T14:59:00Z</time>
</trkpt>
<trkpt lat="49.456390365958214" lon="9.207859933376312">
<ele>375.8</ele>
<time>2024-05-08T14:59:01Z</time>
</trkpt>
<trkpt lat="49.4564170204103" lon="9.207901926711202">
<ele>375.6</ele>
<time>2024-05-08T14:59:02Z</time>
</trkpt>
<trkpt lat="49.45643990300596" lon="9.207941992208362">
<ele>375.4</ele>
<time>2024-05-08T14:59:03Z</time>
</trkpt>
<trkpt lat="49.456462785601616" lon="9.207980129867792">
<ele>375.2</ele>
<time>2024-05-08T14:59:04Z</time>
</trkpt>
<trkpt lat="49.45648952387273" lon="9.208016339689491">
<ele>375.2</ele>
<time>2024-05-08T14:59:05Z</time>
</trkpt>
<trkpt lat="49.45651240646839" lon="9.208047855645418">
<ele>375</ele>
<time>2024-05-08T14:59:06Z</time>
</trkpt>
<trkpt lat="49.45653151720762" lon="9.20808314345777">
<ele>375</ele>
<time>2024-05-08T14:59:07Z</time>
</trkpt>
<trkpt lat="49.45655054412782" lon="9.208118431270124">
<ele>375</ele>
<time>2024-05-08T14:59:08Z</time>
</trkpt>
<trkpt lat="49.45657342672348" lon="9.208147013559936">
<ele>375</ele>
<time>2024-05-08T14:59:09Z</time>
</trkpt>
<trkpt lat="49.4566001649946" lon="9.208174673840404">
<ele>374.8</ele>
<time>2024-05-08T14:59:10Z</time>
</trkpt>
<trkpt lat="49.45662681944668" lon="9.208216667175291">
<ele>374.8</ele>
<time>2024-05-08T14:59:11Z</time>
</trkpt>
<trkpt lat="49.45664970204234" lon="9.208263354375958">
<ele>374.8</ele>
<time>2024-05-08T14:59:12Z</time>
</trkpt>
<trkpt lat="49.45667644031346" lon="9.208306269720197">
<ele>374.6</ele>
<time>2024-05-08T14:59:13Z</time>
</trkpt>
<trkpt lat="49.45669555105269" lon="9.208353040739894">
<ele>374.6</ele>
<time>2024-05-08T14:59:14Z</time>
</trkpt>
<trkpt lat="49.45671843364835" lon="9.208406433463097">
<ele>374.6</ele>
<time>2024-05-08T14:59:15Z</time>
</trkpt>
<trkpt lat="49.45674508810043" lon="9.20845697633922">
<ele>374.6</ele>
<time>2024-05-08T14:59:16Z</time>
</trkpt>
<trkpt lat="49.45677182637155" lon="9.208503663539886">
<ele>374.6</ele>
<time>2024-05-08T14:59:17Z</time>
</trkpt>
<trkpt lat="49.45679848082363" lon="9.208548506721854">
<ele>374.6</ele>
<time>2024-05-08T14:59:18Z</time>
</trkpt>
<trkpt lat="49.45682899095118" lon="9.208599971607327">
<ele>374.8</ele>
<time>2024-05-08T14:59:19Z</time>
</trkpt>
<trkpt lat="49.456863356754184" lon="9.208658142015338">
<ele>374.8</ele>
<time>2024-05-08T14:59:20Z</time>
</trkpt>
<trkpt lat="49.456901494413614" lon="9.208711618557572">
<ele>374.8</ele>
<time>2024-05-08T14:59:21Z</time>
</trkpt>
<trkpt lat="49.456943487748504" lon="9.208765011280777">
<ele>374.8</ele>
<time>2024-05-08T14:59:22Z</time>
</trkpt>
<trkpt lat="49.456981625407934" lon="9.208823181688786">
<ele>374.8</ele>
<time>2024-05-08T14:59:23Z</time>
</trkpt>
<trkpt lat="49.45702739059925" lon="9.208887973800302">
<ele>374.8</ele>
<time>2024-05-08T14:59:24Z</time>
</trkpt>
<trkpt lat="49.45707315579057" lon="9.208961483091116">
<ele>374.8</ele>
<time>2024-05-08T14:59:25Z</time>
</trkpt>
<trkpt lat="49.45711514912546" lon="9.20905016362667">
<ele>374.6</ele>
<time>2024-05-08T14:59:26Z</time>
</trkpt>
<trkpt lat="49.45714180357754" lon="9.209139766171576">
<ele>374.6</ele>
<time>2024-05-08T14:59:27Z</time>
</trkpt>
<trkpt lat="49.45716091431677" lon="9.209231296554208">
<ele>374.6</ele>
<time>2024-05-08T14:59:28Z</time>
</trkpt>
<trkpt lat="49.45716854184866" lon="9.209318133071063">
<ele>374.4</ele>
<time>2024-05-08T14:59:29Z</time>
</trkpt>
<trkpt lat="49.457176169380546" lon="9.20940488576889">
<ele>374.2</ele>
<time>2024-05-08T14:59:30Z</time>
</trkpt>
<trkpt lat="49.45717994123697" lon="9.209489794448018">
<ele>374.2</ele>
<time>2024-05-08T14:59:31Z</time>
</trkpt>
<trkpt lat="49.45718379691243" lon="9.209574619308114">
<ele>374</ele>
<time>2024-05-08T14:59:32Z</time>
</trkpt>
<trkpt lat="49.45718765258789" lon="9.209659527987242">
<ele>374</ele>
<time>2024-05-08T14:59:33Z</time>
</trkpt>
<trkpt lat="49.45719142444432" lon="9.209743430837989">
<ele>373.8</ele>
<time>2024-05-08T14:59:34Z</time>
</trkpt>
<trkpt lat="49.45720290765166" lon="9.209828339517117">
<ele>373.8</ele>
<time>2024-05-08T14:59:35Z</time>
</trkpt>
<trkpt lat="49.45722956210375" lon="9.209895059466362">
<ele>373.8</ele>
<time>2024-05-08T14:59:36Z</time>
</trkpt>
<trkpt lat="49.45726392790675" lon="9.209943758323789">
<ele>373.8</ele>
<time>2024-05-08T14:59:37Z</time>
</trkpt>
<trkpt lat="49.45730583742261" lon="9.20997804030776">
<ele>373.6</ele>
<time>2024-05-08T14:59:38Z</time>
</trkpt>
<trkpt lat="49.45734397508204" lon="9.210008550435305">
<ele>373.6</ele>
<time>2024-05-08T14:59:40Z</time>
</trkpt>
<trkpt lat="49.457416478544474" lon="9.21006202697754">
<ele>373.4</ele>
<time>2024-05-08T14:59:41Z</time>
</trkpt>
<trkpt lat="49.45745084434748" lon="9.210086753591897">
<ele>373.4</ele>
<time>2024-05-08T14:59:42Z</time>
</trkpt>
<trkpt lat="49.45748135447502" lon="9.210104942321776">
<ele>373.2</ele>
<time>2024-05-08T14:59:43Z</time>
</trkpt>
<trkpt lat="49.45750800892711" lon="9.210122041404247">
<ele>373.2</ele>
<time>2024-05-08T14:59:44Z</time>
</trkpt>
<trkpt lat="49.4575309753418" lon="9.21013637445867">
<ele>373</ele>
<time>2024-05-08T14:59:45Z</time>
</trkpt>
<trkpt lat="49.45756148546934" lon="9.210151629522445">
<ele>373</ele>
<time>2024-05-08T14:59:46Z</time>
</trkpt>
<trkpt lat="49.45759962312877" lon="9.210166884586217">
<ele>373</ele>
<time>2024-05-08T14:59:47Z</time>
</trkpt>
<trkpt lat="49.45763390511274" lon="9.210183061659336">
<ele>372.8</ele>
<time>2024-05-08T14:59:48Z</time>
</trkpt>
<trkpt lat="49.457672042772174" lon="9.210209799930452">
<ele>372.8</ele>
<time>2024-05-08T14:59:49Z</time>
</trkpt>
<trkpt lat="49.45771026425064" lon="9.210238382220268">
<ele>372.8</ele>
<time>2024-05-08T14:59:50Z</time>
</trkpt>
<trkpt lat="49.45774840191007" lon="9.210274675861">
<ele>372.8</ele>
<time>2024-05-08T14:59:51Z</time>
</trkpt>
<trkpt lat="49.45777505636215" lon="9.210318513214588">
<ele>372.8</ele>
<time>2024-05-08T14:59:52Z</time>
</trkpt>
<trkpt lat="49.45779793895781" lon="9.210361428558826">
<ele>372.8</ele>
<time>2024-05-08T14:59:53Z</time>
</trkpt>
<trkpt lat="49.45782082155347" lon="9.210403421893716">
<ele>373</ele>
<time>2024-05-08T14:59:54Z</time>
</trkpt>
<trkpt lat="49.45784370414913" lon="9.210446337237954">
<ele>373</ele>
<time>2024-05-08T14:59:55Z</time>
</trkpt>
<trkpt lat="49.45787044242024" lon="9.21049210242927">
<ele>373.2</ele>
<time>2024-05-08T14:59:56Z</time>
</trkpt>
<trkpt lat="49.45789718069136" lon="9.210543567314744">
<ele>373.2</ele>
<time>2024-05-08T14:59:57Z</time>
</trkpt>
<trkpt lat="49.45792006328702" lon="9.210596960037948">
<ele>373.4</ele>
<time>2024-05-08T14:59:58Z</time>
</trkpt>
<trkpt lat="49.457946717739105" lon="9.21065043658018">
<ele>373.6</ele>
<time>2024-05-08T14:59:59Z</time>
</trkpt>
<trkpt lat="49.45797345601022" lon="9.210698045790195">
<ele>373.8</ele>
<time>2024-05-08T15:00:00Z</time>
</trkpt>
<trkpt lat="49.45800011046231" lon="9.210748672485352">
<ele>374</ele>
<time>2024-05-08T15:00:01Z</time>
</trkpt>
<trkpt lat="49.458026848733425" lon="9.210796281695366">
<ele>374.4</ele>
<time>2024-05-08T15:00:02Z</time>
</trkpt>
<trkpt lat="49.45805358700454" lon="9.210843052715065">
<ele>374.6</ele>
<time>2024-05-08T15:00:03Z</time>
</trkpt>
<trkpt lat="49.45808024145663" lon="9.210891667753458">
<ele>374.8</ele>
<time>2024-05-08T15:00:04Z</time>
</trkpt>
<trkpt lat="49.458106979727745" lon="9.210941288620234">
<ele>375</ele>
<time>2024-05-08T15:00:05Z</time>
</trkpt>
<trkpt lat="49.45813363417983" lon="9.210991831496358">
<ele>375.2</ele>
<time>2024-05-08T15:00:06Z</time>
</trkpt>
<trkpt lat="49.45816037245095" lon="9.211043296381831">
<ele>375.4</ele>
<time>2024-05-08T15:00:07Z</time>
</trkpt>
<trkpt lat="49.45818702690303" lon="9.211092917248608">
<ele>375.6</ele>
<time>2024-05-08T15:00:08Z</time>
</trkpt>
<trkpt lat="49.45821762084961" lon="9.211143460124733">
<ele>375.8</ele>
<time>2024-05-08T15:00:09Z</time>
</trkpt>
<trkpt lat="49.458248130977154" lon="9.211193080991508">
<ele>376</ele>
<time>2024-05-08T15:00:10Z</time>
</trkpt>
<trkpt lat="49.45827478542924" lon="9.211241696029902">
<ele>376</ele>
<time>2024-05-08T15:00:11Z</time>
</trkpt>
<trkpt lat="49.45830152370036" lon="9.211288383230569">
<ele>376.2</ele>
<time>2024-05-08T15:00:12Z</time>
</trkpt>
<trkpt lat="49.45832817815244" lon="9.211337082087994">
<ele>376.2</ele>
<time>2024-05-08T15:00:13Z</time>
</trkpt>
<trkpt lat="49.458358688279986" lon="9.21138284727931">
<ele>376.2</ele>
<time>2024-05-08T15:00:14Z</time>
</trkpt>
<trkpt lat="49.458385426551104" lon="9.211431462317703">
<ele>376.4</ele>
<time>2024-05-08T15:00:15Z</time>
</trkpt>
<trkpt lat="49.45840830914676" lon="9.2114800773561">
<ele>376.4</ele>
<time>2024-05-08T15:00:16Z</time>
</trkpt>
<trkpt lat="49.45843504741788" lon="9.211524920538068">
<ele>376.4</ele>
<time>2024-05-08T15:00:17Z</time>
</trkpt>
<trkpt lat="49.45845793001354" lon="9.211567835882306">
<ele>376.4</ele>
<time>2024-05-08T15:00:18Z</time>
</trkpt>
<trkpt lat="49.4584808126092" lon="9.211611673235891">
<ele>376.4</ele>
<time>2024-05-08T15:00:19Z</time>
</trkpt>
<trkpt lat="49.458503695204854" lon="9.211653666570784">
<ele>376.6</ele>
<time>2024-05-08T15:00:20Z</time>
</trkpt>
<trkpt lat="49.45852657780051" lon="9.211693732067944">
<ele>376.6</ele>
<time>2024-05-08T15:00:21Z</time>
</trkpt>
<trkpt lat="49.45854946039617" lon="9.211732791736722">
<ele>376.6</ele>
<time>2024-05-08T15:00:22Z</time>
</trkpt>
<trkpt lat="49.4585685711354" lon="9.211772857233882">
<ele>376.6</ele>
<time>2024-05-08T15:00:23Z</time>
</trkpt>
<trkpt lat="49.45859145373106" lon="9.2118167784065">
<ele>376.6</ele>
<time>2024-05-08T15:00:24Z</time>
</trkpt>
<trkpt lat="49.45861048065126" lon="9.21185868792236">
<ele>376.6</ele>
<time>2024-05-08T15:00:25Z</time>
</trkpt>
<trkpt lat="49.45862573571503" lon="9.211896825581787">
<ele>376.8</ele>
<time>2024-05-08T15:00:26Z</time>
</trkpt>
<trkpt lat="49.45863336324692" lon="9.211926413699985">
<ele>376.8</ele>
<time>2024-05-08T15:00:27Z</time>
</trkpt>
<trkpt lat="49.45864484645426" lon="9.211953151971102">
<ele>376.8</ele>
<time>2024-05-08T15:00:28Z</time>
</trkpt>
<trkpt lat="49.45865247398615" lon="9.211977878585458">
<ele>377</ele>
<time>2024-05-08T15:00:29Z</time>
</trkpt>
<trkpt lat="49.458660101518035" lon="9.212010316550732">
<ele>377</ele>
<time>2024-05-08T15:00:30Z</time>
</trkpt>
<trkpt lat="49.45866772904992" lon="9.212050382047892">
<ele>377</ele>
<time>2024-05-08T15:00:31Z</time>
</trkpt>
<trkpt lat="49.458679128438234" lon="9.2120913695544">
<ele>377.2</ele>
<time>2024-05-08T15:00:32Z</time>
</trkpt>
<trkpt lat="49.45869061164558" lon="9.21213143505156">
<ele>377.2</ele>
<time>2024-05-08T15:00:33Z</time>
</trkpt>
<trkpt lat="49.45870586670935" lon="9.212169572710993">
<ele>377.4</ele>
<time>2024-05-08T15:00:34Z</time>
</trkpt>
<trkpt lat="49.45872489362955" lon="9.212203016504644">
<ele>377.4</ele>
<time>2024-05-08T15:00:35Z</time>
</trkpt>
<trkpt lat="49.45875163190067" lon="9.212235370650887">
<ele>377.6</ele>
<time>2024-05-08T15:00:36Z</time>
</trkpt>
<trkpt lat="49.458778370171785" lon="9.212261186912656">
<ele>377.6</ele>
<time>2024-05-08T15:00:37Z</time>
</trkpt>
<trkpt lat="49.458797397091985" lon="9.212296474725008">
<ele>377.8</ele>
<time>2024-05-08T15:00:38Z</time>
</trkpt>
<trkpt lat="49.458816507831216" lon="9.21233176253736">
<ele>377.8</ele>
<time>2024-05-08T15:00:39Z</time>
</trkpt>
<trkpt lat="49.458839390426874" lon="9.21236990019679">
<ele>377.8</ele>
<time>2024-05-08T15:00:40Z</time>
</trkpt>
<trkpt lat="49.458858417347074" lon="9.212405188009145">
<ele>377.8</ele>
<time>2024-05-08T15:00:41Z</time>
</trkpt>
<trkpt lat="49.45888515561819" lon="9.212438547983766">
<ele>378</ele>
<time>2024-05-08T15:00:42Z</time>
</trkpt>
<trkpt lat="49.45890803821385" lon="9.212476685643196">
<ele>378</ele>
<time>2024-05-08T15:00:43Z</time>
</trkpt>
<trkpt lat="49.45893092080951" lon="9.212516751140356">
<ele>378</ele>
<time>2024-05-08T15:00:44Z</time>
</trkpt>
<trkpt lat="49.458953803405166" lon="9.212558744475244">
<ele>378</ele>
<time>2024-05-08T15:00:45Z</time>
</trkpt>
<trkpt lat="49.458976686000824" lon="9.212599731981754">
<ele>378.2</ele>
<time>2024-05-08T15:00:46Z</time>
</trkpt>
<trkpt lat="49.458995796740055" lon="9.212641641497612">
<ele>378.2</ele>
<time>2024-05-08T15:00:47Z</time>
</trkpt>
<trkpt lat="49.45901867933571" lon="9.21268455684185">
<ele>378.2</ele>
<time>2024-05-08T15:00:48Z</time>
</trkpt>
<trkpt lat="49.45904156193137" lon="9.21272655017674">
<ele>378.2</ele>
<time>2024-05-08T15:00:49Z</time>
</trkpt>
<trkpt lat="49.45906821638346" lon="9.212771393358707">
<ele>378.4</ele>
<time>2024-05-08T15:00:50Z</time>
</trkpt>
<trkpt lat="49.45909118279815" lon="9.212816236540675">
<ele>378.4</ele>
<time>2024-05-08T15:00:51Z</time>
</trkpt>
<trkpt lat="49.45911783725023" lon="9.21286485157907">
<ele>378.6</ele>
<time>2024-05-08T15:00:52Z</time>
</trkpt>
<trkpt lat="49.45914457552135" lon="9.212913466617463">
<ele>378.6</ele>
<time>2024-05-08T15:00:53Z</time>
</trkpt>
<trkpt lat="49.459171229973435" lon="9.212958309799433">
<ele>378.8</ele>
<time>2024-05-08T15:00:54Z</time>
</trkpt>
<trkpt lat="49.45920174010098" lon="9.213006924837828">
<ele>378.8</ele>
<time>2024-05-08T15:00:55Z</time>
</trkpt>
<trkpt lat="49.4592284783721" lon="9.213053695857525">
<ele>379</ele>
<time>2024-05-08T15:00:56Z</time>
</trkpt>
<trkpt lat="49.459255216643214" lon="9.21310038305819">
<ele>379</ele>
<time>2024-05-08T15:00:57Z</time>
</trkpt>
<trkpt lat="49.4592818710953" lon="9.213145226240158">
<ele>379.2</ele>
<time>2024-05-08T15:00:58Z</time>
</trkpt>
<trkpt lat="49.45931238122285" lon="9.213192919269204">
<ele>379.4</ele>
<time>2024-05-08T15:00:59Z</time>
</trkpt>
<trkpt lat="49.45933911949396" lon="9.21323960646987">
<ele>379.4</ele>
<time>2024-05-08T15:01:00Z</time>
</trkpt>
<trkpt lat="49.45936577394605" lon="9.213288305327296">
<ele>379.6</ele>
<time>2024-05-08T15:01:01Z</time>
</trkpt>
<trkpt lat="49.45939628407359" lon="9.213336920365691">
<ele>379.8</ele>
<time>2024-05-08T15:01:02Z</time>
</trkpt>
<trkpt lat="49.45942302234471" lon="9.213386457413437">
<ele>379.8</ele>
<time>2024-05-08T15:01:03Z</time>
</trkpt>
<trkpt lat="49.459449760615826" lon="9.21343700028956">
<ele>380</ele>
<time>2024-05-08T15:01:04Z</time>
</trkpt>
<trkpt lat="49.45947641506791" lon="9.213484693318604">
<ele>380</ele>
<time>2024-05-08T15:01:05Z</time>
</trkpt>
<trkpt lat="49.45950315333903" lon="9.213531464338304">
<ele>380.2</ele>
<time>2024-05-08T15:01:06Z</time>
</trkpt>
<trkpt lat="49.459529807791114" lon="9.213578151538968">
<ele>380.2</ele>
<time>2024-05-08T15:01:07Z</time>
</trkpt>
<trkpt lat="49.45956031791866" lon="9.213622994720936">
<ele>380.2</ele>
<time>2024-05-08T15:01:08Z</time>
</trkpt>
<trkpt lat="49.459587056189775" lon="9.213669765740631">
<ele>380.2</ele>
<time>2024-05-08T15:01:09Z</time>
</trkpt>
<trkpt lat="49.459609938785434" lon="9.213716452941298">
<ele>380.4</ele>
<time>2024-05-08T15:01:10Z</time>
</trkpt>
<trkpt lat="49.45963667705655" lon="9.213765067979692">
<ele>380.4</ele>
<time>2024-05-08T15:01:11Z</time>
</trkpt>
<trkpt lat="49.45966333150864" lon="9.213814688846467">
<ele>380.4</ele>
<time>2024-05-08T15:01:12Z</time>
</trkpt>
<trkpt lat="49.459690069779754" lon="9.213863303884864">
<ele>380.6</ele>
<time>2024-05-08T15:01:13Z</time>
</trkpt>
<trkpt lat="49.45971672423184" lon="9.21391292475164">
<ele>380.6</ele>
<time>2024-05-08T15:01:14Z</time>
</trkpt>
<trkpt lat="49.45974346250296" lon="9.213963467627764">
<ele>380.8</ele>
<time>2024-05-08T15:01:15Z</time>
</trkpt>
<trkpt lat="49.459770200774074" lon="9.21401208266616">
<ele>380.8</ele>
<time>2024-05-08T15:01:16Z</time>
</trkpt>
<trkpt lat="49.45979308336973" lon="9.214061703532934">
<ele>380.8</ele>
<time>2024-05-08T15:01:17Z</time>
</trkpt>
<trkpt lat="49.45981973782182" lon="9.21411132439971">
<ele>381</ele>
<time>2024-05-08T15:01:18Z</time>
</trkpt>
<trkpt lat="49.459846476092935" lon="9.214159939438105">
<ele>381</ele>
<time>2024-05-08T15:01:19Z</time>
</trkpt>
<trkpt lat="49.45987313054502" lon="9.214209476485848">
<ele>381</ele>
<time>2024-05-08T15:01:20Z</time>
</trkpt>
<trkpt lat="49.45989601314068" lon="9.214258175343277">
<ele>381</ele>
<time>2024-05-08T15:01:21Z</time>
</trkpt>
<trkpt lat="49.45991889573634" lon="9.21430486254394">
<ele>381.2</ele>
<time>2024-05-08T15:01:22Z</time>
</trkpt>
<trkpt lat="49.45994186215103" lon="9.214351633563638">
<ele>381.2</ele>
<time>2024-05-08T15:01:23Z</time>
</trkpt>
<trkpt lat="49.45996851660311" lon="9.214398320764303">
<ele>381.4</ele>
<time>2024-05-08T15:01:24Z</time>
</trkpt>
<trkpt lat="49.45999139919877" lon="9.21444123610854">
<ele>381.4</ele>
<time>2024-05-08T15:01:25Z</time>
</trkpt>
<trkpt lat="49.46001813746989" lon="9.21448515728116">
<ele>381.6</ele>
<time>2024-05-08T15:01:26Z</time>
</trkpt>
<trkpt lat="49.460041020065546" lon="9.214527066797018">
<ele>381.6</ele>
<time>2024-05-08T15:01:27Z</time>
</trkpt>
<trkpt lat="49.46006767451763" lon="9.21456813812256">
<ele>381.8</ele>
<time>2024-05-08T15:01:28Z</time>
</trkpt>
<trkpt lat="49.46008678525686" lon="9.214610047638416">
<ele>381.8</ele>
<time>2024-05-08T15:01:29Z</time>
</trkpt>
<trkpt lat="49.46011352352798" lon="9.214652040973306">
<ele>382</ele>
<time>2024-05-08T15:01:30Z</time>
</trkpt>
<trkpt lat="49.46013640612364" lon="9.214690178632736">
<ele>382</ele>
<time>2024-05-08T15:01:31Z</time>
</trkpt>
<trkpt lat="49.46016306057573" lon="9.21472353860736">
<ele>382.2</ele>
<time>2024-05-08T15:01:32Z</time>
</trkpt>
<trkpt lat="49.46018979884684" lon="9.214757904410362">
<ele>382.2</ele>
<time>2024-05-08T15:01:33Z</time>
</trkpt>
<trkpt lat="49.46020882576704" lon="9.214790342375636">
<ele>382.2</ele>
<time>2024-05-08T15:01:34Z</time>
</trkpt>
<trkpt lat="49.4602317083627" lon="9.21481791883707">
<ele>382.2</ele>
<time>2024-05-08T15:01:35Z</time>
</trkpt>
<trkpt lat="49.46024319157005" lon="9.214844657108188">
<ele>382.2</ele>
<time>2024-05-08T15:01:36Z</time>
</trkpt>
<trkpt lat="49.460258446633816" lon="9.214873239398004">
<ele>382.2</ele>
<time>2024-05-08T15:01:37Z</time>
</trkpt>
<trkpt lat="49.46027370169759" lon="9.21489997766912">
<ele>382.2</ele>
<time>2024-05-08T15:01:38Z</time>
</trkpt>
<trkpt lat="49.46028895676136" lon="9.214926715940235">
<ele>382.2</ele>
<time>2024-05-08T15:01:39Z</time>
</trkpt>
<trkpt lat="49.46030806750059" lon="9.214953370392324">
<ele>382.2</ele>
<time>2024-05-08T15:01:40Z</time>
</trkpt>
<trkpt lat="49.46032332256436" lon="9.214982958510518">
<ele>382.2</ele>
<time>2024-05-08T15:01:41Z</time>
</trkpt>
<trkpt lat="49.460338577628136" lon="9.215015396475792">
<ele>382.2</ele>
<time>2024-05-08T15:01:42Z</time>
</trkpt>
<trkpt lat="49.460357604548335" lon="9.215043056756258">
<ele>382.2</ele>
<time>2024-05-08T15:01:43Z</time>
</trkpt>
<trkpt lat="49.46038048714399" lon="9.215074488893151">
<ele>382.2</ele>
<time>2024-05-08T15:01:44Z</time>
</trkpt>
<trkpt lat="49.46040336973965" lon="9.215104999020696">
<ele>382.2</ele>
<time>2024-05-08T15:01:45Z</time>
</trkpt>
<trkpt lat="49.46042625233531" lon="9.21513651497662">
<ele>382.4</ele>
<time>2024-05-08T15:01:46Z</time>
</trkpt>
<trkpt lat="49.46045299060643" lon="9.215165097266436">
<ele>382.4</ele>
<time>2024-05-08T15:01:47Z</time>
</trkpt>
<trkpt lat="49.460479728877544" lon="9.21519367955625">
<ele>382.4</ele>
<time>2024-05-08T15:01:48Z</time>
</trkpt>
<trkpt lat="49.46051023900509" lon="9.215220417827368">
<ele>382.6</ele>
<time>2024-05-08T15:01:49Z</time>
</trkpt>
<trkpt lat="49.46053312160075" lon="9.215250005945563">
<ele>382.6</ele>
<time>2024-05-08T15:01:50Z</time>
</trkpt>
<trkpt lat="49.46055977605283" lon="9.215279510244727">
<ele>382.6</ele>
<time>2024-05-08T15:01:51Z</time>
</trkpt>
<trkpt lat="49.46059028618038" lon="9.215310020372272">
<ele>382.8</ele>
<time>2024-05-08T15:01:52Z</time>
</trkpt>
<trkpt lat="49.460617024451494" lon="9.215341536328197">
<ele>382.8</ele>
<time>2024-05-08T15:01:53Z</time>
</trkpt>
<trkpt lat="49.46063990704715" lon="9.215370118618011">
<ele>382.8</ele>
<time>2024-05-08T15:01:54Z</time>
</trkpt>
<trkpt lat="49.46066278964281" lon="9.215399706736209">
<ele>383</ele>
<time>2024-05-08T15:01:55Z</time>
</trkpt>
<trkpt lat="49.46068567223847" lon="9.215426445007324">
<ele>383</ele>
<time>2024-05-08T15:01:56Z</time>
</trkpt>
<trkpt lat="49.4607047829777" lon="9.21545117162168">
<ele>383</ele>
<time>2024-05-08T15:01:57Z</time>
</trkpt>
<trkpt lat="49.460731437429786" lon="9.215477909892796">
<ele>383.2</ele>
<time>2024-05-08T15:01:58Z</time>
</trkpt>
<trkpt lat="49.4607581757009" lon="9.215503642335534">
<ele>383.4</ele>
<time>2024-05-08T15:01:59Z</time>
</trkpt>
<trkpt lat="49.46078483015299" lon="9.215528452768922">
<ele>383.4</ele>
<time>2024-05-08T15:02:00Z</time>
</trkpt>
<trkpt lat="49.460811568424106" lon="9.21555519104004">
<ele>383.6</ele>
<time>2024-05-08T15:02:01Z</time>
</trkpt>
<trkpt lat="49.46083830669522" lon="9.215583773329854">
<ele>383.6</ele>
<time>2024-05-08T15:02:02Z</time>
</trkpt>
<trkpt lat="49.46086496114731" lon="9.21561336144805">
<ele>383.6</ele>
<time>2024-05-08T15:02:03Z</time>
</trkpt>
<trkpt lat="49.460891699418426" lon="9.215642865747212">
<ele>383.6</ele>
<time>2024-05-08T15:02:04Z</time>
</trkpt>
<trkpt lat="49.46092220954597" lon="9.215676225721836">
<ele>383.6</ele>
<time>2024-05-08T15:02:05Z</time>
</trkpt>
<trkpt lat="49.460952719673514" lon="9.21570966951549">
<ele>383.6</ele>
<time>2024-05-08T15:02:06Z</time>
</trkpt>
<trkpt lat="49.46097945794463" lon="9.215743029490111">
<ele>383.6</ele>
<time>2024-05-08T15:02:07Z</time>
</trkpt>
<trkpt lat="49.461009968072176" lon="9.215778317302464">
<ele>383.8</ele>
<time>2024-05-08T15:02:08Z</time>
</trkpt>
<trkpt lat="49.46103662252426" lon="9.215814527124166">
<ele>383.8</ele>
<time>2024-05-08T15:02:09Z</time>
</trkpt>
<trkpt lat="49.461067132651806" lon="9.215845037251713">
<ele>383.8</ele>
<time>2024-05-08T15:02:10Z</time>
</trkpt>
<trkpt lat="49.46110149845481" lon="9.215873703360558">
<ele>383.8</ele>
<time>2024-05-08T15:02:11Z</time>
</trkpt>
<trkpt lat="49.461132008582354" lon="9.215901363641024">
<ele>384</ele>
<time>2024-05-08T15:02:12Z</time>
</trkpt>
<trkpt lat="49.4611625187099" lon="9.21592994593084">
<ele>384</ele>
<time>2024-05-08T15:02:13Z</time>
</trkpt>
<trkpt lat="49.46119302883744" lon="9.215958528220654">
<ele>384</ele>
<time>2024-05-08T15:02:14Z</time>
</trkpt>
<trkpt lat="49.461227394640446" lon="9.21598618850112">
<ele>384.2</ele>
<time>2024-05-08T15:02:15Z</time>
</trkpt>
<trkpt lat="49.46126167662442" lon="9.216016698628664">
<ele>384.2</ele>
<time>2024-05-08T15:02:16Z</time>
</trkpt>
<trkpt lat="49.46129218675196" lon="9.21604343689978">
<ele>384.4</ele>
<time>2024-05-08T15:02:17Z</time>
</trkpt>
<trkpt lat="49.46132278069854" lon="9.216068247333167">
<ele>384.4</ele>
<time>2024-05-08T15:02:18Z</time>
</trkpt>
<trkpt lat="49.46135329082608" lon="9.216094901785254">
<ele>384.2</ele>
<time>2024-05-08T15:02:19Z</time>
</trkpt>
<trkpt lat="49.46137994527817" lon="9.216117784380913">
<ele>384.2</ele>
<time>2024-05-08T15:02:20Z</time>
</trkpt>
<trkpt lat="49.46141045540571" lon="9.21614452265203">
<ele>384.2</ele>
<time>2024-05-08T15:02:21Z</time>
</trkpt>
<trkpt lat="49.46144096553326" lon="9.216173104941843">
<ele>384.2</ele>
<time>2024-05-08T15:02:22Z</time>
</trkpt>
<trkpt lat="49.4614714756608" lon="9.216201771050692">
<ele>384.2</ele>
<time>2024-05-08T15:02:23Z</time>
</trkpt>
<trkpt lat="49.46150206960738" lon="9.216233203187585">
<ele>384</ele>
<time>2024-05-08T15:02:24Z</time>
</trkpt>
<trkpt lat="49.46154020726681" lon="9.216266563162208">
<ele>384</ele>
<time>2024-05-08T15:02:25Z</time>
</trkpt>
<trkpt lat="49.46157834492624" lon="9.216298079118133">
<ele>383.8</ele>
<time>2024-05-08T15:02:26Z</time>
</trkpt>
<trkpt lat="49.46161648258567" lon="9.216331439092755">
<ele>383.8</ele>
<time>2024-05-08T15:02:27Z</time>
</trkpt>
<trkpt lat="49.4616546202451" lon="9.216366726905107">
<ele>383.8</ele>
<time>2024-05-08T15:02:28Z</time>
</trkpt>
<trkpt lat="49.46169275790453" lon="9.21640201471746">
<ele>383.6</ele>
<time>2024-05-08T15:02:29Z</time>
</trkpt>
<trkpt lat="49.46173089556396" lon="9.216436380520465">
<ele>383.6</ele>
<time>2024-05-08T15:02:30Z</time>
</trkpt>
<trkpt lat="49.46177288889885" lon="9.216471668332815">
<ele>383.4</ele>
<time>2024-05-08T15:02:31Z</time>
</trkpt>
<trkpt lat="49.46181102655828" lon="9.216513577848673">
<ele>383.4</ele>
<time>2024-05-08T15:02:32Z</time>
</trkpt>
<trkpt lat="49.46184539236128" lon="9.216551715508103">
<ele>383.2</ele>
<time>2024-05-08T15:02:33Z</time>
</trkpt>
<trkpt lat="49.46188730187714" lon="9.216588009148836">
<ele>383.2</ele>
<time>2024-05-08T15:02:34Z</time>
</trkpt>
<trkpt lat="49.46192543953657" lon="9.21661851927638">
<ele>383</ele>
<time>2024-05-08T15:02:35Z</time>
</trkpt>
<trkpt lat="49.461963577196" lon="9.216631846502423">
<ele>383</ele>
<time>2024-05-08T15:02:36Z</time>
</trkpt>
<trkpt lat="49.46200557053089" lon="9.216628074645996">
<ele>382.8</ele>
<time>2024-05-08T15:02:37Z</time>
</trkpt>
<trkpt lat="49.462039936333895" lon="9.21660133637488">
<ele>382.8</ele>
<time>2024-05-08T15:02:38Z</time>
</trkpt>
<trkpt lat="49.46206281892955" lon="9.21656034886837">
<ele>382.8</ele>
<time>2024-05-08T15:02:39Z</time>
</trkpt>
<trkpt lat="49.462074218317866" lon="9.216511650010943">
<ele>382.8</ele>
<time>2024-05-08T15:02:40Z</time>
</trkpt>
<trkpt lat="49.462078073993325" lon="9.21646018512547">
<ele>382.8</ele>
<time>2024-05-08T15:02:41Z</time>
</trkpt>
<trkpt lat="49.46208184584975" lon="9.216404864564538">
<ele>382.8</ele>
<time>2024-05-08T15:02:42Z</time>
</trkpt>
<trkpt lat="49.46208184584975" lon="9.216353399679065">
<ele>383</ele>
<time>2024-05-08T15:02:43Z</time>
</trkpt>
<trkpt lat="49.462078073993325" lon="9.21630285680294">
<ele>383</ele>
<time>2024-05-08T15:02:44Z</time>
</trkpt>
<trkpt lat="49.462078073993325" lon="9.216257091611624">
<ele>383.2</ele>
<time>2024-05-08T15:02:45Z</time>
</trkpt>
<trkpt lat="49.462078073993325" lon="9.216210320591928">
<ele>383.2</ele>
<time>2024-05-08T15:02:46Z</time>
</trkpt>
<trkpt lat="49.46208184584975" lon="9.21616455540061">
<ele>383.4</ele>
<time>2024-05-08T15:02:47Z</time>
</trkpt>
<trkpt lat="49.46208947338164" lon="9.21612641774118">
<ele>383.6</ele>
<time>2024-05-08T15:02:48Z</time>
</trkpt>
<trkpt lat="49.46210472844541" lon="9.216099679470062">
<ele>383.6</ele>
<time>2024-05-08T15:02:49Z</time>
</trkpt>
<trkpt lat="49.46213146671653" lon="9.216074869036674">
<ele>383.8</ele>
<time>2024-05-08T15:02:50Z</time>
</trkpt>
<trkpt lat="49.46215812116861" lon="9.216059613972902">
<ele>384</ele>
<time>2024-05-08T15:02:51Z</time>
</trkpt>
<trkpt lat="49.46218485943973" lon="9.216051986441016">
<ele>384</ele>
<time>2024-05-08T15:02:52Z</time>
</trkpt>
<trkpt lat="49.46221159771085" lon="9.216051986441016">
<ele>384.2</ele>
<time>2024-05-08T15:02:53Z</time>
</trkpt>
<trkpt lat="49.46223825216293" lon="9.216051986441016">
<ele>384.4</ele>
<time>2024-05-08T15:02:54Z</time>
</trkpt>
<trkpt lat="49.46226113475859" lon="9.216048214584587">
<ele>384.6</ele>
<time>2024-05-08T15:02:55Z</time>
</trkpt>
<trkpt lat="49.46228787302971" lon="9.21604343689978">
<ele>384.8</ele>
<time>2024-05-08T15:02:56Z</time>
</trkpt>
<trkpt lat="49.46231075562537" lon="9.216039581224322">
<ele>385</ele>
<time>2024-05-08T15:02:57Z</time>
</trkpt>
<trkpt lat="49.46234126575291" lon="9.216036731377244">
<ele>385.2</ele>
<time>2024-05-08T15:02:58Z</time>
</trkpt>
<trkpt lat="49.46236800402403" lon="9.216036731377244">
<ele>385.2</ele>
<time>2024-05-08T15:02:59Z</time>
</trkpt>
<trkpt lat="49.46239851415157" lon="9.216038659214972">
<ele>385.4</ele>
<time>2024-05-08T15:03:00Z</time>
</trkpt>
<trkpt lat="49.46242516860366" lon="9.21604536473751">
<ele>385.6</ele>
<time>2024-05-08T15:03:01Z</time>
</trkpt>
<trkpt lat="49.4624556787312" lon="9.216052992269397">
<ele>385.8</ele>
<time>2024-05-08T15:03:02Z</time>
</trkpt>
<trkpt lat="49.46248618885875" lon="9.216059613972902">
<ele>385.8</ele>
<time>2024-05-08T15:03:03Z</time>
</trkpt>
<trkpt lat="49.46252055466175" lon="9.21606631949544">
<ele>386</ele>
<time>2024-05-08T15:03:04Z</time>
</trkpt>
<trkpt lat="49.462551064789295" lon="9.216073025017977">
<ele>386</ele>
<time>2024-05-08T15:03:05Z</time>
</trkpt>
<trkpt lat="49.46258157491684" lon="9.21608543023467">
<ele>386</ele>
<time>2024-05-08T15:03:06Z</time>
</trkpt>
<trkpt lat="49.462612085044384" lon="9.216099679470062">
<ele>386.2</ele>
<time>2024-05-08T15:03:07Z</time>
</trkpt>
<trkpt lat="49.46264259517193" lon="9.216113090515137">
<ele>386.4</ele>
<time>2024-05-08T15:03:08Z</time>
</trkpt>
<trkpt lat="49.46267310529947" lon="9.2161235678941">
<ele>386.4</ele>
<time>2024-05-08T15:03:09Z</time>
</trkpt>
<trkpt lat="49.46270369924605" lon="9.216134967282414">
<ele>386.6</ele>
<time>2024-05-08T15:03:10Z</time>
</trkpt>
<trkpt lat="49.46273798123002" lon="9.21614452265203">
<ele>386.6</ele>
<time>2024-05-08T15:03:11Z</time>
</trkpt>
<trkpt lat="49.462772347033024" lon="9.216155000030994">
<ele>386.8</ele>
<time>2024-05-08T15:03:12Z</time>
</trkpt>
<trkpt lat="49.462806629016995" lon="9.216161705553532">
<ele>386.8</ele>
<time>2024-05-08T15:03:13Z</time>
</trkpt>
<trkpt lat="49.46284099482" lon="9.21616455540061">
<ele>386.8</ele>
<time>2024-05-08T15:03:14Z</time>
</trkpt>
<trkpt lat="49.46287150494754" lon="9.216168327257035">
<ele>387</ele>
<time>2024-05-08T15:03:15Z</time>
</trkpt>
<trkpt lat="49.46290587075055" lon="9.216171260923147">
<ele>387</ele>
<time>2024-05-08T15:03:16Z</time>
</trkpt>
<trkpt lat="49.46294015273452" lon="9.216176960617304">
<ele>387.2</ele>
<time>2024-05-08T15:03:17Z</time>
</trkpt>
<trkpt lat="49.46297451853752" lon="9.216176960617304">
<ele>387.2</ele>
<time>2024-05-08T15:03:18Z</time>
</trkpt>
<trkpt lat="49.46300880052149" lon="9.216177882626653">
<ele>387.2</ele>
<time>2024-05-08T15:03:19Z</time>
</trkpt>
<trkpt lat="49.463043166324496" lon="9.216177882626653">
<ele>387.4</ele>
<time>2024-05-08T15:03:20Z</time>
</trkpt>
<trkpt lat="49.4630775321275" lon="9.216179810464382">
<ele>387.4</ele>
<time>2024-05-08T15:03:21Z</time>
</trkpt>
<trkpt lat="49.46311181411147" lon="9.216181738302112">
<ele>387.4</ele>
<time>2024-05-08T15:03:22Z</time>
</trkpt>
<trkpt lat="49.4631499517709" lon="9.21618358232081">
<ele>387.6</ele>
<time>2024-05-08T15:03:23Z</time>
</trkpt>
<trkpt lat="49.463184317573905" lon="9.21618358232081">
<ele>387.6</ele>
<time>2024-05-08T15:03:24Z</time>
</trkpt>
<trkpt lat="49.46321868337691" lon="9.21618651598692">
<ele>387.8</ele>
<time>2024-05-08T15:03:25Z</time>
</trkpt>
<trkpt lat="49.46325682103634" lon="9.216191209852695">
<ele>387.8</ele>
<time>2024-05-08T15:03:26Z</time>
</trkpt>
<trkpt lat="49.46329110302031" lon="9.216195065528154">
<ele>388</ele>
<time>2024-05-08T15:03:27Z</time>
</trkpt>
<trkpt lat="49.463325468823314" lon="9.216197915375233">
<ele>388</ele>
<time>2024-05-08T15:03:28Z</time>
</trkpt>
<trkpt lat="49.463359750807285" lon="9.216201771050692">
<ele>388.2</ele>
<time>2024-05-08T15:03:29Z</time>
</trkpt>
<trkpt lat="49.46339411661029" lon="9.21620462089777">
<ele>388.2</ele>
<time>2024-05-08T15:03:30Z</time>
</trkpt>
<trkpt lat="49.46342848241329" lon="9.216208392754195">
<ele>388.4</ele>
<time>2024-05-08T15:03:31Z</time>
</trkpt>
<trkpt lat="49.46346662007272" lon="9.216211242601275">
<ele>388.4</ele>
<time>2024-05-08T15:03:32Z</time>
</trkpt>
<trkpt lat="49.46349713020027" lon="9.216217026114464">
<ele>388.6</ele>
<time>2024-05-08T15:03:33Z</time>
</trkpt>
<trkpt lat="49.46353141218424" lon="9.21622465364635">
<ele>388.8</ele>
<time>2024-05-08T15:03:34Z</time>
</trkpt>
<trkpt lat="49.46356577798724" lon="9.216231275349855">
<ele>388.8</ele>
<time>2024-05-08T15:03:35Z</time>
</trkpt>
<trkpt lat="49.463600143790245" lon="9.216239908710122">
<ele>389</ele>
<time>2024-05-08T15:03:36Z</time>
</trkpt>
<trkpt lat="49.46363065391779" lon="9.216255163773894">
<ele>389</ele>
<time>2024-05-08T15:03:37Z</time>
</trkpt>
<trkpt lat="49.46366493590176" lon="9.216268490999935">
<ele>389</ele>
<time>2024-05-08T15:03:38Z</time>
</trkpt>
<trkpt lat="49.46370307356119" lon="9.21628374606371">
<ele>389.2</ele>
<time>2024-05-08T15:03:39Z</time>
</trkpt>
<trkpt lat="49.463737439364195" lon="9.216297073289752">
<ele>389.2</ele>
<time>2024-05-08T15:03:40Z</time>
</trkpt>
<trkpt lat="49.463775577023625" lon="9.216308556497095">
<ele>389.2</ele>
<time>2024-05-08T15:03:41Z</time>
</trkpt>
<trkpt lat="49.463813714683056" lon="9.21631995588541">
<ele>389.2</ele>
<time>2024-05-08T15:03:42Z</time>
</trkpt>
<trkpt lat="49.463851852342486" lon="9.216333366930485">
<ele>389.2</ele>
<time>2024-05-08T15:03:43Z</time>
</trkpt>
<trkpt lat="49.46389007382095" lon="9.216344766318798">
<ele>389.4</ele>
<time>2024-05-08T15:03:44Z</time>
</trkpt>
<trkpt lat="49.46392821148038" lon="9.216358177363873">
<ele>389.4</ele>
<time>2024-05-08T15:03:45Z</time>
</trkpt>
<trkpt lat="49.46396634913981" lon="9.216371504589915">
<ele>389.4</ele>
<time>2024-05-08T15:03:46Z</time>
</trkpt>
<trkpt lat="49.46400448679924" lon="9.216382903978229">
<ele>389.4</ele>
<time>2024-05-08T15:03:47Z</time>
</trkpt>
<trkpt lat="49.46404262445867" lon="9.216396315023305">
<ele>389.4</ele>
<time>2024-05-08T15:03:48Z</time>
</trkpt>
<trkpt lat="49.4640807621181" lon="9.216409642249346">
<ele>389.4</ele>
<time>2024-05-08T15:03:49Z</time>
</trkpt>
<trkpt lat="49.464115127921104" lon="9.21642011962831">
<ele>389.4</ele>
<time>2024-05-08T15:03:50Z</time>
</trkpt>
<trkpt lat="49.464153265580535" lon="9.216429674997926">
<ele>389.4</ele>
<time>2024-05-08T15:03:51Z</time>
</trkpt>
<trkpt lat="49.46418754756451" lon="9.21643822453916">
<ele>389.4</ele>
<time>2024-05-08T15:03:52Z</time>
</trkpt>
<trkpt lat="49.46422576904297" lon="9.216446857899427">
<ele>389.6</ele>
<time>2024-05-08T15:03:53Z</time>
</trkpt>
<trkpt lat="49.4642639067024" lon="9.216453479602931">
<ele>389.6</ele>
<time>2024-05-08T15:03:54Z</time>
</trkpt>
<trkpt lat="49.46429818868637" lon="9.21645825728774">
<ele>389.8</ele>
<time>2024-05-08T15:03:55Z</time>
</trkpt>
<trkpt lat="49.46434018202126" lon="9.216463034972548">
<ele>389.8</ele>
<time>2024-05-08T15:03:56Z</time>
</trkpt>
<trkpt lat="49.46437831968069" lon="9.216468734666703">
<ele>390</ele>
<time>2024-05-08T15:03:57Z</time>
</trkpt>
<trkpt lat="49.46441645734012" lon="9.216471668332815">
<ele>390</ele>
<time>2024-05-08T15:03:58Z</time>
</trkpt>
<trkpt lat="49.464450823143125" lon="9.216471668332815">
<ele>390.2</ele>
<time>2024-05-08T15:03:59Z</time>
</trkpt>
<trkpt lat="49.464485105127096" lon="9.216468734666703">
<ele>390.2</ele>
<time>2024-05-08T15:04:00Z</time>
</trkpt>
<trkpt lat="49.46451561525464" lon="9.216463034972548">
<ele>390.2</ele>
<time>2024-05-08T15:04:01Z</time>
</trkpt>
<trkpt lat="49.464546125382185" lon="9.21645825728774">
<ele>390.2</ele>
<time>2024-05-08T15:04:02Z</time>
</trkpt>
<trkpt lat="49.46457671932876" lon="9.216449707746506">
<ele>390.4</ele>
<time>2024-05-08T15:04:03Z</time>
</trkpt>
<trkpt lat="49.46460337378085" lon="9.216443002223969">
<ele>390.4</ele>
<time>2024-05-08T15:04:04Z</time>
</trkpt>
<trkpt lat="49.46463011205197" lon="9.21643822453916">
<ele>390.4</ele>
<time>2024-05-08T15:04:05Z</time>
</trkpt>
<trkpt lat="49.46464913897216" lon="9.216431602835655">
<ele>390.4</ele>
<time>2024-05-08T15:04:06Z</time>
</trkpt>
<trkpt lat="49.464668249711394" lon="9.216428752988575">
<ele>390.4</ele>
<time>2024-05-08T15:04:07Z</time>
</trkpt>
<trkpt lat="49.464687276631594" lon="9.21642011962831">
<ele>390.4</ele>
<time>2024-05-08T15:04:08Z</time>
</trkpt>
<trkpt lat="49.464748380705714" lon="9.216386759653687">
<ele>390.4</ele>
<time>2024-05-08T15:04:10Z</time>
</trkpt>
<trkpt lat="49.4647750351578" lon="9.216378210112453">
<ele>390.4</ele>
<time>2024-05-08T15:04:11Z</time>
</trkpt>
<trkpt lat="49.464828427881" lon="9.216375276446342">
<ele>390.4</ele>
<time>2024-05-08T15:04:14Z</time>
</trkpt>
<trkpt lat="49.46486656554043" lon="9.216396315023305">
<ele>390.4</ele>
<time>2024-05-08T15:04:16Z</time>
</trkpt>
<trkpt lat="49.46487804874778" lon="9.216413497924805">
<ele>390.4</ele>
<time>2024-05-08T15:04:17Z</time>
</trkpt>
<trkpt lat="49.46490470319986" lon="9.216464962810278">
<ele>390.6</ele>
<time>2024-05-08T15:04:19Z</time>
</trkpt>
<trkpt lat="49.46493144147098" lon="9.216523133218288">
<ele>390.6</ele>
<time>2024-05-08T15:04:20Z</time>
</trkpt>
<trkpt lat="49.464961951598525" lon="9.216576525941491">
<ele>390.6</ele>
<time>2024-05-08T15:04:23Z</time>
</trkpt>
<trkpt lat="49.46498106233776" lon="9.216605108231306">
<ele>390.6</ele>
<time>2024-05-08T15:04:24Z</time>
</trkpt>
<trkpt lat="49.46499631740153" lon="9.216636624187233">
<ele>390.6</ele>
<time>2024-05-08T15:04:25Z</time>
</trkpt>
<trkpt lat="49.4650305993855" lon="9.21670150011778">
<ele>390.6</ele>
<time>2024-05-08T15:04:27Z</time>
</trkpt>
<trkpt lat="49.46504971012473" lon="9.216732010245323">
<ele>390.6</ele>
<time>2024-05-08T15:04:28Z</time>
</trkpt>
<trkpt lat="49.4650649651885" lon="9.216758664697409">
<ele>390.6</ele>
<time>2024-05-08T15:04:29Z</time>
</trkpt>
<trkpt lat="49.465103102847934" lon="9.216821612790229">
<ele>390.6</ele>
<time>2024-05-08T15:04:31Z</time>
</trkpt>
<trkpt lat="49.46512598544359" lon="9.21685690060258">
<ele>390.6</ele>
<time>2024-05-08T15:04:32Z</time>
</trkpt>
<trkpt lat="49.46514886803925" lon="9.21689503826201">
<ele>390.6</ele>
<time>2024-05-08T15:04:33Z</time>
</trkpt>
<trkpt lat="49.46517560631037" lon="9.21693317592144">
<ele>390.4</ele>
<time>2024-05-08T15:04:34Z</time>
</trkpt>
<trkpt lat="49.46520611643791" lon="9.216966619715096">
<ele>390.4</ele>
<time>2024-05-08T15:04:35Z</time>
</trkpt>
<trkpt lat="49.46523277089" lon="9.216989502310753">
<ele>390.2</ele>
<time>2024-05-08T15:04:36Z</time>
</trkpt>
<trkpt lat="49.465263364836574" lon="9.217006601393225">
<ele>390</ele>
<time>2024-05-08T15:04:37Z</time>
</trkpt>
<trkpt lat="49.46528624743223" lon="9.217020012438295">
<ele>389.8</ele>
<time>2024-05-08T15:04:38Z</time>
</trkpt>
<trkpt lat="49.46530913002789" lon="9.21703141182661">
<ele>389.8</ele>
<time>2024-05-08T15:04:39Z</time>
</trkpt>
<trkpt lat="49.46532815694809" lon="9.217042895033956">
<ele>389.6</ele>
<time>2024-05-08T15:04:40Z</time>
</trkpt>
<trkpt lat="49.46535103954375" lon="9.21705530025065">
<ele>389.6</ele>
<time>2024-05-08T15:04:41Z</time>
</trkpt>
<trkpt lat="49.46537015028298" lon="9.217068627476692">
<ele>389.6</ele>
<time>2024-05-08T15:04:42Z</time>
</trkpt>
<trkpt lat="49.465396804735065" lon="9.217082960531116">
<ele>389.8</ele>
<time>2024-05-08T15:04:43Z</time>
</trkpt>
<trkpt lat="49.46541968733072" lon="9.217100143432615">
<ele>389.8</ele>
<time>2024-05-08T15:04:44Z</time>
</trkpt>
<trkpt lat="49.465438798069954" lon="9.217118248343468">
<ele>389.8</ele>
<time>2024-05-08T15:04:45Z</time>
</trkpt>
<trkpt lat="49.46546553634107" lon="9.217136353254318">
<ele>390</ele>
<time>2024-05-08T15:04:46Z</time>
</trkpt>
<trkpt lat="49.46548841893673" lon="9.21714968048036">
<ele>390</ele>
<time>2024-05-08T15:04:47Z</time>
</trkpt>
<trkpt lat="49.46551130153239" lon="9.217164935544131">
<ele>390</ele>
<time>2024-05-08T15:04:48Z</time>
</trkpt>
<trkpt lat="49.46553795598447" lon="9.217180190607904">
<ele>390</ele>
<time>2024-05-08T15:04:49Z</time>
</trkpt>
<trkpt lat="49.46556083858013" lon="9.21719360165298">
<ele>390.2</ele>
<time>2024-05-08T15:04:50Z</time>
</trkpt>
<trkpt lat="49.46558757685125" lon="9.217206928879024">
<ele>390.2</ele>
<time>2024-05-08T15:04:51Z</time>
</trkpt>
<trkpt lat="49.465614315122366" lon="9.217221178114414">
<ele>390.2</ele>
<time>2024-05-08T15:04:52Z</time>
</trkpt>
<trkpt lat="49.46564482524991" lon="9.217241210862994">
<ele>390.2</ele>
<time>2024-05-08T15:04:53Z</time>
</trkpt>
<trkpt lat="49.465671479702" lon="9.217260321602224">
<ele>390.2</ele>
<time>2024-05-08T15:04:54Z</time>
</trkpt>
<trkpt lat="49.46570198982954" lon="9.217276498675346">
<ele>390.4</ele>
<time>2024-05-08T15:04:55Z</time>
</trkpt>
<trkpt lat="49.465732499957085" lon="9.217293681576848">
<ele>390.4</ele>
<time>2024-05-08T15:04:56Z</time>
</trkpt>
<trkpt lat="49.46576686576009" lon="9.217313714325428">
<ele>390.4</ele>
<time>2024-05-08T15:04:57Z</time>
</trkpt>
<trkpt lat="49.46579737588763" lon="9.217336596921086">
<ele>390.4</ele>
<time>2024-05-08T15:04:58Z</time>
</trkpt>
<trkpt lat="49.46583174169064" lon="9.217361407354474">
<ele>390.4</ele>
<time>2024-05-08T15:04:59Z</time>
</trkpt>
<trkpt lat="49.46586225181818" lon="9.21738521195948">
<ele>390.4</ele>
<time>2024-05-08T15:05:01Z</time>
</trkpt>
<trkpt lat="49.465930899605155" lon="9.217432904988527">
<ele>390.6</ele>
<time>2024-05-08T15:05:02Z</time>
</trkpt>
<trkpt lat="49.4659614097327" lon="9.217452937737107">
<ele>390.6</ele>
<time>2024-05-08T15:05:03Z</time>
</trkpt>
<trkpt lat="49.4659957755357" lon="9.217472970485687">
<ele>390.8</ele>
<time>2024-05-08T15:05:04Z</time>
</trkpt>
<trkpt lat="49.466030057519674" lon="9.217493003234267">
<ele>390.8</ele>
<time>2024-05-08T15:05:05Z</time>
</trkpt>
<trkpt lat="49.46606442332268" lon="9.217516891658306">
<ele>391</ele>
<time>2024-05-08T15:05:06Z</time>
</trkpt>
<trkpt lat="49.46609870530665" lon="9.217536924406886">
<ele>391</ele>
<time>2024-05-08T15:05:07Z</time>
</trkpt>
<trkpt lat="49.46613307110965" lon="9.217557879164817">
<ele>391.2</ele>
<time>2024-05-08T15:05:08Z</time>
</trkpt>
<trkpt lat="49.466167436912656" lon="9.217581683769822">
<ele>391.2</ele>
<time>2024-05-08T15:05:09Z</time>
</trkpt>
<trkpt lat="49.46620171889663" lon="9.21760456636548">
<ele>391.2</ele>
<time>2024-05-08T15:05:10Z</time>
</trkpt>
<trkpt lat="49.46623608469963" lon="9.21762652695179">
<ele>391.4</ele>
<time>2024-05-08T15:05:11Z</time>
</trkpt>
<trkpt lat="49.4662703666836" lon="9.2176484875381">
<ele>391.4</ele>
<time>2024-05-08T15:05:12Z</time>
</trkpt>
<trkpt lat="49.466304732486606" lon="9.217670364305375">
<ele>391.4</ele>
<time>2024-05-08T15:05:13Z</time>
</trkpt>
<trkpt lat="49.46633909828961" lon="9.21768855303526">
<ele>391.4</ele>
<time>2024-05-08T15:05:14Z</time>
</trkpt>
<trkpt lat="49.46637338027358" lon="9.21770665794611">
<ele>391.4</ele>
<time>2024-05-08T15:05:15Z</time>
</trkpt>
<trkpt lat="49.466403890401125" lon="9.21772669069469">
<ele>391.4</ele>
<time>2024-05-08T15:05:16Z</time>
</trkpt>
<trkpt lat="49.46643440052867" lon="9.21774672344327">
<ele>391.4</ele>
<time>2024-05-08T15:05:17Z</time>
</trkpt>
<trkpt lat="49.466464994475245" lon="9.217768600210547">
<ele>391.4</ele>
<time>2024-05-08T15:05:18Z</time>
</trkpt>
<trkpt lat="49.46649927645922" lon="9.217788632959127">
<ele>391.4</ele>
<time>2024-05-08T15:05:19Z</time>
</trkpt>
<trkpt lat="49.46653364226222" lon="9.217809671536088">
<ele>391.6</ele>
<time>2024-05-08T15:05:20Z</time>
</trkpt>
<trkpt lat="49.46656792424619" lon="9.217829704284668">
<ele>391.6</ele>
<time>2024-05-08T15:05:21Z</time>
</trkpt>
<trkpt lat="49.466598434373736" lon="9.217851581051946">
<ele>391.6</ele>
<time>2024-05-08T15:05:22Z</time>
</trkpt>
<trkpt lat="49.46662902832031" lon="9.217871613800526">
<ele>391.6</ele>
<time>2024-05-08T15:05:23Z</time>
</trkpt>
<trkpt lat="49.46665953844786" lon="9.217893574386837">
<ele>391.6</ele>
<time>2024-05-08T15:05:24Z</time>
</trkpt>
<trkpt lat="49.46669382043183" lon="9.217916456982492">
<ele>391.6</ele>
<time>2024-05-08T15:05:25Z</time>
</trkpt>
<trkpt lat="49.46672818623483" lon="9.217938417568805">
<ele>391.6</ele>
<time>2024-05-08T15:05:26Z</time>
</trkpt>
<trkpt lat="49.466758696362376" lon="9.217965072020888">
<ele>391.8</ele>
<time>2024-05-08T15:05:27Z</time>
</trkpt>
<trkpt lat="49.46679297834635" lon="9.217993654310703">
<ele>391.8</ele>
<time>2024-05-08T15:05:28Z</time>
</trkpt>
<trkpt lat="49.46682734414935" lon="9.218018464744093">
<ele>391.8</ele>
<time>2024-05-08T15:05:29Z</time>
</trkpt>
<trkpt lat="49.466857854276896" lon="9.218045203015208">
<ele>392</ele>
<time>2024-05-08T15:05:30Z</time>
</trkpt>
<trkpt lat="49.46688836440444" lon="9.218066157773135">
<ele>392</ele>
<time>2024-05-08T15:05:31Z</time>
</trkpt>
<trkpt lat="49.46692650206387" lon="9.218088118359448">
<ele>392.2</ele>
<time>2024-05-08T15:05:32Z</time>
</trkpt>
<trkpt lat="49.466960867866874" lon="9.218108151108028">
<ele>392.2</ele>
<time>2024-05-08T15:05:33Z</time>
</trkpt>
<trkpt lat="49.46699523366988" lon="9.218130111694336">
<ele>392.4</ele>
<time>2024-05-08T15:05:34Z</time>
</trkpt>
<trkpt lat="49.46702951565385" lon="9.218151988461614">
<ele>392.6</ele>
<time>2024-05-08T15:05:35Z</time>
</trkpt>
<trkpt lat="49.46706388145685" lon="9.218172021210194">
<ele>392.8</ele>
<time>2024-05-08T15:05:36Z</time>
</trkpt>
<trkpt lat="49.467098163440824" lon="9.218192975968122">
<ele>393</ele>
<time>2024-05-08T15:05:37Z</time>
</trkpt>
<trkpt lat="49.46712867356837" lon="9.218212086707354">
<ele>393.2</ele>
<time>2024-05-08T15:05:38Z</time>
</trkpt>
<trkpt lat="49.467159267514944" lon="9.218228263780476">
<ele>393.4</ele>
<time>2024-05-08T15:05:39Z</time>
</trkpt>
<trkpt lat="49.46718977764249" lon="9.218244524672627">
<ele>393.6</ele>
<time>2024-05-08T15:05:40Z</time>
</trkpt>
<trkpt lat="49.46722028777003" lon="9.218263551592829">
<ele>393.8</ele>
<time>2024-05-08T15:05:41Z</time>
</trkpt>
<trkpt lat="49.467254569754" lon="9.21827788464725">
<ele>393.8</ele>
<time>2024-05-08T15:05:42Z</time>
</trkpt>
<trkpt lat="49.46728893555701" lon="9.21829984523356">
<ele>394</ele>
<time>2024-05-08T15:05:43Z</time>
</trkpt>
<trkpt lat="49.46732330136001" lon="9.218321722000836">
<ele>394</ele>
<time>2024-05-08T15:05:44Z</time>
</trkpt>
<trkpt lat="49.46736521087587" lon="9.218348460271956">
<ele>394.2</ele>
<time>2024-05-08T15:05:45Z</time>
</trkpt>
<trkpt lat="49.4674033485353" lon="9.218370420858264">
<ele>394.2</ele>
<time>2024-05-08T15:05:46Z</time>
</trkpt>
<trkpt lat="49.467452969402075" lon="9.218393303453922">
<ele>394.4</ele>
<time>2024-05-08T15:05:47Z</time>
</trkpt>
<trkpt lat="49.46749496273696" lon="9.21841618604958">
<ele>394.4</ele>
<time>2024-05-08T15:05:48Z</time>
</trkpt>
<trkpt lat="49.467533100396395" lon="9.218441918492315">
<ele>394.4</ele>
<time>2024-05-08T15:05:49Z</time>
</trkpt>
<trkpt lat="49.46758263744414" lon="9.218469578772783">
<ele>394.6</ele>
<time>2024-05-08T15:05:50Z</time>
</trkpt>
<trkpt lat="49.46762463077903" lon="9.218491539359093">
<ele>394.6</ele>
<time>2024-05-08T15:05:51Z</time>
</trkpt>
<trkpt lat="49.46766276843846" lon="9.2185153439641">
<ele>394.8</ele>
<time>2024-05-08T15:05:52Z</time>
</trkpt>
<trkpt lat="49.46770090609789" lon="9.218538226559758">
<ele>394.8</ele>
<time>2024-05-08T15:05:53Z</time>
</trkpt>
<trkpt lat="49.46773527190089" lon="9.218563036993146">
<ele>395</ele>
<time>2024-05-08T15:05:54Z</time>
</trkpt>
<trkpt lat="49.46777340956032" lon="9.21859161928296">
<ele>395</ele>
<time>2024-05-08T15:05:55Z</time>
</trkpt>
<trkpt lat="49.46781154721975" lon="9.218618357554078">
<ele>395</ele>
<time>2024-05-08T15:05:56Z</time>
</trkpt>
<trkpt lat="49.467849684879184" lon="9.218643167987466">
<ele>395</ele>
<time>2024-05-08T15:05:57Z</time>
</trkpt>
<trkpt lat="49.467887822538614" lon="9.218667978420854">
<ele>395</ele>
<time>2024-05-08T15:05:58Z</time>
</trkpt>
<trkpt lat="49.467925960198045" lon="9.218696560710669">
<ele>395.2</ele>
<time>2024-05-08T15:05:59Z</time>
</trkpt>
<trkpt lat="49.467964097857475" lon="9.218725143000484">
<ele>395.2</ele>
<time>2024-05-08T15:06:00Z</time>
</trkpt>
<trkpt lat="49.46800231933594" lon="9.21875473111868">
<ele>395.2</ele>
<time>2024-05-08T15:06:01Z</time>
</trkpt>
<trkpt lat="49.46803660131991" lon="9.218783313408494">
<ele>395.4</ele>
<time>2024-05-08T15:06:02Z</time>
</trkpt>
<trkpt lat="49.46807473897934" lon="9.21881290152669">
<ele>395.4</ele>
<time>2024-05-08T15:06:03Z</time>
</trkpt>
<trkpt lat="49.46811287663877" lon="9.218841483816504">
<ele>395.6</ele>
<time>2024-05-08T15:06:04Z</time>
</trkpt>
<trkpt lat="49.46814724244177" lon="9.218871993944049">
<ele>395.6</ele>
<time>2024-05-08T15:06:05Z</time>
</trkpt>
<trkpt lat="49.46818160824478" lon="9.218903509899974">
<ele>395.8</ele>
<time>2024-05-08T15:06:06Z</time>
</trkpt>
<trkpt lat="49.46821211837232" lon="9.218934942036867">
<ele>396</ele>
<time>2024-05-08T15:06:07Z</time>
</trkpt>
<trkpt lat="49.46824640035629" lon="9.218968385830522">
<ele>396</ele>
<time>2024-05-08T15:06:08Z</time>
</trkpt>
<trkpt lat="49.468280766159296" lon="9.219003673642874">
<ele>396.2</ele>
<time>2024-05-08T15:06:09Z</time>
</trkpt>
<trkpt lat="49.46831504814327" lon="9.219037033617496">
<ele>396.2</ele>
<time>2024-05-08T15:06:10Z</time>
</trkpt>
<trkpt lat="49.46834564208984" lon="9.21907039359212">
<ele>396.4</ele>
<time>2024-05-08T15:06:11Z</time>
</trkpt>
<trkpt lat="49.468379924073815" lon="9.21910660341382">
<ele>396.4</ele>
<time>2024-05-08T15:06:12Z</time>
</trkpt>
<trkpt lat="49.46841043420136" lon="9.219141891226172">
<ele>396.4</ele>
<time>2024-05-08T15:06:13Z</time>
</trkpt>
<trkpt lat="49.468440944328904" lon="9.219175335019829">
<ele>396.6</ele>
<time>2024-05-08T15:06:14Z</time>
</trkpt>
<trkpt lat="49.46847145445645" lon="9.219211544841528">
<ele>396.6</ele>
<time>2024-05-08T15:06:15Z</time>
</trkpt>
<trkpt lat="49.46850582025945" lon="9.21924876049161">
<ele>396.8</ele>
<time>2024-05-08T15:06:16Z</time>
</trkpt>
<trkpt lat="49.46853633038699" lon="9.21928304247558">
<ele>396.8</ele>
<time>2024-05-08T15:06:17Z</time>
</trkpt>
<trkpt lat="49.46856684051454" lon="9.219316402450204">
<ele>396.8</ele>
<time>2024-05-08T15:06:18Z</time>
</trkpt>
<trkpt lat="49.46859357878566" lon="9.219358395785092">
<ele>396.8</ele>
<time>2024-05-08T15:06:19Z</time>
</trkpt>
<trkpt lat="49.46862023323774" lon="9.21940516680479">
<ele>397</ele>
<time>2024-05-08T15:06:20Z</time>
</trkpt>
<trkpt lat="49.46865459904075" lon="9.219453781843184">
<ele>397</ele>
<time>2024-05-08T15:06:21Z</time>
</trkpt>
<trkpt lat="49.46868125349283" lon="9.219499547034502">
<ele>397.2</ele>
<time>2024-05-08T15:06:22Z</time>
</trkpt>
<trkpt lat="49.46871184743941" lon="9.219550089910626">
<ele>397.2</ele>
<time>2024-05-08T15:06:23Z</time>
</trkpt>
<trkpt lat="49.468738501891494" lon="9.21960348263383">
<ele>397.4</ele>
<time>2024-05-08T15:06:24Z</time>
</trkpt>
<trkpt lat="49.46876524016261" lon="9.219656875357032">
<ele>397.4</ele>
<time>2024-05-08T15:06:25Z</time>
</trkpt>
<trkpt lat="49.4687918946147" lon="9.219711273908615">
<ele>397.6</ele>
<time>2024-05-08T15:06:26Z</time>
</trkpt>
<trkpt lat="49.468818632885814" lon="9.219764666631818">
<ele>397.6</ele>
<time>2024-05-08T15:06:27Z</time>
</trkpt>
<trkpt lat="49.4688452873379" lon="9.21981998719275">
<ele>397.6</ele>
<time>2024-05-08T15:06:28Z</time>
</trkpt>
<trkpt lat="49.468872025609016" lon="9.219875307753682">
<ele>397.6</ele>
<time>2024-05-08T15:06:29Z</time>
</trkpt>
<trkpt lat="49.468894908204675" lon="9.219928700476885">
<ele>397.8</ele>
<time>2024-05-08T15:06:30Z</time>
</trkpt>
<trkpt lat="49.46891779080033" lon="9.219982093200088">
<ele>397.8</ele>
<time>2024-05-08T15:06:31Z</time>
</trkpt>
<trkpt lat="49.46894067339599" lon="9.220027858391404">
<ele>397.8</ele>
<time>2024-05-08T15:06:32Z</time>
</trkpt>
<trkpt lat="49.46895978413522" lon="9.220071779564025">
<ele>397.8</ele>
<time>2024-05-08T15:06:33Z</time>
</trkpt>
<trkpt lat="49.46898643858731" lon="9.220118466764688">
<ele>398</ele>
<time>2024-05-08T15:06:34Z</time>
</trkpt>
<trkpt lat="49.46900554932654" lon="9.2201766371727">
<ele>398</ele>
<time>2024-05-08T15:06:35Z</time>
</trkpt>
<trkpt lat="49.4690284319222" lon="9.220239585265515">
<ele>398.2</ele>
<time>2024-05-08T15:06:36Z</time>
</trkpt>
<trkpt lat="49.469051314517856" lon="9.220301611348988">
<ele>398.2</ele>
<time>2024-05-08T15:06:37Z</time>
</trkpt>
<trkpt lat="49.469074197113514" lon="9.220359781756995">
<ele>398.4</ele>
<time>2024-05-08T15:06:38Z</time>
</trkpt>
<trkpt lat="49.469093307852745" lon="9.220423651859164">
<ele>398.4</ele>
<time>2024-05-08T15:06:39Z</time>
</trkpt>
<trkpt lat="49.4691161904484" lon="9.220483750104904">
<ele>398.4</ele>
<time>2024-05-08T15:06:40Z</time>
</trkpt>
<trkpt lat="49.46913907304406" lon="9.220541920512916">
<ele>398.6</ele>
<time>2024-05-08T15:06:41Z</time>
</trkpt>
<trkpt lat="49.46915809996426" lon="9.220604868605731">
<ele>398.6</ele>
<time>2024-05-08T15:06:42Z</time>
</trkpt>
<trkpt lat="49.46917721070349" lon="9.220673516392708">
<ele>398.6</ele>
<time>2024-05-08T15:06:43Z</time>
</trkpt>
<trkpt lat="49.46919623762369" lon="9.220736464485526">
<ele>398.8</ele>
<time>2024-05-08T15:06:44Z</time>
</trkpt>
<trkpt lat="49.46921534836292" lon="9.22080796211958">
<ele>399</ele>
<time>2024-05-08T15:06:45Z</time>
</trkpt>
<trkpt lat="49.469234459102154" lon="9.220869988203049">
<ele>399</ele>
<time>2024-05-08T15:06:46Z</time>
</trkpt>
<trkpt lat="49.46925348602235" lon="9.220934864133596">
<ele>399.2</ele>
<time>2024-05-08T15:06:47Z</time>
</trkpt>
<trkpt lat="49.469272596761584" lon="9.220999656245112">
<ele>399.2</ele>
<time>2024-05-08T15:06:48Z</time>
</trkpt>
<trkpt lat="49.469291623681784" lon="9.221063610166311">
<ele>399.4</ele>
<time>2024-05-08T15:06:49Z</time>
</trkpt>
<trkpt lat="49.46931450627744" lon="9.221126474440098">
<ele>399.4</ele>
<time>2024-05-08T15:06:50Z</time>
</trkpt>
<trkpt lat="49.46933361701667" lon="9.221191350370646">
<ele>399.6</ele>
<time>2024-05-08T15:06:51Z</time>
</trkpt>
<trkpt lat="49.46935649961233" lon="9.221253376454117">
<ele>399.6</ele>
<time>2024-05-08T15:06:52Z</time>
</trkpt>
<trkpt lat="49.46937938220799" lon="9.221316324546931">
<ele>399.6</ele>
<time>2024-05-08T15:06:53Z</time>
</trkpt>
<trkpt lat="49.46939849294722" lon="9.22137826681137">
<ele>399.8</ele>
<time>2024-05-08T15:06:54Z</time>
</trkpt>
<trkpt lat="49.469425147399306" lon="9.22143836505711">
<ele>399.8</ele>
<time>2024-05-08T15:06:55Z</time>
</trkpt>
<trkpt lat="49.469448029994965" lon="9.22149653546512">
<ele>399.8</ele>
<time>2024-05-08T15:06:56Z</time>
</trkpt>
<trkpt lat="49.46947476826608" lon="9.221551856026052">
<ele>399.8</ele>
<time>2024-05-08T15:06:57Z</time>
</trkpt>
<trkpt lat="49.46950142271817" lon="9.221603320911528">
<ele>399.8</ele>
<time>2024-05-08T15:06:58Z</time>
</trkpt>
<trkpt lat="49.46953193284571" lon="9.221650091931224">
<ele>399.8</ele>
<time>2024-05-08T15:06:59Z</time>
</trkpt>
<trkpt lat="49.46956252679229" lon="9.221692085266112">
<ele>399.8</ele>
<time>2024-05-08T15:07:00Z</time>
</trkpt>
<trkpt lat="49.46959680877626" lon="9.221730222925544">
<ele>399.8</ele>
<time>2024-05-08T15:07:01Z</time>
</trkpt>
<trkpt lat="49.46963117457926" lon="9.221764504909515">
<ele>399.8</ele>
<time>2024-05-08T15:07:02Z</time>
</trkpt>
<trkpt lat="49.469665456563234" lon="9.22179694287479">
<ele>399.8</ele>
<time>2024-05-08T15:07:03Z</time>
</trkpt>
<trkpt lat="49.46969982236624" lon="9.221826530992985">
<ele>399.8</ele>
<time>2024-05-08T15:07:04Z</time>
</trkpt>
<trkpt lat="49.46974181570113" lon="9.221857963129878">
<ele>399.8</ele>
<time>2024-05-08T15:07:05Z</time>
</trkpt>
<trkpt lat="49.46977995336056" lon="9.221886629238725">
<ele>399.8</ele>
<time>2024-05-08T15:07:06Z</time>
</trkpt>
<trkpt lat="49.46981809101999" lon="9.221910433843732">
<ele>400</ele>
<time>2024-05-08T15:07:07Z</time>
</trkpt>
<trkpt lat="49.46985622867942" lon="9.221928538754582">
<ele>400.2</ele>
<time>2024-05-08T15:07:08Z</time>
</trkpt>
<trkpt lat="49.46989436633885" lon="9.221942871809006">
<ele>400.2</ele>
<time>2024-05-08T15:07:09Z</time>
</trkpt>
<trkpt lat="49.46993635967374" lon="9.2219552770257">
<ele>400.4</ele>
<time>2024-05-08T15:07:10Z</time>
</trkpt>
<trkpt lat="49.46997449733317" lon="9.221968604251742">
<ele>400.4</ele>
<time>2024-05-08T15:07:11Z</time>
</trkpt>
<trkpt lat="49.4700126349926" lon="9.221981931477783">
<ele>400.6</ele>
<time>2024-05-08T15:07:12Z</time>
</trkpt>
<trkpt lat="49.47005454450846" lon="9.2219914868474">
<ele>400.6</ele>
<time>2024-05-08T15:07:13Z</time>
</trkpt>
<trkpt lat="49.47009653784335" lon="9.221998192369938">
<ele>400.8</ele>
<time>2024-05-08T15:07:14Z</time>
</trkpt>
<trkpt lat="49.47013853117824" lon="9.222004814073443">
<ele>401</ele>
<time>2024-05-08T15:07:15Z</time>
</trkpt>
<trkpt lat="49.47018429636955" lon="9.222006741911173">
<ele>401.2</ele>
<time>2024-05-08T15:07:16Z</time>
</trkpt>
<trkpt lat="49.47022243402898" lon="9.222006741911173">
<ele>401.2</ele>
<time>2024-05-08T15:07:17Z</time>
</trkpt>
<trkpt lat="49.47026442736387" lon="9.222000120207667">
<ele>401.4</ele>
<time>2024-05-08T15:07:18Z</time>
</trkpt>
<trkpt lat="49.4703025650233" lon="9.221989559009671">
<ele>401.8</ele>
<time>2024-05-08T15:07:19Z</time>
</trkpt>
<trkpt lat="49.47034070268273" lon="9.221980087459087">
<ele>401.8</ele>
<time>2024-05-08T15:07:20Z</time>
</trkpt>
<trkpt lat="49.47037884034216" lon="9.221969526261091">
<ele>402</ele>
<time>2024-05-08T15:07:21Z</time>
</trkpt>
<trkpt lat="49.470416978001595" lon="9.22195142135024">
<ele>402.2</ele>
<time>2024-05-08T15:07:22Z</time>
</trkpt>
<trkpt lat="49.47045897133648" lon="9.221926610916851">
<ele>402.4</ele>
<time>2024-05-08T15:07:23Z</time>
</trkpt>
<trkpt lat="49.47050088085234" lon="9.221899956464767">
<ele>402.6</ele>
<time>2024-05-08T15:07:24Z</time>
</trkpt>
<trkpt lat="49.47053901851177" lon="9.22187514603138">
<ele>402.6</ele>
<time>2024-05-08T15:07:25Z</time>
</trkpt>
<trkpt lat="49.47058101184666" lon="9.221839858219028">
<ele>402.8</ele>
<time>2024-05-08T15:07:26Z</time>
</trkpt>
<trkpt lat="49.47062300518155" lon="9.221801720559595">
<ele>402.8</ele>
<time>2024-05-08T15:07:27Z</time>
</trkpt>
<trkpt lat="49.47066114284098" lon="9.22175788320601">
<ele>402.8</ele>
<time>2024-05-08T15:07:28Z</time>
</trkpt>
<trkpt lat="49.47069542482495" lon="9.2217187397182">
<ele>402.8</ele>
<time>2024-05-08T15:07:29Z</time>
</trkpt>
<trkpt lat="49.47072979062795" lon="9.22167867422104">
<ele>402.8</ele>
<time>2024-05-08T15:07:30Z</time>
</trkpt>
<trkpt lat="49.47076415643096" lon="9.22163676470518">
<ele>402.8</ele>
<time>2024-05-08T15:07:31Z</time>
</trkpt>
<trkpt lat="49.47079843841493" lon="9.221591921523212">
<ele>402.8</ele>
<time>2024-05-08T15:07:32Z</time>
</trkpt>
<trkpt lat="49.47082894854248" lon="9.221549928188324">
<ele>402.8</ele>
<time>2024-05-08T15:07:33Z</time>
</trkpt>
<trkpt lat="49.47085945867002" lon="9.221508018672466">
<ele>402.8</ele>
<time>2024-05-08T15:07:34Z</time>
</trkpt>
<trkpt lat="49.470889968797565" lon="9.221467953175306">
<ele>402.8</ele>
<time>2024-05-08T15:07:35Z</time>
</trkpt>
<trkpt lat="49.47091670706868" lon="9.221426881849766">
<ele>402.6</ele>
<time>2024-05-08T15:07:36Z</time>
</trkpt>
<trkpt lat="49.4709434453398" lon="9.221384972333908">
<ele>402.6</ele>
<time>2024-05-08T15:07:37Z</time>
</trkpt>
<trkpt lat="49.47097009979189" lon="9.22134297899902">
<ele>402.6</ele>
<time>2024-05-08T15:07:38Z</time>
</trkpt>
<trkpt lat="49.47100060991943" lon="9.22130006365478">
<ele>402.6</ele>
<time>2024-05-08T15:07:39Z</time>
</trkpt>
<trkpt lat="49.47103497572243" lon="9.221256226301191">
<ele>402.6</ele>
<time>2024-05-08T15:07:40Z</time>
</trkpt>
<trkpt lat="49.47106548584998" lon="9.221211383119226">
<ele>402.8</ele>
<time>2024-05-08T15:07:41Z</time>
</trkpt>
<trkpt lat="49.47109985165298" lon="9.22116369009018">
<ele>403</ele>
<time>2024-05-08T15:07:42Z</time>
</trkpt>
<trkpt lat="49.47113036178053" lon="9.221117924898865">
<ele>403.2</ele>
<time>2024-05-08T15:07:43Z</time>
</trkpt>
<trkpt lat="49.47116087190807" lon="9.221071237698196">
<ele>403.2</ele>
<time>2024-05-08T15:07:44Z</time>
</trkpt>
<trkpt lat="49.47119138203561" lon="9.22102639451623">
<ele>403.4</ele>
<time>2024-05-08T15:07:45Z</time>
</trkpt>
<trkpt lat="49.4712180364877" lon="9.220981551334262">
<ele>403.6</ele>
<time>2024-05-08T15:07:46Z</time>
</trkpt>
<trkpt lat="49.471244774758816" lon="9.220936708152294">
<ele>403.6</ele>
<time>2024-05-08T15:07:47Z</time>
</trkpt>
<trkpt lat="49.47127914056182" lon="9.220892870798709">
<ele>403.8</ele>
<time>2024-05-08T15:07:48Z</time>
</trkpt>
<trkpt lat="49.471305795013905" lon="9.22084802761674">
<ele>403.8</ele>
<time>2024-05-08T15:07:49Z</time>
</trkpt>
<trkpt lat="49.47133630514145" lon="9.22080704011023">
<ele>404</ele>
<time>2024-05-08T15:07:50Z</time>
</trkpt>
<trkpt lat="49.47137067094445" lon="9.220763202756643">
<ele>404</ele>
<time>2024-05-08T15:07:51Z</time>
</trkpt>
<trkpt lat="49.471404952928424" lon="9.220718359574676">
<ele>404</ele>
<time>2024-05-08T15:07:52Z</time>
</trkpt>
<trkpt lat="49.47144694626331" lon="9.220676366239786">
<ele>404</ele>
<time>2024-05-08T15:07:53Z</time>
</trkpt>
<trkpt lat="49.471485083922744" lon="9.220635378733276">
<ele>404</ele>
<time>2024-05-08T15:07:54Z</time>
</trkpt>
<trkpt lat="49.47151944972575" lon="9.22059154137969">
<ele>404.2</ele>
<time>2024-05-08T15:07:55Z</time>
</trkpt>
<trkpt lat="49.47154610417783" lon="9.220553319901228">
<ele>404.2</ele>
<time>2024-05-08T15:07:56Z</time>
</trkpt>
<trkpt lat="49.47157284244895" lon="9.220516188070178">
<ele>404.2</ele>
<time>2024-05-08T15:07:57Z</time>
</trkpt>
<trkpt lat="49.471603352576494" lon="9.220479894429443">
<ele>404.2</ele>
<time>2024-05-08T15:07:58Z</time>
</trkpt>
<trkpt lat="49.47162623517215" lon="9.220439828932284">
<ele>404.2</ele>
<time>2024-05-08T15:07:59Z</time>
</trkpt>
<trkpt lat="49.4716567452997" lon="9.22039314173162">
<ele>404.2</ele>
<time>2024-05-08T15:08:00Z</time>
</trkpt>
<trkpt lat="49.471683483570814" lon="9.220346370711924">
<ele>404.4</ele>
<time>2024-05-08T15:08:01Z</time>
</trkpt>
<trkpt lat="49.4717101380229" lon="9.220305383205414">
<ele>404.4</ele>
<time>2024-05-08T15:08:02Z</time>
</trkpt>
<trkpt lat="49.4717445038259" lon="9.220265317708254">
<ele>404.6</ele>
<time>2024-05-08T15:08:03Z</time>
</trkpt>
<trkpt lat="49.471778869628906" lon="9.220225252211094">
<ele>404.6</ele>
<time>2024-05-08T15:08:04Z</time>
</trkpt>
<trkpt lat="49.47182077914477" lon="9.220183342695236">
<ele>404.8</ele>
<time>2024-05-08T15:08:05Z</time>
</trkpt>
<trkpt lat="49.47185128927231" lon="9.220147132873535">
<ele>405</ele>
<time>2024-05-08T15:08:06Z</time>
</trkpt>
<trkpt lat="49.47188179939985" lon="9.22009466215968">
<ele>405</ele>
<time>2024-05-08T15:08:07Z</time>
</trkpt>
<trkpt lat="49.47190853767097" lon="9.220043113455176">
<ele>405.2</ele>
<time>2024-05-08T15:08:08Z</time>
</trkpt>
<trkpt lat="49.471939047798514" lon="9.21999835409224">
<ele>405.2</ele>
<time>2024-05-08T15:08:09Z</time>
</trkpt>
<trkpt lat="49.47197341360152" lon="9.219951583072543">
<ele>405.2</ele>
<time>2024-05-08T15:08:10Z</time>
</trkpt>
<trkpt lat="49.47201155126095" lon="9.219906739890575">
<ele>405.4</ele>
<time>2024-05-08T15:08:11Z</time>
</trkpt>
<trkpt lat="49.472038205713034" lon="9.219862902536988">
<ele>405.4</ele>
<time>2024-05-08T15:08:12Z</time>
</trkpt>
<trkpt lat="49.472076343372464" lon="9.219824764877558">
<ele>405.4</ele>
<time>2024-05-08T15:08:13Z</time>
</trkpt>
<trkpt lat="49.47210685350001" lon="9.219790399074554">
<ele>405.6</ele>
<time>2024-05-08T15:08:14Z</time>
</trkpt>
<trkpt lat="49.47214507497847" lon="9.21975988894701">
<ele>405.8</ele>
<time>2024-05-08T15:08:15Z</time>
</trkpt>
<trkpt lat="49.4721832126379" lon="9.219728456810117">
<ele>405.8</ele>
<time>2024-05-08T15:08:16Z</time>
</trkpt>
<trkpt lat="49.47221749462187" lon="9.219695013016462">
<ele>406</ele>
<time>2024-05-08T15:08:17Z</time>
</trkpt>
<trkpt lat="49.47225948795676" lon="9.219657881185412">
<ele>406</ele>
<time>2024-05-08T15:08:18Z</time>
</trkpt>
<trkpt lat="49.47230148129165" lon="9.219614965841174">
<ele>406.2</ele>
<time>2024-05-08T15:08:19Z</time>
</trkpt>
<trkpt lat="49.47234339080751" lon="9.219566266983747">
<ele>406.2</ele>
<time>2024-05-08T15:08:20Z</time>
</trkpt>
<trkpt lat="49.47238152846694" lon="9.219518657773731">
<ele>406.2</ele>
<time>2024-05-08T15:08:21Z</time>
</trkpt>
<trkpt lat="49.47241966612637" lon="9.219481442123652">
<ele>406.4</ele>
<time>2024-05-08T15:08:22Z</time>
</trkpt>
<trkpt lat="49.4724578037858" lon="9.219447076320648">
<ele>406.4</ele>
<time>2024-05-08T15:08:23Z</time>
</trkpt>
<trkpt lat="49.4724921695888" lon="9.219408016651869">
<ele>406.4</ele>
<time>2024-05-08T15:08:24Z</time>
</trkpt>
<trkpt lat="49.47252653539181" lon="9.219361245632172">
<ele>406.4</ele>
<time>2024-05-08T15:08:25Z</time>
</trkpt>
<trkpt lat="49.47256081737578" lon="9.21932503581047">
<ele>406.6</ele>
<time>2024-05-08T15:08:26Z</time>
</trkpt>
<trkpt lat="49.47259895503521" lon="9.219282120466232">
<ele>406.8</ele>
<time>2024-05-08T15:08:27Z</time>
</trkpt>
<trkpt lat="49.4726409483701" lon="9.219235349446537">
<ele>406.8</ele>
<time>2024-05-08T15:08:28Z</time>
</trkpt>
<trkpt lat="49.47267908602953" lon="9.21918866224587">
<ele>407</ele>
<time>2024-05-08T15:08:29Z</time>
</trkpt>
<trkpt lat="49.47271345183253" lon="9.21914666891098">
<ele>407.2</ele>
<time>2024-05-08T15:08:30Z</time>
</trkpt>
<trkpt lat="49.47275158949196" lon="9.21910660341382">
<ele>407.2</ele>
<time>2024-05-08T15:08:31Z</time>
</trkpt>
<trkpt lat="49.472789727151394" lon="9.219063688069582">
<ele>407.4</ele>
<time>2024-05-08T15:08:32Z</time>
</trkpt>
<trkpt lat="49.4728240929544" lon="9.219017922878264">
<ele>407.4</ele>
<time>2024-05-08T15:08:33Z</time>
</trkpt>
<trkpt lat="49.47285837493837" lon="9.218976935371757">
<ele>407.4</ele>
<time>2024-05-08T15:08:34Z</time>
</trkpt>
<trkpt lat="49.472885113209486" lon="9.21893016435206">
<ele>407.6</ele>
<time>2024-05-08T15:08:35Z</time>
</trkpt>
<trkpt lat="49.47291176766157" lon="9.218883477151394">
<ele>407.6</ele>
<time>2024-05-08T15:08:36Z</time>
</trkpt>
<trkpt lat="49.47293850593269" lon="9.218834862113">
<ele>407.6</ele>
<time>2024-05-08T15:08:37Z</time>
</trkpt>
<trkpt lat="49.472965160384774" lon="9.218783313408494">
<ele>407.6</ele>
<time>2024-05-08T15:08:38Z</time>
</trkpt>
<trkpt lat="49.47299575433135" lon="9.218727070838211">
<ele>407.6</ele>
<time>2024-05-08T15:08:39Z</time>
</trkpt>
<trkpt lat="49.47301863692701" lon="9.218666972592471">
<ele>407.6</ele>
<time>2024-05-08T15:08:40Z</time>
</trkpt>
<trkpt lat="49.473045291379094" lon="9.218605030328035">
<ele>407.6</ele>
<time>2024-05-08T15:08:41Z</time>
</trkpt>
<trkpt lat="49.47306817397475" lon="9.218546859920025">
<ele>407.6</ele>
<time>2024-05-08T15:08:42Z</time>
</trkpt>
<trkpt lat="49.47308728471398" lon="9.218480056151748">
<ele>407.8</ele>
<time>2024-05-08T15:08:43Z</time>
</trkpt>
<trkpt lat="49.47311016730964" lon="9.21841618604958">
<ele>407.8</ele>
<time>2024-05-08T15:08:44Z</time>
</trkpt>
<trkpt lat="49.473125422373414" lon="9.218343682587149">
<ele>407.8</ele>
<time>2024-05-08T15:08:45Z</time>
</trkpt>
<trkpt lat="49.47314830496907" lon="9.218271179124711">
<ele>407.8</ele>
<time>2024-05-08T15:08:46Z</time>
</trkpt>
<trkpt lat="49.473163560032845" lon="9.218205381184816">
<ele>407.8</ele>
<time>2024-05-08T15:08:47Z</time>
</trkpt>
<trkpt lat="49.47318267077208" lon="9.218134805560112">
<ele>407.8</ele>
<time>2024-05-08T15:08:48Z</time>
</trkpt>
<trkpt lat="49.473201697692275" lon="9.218070013448596">
<ele>407.8</ele>
<time>2024-05-08T15:08:49Z</time>
</trkpt>
<trkpt lat="49.47322458028793" lon="9.21800136566162">
<ele>407.8</ele>
<time>2024-05-08T15:08:50Z</time>
</trkpt>
<trkpt lat="49.473239835351706" lon="9.217933639883997">
<ele>407.8</ele>
<time>2024-05-08T15:08:51Z</time>
</trkpt>
<trkpt lat="49.47325894609094" lon="9.217864908277988">
<ele>407.8</ele>
<time>2024-05-08T15:08:52Z</time>
</trkpt>
<trkpt lat="49.473277973011136" lon="9.217800116166472">
<ele>407.8</ele>
<time>2024-05-08T15:08:53Z</time>
</trkpt>
<trkpt lat="49.47328945621848" lon="9.21774672344327">
<ele>407.8</ele>
<time>2024-05-08T15:08:54Z</time>
</trkpt>
<trkpt lat="49.473300855606794" lon="9.21768662519753">
<ele>407.8</ele>
<time>2024-05-08T15:08:55Z</time>
</trkpt>
<trkpt lat="49.47331233881414" lon="9.21762652695179">
<ele>407.8</ele>
<time>2024-05-08T15:08:56Z</time>
</trkpt>
<trkpt lat="49.47332382202149" lon="9.217573134228587">
<ele>407.8</ele>
<time>2024-05-08T15:08:57Z</time>
</trkpt>
<trkpt lat="49.47335047647357" lon="9.217514963820577">
<ele>407.8</ele>
<time>2024-05-08T15:08:58Z</time>
</trkpt>
<trkpt lat="49.47336573153734" lon="9.217463415116072">
<ele>407.8</ele>
<time>2024-05-08T15:08:59Z</time>
</trkpt>
<trkpt lat="49.47338484227657" lon="9.217408178374171">
<ele>407.8</ele>
<time>2024-05-08T15:09:00Z</time>
</trkpt>
<trkpt lat="49.47338484227657" lon="9.217354701831937">
<ele>407.8</ele>
<time>2024-05-08T15:09:01Z</time>
</trkpt>
<trkpt lat="49.47340772487223" lon="9.217283204197884">
<ele>408</ele>
<time>2024-05-08T15:09:02Z</time>
</trkpt>
<trkpt lat="49.47342675179243" lon="9.217218328267336">
<ele>408</ele>
<time>2024-05-08T15:09:03Z</time>
</trkpt>
<trkpt lat="49.473438234999776" lon="9.217158313840628">
<ele>408.2</ele>
<time>2024-05-08T15:09:04Z</time>
</trkpt>
<trkpt lat="49.473476372659206" lon="9.217078182846308">
<ele>408.2</ele>
<time>2024-05-08T15:09:05Z</time>
</trkpt>
<trkpt lat="49.47350688278675" lon="9.21699134632945">
<ele>408.4</ele>
<time>2024-05-08T15:09:06Z</time>
</trkpt>
<trkpt lat="49.47352976538241" lon="9.21691314317286">
<ele>408.4</ele>
<time>2024-05-08T15:09:07Z</time>
</trkpt>
<trkpt lat="49.47354887612164" lon="9.216843573376536">
<ele>408.4</ele>
<time>2024-05-08T15:09:08Z</time>
</trkpt>
<trkpt lat="49.4735717587173" lon="9.216772075742483">
<ele>408.6</ele>
<time>2024-05-08T15:09:09Z</time>
</trkpt>
<trkpt lat="49.47360226884484" lon="9.216706193983557">
<ele>408.6</ele>
<time>2024-05-08T15:09:10Z</time>
</trkpt>
<trkpt lat="49.4736251514405" lon="9.21664140187204">
<ele>408.8</ele>
<time>2024-05-08T15:09:11Z</time>
</trkpt>
<trkpt lat="49.47364803403616" lon="9.2165813036263">
<ele>409</ele>
<time>2024-05-08T15:09:12Z</time>
</trkpt>
<trkpt lat="49.47366328909993" lon="9.21652120538056">
<ele>409</ele>
<time>2024-05-08T15:09:13Z</time>
</trkpt>
<trkpt lat="49.47368239983916" lon="9.216456413269045">
<ele>409.2</ele>
<time>2024-05-08T15:09:14Z</time>
</trkpt>
<trkpt lat="49.47370142675936" lon="9.216391537338495">
<ele>409.4</ele>
<time>2024-05-08T15:09:15Z</time>
</trkpt>
<trkpt lat="49.473716681823134" lon="9.216333366930485">
<ele>409.4</ele>
<time>2024-05-08T15:09:16Z</time>
</trkpt>
<trkpt lat="49.47374342009425" lon="9.216268490999935">
<ele>409.4</ele>
<time>2024-05-08T15:09:17Z</time>
</trkpt>
<trkpt lat="49.47377393022179" lon="9.21620361506939">
<ele>409.6</ele>
<time>2024-05-08T15:09:18Z</time>
</trkpt>
<trkpt lat="49.47380058467388" lon="9.216134967282414">
<ele>409.8</ele>
<time>2024-05-08T15:09:19Z</time>
</trkpt>
<trkpt lat="49.473831094801426" lon="9.216072019189596">
<ele>409.8</ele>
<time>2024-05-08T15:09:20Z</time>
</trkpt>
<trkpt lat="49.473861688748" lon="9.216012926772237">
<ele>409.8</ele>
<time>2024-05-08T15:09:21Z</time>
</trkpt>
<trkpt lat="49.47388834320009" lon="9.215952828526497">
<ele>410</ele>
<time>2024-05-08T15:09:22Z</time>
</trkpt>
<trkpt lat="49.473915081471205" lon="9.2158870305866">
<ele>410</ele>
<time>2024-05-08T15:09:23Z</time>
</trkpt>
<trkpt lat="49.473949363455176" lon="9.21582693234086">
<ele>410.2</ele>
<time>2024-05-08T15:09:24Z</time>
</trkpt>
<trkpt lat="49.47397987358272" lon="9.21576976776123">
<ele>410.2</ele>
<time>2024-05-08T15:09:25Z</time>
</trkpt>
<trkpt lat="49.47401423938573" lon="9.21570866368711">
<ele>410.2</ele>
<time>2024-05-08T15:09:26Z</time>
</trkpt>
<trkpt lat="49.47404474951327" lon="9.21564957126975">
<ele>410.4</ele>
<time>2024-05-08T15:09:27Z</time>
</trkpt>
<trkpt lat="49.47407911531627" lon="9.215595172718167">
<ele>410.4</ele>
<time>2024-05-08T15:09:28Z</time>
</trkpt>
<trkpt lat="49.47411339730024" lon="9.215539852157235">
<ele>410.4</ele>
<time>2024-05-08T15:09:29Z</time>
</trkpt>
<trkpt lat="49.47414776310325" lon="9.21549316495657">
<ele>410.4</ele>
<time>2024-05-08T15:09:30Z</time>
</trkpt>
<trkpt lat="49.47417441755533" lon="9.215439772233369">
<ele>410.4</ele>
<time>2024-05-08T15:09:31Z</time>
</trkpt>
<trkpt lat="49.47420501150191" lon="9.2153949290514">
<ele>410.4</ele>
<time>2024-05-08T15:09:32Z</time>
</trkpt>
<trkpt lat="49.474231665953994" lon="9.21535201370716">
<ele>410.4</ele>
<time>2024-05-08T15:09:33Z</time>
</trkpt>
<trkpt lat="49.47425840422511" lon="9.215308176353574">
<ele>410.4</ele>
<time>2024-05-08T15:09:34Z</time>
</trkpt>
<trkpt lat="49.4742850586772" lon="9.215265261009336">
<ele>410.4</ele>
<time>2024-05-08T15:09:35Z</time>
</trkpt>
<trkpt lat="49.474311796948314" lon="9.215218489989638">
<ele>410.4</ele>
<time>2024-05-08T15:09:36Z</time>
</trkpt>
<trkpt lat="49.4743384514004" lon="9.215174652636051">
<ele>410.6</ele>
<time>2024-05-08T15:09:37Z</time>
</trkpt>
<trkpt lat="49.47436518967152" lon="9.21513651497662">
<ele>410.6</ele>
<time>2024-05-08T15:09:38Z</time>
</trkpt>
<trkpt lat="49.47440332733095" lon="9.215094521641731">
<ele>410.8</ele>
<time>2024-05-08T15:09:39Z</time>
</trkpt>
<trkpt lat="49.47443769313395" lon="9.215053534135222">
<ele>410.8</ele>
<time>2024-05-08T15:09:40Z</time>
</trkpt>
<trkpt lat="49.47447960264981" lon="9.215013468638062">
<ele>410.8</ele>
<time>2024-05-08T15:09:41Z</time>
</trkpt>
<trkpt lat="49.4745215959847" lon="9.214969631284475">
<ele>411</ele>
<time>2024-05-08T15:09:42Z</time>
</trkpt>
<trkpt lat="49.47455973364413" lon="9.21491615474224">
<ele>411.2</ele>
<time>2024-05-08T15:09:43Z</time>
</trkpt>
<trkpt lat="49.47459787130356" lon="9.214870389550924">
<ele>411.2</ele>
<time>2024-05-08T15:09:44Z</time>
</trkpt>
<trkpt lat="49.47463986463845" lon="9.21482370235026">
<ele>411.4</ele>
<time>2024-05-08T15:09:45Z</time>
</trkpt>
<trkpt lat="49.47467414662242" lon="9.21478170901537">
<ele>411.4</ele>
<time>2024-05-08T15:09:46Z</time>
</trkpt>
<trkpt lat="49.47471999563277" lon="9.214724460616708">
<ele>411.6</ele>
<time>2024-05-08T15:09:47Z</time>
</trkpt>
<trkpt lat="49.474761905148625" lon="9.214678695425391">
<ele>411.6</ele>
<time>2024-05-08T15:09:48Z</time>
</trkpt>
<trkpt lat="49.474803898483515" lon="9.214638629928231">
<ele>411.8</ele>
<time>2024-05-08T15:09:49Z</time>
</trkpt>
<trkpt lat="49.47484966367483" lon="9.214596720412374">
<ele>411.8</ele>
<time>2024-05-08T15:09:50Z</time>
</trkpt>
<trkpt lat="49.47488780133426" lon="9.214565204456449">
<ele>411.8</ele>
<time>2024-05-08T15:09:51Z</time>
</trkpt>
<trkpt lat="49.47492979466915" lon="9.214534694328904">
<ele>411.8</ele>
<time>2024-05-08T15:09:52Z</time>
</trkpt>
<trkpt lat="49.47497170418501" lon="9.214500412344933">
<ele>411.8</ele>
<time>2024-05-08T15:09:53Z</time>
</trkpt>
<trkpt lat="49.4750136975199" lon="9.21446512453258">
<ele>412</ele>
<time>2024-05-08T15:09:54Z</time>
</trkpt>
<trkpt lat="49.47505183517933" lon="9.214431680738926">
<ele>412</ele>
<time>2024-05-08T15:09:55Z</time>
</trkpt>
<trkpt lat="49.47508997283876" lon="9.214391699060798">
<ele>411.8</ele>
<time>2024-05-08T15:09:56Z</time>
</trkpt>
<trkpt lat="49.47513196617365" lon="9.214349705725908">
<ele>411.8</ele>
<time>2024-05-08T15:09:57Z</time>
</trkpt>
<trkpt lat="49.47517387568951" lon="9.214315339922903">
<ele>411.8</ele>
<time>2024-05-08T15:09:58Z</time>
</trkpt>
<trkpt lat="49.475219724699855" lon="9.21428482979536">
<ele>411.6</ele>
<time>2024-05-08T15:09:59Z</time>
</trkpt>
<trkpt lat="49.47526548989117" lon="9.214251469820738">
<ele>411.6</ele>
<time>2024-05-08T15:10:00Z</time>
</trkpt>
<trkpt lat="49.47531125508249" lon="9.214213332161307">
<ele>411.6</ele>
<time>2024-05-08T15:10:01Z</time>
</trkpt>
<trkpt lat="49.475357020273805" lon="9.214181900024414">
<ele>411.4</ele>
<time>2024-05-08T15:10:02Z</time>
</trkpt>
<trkpt lat="49.475395157933235" lon="9.21414845623076">
<ele>411.4</ele>
<time>2024-05-08T15:10:03Z</time>
</trkpt>
<trkpt lat="49.475433295592666" lon="9.214119873940945">
<ele>411.4</ele>
<time>2024-05-08T15:10:04Z</time>
</trkpt>
<trkpt lat="49.475475288927555" lon="9.214095063507555">
<ele>411.2</ele>
<time>2024-05-08T15:10:05Z</time>
</trkpt>
<trkpt lat="49.47551719844341" lon="9.21407125890255">
<ele>411.4</ele>
<time>2024-05-08T15:10:06Z</time>
</trkpt>
<trkpt lat="49.47556304745376" lon="9.21405022032559">
<ele>411.4</ele>
<time>2024-05-08T15:10:08Z</time>
</trkpt>
<trkpt lat="49.475654577836394" lon="9.213998755440116">
<ele>411.6</ele>
<time>2024-05-08T15:10:09Z</time>
</trkpt>
<trkpt lat="49.47570034302771" lon="9.21397302299738">
<ele>411.6</ele>
<time>2024-05-08T15:10:10Z</time>
</trkpt>
<trkpt lat="49.47574610821903" lon="9.213945362716911">
<ele>411.8</ele>
<time>2024-05-08T15:10:11Z</time>
</trkpt>
<trkpt lat="49.47578810155392" lon="9.213916696608068">
<ele>411.8</ele>
<time>2024-05-08T15:10:12Z</time>
</trkpt>
<trkpt lat="49.475830011069775" lon="9.21389196999371">
<ele>411.8</ele>
<time>2024-05-08T15:10:13Z</time>
</trkpt>
<trkpt lat="49.47587577626109" lon="9.213866153731942">
<ele>411.8</ele>
<time>2024-05-08T15:10:14Z</time>
</trkpt>
<trkpt lat="49.47592162527144" lon="9.213841427117586">
<ele>411.8</ele>
<time>2024-05-08T15:10:15Z</time>
</trkpt>
<trkpt lat="49.4759635347873" lon="9.213816616684198">
<ele>412</ele>
<time>2024-05-08T15:10:16Z</time>
</trkpt>
<trkpt lat="49.47600552812219" lon="9.21379180625081">
<ele>412</ele>
<time>2024-05-08T15:10:17Z</time>
</trkpt>
<trkpt lat="49.4760512933135" lon="9.213766995817425">
<ele>412</ele>
<time>2024-05-08T15:10:18Z</time>
</trkpt>
<trkpt lat="49.47609328664839" lon="9.213747968897223">
<ele>412</ele>
<time>2024-05-08T15:10:19Z</time>
</trkpt>
<trkpt lat="49.47613905183971" lon="9.213727936148643">
<ele>412.2</ele>
<time>2024-05-08T15:10:20Z</time>
</trkpt>
<trkpt lat="49.47618096135557" lon="9.213706897571685">
<ele>412.2</ele>
<time>2024-05-08T15:10:21Z</time>
</trkpt>
<trkpt lat="49.47622672654688" lon="9.213683092966676">
<ele>412.2</ele>
<time>2024-05-08T15:10:22Z</time>
</trkpt>
<trkpt lat="49.47626871988177" lon="9.213660210371016">
<ele>412.2</ele>
<time>2024-05-08T15:10:23Z</time>
</trkpt>
<trkpt lat="49.47631448507309" lon="9.2136334720999">
<ele>412.2</ele>
<time>2024-05-08T15:10:24Z</time>
</trkpt>
<trkpt lat="49.47635647840798" lon="9.21361343935132">
<ele>412.4</ele>
<time>2024-05-08T15:10:25Z</time>
</trkpt>
<trkpt lat="49.476402243599296" lon="9.213591562584044">
<ele>412.4</ele>
<time>2024-05-08T15:10:26Z</time>
</trkpt>
<trkpt lat="49.476444236934185" lon="9.213568679988384">
<ele>412.4</ele>
<time>2024-05-08T15:10:27Z</time>
</trkpt>
<trkpt lat="49.476482374593616" lon="9.213541941717269">
<ele>412.4</ele>
<time>2024-05-08T15:10:28Z</time>
</trkpt>
<trkpt lat="49.47652428410947" lon="9.21351620927453">
<ele>412.4</ele>
<time>2024-05-08T15:10:29Z</time>
</trkpt>
<trkpt lat="49.47656627744436" lon="9.213493326678872">
<ele>412.4</ele>
<time>2024-05-08T15:10:30Z</time>
</trkpt>
<trkpt lat="49.47660827077925" lon="9.213473293930292">
<ele>412.4</ele>
<time>2024-05-08T15:10:31Z</time>
</trkpt>
<trkpt lat="49.47665018029511" lon="9.213455189019442">
<ele>412.4</ele>
<time>2024-05-08T15:10:32Z</time>
</trkpt>
<trkpt lat="49.47669217363" lon="9.21343800611794">
<ele>412.4</ele>
<time>2024-05-08T15:10:33Z</time>
</trkpt>
<trkpt lat="49.47673408314586" lon="9.21341990120709">
<ele>412.6</ele>
<time>2024-05-08T15:10:34Z</time>
</trkpt>
<trkpt lat="49.47677230462432" lon="9.21339794062078">
<ele>412.6</ele>
<time>2024-05-08T15:10:35Z</time>
</trkpt>
<trkpt lat="49.47680658660829" lon="9.2133779078722">
<ele>412.8</ele>
<time>2024-05-08T15:10:37Z</time>
</trkpt>
<trkpt lat="49.47687909007072" lon="9.213355025276542">
<ele>413</ele>
<time>2024-05-08T15:10:38Z</time>
</trkpt>
<trkpt lat="49.47692485526204" lon="9.213351169601085">
<ele>413.2</ele>
<time>2024-05-08T15:10:39Z</time>
</trkpt>
<trkpt lat="49.47696684859693" lon="9.213350247591734">
<ele>413.2</ele>
<time>2024-05-08T15:10:40Z</time>
</trkpt>
<trkpt lat="49.47700875811279" lon="9.213348319754004">
<ele>413.4</ele>
<time>2024-05-08T15:10:41Z</time>
</trkpt>
<trkpt lat="49.47705837897957" lon="9.213350247591734">
<ele>413.4</ele>
<time>2024-05-08T15:10:42Z</time>
</trkpt>
<trkpt lat="49.47710414417088" lon="9.213351169601085">
<ele>413.4</ele>
<time>2024-05-08T15:10:43Z</time>
</trkpt>
<trkpt lat="49.4771499093622" lon="9.213356953114271">
<ele>413.4</ele>
<time>2024-05-08T15:10:44Z</time>
</trkpt>
<trkpt lat="49.4772033020854" lon="9.21335787512362">
<ele>413.4</ele>
<time>2024-05-08T15:10:45Z</time>
</trkpt>
<trkpt lat="49.477252922952175" lon="9.21335980296135">
<ele>413.4</ele>
<time>2024-05-08T15:10:46Z</time>
</trkpt>
<trkpt lat="49.47730254381895" lon="9.213364580646155">
<ele>413.4</ele>
<time>2024-05-08T15:10:47Z</time>
</trkpt>
<trkpt lat="49.477352080866694" lon="9.213370280340314">
<ele>413.4</ele>
<time>2024-05-08T15:10:48Z</time>
</trkpt>
<trkpt lat="49.47740170173347" lon="9.213375058025122">
<ele>413.4</ele>
<time>2024-05-08T15:10:49Z</time>
</trkpt>
<trkpt lat="49.47744746692479" lon="9.21338176354766">
<ele>413.4</ele>
<time>2024-05-08T15:10:50Z</time>
</trkpt>
<trkpt lat="49.4774932321161" lon="9.213388385251164">
<ele>413.4</ele>
<time>2024-05-08T15:10:51Z</time>
</trkpt>
<trkpt lat="49.47754285298288" lon="9.21339794062078">
<ele>413.4</ele>
<time>2024-05-08T15:10:52Z</time>
</trkpt>
<trkpt lat="49.477588618174195" lon="9.213410345837474">
<ele>413.4</ele>
<time>2024-05-08T15:10:53Z</time>
</trkpt>
<trkpt lat="49.47763823904097" lon="9.213421745225787">
<ele>413.4</ele>
<time>2024-05-08T15:10:54Z</time>
</trkpt>
<trkpt lat="49.477687776088715" lon="9.21343700028956">
<ele>413.2</ele>
<time>2024-05-08T15:10:55Z</time>
</trkpt>
<trkpt lat="49.47773739695549" lon="9.213451333343984">
<ele>413.2</ele>
<time>2024-05-08T15:10:56Z</time>
</trkpt>
<trkpt lat="49.477787017822266" lon="9.213466588407757">
<ele>413</ele>
<time>2024-05-08T15:10:57Z</time>
</trkpt>
<trkpt lat="49.47783655487001" lon="9.213481843471529">
<ele>412.8</ele>
<time>2024-05-08T15:10:58Z</time>
</trkpt>
<trkpt lat="49.47788994759321" lon="9.21349810436368">
<ele>412.8</ele>
<time>2024-05-08T15:10:59Z</time>
</trkpt>
<trkpt lat="49.477943340316415" lon="9.21351520344615">
<ele>412.6</ele>
<time>2024-05-08T15:11:00Z</time>
</trkpt>
<trkpt lat="49.47799681685865" lon="9.213531464338304">
<ele>412.4</ele>
<time>2024-05-08T15:11:01Z</time>
</trkpt>
<trkpt lat="49.47805398143828" lon="9.213551497086884">
<ele>412.2</ele>
<time>2024-05-08T15:11:02Z</time>
</trkpt>
<trkpt lat="49.47811122983694" lon="9.213571529835464">
<ele>412</ele>
<time>2024-05-08T15:11:03Z</time>
</trkpt>
<trkpt lat="49.4781684782356" lon="9.21359340660274">
<ele>411.8</ele>
<time>2024-05-08T15:11:04Z</time>
</trkpt>
<trkpt lat="49.47822564281523" lon="9.213618217036128">
<ele>411.6</ele>
<time>2024-05-08T15:11:05Z</time>
</trkpt>
<trkpt lat="49.47828666307032" lon="9.213646883144976">
<ele>411.4</ele>
<time>2024-05-08T15:11:06Z</time>
</trkpt>
<trkpt lat="49.47834776714444" lon="9.213680243119596">
<ele>411.4</ele>
<time>2024-05-08T15:11:07Z</time>
</trkpt>
<trkpt lat="49.47840493172407" lon="9.213718380779028">
<ele>411.2</ele>
<time>2024-05-08T15:11:08Z</time>
</trkpt>
<trkpt lat="49.47846595197916" lon="9.213760374113916">
<ele>410.8</ele>
<time>2024-05-08T15:11:09Z</time>
</trkpt>
<trkpt lat="49.47852705605328" lon="9.213807061314585">
<ele>410.6</ele>
<time>2024-05-08T15:11:10Z</time>
</trkpt>
<trkpt lat="49.47858807630837" lon="9.213859532028437">
<ele>410.4</ele>
<time>2024-05-08T15:11:11Z</time>
</trkpt>
<trkpt lat="49.47864909656346" lon="9.213919630274177">
<ele>410.2</ele>
<time>2024-05-08T15:11:12Z</time>
</trkpt>
<trkpt lat="49.47870248928666" lon="9.21399204991758">
<ele>410.2</ele>
<time>2024-05-08T15:11:13Z</time>
</trkpt>
<trkpt lat="49.478755882009864" lon="9.21407125890255">
<ele>410.2</ele>
<time>2024-05-08T15:11:14Z</time>
</trkpt>
<trkpt lat="49.47880927473307" lon="9.214155161753297">
<ele>410</ele>
<time>2024-05-08T15:11:15Z</time>
</trkpt>
<trkpt lat="49.47885889559984" lon="9.2142447642982">
<ele>409.8</ele>
<time>2024-05-08T15:11:16Z</time>
</trkpt>
<trkpt lat="49.47890851646662" lon="9.214338222518563">
<ele>409.6</ele>
<time>2024-05-08T15:11:17Z</time>
</trkpt>
<trkpt lat="49.47895805351436" lon="9.214433608576655">
<ele>409.4</ele>
<time>2024-05-08T15:11:18Z</time>
</trkpt>
<trkpt lat="49.47901530191302" lon="9.21452329494059">
<ele>409.2</ele>
<time>2024-05-08T15:11:19Z</time>
</trkpt>
<trkpt lat="49.479068694636226" lon="9.214605269953609">
<ele>409</ele>
<time>2024-05-08T15:11:20Z</time>
</trkpt>
<trkpt lat="49.47913357056677" lon="9.214674923568964">
<ele>408.6</ele>
<time>2024-05-08T15:11:21Z</time>
</trkpt>
<trkpt lat="49.47919844649732" lon="9.214724460616708">
<ele>408.2</ele>
<time>2024-05-08T15:11:22Z</time>
</trkpt>
<trkpt lat="49.47927086614072" lon="9.214757904410362">
<ele>407.8</ele>
<time>2024-05-08T15:11:23Z</time>
</trkpt>
<trkpt lat="49.47934336960316" lon="9.214776931330562">
<ele>407.6</ele>
<time>2024-05-08T15:11:24Z</time>
</trkpt>
<trkpt lat="49.47942350059748" lon="9.2147836368531">
<ele>407.2</ele>
<time>2024-05-08T15:11:25Z</time>
</trkpt>
<trkpt lat="49.47949977591634" lon="9.214770309627056">
<ele>406.6</ele>
<time>2024-05-08T15:11:26Z</time>
</trkpt>
<trkpt lat="49.4795760512352" lon="9.21474357135594">
<ele>406.2</ele>
<time>2024-05-08T15:11:27Z</time>
</trkpt>
<trkpt lat="49.47965232655406" lon="9.21470350585878">
<ele>405.8</ele>
<time>2024-05-08T15:11:28Z</time>
</trkpt>
<trkpt lat="49.47972868569195" lon="9.214656818658112">
<ele>405.4</ele>
<time>2024-05-08T15:11:29Z</time>
</trkpt>
<trkpt lat="49.479804961010814" lon="9.214598648250105">
<ele>405</ele>
<time>2024-05-08T15:11:30Z</time>
</trkpt>
<trkpt lat="49.479881236329675" lon="9.214531844481826">
<ele>404.4</ele>
<time>2024-05-08T15:11:31Z</time>
</trkpt>
<trkpt lat="49.47995373979211" lon="9.21446126885712">
<ele>404</ele>
<time>2024-05-08T15:11:32Z</time>
</trkpt>
<trkpt lat="49.48003387078643" lon="9.214398320764303">
<ele>403.4</ele>
<time>2024-05-08T15:11:33Z</time>
</trkpt>
<trkpt lat="49.48011014610529" lon="9.2143449280411">
<ele>402.8</ele>
<time>2024-05-08T15:11:34Z</time>
</trkpt>
<trkpt lat="49.480197904631495" lon="9.21430679038167">
<ele>402.4</ele>
<time>2024-05-08T15:11:35Z</time>
</trkpt>
<trkpt lat="49.48028180748224" lon="9.21428868547082">
<ele>402</ele>
<time>2024-05-08T15:11:36Z</time>
</trkpt>
<trkpt lat="49.48036956600845" lon="9.214289607480168">
<ele>401.4</ele>
<time>2024-05-08T15:11:37Z</time>
</trkpt>
<trkpt lat="49.4804534688592" lon="9.21430486254394">
<ele>401</ele>
<time>2024-05-08T15:11:38Z</time>
</trkpt>
<trkpt lat="49.48052974417806" lon="9.214336378499866">
<ele>400.6</ele>
<time>2024-05-08T15:11:39Z</time>
</trkpt>
<trkpt lat="49.48059839196503" lon="9.21438692137599">
<ele>400.2</ele>
<time>2024-05-08T15:11:40Z</time>
</trkpt>
<trkpt lat="49.48065564036369" lon="9.214454647153616">
<ele>399.8</ele>
<time>2024-05-08T15:11:41Z</time>
</trkpt>
<trkpt lat="49.48070140555501" lon="9.214527066797018">
<ele>399.6</ele>
<time>2024-05-08T15:11:42Z</time>
</trkpt>
<trkpt lat="49.48073954321444" lon="9.214596720412374">
<ele>399.2</ele>
<time>2024-05-08T15:11:43Z</time>
</trkpt>
<trkpt lat="49.48077390901744" lon="9.214666290208696">
<ele>399</ele>
<time>2024-05-08T15:11:44Z</time>
</trkpt>
<trkpt lat="49.48080441914499" lon="9.214730244129896">
<ele>399</ele>
<time>2024-05-08T15:11:45Z</time>
</trkpt>
<trkpt lat="49.48083492927253" lon="9.214788414537908">
<ele>399</ele>
<time>2024-05-08T15:11:46Z</time>
</trkpt>
<trkpt lat="49.48086158372462" lon="9.21484180726111">
<ele>399</ele>
<time>2024-05-08T15:11:47Z</time>
</trkpt>
<trkpt lat="49.480892177671194" lon="9.214888494461777">
<ele>399</ele>
<time>2024-05-08T15:11:48Z</time>
</trkpt>
<trkpt lat="49.480926459655166" lon="9.214933337643744">
<ele>399</ele>
<time>2024-05-08T15:11:49Z</time>
</trkpt>
<trkpt lat="49.48095696978271" lon="9.214973403140904">
<ele>399.2</ele>
<time>2024-05-08T15:11:50Z</time>
</trkpt>
<trkpt lat="49.48099510744214" lon="9.215006763115523">
<ele>399.2</ele>
<time>2024-05-08T15:11:51Z</time>
</trkpt>
<trkpt lat="49.481025617569685" lon="9.215033501386642">
<ele>399.4</ele>
<time>2024-05-08T15:11:52Z</time>
</trkpt>
<trkpt lat="49.48105998337269" lon="9.21505831182003">
<ele>399.4</ele>
<time>2024-05-08T15:11:53Z</time>
</trkpt>
<trkpt lat="49.48109434917569" lon="9.215083122253418">
<ele>399.6</ele>
<time>2024-05-08T15:11:54Z</time>
</trkpt>
<trkpt lat="49.48112485930323" lon="9.215104999020696">
<ele>399.8</ele>
<time>2024-05-08T15:11:55Z</time>
</trkpt>
<trkpt lat="49.48115914128721" lon="9.215125031769276">
<ele>400</ele>
<time>2024-05-08T15:11:56Z</time>
</trkpt>
<trkpt lat="49.48119350709021" lon="9.215145064517856">
<ele>400.4</ele>
<time>2024-05-08T15:11:57Z</time>
</trkpt>
<trkpt lat="49.481227872893214" lon="9.215163169428706">
<ele>400.6</ele>
<time>2024-05-08T15:11:58Z</time>
</trkpt>
<trkpt lat="49.481266010552645" lon="9.215171802788973">
<ele>400.8</ele>
<time>2024-05-08T15:11:59Z</time>
</trkpt>
<trkpt lat="49.481300292536616" lon="9.215174652636051">
<ele>401.2</ele>
<time>2024-05-08T15:12:00Z</time>
</trkpt>
<trkpt lat="49.48133843019605" lon="9.215180352330208">
<ele>401.6</ele>
<time>2024-05-08T15:12:01Z</time>
</trkpt>
<trkpt lat="49.48137656785548" lon="9.215187057852743">
<ele>402</ele>
<time>2024-05-08T15:12:02Z</time>
</trkpt>
<trkpt lat="49.48141478933394" lon="9.21519367955625">
<ele>402.4</ele>
<time>2024-05-08T15:12:03Z</time>
</trkpt>
<trkpt lat="49.48145292699337" lon="9.215203234925866">
<ele>402.6</ele>
<time>2024-05-08T15:12:04Z</time>
</trkpt>
<trkpt lat="49.4814910646528" lon="9.21521371230483">
<ele>403</ele>
<time>2024-05-08T15:12:05Z</time>
</trkpt>
<trkpt lat="49.48152920231223" lon="9.215223267674446">
<ele>403.2</ele>
<time>2024-05-08T15:12:06Z</time>
</trkpt>
<trkpt lat="49.48156733997166" lon="9.215232823044062">
<ele>403.6</ele>
<time>2024-05-08T15:12:07Z</time>
</trkpt>
<trkpt lat="49.48160547763109" lon="9.215241372585297">
<ele>404</ele>
<time>2024-05-08T15:12:08Z</time>
</trkpt>
<trkpt lat="49.48164361529052" lon="9.215250005945563">
<ele>404.4</ele>
<time>2024-05-08T15:12:09Z</time>
</trkpt>
<trkpt lat="49.48168175294995" lon="9.215258555486798">
<ele>404.8</ele>
<time>2024-05-08T15:12:10Z</time>
</trkpt>
<trkpt lat="49.481719890609384" lon="9.215266183018684">
<ele>405.2</ele>
<time>2024-05-08T15:12:11Z</time>
</trkpt>
<trkpt lat="49.481758112087846" lon="9.215272888541222">
<ele>405.6</ele>
<time>2024-05-08T15:12:12Z</time>
</trkpt>
<trkpt lat="49.48179624974728" lon="9.215279510244727">
<ele>405.8</ele>
<time>2024-05-08T15:12:13Z</time>
</trkpt>
<trkpt lat="49.481838159263134" lon="9.215288143604994">
<ele>406.2</ele>
<time>2024-05-08T15:12:14Z</time>
</trkpt>
<trkpt lat="49.481876296922565" lon="9.215292921289802">
<ele>406.6</ele>
<time>2024-05-08T15:12:15Z</time>
</trkpt>
<trkpt lat="49.48191451840103" lon="9.215299542993307">
<ele>407</ele>
<time>2024-05-08T15:12:16Z</time>
</trkpt>
<trkpt lat="49.48195265606046" lon="9.215305326506495">
<ele>407.4</ele>
<time>2024-05-08T15:12:17Z</time>
</trkpt>
<trkpt lat="49.48199079371989" lon="9.215310020372272">
<ele>407.6</ele>
<time>2024-05-08T15:12:18Z</time>
</trkpt>
<trkpt lat="49.48202507570386" lon="9.215318653732538">
<ele>408</ele>
<time>2024-05-08T15:12:19Z</time>
</trkpt>
<trkpt lat="49.48206321336329" lon="9.215323431417346">
<ele>408.2</ele>
<time>2024-05-08T15:12:20Z</time>
</trkpt>
<trkpt lat="49.48210143484175" lon="9.215328209102154">
<ele>408.6</ele>
<time>2024-05-08T15:12:21Z</time>
</trkpt>
<trkpt lat="49.48213957250118" lon="9.21533290296793">
<ele>408.8</ele>
<time>2024-05-08T15:12:22Z</time>
</trkpt>
<trkpt lat="49.482173854485154" lon="9.215338686481118">
<ele>409</ele>
<time>2024-05-08T15:12:23Z</time>
</trkpt>
<trkpt lat="49.48220822028816" lon="9.215343464165926">
<ele>409.2</ele>
<time>2024-05-08T15:12:24Z</time>
</trkpt>
<trkpt lat="49.48225021362305" lon="9.215350085869431">
<ele>409.4</ele>
<time>2024-05-08T15:12:25Z</time>
</trkpt>
<trkpt lat="49.48228449560702" lon="9.21535486355424">
<ele>409.6</ele>
<time>2024-05-08T15:12:26Z</time>
</trkpt>
<trkpt lat="49.48232263326645" lon="9.215359641239049">
<ele>409.6</ele>
<time>2024-05-08T15:12:27Z</time>
</trkpt>
<trkpt lat="49.48236077092588" lon="9.215361569076777">
<ele>409.8</ele>
<time>2024-05-08T15:12:28Z</time>
</trkpt>
<trkpt lat="49.48239890858531" lon="9.215366346761584">
<ele>409.8</ele>
<time>2024-05-08T15:12:29Z</time>
</trkpt>
<trkpt lat="49.48243713006377" lon="9.215370118618011">
<ele>409.8</ele>
<time>2024-05-08T15:12:30Z</time>
</trkpt>
<trkpt lat="49.4824752677232" lon="9.21537204645574">
<ele>409.8</ele>
<time>2024-05-08T15:12:31Z</time>
</trkpt>
<trkpt lat="49.48251340538263" lon="9.215376824140549">
<ele>410</ele>
<time>2024-05-08T15:12:32Z</time>
</trkpt>
<trkpt lat="49.48255531489849" lon="9.215383529663086">
<ele>410</ele>
<time>2024-05-08T15:12:33Z</time>
</trkpt>
<trkpt lat="49.48259353637695" lon="9.215386379510164">
<ele>410.2</ele>
<time>2024-05-08T15:12:34Z</time>
</trkpt>
<trkpt lat="49.482631674036384" lon="9.215388223528862">
<ele>410.4</ele>
<time>2024-05-08T15:12:35Z</time>
</trkpt>
<trkpt lat="49.48267358355224" lon="9.215390151366591">
<ele>410.4</ele>
<time>2024-05-08T15:12:36Z</time>
</trkpt>
<trkpt lat="49.48271172121167" lon="9.21539300121367">
<ele>410.4</ele>
<time>2024-05-08T15:12:37Z</time>
</trkpt>
<trkpt lat="49.4827498588711" lon="9.215398784726858">
<ele>410.6</ele>
<time>2024-05-08T15:12:38Z</time>
</trkpt>
<trkpt lat="49.48279185220599" lon="9.215405406430364">
<ele>410.6</ele>
<time>2024-05-08T15:12:39Z</time>
</trkpt>
<trkpt lat="49.48282998986542" lon="9.2154121119529">
<ele>410.8</ele>
<time>2024-05-08T15:12:40Z</time>
</trkpt>
<trkpt lat="49.48286812752485" lon="9.215416889637709">
<ele>410.8</ele>
<time>2024-05-08T15:12:41Z</time>
</trkpt>
<trkpt lat="49.48291012085974" lon="9.215417811647058">
<ele>410.8</ele>
<time>2024-05-08T15:12:42Z</time>
</trkpt>
<trkpt lat="49.48294825851917" lon="9.215419739484789">
<ele>411</ele>
<time>2024-05-08T15:12:43Z</time>
</trkpt>
<trkpt lat="49.48299025185406" lon="9.215423511341214">
<ele>411</ele>
<time>2024-05-08T15:12:44Z</time>
</trkpt>
<trkpt lat="49.48303216136992" lon="9.215424517169597">
<ele>411</ele>
<time>2024-05-08T15:12:45Z</time>
</trkpt>
<trkpt lat="49.48307029902935" lon="9.215428289026022">
<ele>411</ele>
<time>2024-05-08T15:12:46Z</time>
</trkpt>
<trkpt lat="49.48311229236424" lon="9.21543306671083">
<ele>411.2</ele>
<time>2024-05-08T15:12:47Z</time>
</trkpt>
<trkpt lat="49.48315043002367" lon="9.215437844395638">
<ele>411.2</ele>
<time>2024-05-08T15:12:48Z</time>
</trkpt>
<trkpt lat="49.48319242335856" lon="9.215441700071096">
<ele>411.2</ele>
<time>2024-05-08T15:12:49Z</time>
</trkpt>
<trkpt lat="49.48323433287442" lon="9.215448321774602">
<ele>411.2</ele>
<time>2024-05-08T15:12:50Z</time>
</trkpt>
<trkpt lat="49.48327632620931" lon="9.21545309945941">
<ele>411.4</ele>
<time>2024-05-08T15:12:52Z</time>
</trkpt>
<trkpt lat="49.48335645720363" lon="9.215464582666756">
<ele>411.4</ele>
<time>2024-05-08T15:12:53Z</time>
</trkpt>
<trkpt lat="49.48339836671949" lon="9.215464582666756">
<ele>411.4</ele>
<time>2024-05-08T15:12:54Z</time>
</trkpt>
<trkpt lat="49.483440360054374" lon="9.215466426685452">
<ele>411.6</ele>
<time>2024-05-08T15:12:55Z</time>
</trkpt>
<trkpt lat="49.48348235338926" lon="9.215466426685452">
<ele>411.8</ele>
<time>2024-05-08T15:12:56Z</time>
</trkpt>
<trkpt lat="49.48352426290512" lon="9.215466426685452">
<ele>411.8</ele>
<time>2024-05-08T15:12:57Z</time>
</trkpt>
<trkpt lat="49.48356625624001" lon="9.215468354523182">
<ele>411.8</ele>
<time>2024-05-08T15:12:58Z</time>
</trkpt>
<trkpt lat="49.48360816575587" lon="9.21547313220799">
<ele>411.8</ele>
<time>2024-05-08T15:12:59Z</time>
</trkpt>
<trkpt lat="49.48365015909076" lon="9.215477909892796">
<ele>412</ele>
<time>2024-05-08T15:13:00Z</time>
</trkpt>
<trkpt lat="49.48368829675019" lon="9.215483609586954">
<ele>412</ele>
<time>2024-05-08T15:13:01Z</time>
</trkpt>
<trkpt lat="49.48373029008508" lon="9.215484615415336">
<ele>412</ele>
<time>2024-05-08T15:13:02Z</time>
</trkpt>
<trkpt lat="49.48376842774451" lon="9.215486459434032">
<ele>412.2</ele>
<time>2024-05-08T15:13:03Z</time>
</trkpt>
<trkpt lat="49.48380656540394" lon="9.215488387271762">
<ele>412.2</ele>
<time>2024-05-08T15:13:04Z</time>
</trkpt>
<trkpt lat="49.48384855873883" lon="9.215490315109491">
<ele>412.2</ele>
<time>2024-05-08T15:13:05Z</time>
</trkpt>
<trkpt lat="49.48388669639826" lon="9.21549316495657">
<ele>412.4</ele>
<time>2024-05-08T15:13:06Z</time>
</trkpt>
<trkpt lat="49.48392483405769" lon="9.21549316495657">
<ele>412.6</ele>
<time>2024-05-08T15:13:07Z</time>
</trkpt>
<trkpt lat="49.48396682739258" lon="9.21549316495657">
<ele>412.8</ele>
<time>2024-05-08T15:13:08Z</time>
</trkpt>
<trkpt lat="49.48400873690843" lon="9.21549316495657">
<ele>413</ele>
<time>2024-05-08T15:13:09Z</time>
</trkpt>
<trkpt lat="49.484050730243325" lon="9.2154950927943">
<ele>413</ele>
<time>2024-05-08T15:13:10Z</time>
</trkpt>
<trkpt lat="49.48409263975918" lon="9.2154950927943">
<ele>413.2</ele>
<time>2024-05-08T15:13:11Z</time>
</trkpt>
<trkpt lat="49.48413463309407" lon="9.2154950927943">
<ele>413.2</ele>
<time>2024-05-08T15:13:12Z</time>
</trkpt>
<trkpt lat="49.48417662642896" lon="9.21549123711884">
<ele>413.4</ele>
<time>2024-05-08T15:13:13Z</time>
</trkpt>
<trkpt lat="49.48421853594482" lon="9.215490315109491">
<ele>413.4</ele>
<time>2024-05-08T15:13:14Z</time>
</trkpt>
<trkpt lat="49.48426052927971" lon="9.215488387271762">
<ele>413.4</ele>
<time>2024-05-08T15:13:15Z</time>
</trkpt>
<trkpt lat="49.48430243879557" lon="9.215488387271762">
<ele>413.4</ele>
<time>2024-05-08T15:13:16Z</time>
</trkpt>
<trkpt lat="49.484348287805915" lon="9.215488387271762">
<ele>413.4</ele>
<time>2024-05-08T15:13:17Z</time>
</trkpt>
<trkpt lat="49.48439019732177" lon="9.215486459434032">
<ele>413.4</ele>
<time>2024-05-08T15:13:18Z</time>
</trkpt>
<trkpt lat="49.48443219065666" lon="9.215486459434032">
<ele>413.2</ele>
<time>2024-05-08T15:13:19Z</time>
</trkpt>
<trkpt lat="49.48447410017252" lon="9.215486459434032">
<ele>413.2</ele>
<time>2024-05-08T15:13:20Z</time>
</trkpt>
<trkpt lat="49.48451609350741" lon="9.215488387271762">
<ele>413.2</ele>
<time>2024-05-08T15:13:21Z</time>
</trkpt>
<trkpt lat="49.4845580868423" lon="9.215488387271762">
<ele>413.2</ele>
<time>2024-05-08T15:13:22Z</time>
</trkpt>
<trkpt lat="49.48459622450173" lon="9.215486459434032">
<ele>413.2</ele>
<time>2024-05-08T15:13:24Z</time>
</trkpt>
<trkpt lat="49.48467635549605" lon="9.215484615415336">
<ele>413.4</ele>
<time>2024-05-08T15:13:25Z</time>
</trkpt>
<trkpt lat="49.48471449315548" lon="9.2154950927943">
<ele>413.4</ele>
<time>2024-05-08T15:13:26Z</time>
</trkpt>
<trkpt lat="49.48474877513945" lon="9.215517975389956">
<ele>413.6</ele>
<time>2024-05-08T15:13:27Z</time>
</trkpt>
<trkpt lat="49.484783140942454" lon="9.215550413355231">
<ele>413.6</ele>
<time>2024-05-08T15:13:28Z</time>
</trkpt>
<trkpt lat="49.48481365107" lon="9.215584695339205">
<ele>413.8</ele>
<time>2024-05-08T15:13:29Z</time>
</trkpt>
<trkpt lat="49.48484416119754" lon="9.215619983151557">
<ele>413.8</ele>
<time>2024-05-08T15:13:30Z</time>
</trkpt>
<trkpt lat="49.48487467132509" lon="9.215656276792288">
<ele>414</ele>
<time>2024-05-08T15:13:31Z</time>
</trkpt>
<trkpt lat="49.48490518145263" lon="9.21569156460464">
<ele>414.2</ele>
<time>2024-05-08T15:13:32Z</time>
</trkpt>
<trkpt lat="49.484935691580176" lon="9.215722074732184">
<ele>414.4</ele>
<time>2024-05-08T15:13:33Z</time>
</trkpt>
<trkpt lat="49.48496620170772" lon="9.21574973501265">
<ele>414.6</ele>
<time>2024-05-08T15:13:34Z</time>
</trkpt>
<trkpt lat="49.4849967956543" lon="9.215776389464736">
<ele>414.8</ele>
<time>2024-05-08T15:13:35Z</time>
</trkpt>
<trkpt lat="49.48502345010638" lon="9.215801199898124">
<ele>415</ele>
<time>2024-05-08T15:13:36Z</time>
</trkpt>
<trkpt lat="49.48505396023393" lon="9.21582793816924">
<ele>415.2</ele>
<time>2024-05-08T15:13:37Z</time>
</trkpt>
<trkpt lat="49.48508447036147" lon="9.215851742774248">
<ele>415.4</ele>
<time>2024-05-08T15:13:38Z</time>
</trkpt>
<trkpt lat="49.485114980489016" lon="9.21586791984737">
<ele>415.6</ele>
<time>2024-05-08T15:13:39Z</time>
</trkpt>
<trkpt lat="49.48514549061656" lon="9.21588317491114">
<ele>415.8</ele>
<time>2024-05-08T15:13:40Z</time>
</trkpt>
<trkpt lat="49.48517985641956" lon="9.215900357812645">
<ele>416</ele>
<time>2024-05-08T15:13:41Z</time>
</trkpt>
<trkpt lat="49.48521036654711" lon="9.215916618704796">
<ele>416.2</ele>
<time>2024-05-08T15:13:42Z</time>
</trkpt>
<trkpt lat="49.48524473235011" lon="9.21592994593084">
<ele>416.4</ele>
<time>2024-05-08T15:13:43Z</time>
</trkpt>
<trkpt lat="49.48527901433408" lon="9.215941429138184">
<ele>416.8</ele>
<time>2024-05-08T15:13:44Z</time>
</trkpt>
<trkpt lat="49.485313380137086" lon="9.215954756364226">
<ele>417</ele>
<time>2024-05-08T15:13:45Z</time>
</trkpt>
<trkpt lat="49.48534774594009" lon="9.215968083590267">
<ele>417.2</ele>
<time>2024-05-08T15:13:46Z</time>
</trkpt>
<trkpt lat="49.48538202792406" lon="9.215978560969234">
<ele>417.6</ele>
<time>2024-05-08T15:13:47Z</time>
</trkpt>
<trkpt lat="49.485416393727064" lon="9.21598618850112">
<ele>417.6</ele>
<time>2024-05-08T15:13:48Z</time>
</trkpt>
<trkpt lat="49.48544690385461" lon="9.215998593717812">
<ele>417.8</ele>
<time>2024-05-08T15:13:49Z</time>
</trkpt>
<trkpt lat="49.48548118583858" lon="9.216008149087427">
<ele>417.8</ele>
<time>2024-05-08T15:13:50Z</time>
</trkpt>
<trkpt lat="49.48551555164158" lon="9.216018626466392">
<ele>418</ele>
<time>2024-05-08T15:13:51Z</time>
</trkpt>
<trkpt lat="49.48554991744459" lon="9.216028181836007">
<ele>418.2</ele>
<time>2024-05-08T15:13:52Z</time>
</trkpt>
<trkpt lat="49.48558042757213" lon="9.216038659214972">
<ele>418.4</ele>
<time>2024-05-08T15:13:53Z</time>
</trkpt>
<trkpt lat="49.4856147095561" lon="9.216048214584587">
<ele>418.6</ele>
<time>2024-05-08T15:13:54Z</time>
</trkpt>
<trkpt lat="49.485649075359106" lon="9.216056764125824">
<ele>419</ele>
<time>2024-05-08T15:13:55Z</time>
</trkpt>
<trkpt lat="49.48568344116211" lon="9.21606539748609">
<ele>419.2</ele>
<time>2024-05-08T15:13:56Z</time>
</trkpt>
<trkpt lat="49.485713951289654" lon="9.216078724712132">
<ele>419.4</ele>
<time>2024-05-08T15:13:57Z</time>
</trkpt>
<trkpt lat="49.485748233273625" lon="9.216093057766557">
<ele>419.6</ele>
<time>2024-05-08T15:13:58Z</time>
</trkpt>
<trkpt lat="49.48577874340117" lon="9.216108312830327">
<ele>419.8</ele>
<time>2024-05-08T15:13:59Z</time>
</trkpt>
<trkpt lat="49.485809253528714" lon="9.2161235678941">
<ele>420</ele>
<time>2024-05-08T15:14:00Z</time>
</trkpt>
<trkpt lat="49.48583976365626" lon="9.216137817129493">
<ele>420.2</ele>
<time>2024-05-08T15:14:01Z</time>
</trkpt>
<trkpt lat="49.485870357602835" lon="9.216155000030994">
<ele>420.4</ele>
<time>2024-05-08T15:14:02Z</time>
</trkpt>
<trkpt lat="49.485904639586806" lon="9.216173104941843">
<ele>420.6</ele>
<time>2024-05-08T15:14:03Z</time>
</trkpt>
<trkpt lat="49.48593900538981" lon="9.216191209852695">
<ele>420.8</ele>
<time>2024-05-08T15:14:04Z</time>
</trkpt>
<trkpt lat="49.485969515517354" lon="9.216208392754195">
<ele>421</ele>
<time>2024-05-08T15:14:05Z</time>
</trkpt>
<trkpt lat="49.4860000256449" lon="9.21622465364635">
<ele>421.4</ele>
<time>2024-05-08T15:14:06Z</time>
</trkpt>
<trkpt lat="49.48603053577244" lon="9.21624368056655">
<ele>421.6</ele>
<time>2024-05-08T15:14:07Z</time>
</trkpt>
<trkpt lat="49.486064901575446" lon="9.216259941458702">
<ele>421.8</ele>
<time>2024-05-08T15:14:08Z</time>
</trkpt>
<trkpt lat="49.48609541170299" lon="9.216278046369553">
<ele>422</ele>
<time>2024-05-08T15:14:09Z</time>
</trkpt>
<trkpt lat="49.48612969368696" lon="9.216297073289752">
<ele>422.2</ele>
<time>2024-05-08T15:14:10Z</time>
</trkpt>
<trkpt lat="49.48619071394205" lon="9.216336216777565">
<ele>422.4</ele>
<time>2024-05-08T15:14:12Z</time>
</trkpt>
<trkpt lat="49.486225079745054" lon="9.216358177363873">
<ele>422.6</ele>
<time>2024-05-08T15:14:13Z</time>
</trkpt>
<trkpt lat="49.4862555898726" lon="9.21638005413115">
<ele>422.8</ele>
<time>2024-05-08T15:14:14Z</time>
</trkpt>
<trkpt lat="49.48628610000014" lon="9.21640008687973">
<ele>423</ele>
<time>2024-05-08T15:14:15Z</time>
</trkpt>
<trkpt lat="49.48631661012769" lon="9.21642011962831">
<ele>423</ele>
<time>2024-05-08T15:14:16Z</time>
</trkpt>
<trkpt lat="49.486343348398805" lon="9.21643822453916">
<ele>423.2</ele>
<time>2024-05-08T15:14:17Z</time>
</trkpt>
<trkpt lat="49.48637771420181" lon="9.21646018512547">
<ele>423.4</ele>
<time>2024-05-08T15:14:18Z</time>
</trkpt>
<trkpt lat="49.48640822432935" lon="9.2164811398834">
<ele>423.6</ele>
<time>2024-05-08T15:14:19Z</time>
</trkpt>
<trkpt lat="49.4864387344569" lon="9.21650025062263">
<ele>423.8</ele>
<time>2024-05-08T15:14:20Z</time>
</trkpt>
<trkpt lat="49.48647301644087" lon="9.216523133218288">
<ele>424</ele>
<time>2024-05-08T15:14:21Z</time>
</trkpt>
<trkpt lat="49.48650352656841" lon="9.216543165966868">
<ele>424</ele>
<time>2024-05-08T15:14:22Z</time>
</trkpt>
<trkpt lat="49.486537892371416" lon="9.216563198715448">
<ele>424.2</ele>
<time>2024-05-08T15:14:23Z</time>
</trkpt>
<trkpt lat="49.48656840249896" lon="9.216583231464028">
<ele>424.4</ele>
<time>2024-05-08T15:14:24Z</time>
</trkpt>
<trkpt lat="49.486598912626505" lon="9.216607036069036">
<ele>424.6</ele>
<time>2024-05-08T15:14:25Z</time>
</trkpt>
<trkpt lat="49.48663327842951" lon="9.216629918664694">
<ele>424.8</ele>
<time>2024-05-08T15:14:26Z</time>
</trkpt>
<trkpt lat="49.48666378855705" lon="9.216656656935813">
<ele>424.8</ele>
<time>2024-05-08T15:14:27Z</time>
</trkpt>
<trkpt lat="49.4866942986846" lon="9.2166814673692">
<ele>425.2</ele>
<time>2024-05-08T15:14:28Z</time>
</trkpt>
<trkpt lat="49.48672480881214" lon="9.216706193983557">
<ele>425.2</ele>
<time>2024-05-08T15:14:29Z</time>
</trkpt>
<trkpt lat="49.486759174615145" lon="9.216732010245323">
<ele>425.4</ele>
<time>2024-05-08T15:14:30Z</time>
</trkpt>
<trkpt lat="49.48678968474269" lon="9.21675967052579">
<ele>425.6</ele>
<time>2024-05-08T15:14:31Z</time>
</trkpt>
<trkpt lat="49.48682019487023" lon="9.216790180653334">
<ele>425.8</ele>
<time>2024-05-08T15:14:32Z</time>
</trkpt>
<trkpt lat="49.486854476854205" lon="9.216819684952496">
<ele>425.8</ele>
<time>2024-05-08T15:14:33Z</time>
</trkpt>
<trkpt lat="49.48688507080078" lon="9.216851200908422">
<ele>426</ele>
<time>2024-05-08T15:14:34Z</time>
</trkpt>
<trkpt lat="49.486915580928326" lon="9.216883638873696">
<ele>426</ele>
<time>2024-05-08T15:14:35Z</time>
</trkpt>
<trkpt lat="49.48694609105587" lon="9.21691699884832">
<ele>426.2</ele>
<time>2024-05-08T15:14:36Z</time>
</trkpt>
<trkpt lat="49.486976601183414" lon="9.21695320867002">
<ele>426.2</ele>
<time>2024-05-08T15:14:37Z</time>
</trkpt>
<trkpt lat="49.4870032556355" lon="9.216989502310753">
<ele>426.4</ele>
<time>2024-05-08T15:14:38Z</time>
</trkpt>
<trkpt lat="49.48702999390662" lon="9.217028561979532">
<ele>426.6</ele>
<time>2024-05-08T15:14:39Z</time>
</trkpt>
<trkpt lat="49.487056732177734" lon="9.217066699638965">
<ele>426.6</ele>
<time>2024-05-08T15:14:40Z</time>
</trkpt>
<trkpt lat="49.48708338662982" lon="9.217106765136124">
<ele>426.8</ele>
<time>2024-05-08T15:14:41Z</time>
</trkpt>
<trkpt lat="49.48711012490094" lon="9.217143058776855">
<ele>427</ele>
<time>2024-05-08T15:14:42Z</time>
</trkpt>
<trkpt lat="49.48713677935302" lon="9.217180190607904">
<ele>427.2</ele>
<time>2024-05-08T15:14:43Z</time>
</trkpt>
<trkpt lat="49.48716728948057" lon="9.217218328267336">
<ele>427.4</ele>
<time>2024-05-08T15:14:44Z</time>
</trkpt>
<trkpt lat="49.48719402775168" lon="9.217258393764496">
<ele>427.4</ele>
<time>2024-05-08T15:14:45Z</time>
</trkpt>
<trkpt lat="49.48722068220377" lon="9.217296531423926">
<ele>427.4</ele>
<time>2024-05-08T15:14:46Z</time>
</trkpt>
<trkpt lat="49.48724742047489" lon="9.217333747074008">
<ele>427.6</ele>
<time>2024-05-08T15:14:47Z</time>
</trkpt>
<trkpt lat="49.487274158746" lon="9.217371884733438">
<ele>427.8</ele>
<time>2024-05-08T15:14:48Z</time>
</trkpt>
<trkpt lat="49.48730081319809" lon="9.217406250536442">
<ele>427.8</ele>
<time>2024-05-08T15:14:49Z</time>
</trkpt>
<trkpt lat="49.48732755146921" lon="9.217443466186523">
<ele>428</ele>
<time>2024-05-08T15:14:50Z</time>
</trkpt>
<trkpt lat="49.48735420592129" lon="9.217478670179844">
<ele>428.2</ele>
<time>2024-05-08T15:14:51Z</time>
</trkpt>
<trkpt lat="49.48738094419241" lon="9.217514963820577">
<ele>428.2</ele>
<time>2024-05-08T15:14:52Z</time>
</trkpt>
<trkpt lat="49.48740768246353" lon="9.217553101480007">
<ele>428.4</ele>
<time>2024-05-08T15:14:53Z</time>
</trkpt>
<trkpt lat="49.48743819259107" lon="9.217593166977167">
<ele>428.6</ele>
<time>2024-05-08T15:14:54Z</time>
</trkpt>
<trkpt lat="49.48746484704316" lon="9.217633232474329">
<ele>428.8</ele>
<time>2024-05-08T15:14:55Z</time>
</trkpt>
<trkpt lat="49.48749921284616" lon="9.217675141990185">
<ele>428.8</ele>
<time>2024-05-08T15:14:56Z</time>
</trkpt>
<trkpt lat="49.487529722973704" lon="9.217716213315724">
<ele>429</ele>
<time>2024-05-08T15:14:57Z</time>
</trkpt>
<trkpt lat="49.48756023310125" lon="9.217760050669312">
<ele>429</ele>
<time>2024-05-08T15:14:58Z</time>
</trkpt>
<trkpt lat="49.48759459890425" lon="9.21780296601355">
<ele>429.2</ele>
<time>2024-05-08T15:14:59Z</time>
</trkpt>
<trkpt lat="49.4876251090318" lon="9.217846803367138">
<ele>429.2</ele>
<time>2024-05-08T15:15:00Z</time>
</trkpt>
<trkpt lat="49.48765939101577" lon="9.217893574386837">
<ele>429.2</ele>
<time>2024-05-08T15:15:01Z</time>
</trkpt>
<trkpt lat="49.48768990114331" lon="9.2179402615875">
<ele>429.2</ele>
<time>2024-05-08T15:15:02Z</time>
</trkpt>
<trkpt lat="49.48772426694632" lon="9.217987032607198">
<ele>429.4</ele>
<time>2024-05-08T15:15:03Z</time>
</trkpt>
<trkpt lat="49.48775477707386" lon="9.218033719807863">
<ele>429.4</ele>
<time>2024-05-08T15:15:04Z</time>
</trkpt>
<trkpt lat="49.48779291473329" lon="9.218076635152102">
<ele>429.4</ele>
<time>2024-05-08T15:15:05Z</time>
</trkpt>
<trkpt lat="49.487827280536294" lon="9.21811955049634">
<ele>429.4</ele>
<time>2024-05-08T15:15:06Z</time>
</trkpt>
<trkpt lat="49.487861562520266" lon="9.21816154383123">
<ele>429.4</ele>
<time>2024-05-08T15:15:07Z</time>
</trkpt>
<trkpt lat="49.48789592832327" lon="9.218206387013195">
<ele>429.4</ele>
<time>2024-05-08T15:15:08Z</time>
</trkpt>
<trkpt lat="49.48793029412627" lon="9.218255002051592">
<ele>429.2</ele>
<time>2024-05-08T15:15:09Z</time>
</trkpt>
<trkpt lat="49.4879684317857" lon="9.218308394774796">
<ele>429.2</ele>
<time>2024-05-08T15:15:10Z</time>
</trkpt>
<trkpt lat="49.48800656944513" lon="9.218364637345076">
<ele>429</ele>
<time>2024-05-08T15:15:11Z</time>
</trkpt>
<trkpt lat="49.48804847896099" lon="9.21841811388731">
<ele>429</ele>
<time>2024-05-08T15:15:12Z</time>
</trkpt>
<trkpt lat="49.488098099827766" lon="9.218466728925703">
<ele>428.8</ele>
<time>2024-05-08T15:15:13Z</time>
</trkpt>
<trkpt lat="49.48815149255097" lon="9.218502938747406">
<ele>428.6</ele>
<time>2024-05-08T15:15:14Z</time>
</trkpt>
<trkpt lat="49.48820488527417" lon="9.218526827171443">
<ele>428.4</ele>
<time>2024-05-08T15:15:15Z</time>
</trkpt>
<trkpt lat="49.48826598934829" lon="9.218536298722029">
<ele>428.2</ele>
<time>2024-05-08T15:15:16Z</time>
</trkpt>
<trkpt lat="49.48832315392792" lon="9.218536298722029">
<ele>427.8</ele>
<time>2024-05-08T15:15:17Z</time>
</trkpt>
<trkpt lat="49.488376546651125" lon="9.218526827171443">
<ele>427.6</ele>
<time>2024-05-08T15:15:18Z</time>
</trkpt>
<trkpt lat="49.48843002319336" lon="9.21851634979248">
<ele>427.4</ele>
<time>2024-05-08T15:15:19Z</time>
</trkpt>
<trkpt lat="49.48848341591656" lon="9.218508638441564">
<ele>427.2</ele>
<time>2024-05-08T15:15:20Z</time>
</trkpt>
<trkpt lat="49.488536808639765" lon="9.218504866585135">
<ele>427</ele>
<time>2024-05-08T15:15:21Z</time>
</trkpt>
<trkpt lat="49.48858634568751" lon="9.218508638441564">
<ele>426.8</ele>
<time>2024-05-08T15:15:22Z</time>
</trkpt>
<trkpt lat="49.48863982222974" lon="9.218518193811178">
<ele>426.6</ele>
<time>2024-05-08T15:15:23Z</time>
</trkpt>
<trkpt lat="49.488693214952946" lon="9.218540154397488">
<ele>426.4</ele>
<time>2024-05-08T15:15:24Z</time>
</trkpt>
<trkpt lat="49.48873898014426" lon="9.218563036993146">
<ele>426.4</ele>
<time>2024-05-08T15:15:25Z</time>
</trkpt>
<trkpt lat="49.48878474533558" lon="9.218584997579455">
<ele>426.4</ele>
<time>2024-05-08T15:15:26Z</time>
</trkpt>
<trkpt lat="49.488830510526896" lon="9.218605030328035">
<ele>426.2</ele>
<time>2024-05-08T15:15:27Z</time>
</trkpt>
<trkpt lat="49.488872503861785" lon="9.218627912923694">
<ele>426.2</ele>
<time>2024-05-08T15:15:28Z</time>
</trkpt>
<trkpt lat="49.48891441337764" lon="9.218649789690971">
<ele>426.2</ele>
<time>2024-05-08T15:15:29Z</time>
</trkpt>
<trkpt lat="49.48895640671253" lon="9.218666972592471">
<ele>426.2</ele>
<time>2024-05-08T15:15:30Z</time>
</trkpt>
<trkpt lat="49.48899454437196" lon="9.218683233484626">
<ele>426.2</ele>
<time>2024-05-08T15:15:31Z</time>
</trkpt>
<trkpt lat="49.48903653770685" lon="9.218698488548398">
<ele>426</ele>
<time>2024-05-08T15:15:32Z</time>
</trkpt>
<trkpt lat="49.48907844722271" lon="9.218707960098982">
<ele>426</ele>
<time>2024-05-08T15:15:33Z</time>
</trkpt>
<trkpt lat="49.4891204405576" lon="9.218716593459249">
<ele>426.2</ele>
<time>2024-05-08T15:15:34Z</time>
</trkpt>
<trkpt lat="49.4891548063606" lon="9.218721371144056">
<ele>426.2</ele>
<time>2024-05-08T15:15:35Z</time>
</trkpt>
<trkpt lat="49.48918531648815" lon="9.218727992847562">
<ele>426.2</ele>
<time>2024-05-08T15:15:36Z</time>
</trkpt>
<trkpt lat="49.48922345414758" lon="9.218743247911334">
<ele>426.2</ele>
<time>2024-05-08T15:15:37Z</time>
</trkpt>
<trkpt lat="49.48925773613155" lon="9.21875473111868">
<ele>426.2</ele>
<time>2024-05-08T15:15:38Z</time>
</trkpt>
<trkpt lat="49.48929210193455" lon="9.218768058344722">
<ele>426.4</ele>
<time>2024-05-08T15:15:39Z</time>
</trkpt>
<trkpt lat="49.489326467737556" lon="9.218786163255572">
<ele>426.6</ele>
<time>2024-05-08T15:15:40Z</time>
</trkpt>
<trkpt lat="49.489364605396986" lon="9.218799574300649">
<ele>426.6</ele>
<time>2024-05-08T15:15:41Z</time>
</trkpt>
<trkpt lat="49.48939125984907" lon="9.218808123841882">
<ele>426.8</ele>
<time>2024-05-08T15:15:42Z</time>
</trkpt>
<trkpt lat="49.48941799812019" lon="9.218819607049229">
<ele>427</ele>
<time>2024-05-08T15:15:43Z</time>
</trkpt>
<trkpt lat="49.48945228010416" lon="9.218836706131697">
<ele>427</ele>
<time>2024-05-08T15:15:44Z</time>
</trkpt>
<trkpt lat="49.48949050158262" lon="9.218856738880277">
<ele>427.2</ele>
<time>2024-05-08T15:15:45Z</time>
</trkpt>
<trkpt lat="49.48953241109848" lon="9.218879621475937">
<ele>427.4</ele>
<time>2024-05-08T15:15:46Z</time>
</trkpt>
<trkpt lat="49.48957440443337" lon="9.218906359747052">
<ele>427.4</ele>
<time>2024-05-08T15:15:47Z</time>
</trkpt>
<trkpt lat="49.4896125420928" lon="9.21893117018044">
<ele>427.6</ele>
<time>2024-05-08T15:15:48Z</time>
</trkpt>
<trkpt lat="49.48965067975223" lon="9.218957824632524">
<ele>427.6</ele>
<time>2024-05-08T15:15:49Z</time>
</trkpt>
<trkpt lat="49.48968881741166" lon="9.218983640894294">
<ele>427.6</ele>
<time>2024-05-08T15:15:50Z</time>
</trkpt>
<trkpt lat="49.48973081074655" lon="9.21901029534638">
<ele>427.8</ele>
<time>2024-05-08T15:15:51Z</time>
</trkpt>
<trkpt lat="49.48976894840598" lon="9.219035105779769">
<ele>427.8</ele>
<time>2024-05-08T15:15:52Z</time>
</trkpt>
<trkpt lat="49.489803314208984" lon="9.219057988375424">
<ele>427.8</ele>
<time>2024-05-08T15:15:53Z</time>
</trkpt>
<trkpt lat="49.4898490794003" lon="9.219084726646544">
<ele>427.8</ele>
<time>2024-05-08T15:15:54Z</time>
</trkpt>
<trkpt lat="49.48988721705973" lon="9.21910853125155">
<ele>427.8</ele>
<time>2024-05-08T15:15:55Z</time>
</trkpt>
<trkpt lat="49.48992535471916" lon="9.219131413847208">
<ele>427.8</ele>
<time>2024-05-08T15:15:56Z</time>
</trkpt>
<trkpt lat="49.48996349237859" lon="9.219155302271249">
<ele>427.8</ele>
<time>2024-05-08T15:15:57Z</time>
</trkpt>
<trkpt lat="49.49000163003802" lon="9.219176257029176">
<ele>427.8</ele>
<time>2024-05-08T15:15:58Z</time>
</trkpt>
<trkpt lat="49.49004362337291" lon="9.219200061634185">
<ele>427.8</ele>
<time>2024-05-08T15:15:59Z</time>
</trkpt>
<trkpt lat="49.49008176103234" lon="9.219220094382765">
<ele>427.8</ele>
<time>2024-05-08T15:16:00Z</time>
</trkpt>
<trkpt lat="49.4901236705482" lon="9.219240127131345">
<ele>428</ele>
<time>2024-05-08T15:16:01Z</time>
</trkpt>
<trkpt lat="49.49016566388309" lon="9.219260159879925">
<ele>428</ele>
<time>2024-05-08T15:16:02Z</time>
</trkpt>
<trkpt lat="49.49020765721798" lon="9.219280192628505">
<ele>428</ele>
<time>2024-05-08T15:16:03Z</time>
</trkpt>
<trkpt lat="49.49024956673384" lon="9.219300225377085">
<ele>428</ele>
<time>2024-05-08T15:16:04Z</time>
</trkpt>
<trkpt lat="49.49028770439327" lon="9.219321180135012">
<ele>428.2</ele>
<time>2024-05-08T15:16:05Z</time>
</trkpt>
<trkpt lat="49.49032969772816" lon="9.21934506855905">
<ele>428.2</ele>
<time>2024-05-08T15:16:06Z</time>
</trkpt>
<trkpt lat="49.49037169106305" lon="9.219367951154709">
<ele>428.4</ele>
<time>2024-05-08T15:16:07Z</time>
</trkpt>
<trkpt lat="49.490413600578904" lon="9.219391755759716">
<ele>428.4</ele>
<time>2024-05-08T15:16:08Z</time>
</trkpt>
<trkpt lat="49.490455593913794" lon="9.219414638355374">
<ele>428.4</ele>
<time>2024-05-08T15:16:09Z</time>
</trkpt>
<trkpt lat="49.49050521478057" lon="9.219436598941684">
<ele>428.4</ele>
<time>2024-05-08T15:16:10Z</time>
</trkpt>
<trkpt lat="49.490550979971886" lon="9.219456631690264">
<ele>428.6</ele>
<time>2024-05-08T15:16:11Z</time>
</trkpt>
<trkpt lat="49.4905967451632" lon="9.219476664438844">
<ele>428.6</ele>
<time>2024-05-08T15:16:12Z</time>
</trkpt>
<trkpt lat="49.49064251035452" lon="9.219499547034502">
<ele>428.6</ele>
<time>2024-05-08T15:16:13Z</time>
</trkpt>
<trkpt lat="49.490688275545835" lon="9.219519579783082">
<ele>428.8</ele>
<time>2024-05-08T15:16:14Z</time>
</trkpt>
<trkpt lat="49.49073404073715" lon="9.219541540369391">
<ele>428.8</ele>
<time>2024-05-08T15:16:15Z</time>
</trkpt>
<trkpt lat="49.49078366160393" lon="9.219561573117971">
<ele>428.8</ele>
<time>2024-05-08T15:16:16Z</time>
</trkpt>
<trkpt lat="49.49082942679525" lon="9.21958344988525">
<ele>428.8</ele>
<time>2024-05-08T15:16:17Z</time>
</trkpt>
<trkpt lat="49.49087519198656" lon="9.21960348263383">
<ele>428.6</ele>
<time>2024-05-08T15:16:18Z</time>
</trkpt>
<trkpt lat="49.490924812853336" lon="9.219623515382407">
<ele>428.6</ele>
<time>2024-05-08T15:16:19Z</time>
</trkpt>
<trkpt lat="49.49097434990108" lon="9.21964162029326">
<ele>428.4</ele>
<time>2024-05-08T15:16:20Z</time>
</trkpt>
<trkpt lat="49.49102019891143" lon="9.21966165304184">
<ele>428.4</ele>
<time>2024-05-08T15:16:21Z</time>
</trkpt>
<trkpt lat="49.49106973595917" lon="9.219684535637498">
<ele>428.4</ele>
<time>2024-05-08T15:16:22Z</time>
</trkpt>
<trkpt lat="49.49111550115049" lon="9.219704568386078">
<ele>428.2</ele>
<time>2024-05-08T15:16:23Z</time>
</trkpt>
<trkpt lat="49.491165122017264" lon="9.219723679125307">
<ele>428.2</ele>
<time>2024-05-08T15:16:24Z</time>
</trkpt>
<trkpt lat="49.49121851474047" lon="9.21974178403616">
<ele>428.4</ele>
<time>2024-05-08T15:16:25Z</time>
</trkpt>
<trkpt lat="49.49126813560724" lon="9.21975796110928">
<ele>428.4</ele>
<time>2024-05-08T15:16:26Z</time>
</trkpt>
<trkpt lat="49.491317672654986" lon="9.219777071848512">
<ele>428.4</ele>
<time>2024-05-08T15:16:27Z</time>
</trkpt>
<trkpt lat="49.49136729352176" lon="9.219791404902937">
<ele>428.4</ele>
<time>2024-05-08T15:16:28Z</time>
</trkpt>
<trkpt lat="49.49141305871308" lon="9.219811437651517">
<ele>428.4</ele>
<time>2024-05-08T15:16:29Z</time>
</trkpt>
<trkpt lat="49.49146645143628" lon="9.219829542562366">
<ele>428.4</ele>
<time>2024-05-08T15:16:30Z</time>
</trkpt>
<trkpt lat="49.49151607230306" lon="9.219846725463867">
<ele>428.6</ele>
<time>2024-05-08T15:16:31Z</time>
</trkpt>
<trkpt lat="49.49156946502626" lon="9.21986198052764">
<ele>428.4</ele>
<time>2024-05-08T15:16:32Z</time>
</trkpt>
<trkpt lat="49.491619085893035" lon="9.21987815760076">
<ele>428.4</ele>
<time>2024-05-08T15:16:33Z</time>
</trkpt>
<trkpt lat="49.49166862294078" lon="9.219893412664533">
<ele>428.4</ele>
<time>2024-05-08T15:16:34Z</time>
</trkpt>
<trkpt lat="49.491718243807554" lon="9.219906739890575">
<ele>428.4</ele>
<time>2024-05-08T15:16:35Z</time>
</trkpt>
<trkpt lat="49.49176786467433" lon="9.21991822309792">
<ele>428.2</ele>
<time>2024-05-08T15:16:36Z</time>
</trkpt>
<trkpt lat="49.491817401722074" lon="9.219929622486234">
<ele>428.2</ele>
<time>2024-05-08T15:16:37Z</time>
</trkpt>
<trkpt lat="49.49186702258885" lon="9.219942027702928">
<ele>428.2</ele>
<time>2024-05-08T15:16:38Z</time>
</trkpt>
<trkpt lat="49.491916643455625" lon="9.219953510910273">
<ele>428</ele>
<time>2024-05-08T15:16:39Z</time>
</trkpt>
<trkpt lat="49.49196618050337" lon="9.219964910298586">
<ele>428</ele>
<time>2024-05-08T15:16:40Z</time>
</trkpt>
<trkpt lat="49.49201957322657" lon="9.2199744656682">
<ele>428</ele>
<time>2024-05-08T15:16:41Z</time>
</trkpt>
<trkpt lat="49.49206919409335" lon="9.219982093200088">
<ele>428</ele>
<time>2024-05-08T15:16:42Z</time>
</trkpt>
<trkpt lat="49.49211881496012" lon="9.219987792894244">
<ele>428</ele>
<time>2024-05-08T15:16:43Z</time>
</trkpt>
<trkpt lat="49.492172207683325" lon="9.21999449841678">
<ele>427.8</ele>
<time>2024-05-08T15:16:44Z</time>
</trkpt>
<trkpt lat="49.4922218285501" lon="9.220003047958016">
<ele>427.8</ele>
<time>2024-05-08T15:16:45Z</time>
</trkpt>
<trkpt lat="49.49227136559784" lon="9.220007825642824">
<ele>427.8</ele>
<time>2024-05-08T15:16:46Z</time>
</trkpt>
<trkpt lat="49.49232475832105" lon="9.22001645900309">
<ele>427.8</ele>
<time>2024-05-08T15:16:47Z</time>
</trkpt>
<trkpt lat="49.49237437918782" lon="9.220025008544326">
<ele>427.8</ele>
<time>2024-05-08T15:16:48Z</time>
</trkpt>
<trkpt lat="49.49242014437914" lon="9.22003456391394">
<ele>427.8</ele>
<time>2024-05-08T15:16:49Z</time>
</trkpt>
<trkpt lat="49.492469765245914" lon="9.22004126943648">
<ele>427.8</ele>
<time>2024-05-08T15:16:50Z</time>
</trkpt>
<trkpt lat="49.49251553043723" lon="9.220046969130635">
<ele>427.8</ele>
<time>2024-05-08T15:16:51Z</time>
</trkpt>
<trkpt lat="49.49256129562855" lon="9.220047891139984">
<ele>427.8</ele>
<time>2024-05-08T15:16:52Z</time>
</trkpt>
<trkpt lat="49.49260328896344" lon="9.22005359083414">
<ele>427.8</ele>
<time>2024-05-08T15:16:53Z</time>
</trkpt>
<trkpt lat="49.492649054154754" lon="9.22005459666252">
<ele>427.8</ele>
<time>2024-05-08T15:16:54Z</time>
</trkpt>
<trkpt lat="49.49269481934607" lon="9.220060296356678">
<ele>427.8</ele>
<time>2024-05-08T15:16:55Z</time>
</trkpt>
<trkpt lat="49.49274058453739" lon="9.22006130218506">
<ele>427.8</ele>
<time>2024-05-08T15:16:56Z</time>
</trkpt>
<trkpt lat="49.4927863497287" lon="9.220065074041486">
<ele>427.8</ele>
<time>2024-05-08T15:16:57Z</time>
</trkpt>
<trkpt lat="49.49283597059548" lon="9.220069851726294">
<ele>427.8</ele>
<time>2024-05-08T15:16:58Z</time>
</trkpt>
<trkpt lat="49.49288550764322" lon="9.22007655724883">
<ele>427.8</ele>
<time>2024-05-08T15:16:59Z</time>
</trkpt>
<trkpt lat="49.49293512851" lon="9.220080329105258">
<ele>427.8</ele>
<time>2024-05-08T15:17:00Z</time>
</trkpt>
<trkpt lat="49.492984749376774" lon="9.220083178952336">
<ele>427.8</ele>
<time>2024-05-08T15:17:01Z</time>
</trkpt>
<trkpt lat="49.49303814209998" lon="9.220087034627795">
<ele>427.8</ele>
<time>2024-05-08T15:17:02Z</time>
</trkpt>
<trkpt lat="49.49308776296675" lon="9.220089884474874">
<ele>428</ele>
<time>2024-05-08T15:17:03Z</time>
</trkpt>
<trkpt lat="49.493137300014496" lon="9.22009466215968">
<ele>428</ele>
<time>2024-05-08T15:17:04Z</time>
</trkpt>
<trkpt lat="49.49318692088127" lon="9.220100361853838">
<ele>428.2</ele>
<time>2024-05-08T15:17:05Z</time>
</trkpt>
<trkpt lat="49.493240313604474" lon="9.220105139538646">
<ele>428.2</ele>
<time>2024-05-08T15:17:06Z</time>
</trkpt>
<trkpt lat="49.49329370632768" lon="9.220111845061185">
<ele>428.4</ele>
<time>2024-05-08T15:17:07Z</time>
</trkpt>
<trkpt lat="49.49335095472634" lon="9.220118466764688">
<ele>428.4</ele>
<time>2024-05-08T15:17:08Z</time>
</trkpt>
<trkpt lat="49.49340434744954" lon="9.220125172287226">
<ele>428.6</ele>
<time>2024-05-08T15:17:09Z</time>
</trkpt>
<trkpt lat="49.493457740172744" lon="9.22013372182846">
<ele>428.6</ele>
<time>2024-05-08T15:17:10Z</time>
</trkpt>
<trkpt lat="49.49351113289595" lon="9.220138499513268">
<ele>428.6</ele>
<time>2024-05-08T15:17:11Z</time>
</trkpt>
<trkpt lat="49.49356075376272" lon="9.220143277198076">
<ele>428.8</ele>
<time>2024-05-08T15:17:12Z</time>
</trkpt>
<trkpt lat="49.49360651895404" lon="9.220149982720612">
<ele>428.8</ele>
<time>2024-05-08T15:17:13Z</time>
</trkpt>
<trkpt lat="49.49365991167724" lon="9.22015375457704">
<ele>428.8</ele>
<time>2024-05-08T15:17:14Z</time>
</trkpt>
<trkpt lat="49.49370953254402" lon="9.22015375457704">
<ele>428.8</ele>
<time>2024-05-08T15:17:15Z</time>
</trkpt>
<trkpt lat="49.49376292526722" lon="9.22015476040542">
<ele>428.8</ele>
<time>2024-05-08T15:17:16Z</time>
</trkpt>
<trkpt lat="49.493808690458536" lon="9.22015476040542">
<ele>428.8</ele>
<time>2024-05-08T15:17:17Z</time>
</trkpt>
<trkpt lat="49.49385831132531" lon="9.22015476040542">
<ele>428.8</ele>
<time>2024-05-08T15:17:18Z</time>
</trkpt>
<trkpt lat="49.493907848373055" lon="9.22015476040542">
<ele>428.8</ele>
<time>2024-05-08T15:17:19Z</time>
</trkpt>
<trkpt lat="49.49395369738341" lon="9.22015476040542">
<ele>428.8</ele>
<time>2024-05-08T15:17:20Z</time>
</trkpt>
<trkpt lat="49.49400323443115" lon="9.22015476040542">
<ele>428.8</ele>
<time>2024-05-08T15:17:21Z</time>
</trkpt>
<trkpt lat="49.49405285529792" lon="9.220148054882884">
<ele>428.8</ele>
<time>2024-05-08T15:17:22Z</time>
</trkpt>
<trkpt lat="49.49409862048924" lon="9.22013472765684">
<ele>428.8</ele>
<time>2024-05-08T15:17:23Z</time>
</trkpt>
<trkpt lat="49.49414438568056" lon="9.22011653892696">
<ele>428.8</ele>
<time>2024-05-08T15:17:24Z</time>
</trkpt>
<trkpt lat="49.494186379015446" lon="9.22009650617838">
<ele>428.8</ele>
<time>2024-05-08T15:17:25Z</time>
</trkpt>
<trkpt lat="49.4942282885313" lon="9.220080329105258">
<ele>428.8</ele>
<time>2024-05-08T15:17:26Z</time>
</trkpt>
<trkpt lat="49.49426265433431" lon="9.220060296356678">
<ele>428.8</ele>
<time>2024-05-08T15:17:27Z</time>
</trkpt>
<trkpt lat="49.49429702013731" lon="9.220038335770369">
<ele>429</ele>
<time>2024-05-08T15:17:28Z</time>
</trkpt>
<trkpt lat="49.49433515779674" lon="9.22001838684082">
<ele>429</ele>
<time>2024-05-08T15:17:29Z</time>
</trkpt>
<trkpt lat="49.4943770673126" lon="9.21999449841678">
<ele>429</ele>
<time>2024-05-08T15:17:30Z</time>
</trkpt>
<trkpt lat="49.49441520497203" lon="9.219969687983394">
<ele>429</ele>
<time>2024-05-08T15:17:31Z</time>
</trkpt>
<trkpt lat="49.49445342645049" lon="9.219942027702928">
<ele>429</ele>
<time>2024-05-08T15:17:32Z</time>
</trkpt>
<trkpt lat="49.49448770843446" lon="9.219906739890575">
<ele>429</ele>
<time>2024-05-08T15:17:33Z</time>
</trkpt>
<trkpt lat="49.49452584609389" lon="9.219871452078223">
<ele>429</ele>
<time>2024-05-08T15:17:34Z</time>
</trkpt>
<trkpt lat="49.49456398375333" lon="9.219831386581063">
<ele>428.8</ele>
<time>2024-05-08T15:17:35Z</time>
</trkpt>
<trkpt lat="49.49460983276367" lon="9.219795176759362">
<ele>428.8</ele>
<time>2024-05-08T15:17:36Z</time>
</trkpt>
<trkpt lat="49.49464411474764" lon="9.21975988894701">
<ele>428.8</ele>
<time>2024-05-08T15:17:37Z</time>
</trkpt>
<trkpt lat="49.49468610808253" lon="9.219723679125307">
<ele>428.8</ele>
<time>2024-05-08T15:17:38Z</time>
</trkpt>
<trkpt lat="49.49471661821008" lon="9.219686463475227">
<ele>428.8</ele>
<time>2024-05-08T15:17:39Z</time>
</trkpt>
<trkpt lat="49.49475475586951" lon="9.219653103500605">
<ele>428.6</ele>
<time>2024-05-08T15:17:40Z</time>
</trkpt>
<trkpt lat="49.4947967492044" lon="9.2196187376976">
<ele>428.6</ele>
<time>2024-05-08T15:17:41Z</time>
</trkpt>
<trkpt lat="49.49482725933194" lon="9.21958344988525">
<ele>428.6</ele>
<time>2024-05-08T15:17:42Z</time>
</trkpt>
<trkpt lat="49.49486539699137" lon="9.21954338438809">
<ele>428.6</ele>
<time>2024-05-08T15:17:43Z</time>
</trkpt>
<trkpt lat="49.49490730650723" lon="9.21950340270996">
<ele>428.6</ele>
<time>2024-05-08T15:17:44Z</time>
</trkpt>
<trkpt lat="49.49494544416666" lon="9.21946618705988">
<ele>428.6</ele>
<time>2024-05-08T15:17:46Z</time>
</trkpt>
<trkpt lat="49.49502180330455" lon="9.219386978074908">
<ele>428.4</ele>
<time>2024-05-08T15:17:47Z</time>
</trkpt>
<trkpt lat="49.49505994096398" lon="9.219347918406129">
<ele>428.4</ele>
<time>2024-05-08T15:17:48Z</time>
</trkpt>
<trkpt lat="49.4951057061553" lon="9.219309780746698">
<ele>428.4</ele>
<time>2024-05-08T15:17:49Z</time>
</trkpt>
<trkpt lat="49.49515147134662" lon="9.219274492934346">
<ele>428.2</ele>
<time>2024-05-08T15:17:50Z</time>
</trkpt>
<trkpt lat="49.495193464681506" lon="9.219236355274916">
<ele>427.8</ele>
<time>2024-05-08T15:17:51Z</time>
</trkpt>
<trkpt lat="49.49524300172925" lon="9.219195283949375">
<ele>427.6</ele>
<time>2024-05-08T15:17:52Z</time>
</trkpt>
<trkpt lat="49.49528113938868" lon="9.219156224280596">
<ele>427.6</ele>
<time>2024-05-08T15:17:54Z</time>
</trkpt>
<trkpt lat="49.49536512605846" lon="9.219081876799464">
<ele>427.6</ele>
<time>2024-05-08T15:17:55Z</time>
</trkpt>
<trkpt lat="49.49540326371789" lon="9.219044661149384">
<ele>427.8</ele>
<time>2024-05-08T15:17:56Z</time>
</trkpt>
<trkpt lat="49.49546042829752" lon="9.219003673642874">
<ele>428</ele>
<time>2024-05-08T15:17:57Z</time>
</trkpt>
<trkpt lat="49.495510049164295" lon="9.218963608145714">
<ele>428.2</ele>
<time>2024-05-08T15:17:58Z</time>
</trkpt>
<trkpt lat="49.4955634418875" lon="9.218919686973097">
<ele>428.4</ele>
<time>2024-05-08T15:17:59Z</time>
</trkpt>
<trkpt lat="49.49561306275427" lon="9.218879621475937">
<ele>428.6</ele>
<time>2024-05-08T15:18:00Z</time>
</trkpt>
<trkpt lat="49.49566268362105" lon="9.218838633969426">
<ele>428.8</ele>
<time>2024-05-08T15:18:01Z</time>
</trkpt>
<trkpt lat="49.495708448812366" lon="9.218798568472266">
<ele>428.8</ele>
<time>2024-05-08T15:18:02Z</time>
</trkpt>
<trkpt lat="49.49575035832822" lon="9.218759508803489">
<ele>428.8</ele>
<time>2024-05-08T15:18:03Z</time>
</trkpt>
<trkpt lat="49.495803751051426" lon="9.218723215162754">
<ele>429</ele>
<time>2024-05-08T15:18:04Z</time>
</trkpt>
<trkpt lat="49.4958533719182" lon="9.218680299818516">
<ele>429</ele>
<time>2024-05-08T15:18:05Z</time>
</trkpt>
<trkpt lat="49.49589913710952" lon="9.218640318140388">
<ele>429</ele>
<time>2024-05-08T15:18:06Z</time>
</trkpt>
<trkpt lat="49.495944902300835" lon="9.218598324805498">
<ele>429</ele>
<time>2024-05-08T15:18:07Z</time>
</trkpt>
<trkpt lat="49.49598689563573" lon="9.218558259308338">
<ele>429</ele>
<time>2024-05-08T15:18:08Z</time>
</trkpt>
<trkpt lat="49.4960365165025" lon="9.218524899333715">
<ele>429</ele>
<time>2024-05-08T15:18:09Z</time>
</trkpt>
<trkpt lat="49.496082281693816" lon="9.218482905998826">
<ele>429</ele>
<time>2024-05-08T15:18:10Z</time>
</trkpt>
<trkpt lat="49.496124191209674" lon="9.218441918492315">
<ele>429</ele>
<time>2024-05-08T15:18:11Z</time>
</trkpt>
<trkpt lat="49.49617381207645" lon="9.21839808113873">
<ele>429</ele>
<time>2024-05-08T15:18:12Z</time>
</trkpt>
<trkpt lat="49.496223432943225" lon="9.218355165794492">
<ele>429</ele>
<time>2024-05-08T15:18:13Z</time>
</trkpt>
<trkpt lat="49.49627296999097" lon="9.218311244621871">
<ele>429</ele>
<time>2024-05-08T15:18:14Z</time>
</trkpt>
<trkpt lat="49.49631496332586" lon="9.218271179124711">
<ele>428.8</ele>
<time>2024-05-08T15:18:15Z</time>
</trkpt>
<trkpt lat="49.496360728517175" lon="9.218231197446585">
<ele>428.8</ele>
<time>2024-05-08T15:18:16Z</time>
</trkpt>
<trkpt lat="49.49640649370849" lon="9.218192053958774">
<ele>428.8</ele>
<time>2024-05-08T15:18:17Z</time>
</trkpt>
<trkpt lat="49.49645225889981" lon="9.218154838308692">
<ele>428.8</ele>
<time>2024-05-08T15:18:18Z</time>
</trkpt>
<trkpt lat="49.49649810791016" lon="9.218118628486993">
<ele>428.8</ele>
<time>2024-05-08T15:18:19Z</time>
</trkpt>
<trkpt lat="49.496540017426014" lon="9.21808141283691">
<ele>428.8</ele>
<time>2024-05-08T15:18:20Z</time>
</trkpt>
<trkpt lat="49.49658963829279" lon="9.218048052862288">
<ele>429</ele>
<time>2024-05-08T15:18:21Z</time>
</trkpt>
<trkpt lat="49.49663917534053" lon="9.218018464744093">
<ele>429</ele>
<time>2024-05-08T15:18:22Z</time>
</trkpt>
<trkpt lat="49.49668502435088" lon="9.21798317693174">
<ele>429</ele>
<time>2024-05-08T15:18:23Z</time>
</trkpt>
<trkpt lat="49.4967307895422" lon="9.21794311143458">
<ele>429</ele>
<time>2024-05-08T15:18:24Z</time>
</trkpt>
<trkpt lat="49.49676892720163" lon="9.217906901612878">
<ele>429</ele>
<time>2024-05-08T15:18:25Z</time>
</trkpt>
<trkpt lat="49.496814692392945" lon="9.217871613800526">
<ele>429</ele>
<time>2024-05-08T15:18:26Z</time>
</trkpt>
<trkpt lat="49.496856685727835" lon="9.21784303151071">
<ele>429</ele>
<time>2024-05-08T15:18:27Z</time>
</trkpt>
<trkpt lat="49.49689859524369" lon="9.217815371230245">
<ele>429</ele>
<time>2024-05-08T15:18:28Z</time>
</trkpt>
<trkpt lat="49.49694436043501" lon="9.217795338481665">
<ele>429</ele>
<time>2024-05-08T15:18:29Z</time>
</trkpt>
<trkpt lat="49.4969863537699" lon="9.217769606038928">
<ele>429</ele>
<time>2024-05-08T15:18:30Z</time>
</trkpt>
<trkpt lat="49.49702449142933" lon="9.217741945758462">
<ele>428.8</ele>
<time>2024-05-08T15:18:31Z</time>
</trkpt>
<trkpt lat="49.49706262908876" lon="9.217713279649615">
<ele>428.6</ele>
<time>2024-05-08T15:18:32Z</time>
</trkpt>
<trkpt lat="49.49710076674819" lon="9.2176846973598">
<ele>428.4</ele>
<time>2024-05-08T15:18:33Z</time>
</trkpt>
<trkpt lat="49.49713890440762" lon="9.217657037079334">
<ele>428.2</ele>
<time>2024-05-08T15:18:34Z</time>
</trkpt>
<trkpt lat="49.49718089774251" lon="9.21762845478952">
<ele>428.2</ele>
<time>2024-05-08T15:18:35Z</time>
</trkpt>
<trkpt lat="49.4972228910774" lon="9.217595094814897">
<ele>428</ele>
<time>2024-05-08T15:18:36Z</time>
</trkpt>
<trkpt lat="49.49726480059326" lon="9.217561651021242">
<ele>427.8</ele>
<time>2024-05-08T15:18:37Z</time>
</trkpt>
<trkpt lat="49.497306793928146" lon="9.217533068731427">
<ele>427.8</ele>
<time>2024-05-08T15:18:38Z</time>
</trkpt>
<trkpt lat="49.49735255911946" lon="9.217499708756804">
<ele>427.8</ele>
<time>2024-05-08T15:18:39Z</time>
</trkpt>
<trkpt lat="49.49740217998624" lon="9.2174653429538">
<ele>427.8</ele>
<time>2024-05-08T15:18:40Z</time>
</trkpt>
<trkpt lat="49.497447945177555" lon="9.217423433437943">
<ele>427.8</ele>
<time>2024-05-08T15:18:41Z</time>
</trkpt>
<trkpt lat="49.49749371036887" lon="9.217383367940784">
<ele>428</ele>
<time>2024-05-08T15:18:42Z</time>
</trkpt>
<trkpt lat="49.49754333123565" lon="9.217349924147127">
<ele>428</ele>
<time>2024-05-08T15:18:43Z</time>
</trkpt>
<trkpt lat="49.49759286828339" lon="9.217318492010236">
<ele>428</ele>
<time>2024-05-08T15:18:44Z</time>
</trkpt>
<trkpt lat="49.49763863347471" lon="9.217285132035611">
<ele>428</ele>
<time>2024-05-08T15:18:45Z</time>
</trkpt>
<trkpt lat="49.497684398666024" lon="9.217253616079688">
<ele>428.2</ele>
<time>2024-05-08T15:18:46Z</time>
</trkpt>
<trkpt lat="49.4977149926126" lon="9.217220256105064">
<ele>428.2</ele>
<time>2024-05-08T15:18:47Z</time>
</trkpt>
<trkpt lat="49.49775313027203" lon="9.217187818139791">
<ele>428.2</ele>
<time>2024-05-08T15:18:48Z</time>
</trkpt>
<trkpt lat="49.497787412256" lon="9.21715353615582">
<ele>428.2</ele>
<time>2024-05-08T15:18:49Z</time>
</trkpt>
<trkpt lat="49.497821778059006" lon="9.217116320505738">
<ele>428.2</ele>
<time>2024-05-08T15:18:50Z</time>
</trkpt>
<trkpt lat="49.49785991571843" lon="9.217086732387545">
<ele>428.4</ele>
<time>2024-05-08T15:18:51Z</time>
</trkpt>
<trkpt lat="49.497901909053326" lon="9.21705144457519">
<ele>428.4</ele>
<time>2024-05-08T15:18:52Z</time>
</trkpt>
<trkpt lat="49.49794767424464" lon="9.21701330691576">
<ele>428.4</ele>
<time>2024-05-08T15:18:53Z</time>
</trkpt>
<trkpt lat="49.497997211292386" lon="9.21697516925633">
<ele>428.6</ele>
<time>2024-05-08T15:18:54Z</time>
</trkpt>
<trkpt lat="49.49804683215916" lon="9.216941809281709">
<ele>428.6</ele>
<time>2024-05-08T15:18:55Z</time>
</trkpt>
<trkpt lat="49.49809259735048" lon="9.216906521469356">
<ele>428.6</ele>
<time>2024-05-08T15:18:56Z</time>
</trkpt>
<trkpt lat="49.498142218217254" lon="9.216871233657002">
<ele>428.8</ele>
<time>2024-05-08T15:18:57Z</time>
</trkpt>
<trkpt lat="49.498191755265" lon="9.216836867854">
<ele>428.8</ele>
<time>2024-05-08T15:18:58Z</time>
</trkpt>
<trkpt lat="49.49824137613177" lon="9.216801580041649">
<ele>428.8</ele>
<time>2024-05-08T15:18:59Z</time>
</trkpt>
<trkpt lat="49.49828714132309" lon="9.216766292229297">
<ele>428.8</ele>
<time>2024-05-08T15:19:00Z</time>
</trkpt>
<trkpt lat="49.498336762189865" lon="9.216736787930133">
<ele>428.8</ele>
<time>2024-05-08T15:19:01Z</time>
</trkpt>
<trkpt lat="49.498374899849296" lon="9.216708121821284">
<ele>429</ele>
<time>2024-05-08T15:19:02Z</time>
</trkpt>
<trkpt lat="49.49842066504061" lon="9.21667861752212">
<ele>429.2</ele>
<time>2024-05-08T15:19:03Z</time>
</trkpt>
<trkpt lat="49.49846643023193" lon="9.216649951413274">
<ele>429.2</ele>
<time>2024-05-08T15:19:04Z</time>
</trkpt>
<trkpt lat="49.49850842356682" lon="9.21662136912346">
<ele>429.2</ele>
<time>2024-05-08T15:19:05Z</time>
</trkpt>
<trkpt lat="49.49855033308267" lon="9.216594630852342">
<ele>429.4</ele>
<time>2024-05-08T15:19:06Z</time>
</trkpt>
<trkpt lat="49.49858855456114" lon="9.216566970571876">
<ele>429.4</ele>
<time>2024-05-08T15:19:07Z</time>
</trkpt>
<trkpt lat="49.49862669222057" lon="9.21654031611979">
<ele>429.4</ele>
<time>2024-05-08T15:19:08Z</time>
</trkpt>
<trkpt lat="49.498668601736426" lon="9.216516427695751">
<ele>429.4</ele>
<time>2024-05-08T15:19:09Z</time>
</trkpt>
<trkpt lat="49.4987182226032" lon="9.216491617262363">
<ele>429.4</ele>
<time>2024-05-08T15:19:10Z</time>
</trkpt>
<trkpt lat="49.49876398779452" lon="9.216474518179892">
<ele>429.4</ele>
<time>2024-05-08T15:19:11Z</time>
</trkpt>
<trkpt lat="49.49881738051772" lon="9.21645825728774">
<ele>429.4</ele>
<time>2024-05-08T15:19:12Z</time>
</trkpt>
<trkpt lat="49.4988670013845" lon="9.21643822453916">
<ele>429.2</ele>
<time>2024-05-08T15:19:13Z</time>
</trkpt>
<trkpt lat="49.49891662225127" lon="9.21642204746604">
<ele>429.2</ele>
<time>2024-05-08T15:19:14Z</time>
</trkpt>
<trkpt lat="49.498970014974475" lon="9.216406792402267">
<ele>429</ele>
<time>2024-05-08T15:19:15Z</time>
</trkpt>
<trkpt lat="49.49902340769768" lon="9.216393465176225">
<ele>429</ele>
<time>2024-05-08T15:19:16Z</time>
</trkpt>
<trkpt lat="49.49907302856445" lon="9.21638198196888">
<ele>429</ele>
<time>2024-05-08T15:19:18Z</time>
</trkpt>
<trkpt lat="49.49916833080351" lon="9.216364799067378">
<ele>429</ele>
<time>2024-05-08T15:19:19Z</time>
</trkpt>
<trkpt lat="49.49921409599483" lon="9.216362871229649">
<ele>429</ele>
<time>2024-05-08T15:19:20Z</time>
</trkpt>
<trkpt lat="49.49925994500518" lon="9.216358177363873">
<ele>428.8</ele>
<time>2024-05-08T15:19:21Z</time>
</trkpt>
<trkpt lat="49.49930948205292" lon="9.216355243697762">
<ele>428.8</ele>
<time>2024-05-08T15:19:22Z</time>
</trkpt>
<trkpt lat="49.4993591029197" lon="9.216355243697762">
<ele>428.6</ele>
<time>2024-05-08T15:19:23Z</time>
</trkpt>
<trkpt lat="49.49940863996744" lon="9.216355243697762">
<ele>428.6</ele>
<time>2024-05-08T15:19:24Z</time>
</trkpt>
<trkpt lat="49.49945826083422" lon="9.216355243697762">
<ele>428.4</ele>
<time>2024-05-08T15:19:25Z</time>
</trkpt>
<trkpt lat="49.49950788170099" lon="9.216353399679065">
<ele>428.4</ele>
<time>2024-05-08T15:19:26Z</time>
</trkpt>
<trkpt lat="49.499557418748736" lon="9.216355243697762">
<ele>428.4</ele>
<time>2024-05-08T15:19:27Z</time>
</trkpt>
<trkpt lat="49.49960703961551" lon="9.216356249526145">
<ele>428.2</ele>
<time>2024-05-08T15:19:28Z</time>
</trkpt>
<trkpt lat="49.49965280480683" lon="9.216358177363873">
<ele>428.2</ele>
<time>2024-05-08T15:19:29Z</time>
</trkpt>
<trkpt lat="49.49971005320549" lon="9.2163619492203">
<ele>428.2</ele>
<time>2024-05-08T15:19:30Z</time>
</trkpt>
<trkpt lat="49.499759674072266" lon="9.216364799067378">
<ele>428.2</ele>
<time>2024-05-08T15:19:31Z</time>
</trkpt>
<trkpt lat="49.49980543926358" lon="9.216371504589915">
<ele>428.4</ele>
<time>2024-05-08T15:19:32Z</time>
</trkpt>
<trkpt lat="49.4998512044549" lon="9.21638005413115">
<ele>428.4</ele>
<time>2024-05-08T15:19:33Z</time>
</trkpt>
<trkpt lat="49.499896969646215" lon="9.216389609500766">
<ele>428.4</ele>
<time>2024-05-08T15:19:34Z</time>
</trkpt>
<trkpt lat="49.49994273483753" lon="9.21640201471746">
<ele>428.6</ele>
<time>2024-05-08T15:19:35Z</time>
</trkpt>
<trkpt lat="49.49999235570431" lon="9.216415341943502">
<ele>428.6</ele>
<time>2024-05-08T15:19:36Z</time>
</trkpt>
<trkpt lat="49.50004574842751" lon="9.216433446854351">
<ele>428.8</ele>
<time>2024-05-08T15:19:37Z</time>
</trkpt>
<trkpt lat="49.50009151361883" lon="9.216449707746506">
<ele>428.8</ele>
<time>2024-05-08T15:19:38Z</time>
</trkpt>
<trkpt lat="49.5001411344856" lon="9.216468734666703">
<ele>428.8</ele>
<time>2024-05-08T15:19:39Z</time>
</trkpt>
<trkpt lat="49.50018689967692" lon="9.216486923396587">
<ele>429</ele>
<time>2024-05-08T15:19:40Z</time>
</trkpt>
<trkpt lat="49.50023643672466" lon="9.216503100469708">
<ele>429</ele>
<time>2024-05-08T15:19:41Z</time>
</trkpt>
<trkpt lat="49.50028605759144" lon="9.21652120538056">
<ele>429</ele>
<time>2024-05-08T15:19:42Z</time>
</trkpt>
<trkpt lat="49.500335678458214" lon="9.216536460444331">
<ele>429</ele>
<time>2024-05-08T15:19:43Z</time>
</trkpt>
<trkpt lat="49.50038521550596" lon="9.216553643345833">
<ele>429</ele>
<time>2024-05-08T15:19:44Z</time>
</trkpt>
<trkpt lat="49.50043860822916" lon="9.216573676094413">
<ele>429</ele>
<time>2024-05-08T15:19:45Z</time>
</trkpt>
<trkpt lat="49.500492084771395" lon="9.216593708842993">
<ele>429</ele>
<time>2024-05-08T15:19:46Z</time>
</trkpt>
<trkpt lat="49.5005454774946" lon="9.216607036069036">
<ele>429</ele>
<time>2024-05-08T15:19:47Z</time>
</trkpt>
<trkpt lat="49.50059501454234" lon="9.216620363295078">
<ele>429</ele>
<time>2024-05-08T15:19:48Z</time>
</trkpt>
<trkpt lat="49.500652262941" lon="9.21663855202496">
<ele>429.2</ele>
<time>2024-05-08T15:19:49Z</time>
</trkpt>
<trkpt lat="49.500705655664206" lon="9.21665858477354">
<ele>429.2</ele>
<time>2024-05-08T15:19:50Z</time>
</trkpt>
<trkpt lat="49.50075904838741" lon="9.216674761846662">
<ele>429.2</ele>
<time>2024-05-08T15:19:51Z</time>
</trkpt>
<trkpt lat="49.50081252492964" lon="9.216698566451669">
<ele>429.2</ele>
<time>2024-05-08T15:19:52Z</time>
</trkpt>
<trkpt lat="49.50086968950927" lon="9.216718599200249">
<ele>429.2</ele>
<time>2024-05-08T15:19:53Z</time>
</trkpt>
<trkpt lat="49.500923082232475" lon="9.216734860092402">
<ele>429.2</ele>
<time>2024-05-08T15:19:54Z</time>
</trkpt>
<trkpt lat="49.50097655877471" lon="9.216752965003252">
<ele>429.2</ele>
<time>2024-05-08T15:19:55Z</time>
</trkpt>
<trkpt lat="49.50102995149791" lon="9.21677676960826">
<ele>429.2</ele>
<time>2024-05-08T15:19:56Z</time>
</trkpt>
<trkpt lat="49.50107571668923" lon="9.216801580041649">
<ele>429.2</ele>
<time>2024-05-08T15:19:57Z</time>
</trkpt>
<trkpt lat="49.501121481880546" lon="9.216828318312764">
<ele>429.2</ele>
<time>2024-05-08T15:19:58Z</time>
</trkpt>
<trkpt lat="49.501163475215435" lon="9.21685690060258">
<ele>429.2</ele>
<time>2024-05-08T15:19:59Z</time>
</trkpt>
<trkpt lat="49.50121301226318" lon="9.216877855360508">
<ele>429</ele>
<time>2024-05-08T15:20:00Z</time>
</trkpt>
<trkpt lat="49.501262633129954" lon="9.21689503826201">
<ele>429</ele>
<time>2024-05-08T15:20:01Z</time>
</trkpt>
<trkpt lat="49.50131602585316" lon="9.216910293325782">
<ele>429</ele>
<time>2024-05-08T15:20:02Z</time>
</trkpt>
<trkpt lat="49.50137327425182" lon="9.216928482055664">
<ele>429</ele>
<time>2024-05-08T15:20:03Z</time>
</trkpt>
<trkpt lat="49.50142666697502" lon="9.216943737119436">
<ele>429</ele>
<time>2024-05-08T15:20:04Z</time>
</trkpt>
<trkpt lat="49.501480059698224" lon="9.216957986354828">
<ele>429</ele>
<time>2024-05-08T15:20:05Z</time>
</trkpt>
<trkpt lat="49.50153345242143" lon="9.216979946941136">
<ele>429</ele>
<time>2024-05-08T15:20:06Z</time>
</trkpt>
<trkpt lat="49.50159070082009" lon="9.216998051851988">
<ele>429</ele>
<time>2024-05-08T15:20:07Z</time>
</trkpt>
<trkpt lat="49.50165172107518" lon="9.217016156762838">
<ele>429</ele>
<time>2024-05-08T15:20:08Z</time>
</trkpt>
<trkpt lat="49.501712741330266" lon="9.21703141182661">
<ele>429</ele>
<time>2024-05-08T15:20:09Z</time>
</trkpt>
<trkpt lat="49.501773761585355" lon="9.217046666890385">
<ele>429</ele>
<time>2024-05-08T15:20:10Z</time>
</trkpt>
<trkpt lat="49.501831009984016" lon="9.217066699638965">
<ele>429</ele>
<time>2024-05-08T15:20:11Z</time>
</trkpt>
<trkpt lat="49.50188825838268" lon="9.217081954702737">
<ele>429</ele>
<time>2024-05-08T15:20:12Z</time>
</trkpt>
<trkpt lat="49.50194542296231" lon="9.21709151007235">
<ele>429.2</ele>
<time>2024-05-08T15:20:13Z</time>
</trkpt>
<trkpt lat="49.50200267136097" lon="9.217100143432615">
<ele>429.2</ele>
<time>2024-05-08T15:20:14Z</time>
</trkpt>
<trkpt lat="49.50205606408417" lon="9.217108692973852">
<ele>429.2</ele>
<time>2024-05-08T15:20:15Z</time>
</trkpt>
<trkpt lat="49.502113312482834" lon="9.217116320505738">
<ele>429</ele>
<time>2024-05-08T15:20:16Z</time>
</trkpt>
<trkpt lat="49.50216670520604" lon="9.217123026028275">
<ele>429</ele>
<time>2024-05-08T15:20:17Z</time>
</trkpt>
<trkpt lat="49.50222009792924" lon="9.217126797884704">
<ele>429</ele>
<time>2024-05-08T15:20:18Z</time>
</trkpt>
<trkpt lat="49.50228111818433" lon="9.217128725722432">
<ele>429</ele>
<time>2024-05-08T15:20:19Z</time>
</trkpt>
<trkpt lat="49.50233836658299" lon="9.217128725722432">
<ele>428.8</ele>
<time>2024-05-08T15:20:20Z</time>
</trkpt>
<trkpt lat="49.50239561498165" lon="9.21712964773178">
<ele>428.8</ele>
<time>2024-05-08T15:20:21Z</time>
</trkpt>
<trkpt lat="49.502449007704854" lon="9.217124870046971">
<ele>428.8</ele>
<time>2024-05-08T15:20:22Z</time>
</trkpt>
<trkpt lat="49.5024985447526" lon="9.217122020199897">
<ele>428.8</ele>
<time>2024-05-08T15:20:23Z</time>
</trkpt>
<trkpt lat="49.50254816561937" lon="9.217118248343468">
<ele>428.8</ele>
<time>2024-05-08T15:20:24Z</time>
</trkpt>
<trkpt lat="49.50259778648615" lon="9.217118248343468">
<ele>428.6</ele>
<time>2024-05-08T15:20:25Z</time>
</trkpt>
<trkpt lat="49.50265117920935" lon="9.217118248343468">
<ele>428.6</ele>
<time>2024-05-08T15:20:26Z</time>
</trkpt>
<trkpt lat="49.50269694440067" lon="9.217116320505738">
<ele>428.6</ele>
<time>2024-05-08T15:20:27Z</time>
</trkpt>
<trkpt lat="49.50274656526744" lon="9.217106765136124">
<ele>428.6</ele>
<time>2024-05-08T15:20:28Z</time>
</trkpt>
<trkpt lat="49.50279610231519" lon="9.217096287757158">
<ele>428.6</ele>
<time>2024-05-08T15:20:29Z</time>
</trkpt>
<trkpt lat="49.502841867506504" lon="9.21708958223462">
<ele>428.8</ele>
<time>2024-05-08T15:20:30Z</time>
</trkpt>
<trkpt lat="49.50289148837328" lon="9.217081954702737">
<ele>428.8</ele>
<time>2024-05-08T15:20:31Z</time>
</trkpt>
<trkpt lat="49.502941109240055" lon="9.217076255008578">
<ele>429</ele>
<time>2024-05-08T15:20:32Z</time>
</trkpt>
<trkpt lat="49.5029906462878" lon="9.217066699638965">
<ele>429.2</ele>
<time>2024-05-08T15:20:33Z</time>
</trkpt>
<trkpt lat="49.503040267154574" lon="9.217056222259998">
<ele>429.2</ele>
<time>2024-05-08T15:20:34Z</time>
</trkpt>
<trkpt lat="49.50308603234589" lon="9.21705144457519">
<ele>429.4</ele>
<time>2024-05-08T15:20:35Z</time>
</trkpt>
<trkpt lat="49.50313179753721" lon="9.217044822871683">
<ele>429.4</ele>
<time>2024-05-08T15:20:36Z</time>
</trkpt>
<trkpt lat="49.50317756272853" lon="9.217038117349148">
<ele>429.6</ele>
<time>2024-05-08T15:20:37Z</time>
</trkpt>
<trkpt lat="49.5032271835953" lon="9.217016156762838">
<ele>429.6</ele>
<time>2024-05-08T15:20:38Z</time>
</trkpt>
<trkpt lat="49.503276804462075" lon="9.216998051851988">
<ele>429.6</ele>
<time>2024-05-08T15:20:39Z</time>
</trkpt>
<trkpt lat="49.50332256965339" lon="9.216983718797565">
<ele>429.6</ele>
<time>2024-05-08T15:20:40Z</time>
</trkpt>
<trkpt lat="49.50337219052017" lon="9.216968463733792">
<ele>429.8</ele>
<time>2024-05-08T15:20:41Z</time>
</trkpt>
<trkpt lat="49.503414100036025" lon="9.21695706434548">
<ele>429.8</ele>
<time>2024-05-08T15:20:42Z</time>
</trkpt>
<trkpt lat="49.50345986522734" lon="9.216950358822942">
<ele>429.8</ele>
<time>2024-05-08T15:20:43Z</time>
</trkpt>
<trkpt lat="49.50350185856223" lon="9.21693317592144">
<ele>429.8</ele>
<time>2024-05-08T15:20:44Z</time>
</trkpt>
<trkpt lat="49.50354762375355" lon="9.216911299154162">
<ele>429.8</ele>
<time>2024-05-08T15:20:45Z</time>
</trkpt>
<trkpt lat="49.50360487215221" lon="9.216886488720776">
<ele>430</ele>
<time>2024-05-08T15:20:46Z</time>
</trkpt>
<trkpt lat="49.50366203673184" lon="9.216868383809924">
<ele>430</ele>
<time>2024-05-08T15:20:47Z</time>
</trkpt>
<trkpt lat="49.503715513274074" lon="9.216844495385883">
<ele>430</ele>
<time>2024-05-08T15:20:48Z</time>
</trkpt>
<trkpt lat="49.503753650933504" lon="9.216824462637303">
<ele>430</ele>
<time>2024-05-08T15:20:49Z</time>
</trkpt>
<trkpt lat="49.50378793291747" lon="9.21679973602295">
<ele>430</ele>
<time>2024-05-08T15:20:50Z</time>
</trkpt>
<trkpt lat="49.503826070576906" lon="9.21677970327437">
<ele>430</ele>
<time>2024-05-08T15:20:51Z</time>
</trkpt>
<trkpt lat="49.50386806391179" lon="9.216750115156174">
<ele>430</ele>
<time>2024-05-08T15:20:52Z</time>
</trkpt>
<trkpt lat="49.50393671169877" lon="9.216723376885056">
<ele>430</ele>
<time>2024-05-08T15:20:53Z</time>
</trkpt>
<trkpt lat="49.50399396009743" lon="9.216696722432973">
<ele>430</ele>
<time>2024-05-08T15:20:54Z</time>
</trkpt>
<trkpt lat="49.504043497145176" lon="9.216669984161854">
<ele>430</ele>
<time>2024-05-08T15:20:55Z</time>
</trkpt>
<trkpt lat="49.50409311801195" lon="9.216645173728466">
<ele>430</ele>
<time>2024-05-08T15:20:56Z</time>
</trkpt>
<trkpt lat="49.504146510735154" lon="9.216616591438653">
<ele>430</ele>
<time>2024-05-08T15:20:57Z</time>
</trkpt>
<trkpt lat="49.504203759133816" lon="9.216585159301758">
<ele>430</ele>
<time>2024-05-08T15:20:58Z</time>
</trkpt>
<trkpt lat="49.50426100753248" lon="9.216554565355182">
<ele>430</ele>
<time>2024-05-08T15:20:59Z</time>
</trkpt>
<trkpt lat="49.50431054458022" lon="9.216525061056018">
<ele>430</ele>
<time>2024-05-08T15:21:00Z</time>
</trkpt>
<trkpt lat="49.504360165447" lon="9.216496394947171">
<ele>430</ele>
<time>2024-05-08T15:21:01Z</time>
</trkpt>
<trkpt lat="49.50440593063831" lon="9.216466890648007">
<ele>430</ele>
<time>2024-05-08T15:21:02Z</time>
</trkpt>
<trkpt lat="49.50445169582963" lon="9.216436380520465">
<ele>430</ele>
<time>2024-05-08T15:21:03Z</time>
</trkpt>
<trkpt lat="49.50449746102095" lon="9.216404864564538">
<ele>430</ele>
<time>2024-05-08T15:21:04Z</time>
</trkpt>
<trkpt lat="49.50455470941961" lon="9.216373432427645">
<ele>430</ele>
<time>2024-05-08T15:21:05Z</time>
</trkpt>
<trkpt lat="49.504604330286384" lon="9.2163429223001">
<ele>430</ele>
<time>2024-05-08T15:21:06Z</time>
</trkpt>
<trkpt lat="49.504657723009586" lon="9.216308556497095">
<ele>430</ele>
<time>2024-05-08T15:21:07Z</time>
</trkpt>
<trkpt lat="49.5047034882009" lon="9.216275196522474">
<ele>430</ele>
<time>2024-05-08T15:21:08Z</time>
</trkpt>
<trkpt lat="49.50475310906768" lon="9.216239908710122">
<ele>430</ele>
<time>2024-05-08T15:21:09Z</time>
</trkpt>
<trkpt lat="49.50480264611542" lon="9.2162065487355">
<ele>430</ele>
<time>2024-05-08T15:21:10Z</time>
</trkpt>
<trkpt lat="49.5048522669822" lon="9.216173104941843">
<ele>430</ele>
<time>2024-05-08T15:21:11Z</time>
</trkpt>
<trkpt lat="49.504898032173514" lon="9.21614360064268">
<ele>430</ele>
<time>2024-05-08T15:21:12Z</time>
</trkpt>
<trkpt lat="49.50494379736483" lon="9.216112084686756">
<ele>430</ele>
<time>2024-05-08T15:21:13Z</time>
</trkpt>
<trkpt lat="49.50499341823161" lon="9.216079646721482">
<ele>430</ele>
<time>2024-05-08T15:21:14Z</time>
</trkpt>
<trkpt lat="49.50503918342292" lon="9.216048214584587">
<ele>430</ele>
<time>2024-05-08T15:21:15Z</time>
</trkpt>
<trkpt lat="49.50508494861424" lon="9.216014854609966">
<ele>430</ele>
<time>2024-05-08T15:21:16Z</time>
</trkpt>
<trkpt lat="49.50512694194913" lon="9.215981410816312">
<ele>430</ele>
<time>2024-05-08T15:21:17Z</time>
</trkpt>
<trkpt lat="49.50516507960856" lon="9.215951906517148">
<ele>430</ele>
<time>2024-05-08T15:21:18Z</time>
</trkpt>
<trkpt lat="49.50520698912442" lon="9.2159232404083">
<ele>430</ele>
<time>2024-05-08T15:21:19Z</time>
</trkpt>
<trkpt lat="49.50524512678385" lon="9.215896585956216">
<ele>430</ele>
<time>2024-05-08T15:21:20Z</time>
</trkpt>
<trkpt lat="49.50527949258685" lon="9.215871775522828">
<ele>430</ele>
<time>2024-05-08T15:21:21Z</time>
</trkpt>
<trkpt lat="49.50532525777817" lon="9.215841265395284">
<ele>430</ele>
<time>2024-05-08T15:21:22Z</time>
</trkpt>
<trkpt lat="49.50536725111306" lon="9.21580974943936">
<ele>430</ele>
<time>2024-05-08T15:21:23Z</time>
</trkpt>
<trkpt lat="49.505409160628915" lon="9.215780245140197">
<ele>430</ele>
<time>2024-05-08T15:21:24Z</time>
</trkpt>
<trkpt lat="49.50544738210738" lon="9.21574872918427">
<ele>430</ele>
<time>2024-05-08T15:21:25Z</time>
</trkpt>
<trkpt lat="49.505489291623235" lon="9.21570966951549">
<ele>430</ele>
<time>2024-05-08T15:21:26Z</time>
</trkpt>
<trkpt lat="49.50553505681455" lon="9.215675303712487">
<ele>430</ele>
<time>2024-05-08T15:21:27Z</time>
</trkpt>
<trkpt lat="49.50558082200587" lon="9.215644793584945">
<ele>430</ele>
<time>2024-05-08T15:21:28Z</time>
</trkpt>
<trkpt lat="49.50562281534076" lon="9.215615205466747">
<ele>430</ele>
<time>2024-05-08T15:21:29Z</time>
</trkpt>
<trkpt lat="49.505668580532074" lon="9.215583773329854">
<ele>430.2</ele>
<time>2024-05-08T15:21:30Z</time>
</trkpt>
<trkpt lat="49.505706718191504" lon="9.21555133536458">
<ele>430.2</ele>
<time>2024-05-08T15:21:31Z</time>
</trkpt>
<trkpt lat="49.50575248338282" lon="9.215517975389956">
<ele>430.4</ele>
<time>2024-05-08T15:21:32Z</time>
</trkpt>
<trkpt lat="49.50579070486128" lon="9.21549123711884">
<ele>430.4</ele>
<time>2024-05-08T15:21:33Z</time>
</trkpt>
<trkpt lat="49.50583261437714" lon="9.215463576838374">
<ele>430.4</ele>
<time>2024-05-08T15:21:34Z</time>
</trkpt>
<trkpt lat="49.50587460771203" lon="9.2154311388731">
<ele>430.4</ele>
<time>2024-05-08T15:21:35Z</time>
</trkpt>
<trkpt lat="49.50592037290335" lon="9.215399706736209">
<ele>430.4</ele>
<time>2024-05-08T15:21:36Z</time>
</trkpt>
<trkpt lat="49.50596236623824" lon="9.215365340933204">
<ele>430.4</ele>
<time>2024-05-08T15:21:37Z</time>
</trkpt>
<trkpt lat="49.506004275754094" lon="9.215326281264424">
<ele>430.4</ele>
<time>2024-05-08T15:21:38Z</time>
</trkpt>
<trkpt lat="49.50604626908898" lon="9.2152947653085">
<ele>430.4</ele>
<time>2024-05-08T15:21:39Z</time>
</trkpt>
<trkpt lat="49.50608817860484" lon="9.215263333171606">
<ele>430.4</ele>
<time>2024-05-08T15:21:40Z</time>
</trkpt>
<trkpt lat="49.50613402761519" lon="9.215232823044062">
<ele>430.4</ele>
<time>2024-05-08T15:21:41Z</time>
</trkpt>
<trkpt lat="49.506179792806506" lon="9.215201307088137">
<ele>430.4</ele>
<time>2024-05-08T15:21:42Z</time>
</trkpt>
<trkpt lat="49.50622170232237" lon="9.215161241590977">
<ele>430.4</ele>
<time>2024-05-08T15:21:43Z</time>
</trkpt>
<trkpt lat="49.50626369565725" lon="9.215126959607003">
<ele>430.4</ele>
<time>2024-05-08T15:21:44Z</time>
</trkpt>
<trkpt lat="49.50630568899214" lon="9.215089743956923">
<ele>430.4</ele>
<time>2024-05-08T15:21:45Z</time>
</trkpt>
<trkpt lat="49.50635145418346" lon="9.215055461972952">
<ele>430.4</ele>
<time>2024-05-08T15:21:46Z</time>
</trkpt>
<trkpt lat="49.50640484690666" lon="9.2150201741606">
<ele>430.4</ele>
<time>2024-05-08T15:21:47Z</time>
</trkpt>
<trkpt lat="49.50645061209798" lon="9.214988658204676">
<ele>430.4</ele>
<time>2024-05-08T15:21:48Z</time>
</trkpt>
<trkpt lat="49.506500232964754" lon="9.2149562202394">
<ele>430.4</ele>
<time>2024-05-08T15:21:49Z</time>
</trkpt>
<trkpt lat="49.50654599815607" lon="9.214924788102508">
<ele>430.4</ele>
<time>2024-05-08T15:21:50Z</time>
</trkpt>
<trkpt lat="49.5065841358155" lon="9.214895199984312">
<ele>430.2</ele>
<time>2024-05-08T15:21:51Z</time>
</trkpt>
<trkpt lat="49.50662990100682" lon="9.21486376784742">
<ele>430.2</ele>
<time>2024-05-08T15:21:52Z</time>
</trkpt>
<trkpt lat="49.50666803866625" lon="9.214830324053764">
<ele>430.2</ele>
<time>2024-05-08T15:21:53Z</time>
</trkpt>
<trkpt lat="49.50671003200114" lon="9.214797969907522">
<ele>430.2</ele>
<time>2024-05-08T15:21:54Z</time>
</trkpt>
<trkpt lat="49.50674431398511" lon="9.214766453951595">
<ele>430.2</ele>
<time>2024-05-08T15:21:55Z</time>
</trkpt>
<trkpt lat="49.50678245164454" lon="9.214730244129896">
<ele>430.2</ele>
<time>2024-05-08T15:21:56Z</time>
</trkpt>
<trkpt lat="49.50682444497943" lon="9.214696884155272">
<ele>430.2</ele>
<time>2024-05-08T15:21:57Z</time>
</trkpt>
<trkpt lat="49.50686258263886" lon="9.214670145884156">
<ele>430.2</ele>
<time>2024-05-08T15:21:58Z</time>
</trkpt>
<trkpt lat="49.5068930927664" lon="9.214645335450768">
<ele>430.2</ele>
<time>2024-05-08T15:21:59Z</time>
</trkpt>
<trkpt lat="49.506931230425835" lon="9.21462337486446">
<ele>430.2</ele>
<time>2024-05-08T15:22:00Z</time>
</trkpt>
<trkpt lat="49.50697322376072" lon="9.214596720412374">
<ele>430.2</ele>
<time>2024-05-08T15:22:01Z</time>
</trkpt>
<trkpt lat="49.5070228446275" lon="9.21456143260002">
<ele>430.2</ele>
<time>2024-05-08T15:22:02Z</time>
</trkpt>
<trkpt lat="49.50706475414336" lon="9.2145280726254">
<ele>430.2</ele>
<time>2024-05-08T15:22:03Z</time>
</trkpt>
<trkpt lat="49.50711437501013" lon="9.214496556669474">
<ele>430.2</ele>
<time>2024-05-08T15:22:04Z</time>
</trkpt>
<trkpt lat="49.50716014020145" lon="9.214466968551278">
<ele>430.2</ele>
<time>2024-05-08T15:22:05Z</time>
</trkpt>
<trkpt lat="49.507205905392766" lon="9.214438386261463">
<ele>430.2</ele>
<time>2024-05-08T15:22:06Z</time>
</trkpt>
<trkpt lat="49.50725167058408" lon="9.214416425675154">
<ele>430.2</ele>
<time>2024-05-08T15:22:07Z</time>
</trkpt>
<trkpt lat="49.507305063307285" lon="9.214400248602033">
<ele>430.2</ele>
<time>2024-05-08T15:22:08Z</time>
</trkpt>
<trkpt lat="49.507350912317634" lon="9.214389771223068">
<ele>430.2</ele>
<time>2024-05-08T15:22:09Z</time>
</trkpt>
<trkpt lat="49.50739667750895" lon="9.214373510330915">
<ele>430.2</ele>
<time>2024-05-08T15:22:10Z</time>
</trkpt>
<trkpt lat="49.50743858702481" lon="9.21434685587883">
<ele>430.2</ele>
<time>2024-05-08T15:22:11Z</time>
</trkpt>
<trkpt lat="49.50748820789158" lon="9.214333528652787">
<ele>430.2</ele>
<time>2024-05-08T15:22:12Z</time>
</trkpt>
<trkpt lat="49.50753020122647" lon="9.214331600815058">
<ele>430.2</ele>
<time>2024-05-08T15:22:13Z</time>
</trkpt>
<trkpt lat="49.50757596641779" lon="9.214333528652787">
<ele>430.2</ele>
<time>2024-05-08T15:22:14Z</time>
</trkpt>
<trkpt lat="49.50762550346553" lon="9.214331600815058">
<ele>430.2</ele>
<time>2024-05-08T15:22:15Z</time>
</trkpt>
<trkpt lat="49.50767135247588" lon="9.214329672977328">
<ele>430.2</ele>
<time>2024-05-08T15:22:16Z</time>
</trkpt>
<trkpt lat="49.50771326199174" lon="9.214340150356293">
<ele>430.2</ele>
<time>2024-05-08T15:22:17Z</time>
</trkpt>
<trkpt lat="49.50776665471494" lon="9.214349705725908">
<ele>430.2</ele>
<time>2024-05-08T15:22:18Z</time>
</trkpt>
<trkpt lat="49.50781627558172" lon="9.214363032951953">
<ele>430.2</ele>
<time>2024-05-08T15:22:19Z</time>
</trkpt>
<trkpt lat="49.50785826891661" lon="9.214371666312218">
<ele>430.2</ele>
<time>2024-05-08T15:22:20Z</time>
</trkpt>
<trkpt lat="49.50789640657604" lon="9.214373510330915">
<ele>430.2</ele>
<time>2024-05-08T15:22:21Z</time>
</trkpt>
<trkpt lat="49.50793454423547" lon="9.214374516159296">
<ele>430.2</ele>
<time>2024-05-08T15:22:22Z</time>
</trkpt>
<trkpt lat="49.5079726818949" lon="9.214383065700533">
<ele>430.4</ele>
<time>2024-05-08T15:22:23Z</time>
</trkpt>
<trkpt lat="49.508018447086215" lon="9.214389771223068">
<ele>430.4</ele>
<time>2024-05-08T15:22:24Z</time>
</trkpt>
<trkpt lat="49.50808332301676" lon="9.214403098449113">
<ele>430.4</ele>
<time>2024-05-08T15:22:25Z</time>
</trkpt>
<trkpt lat="49.50814434327185" lon="9.214416425675154">
<ele>430.4</ele>
<time>2024-05-08T15:22:26Z</time>
</trkpt>
<trkpt lat="49.5082092192024" lon="9.214434614405036">
<ele>430.6</ele>
<time>2024-05-08T15:22:27Z</time>
</trkpt>
<trkpt lat="49.50827023945749" lon="9.214445091784">
<ele>430.6</ele>
<time>2024-05-08T15:22:28Z</time>
</trkpt>
<trkpt lat="49.50833125971258" lon="9.214456491172314">
<ele>430.6</ele>
<time>2024-05-08T15:22:29Z</time>
</trkpt>
<trkpt lat="49.50838850811124" lon="9.214466968551278">
<ele>430.6</ele>
<time>2024-05-08T15:22:30Z</time>
</trkpt>
<trkpt lat="49.50844952836633" lon="9.214476523920894">
<ele>430.4</ele>
<time>2024-05-08T15:22:31Z</time>
</trkpt>
<trkpt lat="49.50850292108953" lon="9.214483229443433">
<ele>430.4</ele>
<time>2024-05-08T15:22:32Z</time>
</trkpt>
<trkpt lat="49.50856016948819" lon="9.214489934965968">
<ele>430.4</ele>
<time>2024-05-08T15:22:33Z</time>
</trkpt>
<trkpt lat="49.508613562211394" lon="9.214489934965968">
<ele>430.4</ele>
<time>2024-05-08T15:22:34Z</time>
</trkpt>
<trkpt lat="49.5086669549346" lon="9.214491778984666">
<ele>430.4</ele>
<time>2024-05-08T15:22:35Z</time>
</trkpt>
<trkpt lat="49.508727975189686" lon="9.214493706822395">
<ele>430.4</ele>
<time>2024-05-08T15:22:36Z</time>
</trkpt>
<trkpt lat="49.508773740381" lon="9.214489934965968">
<ele>430.4</ele>
<time>2024-05-08T15:22:37Z</time>
</trkpt>
<trkpt lat="49.508830988779664" lon="9.214494628831744">
<ele>430.4</ele>
<time>2024-05-08T15:22:38Z</time>
</trkpt>
<trkpt lat="49.50888438150287" lon="9.214496556669474">
<ele>430.4</ele>
<time>2024-05-08T15:22:39Z</time>
</trkpt>
<trkpt lat="49.50894162990153" lon="9.214494628831744">
<ele>430.4</ele>
<time>2024-05-08T15:22:40Z</time>
</trkpt>
<trkpt lat="49.50899502262473" lon="9.214496556669474">
<ele>430.4</ele>
<time>2024-05-08T15:22:41Z</time>
</trkpt>
<trkpt lat="49.50905227102339" lon="9.214496556669474">
<ele>430.4</ele>
<time>2024-05-08T15:22:42Z</time>
</trkpt>
<trkpt lat="49.50911329127848" lon="9.214494628831744">
<ele>430.4</ele>
<time>2024-05-08T15:22:43Z</time>
</trkpt>
<trkpt lat="49.50915142893791" lon="9.214487001299858">
<ele>430.4</ele>
<time>2024-05-08T15:22:44Z</time>
</trkpt>
<trkpt lat="49.50920104980469" lon="9.214483229443433">
<ele>430.4</ele>
<time>2024-05-08T15:22:45Z</time>
</trkpt>
<trkpt lat="49.50925444252789" lon="9.2144813016057">
<ele>430.4</ele>
<time>2024-05-08T15:22:46Z</time>
</trkpt>
<trkpt lat="49.50930783525109" lon="9.2144813016057">
<ele>430.4</ele>
<time>2024-05-08T15:22:47Z</time>
</trkpt>
<trkpt lat="49.509361227974296" lon="9.214474596083164">
<ele>430.4</ele>
<time>2024-05-08T15:22:48Z</time>
</trkpt>
<trkpt lat="49.50941084884107" lon="9.21446512453258">
<ele>430.6</ele>
<time>2024-05-08T15:22:49Z</time>
</trkpt>
<trkpt lat="49.5094680134207" lon="9.214458419010043">
<ele>430.6</ele>
<time>2024-05-08T15:22:50Z</time>
</trkpt>
<trkpt lat="49.509521406143904" lon="9.214454647153616">
<ele>430.8</ele>
<time>2024-05-08T15:22:51Z</time>
</trkpt>
<trkpt lat="49.50957102701068" lon="9.214449869468808">
<ele>430.8</ele>
<time>2024-05-08T15:22:52Z</time>
</trkpt>
<trkpt lat="49.509616792202" lon="9.21444123610854">
<ele>430.8</ele>
<time>2024-05-08T15:22:53Z</time>
</trkpt>
<trkpt lat="49.50966641306877" lon="9.214438386261463">
<ele>430.8</ele>
<time>2024-05-08T15:22:54Z</time>
</trkpt>
<trkpt lat="49.50971603393555" lon="9.214429836720228">
<ele>430.8</ele>
<time>2024-05-08T15:22:55Z</time>
</trkpt>
<trkpt lat="49.50976557098329" lon="9.21442698687315">
<ele>431</ele>
<time>2024-05-08T15:22:56Z</time>
</trkpt>
<trkpt lat="49.50981896370649" lon="9.21442698687315">
<ele>431</ele>
<time>2024-05-08T15:22:57Z</time>
</trkpt>
<trkpt lat="49.50986858457327" lon="9.214431680738926">
<ele>431</ele>
<time>2024-05-08T15:22:58Z</time>
</trkpt>
<trkpt lat="49.50992197729647" lon="9.214434614405036">
<ele>431</ele>
<time>2024-05-08T15:22:59Z</time>
</trkpt>
<trkpt lat="49.50997922569513" lon="9.21442698687315">
<ele>431</ele>
<time>2024-05-08T15:23:00Z</time>
</trkpt>
<trkpt lat="49.510032618418336" lon="9.2144279088825">
<ele>431.2</ele>
<time>2024-05-08T15:23:01Z</time>
</trkpt>
<trkpt lat="49.510089866817" lon="9.21442698687315">
<ele>431.2</ele>
<time>2024-05-08T15:23:02Z</time>
</trkpt>
<trkpt lat="49.51014703139663" lon="9.214420281350613">
<ele>431.2</ele>
<time>2024-05-08T15:23:03Z</time>
</trkpt>
<trkpt lat="49.5101966522634" lon="9.21440787613392">
<ele>431.2</ele>
<time>2024-05-08T15:23:04Z</time>
</trkpt>
<trkpt lat="49.510253900662065" lon="9.214401170611382">
<ele>431.2</ele>
<time>2024-05-08T15:23:05Z</time>
</trkpt>
<trkpt lat="49.51030729338527" lon="9.214391699060798">
<ele>431</ele>
<time>2024-05-08T15:23:06Z</time>
</trkpt>
<trkpt lat="49.51036068610847" lon="9.214371666312218">
<ele>431</ele>
<time>2024-05-08T15:23:07Z</time>
</trkpt>
<trkpt lat="49.51041407883167" lon="9.214353561401367">
<ele>431</ele>
<time>2024-05-08T15:23:08Z</time>
</trkpt>
<trkpt lat="49.510467471554875" lon="9.214342078194022">
<ele>431</ele>
<time>2024-05-08T15:23:09Z</time>
</trkpt>
<trkpt lat="49.51052471995354" lon="9.21432875096798">
<ele>431</ele>
<time>2024-05-08T15:23:10Z</time>
</trkpt>
<trkpt lat="49.51057811267674" lon="9.214309640228748">
<ele>430.8</ele>
<time>2024-05-08T15:23:11Z</time>
</trkpt>
<trkpt lat="49.510623877868056" lon="9.214289607480168">
<ele>430.8</ele>
<time>2024-05-08T15:23:12Z</time>
</trkpt>
<trkpt lat="49.51065824367106" lon="9.21426865272224">
<ele>430.8</ele>
<time>2024-05-08T15:23:13Z</time>
</trkpt>
<trkpt lat="49.51069638133049" lon="9.21424669213593">
<ele>431</ele>
<time>2024-05-08T15:23:14Z</time>
</trkpt>
<trkpt lat="49.51074214652181" lon="9.214222887530925">
<ele>431</ele>
<time>2024-05-08T15:23:15Z</time>
</trkpt>
<trkpt lat="49.510784139856696" lon="9.214202854782345">
<ele>431</ele>
<time>2024-05-08T15:23:16Z</time>
</trkpt>
<trkpt lat="49.51082990504801" lon="9.214177122339606">
<ele>431</ele>
<time>2024-05-08T15:23:17Z</time>
</trkpt>
<trkpt lat="49.51087567023933" lon="9.214153233915567">
<ele>431</ele>
<time>2024-05-08T15:23:18Z</time>
</trkpt>
<trkpt lat="49.51091766357422" lon="9.214121801778674">
<ele>431</ele>
<time>2024-05-08T15:23:19Z</time>
</trkpt>
<trkpt lat="49.51095957309008" lon="9.21408835798502">
<ele>431</ele>
<time>2024-05-08T15:23:20Z</time>
</trkpt>
<trkpt lat="49.51100533828139" lon="9.214059775695205">
<ele>431</ele>
<time>2024-05-08T15:23:21Z</time>
</trkpt>
<trkpt lat="49.51105110347271" lon="9.214036893099546">
<ele>431</ele>
<time>2024-05-08T15:23:22Z</time>
</trkpt>
<trkpt lat="49.511100724339485" lon="9.214003533124924">
<ele>431</ele>
<time>2024-05-08T15:23:23Z</time>
</trkpt>
<trkpt lat="49.5111464895308" lon="9.213961539790034">
<ele>431</ele>
<time>2024-05-08T15:23:24Z</time>
</trkpt>
<trkpt lat="49.51119611039758" lon="9.213926251977682">
<ele>431</ele>
<time>2024-05-08T15:23:25Z</time>
</trkpt>
<trkpt lat="49.511241875588894" lon="9.213901441544294">
<ele>431</ele>
<time>2024-05-08T15:23:26Z</time>
</trkpt>
<trkpt lat="49.51128764078021" lon="9.2138700094074">
<ele>431</ele>
<time>2024-05-08T15:23:27Z</time>
</trkpt>
<trkpt lat="49.51133340597153" lon="9.213836649432778">
<ele>431</ele>
<time>2024-05-08T15:23:28Z</time>
</trkpt>
<trkpt lat="49.51137917116285" lon="9.213805133476852">
<ele>431</ele>
<time>2024-05-08T15:23:29Z</time>
</trkpt>
<trkpt lat="49.51142493635416" lon="9.21377370133996">
<ele>431</ele>
<time>2024-05-08T15:23:30Z</time>
</trkpt>
<trkpt lat="49.51146315783262" lon="9.213743191212416">
<ele>431</ele>
<time>2024-05-08T15:23:31Z</time>
</trkpt>
<trkpt lat="49.511497439816594" lon="9.213706897571685">
<ele>431</ele>
<time>2024-05-08T15:23:32Z</time>
</trkpt>
<trkpt lat="49.51152794994414" lon="9.213661132380366">
<ele>431</ele>
<time>2024-05-08T15:23:33Z</time>
</trkpt>
<trkpt lat="49.511573715135455" lon="9.213609667494891">
<ele>431</ele>
<time>2024-05-08T15:23:34Z</time>
</trkpt>
<trkpt lat="49.511615708470345" lon="9.213561974465849">
<ele>431.2</ele>
<time>2024-05-08T15:23:35Z</time>
</trkpt>
<trkpt lat="49.511657701805234" lon="9.21351813711226">
<ele>431.2</ele>
<time>2024-05-08T15:23:36Z</time>
</trkpt>
<trkpt lat="49.51170346699655" lon="9.21347706578672">
<ele>431.2</ele>
<time>2024-05-08T15:23:37Z</time>
</trkpt>
<trkpt lat="49.51174160465598" lon="9.213426522910597">
<ele>431.2</ele>
<time>2024-05-08T15:23:38Z</time>
</trkpt>
<trkpt lat="49.51177974231541" lon="9.213375058025122">
<ele>431.4</ele>
<time>2024-05-08T15:23:39Z</time>
</trkpt>
<trkpt lat="49.51181787997484" lon="9.21331973746419">
<ele>431.4</ele>
<time>2024-05-08T15:23:40Z</time>
</trkpt>
<trkpt lat="49.51186364516616" lon="9.21326156705618">
<ele>431.4</ele>
<time>2024-05-08T15:23:41Z</time>
</trkpt>
<trkpt lat="49.511913266032934" lon="9.213205324485898">
<ele>431.4</ele>
<time>2024-05-08T15:23:42Z</time>
</trkpt>
<trkpt lat="49.511951403692365" lon="9.213146148249509">
<ele>431.4</ele>
<time>2024-05-08T15:23:43Z</time>
</trkpt>
<trkpt lat="49.51199716888368" lon="9.213085127994418">
<ele>431.4</ele>
<time>2024-05-08T15:23:44Z</time>
</trkpt>
<trkpt lat="49.512042934075" lon="9.213025029748678">
<ele>431.4</ele>
<time>2024-05-08T15:23:45Z</time>
</trkpt>
<trkpt lat="49.51208107173443" lon="9.212960237637162">
<ele>431.4</ele>
<time>2024-05-08T15:23:46Z</time>
</trkpt>
<trkpt lat="49.51212306506932" lon="9.212896283715963">
<ele>431.6</ele>
<time>2024-05-08T15:23:47Z</time>
</trkpt>
<trkpt lat="49.512168830260634" lon="9.212833335623143">
<ele>431.6</ele>
<time>2024-05-08T15:23:48Z</time>
</trkpt>
<trkpt lat="49.51220319606364" lon="9.212770387530329">
<ele>431.6</ele>
<time>2024-05-08T15:23:49Z</time>
</trkpt>
<trkpt lat="49.512245105579495" lon="9.21270458959043">
<ele>431.6</ele>
<time>2024-05-08T15:23:50Z</time>
</trkpt>
<trkpt lat="49.51229095458984" lon="9.21264356933534">
<ele>431.6</ele>
<time>2024-05-08T15:23:51Z</time>
</trkpt>
<trkpt lat="49.5123328641057" lon="9.212578693404794">
<ele>431.6</ele>
<time>2024-05-08T15:23:52Z</time>
</trkpt>
<trkpt lat="49.512367229908705" lon="9.212511973455548">
<ele>431.6</ele>
<time>2024-05-08T15:23:53Z</time>
</trkpt>
<trkpt lat="49.51240151189267" lon="9.21244810335338">
<ele>431.6</ele>
<time>2024-05-08T15:23:54Z</time>
</trkpt>
<trkpt lat="49.51243964955211" lon="9.212387083098292">
<ele>431.6</ele>
<time>2024-05-08T15:23:55Z</time>
</trkpt>
<trkpt lat="49.51247787103057" lon="9.212326984852552">
<ele>431.6</ele>
<time>2024-05-08T15:23:56Z</time>
</trkpt>
<trkpt lat="49.51251215301454" lon="9.212263030931354">
<ele>431.6</ele>
<time>2024-05-08T15:23:57Z</time>
</trkpt>
<trkpt lat="49.512546518817544" lon="9.212200082838535">
<ele>431.6</ele>
<time>2024-05-08T15:23:58Z</time>
</trkpt>
<trkpt lat="49.51257702894509" lon="9.21213529072702">
<ele>431.6</ele>
<time>2024-05-08T15:23:59Z</time>
</trkpt>
<trkpt lat="49.51261131092906" lon="9.212070414796472">
<ele>431.6</ele>
<time>2024-05-08T15:24:00Z</time>
</trkpt>
<trkpt lat="49.51264190487563" lon="9.212010316550732">
<ele>431.6</ele>
<time>2024-05-08T15:24:01Z</time>
</trkpt>
<trkpt lat="49.51267241500318" lon="9.211951224133372">
<ele>431.6</ele>
<time>2024-05-08T15:24:02Z</time>
</trkpt>
<trkpt lat="49.51271055266261" lon="9.211893053725362">
<ele>431.4</ele>
<time>2024-05-08T15:24:03Z</time>
</trkpt>
<trkpt lat="49.51274483464658" lon="9.211832955479622">
<ele>431.4</ele>
<time>2024-05-08T15:24:04Z</time>
</trkpt>
<trkpt lat="49.51278297230601" lon="9.211772857233882">
<ele>431.4</ele>
<time>2024-05-08T15:24:05Z</time>
</trkpt>
<trkpt lat="49.512817338109016" lon="9.211703287437558">
<ele>431.4</ele>
<time>2024-05-08T15:24:06Z</time>
</trkpt>
<trkpt lat="49.51284784823656" lon="9.211631705984471">
<ele>431.4</ele>
<time>2024-05-08T15:24:07Z</time>
</trkpt>
<trkpt lat="49.512878358364105" lon="9.211563058197498">
<ele>431.4</ele>
<time>2024-05-08T15:24:08Z</time>
</trkpt>
<trkpt lat="49.51290509663522" lon="9.21150203794241">
<ele>431.4</ele>
<time>2024-05-08T15:24:09Z</time>
</trkpt>
<trkpt lat="49.512939378619194" lon="9.21144193969667">
<ele>431.4</ele>
<time>2024-05-08T15:24:10Z</time>
</trkpt>
<trkpt lat="49.5129737444222" lon="9.211376141756771">
<ele>431.4</ele>
<time>2024-05-08T15:24:11Z</time>
</trkpt>
<trkpt lat="49.51300425454974" lon="9.211317049339414">
<ele>431.4</ele>
<time>2024-05-08T15:24:12Z</time>
</trkpt>
<trkpt lat="49.513034764677286" lon="9.211251251399515">
<ele>431.4</ele>
<time>2024-05-08T15:24:13Z</time>
</trkpt>
<trkpt lat="49.51306527480483" lon="9.211181597784162">
<ele>431.2</ele>
<time>2024-05-08T15:24:14Z</time>
</trkpt>
<trkpt lat="49.513099640607834" lon="9.211110100150108">
<ele>431.2</ele>
<time>2024-05-08T15:24:15Z</time>
</trkpt>
<trkpt lat="49.51313015073538" lon="9.211043296381831">
<ele>431.2</ele>
<time>2024-05-08T15:24:16Z</time>
</trkpt>
<trkpt lat="49.51316451653838" lon="9.210976576432586">
<ele>431.2</ele>
<time>2024-05-08T15:24:17Z</time>
</trkpt>
<trkpt lat="49.513195026665926" lon="9.210914550349116">
<ele>431.4</ele>
<time>2024-05-08T15:24:18Z</time>
</trkpt>
<trkpt lat="49.51322553679347" lon="9.210851602256298">
<ele>431.4</ele>
<time>2024-05-08T15:24:19Z</time>
</trkpt>
<trkpt lat="49.51325981877744" lon="9.210786810144782">
<ele>431.6</ele>
<time>2024-05-08T15:24:20Z</time>
</trkpt>
<trkpt lat="49.51330181211233" lon="9.210720006376503">
<ele>431.6</ele>
<time>2024-05-08T15:24:21Z</time>
</trkpt>
<trkpt lat="49.51333994977176" lon="9.210659908130763">
<ele>431.8</ele>
<time>2024-05-08T15:24:22Z</time>
</trkpt>
<trkpt lat="49.51337808743119" lon="9.210596960037948">
<ele>431.8</ele>
<time>2024-05-08T15:24:23Z</time>
</trkpt>
<trkpt lat="49.51340859755874" lon="9.21053116209805">
<ele>431.8</ele>
<time>2024-05-08T15:24:24Z</time>
</trkpt>
<trkpt lat="49.513435335829854" lon="9.21047206968069">
<ele>431.8</ele>
<time>2024-05-08T15:24:25Z</time>
</trkpt>
<trkpt lat="49.51346199028194" lon="9.21041674911976">
<ele>432</ele>
<time>2024-05-08T15:24:26Z</time>
</trkpt>
<trkpt lat="49.51348872855306" lon="9.210358578711748">
<ele>432</ele>
<time>2024-05-08T15:24:27Z</time>
</trkpt>
<trkpt lat="49.5135192386806" lon="9.210303258150816">
<ele>431.8</ele>
<time>2024-05-08T15:24:28Z</time>
</trkpt>
<trkpt lat="49.51354212127626" lon="9.210243159905076">
<ele>431.8</ele>
<time>2024-05-08T15:24:29Z</time>
</trkpt>
<trkpt lat="49.51356885954738" lon="9.210184989497066">
<ele>431.8</ele>
<time>2024-05-08T15:24:30Z</time>
</trkpt>
<trkpt lat="49.513587886467576" lon="9.210122041404247">
<ele>431.8</ele>
<time>2024-05-08T15:24:31Z</time>
</trkpt>
<trkpt lat="49.51359936967492" lon="9.210062948986888">
<ele>431.6</ele>
<time>2024-05-08T15:24:32Z</time>
</trkpt>
<trkpt lat="49.513610769063234" lon="9.210009556263683">
<ele>431.6</ele>
<time>2024-05-08T15:24:33Z</time>
</trkpt>
<trkpt lat="49.51362602412701" lon="9.209946608170869">
<ele>431.6</ele>
<time>2024-05-08T15:24:34Z</time>
</trkpt>
<trkpt lat="49.51365653425455" lon="9.209886509925129">
<ele>431.6</ele>
<time>2024-05-08T15:24:35Z</time>
</trkpt>
<trkpt lat="49.51368712820113" lon="9.209824483841658">
<ele>431.4</ele>
<time>2024-05-08T15:24:36Z</time>
</trkpt>
<trkpt lat="49.51371378265321" lon="9.209756841883063">
<ele>431.4</ele>
<time>2024-05-08T15:24:37Z</time>
</trkpt>
<trkpt lat="49.51374052092433" lon="9.209696743637323">
<ele>431.4</ele>
<time>2024-05-08T15:24:38Z</time>
</trkpt>
<trkpt lat="49.513767175376415" lon="9.209628095850348">
<ele>431.4</ele>
<time>2024-05-08T15:24:39Z</time>
</trkpt>
<trkpt lat="49.51379768550396" lon="9.209558442234991">
<ele>431.4</ele>
<time>2024-05-08T15:24:40Z</time>
</trkpt>
<trkpt lat="49.513828195631504" lon="9.20948308892548">
<ele>431.4</ele>
<time>2024-05-08T15:24:41Z</time>
</trkpt>
<trkpt lat="49.513847306370735" lon="9.209413519129155">
<ele>431.4</ele>
<time>2024-05-08T15:24:42Z</time>
</trkpt>
<trkpt lat="49.513866417109966" lon="9.209355348721148">
<ele>431.2</ele>
<time>2024-05-08T15:24:43Z</time>
</trkpt>
<trkpt lat="49.51390069909394" lon="9.209281839430332">
<ele>431.2</ele>
<time>2024-05-08T15:24:44Z</time>
</trkpt>
<trkpt lat="49.51391980983317" lon="9.20921134762466">
<ele>431.2</ele>
<time>2024-05-08T15:24:45Z</time>
</trkpt>
<trkpt lat="49.51394269242883" lon="9.209144543856382">
<ele>431.2</ele>
<time>2024-05-08T15:24:46Z</time>
</trkpt>
<trkpt lat="49.51396934688091" lon="9.209076818078756">
<ele>431.2</ele>
<time>2024-05-08T15:24:47Z</time>
</trkpt>
<trkpt lat="49.51399608515203" lon="9.209006242454052">
<ele>431.2</ele>
<time>2024-05-08T15:24:48Z</time>
</trkpt>
<trkpt lat="49.51402282342315" lon="9.20893474482">
<ele>431.2</ele>
<time>2024-05-08T15:24:49Z</time>
</trkpt>
<trkpt lat="49.514045706018806" lon="9.208863247185946">
<ele>431.2</ele>
<time>2024-05-08T15:24:50Z</time>
</trkpt>
<trkpt lat="49.51407236047089" lon="9.208798371255398">
<ele>431.2</ele>
<time>2024-05-08T15:24:51Z</time>
</trkpt>
<trkpt lat="49.51407998800278" lon="9.208731651306152">
<ele>431.2</ele>
<time>2024-05-08T15:24:52Z</time>
</trkpt>
<trkpt lat="49.51409524306655" lon="9.208671553060412">
<ele>431.2</ele>
<time>2024-05-08T15:24:53Z</time>
</trkpt>
<trkpt lat="49.51411435380578" lon="9.208606677129865">
<ele>431.2</ele>
<time>2024-05-08T15:24:54Z</time>
</trkpt>
<trkpt lat="49.51412960886955" lon="9.208543729037046">
<ele>431.2</ele>
<time>2024-05-08T15:24:55Z</time>
</trkpt>
<trkpt lat="49.514144863933325" lon="9.208481786772609">
<ele>431.2</ele>
<time>2024-05-08T15:24:56Z</time>
</trkpt>
<trkpt lat="49.51416389085352" lon="9.208421688526869">
<ele>431.2</ele>
<time>2024-05-08T15:24:57Z</time>
</trkpt>
<trkpt lat="49.51417922973633" lon="9.208353040739894">
<ele>431.2</ele>
<time>2024-05-08T15:24:58Z</time>
</trkpt>
<trkpt lat="49.51419825665653" lon="9.20827953144908">
<ele>431.4</ele>
<time>2024-05-08T15:24:59Z</time>
</trkpt>
<trkpt lat="49.514224994927645" lon="9.208208033815026">
<ele>431.4</ele>
<time>2024-05-08T15:25:00Z</time>
</trkpt>
<trkpt lat="49.51424402184784" lon="9.20814131386578">
<ele>431.4</ele>
<time>2024-05-08T15:25:01Z</time>
</trkpt>
<trkpt lat="49.514263132587075" lon="9.20808121562004">
<ele>431.4</ele>
<time>2024-05-08T15:25:02Z</time>
</trkpt>
<trkpt lat="49.51428601518273" lon="9.208018267527224">
<ele>431.4</ele>
<time>2024-05-08T15:25:03Z</time>
</trkpt>
<trkpt lat="49.51430504210293" lon="9.207968646660447">
<ele>431.6</ele>
<time>2024-05-08T15:25:04Z</time>
</trkpt>
<trkpt lat="49.51431652531028" lon="9.207916259765623">
<ele>431.6</ele>
<time>2024-05-08T15:25:05Z</time>
</trkpt>
<trkpt lat="49.514339407905936" lon="9.207850378006697">
<ele>431.6</ele>
<time>2024-05-08T15:25:06Z</time>
</trkpt>
<trkpt lat="49.514362290501595" lon="9.207775108516216">
<ele>431.8</ele>
<time>2024-05-08T15:25:07Z</time>
</trkpt>
<trkpt lat="49.51439280062914" lon="9.207703527063131">
<ele>431.8</ele>
<time>2024-05-08T15:25:08Z</time>
</trkpt>
<trkpt lat="49.51443479396403" lon="9.207610068842769">
<ele>431.8</ele>
<time>2024-05-08T15:25:09Z</time>
</trkpt>
<trkpt lat="49.514461448416114" lon="9.207519460469484">
<ele>432</ele>
<time>2024-05-08T15:25:10Z</time>
</trkpt>
<trkpt lat="49.514499586075544" lon="9.20742985792458">
<ele>432</ele>
<time>2024-05-08T15:25:11Z</time>
</trkpt>
<trkpt lat="49.514522552490234" lon="9.20734972693026">
<ele>432</ele>
<time>2024-05-08T15:25:12Z</time>
</trkpt>
<trkpt lat="49.51454543508589" lon="9.207268673926592">
<ele>432</ele>
<time>2024-05-08T15:25:13Z</time>
</trkpt>
<trkpt lat="49.51457208953798" lon="9.207186698913574">
<ele>432</ele>
<time>2024-05-08T15:25:14Z</time>
</trkpt>
<trkpt lat="49.51459497213364" lon="9.20711033977568">
<ele>432</ele>
<time>2024-05-08T15:25:15Z</time>
</trkpt>
<trkpt lat="49.51461408287287" lon="9.207030292600392">
<ele>432.2</ele>
<time>2024-05-08T15:25:16Z</time>
</trkpt>
<trkpt lat="49.51463310979307" lon="9.206953011453152">
<ele>432.2</ele>
<time>2024-05-08T15:25:17Z</time>
</trkpt>
<trkpt lat="49.514655992388725" lon="9.206878580152988">
<ele>432.2</ele>
<time>2024-05-08T15:25:18Z</time>
</trkpt>
<trkpt lat="49.514678874984384" lon="9.20680138282478">
<ele>432.2</ele>
<time>2024-05-08T15:25:19Z</time>
</trkpt>
<trkpt lat="49.514701841399074" lon="9.206726951524615">
<ele>432.2</ele>
<time>2024-05-08T15:25:20Z</time>
</trkpt>
<trkpt lat="49.51472849585116" lon="9.206654531881211">
<ele>432.2</ele>
<time>2024-05-08T15:25:21Z</time>
</trkpt>
<trkpt lat="49.51475523412227" lon="9.206586806103587">
<ele>432.2</ele>
<time>2024-05-08T15:25:22Z</time>
</trkpt>
<trkpt lat="49.51478574424982" lon="9.20652293600142">
<ele>432.2</ele>
<time>2024-05-08T15:25:23Z</time>
</trkpt>
<trkpt lat="49.51482388190925" lon="9.2064618319273">
<ele>432.2</ele>
<time>2024-05-08T15:25:24Z</time>
</trkpt>
<trkpt lat="49.51486964710057" lon="9.206403661519287">
<ele>432</ele>
<time>2024-05-08T15:25:25Z</time>
</trkpt>
<trkpt lat="49.51491926796734" lon="9.206348340958357">
<ele>432</ele>
<time>2024-05-08T15:25:26Z</time>
</trkpt>
<trkpt lat="49.51496503315866" lon="9.206290170550346">
<ele>432</ele>
<time>2024-05-08T15:25:27Z</time>
</trkpt>
<trkpt lat="49.51500694267452" lon="9.206228228285909">
<ele>431.8</ele>
<time>2024-05-08T15:25:28Z</time>
</trkpt>
<trkpt lat="49.51504893600941" lon="9.206154802814126">
<ele>431.6</ele>
<time>2024-05-08T15:25:29Z</time>
</trkpt>
<trkpt lat="49.51508330181241" lon="9.206080371513965">
<ele>431.6</ele>
<time>2024-05-08T15:25:30Z</time>
</trkpt>
<trkpt lat="49.515109956264496" lon="9.205998396500943">
<ele>431.4</ele>
<time>2024-05-08T15:25:31Z</time>
</trkpt>
<trkpt lat="49.515132838860154" lon="9.205918265506623">
<ele>431.4</ele>
<time>2024-05-08T15:25:32Z</time>
</trkpt>
<trkpt lat="49.51515572145581" lon="9.205838134512303">
<ele>431.2</ele>
<time>2024-05-08T15:25:33Z</time>
</trkpt>
<trkpt lat="49.51518245972693" lon="9.205758087337015">
<ele>431</ele>
<time>2024-05-08T15:25:34Z</time>
</trkpt>
<trkpt lat="49.51520534232259" lon="9.205679884180428">
<ele>431</ele>
<time>2024-05-08T15:25:36Z</time>
</trkpt>
<trkpt lat="49.515228224918246" lon="9.205599753186108">
<ele>431</ele>
<time>2024-05-08T15:25:37Z</time>
</trkpt>
<trkpt lat="49.51527784578502" lon="9.205443346872926">
<ele>430.8</ele>
<time>2024-05-08T15:25:38Z</time>
</trkpt>
<trkpt lat="49.51530072838068" lon="9.205365143716335">
<ele>430.8</ele>
<time>2024-05-08T15:25:39Z</time>
</trkpt>
<trkpt lat="49.51531975530088" lon="9.205287862569094">
<ele>430.6</ele>
<time>2024-05-08T15:25:40Z</time>
</trkpt>
<trkpt lat="49.515346493572" lon="9.205211587250233">
<ele>430.6</ele>
<time>2024-05-08T15:25:41Z</time>
</trkpt>
<trkpt lat="49.515369376167655" lon="9.20513623394072">
<ele>430.6</ele>
<time>2024-05-08T15:25:42Z</time>
</trkpt>
<trkpt lat="49.51539225876331" lon="9.205062808468938">
<ele>430.6</ele>
<time>2024-05-08T15:25:43Z</time>
</trkpt>
<trkpt lat="49.51541514135897" lon="9.204990305006504">
<ele>430.6</ele>
<time>2024-05-08T15:25:44Z</time>
</trkpt>
<trkpt lat="49.51543802395463" lon="9.204919813200831">
<ele>430.6</ele>
<time>2024-05-08T15:25:45Z</time>
</trkpt>
<trkpt lat="49.51545713469386" lon="9.204850159585476">
<ele>430.6</ele>
<time>2024-05-08T15:25:46Z</time>
</trkpt>
<trkpt lat="49.51548001728952" lon="9.204785283654928">
<ele>430.6</ele>
<time>2024-05-08T15:25:47Z</time>
</trkpt>
<trkpt lat="49.51549904420972" lon="9.204714708030224">
<ele>430.6</ele>
<time>2024-05-08T15:25:48Z</time>
</trkpt>
<trkpt lat="49.51551815494895" lon="9.204647988080978">
<ele>430.6</ele>
<time>2024-05-08T15:25:49Z</time>
</trkpt>
<trkpt lat="49.51553341001272" lon="9.20458503998816">
<ele>430.6</ele>
<time>2024-05-08T15:25:50Z</time>
</trkpt>
<trkpt lat="49.51555629260838" lon="9.204522091895342">
<ele>430.6</ele>
<time>2024-05-08T15:25:51Z</time>
</trkpt>
<trkpt lat="49.51557154767215" lon="9.204460065811872">
<ele>430.6</ele>
<time>2024-05-08T15:25:52Z</time>
</trkpt>
<trkpt lat="49.51559443026781" lon="9.204401895403862">
<ele>430.6</ele>
<time>2024-05-08T15:25:53Z</time>
</trkpt>
<trkpt lat="49.51560968533158" lon="9.204343724995852">
<ele>430.6</ele>
<time>2024-05-08T15:25:54Z</time>
</trkpt>
<trkpt lat="49.515628796070814" lon="9.204284632578492">
<ele>430.4</ele>
<time>2024-05-08T15:25:55Z</time>
</trkpt>
<trkpt lat="49.51564782299101" lon="9.20423123985529">
<ele>430.4</ele>
<time>2024-05-08T15:25:56Z</time>
</trkpt>
<trkpt lat="49.515663078054786" lon="9.204177847132089">
<ele>430.4</ele>
<time>2024-05-08T15:25:57Z</time>
</trkpt>
<trkpt lat="49.51567833311856" lon="9.204126298427582">
<ele>430.2</ele>
<time>2024-05-08T15:25:58Z</time>
</trkpt>
<trkpt lat="49.51569358818233" lon="9.204074833542109">
<ele>430.2</ele>
<time>2024-05-08T15:25:59Z</time>
</trkpt>
<trkpt lat="49.515705071389675" lon="9.204023284837604">
<ele>430.2</ele>
<time>2024-05-08T15:26:00Z</time>
</trkpt>
<trkpt lat="49.51571647077799" lon="9.20397181995213">
<ele>430.2</ele>
<time>2024-05-08T15:26:01Z</time>
</trkpt>
<trkpt lat="49.51571647077799" lon="9.203921277076006">
<ele>430.2</ele>
<time>2024-05-08T15:26:02Z</time>
</trkpt>
<trkpt lat="49.51571647077799" lon="9.203874506056309">
<ele>430.2</ele>
<time>2024-05-08T15:26:03Z</time>
</trkpt>
<trkpt lat="49.51571647077799" lon="9.20383159071207">
<ele>430.2</ele>
<time>2024-05-08T15:26:04Z</time>
</trkpt>
<trkpt lat="49.515705071389675" lon="9.20379345305264">
<ele>430.2</ele>
<time>2024-05-08T15:26:05Z</time>
</trkpt>
<trkpt lat="49.51569358818233" lon="9.20375632122159">
<ele>430</ele>
<time>2024-05-08T15:26:06Z</time>
</trkpt>
<trkpt lat="49.51567833311856" lon="9.203720027580856">
<ele>430</ele>
<time>2024-05-08T15:26:07Z</time>
</trkpt>
<trkpt lat="49.515663078054786" lon="9.203686667606236">
<ele>430</ele>
<time>2024-05-08T15:26:08Z</time>
</trkpt>
<trkpt lat="49.515644051134586" lon="9.20365707948804">
<ele>430</ele>
<time>2024-05-08T15:26:09Z</time>
</trkpt>
<trkpt lat="49.515624940395355" lon="9.203624725341797">
<ele>429.8</ele>
<time>2024-05-08T15:26:10Z</time>
</trkpt>
<trkpt lat="49.51560968533158" lon="9.20359798707068">
<ele>429.6</ele>
<time>2024-05-08T15:26:11Z</time>
</trkpt>
<trkpt lat="49.5156020577997" lon="9.203571248799562">
<ele>429.4</ele>
<time>2024-05-08T15:26:12Z</time>
</trkpt>
<trkpt lat="49.51559828594327" lon="9.203544594347475">
<ele>429.4</ele>
<time>2024-05-08T15:26:13Z</time>
</trkpt>
<trkpt lat="49.51559443026781" lon="9.20351785607636">
<ele>429.4</ele>
<time>2024-05-08T15:26:14Z</time>
</trkpt>
<trkpt lat="49.51559443026781" lon="9.2034949734807">
<ele>429.4</ele>
<time>2024-05-08T15:26:15Z</time>
</trkpt>
<trkpt lat="49.51559828594327" lon="9.203472090885043">
<ele>429.4</ele>
<time>2024-05-08T15:26:16Z</time>
</trkpt>
<trkpt lat="49.51559828594327" lon="9.203448286280036">
<ele>429.4</ele>
<time>2024-05-08T15:26:17Z</time>
</trkpt>
<trkpt lat="49.5156020577997" lon="9.203423475846648">
<ele>429.4</ele>
<time>2024-05-08T15:26:18Z</time>
</trkpt>
<trkpt lat="49.5156020577997" lon="9.203392965719104">
<ele>429.4</ele>
<time>2024-05-08T15:26:19Z</time>
</trkpt>
<trkpt lat="49.51559828594327" lon="9.203363377600908">
<ele>429.4</ele>
<time>2024-05-08T15:26:20Z</time>
</trkpt>
<trkpt lat="49.51559828594327" lon="9.203331945464017">
<ele>429.4</ele>
<time>2024-05-08T15:26:21Z</time>
</trkpt>
<trkpt lat="49.5156020577997" lon="9.20329850167036">
<ele>429.6</ele>
<time>2024-05-08T15:26:22Z</time>
</trkpt>
<trkpt lat="49.5156020577997" lon="9.20326036401093">
<ele>429.6</ele>
<time>2024-05-08T15:26:23Z</time>
</trkpt>
<trkpt lat="49.5156020577997" lon="9.20322029851377">
<ele>429.6</ele>
<time>2024-05-08T15:26:24Z</time>
</trkpt>
<trkpt lat="49.5156020577997" lon="9.203176461160185">
<ele>429.6</ele>
<time>2024-05-08T15:26:25Z</time>
</trkpt>
<trkpt lat="49.51560591347515" lon="9.203133545815945">
<ele>429.6</ele>
<time>2024-05-08T15:26:26Z</time>
</trkpt>
<trkpt lat="49.51560591347515" lon="9.203095408156514">
<ele>429.6</ele>
<time>2024-05-08T15:26:27Z</time>
</trkpt>
<trkpt lat="49.51560591347515" lon="9.203058192506433">
<ele>429.6</ele>
<time>2024-05-08T15:26:28Z</time>
</trkpt>
<trkpt lat="49.51560591347515" lon="9.20302483253181">
<ele>429.6</ele>
<time>2024-05-08T15:26:29Z</time>
</trkpt>
<trkpt lat="49.51560591347515" lon="9.202988622710109">
<ele>429.6</ele>
<time>2024-05-08T15:26:30Z</time>
</trkpt>
<trkpt lat="49.51560591347515" lon="9.202953334897757">
<ele>429.6</ele>
<time>2024-05-08T15:26:31Z</time>
</trkpt>
<trkpt lat="49.51560591347515" lon="9.202918047085404">
<ele>429.6</ele>
<time>2024-05-08T15:26:32Z</time>
</trkpt>
<trkpt lat="49.51560591347515" lon="9.202879825606942">
<ele>429.6</ele>
<time>2024-05-08T15:26:33Z</time>
</trkpt>
<trkpt lat="49.51560591347515" lon="9.202837916091084">
<ele>429.6</ele>
<time>2024-05-08T15:26:34Z</time>
</trkpt>
<trkpt lat="49.51560968533158" lon="9.202796928584576">
<ele>429.6</ele>
<time>2024-05-08T15:26:35Z</time>
</trkpt>
<trkpt lat="49.51560968533158" lon="9.202753007411957">
<ele>429.6</ele>
<time>2024-05-08T15:26:36Z</time>
</trkpt>
<trkpt lat="49.51560968533158" lon="9.20271009206772">
<ele>429.6</ele>
<time>2024-05-08T15:26:37Z</time>
</trkpt>
<trkpt lat="49.51561731286347" lon="9.20267002657056">
<ele>429.6</ele>
<time>2024-05-08T15:26:38Z</time>
</trkpt>
<trkpt lat="49.51562116853893" lon="9.202625267207624">
<ele>429.6</ele>
<time>2024-05-08T15:26:39Z</time>
</trkpt>
<trkpt lat="49.515624940395355" lon="9.202578496187924">
<ele>429.6</ele>
<time>2024-05-08T15:26:40Z</time>
</trkpt>
<trkpt lat="49.51563256792724" lon="9.202527031302452">
<ele>429.6</ele>
<time>2024-05-08T15:26:41Z</time>
</trkpt>
<trkpt lat="49.5156364236027" lon="9.20247363857925">
<ele>429.6</ele>
<time>2024-05-08T15:26:42Z</time>
</trkpt>
<trkpt lat="49.515644051134586" lon="9.202418318018315">
<ele>429.6</ele>
<time>2024-05-08T15:26:43Z</time>
</trkpt>
<trkpt lat="49.51565167866647" lon="9.202362997457383">
<ele>429.6</ele>
<time>2024-05-08T15:26:44Z</time>
</trkpt>
<trkpt lat="49.51565930619836" lon="9.202308598905802">
<ele>429.6</ele>
<time>2024-05-08T15:26:45Z</time>
</trkpt>
<trkpt lat="49.515666933730245" lon="9.202256128191948">
<ele>429.6</ele>
<time>2024-05-08T15:26:46Z</time>
</trkpt>
<trkpt lat="49.51567456126213" lon="9.202201813459396">
<ele>429.6</ele>
<time>2024-05-08T15:26:47Z</time>
</trkpt>
<trkpt lat="49.51568218879402" lon="9.202153198421">
<ele>429.6</ele>
<time>2024-05-08T15:26:48Z</time>
</trkpt>
<trkpt lat="49.51569358818233" lon="9.202104499563577">
<ele>429.6</ele>
<time>2024-05-08T15:26:49Z</time>
</trkpt>
<trkpt lat="49.5157088432461" lon="9.202054962515833">
<ele>429.6</ele>
<time>2024-05-08T15:26:50Z</time>
</trkpt>
<trkpt lat="49.51572032645345" lon="9.202005341649055">
<ele>429.6</ele>
<time>2024-05-08T15:26:51Z</time>
</trkpt>
<trkpt lat="49.51573558151722" lon="9.201954798772933">
<ele>429.6</ele>
<time>2024-05-08T15:26:52Z</time>
</trkpt>
<trkpt lat="49.51575083658099" lon="9.201906183734536">
<ele>429.6</ele>
<time>2024-05-08T15:26:53Z</time>
</trkpt>
<trkpt lat="49.51576609164477" lon="9.20185656286776">
<ele>429.6</ele>
<time>2024-05-08T15:26:54Z</time>
</trkpt>
<trkpt lat="49.515781346708536" lon="9.201813647523522">
<ele>429.4</ele>
<time>2024-05-08T15:26:55Z</time>
</trkpt>
<trkpt lat="49.51580045744777" lon="9.201771654188631">
<ele>429.4</ele>
<time>2024-05-08T15:26:56Z</time>
</trkpt>
<trkpt lat="49.515823340043426" lon="9.201729744672775">
<ele>429.2</ele>
<time>2024-05-08T15:26:57Z</time>
</trkpt>
<trkpt lat="49.5158385951072" lon="9.201691607013345">
<ele>429.2</ele>
<time>2024-05-08T15:26:58Z</time>
</trkpt>
<trkpt lat="49.515861477702856" lon="9.201655313372612">
<ele>429</ele>
<time>2024-05-08T15:26:59Z</time>
</trkpt>
<trkpt lat="49.515880504623055" lon="9.20162002556026">
<ele>429</ele>
<time>2024-05-08T15:27:00Z</time>
</trkpt>
<trkpt lat="49.51589584350586" lon="9.201591443270445">
<ele>429</ele>
<time>2024-05-08T15:27:01Z</time>
</trkpt>
<trkpt lat="49.51591487042606" lon="9.20156478881836">
<ele>428.8</ele>
<time>2024-05-08T15:27:02Z</time>
</trkpt>
<trkpt lat="49.51593012548983" lon="9.201538050547242">
<ele>428.8</ele>
<time>2024-05-08T15:27:03Z</time>
</trkpt>
<trkpt lat="49.515941608697176" lon="9.201506534591315">
<ele>428.8</ele>
<time>2024-05-08T15:27:04Z</time>
</trkpt>
<trkpt lat="49.515960635617375" lon="9.201473174616694">
<ele>428.8</ele>
<time>2024-05-08T15:27:05Z</time>
</trkpt>
<trkpt lat="49.51597974635661" lon="9.201437886804342">
<ele>428.8</ele>
<time>2024-05-08T15:27:06Z</time>
</trkpt>
<trkpt lat="49.51599500142038" lon="9.20140452682972">
<ele>428.8</ele>
<time>2024-05-08T15:27:07Z</time>
</trkpt>
<trkpt lat="49.51601402834058" lon="9.201372088864446">
<ele>428.8</ele>
<time>2024-05-08T15:27:08Z</time>
</trkpt>
<trkpt lat="49.51603691093624" lon="9.201339650899172">
<ele>429</ele>
<time>2024-05-08T15:27:09Z</time>
</trkpt>
<trkpt lat="49.516059793531895" lon="9.20130821876228">
<ele>429</ele>
<time>2024-05-08T15:27:10Z</time>
</trkpt>
<trkpt lat="49.51608653180301" lon="9.201276702806354">
<ele>429.2</ele>
<time>2024-05-08T15:27:11Z</time>
</trkpt>
<trkpt lat="49.51611327007413" lon="9.20124812051654">
<ele>429.4</ele>
<time>2024-05-08T15:27:12Z</time>
</trkpt>
<trkpt lat="49.516139924526215" lon="9.201219538226724">
<ele>429.4</ele>
<time>2024-05-08T15:27:13Z</time>
</trkpt>
<trkpt lat="49.51616280712187" lon="9.201192799955606">
<ele>429.4</ele>
<time>2024-05-08T15:27:14Z</time>
</trkpt>
<trkpt lat="49.51619331724942" lon="9.20116513967514">
<ele>429.4</ele>
<time>2024-05-08T15:27:15Z</time>
</trkpt>
<trkpt lat="49.516220055520535" lon="9.201134629547596">
<ele>429.4</ele>
<time>2024-05-08T15:27:16Z</time>
</trkpt>
<trkpt lat="49.51625056564808" lon="9.201101269572971">
<ele>429.4</ele>
<time>2024-05-08T15:27:17Z</time>
</trkpt>
<trkpt lat="49.51628493145108" lon="9.201069753617048">
<ele>429.4</ele>
<time>2024-05-08T15:27:18Z</time>
</trkpt>
<trkpt lat="49.51631158590317" lon="9.201040249317884">
<ele>429.6</ele>
<time>2024-05-08T15:27:19Z</time>
</trkpt>
<trkpt lat="49.51634595170617" lon="9.201013511046767">
<ele>429.6</ele>
<time>2024-05-08T15:27:20Z</time>
</trkpt>
<trkpt lat="49.516376461833715" lon="9.20098870061338">
<ele>429.6</ele>
<time>2024-05-08T15:27:21Z</time>
</trkpt>
<trkpt lat="49.51640697196126" lon="9.200962046161294">
<ele>429.6</ele>
<time>2024-05-08T15:27:22Z</time>
</trkpt>
<trkpt lat="49.51644510962069" lon="9.200940085574985">
<ele>429.8</ele>
<time>2024-05-08T15:27:23Z</time>
</trkpt>
<trkpt lat="49.516479475423694" lon="9.200916280969976">
<ele>429.8</ele>
<time>2024-05-08T15:27:24Z</time>
</trkpt>
<trkpt lat="49.516513757407665" lon="9.200895242393017">
<ele>429.8</ele>
<time>2024-05-08T15:27:25Z</time>
</trkpt>
<trkpt lat="49.51654812321067" lon="9.20087143778801">
<ele>429.8</ele>
<time>2024-05-08T15:27:26Z</time>
</trkpt>
<trkpt lat="49.51658248901367" lon="9.20085140503943">
<ele>430</ele>
<time>2024-05-08T15:27:27Z</time>
</trkpt>
<trkpt lat="49.51661677099764" lon="9.20083330012858">
<ele>430</ele>
<time>2024-05-08T15:27:28Z</time>
</trkpt>
<trkpt lat="49.516654908657074" lon="9.200818045064809">
<ele>430</ele>
<time>2024-05-08T15:27:29Z</time>
</trkpt>
<trkpt lat="49.516693046316504" lon="9.200803712010384">
<ele>430</ele>
<time>2024-05-08T15:27:30Z</time>
</trkpt>
<trkpt lat="49.516731183975935" lon="9.200786529108882">
<ele>430</ele>
<time>2024-05-08T15:27:31Z</time>
</trkpt>
<trkpt lat="49.516773177310824" lon="9.200775129720569">
<ele>430</ele>
<time>2024-05-08T15:27:32Z</time>
</trkpt>
<trkpt lat="49.516811314970255" lon="9.200766496360302">
<ele>430</ele>
<time>2024-05-08T15:27:33Z</time>
</trkpt>
<trkpt lat="49.516849452629685" lon="9.200761718675494">
<ele>430</ele>
<time>2024-05-08T15:27:34Z</time>
</trkpt>
<trkpt lat="49.51688759028912" lon="9.200757946819069">
<ele>430</ele>
<time>2024-05-08T15:27:35Z</time>
</trkpt>
<trkpt lat="49.516929583624005" lon="9.200755096971989">
<ele>430</ele>
<time>2024-05-08T15:27:36Z</time>
</trkpt>
<trkpt lat="49.516971576958895" lon="9.200755096971989">
<ele>430.2</ele>
<time>2024-05-08T15:27:37Z</time>
</trkpt>
<trkpt lat="49.517009714618325" lon="9.20075316913426">
<ele>430.2</ele>
<time>2024-05-08T15:27:38Z</time>
</trkpt>
<trkpt lat="49.51705162413418" lon="9.200755096971989">
<ele>430.2</ele>
<time>2024-05-08T15:27:39Z</time>
</trkpt>
<trkpt lat="49.51708976179361" lon="9.200759874656796">
<ele>430.4</ele>
<time>2024-05-08T15:27:40Z</time>
</trkpt>
<trkpt lat="49.51712798327208" lon="9.200768424198031">
<ele>430.4</ele>
<time>2024-05-08T15:27:41Z</time>
</trkpt>
<trkpt lat="49.517166120931506" lon="9.200776973739266">
<ele>430.4</ele>
<time>2024-05-08T15:27:42Z</time>
</trkpt>
<trkpt lat="49.51720040291548" lon="9.200784601271152">
<ele>430.4</ele>
<time>2024-05-08T15:27:43Z</time>
</trkpt>
<trkpt lat="49.51723476871848" lon="9.200797006487846">
<ele>430.4</ele>
<time>2024-05-08T15:27:44Z</time>
</trkpt>
<trkpt lat="49.51727290637791" lon="9.200806561857462">
<ele>430.4</ele>
<time>2024-05-08T15:27:45Z</time>
</trkpt>
<trkpt lat="49.517307272180915" lon="9.200815195217729">
<ele>430.6</ele>
<time>2024-05-08T15:27:46Z</time>
</trkpt>
<trkpt lat="49.51734155416489" lon="9.20083137229085">
<ele>430.8</ele>
<time>2024-05-08T15:27:47Z</time>
</trkpt>
<trkpt lat="49.51737969182432" lon="9.2008494772017">
<ele>431</ele>
<time>2024-05-08T15:27:48Z</time>
</trkpt>
<trkpt lat="49.517421685159206" lon="9.20086950995028">
<ele>431.2</ele>
<time>2024-05-08T15:27:49Z</time>
</trkpt>
<trkpt lat="49.51745982281864" lon="9.20089147053659">
<ele>431.2</ele>
<time>2024-05-08T15:27:50Z</time>
</trkpt>
<trkpt lat="49.517501816153526" lon="9.200915275141597">
<ele>431.4</ele>
<time>2024-05-08T15:27:51Z</time>
</trkpt>
<trkpt lat="49.51753995381296" lon="9.200935307890177">
<ele>431.4</ele>
<time>2024-05-08T15:27:52Z</time>
</trkpt>
<trkpt lat="49.51757809147239" lon="9.200956262648106">
<ele>431.2</ele>
<time>2024-05-08T15:27:53Z</time>
</trkpt>
<trkpt lat="49.51761622913182" lon="9.200975373387337">
<ele>431</ele>
<time>2024-05-08T15:27:54Z</time>
</trkpt>
<trkpt lat="49.51765822246671" lon="9.200991550460458">
<ele>431</ele>
<time>2024-05-08T15:27:55Z</time>
</trkpt>
<trkpt lat="49.51769250445068" lon="9.20100873336196">
<ele>431.2</ele>
<time>2024-05-08T15:27:56Z</time>
</trkpt>
<trkpt lat="49.51773064211011" lon="9.20102784410119">
<ele>431.4</ele>
<time>2024-05-08T15:27:57Z</time>
</trkpt>
<trkpt lat="49.51776877976954" lon="9.2010498046875">
<ele>431.6</ele>
<time>2024-05-08T15:27:58Z</time>
</trkpt>
<trkpt lat="49.517807001248" lon="9.201073609292507">
<ele>431.8</ele>
<time>2024-05-08T15:27:59Z</time>
</trkpt>
<trkpt lat="49.51784513890743" lon="9.201098419725897">
<ele>432</ele>
<time>2024-05-08T15:28:00Z</time>
</trkpt>
<trkpt lat="49.51788327656686" lon="9.201121302321551">
<ele>432.2</ele>
<time>2024-05-08T15:28:01Z</time>
</trkpt>
<trkpt lat="49.517921414226294" lon="9.201141335070131">
<ele>432.4</ele>
<time>2024-05-08T15:28:02Z</time>
</trkpt>
<trkpt lat="49.51795955188573" lon="9.201158517971637">
<ele>432.6</ele>
<time>2024-05-08T15:28:03Z</time>
</trkpt>
<trkpt lat="49.51799391768873" lon="9.201176622882484">
<ele>432.8</ele>
<time>2024-05-08T15:28:04Z</time>
</trkpt>
<trkpt lat="49.51803205534816" lon="9.201194727793336">
<ele>432.8</ele>
<time>2024-05-08T15:28:05Z</time>
</trkpt>
<trkpt lat="49.51807019300759" lon="9.201211910694838">
<ele>433</ele>
<time>2024-05-08T15:28:06Z</time>
</trkpt>
<trkpt lat="49.518112102523446" lon="9.20122808776796">
<ele>433</ele>
<time>2024-05-08T15:28:07Z</time>
</trkpt>
<trkpt lat="49.51815032400191" lon="9.201250048354268">
<ele>433</ele>
<time>2024-05-08T15:28:08Z</time>
</trkpt>
<trkpt lat="49.51818846166134" lon="9.201272930949926">
<ele>433.2</ele>
<time>2024-05-08T15:28:09Z</time>
</trkpt>
<trkpt lat="49.51822659932077" lon="9.201294891536236">
<ele>433.2</ele>
<time>2024-05-08T15:28:10Z</time>
</trkpt>
<trkpt lat="49.51826850883663" lon="9.201316768303514">
<ele>433.2</ele>
<time>2024-05-08T15:28:11Z</time>
</trkpt>
<trkpt lat="49.51830673031509" lon="9.201334873214364">
<ele>433.2</ele>
<time>2024-05-08T15:28:12Z</time>
</trkpt>
<trkpt lat="49.51834486797452" lon="9.201356833800672">
<ele>433.4</ele>
<time>2024-05-08T15:28:13Z</time>
</trkpt>
<trkpt lat="49.51838677749038" lon="9.201374938711524">
<ele>433.4</ele>
<time>2024-05-08T15:28:14Z</time>
</trkpt>
<trkpt lat="49.51842877082527" lon="9.201391199603677">
<ele>433.4</ele>
<time>2024-05-08T15:28:15Z</time>
</trkpt>
<trkpt lat="49.5184669084847" lon="9.201411232352257">
<ele>433.6</ele>
<time>2024-05-08T15:28:16Z</time>
</trkpt>
<trkpt lat="49.51850504614413" lon="9.201435036957264">
<ele>433.6</ele>
<time>2024-05-08T15:28:17Z</time>
</trkpt>
<trkpt lat="49.51854703947902" lon="9.201456997543572">
<ele>433.8</ele>
<time>2024-05-08T15:28:18Z</time>
</trkpt>
<trkpt lat="49.51858517713845" lon="9.201475102454424">
<ele>433.8</ele>
<time>2024-05-08T15:28:19Z</time>
</trkpt>
<trkpt lat="49.51862331479788" lon="9.201495135203004">
<ele>434</ele>
<time>2024-05-08T15:28:20Z</time>
</trkpt>
<trkpt lat="49.51866145245731" lon="9.201515167951584">
<ele>434.2</ele>
<time>2024-05-08T15:28:21Z</time>
</trkpt>
<trkpt lat="49.5187034457922" lon="9.201537128537892">
<ele>434.4</ele>
<time>2024-05-08T15:28:22Z</time>
</trkpt>
<trkpt lat="49.51874158345163" lon="9.201556155458093">
<ele>434.4</ele>
<time>2024-05-08T15:28:23Z</time>
</trkpt>
<trkpt lat="49.51877972111106" lon="9.201576188206673">
<ele>434.6</ele>
<time>2024-05-08T15:28:24Z</time>
</trkpt>
<trkpt lat="49.51882171444595" lon="9.201598148792982">
<ele>434.6</ele>
<time>2024-05-08T15:28:25Z</time>
</trkpt>
<trkpt lat="49.51885985210538" lon="9.201618181541562">
<ele>434.8</ele>
<time>2024-05-08T15:28:26Z</time>
</trkpt>
<trkpt lat="49.51890176162124" lon="9.201638214290142">
<ele>434.8</ele>
<time>2024-05-08T15:28:27Z</time>
</trkpt>
<trkpt lat="49.51893989928067" lon="9.201658247038722">
<ele>435</ele>
<time>2024-05-08T15:28:28Z</time>
</trkpt>
<trkpt lat="49.5189780369401" lon="9.201676351949573">
<ele>435.2</ele>
<time>2024-05-08T15:28:29Z</time>
</trkpt>
<trkpt lat="49.51901625841856" lon="9.201695378869772">
<ele>435.4</ele>
<time>2024-05-08T15:28:30Z</time>
</trkpt>
<trkpt lat="49.51905816793442" lon="9.201713483780622">
<ele>435.4</ele>
<time>2024-05-08T15:28:31Z</time>
</trkpt>
<trkpt lat="49.51909630559385" lon="9.201731672510505">
<ele>435.6</ele>
<time>2024-05-08T15:28:32Z</time>
</trkpt>
<trkpt lat="49.51913444325328" lon="9.201751705259085">
<ele>435.8</ele>
<time>2024-05-08T15:28:33Z</time>
</trkpt>
<trkpt lat="49.51916880905628" lon="9.201769810169935">
<ele>435.8</ele>
<time>2024-05-08T15:28:34Z</time>
</trkpt>
<trkpt lat="49.51920694671571" lon="9.201786993071437">
<ele>435.8</ele>
<time>2024-05-08T15:28:35Z</time>
</trkpt>
<trkpt lat="49.51924131251872" lon="9.201805097982287">
<ele>435.8</ele>
<time>2024-05-08T15:28:36Z</time>
</trkpt>
<trkpt lat="49.51927559450269" lon="9.201825130730867">
<ele>436</ele>
<time>2024-05-08T15:28:37Z</time>
</trkpt>
<trkpt lat="49.51930996030569" lon="9.201843235641718">
<ele>436</ele>
<time>2024-05-08T15:28:38Z</time>
</trkpt>
<trkpt lat="49.519340470433235" lon="9.20185849070549">
<ele>436</ele>
<time>2024-05-08T15:28:39Z</time>
</trkpt>
<trkpt lat="49.51937098056078" lon="9.201873745769262">
<ele>436</ele>
<time>2024-05-08T15:28:40Z</time>
</trkpt>
<trkpt lat="49.51940534636378" lon="9.201885145157576">
<ele>436.2</ele>
<time>2024-05-08T15:28:41Z</time>
</trkpt>
<trkpt lat="49.51943585649133" lon="9.20189662836492">
<ele>436.2</ele>
<time>2024-05-08T15:28:42Z</time>
</trkpt>
<trkpt lat="49.51946251094341" lon="9.201909955590963">
<ele>436.2</ele>
<time>2024-05-08T15:28:43Z</time>
</trkpt>
<trkpt lat="49.51948539353907" lon="9.201921438798308">
<ele>436.2</ele>
<time>2024-05-08T15:28:44Z</time>
</trkpt>
<trkpt lat="49.51951598748565" lon="9.20193669386208">
<ele>436.2</ele>
<time>2024-05-08T15:28:45Z</time>
</trkpt>
<trkpt lat="49.51954264193773" lon="9.201950021088123">
<ele>436.2</ele>
<time>2024-05-08T15:28:46Z</time>
</trkpt>
<trkpt lat="49.51956938020885" lon="9.201966281980276">
<ele>436.2</ele>
<time>2024-05-08T15:28:47Z</time>
</trkpt>
<trkpt lat="49.519596034660935" lon="9.201981537044048">
<ele>436.2</ele>
<time>2024-05-08T15:28:48Z</time>
</trkpt>
<trkpt lat="49.51962277293205" lon="9.201998636126518">
<ele>436.2</ele>
<time>2024-05-08T15:28:49Z</time>
</trkpt>
<trkpt lat="49.5196532830596" lon="9.2020168248564">
<ele>436.2</ele>
<time>2024-05-08T15:28:50Z</time>
</trkpt>
<trkpt lat="49.51968379318714" lon="9.202028224244714">
<ele>436.2</ele>
<time>2024-05-08T15:28:51Z</time>
</trkpt>
<trkpt lat="49.519718158990145" lon="9.20203685760498">
<ele>436.2</ele>
<time>2024-05-08T15:28:52Z</time>
</trkpt>
<trkpt lat="49.51975244097411" lon="9.202043479308486">
<ele>436.2</ele>
<time>2024-05-08T15:28:53Z</time>
</trkpt>
<trkpt lat="49.51979057863355" lon="9.202048256993294">
<ele>436.2</ele>
<time>2024-05-08T15:28:54Z</time>
</trkpt>
<trkpt lat="49.51982494443655" lon="9.202052112668753">
<ele>436.2</ele>
<time>2024-05-08T15:28:55Z</time>
</trkpt>
<trkpt lat="49.51986308209598" lon="9.202054962515833">
<ele>436.2</ele>
<time>2024-05-08T15:28:56Z</time>
</trkpt>
<trkpt lat="49.51990121975541" lon="9.202058734372258">
<ele>436.2</ele>
<time>2024-05-08T15:28:57Z</time>
</trkpt>
<trkpt lat="49.51993935741484" lon="9.202061584219337">
<ele>436.4</ele>
<time>2024-05-08T15:28:58Z</time>
</trkpt>
<trkpt lat="49.51998135074973" lon="9.202061584219337">
<ele>436.4</ele>
<time>2024-05-08T15:28:59Z</time>
</trkpt>
<trkpt lat="49.52001948840916" lon="9.202061584219337">
<ele>436.6</ele>
<time>2024-05-08T15:29:00Z</time>
</trkpt>
<trkpt lat="49.52005762606859" lon="9.202063512057066">
<ele>436.6</ele>
<time>2024-05-08T15:29:01Z</time>
</trkpt>
<trkpt lat="49.52009576372802" lon="9.202065439894795">
<ele>436.8</ele>
<time>2024-05-08T15:29:02Z</time>
</trkpt>
<trkpt lat="49.52013390138745" lon="9.202066361904144">
<ele>436.8</ele>
<time>2024-05-08T15:29:03Z</time>
</trkpt>
<trkpt lat="49.52017203904688" lon="9.202063512057066">
<ele>436.8</ele>
<time>2024-05-08T15:29:04Z</time>
</trkpt>
<trkpt lat="49.520210260525346" lon="9.202066361904144">
<ele>437</ele>
<time>2024-05-08T15:29:05Z</time>
</trkpt>
<trkpt lat="49.5202521700412" lon="9.202068289741874">
<ele>437</ele>
<time>2024-05-08T15:29:06Z</time>
</trkpt>
<trkpt lat="49.52028653584421" lon="9.202068289741874">
<ele>437</ele>
<time>2024-05-08T15:29:07Z</time>
</trkpt>
<trkpt lat="49.520328445360065" lon="9.202070217579603">
<ele>437</ele>
<time>2024-05-08T15:29:08Z</time>
</trkpt>
<trkpt lat="49.52036666683853" lon="9.202074995264413">
<ele>437</ele>
<time>2024-05-08T15:29:09Z</time>
</trkpt>
<trkpt lat="49.52040480449796" lon="9.202074995264413">
<ele>437</ele>
<time>2024-05-08T15:29:10Z</time>
</trkpt>
<trkpt lat="49.52044294215739" lon="9.202074995264413">
<ele>437.2</ele>
<time>2024-05-08T15:29:11Z</time>
</trkpt>
<trkpt lat="49.52048107981682" lon="9.202073067426682">
<ele>437.4</ele>
<time>2024-05-08T15:29:12Z</time>
</trkpt>
<trkpt lat="49.52052298933267" lon="9.2020720615983">
<ele>437.4</ele>
<time>2024-05-08T15:29:13Z</time>
</trkpt>
<trkpt lat="49.520564982667565" lon="9.202073067426682">
<ele>437.6</ele>
<time>2024-05-08T15:29:14Z</time>
</trkpt>
<trkpt lat="49.52061074785888" lon="9.202074995264413">
<ele>437.6</ele>
<time>2024-05-08T15:29:15Z</time>
</trkpt>
<trkpt lat="49.52065274119377" lon="9.202076839283109">
<ele>437.8</ele>
<time>2024-05-08T15:29:16Z</time>
</trkpt>
<trkpt lat="49.52069465070963" lon="9.202076839283109">
<ele>437.8</ele>
<time>2024-05-08T15:29:17Z</time>
</trkpt>
<trkpt lat="49.52073664404452" lon="9.202076839283109">
<ele>438</ele>
<time>2024-05-08T15:29:18Z</time>
</trkpt>
<trkpt lat="49.520782409235835" lon="9.202076839283109">
<ele>438</ele>
<time>2024-05-08T15:29:19Z</time>
</trkpt>
<trkpt lat="49.52082817442715" lon="9.20207784511149">
<ele>438</ele>
<time>2024-05-08T15:29:20Z</time>
</trkpt>
<trkpt lat="49.52087016776204" lon="9.20207977294922">
<ele>438.2</ele>
<time>2024-05-08T15:29:21Z</time>
</trkpt>
<trkpt lat="49.52091593295336" lon="9.202081616967916">
<ele>438.2</ele>
<time>2024-05-08T15:29:22Z</time>
</trkpt>
<trkpt lat="49.520961698144674" lon="9.202083544805646">
<ele>438.2</ele>
<time>2024-05-08T15:29:23Z</time>
</trkpt>
<trkpt lat="49.520999835804105" lon="9.202083544805646">
<ele>438.2</ele>
<time>2024-05-08T15:29:24Z</time>
</trkpt>
<trkpt lat="49.521037973463535" lon="9.202081616967916">
<ele>438.2</ele>
<time>2024-05-08T15:29:25Z</time>
</trkpt>
<trkpt lat="49.521076194942" lon="9.20207977294922">
<ele>438.4</ele>
<time>2024-05-08T15:29:26Z</time>
</trkpt>
<trkpt lat="49.521118104457855" lon="9.20207977294922">
<ele>438.4</ele>
<time>2024-05-08T15:29:27Z</time>
</trkpt>
<trkpt lat="49.52116386964917" lon="9.20207977294922">
<ele>438.4</ele>
<time>2024-05-08T15:29:28Z</time>
</trkpt>
<trkpt lat="49.52120586298406" lon="9.20207977294922">
<ele>438.4</ele>
<time>2024-05-08T15:29:29Z</time>
</trkpt>
<trkpt lat="49.52124785631895" lon="9.20207977294922">
<ele>438.4</ele>
<time>2024-05-08T15:29:30Z</time>
</trkpt>
<trkpt lat="49.52128599397838" lon="9.20207784511149">
<ele>438.4</ele>
<time>2024-05-08T15:29:31Z</time>
</trkpt>
<trkpt lat="49.52132790349424" lon="9.202076839283109">
<ele>438.4</ele>
<time>2024-05-08T15:29:32Z</time>
</trkpt>
<trkpt lat="49.52136604115367" lon="9.202074995264413">
<ele>438.4</ele>
<time>2024-05-08T15:29:33Z</time>
</trkpt>
<trkpt lat="49.52140803448856" lon="9.202076839283109">
<ele>438.4</ele>
<time>2024-05-08T15:29:34Z</time>
</trkpt>
<trkpt lat="49.52145002782345" lon="9.20207784511149">
<ele>438.6</ele>
<time>2024-05-08T15:29:35Z</time>
</trkpt>
<trkpt lat="49.521495793014765" lon="9.202081616967916">
<ele>438.6</ele>
<time>2024-05-08T15:29:36Z</time>
</trkpt>
<trkpt lat="49.52154155820608" lon="9.202083544805646">
<ele>438.8</ele>
<time>2024-05-08T15:29:37Z</time>
</trkpt>
<trkpt lat="49.5215873233974" lon="9.202083544805646">
<ele>438.8</ele>
<time>2024-05-08T15:29:38Z</time>
</trkpt>
<trkpt lat="49.52162931673229" lon="9.20207977294922">
<ele>439</ele>
<time>2024-05-08T15:29:39Z</time>
</trkpt>
<trkpt lat="49.5216750819236" lon="9.202076839283109">
<ele>439</ele>
<time>2024-05-08T15:29:40Z</time>
</trkpt>
<trkpt lat="49.521709363907576" lon="9.202074995264413">
<ele>439</ele>
<time>2024-05-08T15:29:41Z</time>
</trkpt>
<trkpt lat="49.52174758538604" lon="9.202076839283109">
<ele>439.2</ele>
<time>2024-05-08T15:29:42Z</time>
</trkpt>
<trkpt lat="49.521789494901896" lon="9.202073067426682">
<ele>439.2</ele>
<time>2024-05-08T15:29:43Z</time>
</trkpt>
<trkpt lat="49.521831488236785" lon="9.202073067426682">
<ele>439.4</ele>
<time>2024-05-08T15:29:44Z</time>
</trkpt>
<trkpt lat="49.52187339775264" lon="9.202074995264413">
<ele>439.6</ele>
<time>2024-05-08T15:29:45Z</time>
</trkpt>
<trkpt lat="49.52191924676299" lon="9.202074995264413">
<ele>439.6</ele>
<time>2024-05-08T15:29:46Z</time>
</trkpt>
<trkpt lat="49.52196501195431" lon="9.202074995264413">
<ele>439.8</ele>
<time>2024-05-08T15:29:47Z</time>
</trkpt>
<trkpt lat="49.522006921470165" lon="9.202073067426682">
<ele>439.8</ele>
<time>2024-05-08T15:29:48Z</time>
</trkpt>
<trkpt lat="49.522048914805055" lon="9.2020720615983">
<ele>440</ele>
<time>2024-05-08T15:29:49Z</time>
</trkpt>
<trkpt lat="49.522087052464485" lon="9.2020720615983">
<ele>440</ele>
<time>2024-05-08T15:29:50Z</time>
</trkpt>
<trkpt lat="49.52212519012392" lon="9.202074995264413">
<ele>440</ele>
<time>2024-05-08T15:29:51Z</time>
</trkpt>
<trkpt lat="49.522163327783346" lon="9.202074995264413">
<ele>440.2</ele>
<time>2024-05-08T15:29:52Z</time>
</trkpt>
<trkpt lat="49.52220532111824" lon="9.202073067426682">
<ele>440.2</ele>
<time>2024-05-08T15:29:53Z</time>
</trkpt>
<trkpt lat="49.52226634137333" lon="9.202076839283109">
<ele>440.2</ele>
<time>2024-05-08T15:29:54Z</time>
</trkpt>
<trkpt lat="49.5223159622401" lon="9.20207784511149">
<ele>440.2</ele>
<time>2024-05-08T15:29:55Z</time>
</trkpt>
<trkpt lat="49.52236172743142" lon="9.20207784511149">
<ele>440.2</ele>
<time>2024-05-08T15:29:56Z</time>
</trkpt>
<trkpt lat="49.52240749262273" lon="9.20207977294922">
<ele>440.2</ele>
<time>2024-05-08T15:29:57Z</time>
</trkpt>
<trkpt lat="49.52245325781405" lon="9.202083544805646">
<ele>440.4</ele>
<time>2024-05-08T15:29:58Z</time>
</trkpt>
<trkpt lat="49.522499023005366" lon="9.202088322490454">
<ele>440.4</ele>
<time>2024-05-08T15:29:59Z</time>
</trkpt>
<trkpt lat="49.52254478819668" lon="9.202091172337532">
<ele>440.4</ele>
<time>2024-05-08T15:30:00Z</time>
</trkpt>
<trkpt lat="49.52259826473892" lon="9.202095028012993">
<ele>440.4</ele>
<time>2024-05-08T15:30:01Z</time>
</trkpt>
<trkpt lat="49.522640174254775" lon="9.202095028012993">
<ele>440.4</ele>
<time>2024-05-08T15:30:02Z</time>
</trkpt>
<trkpt lat="49.52268979512155" lon="9.20209787786007">
<ele>440.4</ele>
<time>2024-05-08T15:30:03Z</time>
</trkpt>
<trkpt lat="49.522739332169294" lon="9.20209787786007">
<ele>440.4</ele>
<time>2024-05-08T15:30:04Z</time>
</trkpt>
<trkpt lat="49.52278518117964" lon="9.202099721878769">
<ele>440.4</ele>
<time>2024-05-08T15:30:05Z</time>
</trkpt>
<trkpt lat="49.52283094637096" lon="9.202099721878769">
<ele>440.4</ele>
<time>2024-05-08T15:30:06Z</time>
</trkpt>
<trkpt lat="49.52287285588682" lon="9.202101649716496">
<ele>440.6</ele>
<time>2024-05-08T15:30:07Z</time>
</trkpt>
<trkpt lat="49.522914849221706" lon="9.202104499563577">
<ele>440.6</ele>
<time>2024-05-08T15:30:08Z</time>
</trkpt>
<trkpt lat="49.52295684255659" lon="9.202106427401304">
<ele>440.8</ele>
<time>2024-05-08T15:30:09Z</time>
</trkpt>
<trkpt lat="49.522994980216026" lon="9.202108355239034">
<ele>440.8</ele>
<time>2024-05-08T15:30:10Z</time>
</trkpt>
<trkpt lat="49.5230292622" lon="9.202106427401304">
<ele>441</ele>
<time>2024-05-08T15:30:11Z</time>
</trkpt>
<trkpt lat="49.523063628003" lon="9.202103577554226">
<ele>441</ele>
<time>2024-05-08T15:30:12Z</time>
</trkpt>
<trkpt lat="49.52309790998697" lon="9.202103577554226">
<ele>441</ele>
<time>2024-05-08T15:30:13Z</time>
</trkpt>
<trkpt lat="49.523132275789976" lon="9.202108355239034">
<ele>441.2</ele>
<time>2024-05-08T15:30:14Z</time>
</trkpt>
<trkpt lat="49.52316664159298" lon="9.20211497694254">
<ele>441.2</ele>
<time>2024-05-08T15:30:15Z</time>
</trkpt>
<trkpt lat="49.52320092357695" lon="9.202121682465076">
<ele>441.2</ele>
<time>2024-05-08T15:30:16Z</time>
</trkpt>
<trkpt lat="49.523235289379954" lon="9.202130315825343">
<ele>441.2</ele>
<time>2024-05-08T15:30:17Z</time>
</trkpt>
<trkpt lat="49.523273427039385" lon="9.202141715213656">
<ele>441.2</ele>
<time>2024-05-08T15:30:18Z</time>
</trkpt>
<trkpt lat="49.523311564698815" lon="9.202153198421">
<ele>441.2</ele>
<time>2024-05-08T15:30:19Z</time>
</trkpt>
<trkpt lat="49.52335732989013" lon="9.202166525647044">
<ele>441.4</ele>
<time>2024-05-08T15:30:20Z</time>
</trkpt>
<trkpt lat="49.523391695693135" lon="9.202179852873089">
<ele>441.4</ele>
<time>2024-05-08T15:30:21Z</time>
</trkpt>
<trkpt lat="49.52342597767711" lon="9.202197035774589">
<ele>441.4</ele>
<time>2024-05-08T15:30:22Z</time>
</trkpt>
<trkpt lat="49.52346419915557" lon="9.202219918370249">
<ele>441.4</ele>
<time>2024-05-08T15:30:23Z</time>
</trkpt>
<trkpt lat="49.523502336815" lon="9.202239951118829">
<ele>441.6</ele>
<time>2024-05-08T15:30:24Z</time>
</trkpt>
<trkpt lat="49.52354047447443" lon="9.202258056029676">
<ele>441.8</ele>
<time>2024-05-08T15:30:25Z</time>
</trkpt>
<trkpt lat="49.52358238399029" lon="9.202278088778256">
<ele>441.8</ele>
<time>2024-05-08T15:30:26Z</time>
</trkpt>
<trkpt lat="49.52362060546875" lon="9.202298121526836">
<ele>441.8</ele>
<time>2024-05-08T15:30:27Z</time>
</trkpt>
<trkpt lat="49.52365488745272" lon="9.202316226437688">
<ele>442</ele>
<time>2024-05-08T15:30:28Z</time>
</trkpt>
<trkpt lat="49.52370065264404" lon="9.20235151425004">
<ele>442</ele>
<time>2024-05-08T15:30:29Z</time>
</trkpt>
<trkpt lat="49.523746417835355" lon="9.202382024377584">
<ele>442</ele>
<time>2024-05-08T15:30:30Z</time>
</trkpt>
<trkpt lat="49.52379989437759" lon="9.202415384352207">
<ele>442.2</ele>
<time>2024-05-08T15:30:31Z</time>
</trkpt>
<trkpt lat="49.52384943142533" lon="9.20244975015521">
<ele>442.2</ele>
<time>2024-05-08T15:30:32Z</time>
</trkpt>
<trkpt lat="49.52389905229211" lon="9.202481266111135">
<ele>442.4</ele>
<time>2024-05-08T15:30:33Z</time>
</trkpt>
<trkpt lat="49.52395621687174" lon="9.202513620257378">
<ele>442.4</ele>
<time>2024-05-08T15:30:34Z</time>
</trkpt>
<trkpt lat="49.5240134652704" lon="9.202543208375571">
<ele>442.4</ele>
<time>2024-05-08T15:30:35Z</time>
</trkpt>
<trkpt lat="49.5240668579936" lon="9.202574724331498">
<ele>442.6</ele>
<time>2024-05-08T15:30:36Z</time>
</trkpt>
<trkpt lat="49.52412787824869" lon="9.202614706009626">
<ele>442.6</ele>
<time>2024-05-08T15:30:37Z</time>
</trkpt>
<trkpt lat="49.52418512664735" lon="9.202646221965551">
<ele>442.6</ele>
<time>2024-05-08T15:30:38Z</time>
</trkpt>
<trkpt lat="49.52423851937056" lon="9.202674804255366">
<ele>442.6</ele>
<time>2024-05-08T15:30:39Z</time>
</trkpt>
<trkpt lat="49.52428814023733" lon="9.202701542526484">
<ele>442.8</ele>
<time>2024-05-08T15:30:40Z</time>
</trkpt>
<trkpt lat="49.52433776110411" lon="9.202730124816298">
<ele>443</ele>
<time>2024-05-08T15:30:41Z</time>
</trkpt>
<trkpt lat="49.52438729815185" lon="9.202761640772223">
<ele>443</ele>
<time>2024-05-08T15:30:42Z</time>
</trkpt>
<trkpt lat="49.524436919018626" lon="9.202791145071387">
<ele>443.2</ele>
<time>2024-05-08T15:30:43Z</time>
</trkpt>
<trkpt lat="49.5244865398854" lon="9.202817883342505">
<ele>443.4</ele>
<time>2024-05-08T15:30:44Z</time>
</trkpt>
<trkpt lat="49.524536076933146" lon="9.202841687947512">
<ele>443.4</ele>
<time>2024-05-08T15:30:45Z</time>
</trkpt>
<trkpt lat="49.52458184212446" lon="9.202868426218629">
<ele>443.6</ele>
<time>2024-05-08T15:30:46Z</time>
</trkpt>
<trkpt lat="49.52462383545935" lon="9.202897008508444">
<ele>443.6</ele>
<time>2024-05-08T15:30:47Z</time>
</trkpt>
<trkpt lat="49.52466960065067" lon="9.20292466878891">
<ele>443.6</ele>
<time>2024-05-08T15:30:48Z</time>
</trkpt>
<trkpt lat="49.52471159398556" lon="9.202953334897757">
<ele>443.8</ele>
<time>2024-05-08T15:30:49Z</time>
</trkpt>
<trkpt lat="49.524757359176874" lon="9.202981917187572">
<ele>443.8</ele>
<time>2024-05-08T15:30:50Z</time>
</trkpt>
<trkpt lat="49.52479926869273" lon="9.20300672762096">
<ele>443.8</ele>
<time>2024-05-08T15:30:51Z</time>
</trkpt>
<trkpt lat="49.52484511770308" lon="9.203029610216618">
<ele>443.8</ele>
<time>2024-05-08T15:30:52Z</time>
</trkpt>
<trkpt lat="49.52488702721894" lon="9.203055342659354">
<ele>443.8</ele>
<time>2024-05-08T15:30:53Z</time>
</trkpt>
<trkpt lat="49.524932792410254" lon="9.203080153092742">
<ele>443.8</ele>
<time>2024-05-08T15:30:54Z</time>
</trkpt>
<trkpt lat="49.52497855760157" lon="9.20310496352613">
<ele>444</ele>
<time>2024-05-08T15:30:55Z</time>
</trkpt>
<trkpt lat="49.52502055093646" lon="9.203126840293407">
<ele>444</ele>
<time>2024-05-08T15:30:56Z</time>
</trkpt>
<trkpt lat="49.52506254427135" lon="9.203149722889066">
<ele>444</ele>
<time>2024-05-08T15:30:57Z</time>
</trkpt>
<trkpt lat="49.52510830946267" lon="9.203173611313105">
<ele>444.2</ele>
<time>2024-05-08T15:30:58Z</time>
</trkpt>
<trkpt lat="49.52515021897853" lon="9.203196493908765">
<ele>444.2</ele>
<time>2024-05-08T15:30:59Z</time>
</trkpt>
<trkpt lat="49.525192212313414" lon="9.203223148360848">
<ele>444.4</ele>
<time>2024-05-08T15:31:00Z</time>
</trkpt>
<trkpt lat="49.52523797750473" lon="9.203249886631966">
<ele>444.4</ele>
<time>2024-05-08T15:31:01Z</time>
</trkpt>
<trkpt lat="49.52527997083962" lon="9.203276624903085">
<ele>444.6</ele>
<time>2024-05-08T15:31:02Z</time>
</trkpt>
<trkpt lat="49.52532188035548" lon="9.20330042950809">
<ele>444.6</ele>
<time>2024-05-08T15:31:03Z</time>
</trkpt>
<trkpt lat="49.525367729365826" lon="9.203323312103748">
<ele>444.6</ele>
<time>2024-05-08T15:31:04Z</time>
</trkpt>
<trkpt lat="49.52540963888168" lon="9.203350050374866">
<ele>444.6</ele>
<time>2024-05-08T15:31:05Z</time>
</trkpt>
<trkpt lat="49.52545163221657" lon="9.203376704826953">
<ele>444.8</ele>
<time>2024-05-08T15:31:06Z</time>
</trkpt>
<trkpt lat="49.52549739740789" lon="9.20340151526034">
<ele>444.8</ele>
<time>2024-05-08T15:31:07Z</time>
</trkpt>
<trkpt lat="49.525543162599206" lon="9.203428253531456">
<ele>444.8</ele>
<time>2024-05-08T15:31:08Z</time>
</trkpt>
<trkpt lat="49.525585155934095" lon="9.203452058136463">
<ele>444.8</ele>
<time>2024-05-08T15:31:09Z</time>
</trkpt>
<trkpt lat="49.52562706544995" lon="9.203473012894392">
<ele>444.8</ele>
<time>2024-05-08T15:31:10Z</time>
</trkpt>
<trkpt lat="49.52566905878484" lon="9.203496901318433">
<ele>445</ele>
<time>2024-05-08T15:31:11Z</time>
</trkpt>
<trkpt lat="49.52571105211973" lon="9.203523555770516">
<ele>445</ele>
<time>2024-05-08T15:31:12Z</time>
</trkpt>
<trkpt lat="49.52575296163559" lon="9.203548366203904">
<ele>445.2</ele>
<time>2024-05-08T15:31:13Z</time>
</trkpt>
<trkpt lat="49.52579495497048" lon="9.203573176637292">
<ele>445.4</ele>
<time>2024-05-08T15:31:14Z</time>
</trkpt>
<trkpt lat="49.52583309262991" lon="9.20359991490841">
<ele>445.4</ele>
<time>2024-05-08T15:31:15Z</time>
</trkpt>
<trkpt lat="49.5258750859648" lon="9.203623719513416">
<ele>445.6</ele>
<time>2024-05-08T15:31:16Z</time>
</trkpt>
<trkpt lat="49.52591322362423" lon="9.203643752261996">
<ele>445.8</ele>
<time>2024-05-08T15:31:17Z</time>
</trkpt>
<trkpt lat="49.52595513314009" lon="9.203664707019923">
<ele>445.8</ele>
<time>2024-05-08T15:31:18Z</time>
</trkpt>
<trkpt lat="49.52599712647498" lon="9.203689517453313">
<ele>445.8</ele>
<time>2024-05-08T15:31:19Z</time>
</trkpt>
<trkpt lat="49.52603526413441" lon="9.203713405877352">
<ele>446</ele>
<time>2024-05-08T15:31:20Z</time>
</trkpt>
<trkpt lat="49.52606962993741" lon="9.203738132491708">
<ele>446</ele>
<time>2024-05-08T15:31:21Z</time>
</trkpt>
<trkpt lat="49.52610391192138" lon="9.203766798600554">
<ele>446</ele>
<time>2024-05-08T15:31:22Z</time>
</trkpt>
<trkpt lat="49.52614204958081" lon="9.20379345305264">
<ele>446</ele>
<time>2024-05-08T15:31:23Z</time>
</trkpt>
<trkpt lat="49.526176415383816" lon="9.203820191323755">
<ele>446</ele>
<time>2024-05-08T15:31:24Z</time>
</trkpt>
<trkpt lat="49.526214553043246" lon="9.203846929594874">
<ele>446</ele>
<time>2024-05-08T15:31:25Z</time>
</trkpt>
<trkpt lat="49.52624891884625" lon="9.20387358404696">
<ele>446.2</ele>
<time>2024-05-08T15:31:26Z</time>
</trkpt>
<trkpt lat="49.52628705650568" lon="9.203896466642618">
<ele>446.2</ele>
<time>2024-05-08T15:31:27Z</time>
</trkpt>
<trkpt lat="49.52632133848965" lon="9.203921277076006">
<ele>446.2</ele>
<time>2024-05-08T15:31:28Z</time>
</trkpt>
<trkpt lat="49.52636333182454" lon="9.203948015347123">
<ele>446.2</ele>
<time>2024-05-08T15:31:29Z</time>
</trkpt>
<trkpt lat="49.52640146948397" lon="9.20397181995213">
<ele>446.2</ele>
<time>2024-05-08T15:31:30Z</time>
</trkpt>
<trkpt lat="49.52644346281886" lon="9.203996630385518">
<ele>446.2</ele>
<time>2024-05-08T15:31:31Z</time>
</trkpt>
<trkpt lat="49.52648537233472" lon="9.204021440818906">
<ele>446.4</ele>
<time>2024-05-08T15:31:32Z</time>
</trkpt>
<trkpt lat="49.52652736566961" lon="9.204046167433262">
<ele>446.4</ele>
<time>2024-05-08T15:31:33Z</time>
</trkpt>
<trkpt lat="49.526573130860925" lon="9.204074833542109">
<ele>446.4</ele>
<time>2024-05-08T15:31:34Z</time>
</trkpt>
<trkpt lat="49.526615124195814" lon="9.204105343669651">
<ele>446.4</ele>
<time>2024-05-08T15:31:35Z</time>
</trkpt>
<trkpt lat="49.52666088938713" lon="9.204134931787848">
<ele>446.6</ele>
<time>2024-05-08T15:31:36Z</time>
</trkpt>
<trkpt lat="49.52670665457845" lon="9.204165441915393">
<ele>446.6</ele>
<time>2024-05-08T15:31:37Z</time>
</trkpt>
<trkpt lat="49.52674864791334" lon="9.20419310219586">
<ele>446.6</ele>
<time>2024-05-08T15:31:38Z</time>
</trkpt>
<trkpt lat="49.52679818496108" lon="9.204216906800866">
<ele>446.6</ele>
<time>2024-05-08T15:31:39Z</time>
</trkpt>
<trkpt lat="49.5268439501524" lon="9.204243645071983">
<ele>446.6</ele>
<time>2024-05-08T15:31:40Z</time>
</trkpt>
<trkpt lat="49.52689357101917" lon="9.204268455505373">
<ele>446.4</ele>
<time>2024-05-08T15:31:41Z</time>
</trkpt>
<trkpt lat="49.526946963742375" lon="9.20429133810103">
<ele>446.4</ele>
<time>2024-05-08T15:31:42Z</time>
</trkpt>
<trkpt lat="49.52699658460915" lon="9.204315142706037">
<ele>446.4</ele>
<time>2024-05-08T15:31:43Z</time>
</trkpt>
<trkpt lat="49.527046121656895" lon="9.204326625913382">
<ele>446.4</ele>
<time>2024-05-08T15:31:44Z</time>
</trkpt>
<trkpt lat="49.527088114991784" lon="9.204337103292346">
<ele>446.4</ele>
<time>2024-05-08T15:31:45Z</time>
</trkpt>
<trkpt lat="49.52713773585856" lon="9.20434657484293">
<ele>446.4</ele>
<time>2024-05-08T15:31:46Z</time>
</trkpt>
<trkpt lat="49.52717587351799" lon="9.204355208203197">
<ele>446.4</ele>
<time>2024-05-08T15:31:47Z</time>
</trkpt>
<trkpt lat="49.52721401117742" lon="9.204362835735084">
<ele>446.2</ele>
<time>2024-05-08T15:31:48Z</time>
</trkpt>
<trkpt lat="49.52725214883685" lon="9.204364763572812">
<ele>446.2</ele>
<time>2024-05-08T15:31:49Z</time>
</trkpt>
<trkpt lat="49.527286514639854" lon="9.204361913725734">
<ele>446</ele>
<time>2024-05-08T15:31:50Z</time>
</trkpt>
<trkpt lat="49.5273170247674" lon="9.204353280365469">
<ele>445.8</ele>
<time>2024-05-08T15:31:51Z</time>
</trkpt>
<trkpt lat="49.52735516242683" lon="9.204351352527738">
<ele>445.6</ele>
<time>2024-05-08T15:31:52Z</time>
</trkpt>
<trkpt lat="49.52739330008626" lon="9.204353280365469">
<ele>445.6</ele>
<time>2024-05-08T15:31:53Z</time>
</trkpt>
<trkpt lat="49.52743143774569" lon="9.204358058050277">
<ele>445.4</ele>
<time>2024-05-08T15:31:54Z</time>
</trkpt>
<trkpt lat="49.527481058612466" lon="9.204357136040926">
<ele>445.4</ele>
<time>2024-05-08T15:31:55Z</time>
</trkpt>
<trkpt lat="49.527519196271896" lon="9.204361913725734">
<ele>445.2</ele>
<time>2024-05-08T15:31:56Z</time>
</trkpt>
<trkpt lat="49.52755347825587" lon="9.20436954125762">
<ele>445.2</ele>
<time>2024-05-08T15:31:57Z</time>
</trkpt>
<trkpt lat="49.527580216526985" lon="9.204376162961124">
<ele>445.2</ele>
<time>2024-05-08T15:31:58Z</time>
</trkpt>
<trkpt lat="49.52761072665453" lon="9.204382868483664">
<ele>445.4</ele>
<time>2024-05-08T15:31:59Z</time>
</trkpt>
<trkpt lat="49.52764509245753" lon="9.204396195709704">
<ele>445.2</ele>
<time>2024-05-08T15:32:00Z</time>
</trkpt>
<trkpt lat="49.527679374441504" lon="9.2044086009264">
<ele>445.2</ele>
<time>2024-05-08T15:32:01Z</time>
</trkpt>
<trkpt lat="49.52770988456905" lon="9.20442670583725">
<ele>445</ele>
<time>2024-05-08T15:32:02Z</time>
</trkpt>
<trkpt lat="49.527736622840166" lon="9.204453444108369">
<ele>445</ele>
<time>2024-05-08T15:32:03Z</time>
</trkpt>
<trkpt lat="49.5277557335794" lon="9.204482026398182">
<ele>445</ele>
<time>2024-05-08T15:32:04Z</time>
</trkpt>
<trkpt lat="49.52777098864317" lon="9.204502059146762">
<ele>445</ele>
<time>2024-05-08T15:32:05Z</time>
</trkpt>
<trkpt lat="49.52779001556337" lon="9.204515386372805">
<ele>445</ele>
<time>2024-05-08T15:32:06Z</time>
</trkpt>
<trkpt lat="49.5278091263026" lon="9.20452686958015">
<ele>445</ele>
<time>2024-05-08T15:32:07Z</time>
</trkpt>
<trkpt lat="49.52783200889826" lon="9.20452494174242">
<ele>445</ele>
<time>2024-05-08T15:32:08Z</time>
</trkpt>
<trkpt lat="49.52785489149392" lon="9.204518236219885">
<ele>444.8</ele>
<time>2024-05-08T15:32:09Z</time>
</trkpt>
<trkpt lat="49.52787391841411" lon="9.204511614516376">
<ele>444.8</ele>
<time>2024-05-08T15:32:10Z</time>
</trkpt>
<trkpt lat="49.52789302915335" lon="9.20450683683157">
<ele>444.6</ele>
<time>2024-05-08T15:32:11Z</time>
</trkpt>
<trkpt lat="49.527919767424464" lon="9.204498287290336">
<ele>444.6</ele>
<time>2024-05-08T15:32:12Z</time>
</trkpt>
<trkpt lat="49.52794265002012" lon="9.20448873192072">
<ele>444.6</ele>
<time>2024-05-08T15:32:13Z</time>
</trkpt>
<trkpt lat="49.52796930447221" lon="9.204482026398182">
<ele>444.6</ele>
<time>2024-05-08T15:32:14Z</time>
</trkpt>
<trkpt lat="49.527992187067866" lon="9.204469621181488">
<ele>444.6</ele>
<time>2024-05-08T15:32:15Z</time>
</trkpt>
<trkpt lat="49.52801892533898" lon="9.204458221793177">
<ele>444.4</ele>
<time>2024-05-08T15:32:16Z</time>
</trkpt>
<trkpt lat="49.52804180793464" lon="9.20444866642356">
<ele>444.4</ele>
<time>2024-05-08T15:32:17Z</time>
</trkpt>
<trkpt lat="49.52806846238673" lon="9.204440116882324">
<ele>444.4</ele>
<time>2024-05-08T15:32:18Z</time>
</trkpt>
<trkpt lat="49.52809142880142" lon="9.204433411359789">
<ele>444.4</ele>
<time>2024-05-08T15:32:19Z</time>
</trkpt>
<trkpt lat="49.5281180832535" lon="9.204422933980824">
<ele>444.4</ele>
<time>2024-05-08T15:32:20Z</time>
</trkpt>
<trkpt lat="49.52814859338105" lon="9.204413378611209">
<ele>444.2</ele>
<time>2024-05-08T15:32:21Z</time>
</trkpt>
<trkpt lat="49.52817533165216" lon="9.204401895403862">
<ele>444.2</ele>
<time>2024-05-08T15:32:22Z</time>
</trkpt>
<trkpt lat="49.52820584177971" lon="9.20438856817782">
<ele>444.2</ele>
<time>2024-05-08T15:32:23Z</time>
</trkpt>
<trkpt lat="49.52823635190725" lon="9.204375240951777">
<ele>444.2</ele>
<time>2024-05-08T15:32:24Z</time>
</trkpt>
<trkpt lat="49.5282668620348" lon="9.204358058050277">
<ele>444.4</ele>
<time>2024-05-08T15:32:25Z</time>
</trkpt>
<trkpt lat="49.528289744630456" lon="9.204339953139424">
<ele>444.2</ele>
<time>2024-05-08T15:32:26Z</time>
</trkpt>
<trkpt lat="49.52832411043346" lon="9.204324698075652">
<ele>444.4</ele>
<time>2024-05-08T15:32:27Z</time>
</trkpt>
<trkpt lat="49.52835462056101" lon="9.204310365021229">
<ele>444.4</ele>
<time>2024-05-08T15:32:28Z</time>
</trkpt>
<trkpt lat="49.52838513068855" lon="9.20429133810103">
<ele>444.4</ele>
<time>2024-05-08T15:32:29Z</time>
</trkpt>
<trkpt lat="49.52841564081609" lon="9.204270299524069">
<ele>444.4</ele>
<time>2024-05-08T15:32:30Z</time>
</trkpt>
<trkpt lat="49.528450006619096" lon="9.204250266775489">
<ele>444.6</ele>
<time>2024-05-08T15:32:31Z</time>
</trkpt>
<trkpt lat="49.52848051674664" lon="9.204228390008211">
<ele>444.6</ele>
<time>2024-05-08T15:32:32Z</time>
</trkpt>
<trkpt lat="49.52851479873061" lon="9.204208357259631">
<ele>444.6</ele>
<time>2024-05-08T15:32:33Z</time>
</trkpt>
<trkpt lat="49.5285567920655" lon="9.20419025234878">
<ele>444.6</ele>
<time>2024-05-08T15:32:34Z</time>
</trkpt>
<trkpt lat="49.52859492972493" lon="9.20417306944728">
<ele>444.6</ele>
<time>2024-05-08T15:32:35Z</time>
</trkpt>
<trkpt lat="49.52863306738436" lon="9.2041530366987">
<ele>444.4</ele>
<time>2024-05-08T15:32:36Z</time>
</trkpt>
<trkpt lat="49.52867120504379" lon="9.20413300395012">
<ele>444.4</ele>
<time>2024-05-08T15:32:37Z</time>
</trkpt>
<trkpt lat="49.52870934270322" lon="9.20411204919219">
<ele>444.4</ele>
<time>2024-05-08T15:32:38Z</time>
</trkpt>
<trkpt lat="49.528747480362654" lon="9.20409293845296">
<ele>444.2</ele>
<time>2024-05-08T15:32:39Z</time>
</trkpt>
<trkpt lat="49.52878947369754" lon="9.20407198369503">
<ele>444.2</ele>
<time>2024-05-08T15:32:40Z</time>
</trkpt>
<trkpt lat="49.52883146703243" lon="9.2040528729558">
<ele>444</ele>
<time>2024-05-08T15:32:41Z</time>
</trkpt>
<trkpt lat="49.52887337654829" lon="9.20403284020722">
<ele>443.8</ele>
<time>2024-05-08T15:32:42Z</time>
</trkpt>
<trkpt lat="49.52891151420772" lon="9.20401280745864">
<ele>443.8</ele>
<time>2024-05-08T15:32:43Z</time>
</trkpt>
<trkpt lat="49.52895350754261" lon="9.203994702547789">
<ele>443.6</ele>
<time>2024-05-08T15:32:44Z</time>
</trkpt>
<trkpt lat="49.52899164520204" lon="9.203976597636938">
<ele>443.6</ele>
<time>2024-05-08T15:32:45Z</time>
</trkpt>
<trkpt lat="49.52902978286147" lon="9.203960336744784">
<ele>443.4</ele>
<time>2024-05-08T15:32:46Z</time>
</trkpt>
<trkpt lat="49.5290679205209" lon="9.203945081681011">
<ele>443.4</ele>
<time>2024-05-08T15:32:47Z</time>
</trkpt>
<trkpt lat="49.52910991385579" lon="9.203926976770164">
<ele>443.4</ele>
<time>2024-05-08T15:32:48Z</time>
</trkpt>
<trkpt lat="49.52915190719068" lon="9.20390979386866">
<ele>443.4</ele>
<time>2024-05-08T15:32:49Z</time>
</trkpt>
<trkpt lat="49.52919381670654" lon="9.20389361679554">
<ele>443.4</ele>
<time>2024-05-08T15:32:50Z</time>
</trkpt>
<trkpt lat="49.52923195436597" lon="9.203880289569495">
<ele>443.4</ele>
<time>2024-05-08T15:32:51Z</time>
</trkpt>
<trkpt lat="49.5292700920254" lon="9.203865034505723">
<ele>443.2</ele>
<time>2024-05-08T15:32:52Z</time>
</trkpt>
<trkpt lat="49.52930831350386" lon="9.203849779441953">
<ele>443.2</ele>
<time>2024-05-08T15:32:53Z</time>
</trkpt>
<trkpt lat="49.52935022301972" lon="9.2038335185498">
<ele>443.2</ele>
<time>2024-05-08T15:32:54Z</time>
</trkpt>
<trkpt lat="49.52938836067915" lon="9.203816335648298">
<ele>443.2</ele>
<time>2024-05-08T15:32:55Z</time>
</trkpt>
<trkpt lat="49.52942649833858" lon="9.203803008422256">
<ele>443.2</ele>
<time>2024-05-08T15:32:56Z</time>
</trkpt>
<trkpt lat="49.52946471981704" lon="9.203788675367832">
<ele>443.2</ele>
<time>2024-05-08T15:32:57Z</time>
</trkpt>
<trkpt lat="49.529499001801014" lon="9.20377342030406">
<ele>443.2</ele>
<time>2024-05-08T15:32:58Z</time>
</trkpt>
<trkpt lat="49.52953336760402" lon="9.203762020915748">
<ele>443.2</ele>
<time>2024-05-08T15:32:59Z</time>
</trkpt>
<trkpt lat="49.52957150526345" lon="9.203751543536782">
<ele>443.2</ele>
<time>2024-05-08T15:33:00Z</time>
</trkpt>
<trkpt lat="49.52960578724742" lon="9.203744838014243">
<ele>443</ele>
<time>2024-05-08T15:33:01Z</time>
</trkpt>
<trkpt lat="49.529636381193995" lon="9.20373528264463">
<ele>443</ele>
<time>2024-05-08T15:33:02Z</time>
</trkpt>
<trkpt lat="49.529655408114195" lon="9.203724805265663">
<ele>443</ele>
<time>2024-05-08T15:33:03Z</time>
</trkpt>
<trkpt lat="49.52967829070985" lon="9.20371818356216">
<ele>442.8</ele>
<time>2024-05-08T15:33:04Z</time>
</trkpt>
<trkpt lat="49.52970117330551" lon="9.203721955418589">
<ele>442.8</ele>
<time>2024-05-08T15:33:05Z</time>
</trkpt>
<trkpt lat="49.52971642836928" lon="9.203724805265663">
<ele>442.8</ele>
<time>2024-05-08T15:33:06Z</time>
</trkpt>
<trkpt lat="49.52972028404474" lon="9.203724805265663">
<ele>442.6</ele>
<time>2024-05-08T15:33:07Z</time>
</trkpt>
<trkpt lat="49.52972405590117" lon="9.203724805265663">
<ele>442.6</ele>
<time>2024-05-08T15:33:09Z</time>
</trkpt>
<trkpt lat="49.52972405590117" lon="9.203726733103396">
<ele>442.6</ele>
<time>2024-05-08T15:33:12Z</time>
</trkpt>
<trkpt lat="49.52972028404474" lon="9.203726733103396">
<ele>442.6</ele>
<time>2024-05-08T15:33:13Z</time>
</trkpt>
<trkpt lat="49.52972028404474" lon="9.203728660941124">
<ele>442.6</ele>
<time>2024-05-08T15:33:15Z</time>
</trkpt>
<trkpt lat="49.52972405590117" lon="9.203731510788202">
<ele>442.6</ele>
<time>2024-05-08T15:33:19Z</time>
</trkpt>
<trkpt lat="49.52972405590117" lon="9.20373528264463">
<ele>442.6</ele>
<time>2024-05-08T15:33:20Z</time>
</trkpt>
<trkpt lat="49.529731683433056" lon="9.203741988167168">
<ele>442.4</ele>
<time>2024-05-08T15:33:21Z</time>
</trkpt>
<trkpt lat="49.529735539108515" lon="9.203749615699053">
<ele>442.4</ele>
<time>2024-05-08T15:33:22Z</time>
</trkpt>
<trkpt lat="49.5297431666404" lon="9.203760093078015">
<ele>442.4</ele>
<time>2024-05-08T15:33:23Z</time>
</trkpt>
<trkpt lat="49.52976604923606" lon="9.203771576285362">
<ele>442.4</ele>
<time>2024-05-08T15:33:24Z</time>
</trkpt>
<trkpt lat="49.52980041503906" lon="9.203786831349134">
<ele>442.4</ele>
<time>2024-05-08T15:33:25Z</time>
</trkpt>
<trkpt lat="49.529834697023034" lon="9.203791609033942">
<ele>442.4</ele>
<time>2024-05-08T15:33:26Z</time>
</trkpt>
<trkpt lat="49.52986520715058" lon="9.203791609033942">
<ele>442.4</ele>
<time>2024-05-08T15:33:28Z</time>
</trkpt>
<trkpt lat="49.52992245554924" lon="9.20379638671875">
<ele>442.2</ele>
<time>2024-05-08T15:33:29Z</time>
</trkpt>
<trkpt lat="49.529952965676785" lon="9.20379638671875">
<ele>442</ele>
<time>2024-05-08T15:33:30Z</time>
</trkpt>
<trkpt lat="49.52998347580433" lon="9.203798230737448">
<ele>442</ele>
<time>2024-05-08T15:33:31Z</time>
</trkpt>
<trkpt lat="49.530010214075446" lon="9.203800158575175">
<ele>441.8</ele>
<time>2024-05-08T15:33:32Z</time>
</trkpt>
<trkpt lat="49.53003686852753" lon="9.20379538089037">
<ele>441.8</ele>
<time>2024-05-08T15:33:33Z</time>
</trkpt>
<trkpt lat="49.53006737865507" lon="9.203786831349134">
<ele>441.6</ele>
<time>2024-05-08T15:33:34Z</time>
</trkpt>
<trkpt lat="49.53010174445808" lon="9.20377635397017">
<ele>441.6</ele>
<time>2024-05-08T15:33:35Z</time>
</trkpt>
<trkpt lat="49.53013988211751" lon="9.203769648447633">
<ele>441.6</ele>
<time>2024-05-08T15:33:36Z</time>
</trkpt>
<trkpt lat="49.5301818754524" lon="9.203762020915748">
<ele>441.6</ele>
<time>2024-05-08T15:33:37Z</time>
</trkpt>
<trkpt lat="49.53021615743637" lon="9.203751543536782">
<ele>441.6</ele>
<time>2024-05-08T15:33:38Z</time>
</trkpt>
<trkpt lat="49.5302542950958" lon="9.203742910176516">
<ele>441.6</ele>
<time>2024-05-08T15:33:39Z</time>
</trkpt>
<trkpt lat="49.53029628843069" lon="9.203733438625932">
<ele>441.6</ele>
<time>2024-05-08T15:33:40Z</time>
</trkpt>
<trkpt lat="49.53033828176558" lon="9.203722877427936">
<ele>441.6</ele>
<time>2024-05-08T15:33:41Z</time>
</trkpt>
<trkpt lat="49.53038019128144" lon="9.203713405877352">
<ele>441.8</ele>
<time>2024-05-08T15:33:42Z</time>
</trkpt>
<trkpt lat="49.53041455708444" lon="9.203699994832276">
<ele>441.8</ele>
<time>2024-05-08T15:33:43Z</time>
</trkpt>
<trkpt lat="49.53045269474387" lon="9.203689517453313">
<ele>442</ele>
<time>2024-05-08T15:33:44Z</time>
</trkpt>
<trkpt lat="49.530487060546875" lon="9.203679962083696">
<ele>442</ele>
<time>2024-05-08T15:33:45Z</time>
</trkpt>
<trkpt lat="49.53052134253085" lon="9.203669484704731">
<ele>442.2</ele>
<time>2024-05-08T15:33:46Z</time>
</trkpt>
<trkpt lat="49.53055185265839" lon="9.203659929335116">
<ele>442.2</ele>
<time>2024-05-08T15:33:47Z</time>
</trkpt>
<trkpt lat="49.53057859092951" lon="9.203648529946804">
<ele>442.2</ele>
<time>2024-05-08T15:33:48Z</time>
</trkpt>
<trkpt lat="49.53060910105705" lon="9.203641824424269">
<ele>442.2</ele>
<time>2024-05-08T15:33:49Z</time>
</trkpt>
<trkpt lat="49.5306396111846" lon="9.20363520272076">
<ele>442.2</ele>
<time>2024-05-08T15:33:50Z</time>
</trkpt>
<trkpt lat="49.53067012131214" lon="9.203623719513416">
<ele>442.2</ele>
<time>2024-05-08T15:33:51Z</time>
</trkpt>
<trkpt lat="49.53069685958326" lon="9.203613242134452">
<ele>442.2</ele>
<time>2024-05-08T15:33:52Z</time>
</trkpt>
<trkpt lat="49.530723514035344" lon="9.203603686764836">
<ele>442.2</ele>
<time>2024-05-08T15:33:53Z</time>
</trkpt>
<trkpt lat="49.53075787983835" lon="9.203593209385872">
<ele>442.4</ele>
<time>2024-05-08T15:33:54Z</time>
</trkpt>
<trkpt lat="49.53078838996589" lon="9.203584659844635">
<ele>442.4</ele>
<time>2024-05-08T15:33:55Z</time>
</trkpt>
<trkpt lat="49.53082652762532" lon="9.20357510447502">
<ele>442.4</ele>
<time>2024-05-08T15:33:56Z</time>
</trkpt>
<trkpt lat="49.53086466528475" lon="9.203573176637292">
<ele>442.4</ele>
<time>2024-05-08T15:33:57Z</time>
</trkpt>
<trkpt lat="49.5308951754123" lon="9.203571248799562">
<ele>442.4</ele>
<time>2024-05-08T15:33:58Z</time>
</trkpt>
<trkpt lat="49.5309295412153" lon="9.203566471114756">
<ele>442.4</ele>
<time>2024-05-08T15:33:59Z</time>
</trkpt>
<trkpt lat="49.530960051342845" lon="9.203566471114756">
<ele>442.4</ele>
<time>2024-05-08T15:34:00Z</time>
</trkpt>
<trkpt lat="49.530998189002275" lon="9.20356177724898">
<ele>442.4</ele>
<time>2024-05-08T15:34:01Z</time>
</trkpt>
<trkpt lat="49.53102869912982" lon="9.20355984941125">
<ele>442.6</ele>
<time>2024-05-08T15:34:02Z</time>
</trkpt>
<trkpt lat="49.53106683678925" lon="9.20355792157352">
<ele>442.6</ele>
<time>2024-05-08T15:34:03Z</time>
</trkpt>
<trkpt lat="49.531097346916795" lon="9.20355984941125">
<ele>442.6</ele>
<time>2024-05-08T15:34:04Z</time>
</trkpt>
<trkpt lat="49.53112785704434" lon="9.20355984941125">
<ele>442.6</ele>
<time>2024-05-08T15:34:05Z</time>
</trkpt>
<trkpt lat="49.53115073964" lon="9.20355984941125">
<ele>442.8</ele>
<time>2024-05-08T15:34:06Z</time>
</trkpt>
<trkpt lat="49.53117370605469" lon="9.20355984941125">
<ele>442.8</ele>
<time>2024-05-08T15:34:07Z</time>
</trkpt>
<trkpt lat="49.53120036050677" lon="9.203563621267676">
<ele>442.8</ele>
<time>2024-05-08T15:34:08Z</time>
</trkpt>
<trkpt lat="49.53122324310243" lon="9.203568398952484">
<ele>442.8</ele>
<time>2024-05-08T15:34:09Z</time>
</trkpt>
<trkpt lat="49.53124998137355" lon="9.20357703231275">
<ele>442.8</ele>
<time>2024-05-08T15:34:10Z</time>
</trkpt>
<trkpt lat="49.53126900829375" lon="9.203590359538794">
<ele>442.8</ele>
<time>2024-05-08T15:34:11Z</time>
</trkpt>
<trkpt lat="49.53128811903298" lon="9.203608464449644">
<ele>442.8</ele>
<time>2024-05-08T15:34:12Z</time>
</trkpt>
<trkpt lat="49.53131100162864" lon="9.203630425035954">
<ele>442.8</ele>
<time>2024-05-08T15:34:13Z</time>
</trkpt>
<trkpt lat="49.53132625669241" lon="9.203653307631612">
<ele>442.8</ele>
<time>2024-05-08T15:34:14Z</time>
</trkpt>
<trkpt lat="49.53134151175618" lon="9.20367526821792">
<ele>442.8</ele>
<time>2024-05-08T15:34:15Z</time>
</trkpt>
<trkpt lat="49.53135299496353" lon="9.20369521714747">
<ele>442.8</ele>
<time>2024-05-08T15:34:16Z</time>
</trkpt>
<trkpt lat="49.53136439435184" lon="9.203711478039622">
<ele>442.8</ele>
<time>2024-05-08T15:34:17Z</time>
</trkpt>
<trkpt lat="49.53137964941561" lon="9.203726733103396">
<ele>442.8</ele>
<time>2024-05-08T15:34:18Z</time>
</trkpt>
<trkpt lat="49.53140253201127" lon="9.203741988167168">
<ele>442.8</ele>
<time>2024-05-08T15:34:19Z</time>
</trkpt>
<trkpt lat="49.53142541460693" lon="9.203753471374512">
<ele>442.8</ele>
<time>2024-05-08T15:34:20Z</time>
</trkpt>
<trkpt lat="49.531452152878046" lon="9.203760093078015">
<ele>442.8</ele>
<time>2024-05-08T15:34:21Z</time>
</trkpt>
<trkpt lat="49.53147880733013" lon="9.203764870762823">
<ele>442.8</ele>
<time>2024-05-08T15:34:22Z</time>
</trkpt>
<trkpt lat="49.53150554560125" lon="9.203771576285362">
<ele>442.8</ele>
<time>2024-05-08T15:34:23Z</time>
</trkpt>
<trkpt lat="49.531532283872366" lon="9.20377342030406">
<ele>442.8</ele>
<time>2024-05-08T15:34:24Z</time>
</trkpt>
<trkpt lat="49.53156279399991" lon="9.20377635397017">
<ele>442.6</ele>
<time>2024-05-08T15:34:25Z</time>
</trkpt>
<trkpt lat="49.531593304127455" lon="9.203778197988868">
<ele>442.6</ele>
<time>2024-05-08T15:34:26Z</time>
</trkpt>
<trkpt lat="49.53161995857954" lon="9.20377635397017">
<ele>442.4</ele>
<time>2024-05-08T15:34:27Z</time>
</trkpt>
<trkpt lat="49.5316428411752" lon="9.20377534814179">
<ele>442.4</ele>
<time>2024-05-08T15:34:28Z</time>
</trkpt>
<trkpt lat="49.53166957944632" lon="9.20377534814179">
<ele>442.2</ele>
<time>2024-05-08T15:34:29Z</time>
</trkpt>
<trkpt lat="49.53168869018555" lon="9.203782975673676">
<ele>442.2</ele>
<time>2024-05-08T15:34:30Z</time>
</trkpt>
<trkpt lat="49.531707717105746" lon="9.20379345305264">
<ele>442.2</ele>
<time>2024-05-08T15:34:31Z</time>
</trkpt>
<trkpt lat="49.53171920031309" lon="9.203803008422256">
<ele>442</ele>
<time>2024-05-08T15:34:32Z</time>
</trkpt>
<trkpt lat="49.53172682784498" lon="9.203809713944793">
<ele>442</ele>
<time>2024-05-08T15:34:33Z</time>
</trkpt>
<trkpt lat="49.53173445537686" lon="9.203816335648298">
<ele>442</ele>
<time>2024-05-08T15:34:35Z</time>
</trkpt>
<trkpt lat="49.53174208290875" lon="9.203824969008563">
<ele>441.8</ele>
<time>2024-05-08T15:34:36Z</time>
</trkpt>
<trkpt lat="49.53174585476518" lon="9.203826896846294">
<ele>441.8</ele>
<time>2024-05-08T15:34:37Z</time>
</trkpt>
<trkpt lat="49.53174971044064" lon="9.203828740864992">
<ele>441.8</ele>
<time>2024-05-08T15:34:38Z</time>
</trkpt>
<trkpt lat="49.53175348229706" lon="9.203829746693373">
<ele>441.8</ele>
<time>2024-05-08T15:34:41Z</time>
</trkpt>
<trkpt lat="49.53175348229706" lon="9.20383159071207">
<ele>441.8</ele>
<time>2024-05-08T15:34:43Z</time>
</trkpt>
<trkpt lat="49.53175348229706" lon="9.203829746693373">
<ele>441.8</ele>
<time>2024-05-08T15:34:49Z</time>
</trkpt>
<trkpt lat="49.53175348229706" lon="9.20383159071207">
<ele>441.8</ele>
<time>2024-05-08T15:34:52Z</time>
</trkpt>
<trkpt lat="49.53175348229706" lon="9.2038335185498">
<ele>441.8</ele>
<time>2024-05-08T15:34:57Z</time>
</trkpt>
<trkpt lat="49.53175348229706" lon="9.20383452437818">
<ele>441.8</ele>
<time>2024-05-08T15:35:06Z</time>
</trkpt>
<trkpt lat="49.53175348229706" lon="9.2038335185498">
<ele>441.8</ele>
<time>2024-05-08T15:35:07Z</time>
</trkpt>
<trkpt lat="49.53175348229706" lon="9.203836368396878">
<ele>441.8</ele>
<time>2024-05-08T15:35:08Z</time>
</trkpt>
<trkpt lat="49.53175348229706" lon="9.203838296234608">
<ele>441.8</ele>
<time>2024-05-08T15:35:13Z</time>
</trkpt>
<trkpt lat="49.53175733797252" lon="9.203840224072335">
<ele>441.8</ele>
<time>2024-05-08T15:35:14Z</time>
</trkpt>
<trkpt lat="49.53176110982895" lon="9.203845001757143">
<ele>441.8</ele>
<time>2024-05-08T15:35:15Z</time>
</trkpt>
<trkpt lat="49.531768737360835" lon="9.20385162346065">
<ele>441.8</ele>
<time>2024-05-08T15:35:16Z</time>
</trkpt>
<trkpt lat="49.53177636489272" lon="9.20385455712676">
<ele>441.8</ele>
<time>2024-05-08T15:35:17Z</time>
</trkpt>
<trkpt lat="49.53178399242461" lon="9.203861178830266">
<ele>441.8</ele>
<time>2024-05-08T15:35:18Z</time>
</trkpt>
<trkpt lat="49.53179547563195" lon="9.203876433894038">
<ele>441.8</ele>
<time>2024-05-08T15:35:19Z</time>
</trkpt>
<trkpt lat="49.531806875020266" lon="9.203894538804889">
<ele>441.8</ele>
<time>2024-05-08T15:35:20Z</time>
</trkpt>
<trkpt lat="49.5318259857595" lon="9.203920355066655">
<ele>441.8</ele>
<time>2024-05-08T15:35:21Z</time>
</trkpt>
<trkpt lat="49.531845012679696" lon="9.20395371504128">
<ele>441.8</ele>
<time>2024-05-08T15:35:22Z</time>
</trkpt>
<trkpt lat="49.53186412341893" lon="9.203985147178171">
<ele>441.8</ele>
<time>2024-05-08T15:35:23Z</time>
</trkpt>
<trkpt lat="49.531887006014585" lon="9.204018590971828">
<ele>441.8</ele>
<time>2024-05-08T15:35:24Z</time>
</trkpt>
<trkpt lat="49.53190988861024" lon="9.20405002310872">
<ele>441.8</ele>
<time>2024-05-08T15:35:25Z</time>
</trkpt>
<trkpt lat="49.5319327712059" lon="9.204081455245614">
<ele>441.6</ele>
<time>2024-05-08T15:35:26Z</time>
</trkpt>
<trkpt lat="49.53195950947702" lon="9.204114899039268">
<ele>441.6</ele>
<time>2024-05-08T15:35:27Z</time>
</trkpt>
<trkpt lat="49.531986163929105" lon="9.204148259013891">
<ele>441.6</ele>
<time>2024-05-08T15:35:28Z</time>
</trkpt>
<trkpt lat="49.53201290220022" lon="9.204179691150784">
<ele>441.6</ele>
<time>2024-05-08T15:35:29Z</time>
</trkpt>
<trkpt lat="49.53203578479588" lon="9.20421313494444">
<ele>441.6</ele>
<time>2024-05-08T15:35:30Z</time>
</trkpt>
<trkpt lat="49.532062523067" lon="9.204244567081332">
<ele>441.4</ele>
<time>2024-05-08T15:35:31Z</time>
</trkpt>
<trkpt lat="49.53208917751908" lon="9.204277005046606">
<ele>441.4</ele>
<time>2024-05-08T15:35:32Z</time>
</trkpt>
<trkpt lat="49.5321159157902" lon="9.204310365021229">
<ele>441.6</ele>
<time>2024-05-08T15:35:33Z</time>
</trkpt>
<trkpt lat="49.532142570242286" lon="9.204343724995852">
<ele>441.6</ele>
<time>2024-05-08T15:35:34Z</time>
</trkpt>
<trkpt lat="49.53218070790171" lon="9.20438664034009">
<ele>441.6</ele>
<time>2024-05-08T15:35:35Z</time>
</trkpt>
<trkpt lat="49.53221130184829" lon="9.204421928152442">
<ele>441.6</ele>
<time>2024-05-08T15:35:36Z</time>
</trkpt>
<trkpt lat="49.53223795630038" lon="9.204458221793177">
<ele>441.6</ele>
<time>2024-05-08T15:35:37Z</time>
</trkpt>
<trkpt lat="49.53227232210338" lon="9.204496359452603">
<ele>441.6</ele>
<time>2024-05-08T15:35:38Z</time>
</trkpt>
<trkpt lat="49.53230660408735" lon="9.204536424949763">
<ele>441.6</ele>
<time>2024-05-08T15:35:39Z</time>
</trkpt>
<trkpt lat="49.53233334235847" lon="9.204574562609196">
<ele>441.4</ele>
<time>2024-05-08T15:35:40Z</time>
</trkpt>
<trkpt lat="49.53235622495413" lon="9.204613622277977">
<ele>441.4</ele>
<time>2024-05-08T15:35:41Z</time>
</trkpt>
<trkpt lat="49.532382963225245" lon="9.204656537622212">
<ele>441.2</ele>
<time>2024-05-08T15:35:42Z</time>
</trkpt>
<trkpt lat="49.53240961767733" lon="9.204700458794832">
<ele>441.2</ele>
<time>2024-05-08T15:35:43Z</time>
</trkpt>
<trkpt lat="49.53243250027299" lon="9.20474337413907">
<ele>441</ele>
<time>2024-05-08T15:35:44Z</time>
</trkpt>
<trkpt lat="49.53245161101222" lon="9.20478343963623">
<ele>440.8</ele>
<time>2024-05-08T15:35:45Z</time>
</trkpt>
<trkpt lat="49.53247449360788" lon="9.204825349152088">
<ele>440.6</ele>
<time>2024-05-08T15:35:46Z</time>
</trkpt>
<trkpt lat="49.53249352052808" lon="9.204866336658595">
<ele>440.4</ele>
<time>2024-05-08T15:35:47Z</time>
</trkpt>
<trkpt lat="49.53250877559185" lon="9.204908329993486">
<ele>440.4</ele>
<time>2024-05-08T15:35:48Z</time>
</trkpt>
<trkpt lat="49.53252788633108" lon="9.204944539815187">
<ele>440.2</ele>
<time>2024-05-08T15:35:49Z</time>
</trkpt>
<trkpt lat="49.532543141394854" lon="9.204983683303">
<ele>440.2</ele>
<time>2024-05-08T15:35:50Z</time>
</trkpt>
<trkpt lat="49.532558396458626" lon="9.2050198931247">
<ele>440.4</ele>
<time>2024-05-08T15:35:51Z</time>
</trkpt>
<trkpt lat="49.5325736515224" lon="9.20505710877478">
<ele>440.4</ele>
<time>2024-05-08T15:35:52Z</time>
</trkpt>
<trkpt lat="49.53258890658617" lon="9.205091474577785">
<ele>440.4</ele>
<time>2024-05-08T15:35:53Z</time>
</trkpt>
<trkpt lat="49.532600389793515" lon="9.205128606408834">
<ele>440.4</ele>
<time>2024-05-08T15:35:54Z</time>
</trkpt>
<trkpt lat="49.53261178918183" lon="9.205166744068263">
<ele>440.6</ele>
<time>2024-05-08T15:35:55Z</time>
</trkpt>
<trkpt lat="49.5326270442456" lon="9.205203037708998">
<ele>440.6</ele>
<time>2024-05-08T15:35:56Z</time>
</trkpt>
<trkpt lat="49.532638527452946" lon="9.205240169540048">
<ele>440.4</ele>
<time>2024-05-08T15:35:57Z</time>
</trkpt>
<trkpt lat="49.53265378251672" lon="9.205280235037208">
<ele>440.4</ele>
<time>2024-05-08T15:35:58Z</time>
</trkpt>
<trkpt lat="49.53266903758049" lon="9.205320300534368">
<ele>440.2</ele>
<time>2024-05-08T15:35:59Z</time>
</trkpt>
<trkpt lat="49.53268429264426" lon="9.205365143716335">
<ele>440.2</ele>
<time>2024-05-08T15:36:00Z</time>
</trkpt>
<trkpt lat="49.532699547708035" lon="9.205401353538036">
<ele>440</ele>
<time>2024-05-08T15:36:01Z</time>
</trkpt>
<trkpt lat="49.53271480277181" lon="9.20543286949396">
<ele>440</ele>
<time>2024-05-08T15:36:02Z</time>
</trkpt>
<trkpt lat="49.53272628597915" lon="9.205459523946049">
<ele>440</ele>
<time>2024-05-08T15:36:03Z</time>
</trkpt>
<trkpt lat="49.53274154104293" lon="9.2054929677397">
<ele>439.8</ele>
<time>2024-05-08T15:36:04Z</time>
</trkpt>
<trkpt lat="49.53274916857481" lon="9.205523477867246">
<ele>439.8</ele>
<time>2024-05-08T15:36:05Z</time>
</trkpt>
<trkpt lat="49.532756796106696" lon="9.20555298216641">
<ele>439.8</ele>
<time>2024-05-08T15:36:06Z</time>
</trkpt>
<trkpt lat="49.53276056796312" lon="9.205579720437528">
<ele>439.6</ele>
<time>2024-05-08T15:36:07Z</time>
</trkpt>
<trkpt lat="49.53276056796312" lon="9.205606458708644">
<ele>439.6</ele>
<time>2024-05-08T15:36:08Z</time>
</trkpt>
<trkpt lat="49.53276056796312" lon="9.205631185323">
<ele>439.6</ele>
<time>2024-05-08T15:36:09Z</time>
</trkpt>
<trkpt lat="49.53276056796312" lon="9.20565314590931">
<ele>439.6</ele>
<time>2024-05-08T15:36:10Z</time>
</trkpt>
<trkpt lat="49.53276056796312" lon="9.20567317865789">
<ele>439.6</ele>
<time>2024-05-08T15:36:11Z</time>
</trkpt>
<trkpt lat="49.53276442363858" lon="9.205690361559393">
<ele>439.4</ele>
<time>2024-05-08T15:36:12Z</time>
</trkpt>
<trkpt lat="49.53276442363858" lon="9.205706538632512">
<ele>439.2</ele>
<time>2024-05-08T15:36:13Z</time>
</trkpt>
<trkpt lat="49.53276056796312" lon="9.205726571381092">
<ele>439.2</ele>
<time>2024-05-08T15:36:14Z</time>
</trkpt>
<trkpt lat="49.53276442363858" lon="9.205759931355717">
<ele>439</ele>
<time>2024-05-08T15:36:15Z</time>
</trkpt>
<trkpt lat="49.53276819549501" lon="9.205795219168069">
<ele>439</ele>
<time>2024-05-08T15:36:16Z</time>
</trkpt>
<trkpt lat="49.532779678702354" lon="9.20582958497107">
<ele>438.8</ele>
<time>2024-05-08T15:36:17Z</time>
</trkpt>
<trkpt lat="49.53279107809067" lon="9.205862022936344">
<ele>438.8</ele>
<time>2024-05-08T15:36:18Z</time>
</trkpt>
<trkpt lat="49.53280633315444" lon="9.20588968321681">
<ele>438.8</ele>
<time>2024-05-08T15:36:19Z</time>
</trkpt>
<trkpt lat="49.53282158821821" lon="9.20590971596539">
<ele>438.6</ele>
<time>2024-05-08T15:36:20Z</time>
</trkpt>
<trkpt lat="49.53283307142556" lon="9.205918265506623">
<ele>438.6</ele>
<time>2024-05-08T15:36:21Z</time>
</trkpt>
<trkpt lat="49.53284832648933" lon="9.205924971029162">
<ele>438.6</ele>
<time>2024-05-08T15:36:22Z</time>
</trkpt>
<trkpt lat="49.53285972587764" lon="9.20592874288559">
<ele>438.4</ele>
<time>2024-05-08T15:36:23Z</time>
</trkpt>
<trkpt lat="49.532874980941415" lon="9.20592974871397">
<ele>438.4</ele>
<time>2024-05-08T15:36:24Z</time>
</trkpt>
<trkpt lat="49.53288646414876" lon="9.205934442579746">
<ele>438.2</ele>
<time>2024-05-08T15:36:25Z</time>
</trkpt>
<trkpt lat="49.53290171921253" lon="9.205940226092936">
<ele>438</ele>
<time>2024-05-08T15:36:26Z</time>
</trkpt>
<trkpt lat="49.53292082995176" lon="9.205945003777742">
<ele>437.8</ele>
<time>2024-05-08T15:36:27Z</time>
</trkpt>
<trkpt lat="49.53293985687196" lon="9.205951625481248">
<ele>437.8</ele>
<time>2024-05-08T15:36:28Z</time>
</trkpt>
<trkpt lat="49.53296273946762" lon="9.205960258841516">
<ele>437.6</ele>
<time>2024-05-08T15:36:29Z</time>
</trkpt>
<trkpt lat="49.53297799453139" lon="9.205951625481248">
<ele>437.4</ele>
<time>2024-05-08T15:36:30Z</time>
</trkpt>
<trkpt lat="49.532997105270624" lon="9.205958331003783">
<ele>437.4</ele>
<time>2024-05-08T15:36:31Z</time>
</trkpt>
<trkpt lat="49.53301998786628" lon="9.205961180850863">
<ele>437.4</ele>
<time>2024-05-08T15:36:32Z</time>
</trkpt>
<trkpt lat="49.533035242930055" lon="9.20596688054502">
<ele>437.4</ele>
<time>2024-05-08T15:36:33Z</time>
</trkpt>
<trkpt lat="49.53305812552571" lon="9.205973586067556">
<ele>437.2</ele>
<time>2024-05-08T15:36:34Z</time>
</trkpt>
<trkpt lat="49.53308486379683" lon="9.205978363752363">
<ele>437.2</ele>
<time>2024-05-08T15:36:36Z</time>
</trkpt>
<trkpt lat="49.533134400844574" lon="9.205996468663216">
<ele>437.2</ele>
<time>2024-05-08T15:36:37Z</time>
</trkpt>
<trkpt lat="49.53315728344023" lon="9.20600795187056">
<ele>437</ele>
<time>2024-05-08T15:36:38Z</time>
</trkpt>
<trkpt lat="49.53317639417946" lon="9.206020273268225">
<ele>437</ele>
<time>2024-05-08T15:36:39Z</time>
</trkpt>
<trkpt lat="49.53319542109966" lon="9.206029828637838">
<ele>437</ele>
<time>2024-05-08T15:36:40Z</time>
</trkpt>
<trkpt lat="49.53321830369532" lon="9.206036534160376">
<ele>437.2</ele>
<time>2024-05-08T15:36:41Z</time>
</trkpt>
<trkpt lat="49.53324127011001" lon="9.206043239682913">
<ele>437.2</ele>
<time>2024-05-08T15:36:42Z</time>
</trkpt>
<trkpt lat="49.53326029703021" lon="9.206053717061875">
<ele>437.4</ele>
<time>2024-05-08T15:36:43Z</time>
</trkpt>
<trkpt lat="49.53327940776944" lon="9.20606511645019">
<ele>437.4</ele>
<time>2024-05-08T15:36:44Z</time>
</trkpt>
<trkpt lat="49.53329843468964" lon="9.206080371513965">
<ele>437.4</ele>
<time>2024-05-08T15:36:45Z</time>
</trkpt>
<trkpt lat="49.5333213172853" lon="9.206094704568386">
<ele>437.4</ele>
<time>2024-05-08T15:36:46Z</time>
</trkpt>
<trkpt lat="49.53334042802453" lon="9.206109959632158">
<ele>437.4</ele>
<time>2024-05-08T15:36:47Z</time>
</trkpt>
<trkpt lat="49.533367082476616" lon="9.20612521469593">
<ele>437.4</ele>
<time>2024-05-08T15:36:48Z</time>
</trkpt>
<trkpt lat="49.533389965072274" lon="9.206139547750354">
<ele>437.4</ele>
<time>2024-05-08T15:36:49Z</time>
</trkpt>
<trkpt lat="49.53341293148696" lon="9.206151952967048">
<ele>437.4</ele>
<time>2024-05-08T15:36:50Z</time>
</trkpt>
<trkpt lat="49.53343581408262" lon="9.206158574670551">
<ele>437.4</ele>
<time>2024-05-08T15:36:51Z</time>
</trkpt>
<trkpt lat="49.533447213470936" lon="9.20616335235536">
<ele>437.4</ele>
<time>2024-05-08T15:36:52Z</time>
</trkpt>
<trkpt lat="49.53345484100282" lon="9.20616620220244">
<ele>437.4</ele>
<time>2024-05-08T15:36:53Z</time>
</trkpt>
<trkpt lat="49.53346632421017" lon="9.20616528019309">
<ele>437.4</ele>
<time>2024-05-08T15:36:54Z</time>
</trkpt>
<trkpt lat="49.53347395174205" lon="9.20616528019309">
<ele>437.4</ele>
<time>2024-05-08T15:36:55Z</time>
</trkpt>
<trkpt lat="49.53349297866225" lon="9.20616528019309">
<ele>437.4</ele>
<time>2024-05-08T15:36:56Z</time>
</trkpt>
<trkpt lat="49.533508233726025" lon="9.206161424517632">
<ele>437.4</ele>
<time>2024-05-08T15:36:57Z</time>
</trkpt>
<trkpt lat="49.5335234887898" lon="9.206151952967048">
<ele>437.4</ele>
<time>2024-05-08T15:36:58Z</time>
</trkpt>
<trkpt lat="49.53353874385357" lon="9.20614524744451">
<ele>437.4</ele>
<time>2024-05-08T15:36:59Z</time>
</trkpt>
<trkpt lat="49.5335578545928" lon="9.206136697903275">
<ele>437.2</ele>
<time>2024-05-08T15:37:00Z</time>
</trkpt>
<trkpt lat="49.53357310965657" lon="9.206121442839503">
<ele>437.2</ele>
<time>2024-05-08T15:37:01Z</time>
</trkpt>
<trkpt lat="49.5335922203958" lon="9.206109959632158">
<ele>437</ele>
<time>2024-05-08T15:37:02Z</time>
</trkpt>
<trkpt lat="49.533607475459576" lon="9.206091854721308">
<ele>437</ele>
<time>2024-05-08T15:37:03Z</time>
</trkpt>
<trkpt lat="49.53362273052335" lon="9.206074671819806">
<ele>436.8</ele>
<time>2024-05-08T15:37:04Z</time>
</trkpt>
<trkpt lat="49.53364175744355" lon="9.206061344593763">
<ele>436.8</ele>
<time>2024-05-08T15:37:05Z</time>
</trkpt>
<trkpt lat="49.53366086818278" lon="9.206051789224148">
<ele>436.6</ele>
<time>2024-05-08T15:37:06Z</time>
</trkpt>
<trkpt lat="49.53368375077844" lon="9.206041311845183">
<ele>436.6</ele>
<time>2024-05-08T15:37:07Z</time>
</trkpt>
<trkpt lat="49.53370277769864" lon="9.206034606322646">
<ele>436.4</ele>
<time>2024-05-08T15:37:08Z</time>
</trkpt>
<trkpt lat="49.53371803276241" lon="9.206029828637838">
<ele>436.4</ele>
<time>2024-05-08T15:37:09Z</time>
</trkpt>
<trkpt lat="49.53372951596975" lon="9.20602697879076">
<ele>436.4</ele>
<time>2024-05-08T15:37:10Z</time>
</trkpt>
<trkpt lat="49.53373714350164" lon="9.206020273268225">
<ele>436.2</ele>
<time>2024-05-08T15:37:11Z</time>
</trkpt>
<trkpt lat="49.53375239856541" lon="9.206036534160376">
<ele>436.2</ele>
<time>2024-05-08T15:37:12Z</time>
</trkpt>
<trkpt lat="49.533767653629184" lon="9.206051789224148">
<ele>436.2</ele>
<time>2024-05-08T15:37:13Z</time>
</trkpt>
<trkpt lat="49.53378290869296" lon="9.206067966297269">
<ele>436.2</ele>
<time>2024-05-08T15:37:14Z</time>
</trkpt>
<trkpt lat="49.53379816375673" lon="9.20608514919877">
<ele>436.2</ele>
<time>2024-05-08T15:37:15Z</time>
</trkpt>
<trkpt lat="49.5338134188205" lon="9.206101410090923">
<ele>436.2</ele>
<time>2024-05-08T15:37:16Z</time>
</trkpt>
<trkpt lat="49.53382867388427" lon="9.206118509173391">
<ele>436</ele>
<time>2024-05-08T15:37:17Z</time>
</trkpt>
<trkpt lat="49.53384015709162" lon="9.20612613670528">
<ele>435.8</ele>
<time>2024-05-08T15:37:18Z</time>
</trkpt>
<trkpt lat="49.53385541215539" lon="9.206131920218468">
<ele>435.8</ele>
<time>2024-05-08T15:37:19Z</time>
</trkpt>
<trkpt lat="49.53386303968728" lon="9.206134770065546">
<ele>435.8</ele>
<time>2024-05-08T15:37:20Z</time>
</trkpt>
<trkpt lat="49.5338668115437" lon="9.206139547750354">
<ele>435.6</ele>
<time>2024-05-08T15:37:21Z</time>
</trkpt>
<trkpt lat="49.5338668115437" lon="9.206141391769052">
<ele>435.6</ele>
<time>2024-05-08T15:37:23Z</time>
</trkpt>
<trkpt lat="49.5338668115437" lon="9.20614524744451">
<ele>435.6</ele>
<time>2024-05-08T15:37:24Z</time>
</trkpt>
<trkpt lat="49.5338668115437" lon="9.20614616945386">
<ele>435.6</ele>
<time>2024-05-08T15:37:25Z</time>
</trkpt>
<trkpt lat="49.53387066721916" lon="9.206148097291589">
<ele>435.4</ele>
<time>2024-05-08T15:37:26Z</time>
</trkpt>
<trkpt lat="49.53387066721916" lon="9.206150025129318">
<ele>435.4</ele>
<time>2024-05-08T15:37:27Z</time>
</trkpt>
<trkpt lat="49.53387443907559" lon="9.206151952967048">
<ele>435.2</ele>
<time>2024-05-08T15:37:28Z</time>
</trkpt>
<trkpt lat="49.53387829475105" lon="9.206152874976397">
<ele>435.2</ele>
<time>2024-05-08T15:37:29Z</time>
</trkpt>
<trkpt lat="49.53387829475105" lon="9.206154802814126">
<ele>435</ele>
<time>2024-05-08T15:37:30Z</time>
</trkpt>
<trkpt lat="49.53387829475105" lon="9.206156730651855">
<ele>435</ele>
<time>2024-05-08T15:37:32Z</time>
</trkpt>
<trkpt lat="49.533882066607475" lon="9.206158574670551">
<ele>434.8</ele>
<time>2024-05-08T15:37:33Z</time>
</trkpt>
<trkpt lat="49.533885922282934" lon="9.206159580498934">
<ele>434.8</ele>
<time>2024-05-08T15:37:34Z</time>
</trkpt>
<trkpt lat="49.533885922282934" lon="9.206158574670551">
<ele>434.8</ele>
<time>2024-05-08T15:37:35Z</time>
</trkpt>
<trkpt lat="49.53388969413936" lon="9.206158574670551">
<ele>434.8</ele>
<time>2024-05-08T15:37:36Z</time>
</trkpt>
<trkpt lat="49.53388969413936" lon="9.206159580498934">
<ele>434.6</ele>
<time>2024-05-08T15:37:38Z</time>
</trkpt>
<trkpt lat="49.53388969413936" lon="9.206161424517632">
<ele>434.6</ele>
<time>2024-05-08T15:37:40Z</time>
</trkpt>
<trkpt lat="49.53389354981482" lon="9.206161424517632">
<ele>434.6</ele>
<time>2024-05-08T15:37:42Z</time>
</trkpt>
<trkpt lat="49.53389354981482" lon="9.20616335235536">
<ele>434.6</ele>
<time>2024-05-08T15:37:43Z</time>
</trkpt>
<trkpt lat="49.53389354981482" lon="9.20616528019309">
<ele>434.6</ele>
<time>2024-05-08T15:37:45Z</time>
</trkpt>
<trkpt lat="49.53389732167125" lon="9.20616528019309">
<ele>434.6</ele>
<time>2024-05-08T15:37:46Z</time>
</trkpt>
<trkpt lat="49.53389732167125" lon="9.20616620220244">
<ele>434.6</ele>
<time>2024-05-08T15:37:47Z</time>
</trkpt>
<trkpt lat="49.53389732167125" lon="9.206168130040169">
<ele>434.6</ele>
<time>2024-05-08T15:37:48Z</time>
</trkpt>
<trkpt lat="49.533901177346706" lon="9.206170057877898">
<ele>434.6</ele>
<time>2024-05-08T15:37:50Z</time>
</trkpt>
<trkpt lat="49.533901177346706" lon="9.206171985715628">
<ele>434.6</ele>
<time>2024-05-08T15:37:51Z</time>
</trkpt>
<trkpt lat="49.533901177346706" lon="9.206172907724977">
<ele>434.6</ele>
<time>2024-05-08T15:37:55Z</time>
</trkpt>
<trkpt lat="49.533901177346706" lon="9.206174835562706">
<ele>434.6</ele>
<time>2024-05-08T15:37:58Z</time>
</trkpt>
<trkpt lat="49.533901177346706" lon="9.206176679581404">
<ele>434.6</ele>
<time>2024-05-08T15:37:59Z</time>
</trkpt>
<trkpt lat="49.533904949203134" lon="9.206178607419131">
<ele>434.6</ele>
<time>2024-05-08T15:38:00Z</time>
</trkpt>
<trkpt lat="49.533904949203134" lon="9.206179613247514">
<ele>434.6</ele>
<time>2024-05-08T15:38:01Z</time>
</trkpt>
<trkpt lat="49.533904949203134" lon="9.206181457266212">
<ele>434.6</ele>
<time>2024-05-08T15:38:03Z</time>
</trkpt>
<trkpt lat="49.533904949203134" lon="9.20618338510394">
<ele>434.6</ele>
<time>2024-05-08T15:38:04Z</time>
</trkpt>
<trkpt lat="49.533904949203134" lon="9.20618531294167">
<ele>434.6</ele>
<time>2024-05-08T15:38:07Z</time>
</trkpt>
<trkpt lat="49.533904949203134" lon="9.20618623495102">
<ele>434.6</ele>
<time>2024-05-08T15:38:11Z</time>
</trkpt>
<trkpt lat="49.533904949203134" lon="9.206188162788749">
<ele>434.6</ele>
<time>2024-05-08T15:38:16Z</time>
</trkpt>
<trkpt lat="49.533904949203134" lon="9.20618623495102">
<ele>434.6</ele>
<time>2024-05-08T15:38:19Z</time>
</trkpt>
<trkpt lat="49.533904949203134" lon="9.206188162788749">
<ele>434.6</ele>
<time>2024-05-08T15:38:23Z</time>
</trkpt>
<trkpt lat="49.53390880487859" lon="9.206188162788749">
<ele>434.6</ele>
<time>2024-05-08T15:38:28Z</time>
</trkpt>
<trkpt lat="49.53390880487859" lon="9.206190090626478">
<ele>434.6</ele>
<time>2024-05-08T15:38:29Z</time>
</trkpt>
<trkpt lat="49.53390880487859" lon="9.206191934645176">
<ele>434.6</ele>
<time>2024-05-08T15:38:35Z</time>
</trkpt>
<trkpt lat="49.53390880487859" lon="9.206192940473557">
<ele>434.6</ele>
<time>2024-05-08T15:38:46Z</time>
</trkpt>
<trkpt lat="49.53390880487859" lon="9.206194868311286">
<ele>434.6</ele>
<time>2024-05-08T15:38:51Z</time>
</trkpt>
<trkpt lat="49.53390880487859" lon="9.206196712329984">
<ele>434.6</ele>
<time>2024-05-08T15:38:57Z</time>
</trkpt>
<trkpt lat="49.53390880487859" lon="9.206198640167711">
<ele>434.6</ele>
<time>2024-05-08T15:39:01Z</time>
</trkpt>
<trkpt lat="49.53390880487859" lon="9.206199645996094">
<ele>434.6</ele>
<time>2024-05-08T15:39:07Z</time>
</trkpt>
<trkpt lat="49.53391257673502" lon="9.206198640167711">
<ele>434.6</ele>
<time>2024-05-08T15:39:12Z</time>
</trkpt>
<trkpt lat="49.53391257673502" lon="9.206199645996094">
<ele>434.6</ele>
<time>2024-05-08T15:39:13Z</time>
</trkpt>
<trkpt lat="49.53391257673502" lon="9.206201490014791">
<ele>434.6</ele>
<time>2024-05-08T15:39:16Z</time>
</trkpt>
<trkpt lat="49.53391257673502" lon="9.20620341785252">
<ele>434.6</ele>
<time>2024-05-08T15:39:19Z</time>
</trkpt>
<trkpt lat="49.53391643241048" lon="9.20620534569025">
<ele>434.6</ele>
<time>2024-05-08T15:39:24Z</time>
</trkpt>
<trkpt lat="49.53391643241048" lon="9.2062062676996">
<ele>434.6</ele>
<time>2024-05-08T15:39:32Z</time>
</trkpt>
<trkpt lat="49.53391643241048" lon="9.206208195537329">
<ele>434.6</ele>
<time>2024-05-08T15:39:36Z</time>
</trkpt>
<trkpt lat="49.53391643241048" lon="9.206210123375058">
<ele>434.6</ele>
<time>2024-05-08T15:39:39Z</time>
</trkpt>
<trkpt lat="49.53391643241048" lon="9.206208195537329">
<ele>434.8</ele>
<time>2024-05-08T15:39:40Z</time>
</trkpt>
<trkpt lat="49.53392028808594" lon="9.206210123375058">
<ele>434.8</ele>
<time>2024-05-08T15:39:41Z</time>
</trkpt>
<trkpt lat="49.53392028808594" lon="9.206208195537329">
<ele>434.8</ele>
<time>2024-05-08T15:39:55Z</time>
</trkpt>
<trkpt lat="49.53392028808594" lon="9.206210123375058">
<ele>434.8</ele>
<time>2024-05-08T15:39:56Z</time>
</trkpt>
<trkpt lat="49.53392028808594" lon="9.206208195537329">
<ele>434.8</ele>
<time>2024-05-08T15:39:58Z</time>
</trkpt>
<trkpt lat="49.53392028808594" lon="9.206210123375058">
<ele>434.8</ele>
<time>2024-05-08T15:40:16Z</time>
</trkpt>
<trkpt lat="49.53392028808594" lon="9.206211967393756">
<ele>434.6</ele>
<time>2024-05-08T15:40:22Z</time>
</trkpt>
<trkpt lat="49.533924059942365" lon="9.206211967393756">
<ele>434.6</ele>
<time>2024-05-08T15:40:32Z</time>
</trkpt>
<trkpt lat="49.533924059942365" lon="9.206212973222136">
<ele>434.6</ele>
<time>2024-05-08T15:40:49Z</time>
</trkpt>
<trkpt lat="49.533924059942365" lon="9.206214901059866">
<ele>434.6</ele>
<time>2024-05-08T15:40:55Z</time>
</trkpt>
<trkpt lat="49.533927915617824" lon="9.206214901059866">
<ele>434.6</ele>
<time>2024-05-08T15:40:58Z</time>
</trkpt>
<trkpt lat="49.533927915617824" lon="9.206216745078564">
<ele>434.4</ele>
<time>2024-05-08T15:40:59Z</time>
</trkpt>
<trkpt lat="49.533927915617824" lon="9.206214901059866">
<ele>434.4</ele>
<time>2024-05-08T15:41:17Z</time>
</trkpt>
<trkpt lat="49.53393168747425" lon="9.206214901059866">
<ele>434.4</ele>
<time>2024-05-08T15:41:23Z</time>
</trkpt>
<trkpt lat="49.53393168747425" lon="9.206212973222136">
<ele>434.4</ele>
<time>2024-05-08T15:41:28Z</time>
</trkpt>
<trkpt lat="49.53393168747425" lon="9.206214901059866">
<ele>434.4</ele>
<time>2024-05-08T15:41:35Z</time>
</trkpt>
<trkpt lat="49.53393168747425" lon="9.206212973222136">
<ele>434.2</ele>
<time>2024-05-08T15:41:48Z</time>
</trkpt>
<trkpt lat="49.53393168747425" lon="9.206211967393756">
<ele>434.2</ele>
<time>2024-05-08T15:41:53Z</time>
</trkpt>
<trkpt lat="49.53393168747425" lon="9.206210123375058">
<ele>434.2</ele>
<time>2024-05-08T15:42:05Z</time>
</trkpt>
<trkpt lat="49.53393168747425" lon="9.206211967393756">
<ele>434.2</ele>
<time>2024-05-08T15:42:07Z</time>
</trkpt>
<trkpt lat="49.53393168747425" lon="9.206212973222136">
<ele>434.2</ele>
<time>2024-05-08T15:42:15Z</time>
</trkpt>
<trkpt lat="49.53393554314971" lon="9.206212973222136">
<ele>434.2</ele>
<time>2024-05-08T15:42:18Z</time>
</trkpt>
<trkpt lat="49.53393554314971" lon="9.206214901059866">
<ele>434.2</ele>
<time>2024-05-08T15:42:20Z</time>
</trkpt>
<trkpt lat="49.53393554314971" lon="9.206212973222136">
<ele>434.2</ele>
<time>2024-05-08T15:42:26Z</time>
</trkpt>
<trkpt lat="49.53393554314971" lon="9.206214901059866">
<ele>434.2</ele>
<time>2024-05-08T15:42:27Z</time>
</trkpt>
<trkpt lat="49.53393554314971" lon="9.206212973222136">
<ele>434.2</ele>
<time>2024-05-08T15:42:47Z</time>
</trkpt>
<trkpt lat="49.53393554314971" lon="9.206214901059866">
<ele>434</ele>
<time>2024-05-08T15:42:48Z</time>
</trkpt>
<trkpt lat="49.53393931500614" lon="9.206214901059866">
<ele>434</ele>
<time>2024-05-08T15:42:59Z</time>
</trkpt>
<trkpt lat="49.53393554314971" lon="9.206214901059866">
<ele>434</ele>
<time>2024-05-08T15:43:00Z</time>
</trkpt>
<trkpt lat="49.53393931500614" lon="9.206214901059866">
<ele>434</ele>
<time>2024-05-08T15:43:01Z</time>
</trkpt>
<trkpt lat="49.53393554314971" lon="9.206214901059866">
<ele>434</ele>
<time>2024-05-08T15:43:03Z</time>
</trkpt>
<trkpt lat="49.53393554314971" lon="9.206212973222136">
<ele>434</ele>
<time>2024-05-08T15:43:13Z</time>
</trkpt>
<trkpt lat="49.53393554314971" lon="9.206214901059866">
<ele>434</ele>
<time>2024-05-08T15:43:35Z</time>
</trkpt>
<trkpt lat="49.53393931500614" lon="9.206214901059866">
<ele>434.2</ele>
<time>2024-05-08T15:43:36Z</time>
</trkpt>
<trkpt lat="49.53393931500614" lon="9.206216745078564">
<ele>434.2</ele>
<time>2024-05-08T15:43:41Z</time>
</trkpt>
<trkpt lat="49.53393931500614" lon="9.206218672916291">
<ele>434.2</ele>
<time>2024-05-08T15:43:46Z</time>
</trkpt>
<trkpt lat="49.5339431706816" lon="9.206219594925642">
<ele>434.2</ele>
<time>2024-05-08T15:43:48Z</time>
</trkpt>
<trkpt lat="49.5339431706816" lon="9.206221522763371">
<ele>434.2</ele>
<time>2024-05-08T15:43:56Z</time>
</trkpt>
<trkpt lat="49.5339431706816" lon="9.206219594925642">
<ele>434.2</ele>
<time>2024-05-08T15:44:01Z</time>
</trkpt>
<trkpt lat="49.53393931500614" lon="9.206219594925642">
<ele>434.2</ele>
<time>2024-05-08T15:44:03Z</time>
</trkpt>
<trkpt lat="49.53393931500614" lon="9.206218672916291">
<ele>434.2</ele>
<time>2024-05-08T15:44:13Z</time>
</trkpt>
<trkpt lat="49.53393554314971" lon="9.206218672916291">
<ele>434.2</ele>
<time>2024-05-08T15:44:38Z</time>
</trkpt>
<trkpt lat="49.53393931500614" lon="9.206218672916291">
<ele>434.2</ele>
<time>2024-05-08T15:44:39Z</time>
</trkpt>
<trkpt lat="49.53393931500614" lon="9.206216745078564">
<ele>434.2</ele>
<time>2024-05-08T15:44:42Z</time>
</trkpt>
<trkpt lat="49.53393931500614" lon="9.206214901059866">
<ele>434.2</ele>
<time>2024-05-08T15:44:57Z</time>
</trkpt>
<trkpt lat="49.53393931500614" lon="9.206212973222136">
<ele>434.2</ele>
<time>2024-05-08T15:45:05Z</time>
</trkpt>
<trkpt lat="49.5339431706816" lon="9.206212973222136">
<ele>434.2</ele>
<time>2024-05-08T15:45:10Z</time>
</trkpt>
<trkpt lat="49.53393931500614" lon="9.206212973222136">
<ele>434.2</ele>
<time>2024-05-08T15:45:15Z</time>
</trkpt>
<trkpt lat="49.53393931500614" lon="9.206211967393756">
<ele>434.2</ele>
<time>2024-05-08T15:45:16Z</time>
</trkpt>
<trkpt lat="49.5339431706816" lon="9.206211967393756">
<ele>434.2</ele>
<time>2024-05-08T15:45:19Z</time>
</trkpt>
<trkpt lat="49.5339431706816" lon="9.206210123375058">
<ele>434.2</ele>
<time>2024-05-08T15:45:27Z</time>
</trkpt>
<trkpt lat="49.5339431706816" lon="9.206211967393756">
<ele>434.2</ele>
<time>2024-05-08T15:45:28Z</time>
</trkpt>
<trkpt lat="49.5339431706816" lon="9.206210123375058">
<ele>434.2</ele>
<time>2024-05-08T15:45:29Z</time>
</trkpt>
<trkpt lat="49.5339431706816" lon="9.206208195537329">
<ele>434.2</ele>
<time>2024-05-08T15:45:47Z</time>
</trkpt>
<trkpt lat="49.5339431706816" lon="9.2062062676996">
<ele>434.2</ele>
<time>2024-05-08T15:46:00Z</time>
</trkpt>
<trkpt lat="49.5339431706816" lon="9.206208195537329">
<ele>434.2</ele>
<time>2024-05-08T15:46:01Z</time>
</trkpt>
<trkpt lat="49.5339431706816" lon="9.2062062676996">
<ele>434.2</ele>
<time>2024-05-08T15:46:02Z</time>
</trkpt>
<trkpt lat="49.5339431706816" lon="9.20620534569025">
<ele>434.2</ele>
<time>2024-05-08T15:46:09Z</time>
</trkpt>
<trkpt lat="49.5339431706816" lon="9.2062062676996">
<ele>434.2</ele>
<time>2024-05-08T15:46:33Z</time>
</trkpt>
<trkpt lat="49.5339431706816" lon="9.206208195537329">
<ele>434.2</ele>
<time>2024-05-08T15:46:37Z</time>
</trkpt>
<trkpt lat="49.5339431706816" lon="9.206210123375058">
<ele>434.2</ele>
<time>2024-05-08T15:46:47Z</time>
</trkpt>
<trkpt lat="49.5339431706816" lon="9.206211967393756">
<ele>434.2</ele>
<time>2024-05-08T15:46:52Z</time>
</trkpt>
<trkpt lat="49.5339431706816" lon="9.206212973222136">
<ele>434.2</ele>
<time>2024-05-08T15:46:55Z</time>
</trkpt>
<trkpt lat="49.5339431706816" lon="9.206214901059866">
<ele>434.2</ele>
<time>2024-05-08T15:46:58Z</time>
</trkpt>
<trkpt lat="49.53393931500614" lon="9.206214901059866">
<ele>434.2</ele>
<time>2024-05-08T15:47:00Z</time>
</trkpt>
<trkpt lat="49.53393931500614" lon="9.206216745078564">
<ele>434.2</ele>
<time>2024-05-08T15:47:09Z</time>
</trkpt>
<trkpt lat="49.53393931500614" lon="9.206214901059866">
<ele>434.2</ele>
<time>2024-05-08T15:47:15Z</time>
</trkpt>
<trkpt lat="49.53393931500614" lon="9.206212973222136">
<ele>434.2</ele>
<time>2024-05-08T15:47:23Z</time>
</trkpt>
<trkpt lat="49.5339431706816" lon="9.206212973222136">
<ele>434.2</ele>
<time>2024-05-08T15:47:27Z</time>
</trkpt>
<trkpt lat="49.53393931500614" lon="9.206212973222136">
<ele>434.2</ele>
<time>2024-05-08T15:47:28Z</time>
</trkpt>
<trkpt lat="49.53393931500614" lon="9.206211967393756">
<ele>434.2</ele>
<time>2024-05-08T15:47:29Z</time>
</trkpt>
<trkpt lat="49.5339431706816" lon="9.206211967393756">
<ele>434.2</ele>
<time>2024-05-08T15:47:32Z</time>
</trkpt>
<trkpt lat="49.5339431706816" lon="9.206210123375058">
<ele>434.2</ele>
<time>2024-05-08T15:47:45Z</time>
</trkpt>
<trkpt lat="49.53393931500614" lon="9.206210123375058">
<ele>434.2</ele>
<time>2024-05-08T15:47:47Z</time>
</trkpt>
<trkpt lat="49.53393931500614" lon="9.206211967393756">
<ele>434.2</ele>
<time>2024-05-08T15:47:53Z</time>
</trkpt>
<trkpt lat="49.53393931500614" lon="9.206212973222136">
<ele>434.2</ele>
<time>2024-05-08T15:47:56Z</time>
</trkpt>
<trkpt lat="49.53393931500614" lon="9.206214901059866">
<ele>434.2</ele>
<time>2024-05-08T15:47:58Z</time>
</trkpt>
<trkpt lat="49.53393931500614" lon="9.206216745078564">
<ele>434.2</ele>
<time>2024-05-08T15:48:01Z</time>
</trkpt>
<trkpt lat="49.53393931500614" lon="9.206218672916291">
<ele>434.2</ele>
<time>2024-05-08T15:48:05Z</time>
</trkpt>
<trkpt lat="49.53393931500614" lon="9.206219594925642">
<ele>434.2</ele>
<time>2024-05-08T15:48:09Z</time>
</trkpt>
<trkpt lat="49.53393931500614" lon="9.206218672916291">
<ele>434.2</ele>
<time>2024-05-08T15:48:25Z</time>
</trkpt>
<trkpt lat="49.53393931500614" lon="9.206216745078564">
<ele>434.2</ele>
<time>2024-05-08T15:48:31Z</time>
</trkpt>
<trkpt lat="49.53393931500614" lon="9.206214901059866">
<ele>434.2</ele>
<time>2024-05-08T15:48:35Z</time>
</trkpt>
<trkpt lat="49.53393554314971" lon="9.206214901059866">
<ele>434.2</ele>
<time>2024-05-08T15:48:40Z</time>
</trkpt>
<trkpt lat="49.53393554314971" lon="9.206212973222136">
<ele>434.2</ele>
<time>2024-05-08T15:48:42Z</time>
</trkpt>
<trkpt lat="49.53393554314971" lon="9.206214901059866">
<ele>434.2</ele>
<time>2024-05-08T15:48:48Z</time>
</trkpt>
<trkpt lat="49.53393554314971" lon="9.206216745078564">
<ele>434.2</ele>
<time>2024-05-08T15:48:51Z</time>
</trkpt>
<trkpt lat="49.53393168747425" lon="9.206216745078564">
<ele>434.2</ele>
<time>2024-05-08T15:48:59Z</time>
</trkpt>
<trkpt lat="49.53393168747425" lon="9.206218672916291">
<ele>434.2</ele>
<time>2024-05-08T15:49:06Z</time>
</trkpt>
<trkpt lat="49.53393168747425" lon="9.206219594925642">
<ele>434.2</ele>
<time>2024-05-08T15:49:18Z</time>
</trkpt>
<trkpt lat="49.53393168747425" lon="9.206221522763371">
<ele>434.2</ele>
<time>2024-05-08T15:49:29Z</time>
</trkpt>
<trkpt lat="49.53393168747425" lon="9.2062234506011">
<ele>434.2</ele>
<time>2024-05-08T15:49:42Z</time>
</trkpt>
<trkpt lat="49.53393168747425" lon="9.206221522763371">
<ele>434.2</ele>
<time>2024-05-08T15:49:43Z</time>
</trkpt>
<trkpt lat="49.53393168747425" lon="9.2062234506011">
<ele>434.2</ele>
<time>2024-05-08T15:49:44Z</time>
</trkpt>
<trkpt lat="49.53393168747425" lon="9.206221522763371">
<ele>434.2</ele>
<time>2024-05-08T15:49:48Z</time>
</trkpt>
<trkpt lat="49.53393168747425" lon="9.206219594925642">
<ele>434.2</ele>
<time>2024-05-08T15:50:02Z</time>
</trkpt>
<trkpt lat="49.533927915617824" lon="9.206219594925642">
<ele>434.2</ele>
<time>2024-05-08T15:50:18Z</time>
</trkpt>
<trkpt lat="49.533927915617824" lon="9.206218672916291">
<ele>434.2</ele>
<time>2024-05-08T15:50:21Z</time>
</trkpt>
<trkpt lat="49.533927915617824" lon="9.206216745078564">
<ele>434.2</ele>
<time>2024-05-08T15:50:26Z</time>
</trkpt>
<trkpt lat="49.533927915617824" lon="9.206214901059866">
<ele>434.2</ele>
<time>2024-05-08T15:50:32Z</time>
</trkpt>
<trkpt lat="49.533927915617824" lon="9.206212973222136">
<ele>434.2</ele>
<time>2024-05-08T15:50:37Z</time>
</trkpt>
<trkpt lat="49.533924059942365" lon="9.206212973222136">
<ele>434.2</ele>
<time>2024-05-08T15:50:39Z</time>
</trkpt>
<trkpt lat="49.533924059942365" lon="9.206211967393756">
<ele>434.2</ele>
<time>2024-05-08T15:50:47Z</time>
</trkpt>
<trkpt lat="49.533924059942365" lon="9.206210123375058">
<ele>434.2</ele>
<time>2024-05-08T15:50:54Z</time>
</trkpt>
<trkpt lat="49.533924059942365" lon="9.206211967393756">
<ele>434.2</ele>
<time>2024-05-08T15:50:55Z</time>
</trkpt>
<trkpt lat="49.533924059942365" lon="9.206210123375058">
<ele>434.2</ele>
<time>2024-05-08T15:50:57Z</time>
</trkpt>
<trkpt lat="49.533924059942365" lon="9.206208195537329">
<ele>434.2</ele>
<time>2024-05-08T15:51:01Z</time>
</trkpt>
<trkpt lat="49.53392028808594" lon="9.2062062676996">
<ele>434.2</ele>
<time>2024-05-08T15:51:02Z</time>
</trkpt>
<trkpt lat="49.53392028808594" lon="9.20620534569025">
<ele>434.2</ele>
<time>2024-05-08T15:51:04Z</time>
</trkpt>
<trkpt lat="49.53391643241048" lon="9.20620534569025">
<ele>434.2</ele>
<time>2024-05-08T15:51:05Z</time>
</trkpt>
<trkpt lat="49.53391643241048" lon="9.20620341785252">
<ele>434.2</ele>
<time>2024-05-08T15:51:07Z</time>
</trkpt>
<trkpt lat="49.53391643241048" lon="9.206201490014791">
<ele>434.2</ele>
<time>2024-05-08T15:51:10Z</time>
</trkpt>
<trkpt lat="49.53391257673502" lon="9.206201490014791">
<ele>434.2</ele>
<time>2024-05-08T15:51:13Z</time>
</trkpt>
<trkpt lat="49.53391257673502" lon="9.206199645996094">
<ele>434.2</ele>
<time>2024-05-08T15:51:15Z</time>
</trkpt>
<trkpt lat="49.53391257673502" lon="9.206198640167711">
<ele>434.2</ele>
<time>2024-05-08T15:51:22Z</time>
</trkpt>
<trkpt lat="49.53391257673502" lon="9.206199645996094">
<ele>434.2</ele>
<time>2024-05-08T15:51:27Z</time>
</trkpt>
<trkpt lat="49.53391643241048" lon="9.206199645996094">
<ele>434.2</ele>
<time>2024-05-08T15:51:29Z</time>
</trkpt>
<trkpt lat="49.53391257673502" lon="9.206199645996094">
<ele>434.2</ele>
<time>2024-05-08T15:51:31Z</time>
</trkpt>
<trkpt lat="49.53391643241048" lon="9.206199645996094">
<ele>434.2</ele>
<time>2024-05-08T15:51:32Z</time>
</trkpt>
<trkpt lat="49.53391643241048" lon="9.206201490014791">
<ele>434.2</ele>
<time>2024-05-08T15:51:33Z</time>
</trkpt>
<trkpt lat="49.53391643241048" lon="9.20620341785252">
<ele>434.2</ele>
<time>2024-05-08T15:51:35Z</time>
</trkpt>
<trkpt lat="49.53391257673502" lon="9.20620341785252">
<ele>434.2</ele>
<time>2024-05-08T15:51:37Z</time>
</trkpt>
<trkpt lat="49.53391643241048" lon="9.20620341785252">
<ele>434.2</ele>
<time>2024-05-08T15:51:38Z</time>
</trkpt>
<trkpt lat="49.53391643241048" lon="9.20620534569025">
<ele>434.2</ele>
<time>2024-05-08T15:51:42Z</time>
</trkpt>
<trkpt lat="49.53391643241048" lon="9.20620341785252">
<ele>434.2</ele>
<time>2024-05-08T15:51:59Z</time>
</trkpt>
<trkpt lat="49.53391643241048" lon="9.20620534569025">
<ele>434.2</ele>
<time>2024-05-08T15:52:11Z</time>
</trkpt>
<trkpt lat="49.53392028808594" lon="9.20620534569025">
<ele>434.2</ele>
<time>2024-05-08T15:52:13Z</time>
</trkpt>
<trkpt lat="49.53392028808594" lon="9.20620341785252">
<ele>434.2</ele>
<time>2024-05-08T15:52:15Z</time>
</trkpt>
<trkpt lat="49.53392028808594" lon="9.20620534569025">
<ele>434.2</ele>
<time>2024-05-08T15:52:17Z</time>
</trkpt>
<trkpt lat="49.53392028808594" lon="9.20620341785252">
<ele>434.2</ele>
<time>2024-05-08T15:52:19Z</time>
</trkpt>
<trkpt lat="49.53392028808594" lon="9.20620534569025">
<ele>434.2</ele>
<time>2024-05-08T15:52:20Z</time>
</trkpt>
<trkpt lat="49.53392028808594" lon="9.20620341785252">
<ele>434.2</ele>
<time>2024-05-08T15:52:21Z</time>
</trkpt>
<trkpt lat="49.53392028808594" lon="9.20620534569025">
<ele>434.2</ele>
<time>2024-05-08T15:52:22Z</time>
</trkpt>
<trkpt lat="49.53392028808594" lon="9.20620341785252">
<ele>434.2</ele>
<time>2024-05-08T15:52:29Z</time>
</trkpt>
<trkpt lat="49.533924059942365" lon="9.20620341785252">
<ele>434.2</ele>
<time>2024-05-08T15:52:31Z</time>
</trkpt>
<trkpt lat="49.533924059942365" lon="9.206201490014791">
<ele>434.2</ele>
<time>2024-05-08T15:52:33Z</time>
</trkpt>
<trkpt lat="49.53392028808594" lon="9.20620341785252">
<ele>434.2</ele>
<time>2024-05-08T15:52:36Z</time>
</trkpt>
<trkpt lat="49.53392028808594" lon="9.20620534569025">
<ele>434.2</ele>
<time>2024-05-08T15:52:38Z</time>
</trkpt>
<trkpt lat="49.53392028808594" lon="9.206208195537329">
<ele>434.2</ele>
<time>2024-05-08T15:52:39Z</time>
</trkpt>
<trkpt lat="49.53392028808594" lon="9.206210123375058">
<ele>434.2</ele>
<time>2024-05-08T15:52:40Z</time>
</trkpt>
<trkpt lat="49.53392028808594" lon="9.206212973222136">
<ele>434.2</ele>
<time>2024-05-08T15:52:41Z</time>
</trkpt>
<trkpt lat="49.53392028808594" lon="9.206216745078564">
<ele>434.2</ele>
<time>2024-05-08T15:52:42Z</time>
</trkpt>
<trkpt lat="49.53391643241048" lon="9.206218672916291">
<ele>434.2</ele>
<time>2024-05-08T15:52:43Z</time>
</trkpt>
<trkpt lat="49.53391643241048" lon="9.206221522763371">
<ele>434.2</ele>
<time>2024-05-08T15:52:44Z</time>
</trkpt>
<trkpt lat="49.53391643241048" lon="9.2062234506011">
<ele>434.2</ele>
<time>2024-05-08T15:52:46Z</time>
</trkpt>
<trkpt lat="49.53391643241048" lon="9.20622537843883">
<ele>434.2</ele>
<time>2024-05-08T15:52:47Z</time>
</trkpt>
<trkpt lat="49.53391643241048" lon="9.20622630044818">
<ele>434.2</ele>
<time>2024-05-08T15:52:48Z</time>
</trkpt>
<trkpt lat="49.53391643241048" lon="9.206228228285909">
<ele>434.2</ele>
<time>2024-05-08T15:52:49Z</time>
</trkpt>
<trkpt lat="49.53391257673502" lon="9.206230156123638">
<ele>434.2</ele>
<time>2024-05-08T15:52:50Z</time>
</trkpt>
<trkpt lat="49.53391257673502" lon="9.206232000142336">
<ele>434.2</ele>
<time>2024-05-08T15:52:51Z</time>
</trkpt>
<trkpt lat="49.53390880487859" lon="9.206233005970716">
<ele>434.2</ele>
<time>2024-05-08T15:52:52Z</time>
</trkpt>
<trkpt lat="49.533904949203134" lon="9.206234849989414">
<ele>434.2</ele>
<time>2024-05-08T15:52:53Z</time>
</trkpt>
<trkpt lat="49.533901177346706" lon="9.206233005970716">
<ele>434.2</ele>
<time>2024-05-08T15:52:55Z</time>
</trkpt>
<trkpt lat="49.53389732167125" lon="9.206230156123638">
<ele>434.2</ele>
<time>2024-05-08T15:52:56Z</time>
</trkpt>
<trkpt lat="49.53388969413936" lon="9.206228228285909">
<ele>434.2</ele>
<time>2024-05-08T15:52:57Z</time>
</trkpt>
<trkpt lat="49.533882066607475" lon="9.20622537843883">
<ele>434.2</ele>
<time>2024-05-08T15:52:58Z</time>
</trkpt>
<trkpt lat="49.53387829475105" lon="9.206221522763371">
<ele>434.2</ele>
<time>2024-05-08T15:52:59Z</time>
</trkpt>
<trkpt lat="49.53387443907559" lon="9.206214901059866">
<ele>434.2</ele>
<time>2024-05-08T15:53:00Z</time>
</trkpt>
<trkpt lat="49.53387443907559" lon="9.206210123375058">
<ele>434.2</ele>
<time>2024-05-08T15:53:01Z</time>
</trkpt>
<trkpt lat="49.53387443907559" lon="9.2062062676996">
<ele>434.2</ele>
<time>2024-05-08T15:53:02Z</time>
</trkpt>
<trkpt lat="49.53387443907559" lon="9.20620534569025">
<ele>434.2</ele>
<time>2024-05-08T15:53:03Z</time>
</trkpt>
<trkpt lat="49.53387066721916" lon="9.20620534569025">
<ele>434.2</ele>
<time>2024-05-08T15:53:04Z</time>
</trkpt>
<trkpt lat="49.53387066721916" lon="9.20620341785252">
<ele>434.2</ele>
<time>2024-05-08T15:53:06Z</time>
</trkpt>
<trkpt lat="49.53387066721916" lon="9.206199645996094">
<ele>434.2</ele>
<time>2024-05-08T15:53:07Z</time>
</trkpt>
<trkpt lat="49.5338668115437" lon="9.206192940473557">
<ele>434.2</ele>
<time>2024-05-08T15:53:08Z</time>
</trkpt>
<trkpt lat="49.53386303968728" lon="9.20618623495102">
<ele>434.2</ele>
<time>2024-05-08T15:53:09Z</time>
</trkpt>
<trkpt lat="49.53385918401182" lon="9.206176679581404">
<ele>434.2</ele>
<time>2024-05-08T15:53:10Z</time>
</trkpt>
<trkpt lat="49.53385541215539" lon="9.206168130040169">
<ele>434.2</ele>
<time>2024-05-08T15:53:11Z</time>
</trkpt>
<trkpt lat="49.53385155647993" lon="9.206158574670551">
<ele>434.2</ele>
<time>2024-05-08T15:53:12Z</time>
</trkpt>
<trkpt lat="49.533843928948045" lon="9.206151952967048">
<ele>434.2</ele>
<time>2024-05-08T15:53:13Z</time>
</trkpt>
<trkpt lat="49.53384015709162" lon="9.20614524744451">
<ele>434.2</ele>
<time>2024-05-08T15:53:14Z</time>
</trkpt>
<trkpt lat="49.53384015709162" lon="9.206139547750354">
<ele>434.2</ele>
<time>2024-05-08T15:53:15Z</time>
</trkpt>
<trkpt lat="49.53384015709162" lon="9.206136697903275">
<ele>434.2</ele>
<time>2024-05-08T15:53:16Z</time>
</trkpt>
<trkpt lat="49.53384015709162" lon="9.206138541921971">
<ele>434.2</ele>
<time>2024-05-08T15:53:18Z</time>
</trkpt>
<trkpt lat="49.53383630141616" lon="9.206136697903275">
<ele>434.2</ele>
<time>2024-05-08T15:53:22Z</time>
</trkpt>
<trkpt lat="49.53383630141616" lon="9.206138541921971">
<ele>434.2</ele>
<time>2024-05-08T15:53:23Z</time>
</trkpt>
<trkpt lat="49.53383630141616" lon="9.206136697903275">
<ele>434.2</ele>
<time>2024-05-08T15:53:24Z</time>
</trkpt>
<trkpt lat="49.53383630141616" lon="9.206134770065546">
<ele>434.2</ele>
<time>2024-05-08T15:53:25Z</time>
</trkpt>
<trkpt lat="49.53383252955973" lon="9.206131920218468">
<ele>434.2</ele>
<time>2024-05-08T15:53:26Z</time>
</trkpt>
<trkpt lat="49.53382867388427" lon="9.206128064543009">
<ele>434.2</ele>
<time>2024-05-08T15:53:27Z</time>
</trkpt>
<trkpt lat="49.53382867388427" lon="9.20612613670528">
<ele>434.2</ele>
<time>2024-05-08T15:53:28Z</time>
</trkpt>
<trkpt lat="49.533824902027845" lon="9.20612521469593">
<ele>434.2</ele>
<time>2024-05-08T15:53:29Z</time>
</trkpt>
<trkpt lat="49.533824902027845" lon="9.2061232868582">
<ele>434.2</ele>
<time>2024-05-08T15:53:30Z</time>
</trkpt>
<trkpt lat="49.53382867388427" lon="9.206121442839503">
<ele>434.2</ele>
<time>2024-05-08T15:53:32Z</time>
</trkpt>
<trkpt lat="49.53382867388427" lon="9.206119515001774">
<ele>434.2</ele>
<time>2024-05-08T15:53:37Z</time>
</trkpt>
<trkpt lat="49.533824902027845" lon="9.206119515001774">
<ele>434.2</ele>
<time>2024-05-08T15:53:38Z</time>
</trkpt>
<trkpt lat="49.533824902027845" lon="9.206118509173391">
<ele>434.2</ele>
<time>2024-05-08T15:53:39Z</time>
</trkpt>
<trkpt lat="49.533824902027845" lon="9.206116665154696">
<ele>434.2</ele>
<time>2024-05-08T15:53:41Z</time>
</trkpt>
<trkpt lat="49.533824902027845" lon="9.206114737316966">
<ele>434.2</ele>
<time>2024-05-08T15:53:42Z</time>
</trkpt>
<trkpt lat="49.533824902027845" lon="9.206113815307615">
<ele>434.2</ele>
<time>2024-05-08T15:53:45Z</time>
</trkpt>
<trkpt lat="49.533824902027845" lon="9.206111887469888">
<ele>434.2</ele>
<time>2024-05-08T15:53:46Z</time>
</trkpt>
<trkpt lat="49.533824902027845" lon="9.206109959632158">
<ele>434.2</ele>
<time>2024-05-08T15:53:47Z</time>
</trkpt>
<trkpt lat="49.533824902027845" lon="9.206108031794429">
<ele>434.2</ele>
<time>2024-05-08T15:53:50Z</time>
</trkpt>
<trkpt lat="49.533824902027845" lon="9.2061061039567">
<ele>434.2</ele>
<time>2024-05-08T15:53:56Z</time>
</trkpt>
<trkpt lat="49.533824902027845" lon="9.206108031794429">
<ele>434.2</ele>
<time>2024-05-08T15:53:57Z</time>
</trkpt>
<trkpt lat="49.533824902027845" lon="9.20610518194735">
<ele>434.2</ele>
<time>2024-05-08T15:53:58Z</time>
</trkpt>
<trkpt lat="49.533824902027845" lon="9.206091854721308">
<ele>434.2</ele>
<time>2024-05-08T15:54:00Z</time>
</trkpt>
<trkpt lat="49.53382104635239" lon="9.206080371513965">
<ele>434.2</ele>
<time>2024-05-08T15:54:01Z</time>
</trkpt>
<trkpt lat="49.53382104635239" lon="9.206067966297269">
<ele>434.2</ele>
<time>2024-05-08T15:54:02Z</time>
</trkpt>
<trkpt lat="49.53381727449596" lon="9.206058494746683">
<ele>434.2</ele>
<time>2024-05-08T15:54:03Z</time>
</trkpt>
<trkpt lat="49.53380964696407" lon="9.20604508370161">
<ele>434.2</ele>
<time>2024-05-08T15:54:04Z</time>
</trkpt>
<trkpt lat="49.53379816375673" lon="9.206033684313295">
<ele>434.2</ele>
<time>2024-05-08T15:54:05Z</time>
</trkpt>
<trkpt lat="49.533786764368415" lon="9.20602798461914">
<ele>434.2</ele>
<time>2024-05-08T15:54:06Z</time>
</trkpt>
<trkpt lat="49.53377150930464" lon="9.206029828637838">
<ele>434.2</ele>
<time>2024-05-08T15:54:07Z</time>
</trkpt>
<trkpt lat="49.5337600260973" lon="9.206031756475568">
<ele>434.2</ele>
<time>2024-05-08T15:54:08Z</time>
</trkpt>
<trkpt lat="49.533744771033525" lon="9.206040306016805">
<ele>434.2</ele>
<time>2024-05-08T15:54:09Z</time>
</trkpt>
<trkpt lat="49.533725660294294" lon="9.206054639071226">
<ele>434.2</ele>
<time>2024-05-08T15:54:10Z</time>
</trkpt>
<trkpt lat="49.533706633374095" lon="9.206074671819806">
<ele>434.2</ele>
<time>2024-05-08T15:54:11Z</time>
</trkpt>
<trkpt lat="49.533687522634864" lon="9.206096632406116">
<ele>434.2</ele>
<time>2024-05-08T15:54:12Z</time>
</trkpt>
<trkpt lat="49.533668495714664" lon="9.206116665154696">
<ele>434.2</ele>
<time>2024-05-08T15:54:13Z</time>
</trkpt>
<trkpt lat="49.53364175744355" lon="9.206139547750354">
<ele>434.2</ele>
<time>2024-05-08T15:54:14Z</time>
</trkpt>
<trkpt lat="49.53361510299146" lon="9.20616335235536">
<ele>434.2</ele>
<time>2024-05-08T15:54:15Z</time>
</trkpt>
<trkpt lat="49.53358459286392" lon="9.206176679581404">
<ele>434.2</ele>
<time>2024-05-08T15:54:16Z</time>
</trkpt>
<trkpt lat="49.53355399891734" lon="9.206181457266212">
<ele>434.2</ele>
<time>2024-05-08T15:54:17Z</time>
</trkpt>
<trkpt lat="49.5335234887898" lon="9.206181457266212">
<ele>434.2</ele>
<time>2024-05-08T15:54:18Z</time>
</trkpt>
<trkpt lat="49.53349297866225" lon="9.206178607419131">
<ele>434.2</ele>
<time>2024-05-08T15:54:19Z</time>
</trkpt>
<trkpt lat="49.53346246853471" lon="9.206174835562706">
<ele>434.2</ele>
<time>2024-05-08T15:54:20Z</time>
</trkpt>
<trkpt lat="49.53343195840717" lon="9.206171985715628">
<ele>434.2</ele>
<time>2024-05-08T15:54:21Z</time>
</trkpt>
<trkpt lat="49.53340144827962" lon="9.206159580498934">
<ele>434.2</ele>
<time>2024-05-08T15:54:22Z</time>
</trkpt>
<trkpt lat="49.533367082476616" lon="9.20614616945386">
<ele>434.2</ele>
<time>2024-05-08T15:54:23Z</time>
</trkpt>
<trkpt lat="49.53333657234907" lon="9.206132842227817">
<ele>434.2</ele>
<time>2024-05-08T15:54:24Z</time>
</trkpt>
<trkpt lat="49.53330606222153" lon="9.206118509173391">
<ele>434.2</ele>
<time>2024-05-08T15:54:25Z</time>
</trkpt>
<trkpt lat="49.53327555209398" lon="9.20610518194735">
<ele>434.2</ele>
<time>2024-05-08T15:54:26Z</time>
</trkpt>
<trkpt lat="49.53324504196644" lon="9.206091854721308">
<ele>434.2</ele>
<time>2024-05-08T15:54:27Z</time>
</trkpt>
<trkpt lat="49.533214531838894" lon="9.206076599657536">
<ele>434.2</ele>
<time>2024-05-08T15:54:28Z</time>
</trkpt>
<trkpt lat="49.53318402171135" lon="9.20606511645019">
<ele>434.2</ele>
<time>2024-05-08T15:54:29Z</time>
</trkpt>
<trkpt lat="49.533153511583805" lon="9.20604508370161">
<ele>434.2</ele>
<time>2024-05-08T15:54:30Z</time>
</trkpt>
<trkpt lat="49.53312677331269" lon="9.206034606322646">
<ele>434.2</ele>
<time>2024-05-08T15:54:31Z</time>
</trkpt>
<trkpt lat="49.5331001188606" lon="9.206018429249523">
<ele>434.2</ele>
<time>2024-05-08T15:54:32Z</time>
</trkpt>
<trkpt lat="49.533077236264944" lon="9.20600795187056">
<ele>434.2</ele>
<time>2024-05-08T15:54:33Z</time>
</trkpt>
<trkpt lat="49.53305812552571" lon="9.206000324338676">
<ele>434.2</ele>
<time>2024-05-08T15:54:34Z</time>
</trkpt>
<trkpt lat="49.53303138725459" lon="9.20598791912198">
<ele>434.2</ele>
<time>2024-05-08T15:54:35Z</time>
</trkpt>
<trkpt lat="49.53300850465894" lon="9.205969730392098">
<ele>434.2</ele>
<time>2024-05-08T15:54:36Z</time>
</trkpt>
<trkpt lat="49.53298562206328" lon="9.20594785362482">
<ele>434.2</ele>
<time>2024-05-08T15:54:37Z</time>
</trkpt>
<trkpt lat="49.53296273946762" lon="9.20592681504786">
<ele>434.2</ele>
<time>2024-05-08T15:54:39Z</time>
</trkpt>
<trkpt lat="49.53292845748365" lon="9.205891527235508">
<ele>434.2</ele>
<time>2024-05-08T15:54:40Z</time>
</trkpt>
<trkpt lat="49.53291320241988" lon="9.205876272171736">
<ele>434.2</ele>
<time>2024-05-08T15:54:41Z</time>
</trkpt>
<trkpt lat="49.532897947356105" lon="9.20586864463985">
<ele>434.2</ele>
<time>2024-05-08T15:54:42Z</time>
</trkpt>
<trkpt lat="49.53288646414876" lon="9.205862944945691">
<ele>434.2</ele>
<time>2024-05-08T15:54:43Z</time>
</trkpt>
<trkpt lat="49.532878836616874" lon="9.205860095098616">
<ele>434.2</ele>
<time>2024-05-08T15:54:44Z</time>
</trkpt>
<trkpt lat="49.5328826084733" lon="9.205860095098616">
<ele>434.2</ele>
<time>2024-05-08T15:54:46Z</time>
</trkpt>
<trkpt lat="49.532878836616874" lon="9.205860095098616">
<ele>434.2</ele>
<time>2024-05-08T15:54:50Z</time>
</trkpt>
<trkpt lat="49.532878836616874" lon="9.205858167260883">
<ele>434.2</ele>
<time>2024-05-08T15:54:53Z</time>
</trkpt>
<trkpt lat="49.532874980941415" lon="9.205860095098616">
<ele>434.2</ele>
<time>2024-05-08T15:55:02Z</time>
</trkpt>
<trkpt lat="49.532874980941415" lon="9.205858167260883">
<ele>434.2</ele>
<time>2024-05-08T15:55:08Z</time>
</trkpt>
<trkpt lat="49.53286735340953" lon="9.205853389576076">
<ele>434.2</ele>
<time>2024-05-08T15:55:09Z</time>
</trkpt>
<trkpt lat="49.53285209834576" lon="9.20584861189127">
<ele>434.2</ele>
<time>2024-05-08T15:55:10Z</time>
</trkpt>
<trkpt lat="49.53284069895744" lon="9.205841990187764">
<ele>434.2</ele>
<time>2024-05-08T15:55:11Z</time>
</trkpt>
<trkpt lat="49.53282158821821" lon="9.20584961771965">
<ele>434.2</ele>
<time>2024-05-08T15:55:12Z</time>
</trkpt>
<trkpt lat="49.53280256129801" lon="9.20586864463985">
<ele>434.2</ele>
<time>2024-05-08T15:55:13Z</time>
</trkpt>
<trkpt lat="49.53278345055878" lon="9.205893455073236">
<ele>434.2</ele>
<time>2024-05-08T15:55:14Z</time>
</trkpt>
<trkpt lat="49.53276442363858" lon="9.205924971029162">
<ele>434.2</ele>
<time>2024-05-08T15:55:15Z</time>
</trkpt>
<trkpt lat="49.53274531289935" lon="9.205965036526322">
<ele>434.2</ele>
<time>2024-05-08T15:55:16Z</time>
</trkpt>
<trkpt lat="49.53272243030369" lon="9.20600795187056">
<ele>434.2</ele>
<time>2024-05-08T15:55:17Z</time>
</trkpt>
<trkpt lat="49.53268806450069" lon="9.206051789224148">
<ele>434.2</ele>
<time>2024-05-08T15:55:18Z</time>
</trkpt>
<trkpt lat="49.53266518190503" lon="9.206098476424811">
<ele>434.2</ele>
<time>2024-05-08T15:55:19Z</time>
</trkpt>
<trkpt lat="49.53264615498483" lon="9.206151952967048">
<ele>434.2</ele>
<time>2024-05-08T15:55:20Z</time>
</trkpt>
<trkpt lat="49.5326270442456" lon="9.2062062676996">
<ele>434.2</ele>
<time>2024-05-08T15:55:21Z</time>
</trkpt>
<trkpt lat="49.5326080173254" lon="9.20626351609826">
<ele>434.2</ele>
<time>2024-05-08T15:55:22Z</time>
</trkpt>
<trkpt lat="49.532596534118056" lon="9.206317830830812">
<ele>434.2</ele>
<time>2024-05-08T15:55:23Z</time>
</trkpt>
<trkpt lat="49.53258127905429" lon="9.206373151391745">
<ele>434.2</ele>
<time>2024-05-08T15:55:24Z</time>
</trkpt>
<trkpt lat="49.53256987966597" lon="9.206433249637485">
<ele>434.2</ele>
<time>2024-05-08T15:55:25Z</time>
</trkpt>
<trkpt lat="49.532558396458626" lon="9.206498125568032">
<ele>434.2</ele>
<time>2024-05-08T15:55:26Z</time>
</trkpt>
<trkpt lat="49.532543141394854" lon="9.206569623202084">
<ele>434.2</ele>
<time>2024-05-08T15:55:27Z</time>
</trkpt>
<trkpt lat="49.53252788633108" lon="9.206646904349329">
<ele>434.2</ele>
<time>2024-05-08T15:55:28Z</time>
</trkpt>
<trkpt lat="49.53251263126731" lon="9.206727957352996">
<ele>434.2</ele>
<time>2024-05-08T15:55:29Z</time>
</trkpt>
<trkpt lat="49.53250114805997" lon="9.206809932366014">
<ele>434.2</ele>
<time>2024-05-08T15:55:30Z</time>
</trkpt>
<trkpt lat="49.53249352052808" lon="9.206898612901568">
<ele>434.2</ele>
<time>2024-05-08T15:55:31Z</time>
</trkpt>
<trkpt lat="49.532482121139765" lon="9.206985449418426">
<ele>434.2</ele>
<time>2024-05-08T15:55:32Z</time>
</trkpt>
<trkpt lat="49.532463010400534" lon="9.207068430259824">
<ele>434</ele>
<time>2024-05-08T15:55:33Z</time>
</trkpt>
<trkpt lat="49.53245538286865" lon="9.20715711079538">
<ele>434</ele>
<time>2024-05-08T15:55:35Z</time>
</trkpt>
<trkpt lat="49.53243250027299" lon="9.207322066649796">
<ele>433.8</ele>
<time>2024-05-08T15:55:36Z</time>
</trkpt>
<trkpt lat="49.53241724520922" lon="9.207405047491193">
<ele>433.8</ele>
<time>2024-05-08T15:55:37Z</time>
</trkpt>
<trkpt lat="49.532405845820904" lon="9.20748995617032">
<ele>433.8</ele>
<time>2024-05-08T15:55:38Z</time>
</trkpt>
<trkpt lat="49.53239436261356" lon="9.20757293701172">
<ele>433.8</ele>
<time>2024-05-08T15:55:39Z</time>
</trkpt>
<trkpt lat="49.532382963225245" lon="9.207658767700195">
<ele>433.8</ele>
<time>2024-05-08T15:55:40Z</time>
</trkpt>
<trkpt lat="49.53236762434244" lon="9.207741664722562">
<ele>433.8</ele>
<time>2024-05-08T15:55:41Z</time>
</trkpt>
<trkpt lat="49.53235622495413" lon="9.20782657340169">
<ele>433.8</ele>
<time>2024-05-08T15:55:42Z</time>
</trkpt>
<trkpt lat="49.53234096989035" lon="9.207913326099517">
<ele>433.6</ele>
<time>2024-05-08T15:55:43Z</time>
</trkpt>
<trkpt lat="49.53232948668301" lon="9.207996306940911">
<ele>433.6</ele>
<time>2024-05-08T15:55:44Z</time>
</trkpt>
<trkpt lat="49.5323180872947" lon="9.20808314345777">
<ele>433.4</ele>
<time>2024-05-08T15:55:45Z</time>
</trkpt>
<trkpt lat="49.53231045976281" lon="9.208167046308516">
<ele>433.4</ele>
<time>2024-05-08T15:55:46Z</time>
</trkpt>
<trkpt lat="49.53230660408735" lon="9.208248099312186">
<ele>433.4</ele>
<time>2024-05-08T15:55:47Z</time>
</trkpt>
<trkpt lat="49.53229520469904" lon="9.208330074325204">
<ele>433.4</ele>
<time>2024-05-08T15:55:48Z</time>
</trkpt>
<trkpt lat="49.53228757716715" lon="9.208411211147904">
<ele>433.4</ele>
<time>2024-05-08T15:55:49Z</time>
</trkpt>
<trkpt lat="49.53227994963527" lon="9.208491258323193">
<ele>433.4</ele>
<time>2024-05-08T15:55:50Z</time>
</trkpt>
<trkpt lat="49.53227609395981" lon="9.208571389317513">
<ele>433.4</ele>
<time>2024-05-08T15:55:51Z</time>
</trkpt>
<trkpt lat="49.53226846642792" lon="9.208649592474105">
<ele>433.6</ele>
<time>2024-05-08T15:55:52Z</time>
</trkpt>
<trkpt lat="49.532264694571495" lon="9.208726873621345">
<ele>433.8</ele>
<time>2024-05-08T15:55:53Z</time>
</trkpt>
<trkpt lat="49.53225706703961" lon="9.208803148940206">
<ele>433.8</ele>
<time>2024-05-08T15:55:54Z</time>
</trkpt>
<trkpt lat="49.53225321136415" lon="9.208876574411988">
<ele>433.8</ele>
<time>2024-05-08T15:55:55Z</time>
</trkpt>
<trkpt lat="49.532245583832264" lon="9.208949999883773">
<ele>433.8</ele>
<time>2024-05-08T15:55:56Z</time>
</trkpt>
<trkpt lat="49.53223795630038" lon="9.209019653499126">
<ele>433.8</ele>
<time>2024-05-08T15:55:57Z</time>
</trkpt>
<trkpt lat="49.53221892938018" lon="9.209079667925836">
<ele>433.8</ele>
<time>2024-05-08T15:55:58Z</time>
</trkpt>
<trkpt lat="49.53219596296549" lon="9.209126438945532">
<ele>433.8</ele>
<time>2024-05-08T15:55:59Z</time>
</trkpt>
<trkpt lat="49.53216168098152" lon="9.209161726757884">
<ele>433.8</ele>
<time>2024-05-08T15:56:00Z</time>
</trkpt>
<trkpt lat="49.5321349427104" lon="9.209184609353542">
<ele>433.8</ele>
<time>2024-05-08T15:56:01Z</time>
</trkpt>
<trkpt lat="49.532108288258314" lon="9.209206569939852">
<ele>433.8</ele>
<time>2024-05-08T15:56:02Z</time>
</trkpt>
<trkpt lat="49.532085405662656" lon="9.20923037454486">
<ele>433.8</ele>
<time>2024-05-08T15:56:03Z</time>
</trkpt>
<trkpt lat="49.53207015059888" lon="9.209251329302788">
<ele>433.8</ele>
<time>2024-05-08T15:56:04Z</time>
</trkpt>
<trkpt lat="49.53205103985965" lon="9.209275217726828">
<ele>433.6</ele>
<time>2024-05-08T15:56:05Z</time>
</trkpt>
<trkpt lat="49.532028157263994" lon="9.209298100322483">
<ele>433.6</ele>
<time>2024-05-08T15:56:06Z</time>
</trkpt>
<trkpt lat="49.532005274668336" lon="9.209318133071063">
<ele>433.6</ele>
<time>2024-05-08T15:56:07Z</time>
</trkpt>
<trkpt lat="49.53198239207268" lon="9.209341937676072">
<ele>433.6</ele>
<time>2024-05-08T15:56:08Z</time>
</trkpt>
<trkpt lat="49.53195565380156" lon="9.20936482027173">
<ele>433.6</ele>
<time>2024-05-08T15:56:09Z</time>
</trkpt>
<trkpt lat="49.5319327712059" lon="9.209391558542848">
<ele>433.6</ele>
<time>2024-05-08T15:56:10Z</time>
</trkpt>
<trkpt lat="49.53190611675382" lon="9.209416368976235">
<ele>433.6</ele>
<time>2024-05-08T15:56:11Z</time>
</trkpt>
<trkpt lat="49.53188323415816" lon="9.209442101418972">
<ele>433.6</ele>
<time>2024-05-08T15:56:12Z</time>
</trkpt>
<trkpt lat="49.53185649588704" lon="9.209469761699438">
<ele>433.6</ele>
<time>2024-05-08T15:56:13Z</time>
</trkpt>
<trkpt lat="49.53183361329138" lon="9.209500271826982">
<ele>433.6</ele>
<time>2024-05-08T15:56:14Z</time>
</trkpt>
<trkpt lat="49.531806875020266" lon="9.209527932107449">
<ele>433.6</ele>
<time>2024-05-08T15:56:15Z</time>
</trkpt>
<trkpt lat="49.53178399242461" lon="9.209556514397264">
<ele>433.6</ele>
<time>2024-05-08T15:56:16Z</time>
</trkpt>
<trkpt lat="49.53176110982895" lon="9.20958325266838">
<ele>433.8</ele>
<time>2024-05-08T15:56:17Z</time>
</trkpt>
<trkpt lat="49.53173445537686" lon="9.209609907120466">
<ele>433.8</ele>
<time>2024-05-08T15:56:18Z</time>
</trkpt>
<trkpt lat="49.531711572781205" lon="9.209638573229311">
<ele>434</ele>
<time>2024-05-08T15:56:19Z</time>
</trkpt>
<trkpt lat="49.53168869018555" lon="9.2096633836627">
<ele>434.2</ele>
<time>2024-05-08T15:56:20Z</time>
</trkpt>
<trkpt lat="49.53166195191443" lon="9.209690038114786">
<ele>434.4</ele>
<time>2024-05-08T15:56:21Z</time>
</trkpt>
<trkpt lat="49.53163521364331" lon="9.209712920710444">
<ele>434.6</ele>
<time>2024-05-08T15:56:22Z</time>
</trkpt>
<trkpt lat="49.53160855919123" lon="9.209736809134483">
<ele>434.8</ele>
<time>2024-05-08T15:56:23Z</time>
</trkpt>
<trkpt lat="49.53158182092011" lon="9.20975868590176">
<ele>435</ele>
<time>2024-05-08T15:56:24Z</time>
</trkpt>
<trkpt lat="49.53155893832445" lon="9.20977871865034">
<ele>435.2</ele>
<time>2024-05-08T15:56:25Z</time>
</trkpt>
<trkpt lat="49.531532283872366" lon="9.209799757227302">
<ele>435.4</ele>
<time>2024-05-08T15:56:26Z</time>
</trkpt>
<trkpt lat="49.53150931745768" lon="9.209823561832309">
<ele>435.6</ele>
<time>2024-05-08T15:56:27Z</time>
</trkpt>
<trkpt lat="49.53148266300559" lon="9.209844516590238">
<ele>435.8</ele>
<time>2024-05-08T15:56:28Z</time>
</trkpt>
<trkpt lat="49.53145592473447" lon="9.209863627329469">
<ele>436</ele>
<time>2024-05-08T15:56:29Z</time>
</trkpt>
<trkpt lat="49.53142927028239" lon="9.20987980440259">
<ele>436.4</ele>
<time>2024-05-08T15:56:30Z</time>
</trkpt>
<trkpt lat="49.53139876015484" lon="9.209896987304091">
<ele>436.6</ele>
<time>2024-05-08T15:56:31Z</time>
</trkpt>
<trkpt lat="49.531372021883726" lon="9.209915092214942">
<ele>436.8</ele>
<time>2024-05-08T15:56:32Z</time>
</trkpt>
<trkpt lat="49.53134536743164" lon="9.209935124963522">
<ele>437</ele>
<time>2024-05-08T15:56:33Z</time>
</trkpt>
<trkpt lat="49.53131862916052" lon="9.209955157712102">
<ele>437.2</ele>
<time>2024-05-08T15:56:34Z</time>
</trkpt>
<trkpt lat="49.53128811903298" lon="9.209973262622952">
<ele>437.4</ele>
<time>2024-05-08T15:56:35Z</time>
</trkpt>
<trkpt lat="49.53126523643732" lon="9.209989523515103">
<ele>437.6</ele>
<time>2024-05-08T15:56:36Z</time>
</trkpt>
<trkpt lat="49.531234726309776" lon="9.210002850741148">
<ele>437.8</ele>
<time>2024-05-08T15:56:37Z</time>
</trkpt>
<trkpt lat="49.53120798803866" lon="9.210015255957842">
<ele>437.8</ele>
<time>2024-05-08T15:56:38Z</time>
</trkpt>
<trkpt lat="49.531181333586574" lon="9.21002196148038">
<ele>438</ele>
<time>2024-05-08T15:56:39Z</time>
</trkpt>
<trkpt lat="49.53115073964" lon="9.210031433030965">
<ele>438.2</ele>
<time>2024-05-08T15:56:40Z</time>
</trkpt>
<trkpt lat="49.53112022951245" lon="9.210042916238308">
<ele>438.6</ele>
<time>2024-05-08T15:56:41Z</time>
</trkpt>
<trkpt lat="49.53109357506037" lon="9.21005624346435">
<ele>438.8</ele>
<time>2024-05-08T15:56:42Z</time>
</trkpt>
<trkpt lat="49.53106306493282" lon="9.210073426365852">
<ele>439</ele>
<time>2024-05-08T15:56:43Z</time>
</trkpt>
<trkpt lat="49.531036326661706" lon="9.210095386952162">
<ele>439.2</ele>
<time>2024-05-08T15:56:44Z</time>
</trkpt>
<trkpt lat="49.53100967220962" lon="9.21011634171009">
<ele>439.4</ele>
<time>2024-05-08T15:56:45Z</time>
</trkpt>
<trkpt lat="49.53097907826304" lon="9.210140146315098">
<ele>439.4</ele>
<time>2024-05-08T15:56:46Z</time>
</trkpt>
<trkpt lat="49.5309485681355" lon="9.210161184892058">
<ele>439.6</ele>
<time>2024-05-08T15:56:47Z</time>
</trkpt>
<trkpt lat="49.530921913683414" lon="9.210180211812258">
<ele>439.8</ele>
<time>2024-05-08T15:56:48Z</time>
</trkpt>
<trkpt lat="49.53089140355587" lon="9.210201250389218">
<ele>440</ele>
<time>2024-05-08T15:56:49Z</time>
</trkpt>
<trkpt lat="49.53086466528475" lon="9.210223127156496">
<ele>440.2</ele>
<time>2024-05-08T15:56:50Z</time>
</trkpt>
<trkpt lat="49.53083801083267" lon="9.210247015580537">
<ele>440.4</ele>
<time>2024-05-08T15:56:51Z</time>
</trkpt>
<trkpt lat="49.53081127256155" lon="9.210267970338464">
<ele>440.6</ele>
<time>2024-05-08T15:56:52Z</time>
</trkpt>
<trkpt lat="49.530780762434006" lon="9.210289930924771">
<ele>440.8</ele>
<time>2024-05-08T15:56:53Z</time>
</trkpt>
<trkpt lat="49.53075402416289" lon="9.21031373552978">
<ele>441</ele>
<time>2024-05-08T15:56:54Z</time>
</trkpt>
<trkpt lat="49.5307273697108" lon="9.210339467972515">
<ele>441.4</ele>
<time>2024-05-08T15:56:55Z</time>
</trkpt>
<trkpt lat="49.530700631439686" lon="9.210370061919091">
<ele>441.6</ele>
<time>2024-05-08T15:56:56Z</time>
</trkpt>
<trkpt lat="49.5306739769876" lon="9.210399566218255">
<ele>441.8</ele>
<time>2024-05-08T15:56:57Z</time>
</trkpt>
<trkpt lat="49.53064723871648" lon="9.21043200418353">
<ele>442</ele>
<time>2024-05-08T15:56:58Z</time>
</trkpt>
<trkpt lat="49.530620500445366" lon="9.210459664463997">
<ele>442.2</ele>
<time>2024-05-08T15:56:59Z</time>
</trkpt>
<trkpt lat="49.53059384599328" lon="9.210488246753812">
<ele>442.2</ele>
<time>2024-05-08T15:57:00Z</time>
</trkpt>
<trkpt lat="49.53056710772216" lon="9.210514985024927">
<ele>442.4</ele>
<time>2024-05-08T15:57:01Z</time>
</trkpt>
<trkpt lat="49.53054045327008" lon="9.210543567314744">
<ele>442.4</ele>
<time>2024-05-08T15:57:02Z</time>
</trkpt>
<trkpt lat="49.53051757067442" lon="9.21057122759521">
<ele>442.6</ele>
<time>2024-05-08T15:57:03Z</time>
</trkpt>
<trkpt lat="49.5304908324033" lon="9.210599893704057">
<ele>442.6</ele>
<time>2024-05-08T15:57:04Z</time>
</trkpt>
<trkpt lat="49.53046794980765" lon="9.210626548156142">
<ele>442.8</ele>
<time>2024-05-08T15:57:05Z</time>
</trkpt>
<trkpt lat="49.53044121153653" lon="9.21065043658018">
<ele>443</ele>
<time>2024-05-08T15:57:06Z</time>
</trkpt>
<trkpt lat="49.53041832894087" lon="9.210675163194535">
<ele>443.2</ele>
<time>2024-05-08T15:57:07Z</time>
</trkpt>
<trkpt lat="49.53039167448878" lon="9.210701901465654">
<ele>443.4</ele>
<time>2024-05-08T15:57:08Z</time>
</trkpt>
<trkpt lat="49.530364936217666" lon="9.210728639736772">
<ele>443.6</ele>
<time>2024-05-08T15:57:09Z</time>
</trkpt>
<trkpt lat="49.53033828176558" lon="9.210758144035935">
<ele>443.8</ele>
<time>2024-05-08T15:57:10Z</time>
</trkpt>
<trkpt lat="49.53031154349446" lon="9.21078865416348">
<ele>444.2</ele>
<time>2024-05-08T15:57:11Z</time>
</trkpt>
<trkpt lat="49.530284805223346" lon="9.210824947804213">
<ele>444.2</ele>
<time>2024-05-08T15:57:12Z</time>
</trkpt>
<trkpt lat="49.53025815077126" lon="9.210856379941106">
<ele>444.4</ele>
<time>2024-05-08T15:57:13Z</time>
</trkpt>
<trkpt lat="49.53023141250014" lon="9.210889739915729">
<ele>444.6</ele>
<time>2024-05-08T15:57:14Z</time>
</trkpt>
<trkpt lat="49.530208529904485" lon="9.21092695556581">
<ele>444.8</ele>
<time>2024-05-08T15:57:15Z</time>
</trkpt>
<trkpt lat="49.530185647308826" lon="9.210963249206545">
<ele>445.2</ele>
<time>2024-05-08T15:57:16Z</time>
</trkpt>
<trkpt lat="49.53015899285674" lon="9.210994681343436">
<ele>445.4</ele>
<time>2024-05-08T15:57:17Z</time>
</trkpt>
<trkpt lat="49.530132254585624" lon="9.21102804131806">
<ele>445.6</ele>
<time>2024-05-08T15:57:18Z</time>
</trkpt>
<trkpt lat="49.530109371989965" lon="9.211061401292682">
<ele>445.6</ele>
<time>2024-05-08T15:57:19Z</time>
</trkpt>
<trkpt lat="49.53008263371885" lon="9.211098616942763">
<ele>445.8</ele>
<time>2024-05-08T15:57:20Z</time>
</trkpt>
<trkpt lat="49.53005597926676" lon="9.211132982745768">
<ele>446</ele>
<time>2024-05-08T15:57:21Z</time>
</trkpt>
<trkpt lat="49.53002546913922" lon="9.211170114576817">
<ele>446</ele>
<time>2024-05-08T15:57:22Z</time>
</trkpt>
<trkpt lat="49.5299987308681" lon="9.211203558370473">
<ele>446.2</ele>
<time>2024-05-08T15:57:23Z</time>
</trkpt>
<trkpt lat="49.529972076416016" lon="9.211239768192172">
<ele>446.2</ele>
<time>2024-05-08T15:57:24Z</time>
</trkpt>
<trkpt lat="49.5299453381449" lon="9.211275056004524">
<ele>446.4</ele>
<time>2024-05-08T15:57:25Z</time>
</trkpt>
<trkpt lat="49.52992245554924" lon="9.211310343816876">
<ele>446.6</ele>
<time>2024-05-08T15:57:26Z</time>
</trkpt>
<trkpt lat="49.52989571727812" lon="9.211346553638576">
<ele>446.8</ele>
<time>2024-05-08T15:57:27Z</time>
</trkpt>
<trkpt lat="49.529872834682465" lon="9.21138184145093">
<ele>446.8</ele>
<time>2024-05-08T15:57:28Z</time>
</trkpt>
<trkpt lat="49.52984618023038" lon="9.211418135091662">
<ele>447</ele>
<time>2024-05-08T15:57:29Z</time>
</trkpt>
<trkpt lat="49.52981944195926" lon="9.211453422904016">
<ele>447</ele>
<time>2024-05-08T15:57:30Z</time>
</trkpt>
<trkpt lat="49.52978893183172" lon="9.211484855040908">
<ele>447</ele>
<time>2024-05-08T15:57:31Z</time>
</trkpt>
<trkpt lat="49.5297621935606" lon="9.21151821501553">
<ele>447.2</ele>
<time>2024-05-08T15:57:32Z</time>
</trkpt>
<trkpt lat="49.529735539108515" lon="9.211553502827885">
<ele>447.2</ele>
<time>2024-05-08T15:57:33Z</time>
</trkpt>
<trkpt lat="49.5297088008374" lon="9.211586946621535">
<ele>447.4</ele>
<time>2024-05-08T15:57:34Z</time>
</trkpt>
<trkpt lat="49.52968214638531" lon="9.21162030659616">
<ele>447.6</ele>
<time>2024-05-08T15:57:35Z</time>
</trkpt>
<trkpt lat="49.529655408114195" lon="9.211654588580132">
<ele>447.6</ele>
<time>2024-05-08T15:57:36Z</time>
</trkpt>
<trkpt lat="49.52962875366211" lon="9.211689876392484">
<ele>447.8</ele>
<time>2024-05-08T15:57:37Z</time>
</trkpt>
<trkpt lat="49.52960578724742" lon="9.211727092042564">
<ele>448</ele>
<time>2024-05-08T15:57:38Z</time>
</trkpt>
<trkpt lat="49.529579132795334" lon="9.211763301864266">
<ele>448</ele>
<time>2024-05-08T15:57:39Z</time>
</trkpt>
<trkpt lat="49.52955239452422" lon="9.21179674565792">
<ele>448.2</ele>
<time>2024-05-08T15:57:40Z</time>
</trkpt>
<trkpt lat="49.52952574007213" lon="9.211830105632544">
<ele>448.4</ele>
<time>2024-05-08T15:57:41Z</time>
</trkpt>
<trkpt lat="49.52949522994459" lon="9.211863465607166">
<ele>448.4</ele>
<time>2024-05-08T15:57:42Z</time>
</trkpt>
<trkpt lat="49.52946849167347" lon="9.211898753419518">
<ele>448.6</ele>
<time>2024-05-08T15:57:43Z</time>
</trkpt>
<trkpt lat="49.52944175340235" lon="9.211933119222522">
<ele>448.8</ele>
<time>2024-05-08T15:57:44Z</time>
</trkpt>
<trkpt lat="49.52941509895027" lon="9.211968407034874">
<ele>449</ele>
<time>2024-05-08T15:57:45Z</time>
</trkpt>
<trkpt lat="49.52938836067915" lon="9.212003694847226">
<ele>449</ele>
<time>2024-05-08T15:57:46Z</time>
</trkpt>
<trkpt lat="49.529361706227064" lon="9.212041832506657">
<ele>449.2</ele>
<time>2024-05-08T15:57:47Z</time>
</trkpt>
<trkpt lat="49.529338823631406" lon="9.212079970166087">
<ele>449.2</ele>
<time>2024-05-08T15:57:48Z</time>
</trkpt>
<trkpt lat="49.52930831350386" lon="9.21211333014071">
<ele>449.4</ele>
<time>2024-05-08T15:57:49Z</time>
</trkpt>
<trkpt lat="49.529281575232744" lon="9.212149539962413">
<ele>449.6</ele>
<time>2024-05-08T15:57:50Z</time>
</trkpt>
<trkpt lat="49.52925483696163" lon="9.212184827774765">
<ele>449.6</ele>
<time>2024-05-08T15:57:51Z</time>
</trkpt>
<trkpt lat="49.52922818250954" lon="9.212222043424845">
<ele>449.8</ele>
<time>2024-05-08T15:57:52Z</time>
</trkpt>
<trkpt lat="49.529197672382" lon="9.212256409227848">
<ele>450</ele>
<time>2024-05-08T15:57:53Z</time>
</trkpt>
<trkpt lat="49.52917093411088" lon="9.21228976920247">
<ele>450</ele>
<time>2024-05-08T15:57:54Z</time>
</trkpt>
<trkpt lat="49.529144279658794" lon="9.212325057014825">
<ele>450.2</ele>
<time>2024-05-08T15:57:55Z</time>
</trkpt>
<trkpt lat="49.52911376953125" lon="9.212358416989446">
<ele>450.4</ele>
<time>2024-05-08T15:57:56Z</time>
</trkpt>
<trkpt lat="49.52908703126013" lon="9.212391776964068">
<ele>450.6</ele>
<time>2024-05-08T15:57:57Z</time>
</trkpt>
<trkpt lat="49.52905652113259" lon="9.21242706477642">
<ele>450.8</ele>
<time>2024-05-08T15:57:58Z</time>
</trkpt>
<trkpt lat="49.52902978286147" lon="9.212461430579424">
<ele>451</ele>
<time>2024-05-08T15:57:59Z</time>
</trkpt>
<trkpt lat="49.52899927273393" lon="9.212496718391776">
<ele>451.2</ele>
<time>2024-05-08T15:58:00Z</time>
</trkpt>
<trkpt lat="49.52896876260638" lon="9.212532006204128">
<ele>451.4</ele>
<time>2024-05-08T15:58:01Z</time>
</trkpt>
<trkpt lat="49.5289421081543" lon="9.21256821602583">
<ele>451.6</ele>
<time>2024-05-08T15:58:02Z</time>
</trkpt>
<trkpt lat="49.52891151420772" lon="9.21260350383818">
<ele>451.6</ele>
<time>2024-05-08T15:58:03Z</time>
</trkpt>
<trkpt lat="49.528884859755635" lon="9.212637869641185">
<ele>451.8</ele>
<time>2024-05-08T15:58:04Z</time>
</trkpt>
<trkpt lat="49.52885434962809" lon="9.212675085291266">
<ele>451.8</ele>
<time>2024-05-08T15:58:05Z</time>
</trkpt>
<trkpt lat="49.52882383950055" lon="9.212713222950695">
<ele>452</ele>
<time>2024-05-08T15:58:06Z</time>
</trkpt>
<trkpt lat="49.528793329373" lon="9.212751360610127">
<ele>452</ele>
<time>2024-05-08T15:58:07Z</time>
</trkpt>
<trkpt lat="49.528762735426426" lon="9.21278664842248">
<ele>452</ele>
<time>2024-05-08T15:58:08Z</time>
</trkpt>
<trkpt lat="49.52873222529888" lon="9.212821936234832">
<ele>452.2</ele>
<time>2024-05-08T15:58:09Z</time>
</trkpt>
<trkpt lat="49.52870171517134" lon="9.212858146056533">
<ele>452.4</ele>
<time>2024-05-08T15:58:10Z</time>
</trkpt>
<trkpt lat="49.52867506071925" lon="9.212898211553693">
<ele>452.4</ele>
<time>2024-05-08T15:58:11Z</time>
</trkpt>
<trkpt lat="49.528648322448134" lon="9.212936349213123">
<ele>452.6</ele>
<time>2024-05-08T15:58:12Z</time>
</trkpt>
<trkpt lat="49.52862166799605" lon="9.212973564863203">
<ele>452.8</ele>
<time>2024-05-08T15:58:13Z</time>
</trkpt>
<trkpt lat="49.52859492972493" lon="9.213011702522635">
<ele>452.8</ele>
<time>2024-05-08T15:58:14Z</time>
</trkpt>
<trkpt lat="49.528568191453815" lon="9.213051768019795">
<ele>453</ele>
<time>2024-05-08T15:58:15Z</time>
</trkpt>
<trkpt lat="49.52854153700173" lon="9.213091833516955">
<ele>453</ele>
<time>2024-05-08T15:58:16Z</time>
</trkpt>
<trkpt lat="49.528511026874185" lon="9.213132821023464">
<ele>453</ele>
<time>2024-05-08T15:58:17Z</time>
</trkpt>
<trkpt lat="49.52848051674664" lon="9.213171880692244">
<ele>453</ele>
<time>2024-05-08T15:58:18Z</time>
</trkpt>
<trkpt lat="49.52845377847552" lon="9.213214796036482">
<ele>453.2</ele>
<time>2024-05-08T15:58:19Z</time>
</trkpt>
<trkpt lat="49.52842326834798" lon="9.2132587172091">
<ele>453.2</ele>
<time>2024-05-08T15:58:20Z</time>
</trkpt>
<trkpt lat="49.52839653007686" lon="9.213303560391068">
<ele>453.2</ele>
<time>2024-05-08T15:58:21Z</time>
</trkpt>
<trkpt lat="49.528369875624776" lon="9.213343542069197">
<ele>453.2</ele>
<time>2024-05-08T15:58:22Z</time>
</trkpt>
<trkpt lat="49.52834313735366" lon="9.213383607566357">
<ele>453.2</ele>
<time>2024-05-08T15:58:23Z</time>
</trkpt>
<trkpt lat="49.528312627226114" lon="9.213421745225787">
<ele>453.2</ele>
<time>2024-05-08T15:58:24Z</time>
</trkpt>
<trkpt lat="49.52828211709857" lon="9.21345803886652">
<ele>453.2</ele>
<time>2024-05-08T15:58:25Z</time>
</trkpt>
<trkpt lat="49.528251606971025" lon="9.21349617652595">
<ele>453.2</ele>
<time>2024-05-08T15:58:26Z</time>
</trkpt>
<trkpt lat="49.52822109684348" lon="9.21353816986084">
<ele>453.2</ele>
<time>2024-05-08T15:58:27Z</time>
</trkpt>
<trkpt lat="49.52818673104048" lon="9.213580079376698">
<ele>453.2</ele>
<time>2024-05-08T15:58:28Z</time>
</trkpt>
<trkpt lat="49.52815622091293" lon="9.213622072711589">
<ele>453.4</ele>
<time>2024-05-08T15:58:29Z</time>
</trkpt>
<trkpt lat="49.52812193892896" lon="9.213663060218096">
<ele>453.4</ele>
<time>2024-05-08T15:58:30Z</time>
</trkpt>
<trkpt lat="49.52808757312596" lon="9.213700275868176">
<ele>453.6</ele>
<time>2024-05-08T15:58:31Z</time>
</trkpt>
<trkpt lat="49.528053207322955" lon="9.213727936148643">
<ele>453.8</ele>
<time>2024-05-08T15:58:32Z</time>
</trkpt>
<trkpt lat="49.528015069663525" lon="9.213740341365336">
<ele>454</ele>
<time>2024-05-08T15:58:33Z</time>
</trkpt>
<trkpt lat="49.527976932004094" lon="9.2137336358428">
<ele>454.2</ele>
<time>2024-05-08T15:58:34Z</time>
</trkpt>
<trkpt lat="49.52794265002012" lon="9.213720308616756">
<ele>454.4</ele>
<time>2024-05-08T15:58:35Z</time>
</trkpt>
<trkpt lat="49.52791213989258" lon="9.213703125715256">
<ele>454.6</ele>
<time>2024-05-08T15:58:36Z</time>
</trkpt>
<trkpt lat="49.527881545946" lon="9.213683092966676">
<ele>454.8</ele>
<time>2024-05-08T15:58:37Z</time>
</trkpt>
<trkpt lat="49.52785489149392" lon="9.213663060218096">
<ele>454.8</ele>
<time>2024-05-08T15:58:38Z</time>
</trkpt>
<trkpt lat="49.52782052569091" lon="9.213642105460169">
<ele>455</ele>
<time>2024-05-08T15:58:39Z</time>
</trkpt>
<trkpt lat="49.52779001556337" lon="9.213620144873856">
<ele>455</ele>
<time>2024-05-08T15:58:40Z</time>
</trkpt>
<trkpt lat="49.5277557335794" lon="9.213598184287548">
<ele>455.2</ele>
<time>2024-05-08T15:58:41Z</time>
</trkpt>
<trkpt lat="49.527721367776394" lon="9.213578151538968">
<ele>455.2</ele>
<time>2024-05-08T15:58:42Z</time>
</trkpt>
<trkpt lat="49.52768700197339" lon="9.21355627477169">
<ele>455.2</ele>
<time>2024-05-08T15:58:43Z</time>
</trkpt>
<trkpt lat="49.52765271998942" lon="9.213531464338304">
<ele>455.2</ele>
<time>2024-05-08T15:58:44Z</time>
</trkpt>
<trkpt lat="49.527618354186416" lon="9.213508581742644">
<ele>455.2</ele>
<time>2024-05-08T15:58:45Z</time>
</trkpt>
<trkpt lat="49.52758407220245" lon="9.213486621156337">
<ele>455.2</ele>
<time>2024-05-08T15:58:46Z</time>
</trkpt>
<trkpt lat="49.52754970639944" lon="9.213466588407757">
<ele>455.4</ele>
<time>2024-05-08T15:58:47Z</time>
</trkpt>
<trkpt lat="49.52751156874001" lon="9.213446555659177">
<ele>455.4</ele>
<time>2024-05-08T15:58:48Z</time>
</trkpt>
<trkpt lat="49.52747343108058" lon="9.213426522910597">
<ele>455.4</ele>
<time>2024-05-08T15:58:49Z</time>
</trkpt>
<trkpt lat="49.527439065277576" lon="9.213408417999744">
<ele>455.4</ele>
<time>2024-05-08T15:58:50Z</time>
</trkpt>
<trkpt lat="49.527400927618146" lon="9.213395090773702">
<ele>455.6</ele>
<time>2024-05-08T15:58:51Z</time>
</trkpt>
<trkpt lat="49.52736656181514" lon="9.21338176354766">
<ele>455.6</ele>
<time>2024-05-08T15:58:52Z</time>
</trkpt>
<trkpt lat="49.52732842415571" lon="9.213368352502584">
<ele>455.8</ele>
<time>2024-05-08T15:58:53Z</time>
</trkpt>
<trkpt lat="49.52729028649628" lon="9.213355025276542">
<ele>456</ele>
<time>2024-05-08T15:58:54Z</time>
</trkpt>
<trkpt lat="49.527248376980424" lon="9.213343542069197">
<ele>456.2</ele>
<time>2024-05-08T15:58:55Z</time>
</trkpt>
<trkpt lat="49.52721015550196" lon="9.213333064690232">
<ele>456.2</ele>
<time>2024-05-08T15:58:56Z</time>
</trkpt>
<trkpt lat="49.52717201784253" lon="9.213324515148996">
<ele>456.4</ele>
<time>2024-05-08T15:58:57Z</time>
</trkpt>
<trkpt lat="49.5271338801831" lon="9.213316887617111">
<ele>456.4</ele>
<time>2024-05-08T15:58:58Z</time>
</trkpt>
<trkpt lat="49.52709959819913" lon="9.213308254256845">
<ele>456.6</ele>
<time>2024-05-08T15:58:59Z</time>
</trkpt>
<trkpt lat="49.52705760486424" lon="9.21329878270626">
<ele>456.6</ele>
<time>2024-05-08T15:59:00Z</time>
</trkpt>
<trkpt lat="49.52701946720481" lon="9.213290149345994">
<ele>456.8</ele>
<time>2024-05-08T15:59:01Z</time>
</trkpt>
<trkpt lat="49.52698132954538" lon="9.21327874995768">
<ele>457</ele>
<time>2024-05-08T15:59:02Z</time>
</trkpt>
<trkpt lat="49.52694319188595" lon="9.213266344740989">
<ele>457</ele>
<time>2024-05-08T15:59:03Z</time>
</trkpt>
<trkpt lat="49.52690505422652" lon="9.213254861533642">
<ele>457.2</ele>
<time>2024-05-08T15:59:04Z</time>
</trkpt>
<trkpt lat="49.526866832748055" lon="9.213243462145329">
<ele>457.4</ele>
<time>2024-05-08T15:59:05Z</time>
</trkpt>
<trkpt lat="49.526828695088625" lon="9.213232984766364">
<ele>457.6</ele>
<time>2024-05-08T15:59:06Z</time>
</trkpt>
<trkpt lat="49.52679441310465" lon="9.21322150155902">
<ele>457.6</ele>
<time>2024-05-08T15:59:07Z</time>
</trkpt>
<trkpt lat="49.52675627544522" lon="9.213210102170706">
<ele>457.8</ele>
<time>2024-05-08T15:59:08Z</time>
</trkpt>
<trkpt lat="49.52671813778579" lon="9.21319861896336">
<ele>458</ele>
<time>2024-05-08T15:59:09Z</time>
</trkpt>
<trkpt lat="49.52667991630733" lon="9.213185291737318">
<ele>458</ele>
<time>2024-05-08T15:59:10Z</time>
</trkpt>
<trkpt lat="49.5266417786479" lon="9.213171880692244">
<ele>458.2</ele>
<time>2024-05-08T15:59:11Z</time>
</trkpt>
<trkpt lat="49.52660364098847" lon="9.2131585534662">
<ele>458.4</ele>
<time>2024-05-08T15:59:12Z</time>
</trkpt>
<trkpt lat="49.5265693590045" lon="9.213145226240158">
<ele>458.6</ele>
<time>2024-05-08T15:59:13Z</time>
</trkpt>
<trkpt lat="49.52652736566961" lon="9.213129971176386">
<ele>458.8</ele>
<time>2024-05-08T15:59:14Z</time>
</trkpt>
<trkpt lat="49.526492999866605" lon="9.213116643950343">
<ele>458.8</ele>
<time>2024-05-08T15:59:15Z</time>
</trkpt>
<trkpt lat="49.52645109035075" lon="9.213105160742998">
<ele>459</ele>
<time>2024-05-08T15:59:16Z</time>
</trkpt>
<trkpt lat="49.526416724547744" lon="9.213091833516955">
<ele>459</ele>
<time>2024-05-08T15:59:17Z</time>
</trkpt>
<trkpt lat="49.526374815031886" lon="9.213076578453183">
<ele>459.2</ele>
<time>2024-05-08T15:59:18Z</time>
</trkpt>
<trkpt lat="49.526336593553424" lon="9.2130583897233">
<ele>459.2</ele>
<time>2024-05-08T15:59:19Z</time>
</trkpt>
<trkpt lat="49.52629845589399" lon="9.213038440793753">
<ele>459.4</ele>
<time>2024-05-08T15:59:20Z</time>
</trkpt>
<trkpt lat="49.526256546378136" lon="9.21302025206387">
<ele>459.4</ele>
<time>2024-05-08T15:59:21Z</time>
</trkpt>
<trkpt lat="49.526218408718705" lon="9.212998375296593">
<ele>459.6</ele>
<time>2024-05-08T15:59:22Z</time>
</trkpt>
<trkpt lat="49.52618018724024" lon="9.212978342548013">
<ele>459.6</ele>
<time>2024-05-08T15:59:23Z</time>
</trkpt>
<trkpt lat="49.52614204958081" lon="9.212958309799433">
<ele>459.8</ele>
<time>2024-05-08T15:59:24Z</time>
</trkpt>
<trkpt lat="49.52610391192138" lon="9.212938277050853">
<ele>459.8</ele>
<time>2024-05-08T15:59:25Z</time>
</trkpt>
<trkpt lat="49.52606577426195" lon="9.212916316464543">
<ele>460</ele>
<time>2024-05-08T15:59:26Z</time>
</trkpt>
<trkpt lat="49.52602763660252" lon="9.212893433868883">
<ele>460</ele>
<time>2024-05-08T15:59:27Z</time>
</trkpt>
<trkpt lat="49.52599327079952" lon="9.212871473282576">
<ele>460.2</ele>
<time>2024-05-08T15:59:28Z</time>
</trkpt>
<trkpt lat="49.52595513314009" lon="9.21284674666822">
<ele>460.4</ele>
<time>2024-05-08T15:59:29Z</time>
</trkpt>
<trkpt lat="49.52591699548066" lon="9.21282285824418">
<ele>460.4</ele>
<time>2024-05-08T15:59:30Z</time>
</trkpt>
<trkpt lat="49.525878857821226" lon="9.212798047810791">
<ele>460.6</ele>
<time>2024-05-08T15:59:31Z</time>
</trkpt>
<trkpt lat="49.52584449201822" lon="9.212773321196437">
<ele>460.6</ele>
<time>2024-05-08T15:59:32Z</time>
</trkpt>
<trkpt lat="49.52580635435879" lon="9.21274851076305">
<ele>460.8</ele>
<time>2024-05-08T15:59:33Z</time>
</trkpt>
<trkpt lat="49.52576821669936" lon="9.21272462233901">
<ele>460.8</ele>
<time>2024-05-08T15:59:34Z</time>
</trkpt>
<trkpt lat="49.52573007903993" lon="9.212701739743352">
<ele>461</ele>
<time>2024-05-08T15:59:35Z</time>
</trkpt>
<trkpt lat="49.525688169524074" lon="9.212679862976074">
<ele>461</ele>
<time>2024-05-08T15:59:36Z</time>
</trkpt>
<trkpt lat="49.52564994804561" lon="9.212656896561384">
<ele>461</ele>
<time>2024-05-08T15:59:37Z</time>
</trkpt>
<trkpt lat="49.52561181038618" lon="9.212631164118648">
<ele>461</ele>
<time>2024-05-08T15:59:38Z</time>
</trkpt>
<trkpt lat="49.52556990087032" lon="9.212604509666562">
<ele>461</ele>
<time>2024-05-08T15:59:39Z</time>
</trkpt>
<trkpt lat="49.52553176321089" lon="9.212578693404794">
<ele>461.2</ele>
<time>2024-05-08T15:59:40Z</time>
</trkpt>
<trkpt lat="49.52549354173243" lon="9.212554888799788">
<ele>461.2</ele>
<time>2024-05-08T15:59:41Z</time>
</trkpt>
<trkpt lat="49.525455404073" lon="9.212532006204128">
<ele>461.4</ele>
<time>2024-05-08T15:59:42Z</time>
</trkpt>
<trkpt lat="49.52541726641357" lon="9.21251004561782">
<ele>461.6</ele>
<time>2024-05-08T15:59:43Z</time>
</trkpt>
<trkpt lat="49.52537912875414" lon="9.212486241012812">
<ele>461.6</ele>
<time>2024-05-08T15:59:44Z</time>
</trkpt>
<trkpt lat="49.52533721923828" lon="9.212461430579424">
<ele>461.6</ele>
<time>2024-05-08T15:59:45Z</time>
</trkpt>
<trkpt lat="49.52529899775982" lon="9.212438547983766">
<ele>461.8</ele>
<time>2024-05-08T15:59:46Z</time>
</trkpt>
<trkpt lat="49.52525708824396" lon="9.212416587397456">
<ele>461.8</ele>
<time>2024-05-08T15:59:47Z</time>
</trkpt>
<trkpt lat="49.52521509490907" lon="9.212396554648876">
<ele>461.8</ele>
<time>2024-05-08T15:59:48Z</time>
</trkpt>
<trkpt lat="49.525173185393214" lon="9.212378449738026">
<ele>461.8</ele>
<time>2024-05-08T15:59:49Z</time>
</trkpt>
<trkpt lat="49.52513496391475" lon="9.212356489151716">
<ele>462</ele>
<time>2024-05-08T15:59:50Z</time>
</trkpt>
<trkpt lat="49.525093054398894" lon="9.212336540222168">
<ele>462</ele>
<time>2024-05-08T15:59:51Z</time>
</trkpt>
<trkpt lat="49.525051061064005" lon="9.212320279330015">
<ele>462</ele>
<time>2024-05-08T15:59:52Z</time>
</trkpt>
<trkpt lat="49.52500915154815" lon="9.212305024266245">
<ele>462.2</ele>
<time>2024-05-08T15:59:53Z</time>
</trkpt>
<trkpt lat="49.5249633025378" lon="9.21228976920247">
<ele>462.2</ele>
<time>2024-05-08T15:59:54Z</time>
</trkpt>
<trkpt lat="49.52492516487837" lon="9.21227359212935">
<ele>462.4</ele>
<time>2024-05-08T15:59:55Z</time>
</trkpt>
<trkpt lat="49.52488325536251" lon="9.212256409227848">
<ele>462.6</ele>
<time>2024-05-08T15:59:56Z</time>
</trkpt>
<trkpt lat="49.52484126202762" lon="9.212242998182774">
<ele>462.8</ele>
<time>2024-05-08T15:59:57Z</time>
</trkpt>
<trkpt lat="49.52479926869273" lon="9.212228748947382">
<ele>462.8</ele>
<time>2024-05-08T15:59:58Z</time>
</trkpt>
<trkpt lat="49.524753503501415" lon="9.21221542172134">
<ele>463</ele>
<time>2024-05-08T15:59:59Z</time>
</trkpt>
<trkpt lat="49.52471159398556" lon="9.212200082838535">
<ele>463</ele>
<time>2024-05-08T16:00:00Z</time>
</trkpt>
<trkpt lat="49.52467345632613" lon="9.212188683450222">
<ele>463</ele>
<time>2024-05-08T16:00:01Z</time>
</trkpt>
<trkpt lat="49.52463146299124" lon="9.21217535622418">
<ele>463.2</ele>
<time>2024-05-08T16:00:02Z</time>
</trkpt>
<trkpt lat="49.52459332533181" lon="9.212160101160409">
<ele>463.2</ele>
<time>2024-05-08T16:00:03Z</time>
</trkpt>
<trkpt lat="49.52455133199692" lon="9.212142918258904">
<ele>463.2</ele>
<time>2024-05-08T16:00:04Z</time>
</trkpt>
<trkpt lat="49.52451319433749" lon="9.212124813348057">
<ele>463.2</ele>
<time>2024-05-08T16:00:05Z</time>
</trkpt>
<trkpt lat="49.52447891235352" lon="9.21211333014071">
<ele>463.2</ele>
<time>2024-05-08T16:00:06Z</time>
</trkpt>
<trkpt lat="49.52444831840694" lon="9.212118107825518">
<ele>463.2</ele>
<time>2024-05-08T16:00:07Z</time>
</trkpt>
<trkpt lat="49.524417808279395" lon="9.212141912430525">
<ele>463.2</ele>
<time>2024-05-08T16:00:08Z</time>
</trkpt>
<trkpt lat="49.52439492568374" lon="9.212180133908989">
<ele>463</ele>
<time>2024-05-08T16:00:09Z</time>
</trkpt>
<trkpt lat="49.52438352629542" lon="9.21223159879446">
<ele>463</ele>
<time>2024-05-08T16:00:10Z</time>
</trkpt>
<trkpt lat="49.52437589876354" lon="9.212286919355392">
<ele>463</ele>
<time>2024-05-08T16:00:11Z</time>
</trkpt>
<trkpt lat="49.52437204308808" lon="9.212340312078595">
<ele>463</ele>
<time>2024-05-08T16:00:12Z</time>
</trkpt>
<trkpt lat="49.52436827123165" lon="9.212398482486606">
<ele>463.2</ele>
<time>2024-05-08T16:00:13Z</time>
</trkpt>
<trkpt lat="49.524360643699765" lon="9.212458580732346">
<ele>463.2</ele>
<time>2024-05-08T16:00:14Z</time>
</trkpt>
<trkpt lat="49.524356788024306" lon="9.212516751140356">
<ele>463.2</ele>
<time>2024-05-08T16:00:15Z</time>
</trkpt>
<trkpt lat="49.52435301616788" lon="9.212572993710635">
<ele>463.2</ele>
<time>2024-05-08T16:00:16Z</time>
</trkpt>
<trkpt lat="49.524341532960534" lon="9.2126302421093">
<ele>463.2</ele>
<time>2024-05-08T16:00:17Z</time>
</trkpt>
<trkpt lat="49.52433776110411" lon="9.21268455684185">
<ele>463.2</ele>
<time>2024-05-08T16:00:18Z</time>
</trkpt>
<trkpt lat="49.52433013357222" lon="9.212741805240512">
<ele>463.2</ele>
<time>2024-05-08T16:00:19Z</time>
</trkpt>
<trkpt lat="49.524322506040335" lon="9.212799975648522">
<ele>463.2</ele>
<time>2024-05-08T16:00:20Z</time>
</trkpt>
<trkpt lat="49.52431487850845" lon="9.212860073894262">
<ele>463.4</ele>
<time>2024-05-08T16:00:21Z</time>
</trkpt>
<trkpt lat="49.52431102283299" lon="9.212920172140002">
<ele>463.4</ele>
<time>2024-05-08T16:00:22Z</time>
</trkpt>
<trkpt lat="49.524303395301104" lon="9.212981192395093">
<ele>463.6</ele>
<time>2024-05-08T16:00:23Z</time>
</trkpt>
<trkpt lat="49.524299539625645" lon="9.213045062497258">
<ele>463.6</ele>
<time>2024-05-08T16:00:24Z</time>
</trkpt>
<trkpt lat="49.52429191209376" lon="9.213108010590076">
<ele>463.8</ele>
<time>2024-05-08T16:00:25Z</time>
</trkpt>
<trkpt lat="49.52428428456187" lon="9.213172886520624">
<ele>463.8</ele>
<time>2024-05-08T16:00:26Z</time>
</trkpt>
<trkpt lat="49.524276657029986" lon="9.21323960646987">
<ele>464</ele>
<time>2024-05-08T16:00:27Z</time>
</trkpt>
<trkpt lat="49.5242690294981" lon="9.213304482400416">
<ele>464.2</ele>
<time>2024-05-08T16:00:28Z</time>
</trkpt>
<trkpt lat="49.524261401966214" lon="9.213373130187392">
<ele>464.2</ele>
<time>2024-05-08T16:00:29Z</time>
</trkpt>
<trkpt lat="49.52425377443433" lon="9.21343993395567">
<ele>464.6</ele>
<time>2024-05-08T16:00:30Z</time>
</trkpt>
<trkpt lat="49.52424614690244" lon="9.213504726067184">
<ele>464.6</ele>
<time>2024-05-08T16:00:31Z</time>
</trkpt>
<trkpt lat="49.52423851937056" lon="9.213571529835464">
<ele>464.6</ele>
<time>2024-05-08T16:00:32Z</time>
</trkpt>
<trkpt lat="49.52423089183867" lon="9.213638249784708">
<ele>464.6</ele>
<time>2024-05-08T16:00:33Z</time>
</trkpt>
<trkpt lat="49.524223264306784" lon="9.213703125715256">
<ele>464.4</ele>
<time>2024-05-08T16:00:34Z</time>
</trkpt>
<trkpt lat="49.52421186491847" lon="9.213766995817425">
<ele>464.2</ele>
<time>2024-05-08T16:00:35Z</time>
</trkpt>
<trkpt lat="49.524204237386584" lon="9.213828016072512">
<ele>464.2</ele>
<time>2024-05-08T16:00:36Z</time>
</trkpt>
<trkpt lat="49.52418898232281" lon="9.213886186480522">
<ele>464.2</ele>
<time>2024-05-08T16:00:37Z</time>
</trkpt>
<trkpt lat="49.524181354790926" lon="9.21395014040172">
<ele>464.2</ele>
<time>2024-05-08T16:00:38Z</time>
</trkpt>
<trkpt lat="49.52417372725904" lon="9.214008310809731">
<ele>464</ele>
<time>2024-05-08T16:00:39Z</time>
</trkpt>
<trkpt lat="49.524166099727154" lon="9.214057847857475">
<ele>464</ele>
<time>2024-05-08T16:00:40Z</time>
</trkpt>
<trkpt lat="49.524162244051695" lon="9.21411031857133">
<ele>464</ele>
<time>2024-05-08T16:00:41Z</time>
</trkpt>
<trkpt lat="49.524162244051695" lon="9.214163711294532">
<ele>464</ele>
<time>2024-05-08T16:00:42Z</time>
</trkpt>
<trkpt lat="49.52415847219527" lon="9.214216182008386">
<ele>464.2</ele>
<time>2024-05-08T16:00:43Z</time>
</trkpt>
<trkpt lat="49.52415847219527" lon="9.214269574731588">
<ele>464.2</ele>
<time>2024-05-08T16:00:44Z</time>
</trkpt>
<trkpt lat="49.52415847219527" lon="9.214322967454793">
<ele>464</ele>
<time>2024-05-08T16:00:45Z</time>
</trkpt>
<trkpt lat="49.52415847219527" lon="9.214371666312218">
<ele>464</ele>
<time>2024-05-08T16:00:46Z</time>
</trkpt>
<trkpt lat="49.52415461651981" lon="9.214421203359962">
<ele>464</ele>
<time>2024-05-08T16:00:47Z</time>
</trkpt>
<trkpt lat="49.52415847219527" lon="9.214474596083164">
<ele>464</ele>
<time>2024-05-08T16:00:48Z</time>
</trkpt>
<trkpt lat="49.52415461651981" lon="9.2145280726254">
<ele>464.2</ele>
<time>2024-05-08T16:00:49Z</time>
</trkpt>
<trkpt lat="49.52415084466338" lon="9.2145814653486">
<ele>464.4</ele>
<time>2024-05-08T16:00:50Z</time>
</trkpt>
<trkpt lat="49.52413936145604" lon="9.214638629928231">
<ele>464.6</ele>
<time>2024-05-08T16:00:51Z</time>
</trkpt>
<trkpt lat="49.524120250716805" lon="9.214690178632736">
<ele>464.6</ele>
<time>2024-05-08T16:00:52Z</time>
</trkpt>
<trkpt lat="49.524101223796606" lon="9.214739799499512">
<ele>464.8</ele>
<time>2024-05-08T16:00:53Z</time>
</trkpt>
<trkpt lat="49.52407071366906" lon="9.2147836368531">
<ele>465</ele>
<time>2024-05-08T16:00:54Z</time>
</trkpt>
<trkpt lat="49.52404020354152" lon="9.214824624359608">
<ele>465.4</ele>
<time>2024-05-08T16:00:55Z</time>
</trkpt>
<trkpt lat="49.52400206588209" lon="9.214868545532228">
<ele>465.6</ele>
<time>2024-05-08T16:00:56Z</time>
</trkpt>
<trkpt lat="49.52396770007908" lon="9.214911460876465">
<ele>465.8</ele>
<time>2024-05-08T16:00:57Z</time>
</trkpt>
<trkpt lat="49.52393333427608" lon="9.214953370392324">
<ele>466</ele>
<time>2024-05-08T16:00:58Z</time>
</trkpt>
<trkpt lat="49.52389519661665" lon="9.214993435889482">
<ele>466</ele>
<time>2024-05-08T16:00:59Z</time>
</trkpt>
<trkpt lat="49.52386091463268" lon="9.215033501386642">
<ele>466</ele>
<time>2024-05-08T16:01:00Z</time>
</trkpt>
<trkpt lat="49.52383417636156" lon="9.215066861361263">
<ele>466</ele>
<time>2024-05-08T16:01:01Z</time>
</trkpt>
<trkpt lat="49.523803666234016" lon="9.215100221335888">
<ele>466</ele>
<time>2024-05-08T16:01:02Z</time>
</trkpt>
<trkpt lat="49.52378078363836" lon="9.215131737291811">
<ele>465.8</ele>
<time>2024-05-08T16:01:03Z</time>
</trkpt>
<trkpt lat="49.523750273510814" lon="9.215167025104163">
<ele>465.8</ele>
<time>2024-05-08T16:01:04Z</time>
</trkpt>
<trkpt lat="49.52371976338327" lon="9.215207090601323">
<ele>466</ele>
<time>2024-05-08T16:01:05Z</time>
</trkpt>
<trkpt lat="49.523685397580266" lon="9.215248078107834">
<ele>466</ele>
<time>2024-05-08T16:01:06Z</time>
</trkpt>
<trkpt lat="49.523651115596294" lon="9.215286215767264">
<ele>466</ele>
<time>2024-05-08T16:01:07Z</time>
</trkpt>
<trkpt lat="49.52361674979329" lon="9.215328209102154">
<ele>465.8</ele>
<time>2024-05-08T16:01:08Z</time>
</trkpt>
<trkpt lat="49.52358238399029" lon="9.215368190780282">
<ele>465.8</ele>
<time>2024-05-08T16:01:09Z</time>
</trkpt>
<trkpt lat="49.52354810200632" lon="9.215408256277442">
<ele>466</ele>
<time>2024-05-08T16:01:10Z</time>
</trkpt>
<trkpt lat="49.52351759187877" lon="9.215450249612331">
<ele>466</ele>
<time>2024-05-08T16:01:11Z</time>
</trkpt>
<trkpt lat="49.52348708175123" lon="9.21549316495657">
<ele>466.2</ele>
<time>2024-05-08T16:01:12Z</time>
</trkpt>
<trkpt lat="49.52345657162368" lon="9.215537002310157">
<ele>466.2</ele>
<time>2024-05-08T16:01:13Z</time>
</trkpt>
<trkpt lat="49.523429833352566" lon="9.215581845492125">
<ele>466.2</ele>
<time>2024-05-08T16:01:14Z</time>
</trkpt>
<trkpt lat="49.52339932322502" lon="9.215628616511822">
<ele>466.2</ele>
<time>2024-05-08T16:01:15Z</time>
</trkpt>
<trkpt lat="49.523372584953904" lon="9.215673375874758">
<ele>465.8</ele>
<time>2024-05-08T16:01:16Z</time>
</trkpt>
<trkpt lat="49.52334593050182" lon="9.215716291218996">
<ele>465.6</ele>
<time>2024-05-08T16:01:17Z</time>
</trkpt>
<trkpt lat="49.5233191922307" lon="9.215756356716156">
<ele>465.4</ele>
<time>2024-05-08T16:01:18Z</time>
</trkpt>
<trkpt lat="49.523292537778616" lon="9.215798350051044">
<ele>465.2</ele>
<time>2024-05-08T16:01:19Z</time>
</trkpt>
<trkpt lat="49.52325817197561" lon="9.215841265395284">
<ele>465</ele>
<time>2024-05-08T16:01:20Z</time>
</trkpt>
<trkpt lat="49.523231433704495" lon="9.215893736109138">
<ele>465</ele>
<time>2024-05-08T16:01:21Z</time>
</trkpt>
<trkpt lat="49.52320092357695" lon="9.215941429138184">
<ele>465</ele>
<time>2024-05-08T16:01:22Z</time>
</trkpt>
<trkpt lat="49.52316664159298" lon="9.215994821861386">
<ele>465</ele>
<time>2024-05-08T16:01:23Z</time>
</trkpt>
<trkpt lat="49.523136131465435" lon="9.21604536473751">
<ele>465</ele>
<time>2024-05-08T16:01:24Z</time>
</trkpt>
<trkpt lat="49.52310176566243" lon="9.216093057766557">
<ele>465</ele>
<time>2024-05-08T16:01:25Z</time>
</trkpt>
<trkpt lat="49.52306739985943" lon="9.216141672804952">
<ele>465</ele>
<time>2024-05-08T16:01:26Z</time>
</trkpt>
<trkpt lat="49.52303311787546" lon="9.21618651598692">
<ele>465</ele>
<time>2024-05-08T16:01:27Z</time>
</trkpt>
<trkpt lat="49.522994980216026" lon="9.216235131025314">
<ele>464.8</ele>
<time>2024-05-08T16:01:28Z</time>
</trkpt>
<trkpt lat="49.52296061441302" lon="9.21628475189209">
<ele>464.8</ele>
<time>2024-05-08T16:01:29Z</time>
</trkpt>
<trkpt lat="49.52293010428548" lon="9.216333366930485">
<ele>464.6</ele>
<time>2024-05-08T16:01:30Z</time>
</trkpt>
<trkpt lat="49.52289196662605" lon="9.21638005413115">
<ele>464.4</ele>
<time>2024-05-08T16:01:31Z</time>
</trkpt>
<trkpt lat="49.522861456498504" lon="9.216433446854351">
<ele>464.4</ele>
<time>2024-05-08T16:01:32Z</time>
</trkpt>
<trkpt lat="49.52283471822739" lon="9.216486923396587">
<ele>464</ele>
<time>2024-05-08T16:01:33Z</time>
</trkpt>
<trkpt lat="49.52281183563173" lon="9.21653838828206">
<ele>463.8</ele>
<time>2024-05-08T16:01:34Z</time>
</trkpt>
<trkpt lat="49.52278895303607" lon="9.216593708842993">
<ele>463.6</ele>
<time>2024-05-08T16:01:35Z</time>
</trkpt>
<trkpt lat="49.52276607044041" lon="9.216651879251003">
<ele>463.4</ele>
<time>2024-05-08T16:01:36Z</time>
</trkpt>
<trkpt lat="49.52274318784475" lon="9.216710049659014">
<ele>463.2</ele>
<time>2024-05-08T16:01:37Z</time>
</trkpt>
<trkpt lat="49.522720305249095" lon="9.21677676960826">
<ele>463</ele>
<time>2024-05-08T16:01:38Z</time>
</trkpt>
<trkpt lat="49.52270505018532" lon="9.216844495385883">
<ele>463</ele>
<time>2024-05-08T16:01:39Z</time>
</trkpt>
<trkpt lat="49.52268979512155" lon="9.216911299154162">
<ele>462.8</ele>
<time>2024-05-08T16:01:40Z</time>
</trkpt>
<trkpt lat="49.522678311914206" lon="9.21697709709406">
<ele>462.8</ele>
<time>2024-05-08T16:01:41Z</time>
</trkpt>
<trkpt lat="49.52266691252589" lon="9.217046666890385">
<ele>462.8</ele>
<time>2024-05-08T16:01:42Z</time>
</trkpt>
<trkpt lat="49.52265165746212" lon="9.21711539849639">
<ele>462.8</ele>
<time>2024-05-08T16:01:43Z</time>
</trkpt>
<trkpt lat="49.52263254672289" lon="9.217184968292711">
<ele>462.8</ele>
<time>2024-05-08T16:01:44Z</time>
</trkpt>
<trkpt lat="49.52261351980269" lon="9.217253616079688">
<ele>462.4</ele>
<time>2024-05-08T16:01:45Z</time>
</trkpt>
<trkpt lat="49.52259826473892" lon="9.217320419847963">
<ele>462</ele>
<time>2024-05-08T16:01:46Z</time>
</trkpt>
<trkpt lat="49.52258292585611" lon="9.217381440103054">
<ele>461.8</ele>
<time>2024-05-08T16:01:47Z</time>
</trkpt>
<trkpt lat="49.52256767079234" lon="9.21744531020522">
<ele>461.6</ele>
<time>2024-05-08T16:01:48Z</time>
</trkpt>
<trkpt lat="49.52254864387214" lon="9.217510186135767">
<ele>461.4</ele>
<time>2024-05-08T16:01:49Z</time>
</trkpt>
<trkpt lat="49.52253338880837" lon="9.217570284381509">
<ele>461.2</ele>
<time>2024-05-08T16:01:50Z</time>
</trkpt>
<trkpt lat="49.5225181337446" lon="9.21762845478952">
<ele>461</ele>
<time>2024-05-08T16:01:51Z</time>
</trkpt>
<trkpt lat="49.52249525114894" lon="9.217681847512722">
<ele>460.8</ele>
<time>2024-05-08T16:01:52Z</time>
</trkpt>
<trkpt lat="49.52246851287782" lon="9.21772476285696">
<ele>460.6</ele>
<time>2024-05-08T16:01:53Z</time>
</trkpt>
<trkpt lat="49.52243800275028" lon="9.21776290051639">
<ele>460.6</ele>
<time>2024-05-08T16:01:54Z</time>
</trkpt>
<trkpt lat="49.522403636947274" lon="9.217800116166472">
<ele>460.6</ele>
<time>2024-05-08T16:01:55Z</time>
</trkpt>
<trkpt lat="49.5223693549633" lon="9.217829704284668">
<ele>460.6</ele>
<time>2024-05-08T16:01:56Z</time>
</trkpt>
<trkpt lat="49.52233884483576" lon="9.217856358736752">
<ele>460.2</ele>
<time>2024-05-08T16:01:57Z</time>
</trkpt>
<trkpt lat="49.522308334708214" lon="9.21788116917014">
<ele>460</ele>
<time>2024-05-08T16:01:58Z</time>
</trkpt>
<trkpt lat="49.5222815964371" lon="9.21790312975645">
<ele>459.8</ele>
<time>2024-05-08T16:01:59Z</time>
</trkpt>
<trkpt lat="49.52225494198501" lon="9.21792316250503">
<ele>459.6</ele>
<time>2024-05-08T16:02:00Z</time>
</trkpt>
<trkpt lat="49.522224348038435" lon="9.217933639883997">
<ele>459.4</ele>
<time>2024-05-08T16:02:01Z</time>
</trkpt>
<trkpt lat="49.52219769358635" lon="9.217938417568805">
<ele>459.2</ele>
<time>2024-05-08T16:02:02Z</time>
</trkpt>
<trkpt lat="49.52217095531523" lon="9.217933639883997">
<ele>459</ele>
<time>2024-05-08T16:02:03Z</time>
</trkpt>
<trkpt lat="49.52214044518769" lon="9.21792316250503">
<ele>459</ele>
<time>2024-05-08T16:02:04Z</time>
</trkpt>
<trkpt lat="49.52210993506014" lon="9.217906901612878">
<ele>458.8</ele>
<time>2024-05-08T16:02:05Z</time>
</trkpt>
<trkpt lat="49.5220794249326" lon="9.21788116917014">
<ele>458.6</ele>
<time>2024-05-08T16:02:06Z</time>
</trkpt>
<trkpt lat="49.522048914805055" lon="9.217860214412212">
<ele>458.4</ele>
<time>2024-05-08T16:02:07Z</time>
</trkpt>
<trkpt lat="49.52201454900205" lon="9.21784495934844">
<ele>458.4</ele>
<time>2024-05-08T16:02:08Z</time>
</trkpt>
<trkpt lat="49.521987894549966" lon="9.217828698456287">
<ele>458.2</ele>
<time>2024-05-08T16:02:09Z</time>
</trkpt>
<trkpt lat="49.52196115627885" lon="9.217808665707707">
<ele>458.2</ele>
<time>2024-05-08T16:02:10Z</time>
</trkpt>
<trkpt lat="49.52193450182676" lon="9.217788632959127">
<ele>458</ele>
<time>2024-05-08T16:02:11Z</time>
</trkpt>
<trkpt lat="49.521907763555646" lon="9.217761978507042">
<ele>458</ele>
<time>2024-05-08T16:02:12Z</time>
</trkpt>
<trkpt lat="49.52187339775264" lon="9.217729540541768">
<ele>458</ele>
<time>2024-05-08T16:02:13Z</time>
</trkpt>
<trkpt lat="49.521831488236785" lon="9.217699952423573">
<ele>458</ele>
<time>2024-05-08T16:02:14Z</time>
</trkpt>
<trkpt lat="49.52178186737001" lon="9.21766852028668">
<ele>458</ele>
<time>2024-05-08T16:02:15Z</time>
</trkpt>
<trkpt lat="49.52172847464681" lon="9.217641782015562">
<ele>457.8</ele>
<time>2024-05-08T16:02:16Z</time>
</trkpt>
<trkpt lat="49.52167885378003" lon="9.217613199725749">
<ele>457.6</ele>
<time>2024-05-08T16:02:17Z</time>
</trkpt>
<trkpt lat="49.5216216892004" lon="9.21758646145463">
<ele>457.4</ele>
<time>2024-05-08T16:02:18Z</time>
</trkpt>
<trkpt lat="49.521572068333626" lon="9.217563578858972">
<ele>457.2</ele>
<time>2024-05-08T16:02:19Z</time>
</trkpt>
<trkpt lat="49.52152244746685" lon="9.217533068731427">
<ele>457</ele>
<time>2024-05-08T16:02:20Z</time>
</trkpt>
<trkpt lat="49.52148430980742" lon="9.217501636594534">
<ele>456.8</ele>
<time>2024-05-08T16:02:21Z</time>
</trkpt>
<trkpt lat="49.52144240029156" lon="9.217472970485687">
<ele>456.6</ele>
<time>2024-05-08T16:02:22Z</time>
</trkpt>
<trkpt lat="49.521396635100245" lon="9.2174481600523">
<ele>456.4</ele>
<time>2024-05-08T16:02:23Z</time>
</trkpt>
<trkpt lat="49.52136226929724" lon="9.217423433437943">
<ele>456.2</ele>
<time>2024-05-08T16:02:24Z</time>
</trkpt>
<trkpt lat="49.5213317591697" lon="9.217399545013905">
<ele>456</ele>
<time>2024-05-08T16:02:25Z</time>
</trkpt>
<trkpt lat="49.52130124904215" lon="9.21737289056182">
<ele>455.8</ele>
<time>2024-05-08T16:02:26Z</time>
</trkpt>
<trkpt lat="49.52127451077104" lon="9.217346152290702">
<ele>455.6</ele>
<time>2024-05-08T16:02:27Z</time>
</trkpt>
<trkpt lat="49.52123260125518" lon="9.217314720153809">
<ele>455.4</ele>
<time>2024-05-08T16:02:28Z</time>
</trkpt>
<trkpt lat="49.52119437977672" lon="9.217274654656649">
<ele>455.2</ele>
<time>2024-05-08T16:02:29Z</time>
</trkpt>
<trkpt lat="49.521160097792745" lon="9.217238361015916">
<ele>455</ele>
<time>2024-05-08T16:02:30Z</time>
</trkpt>
<trkpt lat="49.521118104457855" lon="9.217206928879024">
<ele>454.8</ele>
<time>2024-05-08T16:02:31Z</time>
</trkpt>
<trkpt lat="49.521076194942" lon="9.217155380174518">
<ele>454.6</ele>
<time>2024-05-08T16:02:32Z</time>
</trkpt>
<trkpt lat="49.52102657407522" lon="9.217100143432615">
<ele>454.2</ele>
<time>2024-05-08T16:02:33Z</time>
</trkpt>
<trkpt lat="49.52098458074033" lon="9.217040045186875">
<ele>454</ele>
<time>2024-05-08T16:02:34Z</time>
</trkpt>
<trkpt lat="49.520938815549016" lon="9.216978019103408">
<ele>453.8</ele>
<time>2024-05-08T16:02:35Z</time>
</trkpt>
<trkpt lat="49.52089690603316" lon="9.216910293325782">
<ele>453.8</ele>
<time>2024-05-08T16:02:36Z</time>
</trkpt>
<trkpt lat="49.52085491269827" lon="9.216846423223616">
<ele>453.6</ele>
<time>2024-05-08T16:02:37Z</time>
</trkpt>
<trkpt lat="49.52081291936338" lon="9.216772997751832">
<ele>453.6</ele>
<time>2024-05-08T16:02:38Z</time>
</trkpt>
<trkpt lat="49.52077100984752" lon="9.216708121821284">
<ele>453.2</ele>
<time>2024-05-08T16:02:39Z</time>
</trkpt>
<trkpt lat="49.520725244656205" lon="9.216646179556848">
<ele>452.8</ele>
<time>2024-05-08T16:02:40Z</time>
</trkpt>
<trkpt lat="49.52068702317774" lon="9.216585159301758">
<ele>452.6</ele>
<time>2024-05-08T16:02:41Z</time>
</trkpt>
<trkpt lat="49.52065274119377" lon="9.21652120538056">
<ele>452.4</ele>
<time>2024-05-08T16:02:42Z</time>
</trkpt>
<trkpt lat="49.52061837539077" lon="9.216463034972548">
<ele>452.2</ele>
<time>2024-05-08T16:02:43Z</time>
</trkpt>
<trkpt lat="49.52058023773134" lon="9.216406792402267">
<ele>452.2</ele>
<time>2024-05-08T16:02:44Z</time>
</trkpt>
<trkpt lat="49.52054210007191" lon="9.216348621994255">
<ele>452.2</ele>
<time>2024-05-08T16:02:45Z</time>
</trkpt>
<trkpt lat="49.52050396241248" lon="9.216298079118133">
<ele>452</ele>
<time>2024-05-08T16:02:46Z</time>
</trkpt>
<trkpt lat="49.52047345228493" lon="9.216248458251355">
<ele>452</ele>
<time>2024-05-08T16:02:47Z</time>
</trkpt>
<trkpt lat="49.52043908648193" lon="9.21620361506939">
<ele>452.2</ele>
<time>2024-05-08T16:02:48Z</time>
</trkpt>
<trkpt lat="49.52040480449796" lon="9.216151228174567">
<ele>452.2</ele>
<time>2024-05-08T16:02:49Z</time>
</trkpt>
<trkpt lat="49.52037429437041" lon="9.216099679470062">
<ele>452.2</ele>
<time>2024-05-08T16:02:50Z</time>
</trkpt>
<trkpt lat="49.52033607289195" lon="9.216051986441016">
<ele>452.4</ele>
<time>2024-05-08T16:02:51Z</time>
</trkpt>
<trkpt lat="49.52029416337609" lon="9.215998593717812">
<ele>452.6</ele>
<time>2024-05-08T16:02:52Z</time>
</trkpt>
<trkpt lat="49.520248398184776" lon="9.215952828526497">
<ele>452.6</ele>
<time>2024-05-08T16:02:53Z</time>
</trkpt>
<trkpt lat="49.52021788805723" lon="9.215914690867066">
<ele>452.8</ele>
<time>2024-05-08T16:02:54Z</time>
</trkpt>
<trkpt lat="49.52018737792969" lon="9.215876553207636">
<ele>452.8</ele>
<time>2024-05-08T16:02:55Z</time>
</trkpt>
<trkpt lat="49.52015301212669" lon="9.21584788709879">
<ele>453</ele>
<time>2024-05-08T16:02:56Z</time>
</trkpt>
<trkpt lat="49.52011864632368" lon="9.21580790542066">
<ele>452.8</ele>
<time>2024-05-08T16:02:57Z</time>
</trkpt>
<trkpt lat="49.52010339125991" lon="9.215774461627008">
<ele>453</ele>
<time>2024-05-08T16:02:58Z</time>
</trkpt>
<trkpt lat="49.52008436433971" lon="9.215736323967576">
<ele>453</ele>
<time>2024-05-08T16:02:59Z</time>
</trkpt>
<trkpt lat="49.520049998536706" lon="9.215698186308146">
<ele>453.4</ele>
<time>2024-05-08T16:03:00Z</time>
</trkpt>
<trkpt lat="49.52002711594105" lon="9.21567153185606">
<ele>453.4</ele>
<time>2024-05-08T16:03:01Z</time>
</trkpt>
<trkpt lat="49.52000800520182" lon="9.215646721422672">
<ele>453.6</ele>
<time>2024-05-08T16:03:02Z</time>
</trkpt>
<trkpt lat="49.51998135074973" lon="9.215621910989285">
<ele>453.8</ele>
<time>2024-05-08T16:03:03Z</time>
</trkpt>
<trkpt lat="49.51995084062219" lon="9.215604728087785">
<ele>454</ele>
<time>2024-05-08T16:03:04Z</time>
</trkpt>
<trkpt lat="49.51992033049464" lon="9.215588551014662">
<ele>454</ele>
<time>2024-05-08T16:03:05Z</time>
</trkpt>
<trkpt lat="49.5198898203671" lon="9.21557136811316">
<ele>454.2</ele>
<time>2024-05-08T16:03:06Z</time>
</trkpt>
<trkpt lat="49.51986693777144" lon="9.21555326320231">
<ele>454.4</ele>
<time>2024-05-08T16:03:07Z</time>
</trkpt>
<trkpt lat="49.51984019950032" lon="9.215526524931192">
<ele>454.4</ele>
<time>2024-05-08T16:03:08Z</time>
</trkpt>
<trkpt lat="49.51979820616543" lon="9.215488387271762">
<ele>454.4</ele>
<time>2024-05-08T16:03:09Z</time>
</trkpt>
<trkpt lat="49.51975244097411" lon="9.215448321774602">
<ele>454.4</ele>
<time>2024-05-08T16:03:10Z</time>
</trkpt>
<trkpt lat="49.5197066757828" lon="9.215399706736209">
<ele>454.4</ele>
<time>2024-05-08T16:03:11Z</time>
</trkpt>
<trkpt lat="49.51967239379883" lon="9.215370118618011">
<ele>454.6</ele>
<time>2024-05-08T16:03:12Z</time>
</trkpt>
<trkpt lat="49.51964565552771" lon="9.215341536328197">
<ele>454.6</ele>
<time>2024-05-08T16:03:13Z</time>
</trkpt>
<trkpt lat="49.51961128972471" lon="9.215296693146229">
<ele>454.2</ele>
<time>2024-05-08T16:03:14Z</time>
</trkpt>
<trkpt lat="49.519577007740736" lon="9.21527188271284">
<ele>454.2</ele>
<time>2024-05-08T16:03:15Z</time>
</trkpt>
<trkpt lat="49.519538870081306" lon="9.215250005945563">
<ele>454</ele>
<time>2024-05-08T16:03:16Z</time>
</trkpt>
<trkpt lat="49.5195045042783" lon="9.215209940448403">
<ele>454</ele>
<time>2024-05-08T16:03:17Z</time>
</trkpt>
<trkpt lat="49.5194701384753" lon="9.215178424492478">
<ele>454</ele>
<time>2024-05-08T16:03:18Z</time>
</trkpt>
<trkpt lat="49.51942437328398" lon="9.215145064517856">
<ele>454.2</ele>
<time>2024-05-08T16:03:19Z</time>
</trkpt>
<trkpt lat="49.519382463768125" lon="9.215107848867774">
<ele>454.4</ele>
<time>2024-05-08T16:03:20Z</time>
</trkpt>
<trkpt lat="49.51932907104492" lon="9.21505831182003">
<ele>454.4</ele>
<time>2024-05-08T16:03:21Z</time>
</trkpt>
<trkpt lat="49.519283222034574" lon="9.215024868026376">
<ele>454.6</ele>
<time>2024-05-08T16:03:22Z</time>
</trkpt>
<trkpt lat="49.51924131251872" lon="9.214988658204676">
<ele>454.6</ele>
<time>2024-05-08T16:03:23Z</time>
</trkpt>
<trkpt lat="49.519203174859285" lon="9.214944820851088">
<ele>454.6</ele>
<time>2024-05-08T16:03:24Z</time>
</trkpt>
<trkpt lat="49.51917643658817" lon="9.214911460876465">
<ele>454.6</ele>
<time>2024-05-08T16:03:25Z</time>
</trkpt>
<trkpt lat="49.519145926460624" lon="9.21487801708281">
<ele>454.6</ele>
<time>2024-05-08T16:03:26Z</time>
</trkpt>
<trkpt lat="49.519103933125734" lon="9.214833257719874">
<ele>454.4</ele>
<time>2024-05-08T16:03:27Z</time>
</trkpt>
<trkpt lat="49.51906202360988" lon="9.214793192222714">
<ele>454.2</ele>
<time>2024-05-08T16:03:28Z</time>
</trkpt>
<trkpt lat="49.51902003027499" lon="9.214766453951595">
<ele>454.2</ele>
<time>2024-05-08T16:03:29Z</time>
</trkpt>
<trkpt lat="49.51897426508367" lon="9.214726388454435">
<ele>454.2</ele>
<time>2024-05-08T16:03:30Z</time>
</trkpt>
<trkpt lat="49.518924644216895" lon="9.21470157802105">
<ele>454.2</ele>
<time>2024-05-08T16:03:31Z</time>
</trkpt>
<trkpt lat="49.518863623961806" lon="9.214676851406692">
<ele>454.4</ele>
<time>2024-05-08T16:03:32Z</time>
</trkpt>
<trkpt lat="49.51880260370672" lon="9.214665368199348">
<ele>454.4</ele>
<time>2024-05-08T16:03:33Z</time>
</trkpt>
<trkpt lat="49.518745355308056" lon="9.214654890820384">
<ele>454.4</ele>
<time>2024-05-08T16:03:34Z</time>
</trkpt>
<trkpt lat="49.518688190728426" lon="9.214654890820384">
<ele>454.6</ele>
<time>2024-05-08T16:03:35Z</time>
</trkpt>
<trkpt lat="49.51863471418619" lon="9.214658662676811">
<ele>454.6</ele>
<time>2024-05-08T16:03:36Z</time>
</trkpt>
<trkpt lat="49.518588948994875" lon="9.214665368199348">
<ele>454.8</ele>
<time>2024-05-08T16:03:37Z</time>
</trkpt>
<trkpt lat="49.51853941194713" lon="9.214672995731236">
<ele>454.8</ele>
<time>2024-05-08T16:03:38Z</time>
</trkpt>
<trkpt lat="49.51848979108035" lon="9.214686322957276">
<ele>454.8</ele>
<time>2024-05-08T16:03:39Z</time>
</trkpt>
<trkpt lat="49.51844017021358" lon="9.214708283543589">
<ele>454.6</ele>
<time>2024-05-08T16:03:40Z</time>
</trkpt>
<trkpt lat="49.51839063316584" lon="9.214731166139243">
<ele>454.6</ele>
<time>2024-05-08T16:03:41Z</time>
</trkpt>
<trkpt lat="49.51834101229906" lon="9.214756898581982">
<ele>454.6</ele>
<time>2024-05-08T16:03:42Z</time>
</trkpt>
<trkpt lat="49.518291391432285" lon="9.214786486700175">
<ele>454.4</ele>
<time>2024-05-08T16:03:43Z</time>
</trkpt>
<trkpt lat="49.51824948191643" lon="9.21481791883707">
<ele>454.4</ele>
<time>2024-05-08T16:03:44Z</time>
</trkpt>
<trkpt lat="49.51820371672511" lon="9.214846584945915">
<ele>454.2</ele>
<time>2024-05-08T16:03:45Z</time>
</trkpt>
<trkpt lat="49.518157951533794" lon="9.214868545532228">
<ele>454</ele>
<time>2024-05-08T16:03:46Z</time>
</trkpt>
<trkpt lat="49.518112102523446" lon="9.214875167235732">
<ele>453.8</ele>
<time>2024-05-08T16:03:47Z</time>
</trkpt>
<trkpt lat="49.51806633733213" lon="9.214866617694495">
<ele>453.6</ele>
<time>2024-05-08T16:03:48Z</time>
</trkpt>
<trkpt lat="49.51802442781627" lon="9.21483987942338">
<ele>453.4</ele>
<time>2024-05-08T16:03:49Z</time>
</trkpt>
<trkpt lat="49.51798243448138" lon="9.21479981392622">
<ele>453.4</ele>
<time>2024-05-08T16:03:50Z</time>
</trkpt>
<trkpt lat="49.51794044114649" lon="9.214746421203015">
<ele>453</ele>
<time>2024-05-08T16:03:51Z</time>
</trkpt>
<trkpt lat="49.51790230348706" lon="9.214686322957276">
<ele>453.2</ele>
<time>2024-05-08T16:03:52Z</time>
</trkpt>
<trkpt lat="49.517856538295746" lon="9.214626308530567">
<ele>453.2</ele>
<time>2024-05-08T16:03:53Z</time>
</trkpt>
<trkpt lat="49.51781462877989" lon="9.21456621028483">
<ele>453.2</ele>
<time>2024-05-08T16:03:54Z</time>
</trkpt>
<trkpt lat="49.51776877976954" lon="9.21450803987682">
<ele>453</ele>
<time>2024-05-08T16:03:55Z</time>
</trkpt>
<trkpt lat="49.51772301457822" lon="9.214451713487506">
<ele>453</ele>
<time>2024-05-08T16:03:56Z</time>
</trkpt>
<trkpt lat="49.51767347753048" lon="9.214396476745604">
<ele>452.8</ele>
<time>2024-05-08T16:03:57Z</time>
</trkpt>
<trkpt lat="49.51762008480728" lon="9.21434878371656">
<ele>452.6</ele>
<time>2024-05-08T16:03:58Z</time>
</trkpt>
<trkpt lat="49.51756660826504" lon="9.21430679038167">
<ele>452.4</ele>
<time>2024-05-08T16:03:59Z</time>
</trkpt>
<trkpt lat="49.51750944368541" lon="9.214271502569318">
<ele>452.2</ele>
<time>2024-05-08T16:04:00Z</time>
</trkpt>
<trkpt lat="49.51744842343032" lon="9.214233364909887">
<ele>452</ele>
<time>2024-05-08T16:04:01Z</time>
</trkpt>
<trkpt lat="49.517383547499776" lon="9.214201848953962">
<ele>451.6</ele>
<time>2024-05-08T16:04:02Z</time>
</trkpt>
<trkpt lat="49.51732252724469" lon="9.214178044348955">
<ele>451.4</ele>
<time>2024-05-08T16:04:03Z</time>
</trkpt>
<trkpt lat="49.51725765131414" lon="9.214161867275834">
<ele>451</ele>
<time>2024-05-08T16:04:04Z</time>
</trkpt>
<trkpt lat="49.51719277538359" lon="9.214151306077838">
<ele>450.6</ele>
<time>2024-05-08T16:04:05Z</time>
</trkpt>
<trkpt lat="49.51712798327208" lon="9.214143678545952">
<ele>450.2</ele>
<time>2024-05-08T16:04:06Z</time>
</trkpt>
<trkpt lat="49.517066879197955" lon="9.214137056842446">
<ele>449.8</ele>
<time>2024-05-08T16:04:07Z</time>
</trkpt>
<trkpt lat="49.51700208708644" lon="9.21412842348218">
<ele>449.4</ele>
<time>2024-05-08T16:04:08Z</time>
</trkpt>
<trkpt lat="49.51693721115589" lon="9.214117024093866">
<ele>449</ele>
<time>2024-05-08T16:04:09Z</time>
</trkpt>
<trkpt lat="49.5168761909008" lon="9.214104618877172">
<ele>448.6</ele>
<time>2024-05-08T16:04:10Z</time>
</trkpt>
<trkpt lat="49.516815170645714" lon="9.21409129165113">
<ele>448.2</ele>
<time>2024-05-08T16:04:11Z</time>
</trkpt>
<trkpt lat="49.516750294715166" lon="9.214076958596706">
<ele>447.8</ele>
<time>2024-05-08T16:04:12Z</time>
</trkpt>
<trkpt lat="49.516693046316504" lon="9.214057847857475">
<ele>447.4</ele>
<time>2024-05-08T16:04:13Z</time>
</trkpt>
<trkpt lat="49.516632026061416" lon="9.214037815108895">
<ele>447.2</ele>
<time>2024-05-08T16:04:14Z</time>
</trkpt>
<trkpt lat="49.51657100580633" lon="9.214014932513235">
<ele>446.8</ele>
<time>2024-05-08T16:04:15Z</time>
</trkpt>
<trkpt lat="49.516513757407665" lon="9.213988278061152">
<ele>446.4</ele>
<time>2024-05-08T16:04:16Z</time>
</trkpt>
<trkpt lat="49.516456592828035" lon="9.213956762105228">
<ele>446</ele>
<time>2024-05-08T16:04:17Z</time>
</trkpt>
<trkpt lat="49.51640697196126" lon="9.213921474292874">
<ele>445.6</ele>
<time>2024-05-08T16:04:18Z</time>
</trkpt>
<trkpt lat="49.51636497862637" lon="9.213881492614746">
<ele>445.2</ele>
<time>2024-05-08T16:04:19Z</time>
</trkpt>
<trkpt lat="49.51632684096694" lon="9.213836649432778">
<ele>444.8</ele>
<time>2024-05-08T16:04:20Z</time>
</trkpt>
<trkpt lat="49.51628870330751" lon="9.21378987841308">
<ele>444.2</ele>
<time>2024-05-08T16:04:21Z</time>
</trkpt>
<trkpt lat="49.516258193179965" lon="9.213747968897223">
<ele>443.8</ele>
<time>2024-05-08T16:04:22Z</time>
</trkpt>
<trkpt lat="49.51622768305242" lon="9.213725086301563">
<ele>443.4</ele>
<time>2024-05-08T16:04:23Z</time>
</trkpt>
<trkpt lat="49.51619331724942" lon="9.213723158463836">
<ele>443.2</ele>
<time>2024-05-08T16:04:24Z</time>
</trkpt>
<trkpt lat="49.51616280712187" lon="9.21375366859138">
<ele>442.8</ele>
<time>2024-05-08T16:04:25Z</time>
</trkpt>
<trkpt lat="49.51613229699433" lon="9.213803289458156">
<ele>442.4</ele>
<time>2024-05-08T16:04:26Z</time>
</trkpt>
<trkpt lat="49.516101786866784" lon="9.213865231722592">
<ele>442</ele>
<time>2024-05-08T16:04:27Z</time>
</trkpt>
<trkpt lat="49.5160751324147" lon="9.213928179815412">
<ele>441.8</ele>
<time>2024-05-08T16:04:28Z</time>
</trkpt>
<trkpt lat="49.51604453846812" lon="9.213994899764655">
<ele>441.4</ele>
<time>2024-05-08T16:04:29Z</time>
</trkpt>
<trkpt lat="49.51601402834058" lon="9.214059775695205">
<ele>441</ele>
<time>2024-05-08T16:04:30Z</time>
</trkpt>
<trkpt lat="49.515983518213034" lon="9.214130351319907">
<ele>440.6</ele>
<time>2024-05-08T16:04:31Z</time>
</trkpt>
<trkpt lat="49.51594923622906" lon="9.214198077097535">
<ele>440.4</ele>
<time>2024-05-08T16:04:32Z</time>
</trkpt>
<trkpt lat="49.51591487042606" lon="9.214271502569318">
<ele>440.2</ele>
<time>2024-05-08T16:04:33Z</time>
</trkpt>
<trkpt lat="49.515884360298514" lon="9.214342078194022">
<ele>439.8</ele>
<time>2024-05-08T16:04:34Z</time>
</trkpt>
<trkpt lat="49.51585385017097" lon="9.214413575828075">
<ele>439.6</ele>
<time>2024-05-08T16:04:35Z</time>
</trkpt>
<trkpt lat="49.51581948436797" lon="9.214480379596353">
<ele>439.6</ele>
<time>2024-05-08T16:04:36Z</time>
</trkpt>
<trkpt lat="49.51578897424042" lon="9.21454810537398">
<ele>439.4</ele>
<time>2024-05-08T16:04:37Z</time>
</trkpt>
<trkpt lat="49.51576231978834" lon="9.214619603008032">
<ele>439.2</ele>
<time>2024-05-08T16:04:38Z</time>
</trkpt>
<trkpt lat="49.51573180966079" lon="9.214692106470466">
<ele>439.2</ele>
<time>2024-05-08T16:04:39Z</time>
</trkpt>
<trkpt lat="49.515705071389675" lon="9.214766453951595">
<ele>439.2</ele>
<time>2024-05-08T16:04:40Z</time>
</trkpt>
<trkpt lat="49.51567833311856" lon="9.21484180726111">
<ele>439.2</ele>
<time>2024-05-08T16:04:41Z</time>
</trkpt>
<trkpt lat="49.51565167866647" lon="9.21491808257997">
<ele>439.2</ele>
<time>2024-05-08T16:04:42Z</time>
</trkpt>
<trkpt lat="49.515624940395355" lon="9.214995363727212">
<ele>439.2</ele>
<time>2024-05-08T16:04:43Z</time>
</trkpt>
<trkpt lat="49.51559828594327" lon="9.215069711208344">
<ele>439.2</ele>
<time>2024-05-08T16:04:44Z</time>
</trkpt>
<trkpt lat="49.51557154767215" lon="9.215145064517856">
<ele>439.2</ele>
<time>2024-05-08T16:04:45Z</time>
</trkpt>
<trkpt lat="49.515544809401035" lon="9.215221339836717">
<ele>439.2</ele>
<time>2024-05-08T16:04:46Z</time>
</trkpt>
<trkpt lat="49.51551815494895" lon="9.215296693146229">
<ele>439</ele>
<time>2024-05-08T16:04:47Z</time>
</trkpt>
<trkpt lat="49.51549527235329" lon="9.21537296846509">
<ele>439</ele>
<time>2024-05-08T16:04:48Z</time>
</trkpt>
<trkpt lat="49.51547238975763" lon="9.215448321774602">
<ele>439</ele>
<time>2024-05-08T16:04:49Z</time>
</trkpt>
<trkpt lat="49.515449507161975" lon="9.215517975389956">
<ele>439</ele>
<time>2024-05-08T16:04:50Z</time>
</trkpt>
<trkpt lat="49.51542276889086" lon="9.215588551014662">
<ele>439</ele>
<time>2024-05-08T16:04:51Z</time>
</trkpt>
<trkpt lat="49.5153998862952" lon="9.215656276792288">
<ele>439</ele>
<time>2024-05-08T16:04:52Z</time>
</trkpt>
<trkpt lat="49.515380859375" lon="9.215724924579265">
<ele>439</ele>
<time>2024-05-08T16:04:53Z</time>
</trkpt>
<trkpt lat="49.51536552049219" lon="9.215793572366238">
<ele>439</ele>
<time>2024-05-08T16:04:54Z</time>
</trkpt>
<trkpt lat="49.515350265428424" lon="9.215863225981591">
<ele>439</ele>
<time>2024-05-08T16:04:55Z</time>
</trkpt>
<trkpt lat="49.51533886604011" lon="9.215931873768568">
<ele>439</ele>
<time>2024-05-08T16:04:56Z</time>
</trkpt>
<trkpt lat="49.515331238508224" lon="9.215999599546194">
<ele>439</ele>
<time>2024-05-08T16:04:57Z</time>
</trkpt>
<trkpt lat="49.515327382832766" lon="9.21606539748609">
<ele>439.2</ele>
<time>2024-05-08T16:04:58Z</time>
</trkpt>
<trkpt lat="49.51532361097634" lon="9.216130189597608">
<ele>439.2</ele>
<time>2024-05-08T16:04:59Z</time>
</trkpt>
<trkpt lat="49.515327382832766" lon="9.216195065528154">
<ele>439.4</ele>
<time>2024-05-08T16:05:00Z</time>
</trkpt>
<trkpt lat="49.51533501036465" lon="9.216258013620973">
<ele>439.6</ele>
<time>2024-05-08T16:05:01Z</time>
</trkpt>
<trkpt lat="49.51534263789654" lon="9.216318111866713">
<ele>439.6</ele>
<time>2024-05-08T16:05:02Z</time>
</trkpt>
<trkpt lat="49.51535412110388" lon="9.216376282274725">
<ele>439.8</ele>
<time>2024-05-08T16:05:03Z</time>
</trkpt>
<trkpt lat="49.51537700369954" lon="9.216431602835655">
<ele>440</ele>
<time>2024-05-08T16:05:04Z</time>
</trkpt>
<trkpt lat="49.5153998862952" lon="9.216484995558858">
<ele>440.2</ele>
<time>2024-05-08T16:05:05Z</time>
</trkpt>
<trkpt lat="49.51542276889086" lon="9.21653838828206">
<ele>440.6</ele>
<time>2024-05-08T16:05:06Z</time>
</trkpt>
<trkpt lat="49.51544565148651" lon="9.216588009148836">
<ele>440.8</ele>
<time>2024-05-08T16:05:07Z</time>
</trkpt>
<trkpt lat="49.51547238975763" lon="9.216640396043658">
<ele>441</ele>
<time>2024-05-08T16:05:08Z</time>
</trkpt>
<trkpt lat="49.51549527235329" lon="9.216688089072704">
<ele>441.2</ele>
<time>2024-05-08T16:05:09Z</time>
</trkpt>
<trkpt lat="49.51551815494895" lon="9.216738631948829">
<ele>441.4</ele>
<time>2024-05-08T16:05:10Z</time>
</trkpt>
<trkpt lat="49.515544809401035" lon="9.216786324977877">
<ele>441.6</ele>
<time>2024-05-08T16:05:11Z</time>
</trkpt>
<trkpt lat="49.51557154767215" lon="9.216833095997572">
<ele>441.8</ele>
<time>2024-05-08T16:05:12Z</time>
</trkpt>
<trkpt lat="49.51559443026781" lon="9.216884560883043">
<ele>442</ele>
<time>2024-05-08T16:05:13Z</time>
</trkpt>
<trkpt lat="49.51561731286347" lon="9.2169370315969">
<ele>442.2</ele>
<time>2024-05-08T16:05:14Z</time>
</trkpt>
<trkpt lat="49.51564019545913" lon="9.21699134632945">
<ele>442.6</ele>
<time>2024-05-08T16:05:15Z</time>
</trkpt>
<trkpt lat="49.51565930619836" lon="9.21705144457519">
<ele>442.8</ele>
<time>2024-05-08T16:05:16Z</time>
</trkpt>
<trkpt lat="49.51567456126213" lon="9.21711347065866">
<ele>443</ele>
<time>2024-05-08T16:05:17Z</time>
</trkpt>
<trkpt lat="49.5156898163259" lon="9.217174490913749">
<ele>443.2</ele>
<time>2024-05-08T16:05:18Z</time>
</trkpt>
<trkpt lat="49.515701215714216" lon="9.217238361015916">
<ele>443.4</ele>
<time>2024-05-08T16:05:19Z</time>
</trkpt>
<trkpt lat="49.51571269892156" lon="9.217298459261656">
<ele>443.6</ele>
<time>2024-05-08T16:05:20Z</time>
</trkpt>
<trkpt lat="49.51572795398533" lon="9.217356629669666">
<ele>443.8</ele>
<time>2024-05-08T16:05:21Z</time>
</trkpt>
<trkpt lat="49.51573943719268" lon="9.217416727915406">
<ele>444</ele>
<time>2024-05-08T16:05:22Z</time>
</trkpt>
<trkpt lat="49.51575083658099" lon="9.217476826161146">
<ele>444.2</ele>
<time>2024-05-08T16:05:23Z</time>
</trkpt>
<trkpt lat="49.51576609164477" lon="9.217536924406886">
<ele>444.2</ele>
<time>2024-05-08T16:05:24Z</time>
</trkpt>
<trkpt lat="49.51577757485211" lon="9.217597944661977">
<ele>444.4</ele>
<time>2024-05-08T16:05:25Z</time>
</trkpt>
<trkpt lat="49.51579282991588" lon="9.217658042907717">
<ele>444.6</ele>
<time>2024-05-08T16:05:26Z</time>
</trkpt>
<trkpt lat="49.515804229304194" lon="9.217718057334425">
<ele>444.6</ele>
<time>2024-05-08T16:05:27Z</time>
</trkpt>
<trkpt lat="49.51581571251154" lon="9.217778155580165">
<ele>444.8</ele>
<time>2024-05-08T16:05:28Z</time>
</trkpt>
<trkpt lat="49.51582711189985" lon="9.217836325988172">
<ele>444.8</ele>
<time>2024-05-08T16:05:29Z</time>
</trkpt>
<trkpt lat="49.51583473943174" lon="9.217898352071645">
<ele>445</ele>
<time>2024-05-08T16:05:30Z</time>
</trkpt>
<trkpt lat="49.515842366963625" lon="9.21796029433608">
<ele>445.2</ele>
<time>2024-05-08T16:05:31Z</time>
</trkpt>
<trkpt lat="49.51584622263909" lon="9.2180232424289">
<ele>445.2</ele>
<time>2024-05-08T16:05:32Z</time>
</trkpt>
<trkpt lat="49.51584999449551" lon="9.218085268512368">
<ele>445.4</ele>
<time>2024-05-08T16:05:33Z</time>
</trkpt>
<trkpt lat="49.51585385017097" lon="9.218148216605186">
<ele>445.4</ele>
<time>2024-05-08T16:05:34Z</time>
</trkpt>
<trkpt lat="49.5158576220274" lon="9.218210158869624">
<ele>445.6</ele>
<time>2024-05-08T16:05:35Z</time>
</trkpt>
<trkpt lat="49.5158576220274" lon="9.218271179124711">
<ele>445.8</ele>
<time>2024-05-08T16:05:36Z</time>
</trkpt>
<trkpt lat="49.51585385017097" lon="9.218331277370453">
<ele>446</ele>
<time>2024-05-08T16:05:37Z</time>
</trkpt>
<trkpt lat="49.51584999449551" lon="9.218391375616193">
<ele>446</ele>
<time>2024-05-08T16:05:38Z</time>
</trkpt>
<trkpt lat="49.515842366963625" lon="9.218449546024203">
<ele>446.2</ele>
<time>2024-05-08T16:05:39Z</time>
</trkpt>
<trkpt lat="49.51583473943174" lon="9.218511572107673">
<ele>446.4</ele>
<time>2024-05-08T16:05:40Z</time>
</trkpt>
<trkpt lat="49.515823340043426" lon="9.218569742515683">
<ele>446.4</ele>
<time>2024-05-08T16:05:41Z</time>
</trkpt>
<trkpt lat="49.51580808497965" lon="9.218629756942391">
<ele>446.6</ele>
<time>2024-05-08T16:05:42Z</time>
</trkpt>
<trkpt lat="49.51579282991588" lon="9.218687005341051">
<ele>446.6</ele>
<time>2024-05-08T16:05:43Z</time>
</trkpt>
<trkpt lat="49.51577371917665" lon="9.218743247911334">
<ele>446.8</ele>
<time>2024-05-08T16:05:44Z</time>
</trkpt>
<trkpt lat="49.51575083658099" lon="9.218796724453568">
<ele>446.8</ele>
<time>2024-05-08T16:05:45Z</time>
</trkpt>
<trkpt lat="49.51572795398533" lon="9.218848189339042">
<ele>447</ele>
<time>2024-05-08T16:05:46Z</time>
</trkpt>
<trkpt lat="49.515701215714216" lon="9.218896804377437">
<ele>447</ele>
<time>2024-05-08T16:05:47Z</time>
</trkpt>
<trkpt lat="49.51567456126213" lon="9.218946425244212">
<ele>447.2</ele>
<time>2024-05-08T16:05:48Z</time>
</trkpt>
<trkpt lat="49.51564782299101" lon="9.218996968120337">
<ele>447.4</ele>
<time>2024-05-08T16:05:49Z</time>
</trkpt>
<trkpt lat="49.51562116853893" lon="9.219044661149384">
<ele>447.4</ele>
<time>2024-05-08T16:05:50Z</time>
</trkpt>
<trkpt lat="49.51559828594327" lon="9.219095204025509">
<ele>447.6</ele>
<time>2024-05-08T16:05:51Z</time>
</trkpt>
<trkpt lat="49.51557540334761" lon="9.21914474107325">
<ele>447.6</ele>
<time>2024-05-08T16:05:52Z</time>
</trkpt>
<trkpt lat="49.51555252075195" lon="9.219195283949375">
<ele>447.6</ele>
<time>2024-05-08T16:05:53Z</time>
</trkpt>
<trkpt lat="49.51552955433726" lon="9.21924683265388">
<ele>447.6</ele>
<time>2024-05-08T16:05:54Z</time>
</trkpt>
<trkpt lat="49.515506671741605" lon="9.219296453520656">
<ele>447.8</ele>
<time>2024-05-08T16:05:55Z</time>
</trkpt>
<trkpt lat="49.51548001728952" lon="9.21934506855905">
<ele>447.8</ele>
<time>2024-05-08T16:05:56Z</time>
</trkpt>
<trkpt lat="49.5154532790184" lon="9.219393683597444">
<ele>448</ele>
<time>2024-05-08T16:05:57Z</time>
</trkpt>
<trkpt lat="49.515430396422744" lon="9.21944330446422">
<ele>448</ele>
<time>2024-05-08T16:05:58Z</time>
</trkpt>
<trkpt lat="49.515411369502544" lon="9.219492841511965">
<ele>448</ele>
<time>2024-05-08T16:05:59Z</time>
</trkpt>
<trkpt lat="49.515388486906886" lon="9.2195463180542">
<ele>448.2</ele>
<time>2024-05-08T16:06:00Z</time>
</trkpt>
<trkpt lat="49.51536174863577" lon="9.219599710777402">
<ele>448.2</ele>
<time>2024-05-08T16:06:01Z</time>
</trkpt>
<trkpt lat="49.51533501036465" lon="9.219651175662875">
<ele>448.4</ele>
<time>2024-05-08T16:06:02Z</time>
</trkpt>
<trkpt lat="49.515308355912566" lon="9.219704568386078">
<ele>448.4</ele>
<time>2024-05-08T16:06:03Z</time>
</trkpt>
<trkpt lat="49.51528161764145" lon="9.21975796110928">
<ele>448.4</ele>
<time>2024-05-08T16:06:04Z</time>
</trkpt>
<trkpt lat="49.51525496318936" lon="9.219809509813786">
<ele>448.6</ele>
<time>2024-05-08T16:06:05Z</time>
</trkpt>
<trkpt lat="49.515228224918246" lon="9.21986198052764">
<ele>448.6</ele>
<time>2024-05-08T16:06:06Z</time>
</trkpt>
<trkpt lat="49.51520148664713" lon="9.219913445413113">
<ele>448.6</ele>
<time>2024-05-08T16:06:07Z</time>
</trkpt>
<trkpt lat="49.51517483219504" lon="9.219966838136315">
<ele>448.8</ele>
<time>2024-05-08T16:06:08Z</time>
</trkpt>
<trkpt lat="49.515148093923926" lon="9.220020230859518">
<ele>448.8</ele>
<time>2024-05-08T16:06:09Z</time>
</trkpt>
<trkpt lat="49.51512143947184" lon="9.2200746294111">
<ele>448.8</ele>
<time>2024-05-08T16:06:10Z</time>
</trkpt>
<trkpt lat="49.5150909293443" lon="9.220128022134304">
<ele>448.8</ele>
<time>2024-05-08T16:06:11Z</time>
</trkpt>
<trkpt lat="49.51506041921675" lon="9.220183342695236">
<ele>448.8</ele>
<time>2024-05-08T16:06:12Z</time>
</trkpt>
<trkpt lat="49.51502605341375" lon="9.22023480758071">
<ele>448.8</ele>
<time>2024-05-08T16:06:13Z</time>
</trkpt>
<trkpt lat="49.514991687610745" lon="9.220281578600408">
<ele>448.8</ele>
<time>2024-05-08T16:06:14Z</time>
</trkpt>
<trkpt lat="49.514953549951315" lon="9.220319716259835">
<ele>448.8</ele>
<time>2024-05-08T16:06:15Z</time>
</trkpt>
<trkpt lat="49.51491541229189" lon="9.22035114839673">
<ele>448.6</ele>
<time>2024-05-08T16:06:16Z</time>
</trkpt>
<trkpt lat="49.514877274632454" lon="9.220384592190385">
<ele>448.4</ele>
<time>2024-05-08T16:06:17Z</time>
</trkpt>
<trkpt lat="49.51483913697302" lon="9.220419880002735">
<ele>448.4</ele>
<time>2024-05-08T16:06:18Z</time>
</trkpt>
<trkpt lat="49.514797143638134" lon="9.22045323997736">
<ele>448.2</ele>
<time>2024-05-08T16:06:19Z</time>
</trkpt>
<trkpt lat="49.51475523412227" lon="9.220481822267176">
<ele>448</ele>
<time>2024-05-08T16:06:20Z</time>
</trkpt>
<trkpt lat="49.51471324078739" lon="9.220506632700562">
<ele>448</ele>
<time>2024-05-08T16:06:21Z</time>
</trkpt>
<trkpt lat="49.51466747559607" lon="9.22053337097168">
<ele>448</ele>
<time>2024-05-08T16:06:22Z</time>
</trkpt>
<trkpt lat="49.514621710404754" lon="9.220562875270844">
<ele>447.8</ele>
<time>2024-05-08T16:06:23Z</time>
</trkpt>
<trkpt lat="49.51457208953798" lon="9.22058961354196">
<ele>447.8</ele>
<time>2024-05-08T16:06:24Z</time>
</trkpt>
<trkpt lat="49.51452632434666" lon="9.220616267994046">
<ele>447.6</ele>
<time>2024-05-08T16:06:25Z</time>
</trkpt>
<trkpt lat="49.514480559155345" lon="9.220642084255816">
<ele>447.6</ele>
<time>2024-05-08T16:06:26Z</time>
</trkpt>
<trkpt lat="49.51443479396403" lon="9.22066974453628">
<ele>447.6</ele>
<time>2024-05-08T16:06:27Z</time>
</trkpt>
<trkpt lat="49.51438517309725" lon="9.220696398988366">
<ele>447.4</ele>
<time>2024-05-08T16:06:28Z</time>
</trkpt>
<trkpt lat="49.51434317976236" lon="9.220723137259483">
<ele>447.4</ele>
<time>2024-05-08T16:06:29Z</time>
</trkpt>
<trkpt lat="49.514301270246506" lon="9.220751719549298">
<ele>447.4</ele>
<time>2024-05-08T16:06:30Z</time>
</trkpt>
<trkpt lat="49.51425550505519" lon="9.220781307667494">
<ele>447.4</ele>
<time>2024-05-08T16:06:31Z</time>
</trkpt>
<trkpt lat="49.514202112331986" lon="9.220818439498544">
<ele>447.4</ele>
<time>2024-05-08T16:06:32Z</time>
</trkpt>
<trkpt lat="49.51415249146521" lon="9.220858504995704">
<ele>447.2</ele>
<time>2024-05-08T16:06:33Z</time>
</trkpt>
<trkpt lat="49.514102870598435" lon="9.220898570492864">
<ele>447.2</ele>
<time>2024-05-08T16:06:34Z</time>
</trkpt>
<trkpt lat="49.51405333355069" lon="9.220936708152294">
<ele>447.2</ele>
<time>2024-05-08T16:06:35Z</time>
</trkpt>
<trkpt lat="49.5140113402158" lon="9.220973001793029">
<ele>447.2</ele>
<time>2024-05-08T16:06:36Z</time>
</trkpt>
<trkpt lat="49.51396934688091" lon="9.22100828960538">
<ele>447.2</ele>
<time>2024-05-08T16:06:37Z</time>
</trkpt>
<trkpt lat="49.51393120922148" lon="9.221051204949616">
<ele>447</ele>
<time>2024-05-08T16:06:38Z</time>
</trkpt>
<trkpt lat="49.51389692723751" lon="9.221097892150285">
<ele>446.8</ele>
<time>2024-05-08T16:06:39Z</time>
</trkpt>
<trkpt lat="49.51386256143451" lon="9.22114466316998">
<ele>446.6</ele>
<time>2024-05-08T16:06:40Z</time>
</trkpt>
<trkpt lat="49.513828195631504" lon="9.221197050064802">
<ele>446.4</ele>
<time>2024-05-08T16:06:41Z</time>
</trkpt>
<trkpt lat="49.51380154117942" lon="9.221249520778656">
<ele>446.2</ele>
<time>2024-05-08T16:06:42Z</time>
</trkpt>
<trkpt lat="49.5137748029083" lon="9.22130291350186">
<ele>446.2</ele>
<time>2024-05-08T16:06:43Z</time>
</trkpt>
<trkpt lat="49.51374429278076" lon="9.221355384215713">
<ele>446.2</ele>
<time>2024-05-08T16:06:44Z</time>
</trkpt>
<trkpt lat="49.513710010796785" lon="9.221405005082488">
<ele>446</ele>
<time>2024-05-08T16:06:45Z</time>
</trkpt>
<trkpt lat="49.51367564499378" lon="9.221451692283154">
<ele>445.8</ele>
<time>2024-05-08T16:06:46Z</time>
</trkpt>
<trkpt lat="49.51364513486624" lon="9.22150324098766">
<ele>445.8</ele>
<time>2024-05-08T16:06:47Z</time>
</trkpt>
<trkpt lat="49.513610769063234" lon="9.22155856154859">
<ele>445.6</ele>
<time>2024-05-08T16:06:48Z</time>
</trkpt>
<trkpt lat="49.51357648707926" lon="9.221612876281142">
<ele>445.4</ele>
<time>2024-05-08T16:06:49Z</time>
</trkpt>
<trkpt lat="49.51354597695172" lon="9.221652941778302">
<ele>445.2</ele>
<time>2024-05-08T16:06:50Z</time>
</trkpt>
<trkpt lat="49.51352309435606" lon="9.221712034195662">
<ele>445</ele>
<time>2024-05-08T16:06:51Z</time>
</trkpt>
<trkpt lat="49.51349635608494" lon="9.221743550151588">
<ele>444.8</ele>
<time>2024-05-08T16:06:52Z</time>
</trkpt>
<trkpt lat="49.5134658459574" lon="9.221791243180633">
<ele>444.6</ele>
<time>2024-05-08T16:06:53Z</time>
</trkpt>
<trkpt lat="49.51342770829797" lon="9.22183700837195">
<ele>444.6</ele>
<time>2024-05-08T16:06:54Z</time>
</trkpt>
<trkpt lat="49.51338194310665" lon="9.221877995878458">
<ele>444.6</ele>
<time>2024-05-08T16:06:55Z</time>
</trkpt>
<trkpt lat="49.51334380544722" lon="9.221918061375618">
<ele>444.8</ele>
<time>2024-05-08T16:06:56Z</time>
</trkpt>
<trkpt lat="49.51330181211233" lon="9.2219552770257">
<ele>444.8</ele>
<time>2024-05-08T16:06:57Z</time>
</trkpt>
<trkpt lat="49.513256046921015" lon="9.222002970054746">
<ele>444.8</ele>
<time>2024-05-08T16:06:58Z</time>
</trkpt>
<trkpt lat="49.513214053586125" lon="9.222048735246062">
<ele>444.6</ele>
<time>2024-05-08T16:06:59Z</time>
</trkpt>
<trkpt lat="49.51316828839481" lon="9.222083017230034">
<ele>444.8</ele>
<time>2024-05-08T16:07:00Z</time>
</trkpt>
<trkpt lat="49.513133922591805" lon="9.222127860412002">
<ele>444.8</ele>
<time>2024-05-08T16:07:01Z</time>
</trkpt>
<trkpt lat="49.51308815740049" lon="9.222161220386624">
<ele>444.8</ele>
<time>2024-05-08T16:07:02Z</time>
</trkpt>
<trkpt lat="49.51305001974106" lon="9.222213691100478">
<ele>444.8</ele>
<time>2024-05-08T16:07:03Z</time>
</trkpt>
<trkpt lat="49.51301188208163" lon="9.222259456291797">
<ele>444.6</ele>
<time>2024-05-08T16:07:04Z</time>
</trkpt>
<trkpt lat="49.51296988874674" lon="9.222298599779606">
<ele>444.6</ele>
<time>2024-05-08T16:07:05Z</time>
</trkpt>
<trkpt lat="49.51292797923088" lon="9.222332881763576">
<ele>444.4</ele>
<time>2024-05-08T16:07:06Z</time>
</trkpt>
<trkpt lat="49.51288221403957" lon="9.222374875098469">
<ele>444.4</ele>
<time>2024-05-08T16:07:07Z</time>
</trkpt>
<trkpt lat="49.51283259317279" lon="9.222416868433356">
<ele>444.2</ele>
<time>2024-05-08T16:07:08Z</time>
</trkpt>
<trkpt lat="49.5127905998379" lon="9.222453078255056">
<ele>444</ele>
<time>2024-05-08T16:07:09Z</time>
</trkpt>
<trkpt lat="49.51274483464658" lon="9.222497921437023">
<ele>443.8</ele>
<time>2024-05-08T16:07:10Z</time>
</trkpt>
<trkpt lat="49.512702925130725" lon="9.222543686628342">
<ele>443.6</ele>
<time>2024-05-08T16:07:11Z</time>
</trkpt>
<trkpt lat="49.512660931795835" lon="9.222597079351544">
<ele>443.6</ele>
<time>2024-05-08T16:07:12Z</time>
</trkpt>
<trkpt lat="49.512618938460946" lon="9.222633289173244">
<ele>443.4</ele>
<time>2024-05-08T16:07:13Z</time>
</trkpt>
<trkpt lat="49.51257317326963" lon="9.22266480512917">
<ele>443.2</ele>
<time>2024-05-08T16:07:14Z</time>
</trkpt>
<trkpt lat="49.51252740807831" lon="9.222702020779252">
<ele>443</ele>
<time>2024-05-08T16:07:15Z</time>
</trkpt>
<trkpt lat="49.51248164288699" lon="9.222740158438684">
<ele>443</ele>
<time>2024-05-08T16:07:16Z</time>
</trkpt>
<trkpt lat="49.512443505227566" lon="9.222775446251037">
<ele>442.8</ele>
<time>2024-05-08T16:07:17Z</time>
</trkpt>
<trkpt lat="49.512405367568135" lon="9.222809728235006">
<ele>442.6</ele>
<time>2024-05-08T16:07:18Z</time>
</trkpt>
<trkpt lat="49.512363374233246" lon="9.22284023836255">
<ele>442.2</ele>
<time>2024-05-08T16:07:19Z</time>
</trkpt>
<trkpt lat="49.512325236573815" lon="9.222866976633668">
<ele>442</ele>
<time>2024-05-08T16:07:20Z</time>
</trkpt>
<trkpt lat="49.51229095458984" lon="9.22290033660829">
<ele>441.8</ele>
<time>2024-05-08T16:07:21Z</time>
</trkpt>
<trkpt lat="49.51225273311138" lon="9.222929924726486">
<ele>441.6</ele>
<time>2024-05-08T16:07:22Z</time>
</trkpt>
<trkpt lat="49.512206967920065" lon="9.2229585070163">
<ele>441.4</ele>
<time>2024-05-08T16:07:23Z</time>
</trkpt>
<trkpt lat="49.51216120272875" lon="9.223003350198267">
<ele>441.4</ele>
<time>2024-05-08T16:07:24Z</time>
</trkpt>
<trkpt lat="49.51211543753743" lon="9.223034782335162">
<ele>441.4</ele>
<time>2024-05-08T16:07:25Z</time>
</trkpt>
<trkpt lat="49.51207344420254" lon="9.223065376281738">
<ele>441.4</ele>
<time>2024-05-08T16:07:26Z</time>
</trkpt>
<trkpt lat="49.512031534686685" lon="9.223096808418632">
<ele>441.2</ele>
<time>2024-05-08T16:07:27Z</time>
</trkpt>
<trkpt lat="49.51198191381991" lon="9.22311969101429">
<ele>441.2</ele>
<time>2024-05-08T16:07:28Z</time>
</trkpt>
<trkpt lat="49.511928521096706" lon="9.223146429285409">
<ele>441</ele>
<time>2024-05-08T16:07:29Z</time>
</trkpt>
<trkpt lat="49.51187890022993" lon="9.22319982200861">
<ele>441.2</ele>
<time>2024-05-08T16:07:30Z</time>
</trkpt>
<trkpt lat="49.5118217356503" lon="9.22323795966804">
<ele>441.2</ele>
<time>2024-05-08T16:07:31Z</time>
</trkpt>
<trkpt lat="49.51176825910807" lon="9.223275175318122">
<ele>441.4</ele>
<time>2024-05-08T16:07:32Z</time>
</trkpt>
<trkpt lat="49.511714866384864" lon="9.22331616282463">
<ele>441.4</ele>
<time>2024-05-08T16:07:33Z</time>
</trkpt>
<trkpt lat="49.51166910119355" lon="9.223360000178218">
<ele>441.4</ele>
<time>2024-05-08T16:07:34Z</time>
</trkpt>
<trkpt lat="49.51161193661392" lon="9.223400065675378">
<ele>441.2</ele>
<time>2024-05-08T16:07:35Z</time>
</trkpt>
<trkpt lat="49.51156231574714" lon="9.22343627549708">
<ele>441.2</ele>
<time>2024-05-08T16:07:36Z</time>
</trkpt>
<trkpt lat="49.51150506734848" lon="9.223478268831968">
<ele>441</ele>
<time>2024-05-08T16:07:37Z</time>
</trkpt>
<trkpt lat="49.51145167462528" lon="9.22351447865367">
<ele>441</ele>
<time>2024-05-08T16:07:38Z</time>
</trkpt>
<trkpt lat="49.5114020537585" lon="9.223549766466022">
<ele>441</ele>
<time>2024-05-08T16:07:39Z</time>
</trkpt>
<trkpt lat="49.511356288567185" lon="9.223585054278374">
<ele>440.8</ele>
<time>2024-05-08T16:07:40Z</time>
</trkpt>
<trkpt lat="49.51131052337587" lon="9.223620342090726">
<ele>440.8</ele>
<time>2024-05-08T16:07:41Z</time>
</trkpt>
<trkpt lat="49.51126475818455" lon="9.22365470789373">
<ele>440.6</ele>
<time>2024-05-08T16:07:42Z</time>
</trkpt>
<trkpt lat="49.51121513731778" lon="9.22369192354381">
<ele>440.4</ele>
<time>2024-05-08T16:07:43Z</time>
</trkpt>
<trkpt lat="49.51116560027003" lon="9.223726205527782">
<ele>440.2</ele>
<time>2024-05-08T16:07:44Z</time>
</trkpt>
<trkpt lat="49.51111597940326" lon="9.223761493340136">
<ele>440</ele>
<time>2024-05-08T16:07:45Z</time>
</trkpt>
<trkpt lat="49.51107784174383" lon="9.22379015944898">
<ele>440</ele>
<time>2024-05-08T16:07:46Z</time>
</trkpt>
<trkpt lat="49.5110397040844" lon="9.223816813901069">
<ele>439.8</ele>
<time>2024-05-08T16:07:47Z</time>
</trkpt>
<trkpt lat="49.511001566424966" lon="9.2238531075418">
<ele>439.6</ele>
<time>2024-05-08T16:07:48Z</time>
</trkpt>
<trkpt lat="49.51095957309008" lon="9.223883617669344">
<ele>439.4</ele>
<time>2024-05-08T16:07:49Z</time>
</trkpt>
<trkpt lat="49.510925291106105" lon="9.22391127794981">
<ele>439.2</ele>
<time>2024-05-08T16:07:50Z</time>
</trkpt>
<trkpt lat="49.51089469715953" lon="9.223937010392548">
<ele>439.2</ele>
<time>2024-05-08T16:07:51Z</time>
</trkpt>
<trkpt lat="49.51087181456387" lon="9.223957965150476">
<ele>438.8</ele>
<time>2024-05-08T16:07:52Z</time>
</trkpt>
<trkpt lat="49.51085278764367" lon="9.22398847527802">
<ele>438.4</ele>
<time>2024-05-08T16:07:53Z</time>
</trkpt>
<trkpt lat="49.510841304436326" lon="9.224024768918753">
<ele>438</ele>
<time>2024-05-08T16:07:54Z</time>
</trkpt>
<trkpt lat="49.5108375325799" lon="9.22406475059688">
<ele>437.8</ele>
<time>2024-05-08T16:07:55Z</time>
</trkpt>
<trkpt lat="49.5108375325799" lon="9.22410481609404">
<ele>437.6</ele>
<time>2024-05-08T16:07:56Z</time>
</trkpt>
<trkpt lat="49.5108375325799" lon="9.224162986502051">
<ele>437.2</ele>
<time>2024-05-08T16:07:57Z</time>
</trkpt>
<trkpt lat="49.51082990504801" lon="9.22422501258552">
<ele>437</ele>
<time>2024-05-08T16:07:58Z</time>
</trkpt>
<trkpt lat="49.51081842184067" lon="9.224293660372496">
<ele>437</ele>
<time>2024-05-08T16:07:59Z</time>
</trkpt>
<trkpt lat="49.51081842184067" lon="9.224349902942777">
<ele>436.8</ele>
<time>2024-05-08T16:08:00Z</time>
</trkpt>
<trkpt lat="49.51082227751613" lon="9.224405223503709">
<ele>436.8</ele>
<time>2024-05-08T16:08:01Z</time>
</trkpt>
<trkpt lat="49.510826049372554" lon="9.224458616226912">
<ele>436.8</ele>
<time>2024-05-08T16:08:02Z</time>
</trkpt>
<trkpt lat="49.51082227751613" lon="9.224514942616224">
<ele>436.8</ele>
<time>2024-05-08T16:08:03Z</time>
</trkpt>
<trkpt lat="49.51082227751613" lon="9.224576884880662">
<ele>436.8</ele>
<time>2024-05-08T16:08:04Z</time>
</trkpt>
<trkpt lat="49.51082990504801" lon="9.22463983297348">
<ele>436.8</ele>
<time>2024-05-08T16:08:05Z</time>
</trkpt>
<trkpt lat="49.51083367690444" lon="9.22470185905695">
<ele>436.8</ele>
<time>2024-05-08T16:08:06Z</time>
</trkpt>
<trkpt lat="49.510845160111785" lon="9.224762879312038">
<ele>436.8</ele>
<time>2024-05-08T16:08:07Z</time>
</trkpt>
<trkpt lat="49.51084893196821" lon="9.224835382774472">
<ele>437</ele>
<time>2024-05-08T16:08:08Z</time>
</trkpt>
<trkpt lat="49.5108565595001" lon="9.224900174885988">
<ele>437</ele>
<time>2024-05-08T16:08:09Z</time>
</trkpt>
<trkpt lat="49.51087181456387" lon="9.224965050816536">
<ele>437</ele>
<time>2024-05-08T16:08:10Z</time>
</trkpt>
<trkpt lat="49.51087944209576" lon="9.225034704431891">
<ele>437</ele>
<time>2024-05-08T16:08:11Z</time>
</trkpt>
<trkpt lat="49.51088706962764" lon="9.22509857453406">
<ele>437</ele>
<time>2024-05-08T16:08:12Z</time>
</trkpt>
<trkpt lat="49.51089469715953" lon="9.225161522626877">
<ele>437</ele>
<time>2024-05-08T16:08:13Z</time>
</trkpt>
<trkpt lat="49.510902324691415" lon="9.225228242576122">
<ele>436.8</ele>
<time>2024-05-08T16:08:14Z</time>
</trkpt>
<trkpt lat="49.5109099522233" lon="9.2252950463444">
<ele>436.8</ele>
<time>2024-05-08T16:08:15Z</time>
</trkpt>
<trkpt lat="49.51091766357422" lon="9.225361766293643">
<ele>437</ele>
<time>2024-05-08T16:08:16Z</time>
</trkpt>
<trkpt lat="49.510925291106105" lon="9.225429492071273">
<ele>437</ele>
<time>2024-05-08T16:08:17Z</time>
</trkpt>
<trkpt lat="49.51093669049442" lon="9.225498139858246">
<ele>437</ele>
<time>2024-05-08T16:08:18Z</time>
</trkpt>
<trkpt lat="49.51094817370176" lon="9.225563015788794">
<ele>437</ele>
<time>2024-05-08T16:08:19Z</time>
</trkpt>
<trkpt lat="49.51095957309008" lon="9.225624958053231">
<ele>437</ele>
<time>2024-05-08T16:08:20Z</time>
</trkpt>
<trkpt lat="49.51097105629742" lon="9.2256869841367">
<ele>437</ele>
<time>2024-05-08T16:08:21Z</time>
</trkpt>
<trkpt lat="49.51097482815385" lon="9.225753704085946">
<ele>437</ele>
<time>2024-05-08T16:08:22Z</time>
</trkpt>
<trkpt lat="49.51099008321762" lon="9.225825285539033">
<ele>437</ele>
<time>2024-05-08T16:08:23Z</time>
</trkpt>
<trkpt lat="49.511001566424966" lon="9.225896783173084">
<ele>437</ele>
<time>2024-05-08T16:08:24Z</time>
</trkpt>
<trkpt lat="49.51100919395685" lon="9.225973058491943">
<ele>437</ele>
<time>2024-05-08T16:08:25Z</time>
</trkpt>
<trkpt lat="49.51101682148874" lon="9.226046483963728">
<ele>437.2</ele>
<time>2024-05-08T16:08:26Z</time>
</trkpt>
<trkpt lat="49.51103207655251" lon="9.22612183727324">
<ele>437.2</ele>
<time>2024-05-08T16:08:27Z</time>
</trkpt>
<trkpt lat="49.511043475940824" lon="9.226195262745025">
<ele>437.4</ele>
<time>2024-05-08T16:08:28Z</time>
</trkpt>
<trkpt lat="49.51105495914817" lon="9.2262620665133">
<ele>437.4</ele>
<time>2024-05-08T16:08:29Z</time>
</trkpt>
<trkpt lat="49.511062586680055" lon="9.226327864453197">
<ele>437.6</ele>
<time>2024-05-08T16:08:30Z</time>
</trkpt>
<trkpt lat="49.51107021421194" lon="9.226393662393091">
<ele>437.4</ele>
<time>2024-05-08T16:08:31Z</time>
</trkpt>
<trkpt lat="49.511081613600254" lon="9.226465160027146">
<ele>437.4</ele>
<time>2024-05-08T16:08:32Z</time>
</trkpt>
<trkpt lat="49.51108546927571" lon="9.226536741480231">
<ele>437.4</ele>
<time>2024-05-08T16:08:33Z</time>
</trkpt>
<trkpt lat="49.5110930968076" lon="9.226610166952014">
<ele>437.2</ele>
<time>2024-05-08T16:08:34Z</time>
</trkpt>
<trkpt lat="49.511104580014944" lon="9.226681664586067">
<ele>437.2</ele>
<time>2024-05-08T16:08:35Z</time>
</trkpt>
<trkpt lat="49.51111220754683" lon="9.22675701789558">
<ele>437</ele>
<time>2024-05-08T16:08:36Z</time>
</trkpt>
<trkpt lat="49.51111983507872" lon="9.226821893826129">
<ele>437</ele>
<time>2024-05-08T16:08:37Z</time>
</trkpt>
<trkpt lat="49.51112360693514" lon="9.22689339146018">
<ele>437</ele>
<time>2024-05-08T16:08:38Z</time>
</trkpt>
<trkpt lat="49.5111274626106" lon="9.226956339553">
<ele>437</ele>
<time>2024-05-08T16:08:39Z</time>
</trkpt>
<trkpt lat="49.51113123446703" lon="9.227020209655166">
<ele>437</ele>
<time>2024-05-08T16:08:40Z</time>
</trkpt>
<trkpt lat="49.51113509014249" lon="9.227085085585712">
<ele>437</ele>
<time>2024-05-08T16:08:41Z</time>
</trkpt>
<trkpt lat="49.5111464895308" lon="9.22714996151626">
<ele>437</ele>
<time>2024-05-08T16:08:42Z</time>
</trkpt>
<trkpt lat="49.51115797273815" lon="9.227214753627775">
<ele>437</ele>
<time>2024-05-08T16:08:43Z</time>
</trkpt>
<trkpt lat="49.511161744594574" lon="9.227274851873515">
<ele>437</ele>
<time>2024-05-08T16:08:44Z</time>
</trkpt>
<trkpt lat="49.511161744594574" lon="9.227336877956986">
<ele>437</ele>
<time>2024-05-08T16:08:45Z</time>
</trkpt>
<trkpt lat="49.51117322780192" lon="9.227403597906232">
<ele>437</ele>
<time>2024-05-08T16:08:46Z</time>
</trkpt>
<trkpt lat="49.511180855333805" lon="9.227470317855476">
<ele>437.2</ele>
<time>2024-05-08T16:08:47Z</time>
</trkpt>
<trkpt lat="49.51118462719023" lon="9.227539971470833">
<ele>437.2</ele>
<time>2024-05-08T16:08:48Z</time>
</trkpt>
<trkpt lat="49.51118848286569" lon="9.227615324780343">
<ele>437.2</ele>
<time>2024-05-08T16:08:49Z</time>
</trkpt>
<trkpt lat="49.51119611039758" lon="9.227688750252128">
<ele>437.2</ele>
<time>2024-05-08T16:08:50Z</time>
</trkpt>
<trkpt lat="49.51120750978589" lon="9.227758403867483">
<ele>437.4</ele>
<time>2024-05-08T16:08:51Z</time>
</trkpt>
<trkpt lat="49.51122276484966" lon="9.227827973663809">
<ele>437.4</ele>
<time>2024-05-08T16:08:52Z</time>
</trkpt>
<trkpt lat="49.51123424805701" lon="9.227894777432084">
<ele>437.6</ele>
<time>2024-05-08T16:08:53Z</time>
</trkpt>
<trkpt lat="49.511241875588894" lon="9.22796342521906">
<ele>437.8</ele>
<time>2024-05-08T16:08:54Z</time>
</trkpt>
<trkpt lat="49.51124950312078" lon="9.228030145168304">
<ele>437.8</ele>
<time>2024-05-08T16:08:55Z</time>
</trkpt>
<trkpt lat="49.511257130652666" lon="9.22809979878366">
<ele>438</ele>
<time>2024-05-08T16:08:56Z</time>
</trkpt>
<trkpt lat="49.51125327497721" lon="9.228171296417711">
<ele>438</ele>
<time>2024-05-08T16:08:57Z</time>
</trkpt>
<trkpt lat="49.51126475818455" lon="9.228239944204688">
<ele>438.2</ele>
<time>2024-05-08T16:08:58Z</time>
</trkpt>
<trkpt lat="49.51126861386001" lon="9.228306747972963">
<ele>438.2</ele>
<time>2024-05-08T16:08:59Z</time>
</trkpt>
<trkpt lat="49.51128001324832" lon="9.228369696065784">
<ele>438.2</ele>
<time>2024-05-08T16:09:00Z</time>
</trkpt>
<trkpt lat="49.51128764078021" lon="9.228427866473794">
<ele>438.4</ele>
<time>2024-05-08T16:09:01Z</time>
</trkpt>
<trkpt lat="49.5112952683121" lon="9.22849173657596">
<ele>438.4</ele>
<time>2024-05-08T16:09:02Z</time>
</trkpt>
<trkpt lat="49.51131052337587" lon="9.228549906983972">
<ele>438.4</ele>
<time>2024-05-08T16:09:03Z</time>
</trkpt>
<trkpt lat="49.511322006583214" lon="9.228606149554253">
<ele>438.4</ele>
<time>2024-05-08T16:09:04Z</time>
</trkpt>
<trkpt lat="49.51133340597153" lon="9.228661470115185">
<ele>438.4</ele>
<time>2024-05-08T16:09:05Z</time>
</trkpt>
<trkpt lat="49.51134488917887" lon="9.228739673271775">
<ele>438.4</ele>
<time>2024-05-08T16:09:06Z</time>
</trkpt>
<trkpt lat="49.511356288567185" lon="9.228823659941554">
<ele>438.4</ele>
<time>2024-05-08T16:09:07Z</time>
</trkpt>
<trkpt lat="49.51136391609907" lon="9.228897085413337">
<ele>438.6</ele>
<time>2024-05-08T16:09:08Z</time>
</trkpt>
<trkpt lat="49.51137154363096" lon="9.228982916101812">
<ele>438.6</ele>
<time>2024-05-08T16:09:09Z</time>
</trkpt>
<trkpt lat="49.51137539930642" lon="9.229073524475098">
<ele>438.6</ele>
<time>2024-05-08T16:09:10Z</time>
</trkpt>
<trkpt lat="49.51138679869473" lon="9.229158349335194">
<ele>438.6</ele>
<time>2024-05-08T16:09:11Z</time>
</trkpt>
<trkpt lat="49.511394426226616" lon="9.229251807555556">
<ele>438.4</ele>
<time>2024-05-08T16:09:12Z</time>
</trkpt>
<trkpt lat="49.511398281902075" lon="9.229339566081762">
<ele>438.4</ele>
<time>2024-05-08T16:09:13Z</time>
</trkpt>
<trkpt lat="49.5114020537585" lon="9.22942154109478">
<ele>438.4</ele>
<time>2024-05-08T16:09:14Z</time>
</trkpt>
<trkpt lat="49.51141353696585" lon="9.2295016720891">
<ele>438.2</ele>
<time>2024-05-08T16:09:15Z</time>
</trkpt>
<trkpt lat="49.51142879202962" lon="9.229571325704455">
<ele>438.2</ele>
<time>2024-05-08T16:09:16Z</time>
</trkpt>
<trkpt lat="49.511436419561505" lon="9.229646679013968">
<ele>438.2</ele>
<time>2024-05-08T16:09:17Z</time>
</trkpt>
<trkpt lat="49.51144790276885" lon="9.229721948504448">
<ele>438</ele>
<time>2024-05-08T16:09:18Z</time>
</trkpt>
<trkpt lat="49.51145167462528" lon="9.229791602119803">
<ele>438</ele>
<time>2024-05-08T16:09:19Z</time>
</trkpt>
<trkpt lat="49.51146315783262" lon="9.229865027591586">
<ele>438</ele>
<time>2024-05-08T16:09:20Z</time>
</trkpt>
<trkpt lat="49.51146692968905" lon="9.229934681206942">
<ele>438</ele>
<time>2024-05-08T16:09:21Z</time>
</trkpt>
<trkpt lat="49.511474557220936" lon="9.230006178840997">
<ele>437.8</ele>
<time>2024-05-08T16:09:22Z</time>
</trkpt>
<trkpt lat="49.511478412896395" lon="9.23007482662797">
<ele>437.8</ele>
<time>2024-05-08T16:09:23Z</time>
</trkpt>
<trkpt lat="49.51148604042828" lon="9.230145402252674">
<ele>437.8</ele>
<time>2024-05-08T16:09:24Z</time>
</trkpt>
<trkpt lat="49.51148981228471" lon="9.23021120019257">
<ele>437.8</ele>
<time>2024-05-08T16:09:25Z</time>
</trkpt>
<trkpt lat="49.51150506734848" lon="9.230281775817277">
<ele>437.8</ele>
<time>2024-05-08T16:09:26Z</time>
</trkpt>
<trkpt lat="49.51150892302394" lon="9.2303495015949">
<ele>437.8</ele>
<time>2024-05-08T16:09:27Z</time>
</trkpt>
<trkpt lat="49.511516550555825" lon="9.230415299534798">
<ele>438</ele>
<time>2024-05-08T16:09:28Z</time>
</trkpt>
<trkpt lat="49.51152794994414" lon="9.230476319789886">
<ele>438</ele>
<time>2024-05-08T16:09:29Z</time>
</trkpt>
<trkpt lat="49.5115318056196" lon="9.230543123558164">
<ele>438</ele>
<time>2024-05-08T16:09:30Z</time>
</trkpt>
<trkpt lat="49.51154320500791" lon="9.230609843507407">
<ele>438</ele>
<time>2024-05-08T16:09:31Z</time>
</trkpt>
<trkpt lat="49.51155846007168" lon="9.230680419132112">
<ele>438</ele>
<time>2024-05-08T16:09:32Z</time>
</trkpt>
<trkpt lat="49.51156994327903" lon="9.230750072747467">
<ele>438</ele>
<time>2024-05-08T16:09:33Z</time>
</trkpt>
<trkpt lat="49.51158134266734" lon="9.230819642543793">
<ele>438.2</ele>
<time>2024-05-08T16:09:34Z</time>
</trkpt>
<trkpt lat="49.51159659773111" lon="9.230891223996878">
<ele>438.2</ele>
<time>2024-05-08T16:09:35Z</time>
</trkpt>
<trkpt lat="49.51160808093846" lon="9.230961799621582">
<ele>438.2</ele>
<time>2024-05-08T16:09:36Z</time>
</trkpt>
<trkpt lat="49.51161193661392" lon="9.231031369417906">
<ele>438.2</ele>
<time>2024-05-08T16:09:37Z</time>
</trkpt>
<trkpt lat="49.51162333600223" lon="9.231109572574496">
<ele>438.2</ele>
<time>2024-05-08T16:09:38Z</time>
</trkpt>
<trkpt lat="49.511634819209576" lon="9.231186853721738">
<ele>438.2</ele>
<time>2024-05-08T16:09:39Z</time>
</trkpt>
<trkpt lat="49.51164621859789" lon="9.231266900897026">
<ele>438.2</ele>
<time>2024-05-08T16:09:40Z</time>
</trkpt>
<trkpt lat="49.51165007427335" lon="9.23134133219719">
<ele>438.2</ele>
<time>2024-05-08T16:09:41Z</time>
</trkpt>
<trkpt lat="49.511657701805234" lon="9.2314166855067">
<ele>438</ele>
<time>2024-05-08T16:09:42Z</time>
</trkpt>
<trkpt lat="49.511653846129775" lon="9.231488183140756">
<ele>438</ele>
<time>2024-05-08T16:09:43Z</time>
</trkpt>
<trkpt lat="49.511653846129775" lon="9.23155683092773">
<ele>437.8</ele>
<time>2024-05-08T16:09:44Z</time>
</trkpt>
<trkpt lat="49.51166147366166" lon="9.231626484543083">
<ele>437.8</ele>
<time>2024-05-08T16:09:45Z</time>
</trkpt>
<trkpt lat="49.51166147366166" lon="9.231690354645252">
<ele>437.8</ele>
<time>2024-05-08T16:09:46Z</time>
</trkpt>
<trkpt lat="49.511657701805234" lon="9.231756152585149">
<ele>437.6</ele>
<time>2024-05-08T16:09:47Z</time>
</trkpt>
<trkpt lat="49.51166147366166" lon="9.231824800372124">
<ele>437.6</ele>
<time>2024-05-08T16:09:48Z</time>
</trkpt>
<trkpt lat="49.51166910119355" lon="9.231882970780134">
<ele>437.8</ele>
<time>2024-05-08T16:09:49Z</time>
</trkpt>
<trkpt lat="49.511672956869006" lon="9.231940219178796">
<ele>437.8</ele>
<time>2024-05-08T16:09:50Z</time>
</trkpt>
<trkpt lat="49.51167672872543" lon="9.232001239433885">
<ele>438</ele>
<time>2024-05-08T16:09:51Z</time>
</trkpt>
<trkpt lat="49.51168058440089" lon="9.232073742896318">
<ele>438</ele>
<time>2024-05-08T16:09:52Z</time>
</trkpt>
<trkpt lat="49.51168435625732" lon="9.232136690989137">
<ele>438.2</ele>
<time>2024-05-08T16:09:53Z</time>
</trkpt>
<trkpt lat="49.51168435625732" lon="9.23220818862319">
<ele>438.4</ele>
<time>2024-05-08T16:09:54Z</time>
</trkpt>
<trkpt lat="49.51168821193278" lon="9.232277842238544">
<ele>438.6</ele>
<time>2024-05-08T16:09:55Z</time>
</trkpt>
<trkpt lat="49.511691983789206" lon="9.23234649002552">
<ele>438.6</ele>
<time>2024-05-08T16:09:56Z</time>
</trkpt>
<trkpt lat="49.511691983789206" lon="9.232415137812495">
<ele>438.8</ele>
<time>2024-05-08T16:09:57Z</time>
</trkpt>
<trkpt lat="49.51168821193278" lon="9.23248956911266">
<ele>438.8</ele>
<time>2024-05-08T16:09:58Z</time>
</trkpt>
<trkpt lat="49.51168821193278" lon="9.232558216899632">
<ele>439</ele>
<time>2024-05-08T16:09:59Z</time>
</trkpt>
<trkpt lat="49.51168821193278" lon="9.23262493684888">
<ele>439.2</ele>
<time>2024-05-08T16:10:00Z</time>
</trkpt>
<trkpt lat="49.51168821193278" lon="9.232681263238192">
<ele>439.2</ele>
<time>2024-05-08T16:10:01Z</time>
</trkpt>
<trkpt lat="49.51168821193278" lon="9.232749911025168">
<ele>439.4</ele>
<time>2024-05-08T16:10:02Z</time>
</trkpt>
<trkpt lat="49.51168821193278" lon="9.232814786955714">
<ele>439.4</ele>
<time>2024-05-08T16:10:03Z</time>
</trkpt>
<trkpt lat="49.51168821193278" lon="9.23288150690496">
<ele>439.4</ele>
<time>2024-05-08T16:10:04Z</time>
</trkpt>
<trkpt lat="49.51168821193278" lon="9.232954932376742">
<ele>439.6</ele>
<time>2024-05-08T16:10:05Z</time>
</trkpt>
<trkpt lat="49.51168821193278" lon="9.233024585992098">
<ele>439.8</ele>
<time>2024-05-08T16:10:06Z</time>
</trkpt>
<trkpt lat="49.511691983789206" lon="9.233099855482578">
<ele>440</ele>
<time>2024-05-08T16:10:07Z</time>
</trkpt>
<trkpt lat="49.51170346699655" lon="9.23317520879209">
<ele>440</ele>
<time>2024-05-08T16:10:08Z</time>
</trkpt>
<trkpt lat="49.51170723885298" lon="9.23325533978641">
<ele>440.2</ele>
<time>2024-05-08T16:10:09Z</time>
</trkpt>
<trkpt lat="49.511714866384864" lon="9.233331615105271">
<ele>440.2</ele>
<time>2024-05-08T16:10:10Z</time>
</trkpt>
<trkpt lat="49.51171872206032" lon="9.233403196558356">
<ele>440.2</ele>
<time>2024-05-08T16:10:11Z</time>
</trkpt>
<trkpt lat="49.51172249391675" lon="9.23347662203014">
<ele>440.2</ele>
<time>2024-05-08T16:10:12Z</time>
</trkpt>
<trkpt lat="49.51173012144864" lon="9.233552897349">
<ele>440</ele>
<time>2024-05-08T16:10:13Z</time>
</trkpt>
<trkpt lat="49.51174160465598" lon="9.233625400811434">
<ele>440</ele>
<time>2024-05-08T16:10:14Z</time>
</trkpt>
<trkpt lat="49.51174537651241" lon="9.233693042770028">
<ele>440</ele>
<time>2024-05-08T16:10:15Z</time>
</trkpt>
<trkpt lat="49.51176448725164" lon="9.233766552060844">
<ele>440</ele>
<time>2024-05-08T16:10:16Z</time>
</trkpt>
<trkpt lat="49.51177974231541" lon="9.23383042216301">
<ele>440</ele>
<time>2024-05-08T16:10:17Z</time>
</trkpt>
<trkpt lat="49.51179885305464" lon="9.23388859257102">
<ele>440</ele>
<time>2024-05-08T16:10:18Z</time>
</trkpt>
<trkpt lat="49.51181787997484" lon="9.233958162367344">
<ele>440</ele>
<time>2024-05-08T16:10:19Z</time>
</trkpt>
<trkpt lat="49.511833135038614" lon="9.23402496613562">
<ele>440</ele>
<time>2024-05-08T16:10:20Z</time>
</trkpt>
<trkpt lat="49.51184839010239" lon="9.234094619750977">
<ele>440.2</ele>
<time>2024-05-08T16:10:21Z</time>
</trkpt>
<trkpt lat="49.51186750084162" lon="9.234163267537951">
<ele>440.2</ele>
<time>2024-05-08T16:10:22Z</time>
</trkpt>
<trkpt lat="49.51187890022993" lon="9.23422621563077">
<ele>440.2</ele>
<time>2024-05-08T16:10:23Z</time>
</trkpt>
<trkpt lat="49.5118941552937" lon="9.234288157895207">
<ele>440.2</ele>
<time>2024-05-08T16:10:24Z</time>
</trkpt>
<trkpt lat="49.51190178282559" lon="9.234353033825755">
<ele>440.2</ele>
<time>2024-05-08T16:10:25Z</time>
</trkpt>
<trkpt lat="49.511913266032934" lon="9.234414976090193">
<ele>440.2</ele>
<time>2024-05-08T16:10:26Z</time>
</trkpt>
<trkpt lat="49.51192466542125" lon="9.234486557543278">
<ele>440.2</ele>
<time>2024-05-08T16:10:27Z</time>
</trkpt>
<trkpt lat="49.51193992048502" lon="9.23456191085279">
<ele>440.4</ele>
<time>2024-05-08T16:10:28Z</time>
</trkpt>
<trkpt lat="49.511955259367824" lon="9.234635336324573">
<ele>440.4</ele>
<time>2024-05-08T16:10:29Z</time>
</trkpt>
<trkpt lat="49.5119705144316" lon="9.234709683805704">
<ele>440.4</ele>
<time>2024-05-08T16:10:30Z</time>
</trkpt>
<trkpt lat="49.51197814196348" lon="9.234786964952946">
<ele>440.6</ele>
<time>2024-05-08T16:10:31Z</time>
</trkpt>
<trkpt lat="49.51198576949537" lon="9.234865168109536">
<ele>440.8</ele>
<time>2024-05-08T16:10:32Z</time>
</trkpt>
<trkpt lat="49.51199716888368" lon="9.234943371266128">
<ele>440.8</ele>
<time>2024-05-08T16:10:33Z</time>
</trkpt>
<trkpt lat="49.51200479641557" lon="9.23501679673791">
<ele>441.2</ele>
<time>2024-05-08T16:10:34Z</time>
</trkpt>
<trkpt lat="49.512027679011226" lon="9.235090222209692">
<ele>441.4</ele>
<time>2024-05-08T16:10:35Z</time>
</trkpt>
<trkpt lat="49.51205056160688" lon="9.235161719843743">
<ele>441.4</ele>
<time>2024-05-08T16:10:36Z</time>
</trkpt>
<trkpt lat="49.51207344420254" lon="9.2352313734591">
<ele>441.6</ele>
<time>2024-05-08T16:10:37Z</time>
</trkpt>
<trkpt lat="49.51209255494177" lon="9.235300021246076">
<ele>441.6</ele>
<time>2024-05-08T16:10:38Z</time>
</trkpt>
<trkpt lat="49.51211158186197" lon="9.235362969338894">
<ele>441.8</ele>
<time>2024-05-08T16:10:39Z</time>
</trkpt>
<trkpt lat="49.51213454827666" lon="9.23542683944106">
<ele>441.6</ele>
<time>2024-05-08T16:10:40Z</time>
</trkpt>
<trkpt lat="49.512149803340435" lon="9.23548785969615">
<ele>441.6</ele>
<time>2024-05-08T16:10:41Z</time>
</trkpt>
<trkpt lat="49.51217268593609" lon="9.23554988577962">
<ele>441.6</ele>
<time>2024-05-08T16:10:42Z</time>
</trkpt>
<trkpt lat="49.51219934038818" lon="9.23560998402536">
<ele>441.8</ele>
<time>2024-05-08T16:10:43Z</time>
</trkpt>
<trkpt lat="49.51222222298384" lon="9.235671926289797">
<ele>441.8</ele>
<time>2024-05-08T16:10:44Z</time>
</trkpt>
<trkpt lat="49.512245105579495" lon="9.235739652067425">
<ele>441.8</ele>
<time>2024-05-08T16:10:45Z</time>
</trkpt>
<trkpt lat="49.51226036064327" lon="9.235799750313165">
<ele>441.8</ele>
<time>2024-05-08T16:10:46Z</time>
</trkpt>
<trkpt lat="49.512283243238926" lon="9.235856998711824">
<ele>441.8</ele>
<time>2024-05-08T16:10:47Z</time>
</trkpt>
<trkpt lat="49.5123138371855" lon="9.235915169119837">
<ele>441.8</ele>
<time>2024-05-08T16:10:48Z</time>
</trkpt>
<trkpt lat="49.51233671978116" lon="9.235978117212651">
<ele>441.8</ele>
<time>2024-05-08T16:10:49Z</time>
</trkpt>
<trkpt lat="49.51235960237682" lon="9.236036287620664">
<ele>442</ele>
<time>2024-05-08T16:10:50Z</time>
</trkpt>
<trkpt lat="49.51237862929702" lon="9.236096302047372">
<ele>442.2</ele>
<time>2024-05-08T16:10:51Z</time>
</trkpt>
<trkpt lat="49.51239388436079" lon="9.236154556274414">
<ele>442.2</ele>
<time>2024-05-08T16:10:52Z</time>
</trkpt>
<trkpt lat="49.51241299510002" lon="9.236211720854044">
<ele>442.4</ele>
<time>2024-05-08T16:10:53Z</time>
</trkpt>
<trkpt lat="49.512443505227566" lon="9.236269891262054">
<ele>442.6</ele>
<time>2024-05-08T16:10:54Z</time>
</trkpt>
<trkpt lat="49.5124626159668" lon="9.236326217651367">
<ele>442.6</ele>
<time>2024-05-08T16:10:55Z</time>
</trkpt>
<trkpt lat="49.512485498562455" lon="9.236386232078075">
<ele>442.8</ele>
<time>2024-05-08T16:10:56Z</time>
</trkpt>
<trkpt lat="49.51250838115811" lon="9.236441552639008">
<ele>442.8</ele>
<time>2024-05-08T16:10:57Z</time>
</trkpt>
<trkpt lat="49.51252740807831" lon="9.23649494536221">
<ele>443</ele>
<time>2024-05-08T16:10:58Z</time>
</trkpt>
<trkpt lat="49.51255029067397" lon="9.236546494066715">
<ele>443</ele>
<time>2024-05-08T16:10:59Z</time>
</trkpt>
<trkpt lat="49.51257317326963" lon="9.236599886789918">
<ele>443</ele>
<time>2024-05-08T16:11:00Z</time>
</trkpt>
<trkpt lat="49.51259991154075" lon="9.2366561293602">
<ele>443.2</ele>
<time>2024-05-08T16:11:01Z</time>
</trkpt>
<trkpt lat="49.51262656599283" lon="9.236711449921131">
<ele>443.4</ele>
<time>2024-05-08T16:11:02Z</time>
</trkpt>
<trkpt lat="49.51265330426395" lon="9.236761992797256">
<ele>443.6</ele>
<time>2024-05-08T16:11:03Z</time>
</trkpt>
<trkpt lat="49.51268004253507" lon="9.23681354150176">
<ele>443.6</ele>
<time>2024-05-08T16:11:04Z</time>
</trkpt>
<trkpt lat="49.51270669698715" lon="9.236861150711777">
<ele>443.8</ele>
<time>2024-05-08T16:11:05Z</time>
</trkpt>
<trkpt lat="49.51273343525827" lon="9.236906999722123">
<ele>444</ele>
<time>2024-05-08T16:11:06Z</time>
</trkpt>
<trkpt lat="49.512760089710355" lon="9.236943209543824">
<ele>444.2</ele>
<time>2024-05-08T16:11:07Z</time>
</trkpt>
<trkpt lat="49.51278682798147" lon="9.23697179183364">
<ele>444.2</ele>
<time>2024-05-08T16:11:08Z</time>
</trkpt>
<trkpt lat="49.512821193784475" lon="9.236998530104756">
<ele>444.4</ele>
<time>2024-05-08T16:11:09Z</time>
</trkpt>
<trkpt lat="49.51285170391202" lon="9.237021412700416">
<ele>444.4</ele>
<time>2024-05-08T16:11:10Z</time>
</trkpt>
<trkpt lat="49.512878358364105" lon="9.2370480671525">
<ele>444.4</ele>
<time>2024-05-08T16:11:11Z</time>
</trkpt>
<trkpt lat="49.51292797923088" lon="9.23708813264966">
<ele>444.6</ele>
<time>2024-05-08T16:11:12Z</time>
</trkpt>
<trkpt lat="49.51296988874674" lon="9.237121576443316">
<ele>444.6</ele>
<time>2024-05-08T16:11:13Z</time>
</trkpt>
<trkpt lat="49.51300425454974" lon="9.237158708274364">
<ele>444.6</ele>
<time>2024-05-08T16:11:14Z</time>
</trkpt>
<trkpt lat="49.513038620352745" lon="9.237191146239638">
<ele>444.6</ele>
<time>2024-05-08T16:11:15Z</time>
</trkpt>
<trkpt lat="49.51307290233672" lon="9.23722450621426">
<ele>444.6</ele>
<time>2024-05-08T16:11:16Z</time>
</trkpt>
<trkpt lat="49.51310341246426" lon="9.237261721864344">
<ele>444.6</ele>
<time>2024-05-08T16:11:17Z</time>
</trkpt>
<trkpt lat="49.51314155012369" lon="9.237297009676697">
<ele>444.6</ele>
<time>2024-05-08T16:11:18Z</time>
</trkpt>
<trkpt lat="49.51318354345858" lon="9.237331375479698">
<ele>444.8</ele>
<time>2024-05-08T16:11:19Z</time>
</trkpt>
<trkpt lat="49.51322168111801" lon="9.237373284995556">
<ele>444.8</ele>
<time>2024-05-08T16:11:20Z</time>
</trkpt>
<trkpt lat="49.51326744630933" lon="9.237411422654986">
<ele>444.8</ele>
<time>2024-05-08T16:11:21Z</time>
</trkpt>
<trkpt lat="49.51330181211233" lon="9.23744486644864">
<ele>444.8</ele>
<time>2024-05-08T16:11:22Z</time>
</trkpt>
<trkpt lat="49.51333994977176" lon="9.237480154260991">
<ele>445</ele>
<time>2024-05-08T16:11:23Z</time>
</trkpt>
<trkpt lat="49.513370459899306" lon="9.237516364082694">
<ele>445</ele>
<time>2024-05-08T16:11:24Z</time>
</trkpt>
<trkpt lat="49.51341245323419" lon="9.23756020143628">
<ele>445</ele>
<time>2024-05-08T16:11:25Z</time>
</trkpt>
<trkpt lat="49.51344296336174" lon="9.237601272761822">
<ele>445</ele>
<time>2024-05-08T16:11:26Z</time>
</trkpt>
<trkpt lat="49.51347724534571" lon="9.237649887800217">
<ele>445</ele>
<time>2024-05-08T16:11:27Z</time>
</trkpt>
<trkpt lat="49.513511611148715" lon="9.237698502838612">
<ele>445</ele>
<time>2024-05-08T16:11:28Z</time>
</trkpt>
<trkpt lat="49.51354212127626" lon="9.237746195867658">
<ele>445</ele>
<time>2024-05-08T16:11:29Z</time>
</trkpt>
<trkpt lat="49.51357648707926" lon="9.237792966887357">
<ele>445</ele>
<time>2024-05-08T16:11:30Z</time>
</trkpt>
<trkpt lat="49.513610769063234" lon="9.23783965408802">
<ele>445</ele>
<time>2024-05-08T16:11:31Z</time>
</trkpt>
<trkpt lat="49.51364127919078" lon="9.237883491441607">
<ele>445</ele>
<time>2024-05-08T16:11:32Z</time>
</trkpt>
<trkpt lat="49.513671873137355" lon="9.237941661849618">
<ele>444.8</ele>
<time>2024-05-08T16:11:33Z</time>
</trkpt>
<trkpt lat="49.513706155121326" lon="9.237990360707045">
<ele>444.8</ele>
<time>2024-05-08T16:11:34Z</time>
</trkpt>
<trkpt lat="49.51373666524887" lon="9.238033276051285">
<ele>445</ele>
<time>2024-05-08T16:11:35Z</time>
</trkpt>
<trkpt lat="49.513771031051874" lon="9.238081891089678">
<ele>445</ele>
<time>2024-05-08T16:11:36Z</time>
</trkpt>
<trkpt lat="49.51380154117942" lon="9.238128662109377">
<ele>445</ele>
<time>2024-05-08T16:11:37Z</time>
</trkpt>
<trkpt lat="49.51383967883885" lon="9.238169649615884">
<ele>445.2</ele>
<time>2024-05-08T16:11:38Z</time>
</trkpt>
<trkpt lat="49.51387404464185" lon="9.238206781446934">
<ele>445.2</ele>
<time>2024-05-08T16:11:39Z</time>
</trkpt>
<trkpt lat="49.513908326625824" lon="9.238241147249935">
<ele>445.2</ele>
<time>2024-05-08T16:11:40Z</time>
</trkpt>
<trkpt lat="49.51393883675337" lon="9.238280290737748">
<ele>445.4</ele>
<time>2024-05-08T16:11:41Z</time>
</trkpt>
<trkpt lat="49.51396934688091" lon="9.23831172287464">
<ele>445.4</ele>
<time>2024-05-08T16:11:42Z</time>
</trkpt>
<trkpt lat="49.51399222947657" lon="9.23833846114576">
<ele>445.4</ele>
<time>2024-05-08T16:11:43Z</time>
</trkpt>
<trkpt lat="49.51401519589126" lon="9.238365115597844">
<ele>445.4</ele>
<time>2024-05-08T16:11:44Z</time>
</trkpt>
<trkpt lat="49.51403807848692" lon="9.23839470371604">
<ele>445.4</ele>
<time>2024-05-08T16:11:45Z</time>
</trkpt>
<trkpt lat="49.51407236047089" lon="9.238428063690662">
<ele>445.2</ele>
<time>2024-05-08T16:11:46Z</time>
</trkpt>
<trkpt lat="49.514106726273894" lon="9.238470057025552">
<ele>445.2</ele>
<time>2024-05-08T16:11:47Z</time>
</trkpt>
<trkpt lat="49.514144863933325" lon="9.238508194684982">
<ele>445.2</ele>
<time>2024-05-08T16:11:48Z</time>
</trkpt>
<trkpt lat="49.514183001592755" lon="9.23855203203857">
<ele>445.2</ele>
<time>2024-05-08T16:11:49Z</time>
</trkpt>
<trkpt lat="49.51421736739576" lon="9.238593019545078">
<ele>445.2</ele>
<time>2024-05-08T16:11:50Z</time>
</trkpt>
<trkpt lat="49.5142478775233" lon="9.238636940717695">
<ele>445.2</ele>
<time>2024-05-08T16:11:51Z</time>
</trkpt>
<trkpt lat="49.51427838765085" lon="9.238679856061935">
<ele>445.2</ele>
<time>2024-05-08T16:11:52Z</time>
</trkpt>
<trkpt lat="49.51431266963482" lon="9.238724699243903">
<ele>445.2</ele>
<time>2024-05-08T16:11:53Z</time>
</trkpt>
<trkpt lat="49.514339407905936" lon="9.238775242120028">
<ele>445.2</ele>
<time>2024-05-08T16:11:54Z</time>
</trkpt>
<trkpt lat="49.51436614617705" lon="9.238835256546736">
<ele>445.2</ele>
<time>2024-05-08T16:11:55Z</time>
</trkpt>
<trkpt lat="49.514381401240826" lon="9.238902060315011">
<ele>445.2</ele>
<time>2024-05-08T16:11:56Z</time>
</trkpt>
<trkpt lat="49.5143966563046" lon="9.238963080570102">
<ele>445.2</ele>
<time>2024-05-08T16:11:57Z</time>
</trkpt>
<trkpt lat="49.51440428383648" lon="9.239025106653571">
<ele>445.4</ele>
<time>2024-05-08T16:11:58Z</time>
</trkpt>
<trkpt lat="49.51440805569291" lon="9.239087048918009">
<ele>445.4</ele>
<time>2024-05-08T16:11:59Z</time>
</trkpt>
<trkpt lat="49.51441191136837" lon="9.2391462251544">
<ele>445.6</ele>
<time>2024-05-08T16:12:00Z</time>
</trkpt>
<trkpt lat="49.51441191136837" lon="9.23920531757176">
<ele>445.6</ele>
<time>2024-05-08T16:12:01Z</time>
</trkpt>
<trkpt lat="49.5144156832248" lon="9.239259716123344">
<ele>445.8</ele>
<time>2024-05-08T16:12:02Z</time>
</trkpt>
<trkpt lat="49.51441191136837" lon="9.239317886531351">
<ele>445.8</ele>
<time>2024-05-08T16:12:03Z</time>
</trkpt>
<trkpt lat="49.51441191136837" lon="9.239376978948712">
<ele>446</ele>
<time>2024-05-08T16:12:04Z</time>
</trkpt>
<trkpt lat="49.51440805569291" lon="9.239431377500296">
<ele>446</ele>
<time>2024-05-08T16:12:05Z</time>
</trkpt>
<trkpt lat="49.51440805569291" lon="9.239491391927004">
<ele>446</ele>
<time>2024-05-08T16:12:06Z</time>
</trkpt>
<trkpt lat="49.51440428383648" lon="9.239555345848204">
<ele>446.2</ele>
<time>2024-05-08T16:12:07Z</time>
</trkpt>
<trkpt lat="49.5143966563046" lon="9.239622987806795">
<ele>446.2</ele>
<time>2024-05-08T16:12:08Z</time>
</trkpt>
<trkpt lat="49.5143966563046" lon="9.239691719412804">
<ele>446.2</ele>
<time>2024-05-08T16:12:09Z</time>
</trkpt>
<trkpt lat="49.51439280062914" lon="9.239763217046857">
<ele>446.4</ele>
<time>2024-05-08T16:12:10Z</time>
</trkpt>
<trkpt lat="49.51438902877271" lon="9.23983664251864">
<ele>446.4</ele>
<time>2024-05-08T16:12:11Z</time>
</trkpt>
<trkpt lat="49.514381401240826" lon="9.2399129178375">
<ele>446.2</ele>
<time>2024-05-08T16:12:12Z</time>
</trkpt>
<trkpt lat="49.51437754556537" lon="9.239986343309283">
<ele>446.2</ele>
<time>2024-05-08T16:12:13Z</time>
</trkpt>
<trkpt lat="49.51437377370894" lon="9.240057924762368">
<ele>446.2</ele>
<time>2024-05-08T16:12:14Z</time>
</trkpt>
<trkpt lat="49.51436991803348" lon="9.24013034440577">
<ele>446.2</ele>
<time>2024-05-08T16:12:15Z</time>
</trkpt>
<trkpt lat="49.51436614617705" lon="9.240202847868204">
<ele>446</ele>
<time>2024-05-08T16:12:16Z</time>
</trkpt>
<trkpt lat="49.514362290501595" lon="9.240275351330638">
<ele>446</ele>
<time>2024-05-08T16:12:17Z</time>
</trkpt>
<trkpt lat="49.51435466296971" lon="9.240346848964691">
<ele>445.8</ele>
<time>2024-05-08T16:12:18Z</time>
</trkpt>
<trkpt lat="49.51434703543782" lon="9.240416502580048">
<ele>445.8</ele>
<time>2024-05-08T16:12:19Z</time>
</trkpt>
<trkpt lat="49.51434703543782" lon="9.24048992805183">
<ele>445.8</ele>
<time>2024-05-08T16:12:20Z</time>
</trkpt>
<trkpt lat="49.51434703543782" lon="9.240561425685884">
<ele>445.6</ele>
<time>2024-05-08T16:12:21Z</time>
</trkpt>
<trkpt lat="49.51434317976236" lon="9.240634851157663">
<ele>445.6</ele>
<time>2024-05-08T16:12:22Z</time>
</trkpt>
<trkpt lat="49.51433555223048" lon="9.24070643261075">
<ele>445.4</ele>
<time>2024-05-08T16:12:23Z</time>
</trkpt>
<trkpt lat="49.51433178037405" lon="9.240777008235456">
<ele>445.4</ele>
<time>2024-05-08T16:12:24Z</time>
</trkpt>
<trkpt lat="49.51432792469859" lon="9.240850433707235">
<ele>445</ele>
<time>2024-05-08T16:12:25Z</time>
</trkpt>
<trkpt lat="49.51432415284216" lon="9.240926709026098">
<ele>444.6</ele>
<time>2024-05-08T16:12:26Z</time>
</trkpt>
<trkpt lat="49.51432415284216" lon="9.241008684039116">
<ele>444.4</ele>
<time>2024-05-08T16:12:27Z</time>
</trkpt>
<trkpt lat="49.514320297166705" lon="9.241085043177009">
<ele>444.2</ele>
<time>2024-05-08T16:12:28Z</time>
</trkpt>
<trkpt lat="49.51431652531028" lon="9.2411632463336">
<ele>444.2</ele>
<time>2024-05-08T16:12:29Z</time>
</trkpt>
<trkpt lat="49.51431652531028" lon="9.24124144949019">
<ele>444</ele>
<time>2024-05-08T16:12:30Z</time>
</trkpt>
<trkpt lat="49.51431652531028" lon="9.241325352340937">
<ele>444</ele>
<time>2024-05-08T16:12:31Z</time>
</trkpt>
<trkpt lat="49.51431652531028" lon="9.241404477506876">
<ele>444</ele>
<time>2024-05-08T16:12:32Z</time>
</trkpt>
<trkpt lat="49.51431266963482" lon="9.241488380357625">
<ele>444</ele>
<time>2024-05-08T16:12:33Z</time>
</trkpt>
<trkpt lat="49.51430889777839" lon="9.24157136119902">
<ele>443.8</ele>
<time>2024-05-08T16:12:34Z</time>
</trkpt>
<trkpt lat="49.51430889777839" lon="9.241658197715878">
<ele>443.8</ele>
<time>2024-05-08T16:12:35Z</time>
</trkpt>
<trkpt lat="49.51430889777839" lon="9.241740172728896">
<ele>443.8</ele>
<time>2024-05-08T16:12:36Z</time>
</trkpt>
<trkpt lat="49.51430889777839" lon="9.241816448047755">
<ele>443.6</ele>
<time>2024-05-08T16:12:37Z</time>
</trkpt>
<trkpt lat="49.51430889777839" lon="9.241898506879808">
<ele>443.6</ele>
<time>2024-05-08T16:12:38Z</time>
</trkpt>
<trkpt lat="49.51430504210293" lon="9.241985259577632">
<ele>443.4</ele>
<time>2024-05-08T16:12:39Z</time>
</trkpt>
<trkpt lat="49.51430504210293" lon="9.24206824041903">
<ele>443.4</ele>
<time>2024-05-08T16:12:40Z</time>
</trkpt>
<trkpt lat="49.514301270246506" lon="9.24214644357562">
<ele>443.2</ele>
<time>2024-05-08T16:12:41Z</time>
</trkpt>
<trkpt lat="49.51429364271462" lon="9.242235124111176">
<ele>443.2</ele>
<time>2024-05-08T16:12:42Z</time>
</trkpt>
<trkpt lat="49.51428601518273" lon="9.242324810475113">
<ele>443</ele>
<time>2024-05-08T16:12:43Z</time>
</trkpt>
<trkpt lat="49.51428601518273" lon="9.242400163784623">
<ele>442.8</ele>
<time>2024-05-08T16:12:44Z</time>
</trkpt>
<trkpt lat="49.51427838765085" lon="9.242474511265756">
<ele>442.8</ele>
<time>2024-05-08T16:12:45Z</time>
</trkpt>
<trkpt lat="49.51427838765085" lon="9.242551792412996">
<ele>442.6</ele>
<time>2024-05-08T16:12:46Z</time>
</trkpt>
<trkpt lat="49.51427453197539" lon="9.242626139894128">
<ele>442.4</ele>
<time>2024-05-08T16:12:47Z</time>
</trkpt>
<trkpt lat="49.5142669044435" lon="9.24270342104137">
<ele>442.2</ele>
<time>2024-05-08T16:12:48Z</time>
</trkpt>
<trkpt lat="49.5142669044435" lon="9.242774918675424">
<ele>442</ele>
<time>2024-05-08T16:12:49Z</time>
</trkpt>
<trkpt lat="49.514263132587075" lon="9.242853121832011">
<ele>441.8</ele>
<time>2024-05-08T16:12:50Z</time>
</trkpt>
<trkpt lat="49.514263132587075" lon="9.242933252826331">
<ele>441.8</ele>
<time>2024-05-08T16:12:51Z</time>
</trkpt>
<trkpt lat="49.514263132587075" lon="9.243016233667731">
<ele>441.6</ele>
<time>2024-05-08T16:12:52Z</time>
</trkpt>
<trkpt lat="49.514263132587075" lon="9.24309343099594">
<ele>441.4</ele>
<time>2024-05-08T16:12:53Z</time>
</trkpt>
<trkpt lat="49.514263132587075" lon="9.243166856467724">
<ele>441.4</ele>
<time>2024-05-08T16:12:54Z</time>
</trkpt>
<trkpt lat="49.514263132587075" lon="9.243249837309122">
<ele>441.2</ele>
<time>2024-05-08T16:12:55Z</time>
</trkpt>
<trkpt lat="49.51425164937973" lon="9.243339523673058">
<ele>441.2</ele>
<time>2024-05-08T16:12:56Z</time>
</trkpt>
<trkpt lat="49.51425164937973" lon="9.243428204208612">
<ele>441.2</ele>
<time>2024-05-08T16:12:57Z</time>
</trkpt>
<trkpt lat="49.51425164937973" lon="9.243516884744167">
<ele>441</ele>
<time>2024-05-08T16:12:58Z</time>
</trkpt>
<trkpt lat="49.51425550505519" lon="9.243606487289073">
<ele>441</ele>
<time>2024-05-08T16:12:59Z</time>
</trkpt>
<trkpt lat="49.514259276911616" lon="9.243702879175544">
<ele>441</ele>
<time>2024-05-08T16:13:00Z</time>
</trkpt>
<trkpt lat="49.514259276911616" lon="9.243796337395906">
<ele>441</ele>
<time>2024-05-08T16:13:01Z</time>
</trkpt>
<trkpt lat="49.514259276911616" lon="9.243894573301075">
<ele>440.8</ele>
<time>2024-05-08T16:13:02Z</time>
</trkpt>
<trkpt lat="49.514259276911616" lon="9.243994653224943">
<ele>440.6</ele>
<time>2024-05-08T16:13:03Z</time>
</trkpt>
<trkpt lat="49.514263132587075" lon="9.24408526159823">
<ele>440.6</ele>
<time>2024-05-08T16:13:04Z</time>
</trkpt>
<trkpt lat="49.514263132587075" lon="9.24416539259255">
<ele>440.4</ele>
<time>2024-05-08T16:13:05Z</time>
</trkpt>
<trkpt lat="49.514259276911616" lon="9.24424359574914">
<ele>440.2</ele>
<time>2024-05-08T16:13:06Z</time>
</trkpt>
<trkpt lat="49.514259276911616" lon="9.244317021220922">
<ele>440</ele>
<time>2024-05-08T16:13:07Z</time>
</trkpt>
<trkpt lat="49.514263132587075" lon="9.24438281916082">
<ele>439.8</ele>
<time>2024-05-08T16:13:08Z</time>
</trkpt>
<trkpt lat="49.514263132587075" lon="9.244453394785523">
<ele>439.8</ele>
<time>2024-05-08T16:13:09Z</time>
</trkpt>
<trkpt lat="49.514263132587075" lon="9.244522042572498">
<ele>439.6</ele>
<time>2024-05-08T16:13:10Z</time>
</trkpt>
<trkpt lat="49.514263132587075" lon="9.244596473872662">
<ele>439.4</ele>
<time>2024-05-08T16:13:11Z</time>
</trkpt>
<trkpt lat="49.514263132587075" lon="9.244667971506717">
<ele>439.2</ele>
<time>2024-05-08T16:13:12Z</time>
</trkpt>
<trkpt lat="49.514263132587075" lon="9.24473469145596">
<ele>439</ele>
<time>2024-05-08T16:13:13Z</time>
</trkpt>
<trkpt lat="49.5142669044435" lon="9.244803423061969">
<ele>438.8</ele>
<time>2024-05-08T16:13:14Z</time>
</trkpt>
<trkpt lat="49.5142669044435" lon="9.244892103597522">
<ele>438.8</ele>
<time>2024-05-08T16:13:15Z</time>
</trkpt>
<trkpt lat="49.51427838765085" lon="9.244956895709038">
<ele>438.6</ele>
<time>2024-05-08T16:13:16Z</time>
</trkpt>
<trkpt lat="49.51427838765085" lon="9.245035098865628">
<ele>438.6</ele>
<time>2024-05-08T16:13:17Z</time>
</trkpt>
<trkpt lat="49.51427838765085" lon="9.245126713067291">
<ele>438.4</ele>
<time>2024-05-08T16:13:18Z</time>
</trkpt>
<trkpt lat="49.51427838765085" lon="9.245220171287656">
<ele>438</ele>
<time>2024-05-08T16:13:19Z</time>
</trkpt>
<trkpt lat="49.51428601518273" lon="9.245313629508018">
<ele>437.8</ele>
<time>2024-05-08T16:13:20Z</time>
</trkpt>
<trkpt lat="49.51428978703916" lon="9.24540800973773">
<ele>437.6</ele>
<time>2024-05-08T16:13:21Z</time>
</trkpt>
<trkpt lat="49.51429364271462" lon="9.245503395795822">
<ele>437.6</ele>
<time>2024-05-08T16:13:22Z</time>
</trkpt>
<trkpt lat="49.514301270246506" lon="9.245601631700993">
<ele>437.4</ele>
<time>2024-05-08T16:13:23Z</time>
</trkpt>
<trkpt lat="49.51430889777839" lon="9.245699867606165">
<ele>437.4</ele>
<time>2024-05-08T16:13:24Z</time>
</trkpt>
<trkpt lat="49.51431266963482" lon="9.245798103511332">
<ele>437.2</ele>
<time>2024-05-08T16:13:25Z</time>
</trkpt>
<trkpt lat="49.51431652531028" lon="9.24588292837143">
<ele>437.2</ele>
<time>2024-05-08T16:13:26Z</time>
</trkpt>
<trkpt lat="49.51431652531028" lon="9.245969764888288">
<ele>437</ele>
<time>2024-05-08T16:13:27Z</time>
</trkpt>
<trkpt lat="49.51431652531028" lon="9.246053667739034">
<ele>437</ele>
<time>2024-05-08T16:13:28Z</time>
</trkpt>
<trkpt lat="49.51431652531028" lon="9.246128015220163">
<ele>436.8</ele>
<time>2024-05-08T16:13:29Z</time>
</trkpt>
<trkpt lat="49.514320297166705" lon="9.24619959667325">
<ele>436.8</ele>
<time>2024-05-08T16:13:30Z</time>
</trkpt>
<trkpt lat="49.51432415284216" lon="9.246266316622496">
<ele>436.8</ele>
<time>2024-05-08T16:13:31Z</time>
</trkpt>
<trkpt lat="49.51433178037405" lon="9.246331192553043">
<ele>436.6</ele>
<time>2024-05-08T16:13:32Z</time>
</trkpt>
<trkpt lat="49.51433555223048" lon="9.24639313481748">
<ele>436.6</ele>
<time>2024-05-08T16:13:33Z</time>
</trkpt>
<trkpt lat="49.514339407905936" lon="9.24645516090095">
<ele>436.6</ele>
<time>2024-05-08T16:13:34Z</time>
</trkpt>
<trkpt lat="49.51434317976236" lon="9.246522886678576">
<ele>436.6</ele>
<time>2024-05-08T16:13:35Z</time>
</trkpt>
<trkpt lat="49.51434703543782" lon="9.246586756780744">
<ele>436.6</ele>
<time>2024-05-08T16:13:36Z</time>
</trkpt>
<trkpt lat="49.51434317976236" lon="9.246646855026484">
<ele>436.6</ele>
<time>2024-05-08T16:13:37Z</time>
</trkpt>
<trkpt lat="49.514339407905936" lon="9.246707875281572">
<ele>436.6</ele>
<time>2024-05-08T16:13:38Z</time>
</trkpt>
<trkpt lat="49.51433555223048" lon="9.246766967698932">
<ele>436.6</ele>
<time>2024-05-08T16:13:39Z</time>
</trkpt>
<trkpt lat="49.51433555223048" lon="9.246828071773052">
<ele>436.6</ele>
<time>2024-05-08T16:13:40Z</time>
</trkpt>
<trkpt lat="49.514339407905936" lon="9.246892863884568">
<ele>436.6</ele>
<time>2024-05-08T16:13:41Z</time>
</trkpt>
<trkpt lat="49.51435466296971" lon="9.246963439509273">
<ele>436.6</ele>
<time>2024-05-08T16:13:42Z</time>
</trkpt>
<trkpt lat="49.51435851864517" lon="9.247035020962358">
<ele>436.6</ele>
<time>2024-05-08T16:13:43Z</time>
</trkpt>
<trkpt lat="49.51436991803348" lon="9.24711129628122">
<ele>436.6</ele>
<time>2024-05-08T16:13:44Z</time>
</trkpt>
<trkpt lat="49.51437377370894" lon="9.247183799743652">
<ele>436.6</ele>
<time>2024-05-08T16:13:45Z</time>
</trkpt>
<trkpt lat="49.51438517309725" lon="9.247256219387054">
<ele>436.6</ele>
<time>2024-05-08T16:13:46Z</time>
</trkpt>
<trkpt lat="49.51438902877271" lon="9.24732679501176">
<ele>436.6</ele>
<time>2024-05-08T16:13:47Z</time>
</trkpt>
<trkpt lat="49.5143966563046" lon="9.24740499816835">
<ele>436.6</ele>
<time>2024-05-08T16:13:48Z</time>
</trkpt>
<trkpt lat="49.51441191136837" lon="9.247487979009748">
<ele>436.8</ele>
<time>2024-05-08T16:13:49Z</time>
</trkpt>
<trkpt lat="49.51442331075668" lon="9.247570037841797">
<ele>436.6</ele>
<time>2024-05-08T16:13:50Z</time>
</trkpt>
<trkpt lat="49.51443479396403" lon="9.247652012854816">
<ele>436.6</ele>
<time>2024-05-08T16:13:51Z</time>
</trkpt>
<trkpt lat="49.514438565820456" lon="9.247737843543293">
<ele>436.4</ele>
<time>2024-05-08T16:13:52Z</time>
</trkpt>
<trkpt lat="49.514442421495914" lon="9.24781696870923">
<ele>436.4</ele>
<time>2024-05-08T16:13:53Z</time>
</trkpt>
<trkpt lat="49.5144500490278" lon="9.247901877388358">
<ele>436.4</ele>
<time>2024-05-08T16:13:54Z</time>
</trkpt>
<trkpt lat="49.51445767655969" lon="9.247988630086184">
<ele>436.6</ele>
<time>2024-05-08T16:13:55Z</time>
</trkpt>
<trkpt lat="49.514461448416114" lon="9.248069683089852">
<ele>436.4</ele>
<time>2024-05-08T16:13:56Z</time>
</trkpt>
<trkpt lat="49.514461448416114" lon="9.248147886246445">
<ele>436.4</ele>
<time>2024-05-08T16:13:57Z</time>
</trkpt>
<trkpt lat="49.514461448416114" lon="9.248228017240764">
<ele>436.6</ele>
<time>2024-05-08T16:13:58Z</time>
</trkpt>
<trkpt lat="49.51446530409157" lon="9.24831192009151">
<ele>436.4</ele>
<time>2024-05-08T16:13:59Z</time>
</trkpt>
<trkpt lat="49.514461448416114" lon="9.248386351391671">
<ele>436.4</ele>
<time>2024-05-08T16:14:00Z</time>
</trkpt>
<trkpt lat="49.514461448416114" lon="9.248464554548264">
<ele>436.4</ele>
<time>2024-05-08T16:14:01Z</time>
</trkpt>
<trkpt lat="49.51445382088423" lon="9.24854845739901">
<ele>436.4</ele>
<time>2024-05-08T16:14:02Z</time>
</trkpt>
<trkpt lat="49.5144500490278" lon="9.24862858839333">
<ele>436.4</ele>
<time>2024-05-08T16:14:03Z</time>
</trkpt>
<trkpt lat="49.514442421495914" lon="9.248718190938234">
<ele>436.4</ele>
<time>2024-05-08T16:14:04Z</time>
</trkpt>
<trkpt lat="49.514438565820456" lon="9.248801171779633">
<ele>436.2</ele>
<time>2024-05-08T16:14:05Z</time>
</trkpt>
<trkpt lat="49.51443093828857" lon="9.24888507463038">
<ele>436.2</ele>
<time>2024-05-08T16:14:06Z</time>
</trkpt>
<trkpt lat="49.514419538900256" lon="9.248968055471778">
<ele>436</ele>
<time>2024-05-08T16:14:07Z</time>
</trkpt>
<trkpt lat="49.5144156832248" lon="9.249054891988637">
<ele>435.8</ele>
<time>2024-05-08T16:14:08Z</time>
</trkpt>
<trkpt lat="49.51440805569291" lon="9.249137872830032">
<ele>435.6</ele>
<time>2024-05-08T16:14:09Z</time>
</trkpt>
<trkpt lat="49.51440428383648" lon="9.24922177568078">
<ele>435.4</ele>
<time>2024-05-08T16:14:10Z</time>
</trkpt>
<trkpt lat="49.514400428161025" lon="9.2493019066751">
<ele>435.2</ele>
<time>2024-05-08T16:14:11Z</time>
</trkpt>
<trkpt lat="49.5143966563046" lon="9.249388659372926">
<ele>435.2</ele>
<time>2024-05-08T16:14:12Z</time>
</trkpt>
<trkpt lat="49.51438902877271" lon="9.249471640214324">
<ele>435</ele>
<time>2024-05-08T16:14:13Z</time>
</trkpt>
<trkpt lat="49.514381401240826" lon="9.249553615227342">
<ele>435</ele>
<time>2024-05-08T16:14:14Z</time>
</trkpt>
<trkpt lat="49.51437754556537" lon="9.24963466823101">
<ele>434.6</ele>
<time>2024-05-08T16:14:15Z</time>
</trkpt>
<trkpt lat="49.51437377370894" lon="9.2497128713876">
<ele>434.6</ele>
<time>2024-05-08T16:14:16Z</time>
</trkpt>
<trkpt lat="49.51436991803348" lon="9.24979300238192">
<ele>434.4</ele>
<time>2024-05-08T16:14:17Z</time>
</trkpt>
<trkpt lat="49.51436614617705" lon="9.249881682917476">
<ele>434.2</ele>
<time>2024-05-08T16:14:18Z</time>
</trkpt>
<trkpt lat="49.51436614617705" lon="9.249963741749523">
<ele>434.2</ele>
<time>2024-05-08T16:14:19Z</time>
</trkpt>
<trkpt lat="49.51436614617705" lon="9.250044794753194">
<ele>434.2</ele>
<time>2024-05-08T16:14:20Z</time>
</trkpt>
<trkpt lat="49.51435851864517" lon="9.250124925747514">
<ele>434.2</ele>
<time>2024-05-08T16:14:21Z</time>
</trkpt>
<trkpt lat="49.51435089111328" lon="9.250203128904104">
<ele>434.4</ele>
<time>2024-05-08T16:14:22Z</time>
</trkpt>
<trkpt lat="49.51434703543782" lon="9.250285103917122">
<ele>434.6</ele>
<time>2024-05-08T16:14:23Z</time>
</trkpt>
<trkpt lat="49.51434317976236" lon="9.25036615692079">
<ele>434.8</ele>
<time>2024-05-08T16:14:24Z</time>
</trkpt>
<trkpt lat="49.514339407905936" lon="9.250451987609267">
<ele>434.6</ele>
<time>2024-05-08T16:14:25Z</time>
</trkpt>
<trkpt lat="49.514339407905936" lon="9.250533040612936">
<ele>434.6</ele>
<time>2024-05-08T16:14:26Z</time>
</trkpt>
<trkpt lat="49.514339407905936" lon="9.250611243769526">
<ele>434.4</ele>
<time>2024-05-08T16:14:27Z</time>
</trkpt>
<trkpt lat="49.514339407905936" lon="9.250688524916768">
<ele>434.4</ele>
<time>2024-05-08T16:14:28Z</time>
</trkpt>
<trkpt lat="49.51434317976236" lon="9.25076195038855">
<ele>434.4</ele>
<time>2024-05-08T16:14:29Z</time>
</trkpt>
<trkpt lat="49.51434317976236" lon="9.250833448022604">
<ele>434.4</ele>
<time>2024-05-08T16:14:30Z</time>
</trkpt>
<trkpt lat="49.51434703543782" lon="9.250909723341463">
<ele>434.6</ele>
<time>2024-05-08T16:14:31Z</time>
</trkpt>
<trkpt lat="49.51435089111328" lon="9.25098323263228">
<ele>434.6</ele>
<time>2024-05-08T16:14:32Z</time>
</trkpt>
<trkpt lat="49.51435089111328" lon="9.251056658104062">
<ele>434.6</ele>
<time>2024-05-08T16:14:33Z</time>
</trkpt>
<trkpt lat="49.51435466296971" lon="9.251132011413574">
<ele>434.6</ele>
<time>2024-05-08T16:14:34Z</time>
</trkpt>
<trkpt lat="49.51435851864517" lon="9.251206358894706">
<ele>434.6</ele>
<time>2024-05-08T16:14:35Z</time>
</trkpt>
<trkpt lat="49.514362290501595" lon="9.251283640041947">
<ele>434.6</ele>
<time>2024-05-08T16:14:36Z</time>
</trkpt>
<trkpt lat="49.51436614617705" lon="9.251359915360808">
<ele>434.8</ele>
<time>2024-05-08T16:14:37Z</time>
</trkpt>
<trkpt lat="49.51436991803348" lon="9.251433340832593">
<ele>434.8</ele>
<time>2024-05-08T16:14:38Z</time>
</trkpt>
<trkpt lat="49.51436991803348" lon="9.251500060781837">
<ele>434.8</ele>
<time>2024-05-08T16:14:39Z</time>
</trkpt>
<trkpt lat="49.51436991803348" lon="9.25157164223492">
<ele>435</ele>
<time>2024-05-08T16:14:40Z</time>
</trkpt>
<trkpt lat="49.51436991803348" lon="9.251645067706704">
<ele>434.8</ele>
<time>2024-05-08T16:14:41Z</time>
</trkpt>
<trkpt lat="49.51437377370894" lon="9.251720421016216">
<ele>435</ele>
<time>2024-05-08T16:14:42Z</time>
</trkpt>
<trkpt lat="49.514381401240826" lon="9.251796696335076">
<ele>435</ele>
<time>2024-05-08T16:14:43Z</time>
</trkpt>
<trkpt lat="49.514381401240826" lon="9.25186819396913">
<ele>435</ele>
<time>2024-05-08T16:14:44Z</time>
</trkpt>
<trkpt lat="49.514381401240826" lon="9.251943547278644">
<ele>435</ele>
<time>2024-05-08T16:14:45Z</time>
</trkpt>
<trkpt lat="49.514381401240826" lon="9.252017894759774">
<ele>435</ele>
<time>2024-05-08T16:14:46Z</time>
</trkpt>
<trkpt lat="49.51438517309725" lon="9.252093248069286">
<ele>434.8</ele>
<time>2024-05-08T16:14:47Z</time>
</trkpt>
<trkpt lat="49.51438517309725" lon="9.252164829522371">
<ele>434.8</ele>
<time>2024-05-08T16:14:48Z</time>
</trkpt>
<trkpt lat="49.51439280062914" lon="9.25224202685058">
<ele>434.8</ele>
<time>2024-05-08T16:14:49Z</time>
</trkpt>
<trkpt lat="49.51439280062914" lon="9.252316458150744">
<ele>434.8</ele>
<time>2024-05-08T16:14:50Z</time>
</trkpt>
<trkpt lat="49.5143966563046" lon="9.252394661307337">
<ele>434.8</ele>
<time>2024-05-08T16:14:51Z</time>
</trkpt>
<trkpt lat="49.5143966563046" lon="9.252466158941388">
<ele>434.8</ele>
<time>2024-05-08T16:14:52Z</time>
</trkpt>
<trkpt lat="49.51440428383648" lon="9.252538662403822">
<ele>434.8</ele>
<time>2024-05-08T16:14:53Z</time>
</trkpt>
<trkpt lat="49.51441191136837" lon="9.252613009884952">
<ele>434.8</ele>
<time>2024-05-08T16:14:54Z</time>
</trkpt>
<trkpt lat="49.5144156832248" lon="9.252691213041544">
<ele>434.8</ele>
<time>2024-05-08T16:14:55Z</time>
</trkpt>
<trkpt lat="49.51442331075668" lon="9.252768494188786">
<ele>434.8</ele>
<time>2024-05-08T16:14:56Z</time>
</trkpt>
<trkpt lat="49.51442716643214" lon="9.252851475030184">
<ele>434.8</ele>
<time>2024-05-08T16:14:57Z</time>
</trkpt>
<trkpt lat="49.51443479396403" lon="9.252931522205472">
<ele>434.6</ele>
<time>2024-05-08T16:14:58Z</time>
</trkpt>
<trkpt lat="49.514442421495914" lon="9.2530164308846">
<ele>434.6</ele>
<time>2024-05-08T16:14:59Z</time>
</trkpt>
<trkpt lat="49.5144500490278" lon="9.25309371203184">
<ele>434.6</ele>
<time>2024-05-08T16:15:00Z</time>
</trkpt>
<trkpt lat="49.514461448416114" lon="9.253166131675243">
<ele>434.6</ele>
<time>2024-05-08T16:15:01Z</time>
</trkpt>
<trkpt lat="49.51446530409157" lon="9.253239557147026">
<ele>434.6</ele>
<time>2024-05-08T16:15:02Z</time>
</trkpt>
<trkpt lat="49.51447293162346" lon="9.253319688141346">
<ele>434.4</ele>
<time>2024-05-08T16:15:03Z</time>
</trkpt>
<trkpt lat="49.514476703479886" lon="9.253404596820474">
<ele>434.2</ele>
<time>2024-05-08T16:15:04Z</time>
</trkpt>
<trkpt lat="49.51447293162346" lon="9.253498055040836">
<ele>434</ele>
<time>2024-05-08T16:15:05Z</time>
</trkpt>
<trkpt lat="49.51446530409157" lon="9.25358866341412">
<ele>433.6</ele>
<time>2024-05-08T16:15:06Z</time>
</trkpt>
<trkpt lat="49.514461448416114" lon="9.253680193796754">
<ele>433.4</ele>
<time>2024-05-08T16:15:07Z</time>
</trkpt>
<trkpt lat="49.5144500490278" lon="9.25376795232296">
<ele>433.2</ele>
<time>2024-05-08T16:15:08Z</time>
</trkpt>
<trkpt lat="49.514442421495914" lon="9.253858560696244">
<ele>433</ele>
<time>2024-05-08T16:15:09Z</time>
</trkpt>
<trkpt lat="49.51443093828857" lon="9.25394623540342">
<ele>432.8</ele>
<time>2024-05-08T16:15:10Z</time>
</trkpt>
<trkpt lat="49.5144156832248" lon="9.254036843776705">
<ele>432.6</ele>
<time>2024-05-08T16:15:11Z</time>
</trkpt>
<trkpt lat="49.514400428161025" lon="9.254131307825446">
<ele>432.4</ele>
<time>2024-05-08T16:15:12Z</time>
</trkpt>
<trkpt lat="49.51438517309725" lon="9.25422283820808">
<ele>432.2</ele>
<time>2024-05-08T16:15:13Z</time>
</trkpt>
<trkpt lat="49.51437377370894" lon="9.254313446581364">
<ele>431.8</ele>
<time>2024-05-08T16:15:14Z</time>
</trkpt>
<trkpt lat="49.51436614617705" lon="9.254404976963997">
<ele>431.8</ele>
<time>2024-05-08T16:15:15Z</time>
</trkpt>
<trkpt lat="49.51435466296971" lon="9.254500363022087">
<ele>431.6</ele>
<time>2024-05-08T16:15:16Z</time>
</trkpt>
<trkpt lat="49.51434317976236" lon="9.25459667108953">
<ele>431.4</ele>
<time>2024-05-08T16:15:17Z</time>
</trkpt>
<trkpt lat="49.51433555223048" lon="9.254688201472163">
<ele>431.4</ele>
<time>2024-05-08T16:15:18Z</time>
</trkpt>
<trkpt lat="49.51432415284216" lon="9.254773110151293">
<ele>431.2</ele>
<time>2024-05-08T16:15:19Z</time>
</trkpt>
<trkpt lat="49.51431266963482" lon="9.254857935011389">
<ele>431.2</ele>
<time>2024-05-08T16:15:20Z</time>
</trkpt>
<trkpt lat="49.51430504210293" lon="9.254949549213052">
<ele>431.2</ele>
<time>2024-05-08T16:15:21Z</time>
</trkpt>
<trkpt lat="49.514301270246506" lon="9.255044935271144">
<ele>431</ele>
<time>2024-05-08T16:15:22Z</time>
</trkpt>
<trkpt lat="49.514301270246506" lon="9.255145015195012">
<ele>430.8</ele>
<time>2024-05-08T16:15:23Z</time>
</trkpt>
<trkpt lat="49.51429364271462" lon="9.255243251100184">
<ele>430.8</ele>
<time>2024-05-08T16:15:24Z</time>
</trkpt>
<trkpt lat="49.51428978703916" lon="9.255339559167624">
<ele>430.6</ele>
<time>2024-05-08T16:15:25Z</time>
</trkpt>
<trkpt lat="49.51428601518273" lon="9.255437795072794">
<ele>430.4</ele>
<time>2024-05-08T16:15:26Z</time>
</trkpt>
<trkpt lat="49.51428601518273" lon="9.255535108968616">
<ele>430.2</ele>
<time>2024-05-08T16:15:27Z</time>
</trkpt>
<trkpt lat="49.514282159507275" lon="9.255629489198329">
<ele>430</ele>
<time>2024-05-08T16:15:28Z</time>
</trkpt>
<trkpt lat="49.51427838765085" lon="9.25572487525642">
<ele>429.8</ele>
<time>2024-05-08T16:15:29Z</time>
</trkpt>
<trkpt lat="49.514282159507275" lon="9.25582311116159">
<ele>429.6</ele>
<time>2024-05-08T16:15:30Z</time>
</trkpt>
<trkpt lat="49.514282159507275" lon="9.255918497219682">
<ele>429.6</ele>
<time>2024-05-08T16:15:31Z</time>
</trkpt>
<trkpt lat="49.514282159507275" lon="9.256011955440044">
<ele>429.4</ele>
<time>2024-05-08T16:15:32Z</time>
</trkpt>
<trkpt lat="49.51428978703916" lon="9.256108263507484">
<ele>429.2</ele>
<time>2024-05-08T16:15:33Z</time>
</trkpt>
<trkpt lat="49.51429364271462" lon="9.256203649565578">
<ele>429.2</ele>
<time>2024-05-08T16:15:34Z</time>
</trkpt>
<trkpt lat="49.51430504210293" lon="9.256299957633018">
<ele>429</ele>
<time>2024-05-08T16:15:35Z</time>
</trkpt>
<trkpt lat="49.51431266963482" lon="9.25639525987208">
<ele>429</ele>
<time>2024-05-08T16:15:36Z</time>
</trkpt>
<trkpt lat="49.514320297166705" lon="9.256491651758552">
<ele>428.8</ele>
<time>2024-05-08T16:15:37Z</time>
</trkpt>
<trkpt lat="49.51432415284216" lon="9.256586953997612">
<ele>428.8</ele>
<time>2024-05-08T16:15:38Z</time>
</trkpt>
<trkpt lat="49.51432792469859" lon="9.256681418046355">
<ele>428.6</ele>
<time>2024-05-08T16:15:39Z</time>
</trkpt>
<trkpt lat="49.51432792469859" lon="9.256772948428988">
<ele>428.4</ele>
<time>2024-05-08T16:15:40Z</time>
</trkpt>
<trkpt lat="49.51433178037405" lon="9.256864478811622">
<ele>428.2</ele>
<time>2024-05-08T16:15:41Z</time>
</trkpt>
<trkpt lat="49.51433178037405" lon="9.256953159347177">
<ele>428.2</ele>
<time>2024-05-08T16:15:42Z</time>
</trkpt>
<trkpt lat="49.51433178037405" lon="9.257036140188577">
<ele>428</ele>
<time>2024-05-08T16:15:43Z</time>
</trkpt>
<trkpt lat="49.51433555223048" lon="9.257128676399589">
<ele>427.8</ele>
<time>2024-05-08T16:15:44Z</time>
</trkpt>
<trkpt lat="49.51434317976236" lon="9.257220206782222">
<ele>427.8</ele>
<time>2024-05-08T16:15:45Z</time>
</trkpt>
<trkpt lat="49.51434317976236" lon="9.257307965308428">
<ele>427.8</ele>
<time>2024-05-08T16:15:46Z</time>
</trkpt>
<trkpt lat="49.51435089111328" lon="9.257396645843984">
<ele>427.8</ele>
<time>2024-05-08T16:15:47Z</time>
</trkpt>
<trkpt lat="49.51435466296971" lon="9.25748155452311">
<ele>427.6</ele>
<time>2024-05-08T16:15:48Z</time>
</trkpt>
<trkpt lat="49.51435851864517" lon="9.257564535364509">
<ele>427.6</ele>
<time>2024-05-08T16:15:49Z</time>
</trkpt>
<trkpt lat="49.514362290501595" lon="9.257643660530448">
<ele>427.4</ele>
<time>2024-05-08T16:15:50Z</time>
</trkpt>
<trkpt lat="49.51436614617705" lon="9.257721863687038">
<ele>427.2</ele>
<time>2024-05-08T16:15:51Z</time>
</trkpt>
<trkpt lat="49.51437377370894" lon="9.257801994681358">
<ele>427.2</ele>
<time>2024-05-08T16:15:52Z</time>
</trkpt>
<trkpt lat="49.51437377370894" lon="9.257889669388533">
<ele>427.2</ele>
<time>2024-05-08T16:15:53Z</time>
</trkpt>
<trkpt lat="49.51437377370894" lon="9.257973656058311">
<ele>427.2</ele>
<time>2024-05-08T16:15:54Z</time>
</trkpt>
<trkpt lat="49.51437754556537" lon="9.258058480918407">
<ele>427</ele>
<time>2024-05-08T16:15:55Z</time>
</trkpt>
<trkpt lat="49.514381401240826" lon="9.258139533922076">
<ele>427</ele>
<time>2024-05-08T16:15:56Z</time>
</trkpt>
<trkpt lat="49.514381401240826" lon="9.258219664916396">
<ele>426.8</ele>
<time>2024-05-08T16:15:57Z</time>
</trkpt>
<trkpt lat="49.51438902877271" lon="9.258295018225908">
<ele>426.8</ele>
<time>2024-05-08T16:15:58Z</time>
</trkpt>
<trkpt lat="49.51439280062914" lon="9.258375149220228">
<ele>426.8</ele>
<time>2024-05-08T16:15:59Z</time>
</trkpt>
<trkpt lat="49.514400428161025" lon="9.258464751765132">
<ele>426.8</ele>
<time>2024-05-08T16:16:00Z</time>
</trkpt>
<trkpt lat="49.5143966563046" lon="9.25854865461588">
<ele>426.8</ele>
<time>2024-05-08T16:16:01Z</time>
</trkpt>
<trkpt lat="49.5143966563046" lon="9.25862786360085">
<ele>426.8</ele>
<time>2024-05-08T16:16:02Z</time>
</trkpt>
<trkpt lat="49.51439280062914" lon="9.25870506092906">
<ele>426.6</ele>
<time>2024-05-08T16:16:03Z</time>
</trkpt>
<trkpt lat="49.5143966563046" lon="9.258779492229223">
<ele>426.6</ele>
<time>2024-05-08T16:16:04Z</time>
</trkpt>
<trkpt lat="49.51439280062914" lon="9.258850067853928">
<ele>426.6</ele>
<time>2024-05-08T16:16:05Z</time>
</trkpt>
<trkpt lat="49.51439280062914" lon="9.25892542116344">
<ele>426.6</ele>
<time>2024-05-08T16:16:06Z</time>
</trkpt>
<trkpt lat="49.514400428161025" lon="9.258993146941066">
<ele>426.4</ele>
<time>2024-05-08T16:16:07Z</time>
</trkpt>
<trkpt lat="49.5143966563046" lon="9.259059866890311">
<ele>426.4</ele>
<time>2024-05-08T16:16:08Z</time>
</trkpt>
<trkpt lat="49.514400428161025" lon="9.259130442515016">
<ele>426.4</ele>
<time>2024-05-08T16:16:09Z</time>
</trkpt>
<trkpt lat="49.5144156832248" lon="9.259213423356414">
<ele>426.6</ele>
<time>2024-05-08T16:16:10Z</time>
</trkpt>
<trkpt lat="49.514419538900256" lon="9.259289698675277">
<ele>426.6</ele>
<time>2024-05-08T16:16:11Z</time>
</trkpt>
<trkpt lat="49.51442331075668" lon="9.259361196309328">
<ele>426.6</ele>
<time>2024-05-08T16:16:12Z</time>
</trkpt>
<trkpt lat="49.51442331075668" lon="9.25943847745657">
<ele>426.6</ele>
<time>2024-05-08T16:16:13Z</time>
</trkpt>
<trkpt lat="49.51442331075668" lon="9.259506203234196">
<ele>426.6</ele>
<time>2024-05-08T16:16:14Z</time>
</trkpt>
<trkpt lat="49.514419538900256" lon="9.259579628705978">
<ele>426.8</ele>
<time>2024-05-08T16:16:15Z</time>
</trkpt>
<trkpt lat="49.51442716643214" lon="9.259659759700298">
<ele>426.8</ele>
<time>2024-05-08T16:16:16Z</time>
</trkpt>
<trkpt lat="49.51443093828857" lon="9.259736957028508">
<ele>426.8</ele>
<time>2024-05-08T16:16:17Z</time>
</trkpt>
<trkpt lat="49.514438565820456" lon="9.259817088022828">
<ele>427</ele>
<time>2024-05-08T16:16:18Z</time>
</trkpt>
<trkpt lat="49.514442421495914" lon="9.25988858565688">
<ele>427</ele>
<time>2024-05-08T16:16:19Z</time>
</trkpt>
<trkpt lat="49.5144500490278" lon="9.259963016957045">
<ele>427.2</ele>
<time>2024-05-08T16:16:20Z</time>
</trkpt>
<trkpt lat="49.514461448416114" lon="9.260041220113637">
<ele>427.4</ele>
<time>2024-05-08T16:16:21Z</time>
</trkpt>
<trkpt lat="49.51447293162346" lon="9.260113639757035">
<ele>427.6</ele>
<time>2024-05-08T16:16:22Z</time>
</trkpt>
<trkpt lat="49.514476703479886" lon="9.260183293372393">
<ele>427.8</ele>
<time>2024-05-08T16:16:23Z</time>
</trkpt>
<trkpt lat="49.514480559155345" lon="9.26026526838541">
<ele>428</ele>
<time>2024-05-08T16:16:24Z</time>
</trkpt>
<trkpt lat="49.51448818668723" lon="9.260334922000766">
<ele>428</ele>
<time>2024-05-08T16:16:25Z</time>
</trkpt>
<trkpt lat="49.51449581421912" lon="9.26040641963482">
<ele>428.2</ele>
<time>2024-05-08T16:16:26Z</time>
</trkpt>
<trkpt lat="49.514499586075544" lon="9.260475151240826">
<ele>428.2</ele>
<time>2024-05-08T16:16:27Z</time>
</trkpt>
<trkpt lat="49.514503441751" lon="9.2605437990278">
<ele>428.4</ele>
<time>2024-05-08T16:16:28Z</time>
</trkpt>
<trkpt lat="49.51450721360743" lon="9.260609596967695">
<ele>428.4</ele>
<time>2024-05-08T16:16:29Z</time>
</trkpt>
<trkpt lat="49.51451106928289" lon="9.260675394907594">
<ele>428.6</ele>
<time>2024-05-08T16:16:30Z</time>
</trkpt>
<trkpt lat="49.51451106928289" lon="9.26074312068522">
<ele>428.6</ele>
<time>2024-05-08T16:16:31Z</time>
</trkpt>
<trkpt lat="49.51451484113932" lon="9.260809840634463">
<ele>428.6</ele>
<time>2024-05-08T16:16:32Z</time>
</trkpt>
<trkpt lat="49.514518696814775" lon="9.260871866717936">
<ele>428.6</ele>
<time>2024-05-08T16:16:33Z</time>
</trkpt>
<trkpt lat="49.514522552490234" lon="9.260932886973023">
<ele>428.6</ele>
<time>2024-05-08T16:16:34Z</time>
</trkpt>
<trkpt lat="49.51452632434666" lon="9.260992985218763">
<ele>428.6</ele>
<time>2024-05-08T16:16:35Z</time>
</trkpt>
<trkpt lat="49.51452632434666" lon="9.26105685532093">
<ele>428.8</ele>
<time>2024-05-08T16:16:36Z</time>
</trkpt>
<trkpt lat="49.51453018002212" lon="9.26111787557602">
<ele>429</ele>
<time>2024-05-08T16:16:37Z</time>
</trkpt>
<trkpt lat="49.51453395187855" lon="9.26117797382176">
<ele>429</ele>
<time>2024-05-08T16:16:38Z</time>
</trkpt>
<trkpt lat="49.514541579410434" lon="9.261241843923926">
<ele>429.2</ele>
<time>2024-05-08T16:16:39Z</time>
</trkpt>
<trkpt lat="49.514541579410434" lon="9.26131820306182">
<ele>429.4</ele>
<time>2024-05-08T16:16:40Z</time>
</trkpt>
<trkpt lat="49.51454543508589" lon="9.261382995173337">
<ele>429.6</ele>
<time>2024-05-08T16:16:41Z</time>
</trkpt>
<trkpt lat="49.514556834474206" lon="9.261447871103885">
<ele>429.8</ele>
<time>2024-05-08T16:16:42Z</time>
</trkpt>
<trkpt lat="49.51456446200609" lon="9.261514591053128">
<ele>429.8</ele>
<time>2024-05-08T16:16:43Z</time>
</trkpt>
<trkpt lat="49.51457208953798" lon="9.261583322659137">
<ele>430</ele>
<time>2024-05-08T16:16:44Z</time>
</trkpt>
<trkpt lat="49.514579717069864" lon="9.26165004260838">
<ele>430.2</ele>
<time>2024-05-08T16:16:45Z</time>
</trkpt>
<trkpt lat="49.51458357274532" lon="9.261718690395355">
<ele>430.4</ele>
<time>2024-05-08T16:16:46Z</time>
</trkpt>
<trkpt lat="49.51458734460175" lon="9.26178834401071">
<ele>430.6</ele>
<time>2024-05-08T16:16:47Z</time>
</trkpt>
<trkpt lat="49.51459497213364" lon="9.261851292103527">
<ele>430.8</ele>
<time>2024-05-08T16:16:48Z</time>
</trkpt>
<trkpt lat="49.51459497213364" lon="9.261915162205696">
<ele>430.8</ele>
<time>2024-05-08T16:16:49Z</time>
</trkpt>
<trkpt lat="49.51459497213364" lon="9.261981882154942">
<ele>431</ele>
<time>2024-05-08T16:16:50Z</time>
</trkpt>
<trkpt lat="49.51458734460175" lon="9.26204483024776">
<ele>431</ele>
<time>2024-05-08T16:16:51Z</time>
</trkpt>
<trkpt lat="49.51458734460175" lon="9.262107778340578">
<ele>431.2</ele>
<time>2024-05-08T16:16:52Z</time>
</trkpt>
<trkpt lat="49.51459120027721" lon="9.262169804424047">
<ele>431.2</ele>
<time>2024-05-08T16:16:53Z</time>
</trkpt>
<trkpt lat="49.51459120027721" lon="9.262231746688483">
<ele>431.4</ele>
<time>2024-05-08T16:16:54Z</time>
</trkpt>
<trkpt lat="49.51459497213364" lon="9.262291844934223">
<ele>431.6</ele>
<time>2024-05-08T16:16:55Z</time>
</trkpt>
<trkpt lat="49.51460259966552" lon="9.262352865189314">
<ele>431.8</ele>
<time>2024-05-08T16:16:56Z</time>
</trkpt>
<trkpt lat="49.51460259966552" lon="9.262425368651748">
<ele>432</ele>
<time>2024-05-08T16:16:57Z</time>
</trkpt>
<trkpt lat="49.51460645534098" lon="9.2624968662858">
<ele>432</ele>
<time>2024-05-08T16:16:58Z</time>
</trkpt>
<trkpt lat="49.51460645534098" lon="9.262561742216349">
<ele>432</ele>
<time>2024-05-08T16:16:59Z</time>
</trkpt>
<trkpt lat="49.51460259966552" lon="9.262623768299818">
<ele>432.2</ele>
<time>2024-05-08T16:17:00Z</time>
</trkpt>
<trkpt lat="49.51460259966552" lon="9.262686716392636">
<ele>432.2</ele>
<time>2024-05-08T16:17:01Z</time>
</trkpt>
<trkpt lat="49.51460259966552" lon="9.262753436341882">
<ele>432.4</ele>
<time>2024-05-08T16:17:02Z</time>
</trkpt>
<trkpt lat="49.514598827809095" lon="9.262823089957235">
<ele>432.4</ele>
<time>2024-05-08T16:17:03Z</time>
</trkpt>
<trkpt lat="49.514598827809095" lon="9.262893665581942">
<ele>432.6</ele>
<time>2024-05-08T16:17:04Z</time>
</trkpt>
<trkpt lat="49.514598827809095" lon="9.262961307540536">
<ele>432.6</ele>
<time>2024-05-08T16:17:05Z</time>
</trkpt>
<trkpt lat="49.514598827809095" lon="9.26303188316524">
<ele>432.8</ele>
<time>2024-05-08T16:17:06Z</time>
</trkpt>
<trkpt lat="49.51459497213364" lon="9.263096759095788">
<ele>432.8</ele>
<time>2024-05-08T16:17:07Z</time>
</trkpt>
<trkpt lat="49.51458734460175" lon="9.263156857341528">
<ele>432.8</ele>
<time>2024-05-08T16:17:08Z</time>
</trkpt>
<trkpt lat="49.514579717069864" lon="9.263217877596617">
<ele>433</ele>
<time>2024-05-08T16:17:09Z</time>
</trkpt>
<trkpt lat="49.514579717069864" lon="9.26329038105905">
<ele>433</ele>
<time>2024-05-08T16:17:10Z</time>
</trkpt>
<trkpt lat="49.514579717069864" lon="9.263358106836677">
<ele>433</ele>
<time>2024-05-08T16:17:11Z</time>
</trkpt>
<trkpt lat="49.514579717069864" lon="9.263424826785922">
<ele>433</ele>
<time>2024-05-08T16:17:12Z</time>
</trkpt>
<trkpt lat="49.514579717069864" lon="9.26348869688809">
<ele>433</ele>
<time>2024-05-08T16:17:13Z</time>
</trkpt>
<trkpt lat="49.51458357274532" lon="9.263551644980907">
<ele>433</ele>
<time>2024-05-08T16:17:14Z</time>
</trkpt>
<trkpt lat="49.51458734460175" lon="9.263613671064377">
<ele>432.8</ele>
<time>2024-05-08T16:17:15Z</time>
</trkpt>
<trkpt lat="49.51459120027721" lon="9.2636832408607">
<ele>432.8</ele>
<time>2024-05-08T16:17:16Z</time>
</trkpt>
<trkpt lat="49.51459497213364" lon="9.26376529969275">
<ele>432.8</ele>
<time>2024-05-08T16:17:17Z</time>
</trkpt>
<trkpt lat="49.514598827809095" lon="9.263841575011613">
<ele>432.8</ele>
<time>2024-05-08T16:17:18Z</time>
</trkpt>
<trkpt lat="49.51460259966552" lon="9.263921706005933">
<ele>432.6</ele>
<time>2024-05-08T16:17:19Z</time>
</trkpt>
<trkpt lat="49.51461022719741" lon="9.263997059315445">
<ele>432.6</ele>
<time>2024-05-08T16:17:20Z</time>
</trkpt>
<trkpt lat="49.514621710404754" lon="9.26408188417554">
<ele>432.4</ele>
<time>2024-05-08T16:17:21Z</time>
</trkpt>
<trkpt lat="49.51462548226118" lon="9.264166792854668">
<ele>432.4</ele>
<time>2024-05-08T16:17:22Z</time>
</trkpt>
<trkpt lat="49.514636965468526" lon="9.2642583232373">
<ele>432.2</ele>
<time>2024-05-08T16:17:23Z</time>
</trkpt>
<trkpt lat="49.51463310979307" lon="9.264348009601235">
<ele>432</ele>
<time>2024-05-08T16:17:24Z</time>
</trkpt>
<trkpt lat="49.51463310979307" lon="9.264439539983869">
<ele>432</ele>
<time>2024-05-08T16:17:25Z</time>
</trkpt>
<trkpt lat="49.51462933793664" lon="9.264528220519423">
<ele>431.8</ele>
<time>2024-05-08T16:17:26Z</time>
</trkpt>
<trkpt lat="49.51462548226118" lon="9.264635005965827">
<ele>431.8</ele>
<time>2024-05-08T16:17:27Z</time>
</trkpt>
<trkpt lat="49.514621710404754" lon="9.264723770320415">
<ele>431.6</ele>
<time>2024-05-08T16:17:28Z</time>
</trkpt>
<trkpt lat="49.514621710404754" lon="9.26481144502759">
<ele>431.4</ele>
<time>2024-05-08T16:17:29Z</time>
</trkpt>
<trkpt lat="49.514617854729295" lon="9.264898281544449">
<ele>431.2</ele>
<time>2024-05-08T16:17:30Z</time>
</trkpt>
<trkpt lat="49.514621710404754" lon="9.26498981192708">
<ele>431.2</ele>
<time>2024-05-08T16:17:31Z</time>
</trkpt>
<trkpt lat="49.51462933793664" lon="9.265083270147445">
<ele>431</ele>
<time>2024-05-08T16:17:32Z</time>
</trkpt>
<trkpt lat="49.514636965468526" lon="9.265178656205537">
<ele>430.8</ele>
<time>2024-05-08T16:17:33Z</time>
</trkpt>
<trkpt lat="49.514655992388725" lon="9.265284519642591">
<ele>430.6</ele>
<time>2024-05-08T16:17:34Z</time>
</trkpt>
<trkpt lat="49.51468273065984" lon="9.265398010611534">
<ele>430.4</ele>
<time>2024-05-08T16:17:35Z</time>
</trkpt>
<trkpt lat="49.51470946893096" lon="9.265511501580477">
<ele>430.2</ele>
<time>2024-05-08T16:17:36Z</time>
</trkpt>
<trkpt lat="49.514739979058504" lon="9.265618287026882">
<ele>430</ele>
<time>2024-05-08T16:17:37Z</time>
</trkpt>
<trkpt lat="49.51477048918605" lon="9.265727000311015">
<ele>429.6</ele>
<time>2024-05-08T16:17:38Z</time>
</trkpt>
<trkpt lat="49.51480477117002" lon="9.265832863748074">
<ele>429.4</ele>
<time>2024-05-08T16:17:39Z</time>
</trkpt>
<trkpt lat="49.51484676450491" lon="9.265943504869938">
<ele>429</ele>
<time>2024-05-08T16:17:40Z</time>
</trkpt>
<trkpt lat="49.514896385371685" lon="9.26605791784823">
<ele>428.4</ele>
<time>2024-05-08T16:17:41Z</time>
</trkpt>
<trkpt lat="49.51494977809489" lon="9.26617618650198">
<ele>427.8</ele>
<time>2024-05-08T16:17:42Z</time>
</trkpt>
<trkpt lat="49.51500317081809" lon="9.266298227012156">
<ele>427.2</ele>
<time>2024-05-08T16:17:43Z</time>
</trkpt>
<trkpt lat="49.515052791684866" lon="9.266421273350716">
<ele>426.6</ele>
<time>2024-05-08T16:17:44Z</time>
</trkpt>
<trkpt lat="49.51509855687618" lon="9.26655194722116">
<ele>425.8</ele>
<time>2024-05-08T16:17:45Z</time>
</trkpt>
<trkpt lat="49.51513669453561" lon="9.266685470938684">
<ele>425</ele>
<time>2024-05-08T16:17:46Z</time>
</trkpt>
<trkpt lat="49.51517483219504" lon="9.266817988827825">
<ele>424.2</ele>
<time>2024-05-08T16:17:47Z</time>
</trkpt>
<trkpt lat="49.51520919799805" lon="9.26694673486054">
<ele>423.4</ele>
<time>2024-05-08T16:17:48Z</time>
</trkpt>
<trkpt lat="49.51523970812559" lon="9.267081180587413">
<ele>422.4</ele>
<time>2024-05-08T16:17:49Z</time>
</trkpt>
<trkpt lat="49.51526259072125" lon="9.267214704304934">
<ele>421.4</ele>
<time>2024-05-08T16:17:50Z</time>
</trkpt>
<trkpt lat="49.51528161764145" lon="9.267352083697917">
<ele>420.2</ele>
<time>2024-05-08T16:17:51Z</time>
</trkpt>
<trkpt lat="49.51530072838068" lon="9.267488457262516">
<ele>419.2</ele>
<time>2024-05-08T16:17:52Z</time>
</trkpt>
<trkpt lat="49.515308355912566" lon="9.267626758664846">
<ele>418.2</ele>
<time>2024-05-08T16:17:53Z</time>
</trkpt>
<trkpt lat="49.51531975530088" lon="9.267767826095223">
<ele>417.4</ele>
<time>2024-05-08T16:17:54Z</time>
</trkpt>
<trkpt lat="49.515327382832766" lon="9.267905205488203">
<ele>416.6</ele>
<time>2024-05-08T16:17:55Z</time>
</trkpt>
<trkpt lat="49.515331238508224" lon="9.268043506890535">
<ele>415.8</ele>
<time>2024-05-08T16:17:56Z</time>
</trkpt>
<trkpt lat="49.51532361097634" lon="9.268186502158642">
<ele>414.8</ele>
<time>2024-05-08T16:17:57Z</time>
</trkpt>
<trkpt lat="49.51531598344445" lon="9.268326731398702">
<ele>414</ele>
<time>2024-05-08T16:17:58Z</time>
</trkpt>
<trkpt lat="49.51530450023711" lon="9.268463104963304">
<ele>413.4</ele>
<time>2024-05-08T16:17:59Z</time>
</trkpt>
<trkpt lat="49.515289245173335" lon="9.268598556518556">
<ele>412.4</ele>
<time>2024-05-08T16:18:00Z</time>
</trkpt>
<trkpt lat="49.51526636257768" lon="9.268736774101852">
<ele>411.6</ele>
<time>2024-05-08T16:18:01Z</time>
</trkpt>
<trkpt lat="49.51525496318936" lon="9.2688846308738">
<ele>410.8</ele>
<time>2024-05-08T16:18:02Z</time>
</trkpt>
<trkpt lat="49.515228224918246" lon="9.26906006410718">
<ele>410.2</ele>
<time>2024-05-08T16:18:03Z</time>
</trkpt>
<trkpt lat="49.51521682552993" lon="9.269187888130546">
<ele>409.4</ele>
<time>2024-05-08T16:18:04Z</time>
</trkpt>
<trkpt lat="49.51520534232259" lon="9.269323339685798">
<ele>408.6</ele>
<time>2024-05-08T16:18:05Z</time>
</trkpt>
<trkpt lat="49.515190087258816" lon="9.269472118467093">
<ele>407.8</ele>
<time>2024-05-08T16:18:06Z</time>
</trkpt>
<trkpt lat="49.51518623158336" lon="9.269626596942544">
<ele>407</ele>
<time>2024-05-08T16:18:07Z</time>
</trkpt>
<trkpt lat="49.51517860405147" lon="9.269768670201302">
<ele>406</ele>
<time>2024-05-08T16:18:08Z</time>
</trkpt>
<trkpt lat="49.51517483219504" lon="9.269906971603632">
<ele>405.2</ele>
<time>2024-05-08T16:18:09Z</time>
</trkpt>
<trkpt lat="49.515170976519585" lon="9.27004812285304">
<ele>404.4</ele>
<time>2024-05-08T16:18:10Z</time>
</trkpt>
<trkpt lat="49.51515957713127" lon="9.270194973796606">
<ele>403.6</ele>
<time>2024-05-08T16:18:11Z</time>
</trkpt>
<trkpt lat="49.51514046639204" lon="9.270330425351858">
<ele>403</ele>
<time>2024-05-08T16:18:12Z</time>
</trkpt>
<trkpt lat="49.515109956264496" lon="9.270495381206274">
<ele>402.4</ele>
<time>2024-05-08T16:18:13Z</time>
</trkpt>
<trkpt lat="49.515071818605065" lon="9.270614571869372">
<ele>401.8</ele>
<time>2024-05-08T16:18:14Z</time>
</trkpt>
<trkpt lat="49.515029825270176" lon="9.270768128335476">
<ele>401.2</ele>
<time>2024-05-08T16:18:15Z</time>
</trkpt>
<trkpt lat="49.514991687610745" lon="9.270904501900077">
<ele>400.6</ele>
<time>2024-05-08T16:18:16Z</time>
</trkpt>
<trkpt lat="49.51494592241943" lon="9.271051352843642">
<ele>400.2</ele>
<time>2024-05-08T16:18:17Z</time>
</trkpt>
<trkpt lat="49.51490015722811" lon="9.271200131624935">
<ele>399.6</ele>
<time>2024-05-08T16:18:18Z</time>
</trkpt>
<trkpt lat="49.5148543920368" lon="9.27134983241558">
<ele>399</ele>
<time>2024-05-08T16:18:19Z</time>
</trkpt>
<trkpt lat="49.51480862684548" lon="9.271499617025256">
<ele>398.2</ele>
<time>2024-05-08T16:18:20Z</time>
</trkpt>
<trkpt lat="49.51476663351059" lon="9.271661723032594">
<ele>397.6</ele>
<time>2024-05-08T16:18:21Z</time>
</trkpt>
<trkpt lat="49.51473235152662" lon="9.271820057183504">
<ele>396.8</ele>
<time>2024-05-08T16:18:22Z</time>
</trkpt>
<trkpt lat="49.514697985723615" lon="9.271994568407536">
<ele>396.2</ele>
<time>2024-05-08T16:18:23Z</time>
</trkpt>
<trkpt lat="49.51467510312795" lon="9.272152818739414">
<ele>395.6</ele>
<time>2024-05-08T16:18:24Z</time>
</trkpt>
<trkpt lat="49.514659848064184" lon="9.27229874767363">
<ele>395.2</ele>
<time>2024-05-08T16:18:25Z</time>
</trkpt>
<trkpt lat="49.51463310979307" lon="9.272464709356427">
<ele>394.8</ele>
<time>2024-05-08T16:18:26Z</time>
</trkpt>
<trkpt lat="49.514621710404754" lon="9.272611560299993">
<ele>394.2</ele>
<time>2024-05-08T16:18:27Z</time>
</trkpt>
<trkpt lat="49.51458734460175" lon="9.272749861702325">
<ele>393.8</ele>
<time>2024-05-08T16:18:28Z</time>
</trkpt>
<trkpt lat="49.51457208953798" lon="9.272883385419846">
<ele>393.2</ele>
<time>2024-05-08T16:18:29Z</time>
</trkpt>
<trkpt lat="49.514579717069864" lon="9.272996876388788">
<ele>392.8</ele>
<time>2024-05-08T16:18:30Z</time>
</trkpt>
<trkpt lat="49.51457594521344" lon="9.27311128936708">
<ele>392.2</ele>
<time>2024-05-08T16:18:31Z</time>
</trkpt>
<trkpt lat="49.51457208953798" lon="9.273221930488944">
<ele>391.8</ele>
<time>2024-05-08T16:18:32Z</time>
</trkpt>
<trkpt lat="49.51456831768155" lon="9.27332871593535">
<ele>391.6</ele>
<time>2024-05-08T16:18:33Z</time>
</trkpt>
<trkpt lat="49.514556834474206" lon="9.273431729525328">
<ele>391.2</ele>
<time>2024-05-08T16:18:34Z</time>
</trkpt>
<trkpt lat="49.51454543508589" lon="9.273531893268228">
<ele>390.8</ele>
<time>2024-05-08T16:18:35Z</time>
</trkpt>
<trkpt lat="49.51453780755401" lon="9.273631973192096">
<ele>390.4</ele>
<time>2024-05-08T16:18:36Z</time>
</trkpt>
<trkpt lat="49.51452632434666" lon="9.273731214925649">
<ele>390</ele>
<time>2024-05-08T16:18:37Z</time>
</trkpt>
<trkpt lat="49.51451484113932" lon="9.273830372840166">
<ele>389.6</ele>
<time>2024-05-08T16:18:38Z</time>
</trkpt>
<trkpt lat="49.514499586075544" lon="9.273929530754684">
<ele>389.4</ele>
<time>2024-05-08T16:18:39Z</time>
</trkpt>
<trkpt lat="49.514480559155345" lon="9.274024916812778">
<ele>389</ele>
<time>2024-05-08T16:18:40Z</time>
</trkpt>
<trkpt lat="49.514461448416114" lon="9.274114603176711">
<ele>388.6</ele>
<time>2024-05-08T16:18:41Z</time>
</trkpt>
<trkpt lat="49.51443479396403" lon="9.274207055568697">
<ele>388.4</ele>
<time>2024-05-08T16:18:42Z</time>
</trkpt>
<trkpt lat="49.51440805569291" lon="9.274291964247825">
<ele>388</ele>
<time>2024-05-08T16:18:43Z</time>
</trkpt>
<trkpt lat="49.51437377370894" lon="9.274370167404411">
<ele>387.6</ele>
<time>2024-05-08T16:18:44Z</time>
</trkpt>
<trkpt lat="49.514339407905936" lon="9.27443688735366">
<ele>387.2</ele>
<time>2024-05-08T16:18:45Z</time>
</trkpt>
<trkpt lat="49.51430889777839" lon="9.27449505776167">
<ele>386.6</ele>
<time>2024-05-08T16:18:46Z</time>
</trkpt>
<trkpt lat="49.514282159507275" lon="9.2745331954211">
<ele>386</ele>
<time>2024-05-08T16:18:47Z</time>
</trkpt>
<trkpt lat="49.51425164937973" lon="9.274568483233452">
<ele>385.4</ele>
<time>2024-05-08T16:18:48Z</time>
</trkpt>
<trkpt lat="49.51422876678407" lon="9.274604776874185">
<ele>384.8</ele>
<time>2024-05-08T16:18:49Z</time>
</trkpt>
<trkpt lat="49.5142135117203" lon="9.27465146407485">
<ele>384.2</ele>
<time>2024-05-08T16:18:50Z</time>
</trkpt>
<trkpt lat="49.5141944848001" lon="9.274703012779357">
<ele>383.6</ele>
<time>2024-05-08T16:18:51Z</time>
</trkpt>
<trkpt lat="49.514186857268214" lon="9.274756405502558">
<ele>383</ele>
<time>2024-05-08T16:18:52Z</time>
</trkpt>
<trkpt lat="49.514183001592755" lon="9.274820275604725">
<ele>382.4</ele>
<time>2024-05-08T16:18:53Z</time>
</trkpt>
<trkpt lat="49.514183001592755" lon="9.274881295859814">
<ele>382</ele>
<time>2024-05-08T16:18:54Z</time>
</trkpt>
<trkpt lat="49.51419062912464" lon="9.274936616420746">
<ele>381.4</ele>
<time>2024-05-08T16:18:55Z</time>
</trkpt>
<trkpt lat="49.514202112331986" lon="9.274990009143949">
<ele>380.8</ele>
<time>2024-05-08T16:18:56Z</time>
</trkpt>
<trkpt lat="49.5142135117203" lon="9.275034852325916">
<ele>380.2</ele>
<time>2024-05-08T16:18:57Z</time>
</trkpt>
<trkpt lat="49.514224994927645" lon="9.275078773498535">
<ele>379.6</ele>
<time>2024-05-08T16:18:58Z</time>
</trkpt>
<trkpt lat="49.51425164937973" lon="9.275121688842772">
<ele>379</ele>
<time>2024-05-08T16:18:59Z</time>
</trkpt>
<trkpt lat="49.51428601518273" lon="9.275173153728248">
<ele>378.6</ele>
<time>2024-05-08T16:19:00Z</time>
</trkpt>
<trkpt lat="49.51432792469859" lon="9.275219840928912">
<ele>377.8</ele>
<time>2024-05-08T16:19:01Z</time>
</trkpt>
<trkpt lat="49.51437377370894" lon="9.275261834263802">
<ele>377.2</ele>
<time>2024-05-08T16:19:02Z</time>
</trkpt>
<trkpt lat="49.51442331075668" lon="9.27530667744577">
<ele>376.6</ele>
<time>2024-05-08T16:19:03Z</time>
</trkpt>
<trkpt lat="49.514469075948" lon="9.275356214493511">
<ele>376</ele>
<time>2024-05-08T16:19:04Z</time>
</trkpt>
<trkpt lat="49.514518696814775" lon="9.27540298551321">
<ele>375.6</ele>
<time>2024-05-08T16:19:05Z</time>
</trkpt>
<trkpt lat="49.51456831768155" lon="9.275455456227064">
<ele>375</ele>
<time>2024-05-08T16:19:06Z</time>
</trkpt>
<trkpt lat="49.51461022719741" lon="9.275507926940918">
<ele>374.6</ele>
<time>2024-05-08T16:19:07Z</time>
</trkpt>
<trkpt lat="49.514659848064184" lon="9.27556031383574">
<ele>374</ele>
<time>2024-05-08T16:19:08Z</time>
</trkpt>
<trkpt lat="49.514701841399074" lon="9.275609934702516">
<ele>373.6</ele>
<time>2024-05-08T16:19:09Z</time>
</trkpt>
<trkpt lat="49.51474760659039" lon="9.275668105110526">
<ele>373</ele>
<time>2024-05-08T16:19:10Z</time>
</trkpt>
<trkpt lat="49.51479337178171" lon="9.275730131193995">
<ele>372.6</ele>
<time>2024-05-08T16:19:11Z</time>
</trkpt>
<trkpt lat="49.51483150944114" lon="9.27579685114324">
<ele>372</ele>
<time>2024-05-08T16:19:12Z</time>
</trkpt>
<trkpt lat="49.51486964710057" lon="9.275861727073789">
<ele>371.6</ele>
<time>2024-05-08T16:19:13Z</time>
</trkpt>
<trkpt lat="49.514896385371685" lon="9.275928447023034">
<ele>371.2</ele>
<time>2024-05-08T16:19:14Z</time>
</trkpt>
<trkpt lat="49.51492303982377" lon="9.27599810063839">
<ele>370.6</ele>
<time>2024-05-08T16:19:15Z</time>
</trkpt>
<trkpt lat="49.51494592241943" lon="9.276080075651407">
<ele>370.2</ele>
<time>2024-05-08T16:19:16Z</time>
</trkpt>
<trkpt lat="49.51496503315866" lon="9.27617453970015">
<ele>369.6</ele>
<time>2024-05-08T16:19:17Z</time>
</trkpt>
<trkpt lat="49.51498406007886" lon="9.276265064254403">
<ele>369.2</ele>
<time>2024-05-08T16:19:18Z</time>
</trkpt>
<trkpt lat="49.51500694267452" lon="9.27635282278061">
<ele>368.6</ele>
<time>2024-05-08T16:19:19Z</time>
</trkpt>
<trkpt lat="49.51502605341375" lon="9.276446281000972">
<ele>368</ele>
<time>2024-05-08T16:19:20Z</time>
</trkpt>
<trkpt lat="49.51504130847752" lon="9.276541667059064">
<ele>367.4</ele>
<time>2024-05-08T16:19:21Z</time>
</trkpt>
<trkpt lat="49.51506419107318" lon="9.276644680649042">
<ele>366.8</ele>
<time>2024-05-08T16:19:22Z</time>
</trkpt>
<trkpt lat="49.51507944613695" lon="9.27674668841064">
<ele>366.2</ele>
<time>2024-05-08T16:19:23Z</time>
</trkpt>
<trkpt lat="49.51509470120072" lon="9.27684492431581">
<ele>365.4</ele>
<time>2024-05-08T16:19:24Z</time>
</trkpt>
<trkpt lat="49.51510232873261" lon="9.276938382536173">
<ele>364.8</ele>
<time>2024-05-08T16:19:25Z</time>
</trkpt>
<trkpt lat="49.515109956264496" lon="9.277031840756536">
<ele>364.2</ele>
<time>2024-05-08T16:19:26Z</time>
</trkpt>
<trkpt lat="49.51511758379638" lon="9.277125298976898">
<ele>363.6</ele>
<time>2024-05-08T16:19:27Z</time>
</trkpt>
<trkpt lat="49.51512143947184" lon="9.277212135493755">
<ele>362.8</ele>
<time>2024-05-08T16:19:28Z</time>
</trkpt>
<trkpt lat="49.51512143947184" lon="9.277293188497424">
<ele>362.2</ele>
<time>2024-05-08T16:19:29Z</time>
</trkpt>
<trkpt lat="49.51512143947184" lon="9.277364686131476">
<ele>361.4</ele>
<time>2024-05-08T16:19:30Z</time>
</trkpt>
<trkpt lat="49.515113811939955" lon="9.27743618376553">
<ele>360.6</ele>
<time>2024-05-08T16:19:31Z</time>
</trkpt>
<trkpt lat="49.51510618440807" lon="9.277508687227964">
<ele>359.6</ele>
<time>2024-05-08T16:19:32Z</time>
</trkpt>
<trkpt lat="49.5150909293443" lon="9.27757641300559">
<ele>358.8</ele>
<time>2024-05-08T16:19:33Z</time>
</trkpt>
<trkpt lat="49.51506804674864" lon="9.277629805728791">
<ele>358</ele>
<time>2024-05-08T16:19:34Z</time>
</trkpt>
<trkpt lat="49.51504516415298" lon="9.277687054127457">
<ele>357.2</ele>
<time>2024-05-08T16:19:35Z</time>
</trkpt>
<trkpt lat="49.51501842588186" lon="9.277741368860006">
<ele>356.4</ele>
<time>2024-05-08T16:19:36Z</time>
</trkpt>
<trkpt lat="49.514991687610745" lon="9.277798617258668">
<ele>355.6</ele>
<time>2024-05-08T16:19:37Z</time>
</trkpt>
<trkpt lat="49.5149611774832" lon="9.27785200998187">
<ele>355</ele>
<time>2024-05-08T16:19:38Z</time>
</trkpt>
<trkpt lat="49.51493829488754" lon="9.277904480695724">
<ele>354.4</ele>
<time>2024-05-08T16:19:39Z</time>
</trkpt>
<trkpt lat="49.51491926796734" lon="9.277968350797892">
<ele>353.6</ele>
<time>2024-05-08T16:19:40Z</time>
</trkpt>
<trkpt lat="49.51490401290357" lon="9.278041776269674">
<ele>353</ele>
<time>2024-05-08T16:19:41Z</time>
</trkpt>
<trkpt lat="49.514892529696226" lon="9.27811335772276">
<ele>352.2</ele>
<time>2024-05-08T16:19:42Z</time>
</trkpt>
<trkpt lat="49.51488490216434" lon="9.27819156087935">
<ele>351.6</ele>
<time>2024-05-08T16:19:43Z</time>
</trkpt>
<trkpt lat="49.51488490216434" lon="9.27826875820756">
<ele>351</ele>
<time>2024-05-08T16:19:44Z</time>
</trkpt>
<trkpt lat="49.5148887578398" lon="9.27834796719253">
<ele>350.4</ele>
<time>2024-05-08T16:19:45Z</time>
</trkpt>
<trkpt lat="49.514892529696226" lon="9.27842709235847">
<ele>349.8</ele>
<time>2024-05-08T16:19:46Z</time>
</trkpt>
<trkpt lat="49.51490015722811" lon="9.278503367677333">
<ele>349.4</ele>
<time>2024-05-08T16:19:47Z</time>
</trkpt>
<trkpt lat="49.51491164043546" lon="9.278576793149114">
<ele>348.8</ele>
<time>2024-05-08T16:19:48Z</time>
</trkpt>
<trkpt lat="49.51491541229189" lon="9.27864644676447">
<ele>348.2</ele>
<time>2024-05-08T16:19:49Z</time>
</trkpt>
<trkpt lat="49.51492303982377" lon="9.278713166713716">
<ele>347.6</ele>
<time>2024-05-08T16:19:50Z</time>
</trkpt>
<trkpt lat="49.51493452303112" lon="9.278778042644262">
<ele>347</ele>
<time>2024-05-08T16:19:51Z</time>
</trkpt>
<trkpt lat="49.51493829488754" lon="9.27884291857481">
<ele>346.4</ele>
<time>2024-05-08T16:19:52Z</time>
</trkpt>
<trkpt lat="49.51494592241943" lon="9.278916344046593">
<ele>345.8</ele>
<time>2024-05-08T16:19:53Z</time>
</trkpt>
<trkpt lat="49.51494592241943" lon="9.278987841680646">
<ele>345.6</ele>
<time>2024-05-08T16:19:54Z</time>
</trkpt>
<trkpt lat="49.51494977809489" lon="9.279053639620544">
<ele>345.2</ele>
<time>2024-05-08T16:19:55Z</time>
</trkpt>
<trkpt lat="49.514953549951315" lon="9.279107032343743">
<ele>344.8</ele>
<time>2024-05-08T16:19:56Z</time>
</trkpt>
<trkpt lat="49.5149611774832" lon="9.279161430895329">
<ele>344.6</ele>
<time>2024-05-08T16:19:57Z</time>
</trkpt>
<trkpt lat="49.51496503315866" lon="9.27921675145626">
<ele>344.2</ele>
<time>2024-05-08T16:19:58Z</time>
</trkpt>
<trkpt lat="49.514972660690546" lon="9.279270144179463">
<ele>344</ele>
<time>2024-05-08T16:19:59Z</time>
</trkpt>
<trkpt lat="49.51497643254697" lon="9.279328314587474">
<ele>343.8</ele>
<time>2024-05-08T16:20:00Z</time>
</trkpt>
<trkpt lat="49.51498406007886" lon="9.279386484995484">
<ele>343.6</ele>
<time>2024-05-08T16:20:01Z</time>
</trkpt>
<trkpt lat="49.514991687610745" lon="9.279448427259922">
<ele>343.4</ele>
<time>2024-05-08T16:20:02Z</time>
</trkpt>
<trkpt lat="49.51500317081809" lon="9.279509531334044">
<ele>343.2</ele>
<time>2024-05-08T16:20:03Z</time>
</trkpt>
<trkpt lat="49.51501079834998" lon="9.27957147359848">
<ele>343.2</ele>
<time>2024-05-08T16:20:04Z</time>
</trkpt>
<trkpt lat="49.5150145702064" lon="9.27963349968195">
<ele>343.2</ele>
<time>2024-05-08T16:20:05Z</time>
</trkpt>
<trkpt lat="49.51502219773829" lon="9.27969167008996">
<ele>343.2</ele>
<time>2024-05-08T16:20:06Z</time>
</trkpt>
<trkpt lat="49.515029825270176" lon="9.279745062813165">
<ele>343.2</ele>
<time>2024-05-08T16:20:07Z</time>
</trkpt>
<trkpt lat="49.515037536621094" lon="9.279800383374097">
<ele>343</ele>
<time>2024-05-08T16:20:08Z</time>
</trkpt>
<trkpt lat="49.51504516415298" lon="9.279856625944376">
<ele>343</ele>
<time>2024-05-08T16:20:09Z</time>
</trkpt>
<trkpt lat="49.515052791684866" lon="9.279911946505308">
<ele>342.8</ele>
<time>2024-05-08T16:20:10Z</time>
</trkpt>
<trkpt lat="49.51506419107318" lon="9.27996818907559">
<ele>342.8</ele>
<time>2024-05-08T16:20:11Z</time>
</trkpt>
<trkpt lat="49.515071818605065" lon="9.2800263594836">
<ele>342.6</ele>
<time>2024-05-08T16:20:12Z</time>
</trkpt>
<trkpt lat="49.51507944613695" lon="9.280088385567067">
<ele>342.6</ele>
<time>2024-05-08T16:20:13Z</time>
</trkpt>
<trkpt lat="49.51508707366884" lon="9.280153261497617">
<ele>342.6</ele>
<time>2024-05-08T16:20:14Z</time>
</trkpt>
<trkpt lat="49.51509470120072" lon="9.280218053609133">
<ele>342.4</ele>
<time>2024-05-08T16:20:15Z</time>
</trkpt>
<trkpt lat="49.51510618440807" lon="9.28028292953968">
<ele>342.2</ele>
<time>2024-05-08T16:20:16Z</time>
</trkpt>
<trkpt lat="49.515113811939955" lon="9.280346799641848">
<ele>342.2</ele>
<time>2024-05-08T16:20:17Z</time>
</trkpt>
<trkpt lat="49.51512521132827" lon="9.280409747734666">
<ele>342</ele>
<time>2024-05-08T16:20:18Z</time>
</trkpt>
<trkpt lat="49.51513669453561" lon="9.280476551502945">
<ele>341.8</ele>
<time>2024-05-08T16:20:19Z</time>
</trkpt>
<trkpt lat="49.5151443220675" lon="9.280548049136996">
<ele>341.6</ele>
<time>2024-05-08T16:20:20Z</time>
</trkpt>
<trkpt lat="49.5151633489877" lon="9.28061954677105">
<ele>341.4</ele>
<time>2024-05-08T16:20:21Z</time>
</trkpt>
<trkpt lat="49.51518245972693" lon="9.280686350539328">
<ele>341.2</ele>
<time>2024-05-08T16:20:22Z</time>
</trkpt>
<trkpt lat="49.51520148664713" lon="9.280751226469874">
<ele>341</ele>
<time>2024-05-08T16:20:23Z</time>
</trkpt>
<trkpt lat="49.515228224918246" lon="9.280811240896584">
<ele>341</ele>
<time>2024-05-08T16:20:24Z</time>
</trkpt>
<trkpt lat="49.51525496318936" lon="9.280870417132974">
<ele>340.8</ele>
<time>2024-05-08T16:20:25Z</time>
</trkpt>
<trkpt lat="49.51528547331691" lon="9.280929509550331">
<ele>340.6</ele>
<time>2024-05-08T16:20:26Z</time>
</trkpt>
<trkpt lat="49.51531212776899" lon="9.280991535633802">
<ele>340.4</ele>
<time>2024-05-08T16:20:27Z</time>
</trkpt>
<trkpt lat="49.51534263789654" lon="9.281049706041811">
<ele>340.2</ele>
<time>2024-05-08T16:20:28Z</time>
</trkpt>
<trkpt lat="49.51537314802408" lon="9.281107876449823">
<ele>340</ele>
<time>2024-05-08T16:20:29Z</time>
</trkpt>
<trkpt lat="49.515407513827085" lon="9.281174596399069">
<ele>339.6</ele>
<time>2024-05-08T16:20:30Z</time>
</trkpt>
<trkpt lat="49.51544565148651" lon="9.281236622482538">
<ele>339.4</ele>
<time>2024-05-08T16:20:31Z</time>
</trkpt>
<trkpt lat="49.51548001728952" lon="9.281294792890549">
<ele>339</ele>
<time>2024-05-08T16:20:32Z</time>
</trkpt>
<trkpt lat="49.51551815494895" lon="9.281358662992716">
<ele>338.8</ele>
<time>2024-05-08T16:20:33Z</time>
</trkpt>
<trkpt lat="49.515548665076494" lon="9.281423538923264">
<ele>338.4</ele>
<time>2024-05-08T16:20:34Z</time>
</trkpt>
<trkpt lat="49.5155830308795" lon="9.281493108719587">
<ele>338</ele>
<time>2024-05-08T16:20:35Z</time>
</trkpt>
<trkpt lat="49.51560968533158" lon="9.281566618010402">
<ele>337.6</ele>
<time>2024-05-08T16:20:36Z</time>
</trkpt>
<trkpt lat="49.515628796070814" lon="9.281642893329265">
<ele>337.2</ele>
<time>2024-05-08T16:20:37Z</time>
</trkpt>
<trkpt lat="49.51564782299101" lon="9.281722940504553">
<ele>336.8</ele>
<time>2024-05-08T16:20:38Z</time>
</trkpt>
<trkpt lat="49.515663078054786" lon="9.28180307149887">
<ele>336.4</ele>
<time>2024-05-08T16:20:39Z</time>
</trkpt>
<trkpt lat="49.515666933730245" lon="9.28188320249319">
<ele>336</ele>
<time>2024-05-08T16:20:40Z</time>
</trkpt>
<trkpt lat="49.51567456126213" lon="9.28196333348751">
<ele>335.6</ele>
<time>2024-05-08T16:20:42Z</time>
</trkpt>
<trkpt lat="49.51567070558667" lon="9.2820433806628">
<ele>335.2</ele>
<time>2024-05-08T16:20:43Z</time>
</trkpt>
<trkpt lat="49.515644051134586" lon="9.282213198021054">
<ele>334.2</ele>
<time>2024-05-08T16:20:44Z</time>
</trkpt>
<trkpt lat="49.515624940395355" lon="9.282304728403687">
<ele>333.6</ele>
<time>2024-05-08T16:20:45Z</time>
</trkpt>
<trkpt lat="49.51559828594327" lon="9.282401958480476">
<ele>333.2</ele>
<time>2024-05-08T16:20:46Z</time>
</trkpt>
<trkpt lat="49.515567775815725" lon="9.282494494691491">
<ele>332.6</ele>
<time>2024-05-08T16:20:47Z</time>
</trkpt>
<trkpt lat="49.51552578248083" lon="9.282585103064775">
<ele>332.2</ele>
<time>2024-05-08T16:20:48Z</time>
</trkpt>
<trkpt lat="49.51548001728952" lon="9.282676633447409">
<ele>331.6</ele>
<time>2024-05-08T16:20:49Z</time>
</trkpt>
<trkpt lat="49.51542662456632" lon="9.282761542126536">
<ele>331.2</ele>
<time>2024-05-08T16:20:50Z</time>
</trkpt>
<trkpt lat="49.51537314802408" lon="9.282848294824362">
<ele>330.8</ele>
<time>2024-05-08T16:20:51Z</time>
</trkpt>
<trkpt lat="49.51531975530088" lon="9.28293320350349">
<ele>330.4</ele>
<time>2024-05-08T16:20:52Z</time>
</trkpt>
<trkpt lat="49.51527399010956" lon="9.283016184344888">
<ele>330</ele>
<time>2024-05-08T16:20:53Z</time>
</trkpt>
<trkpt lat="49.515228224918246" lon="9.283098159357904">
<ele>329.6</ele>
<time>2024-05-08T16:20:54Z</time>
</trkpt>
<trkpt lat="49.515190087258816" lon="9.283178290352224">
<ele>329.2</ele>
<time>2024-05-08T16:20:55Z</time>
</trkpt>
<trkpt lat="49.51515957713127" lon="9.283263199031351">
<ele>328.8</ele>
<time>2024-05-08T16:20:56Z</time>
</trkpt>
<trkpt lat="49.5151443220675" lon="9.283356657251716">
<ele>328.4</ele>
<time>2024-05-08T16:20:57Z</time>
</trkpt>
<trkpt lat="49.5151443220675" lon="9.283451959490776">
<ele>328</ele>
<time>2024-05-08T16:20:58Z</time>
</trkpt>
<trkpt lat="49.51515572145581" lon="9.28354642353952">
<ele>327.4</ele>
<time>2024-05-08T16:20:59Z</time>
</trkpt>
<trkpt lat="49.51518245972693" lon="9.283637031912804">
<ele>327</ele>
<time>2024-05-08T16:21:00Z</time>
</trkpt>
<trkpt lat="49.51520534232259" lon="9.2837218567729">
<ele>326.8</ele>
<time>2024-05-08T16:21:01Z</time>
</trkpt>
<trkpt lat="49.515232080593705" lon="9.283804837614298">
<ele>326.4</ele>
<time>2024-05-08T16:21:02Z</time>
</trkpt>
<trkpt lat="49.51525496318936" lon="9.283884968608618">
<ele>326.2</ele>
<time>2024-05-08T16:21:03Z</time>
</trkpt>
<trkpt lat="49.51528161764145" lon="9.283966943621635">
<ele>325.8</ele>
<time>2024-05-08T16:21:04Z</time>
</trkpt>
<trkpt lat="49.51531212776899" lon="9.284048080444336">
<ele>325.8</ele>
<time>2024-05-08T16:21:05Z</time>
</trkpt>
<trkpt lat="49.51533501036465" lon="9.284130055457354">
<ele>325.6</ele>
<time>2024-05-08T16:21:06Z</time>
</trkpt>
<trkpt lat="49.51536174863577" lon="9.284212030470371">
<ele>325.4</ele>
<time>2024-05-08T16:21:07Z</time>
</trkpt>
<trkpt lat="49.515388486906886" lon="9.284293167293072">
<ele>325.4</ele>
<time>2024-05-08T16:21:08Z</time>
</trkpt>
<trkpt lat="49.515411369502544" lon="9.28437514230609">
<ele>325.4</ele>
<time>2024-05-08T16:21:09Z</time>
</trkpt>
<trkpt lat="49.51543802395463" lon="9.284456195309758">
<ele>325.2</ele>
<time>2024-05-08T16:21:10Z</time>
</trkpt>
<trkpt lat="49.51546476222575" lon="9.28453540429473">
<ele>325.2</ele>
<time>2024-05-08T16:21:11Z</time>
</trkpt>
<trkpt lat="49.51549904420972" lon="9.28461167961359">
<ele>325.2</ele>
<time>2024-05-08T16:21:12Z</time>
</trkpt>
<trkpt lat="49.51553341001272" lon="9.284687954932451">
<ele>325.2</ele>
<time>2024-05-08T16:21:13Z</time>
</trkpt>
<trkpt lat="49.515567775815725" lon="9.284763308241963">
<ele>325.4</ele>
<time>2024-05-08T16:21:14Z</time>
</trkpt>
<trkpt lat="49.51559828594327" lon="9.284839583560824">
<ele>325.4</ele>
<time>2024-05-08T16:21:15Z</time>
</trkpt>
<trkpt lat="49.515628796070814" lon="9.284921642392874">
<ele>325.4</ele>
<time>2024-05-08T16:21:16Z</time>
</trkpt>
<trkpt lat="49.515663078054786" lon="9.28500453941524">
<ele>325.4</ele>
<time>2024-05-08T16:21:17Z</time>
</trkpt>
<trkpt lat="49.51569358818233" lon="9.285091375932096">
<ele>325.4</ele>
<time>2024-05-08T16:21:18Z</time>
</trkpt>
<trkpt lat="49.51572032645345" lon="9.285178128629925">
<ele>325.4</ele>
<time>2024-05-08T16:21:19Z</time>
</trkpt>
<trkpt lat="49.51575083658099" lon="9.285266809165478">
<ele>325.6</ele>
<time>2024-05-08T16:21:20Z</time>
</trkpt>
<trkpt lat="49.51577371917665" lon="9.285356495529411">
<ele>325.6</ele>
<time>2024-05-08T16:21:21Z</time>
</trkpt>
<trkpt lat="49.51580045744777" lon="9.285449953749776">
<ele>325.4</ele>
<time>2024-05-08T16:21:22Z</time>
</trkpt>
<trkpt lat="49.515823340043426" lon="9.285541484132407">
<ele>325.4</ele>
<time>2024-05-08T16:21:23Z</time>
</trkpt>
<trkpt lat="49.515842366963625" lon="9.2856368701905">
<ele>325.4</ele>
<time>2024-05-08T16:21:24Z</time>
</trkpt>
<trkpt lat="49.515861477702856" lon="9.285733178257942">
<ele>325.4</ele>
<time>2024-05-08T16:21:25Z</time>
</trkpt>
<trkpt lat="49.51587673276663" lon="9.285828564316034">
<ele>325.2</ele>
<time>2024-05-08T16:21:26Z</time>
</trkpt>
<trkpt lat="49.5158919878304" lon="9.285924872383475">
<ele>325.2</ele>
<time>2024-05-08T16:21:27Z</time>
</trkpt>
<trkpt lat="49.51591109856963" lon="9.286021180450916">
<ele>325</ele>
<time>2024-05-08T16:21:28Z</time>
</trkpt>
<trkpt lat="49.51593012548983" lon="9.286118494346738">
<ele>325</ele>
<time>2024-05-08T16:21:29Z</time>
</trkpt>
<trkpt lat="49.5159453805536" lon="9.286216730251908">
<ele>324.8</ele>
<time>2024-05-08T16:21:30Z</time>
</trkpt>
<trkpt lat="49.515960635617375" lon="9.286314882338049">
<ele>324.8</ele>
<time>2024-05-08T16:21:31Z</time>
</trkpt>
<trkpt lat="49.51597589068115" lon="9.286415046080949">
<ele>324.6</ele>
<time>2024-05-08T16:21:32Z</time>
</trkpt>
<trkpt lat="49.51599114574492" lon="9.286516131833196">
<ele>324.4</ele>
<time>2024-05-08T16:21:33Z</time>
</trkpt>
<trkpt lat="49.516002628952265" lon="9.286616295576096">
<ele>324.4</ele>
<time>2024-05-08T16:21:34Z</time>
</trkpt>
<trkpt lat="49.51601402834058" lon="9.286714531481266">
<ele>324.2</ele>
<time>2024-05-08T16:21:35Z</time>
</trkpt>
<trkpt lat="49.51602551154792" lon="9.286814611405134">
<ele>324</ele>
<time>2024-05-08T16:21:36Z</time>
</trkpt>
<trkpt lat="49.51603691093624" lon="9.286916702985764">
<ele>324</ele>
<time>2024-05-08T16:21:37Z</time>
</trkpt>
<trkpt lat="49.51604839414358" lon="9.287016866728663">
<ele>323.8</ele>
<time>2024-05-08T16:21:38Z</time>
</trkpt>
<trkpt lat="49.516059793531895" lon="9.287116946652532">
<ele>323.8</ele>
<time>2024-05-08T16:21:39Z</time>
</trkpt>
<trkpt lat="49.51606750488281" lon="9.28721996024251">
<ele>323.8</ele>
<time>2024-05-08T16:21:40Z</time>
</trkpt>
<trkpt lat="49.5160751324147" lon="9.28732012398541">
<ele>323.8</ele>
<time>2024-05-08T16:21:41Z</time>
</trkpt>
<trkpt lat="49.516082759946585" lon="9.287420203909278">
<ele>323.6</ele>
<time>2024-05-08T16:21:42Z</time>
</trkpt>
<trkpt lat="49.51609038747847" lon="9.287520367652178">
<ele>323.6</ele>
<time>2024-05-08T16:21:43Z</time>
</trkpt>
<trkpt lat="49.516101786866784" lon="9.287619525566695">
<ele>323.4</ele>
<time>2024-05-08T16:21:44Z</time>
</trkpt>
<trkpt lat="49.51610564254224" lon="9.287718767300248">
<ele>323.2</ele>
<time>2024-05-08T16:21:45Z</time>
</trkpt>
<trkpt lat="49.51611327007413" lon="9.287816919386389">
<ele>323.2</ele>
<time>2024-05-08T16:21:46Z</time>
</trkpt>
<trkpt lat="49.516120897606015" lon="9.28791138343513">
<ele>323.2</ele>
<time>2024-05-08T16:21:47Z</time>
</trkpt>
<trkpt lat="49.5161285251379" lon="9.288006769493222">
<ele>323.2</ele>
<time>2024-05-08T16:21:48Z</time>
</trkpt>
<trkpt lat="49.5161285251379" lon="9.288096372038126">
<ele>323.2</ele>
<time>2024-05-08T16:21:49Z</time>
</trkpt>
<trkpt lat="49.51613229699433" lon="9.28818698041141">
<ele>323.2</ele>
<time>2024-05-08T16:21:50Z</time>
</trkpt>
<trkpt lat="49.51613229699433" lon="9.288276666775346">
<ele>323</ele>
<time>2024-05-08T16:21:51Z</time>
</trkpt>
<trkpt lat="49.5161285251379" lon="9.2883653473109">
<ele>323</ele>
<time>2024-05-08T16:21:52Z</time>
</trkpt>
<trkpt lat="49.516120897606015" lon="9.288452100008726">
<ele>323</ele>
<time>2024-05-08T16:21:53Z</time>
</trkpt>
<trkpt lat="49.51611704193056" lon="9.288539858534932">
<ele>322.8</ele>
<time>2024-05-08T16:21:54Z</time>
</trkpt>
<trkpt lat="49.51611327007413" lon="9.288624683395028">
<ele>322.8</ele>
<time>2024-05-08T16:21:55Z</time>
</trkpt>
<trkpt lat="49.51610564254224" lon="9.288709592074156">
<ele>322.8</ele>
<time>2024-05-08T16:21:56Z</time>
</trkpt>
<trkpt lat="49.51609801501036" lon="9.288795422762632">
<ele>322.8</ele>
<time>2024-05-08T16:21:57Z</time>
</trkpt>
<trkpt lat="49.51608653180301" lon="9.28887840360403">
<ele>323</ele>
<time>2024-05-08T16:21:59Z</time>
</trkpt>
<trkpt lat="49.51605216600001" lon="9.289041515439749">
<ele>323</ele>
<time>2024-05-08T16:22:00Z</time>
</trkpt>
<trkpt lat="49.51603691093624" lon="9.28911971859634">
<ele>323</ele>
<time>2024-05-08T16:22:01Z</time>
</trkpt>
<trkpt lat="49.51601788401604" lon="9.289196915924547">
<ele>323</ele>
<time>2024-05-08T16:22:02Z</time>
</trkpt>
<trkpt lat="49.515998773276806" lon="9.289270341396332">
<ele>323</ele>
<time>2024-05-08T16:22:03Z</time>
</trkpt>
<trkpt lat="49.51597974635661" lon="9.289339995011687">
<ele>323.2</ele>
<time>2024-05-08T16:22:04Z</time>
</trkpt>
<trkpt lat="49.51595686376095" lon="9.289408642798662">
<ele>323.2</ele>
<time>2024-05-08T16:22:05Z</time>
</trkpt>
<trkpt lat="49.51593775302172" lon="9.289475362747908">
<ele>323.2</ele>
<time>2024-05-08T16:22:06Z</time>
</trkpt>
<trkpt lat="49.51591487042606" lon="9.289543088525534">
<ele>323.4</ele>
<time>2024-05-08T16:22:07Z</time>
</trkpt>
<trkpt lat="49.51588813215494" lon="9.289611736312509">
<ele>323.4</ele>
<time>2024-05-08T16:22:08Z</time>
</trkpt>
<trkpt lat="49.515861477702856" lon="9.289681389927864">
<ele>323.4</ele>
<time>2024-05-08T16:22:09Z</time>
</trkpt>
<trkpt lat="49.51583473943174" lon="9.289752887561916">
<ele>323.6</ele>
<time>2024-05-08T16:22:10Z</time>
</trkpt>
<trkpt lat="49.51581185683608" lon="9.289825391024351">
<ele>323.6</ele>
<time>2024-05-08T16:22:11Z</time>
</trkpt>
<trkpt lat="49.51578897424042" lon="9.289897894486783">
<ele>323.8</ele>
<time>2024-05-08T16:22:12Z</time>
</trkpt>
<trkpt lat="49.51576994732022" lon="9.289975091814997">
<ele>323.8</ele>
<time>2024-05-08T16:22:13Z</time>
</trkpt>
<trkpt lat="49.515747064724565" lon="9.290048517286776">
<ele>323.8</ele>
<time>2024-05-08T16:22:14Z</time>
</trkpt>
<trkpt lat="49.51572795398533" lon="9.29012294858694">
<ele>324</ele>
<time>2024-05-08T16:22:15Z</time>
</trkpt>
<trkpt lat="49.515705071389675" lon="9.290198301896451">
<ele>324</ele>
<time>2024-05-08T16:22:16Z</time>
</trkpt>
<trkpt lat="49.51568596065045" lon="9.290271727368236">
<ele>324</ele>
<time>2024-05-08T16:22:17Z</time>
</trkpt>
<trkpt lat="49.51567070558667" lon="9.29034129716456">
<ele>324</ele>
<time>2024-05-08T16:22:18Z</time>
</trkpt>
<trkpt lat="49.51565930619836" lon="9.290408100932837">
<ele>324.2</ele>
<time>2024-05-08T16:22:19Z</time>
</trkpt>
<trkpt lat="49.51565167866647" lon="9.290470043197274">
<ele>324.4</ele>
<time>2024-05-08T16:22:20Z</time>
</trkpt>
<trkpt lat="49.515644051134586" lon="9.290526369586589">
<ele>324.4</ele>
<time>2024-05-08T16:22:21Z</time>
</trkpt>
<trkpt lat="49.51564019545913" lon="9.29057783447206">
<ele>324.6</ele>
<time>2024-05-08T16:22:22Z</time>
</trkpt>
<trkpt lat="49.51563256792724" lon="9.290628377348185">
<ele>324.6</ele>
<time>2024-05-08T16:22:23Z</time>
</trkpt>
<trkpt lat="49.51563256792724" lon="9.290675148367882">
<ele>324.8</ele>
<time>2024-05-08T16:22:24Z</time>
</trkpt>
<trkpt lat="49.515628796070814" lon="9.29071806371212">
<ele>324.8</ele>
<time>2024-05-08T16:22:25Z</time>
</trkpt>
<trkpt lat="49.5156364236027" lon="9.290761901065707">
<ele>324.8</ele>
<time>2024-05-08T16:22:26Z</time>
</trkpt>
<trkpt lat="49.51564782299101" lon="9.290801966562867">
<ele>324.8</ele>
<time>2024-05-08T16:22:27Z</time>
</trkpt>
<trkpt lat="49.515666933730245" lon="9.29083339869976">
<ele>325</ele>
<time>2024-05-08T16:22:28Z</time>
</trkpt>
<trkpt lat="49.5156898163259" lon="9.290851587429644">
<ele>325</ele>
<time>2024-05-08T16:22:29Z</time>
</trkpt>
<trkpt lat="49.51571647077799" lon="9.290862986817956">
<ele>325.2</ele>
<time>2024-05-08T16:22:30Z</time>
</trkpt>
<trkpt lat="49.515743209049106" lon="9.29087346419692">
<ele>325.2</ele>
<time>2024-05-08T16:22:31Z</time>
</trkpt>
<trkpt lat="49.515781346708536" lon="9.290891569107773">
<ele>325.2</ele>
<time>2024-05-08T16:22:32Z</time>
</trkpt>
<trkpt lat="49.51581571251154" lon="9.29091352969408">
<ele>325.4</ele>
<time>2024-05-08T16:22:33Z</time>
</trkpt>
<trkpt lat="49.51585385017097" lon="9.290945045650004">
<ele>325.4</ele>
<time>2024-05-08T16:22:34Z</time>
</trkpt>
<trkpt lat="49.5158919878304" lon="9.290978405624628">
<ele>325.4</ele>
<time>2024-05-08T16:22:35Z</time>
</trkpt>
<trkpt lat="49.51591872610152" lon="9.29101369343698">
<ele>325.6</ele>
<time>2024-05-08T16:22:36Z</time>
</trkpt>
<trkpt lat="49.51593012548983" lon="9.291058536618948">
<ele>325.6</ele>
<time>2024-05-08T16:22:37Z</time>
</trkpt>
<trkpt lat="49.51593398116529" lon="9.291114779189227">
<ele>325.4</ele>
<time>2024-05-08T16:22:39Z</time>
</trkpt>
<trkpt lat="49.51593775302172" lon="9.29119197651744">
<ele>325.2</ele>
<time>2024-05-08T16:22:40Z</time>
</trkpt>
<trkpt lat="49.51593775302172" lon="9.291223492473364">
<ele>325.2</ele>
<time>2024-05-08T16:22:41Z</time>
</trkpt>
<trkpt lat="49.51593398116529" lon="9.29125014692545">
<ele>325.2</ele>
<time>2024-05-08T16:22:42Z</time>
</trkpt>
<trkpt lat="49.51593398116529" lon="9.291288368403912">
<ele>325.2</ele>
<time>2024-05-08T16:22:43Z</time>
</trkpt>
<trkpt lat="49.51593398116529" lon="9.291324578225613">
<ele>325.2</ele>
<time>2024-05-08T16:22:44Z</time>
</trkpt>
<trkpt lat="49.51593012548983" lon="9.291366571560502">
<ele>325.4</ele>
<time>2024-05-08T16:22:45Z</time>
</trkpt>
<trkpt lat="49.515922497957945" lon="9.29140655323863">
<ele>325.4</ele>
<time>2024-05-08T16:22:46Z</time>
</trkpt>
<trkpt lat="49.51591487042606" lon="9.291435219347475">
<ele>325.6</ele>
<time>2024-05-08T16:22:47Z</time>
</trkpt>
<trkpt lat="49.51591872610152" lon="9.2914685793221">
<ele>325.8</ele>
<time>2024-05-08T16:22:48Z</time>
</trkpt>
<trkpt lat="49.51592635363341" lon="9.291500011458991">
<ele>326</ele>
<time>2024-05-08T16:22:49Z</time>
</trkpt>
<trkpt lat="49.51593398116529" lon="9.29154485464096">
<ele>326.2</ele>
<time>2024-05-08T16:22:50Z</time>
</trkpt>
<trkpt lat="49.51593012548983" lon="9.291576370596886">
<ele>326.4</ele>
<time>2024-05-08T16:22:51Z</time>
</trkpt>
<trkpt lat="49.51593398116529" lon="9.291609730571508">
<ele>326.8</ele>
<time>2024-05-08T16:22:52Z</time>
</trkpt>
<trkpt lat="49.51593398116529" lon="9.29164694622159">
<ele>327</ele>
<time>2024-05-08T16:22:53Z</time>
</trkpt>
<trkpt lat="49.51593398116529" lon="9.29168508388102">
<ele>327.2</ele>
<time>2024-05-08T16:22:54Z</time>
</trkpt>
<trkpt lat="49.51593775302172" lon="9.29172799922526">
<ele>327.4</ele>
<time>2024-05-08T16:22:55Z</time>
</trkpt>
<trkpt lat="49.51593775302172" lon="9.291765131056309">
<ele>327.6</ele>
<time>2024-05-08T16:22:56Z</time>
</trkpt>
<trkpt lat="49.515941608697176" lon="9.291805196553469">
<ele>328</ele>
<time>2024-05-08T16:22:57Z</time>
</trkpt>
<trkpt lat="49.51594923622906" lon="9.291838640347123">
<ele>328.2</ele>
<time>2024-05-08T16:22:58Z</time>
</trkpt>
<trkpt lat="49.51595300808549" lon="9.291872000321746">
<ele>328.4</ele>
<time>2024-05-08T16:22:59Z</time>
</trkpt>
<trkpt lat="49.515960635617375" lon="9.291914915665984">
<ele>328.6</ele>
<time>2024-05-08T16:23:00Z</time>
</trkpt>
<trkpt lat="49.51597211882472" lon="9.291968308389189">
<ele>329</ele>
<time>2024-05-08T16:23:01Z</time>
</trkpt>
<trkpt lat="49.51597974635661" lon="9.29202170111239">
<ele>329</ele>
<time>2024-05-08T16:23:02Z</time>
</trkpt>
<trkpt lat="49.515983518213034" lon="9.292064616456628">
<ele>329.2</ele>
<time>2024-05-08T16:23:03Z</time>
</trkpt>
<trkpt lat="49.51598737388849" lon="9.292110381647944">
<ele>329.4</ele>
<time>2024-05-08T16:23:04Z</time>
</trkpt>
<trkpt lat="49.51599500142038" lon="9.292155224829912">
<ele>329.4</ele>
<time>2024-05-08T16:23:05Z</time>
</trkpt>
<trkpt lat="49.51599500142038" lon="9.292206689715384">
<ele>329.6</ele>
<time>2024-05-08T16:23:06Z</time>
</trkpt>
<trkpt lat="49.51599500142038" lon="9.29225631058216">
<ele>329.6</ele>
<time>2024-05-08T16:23:07Z</time>
</trkpt>
<trkpt lat="49.516002628952265" lon="9.292301153764129">
<ele>329.8</ele>
<time>2024-05-08T16:23:08Z</time>
</trkpt>
<trkpt lat="49.51601025648415" lon="9.292349768802524">
<ele>329.8</ele>
<time>2024-05-08T16:23:09Z</time>
</trkpt>
<trkpt lat="49.51601788401604" lon="9.29239653982222">
<ele>330</ele>
<time>2024-05-08T16:23:10Z</time>
</trkpt>
<trkpt lat="49.51603313907981" lon="9.292449932545424">
<ele>330</ele>
<time>2024-05-08T16:23:11Z</time>
</trkpt>
<trkpt lat="49.51604839414358" lon="9.292505253106356">
<ele>330.2</ele>
<time>2024-05-08T16:23:12Z</time>
</trkpt>
<trkpt lat="49.516059793531895" lon="9.292558645829558">
<ele>330.4</ele>
<time>2024-05-08T16:23:13Z</time>
</trkpt>
<trkpt lat="49.51607127673924" lon="9.292606338858604">
<ele>330.6</ele>
<time>2024-05-08T16:23:14Z</time>
</trkpt>
<trkpt lat="49.516078904271126" lon="9.292654953897">
<ele>330.6</ele>
<time>2024-05-08T16:23:15Z</time>
</trkpt>
<trkpt lat="49.51608653180301" lon="9.292697869241238">
<ele>330.8</ele>
<time>2024-05-08T16:23:16Z</time>
</trkpt>
<trkpt lat="49.51609038747847" lon="9.292741706594825">
<ele>330.8</ele>
<time>2024-05-08T16:23:17Z</time>
</trkpt>
<trkpt lat="49.51609801501036" lon="9.292798032984138">
<ele>331</ele>
<time>2024-05-08T16:23:18Z</time>
</trkpt>
<trkpt lat="49.516101786866784" lon="9.292856203392148">
<ele>331</ele>
<time>2024-05-08T16:23:19Z</time>
</trkpt>
<trkpt lat="49.516101786866784" lon="9.292920073494315">
<ele>331</ele>
<time>2024-05-08T16:23:20Z</time>
</trkpt>
<trkpt lat="49.516101786866784" lon="9.292982099577785">
<ele>331</ele>
<time>2024-05-08T16:23:21Z</time>
</trkpt>
<trkpt lat="49.516101786866784" lon="9.293036414310336">
<ele>331.2</ele>
<time>2024-05-08T16:23:22Z</time>
</trkpt>
<trkpt lat="49.516101786866784" lon="9.293081257492304">
<ele>331.4</ele>
<time>2024-05-08T16:23:23Z</time>
</trkpt>
<trkpt lat="49.516101786866784" lon="9.293131800368428">
<ele>331.4</ele>
<time>2024-05-08T16:23:24Z</time>
</trkpt>
<trkpt lat="49.51609801501036" lon="9.2931832652539">
<ele>331.6</ele>
<time>2024-05-08T16:23:25Z</time>
</trkpt>
<trkpt lat="49.5160941593349" lon="9.293232886120675">
<ele>331.6</ele>
<time>2024-05-08T16:23:26Z</time>
</trkpt>
<trkpt lat="49.51608653180301" lon="9.293278651311994">
<ele>331.8</ele>
<time>2024-05-08T16:23:27Z</time>
</trkpt>
<trkpt lat="49.51608653180301" lon="9.293321566656232">
<ele>332</ele>
<time>2024-05-08T16:23:28Z</time>
</trkpt>
<trkpt lat="49.51608653180301" lon="9.293370181694629">
<ele>332.2</ele>
<time>2024-05-08T16:23:29Z</time>
</trkpt>
<trkpt lat="49.51609038747847" lon="9.29342357441783">
<ele>332.4</ele>
<time>2024-05-08T16:23:30Z</time>
</trkpt>
<trkpt lat="49.51609801501036" lon="9.293486522510648">
<ele>332.6</ele>
<time>2024-05-08T16:23:31Z</time>
</trkpt>
<trkpt lat="49.51610564254224" lon="9.293539999052882">
<ele>332.8</ele>
<time>2024-05-08T16:23:32Z</time>
</trkpt>
<trkpt lat="49.51611327007413" lon="9.29358190856874">
<ele>333.2</ele>
<time>2024-05-08T16:23:33Z</time>
</trkpt>
<trkpt lat="49.516120897606015" lon="9.293626751750708">
<ele>333.4</ele>
<time>2024-05-08T16:23:34Z</time>
</trkpt>
<trkpt lat="49.51612466946244" lon="9.293675366789104">
<ele>333.6</ele>
<time>2024-05-08T16:23:35Z</time>
</trkpt>
<trkpt lat="49.51612466946244" lon="9.293727837502956">
<ele>333.8</ele>
<time>2024-05-08T16:23:36Z</time>
</trkpt>
<trkpt lat="49.516120897606015" lon="9.293785085901618">
<ele>334</ele>
<time>2024-05-08T16:23:37Z</time>
</trkpt>
<trkpt lat="49.516120897606015" lon="9.2938413284719">
<ele>334.2</ele>
<time>2024-05-08T16:23:38Z</time>
</trkpt>
<trkpt lat="49.51611704193056" lon="9.293893799185753">
<ele>334.4</ele>
<time>2024-05-08T16:23:39Z</time>
</trkpt>
<trkpt lat="49.51611327007413" lon="9.293948113918304">
<ele>334.6</ele>
<time>2024-05-08T16:23:40Z</time>
</trkpt>
<trkpt lat="49.51610564254224" lon="9.293994884938002">
<ele>334.8</ele>
<time>2024-05-08T16:23:41Z</time>
</trkpt>
<trkpt lat="49.5160941593349" lon="9.294038722291589">
<ele>335</ele>
<time>2024-05-08T16:23:42Z</time>
</trkpt>
<trkpt lat="49.5160941593349" lon="9.294081637635829">
<ele>335</ele>
<time>2024-05-08T16:23:43Z</time>
</trkpt>
<trkpt lat="49.516078904271126" lon="9.294124552980064">
<ele>335.2</ele>
<time>2024-05-08T16:23:44Z</time>
</trkpt>
<trkpt lat="49.51607127673924" lon="9.29417702369392">
<ele>335.4</ele>
<time>2024-05-08T16:23:45Z</time>
</trkpt>
<trkpt lat="49.516059793531895" lon="9.29423712193966">
<ele>335.6</ele>
<time>2024-05-08T16:23:46Z</time>
</trkpt>
<trkpt lat="49.51605216600001" lon="9.294304847717283">
<ele>335.6</ele>
<time>2024-05-08T16:23:47Z</time>
</trkpt>
<trkpt lat="49.51604453846812" lon="9.29437349550426">
<ele>335.6</ele>
<time>2024-05-08T16:23:48Z</time>
</trkpt>
<trkpt lat="49.51603313907981" lon="9.294438287615776">
<ele>335.8</ele>
<time>2024-05-08T16:23:49Z</time>
</trkpt>
<trkpt lat="49.516021655872464" lon="9.294501235708594">
<ele>335.8</ele>
<time>2024-05-08T16:23:50Z</time>
</trkpt>
<trkpt lat="49.51601025648415" lon="9.294547000899913">
<ele>335.8</ele>
<time>2024-05-08T16:23:51Z</time>
</trkpt>
<trkpt lat="49.516002628952265" lon="9.294601399451494">
<ele>336</ele>
<time>2024-05-08T16:23:52Z</time>
</trkpt>
<trkpt lat="49.51599114574492" lon="9.294659569859505">
<ele>336</ele>
<time>2024-05-08T16:23:53Z</time>
</trkpt>
<trkpt lat="49.51597589068115" lon="9.294703407213092">
<ele>336.2</ele>
<time>2024-05-08T16:23:54Z</time>
</trkpt>
<trkpt lat="49.51596826314926" lon="9.29474540054798">
<ele>336.4</ele>
<time>2024-05-08T16:23:55Z</time>
</trkpt>
<trkpt lat="49.51595300808549" lon="9.294791165739298">
<ele>336.6</ele>
<time>2024-05-08T16:23:56Z</time>
</trkpt>
<trkpt lat="49.515941608697176" lon="9.294843636453152">
<ele>336.8</ele>
<time>2024-05-08T16:23:57Z</time>
</trkpt>
<trkpt lat="49.51593012548983" lon="9.294895101338623">
<ele>337</ele>
<time>2024-05-08T16:23:58Z</time>
</trkpt>
<trkpt lat="49.515922497957945" lon="9.294950421899555">
<ele>337.4</ele>
<time>2024-05-08T16:23:59Z</time>
</trkpt>
<trkpt lat="49.51590724289417" lon="9.295000042766333">
<ele>337.6</ele>
<time>2024-05-08T16:24:00Z</time>
</trkpt>
<trkpt lat="49.5158919878304" lon="9.295048657804728">
<ele>337.8</ele>
<time>2024-05-08T16:24:01Z</time>
</trkpt>
<trkpt lat="49.51587673276663" lon="9.295096350833774">
<ele>338</ele>
<time>2024-05-08T16:24:02Z</time>
</trkpt>
<trkpt lat="49.51586524955928" lon="9.29514018818736">
<ele>338.2</ele>
<time>2024-05-08T16:24:03Z</time>
</trkpt>
<trkpt lat="49.51584999449551" lon="9.295185031369328">
<ele>338.2</ele>
<time>2024-05-08T16:24:04Z</time>
</trkpt>
<trkpt lat="49.51583473943174" lon="9.295233646407723">
<ele>338.4</ele>
<time>2024-05-08T16:24:05Z</time>
</trkpt>
<trkpt lat="49.51581571251154" lon="9.295276561751962">
<ele>338.6</ele>
<time>2024-05-08T16:24:06Z</time>
</trkpt>
<trkpt lat="49.51580045744777" lon="9.295318555086851">
<ele>338.8</ele>
<time>2024-05-08T16:24:07Z</time>
</trkpt>
<trkpt lat="49.515785202383995" lon="9.29535954259336">
<ele>339</ele>
<time>2024-05-08T16:24:08Z</time>
</trkpt>
<trkpt lat="49.51576994732022" lon="9.29540346376598">
<ele>339.4</ele>
<time>2024-05-08T16:24:09Z</time>
</trkpt>
<trkpt lat="49.515747064724565" lon="9.295448223128917">
<ele>339.6</ele>
<time>2024-05-08T16:24:10Z</time>
</trkpt>
<trkpt lat="49.51573558151722" lon="9.295490216463804">
<ele>340</ele>
<time>2024-05-08T16:24:11Z</time>
</trkpt>
<trkpt lat="49.51572032645345" lon="9.295531203970311">
<ele>340.4</ele>
<time>2024-05-08T16:24:12Z</time>
</trkpt>
<trkpt lat="49.515701215714216" lon="9.295571269467471">
<ele>340.6</ele>
<time>2024-05-08T16:24:13Z</time>
</trkpt>
<trkpt lat="49.51568596065045" lon="9.295615190640092">
<ele>340.8</ele>
<time>2024-05-08T16:24:14Z</time>
</trkpt>
<trkpt lat="49.51567833311856" lon="9.29565517231822">
<ele>341</ele>
<time>2024-05-08T16:24:15Z</time>
</trkpt>
<trkpt lat="49.515663078054786" lon="9.295702865347266">
<ele>341.2</ele>
<time>2024-05-08T16:24:16Z</time>
</trkpt>
<trkpt lat="49.515663078054786" lon="9.29575340822339">
<ele>341.4</ele>
<time>2024-05-08T16:24:17Z</time>
</trkpt>
<trkpt lat="49.51565167866647" lon="9.295800179243088">
<ele>341.4</ele>
<time>2024-05-08T16:24:18Z</time>
</trkpt>
<trkpt lat="49.51564019545913" lon="9.295841166749597">
<ele>341.6</ele>
<time>2024-05-08T16:24:19Z</time>
</trkpt>
<trkpt lat="49.51563256792724" lon="9.295883160084486">
<ele>341.8</ele>
<time>2024-05-08T16:24:20Z</time>
</trkpt>
<trkpt lat="49.515624940395355" lon="9.295925069600344">
<ele>342.2</ele>
<time>2024-05-08T16:24:21Z</time>
</trkpt>
<trkpt lat="49.51562116853893" lon="9.295967984944582">
<ele>342.4</ele>
<time>2024-05-08T16:24:22Z</time>
</trkpt>
<trkpt lat="49.51561354100704" lon="9.296001428738236">
<ele>342.6</ele>
<time>2024-05-08T16:24:23Z</time>
</trkpt>
<trkpt lat="49.51560968533158" lon="9.296038560569286">
<ele>342.8</ele>
<time>2024-05-08T16:24:24Z</time>
</trkpt>
<trkpt lat="49.51560968533158" lon="9.296078626066446">
<ele>343</ele>
<time>2024-05-08T16:24:25Z</time>
</trkpt>
<trkpt lat="49.51560968533158" lon="9.296119613572955">
<ele>343.2</ele>
<time>2024-05-08T16:24:26Z</time>
</trkpt>
<trkpt lat="49.51560968533158" lon="9.296166384592652">
<ele>343.4</ele>
<time>2024-05-08T16:24:27Z</time>
</trkpt>
<trkpt lat="49.5156020577997" lon="9.296216927468777">
<ele>343.6</ele>
<time>2024-05-08T16:24:28Z</time>
</trkpt>
<trkpt lat="49.515590658411384" lon="9.296261770650744">
<ele>343.8</ele>
<time>2024-05-08T16:24:29Z</time>
</trkpt>
<trkpt lat="49.5155830308795" lon="9.296301836147904">
<ele>344</ele>
<time>2024-05-08T16:24:30Z</time>
</trkpt>
<trkpt lat="49.51557917520404" lon="9.296339973807337">
<ele>344.2</ele>
<time>2024-05-08T16:24:31Z</time>
</trkpt>
<trkpt lat="49.5155830308795" lon="9.296371405944228">
<ele>344.4</ele>
<time>2024-05-08T16:24:32Z</time>
</trkpt>
<trkpt lat="49.515590658411384" lon="9.296401916071773">
<ele>344.6</ele>
<time>2024-05-08T16:24:33Z</time>
</trkpt>
<trkpt lat="49.51559828594327" lon="9.296451536938548">
<ele>344.8</ele>
<time>2024-05-08T16:24:34Z</time>
</trkpt>
<trkpt lat="49.51560968533158" lon="9.296500151976945">
<ele>344.8</ele>
<time>2024-05-08T16:24:35Z</time>
</trkpt>
<trkpt lat="49.515624940395355" lon="9.296533511951566">
<ele>345</ele>
<time>2024-05-08T16:24:36Z</time>
</trkpt>
<trkpt lat="49.51564782299101" lon="9.2965698055923">
<ele>345</ele>
<time>2024-05-08T16:24:37Z</time>
</trkpt>
<trkpt lat="49.515666933730245" lon="9.296613642945886">
<ele>345</ele>
<time>2024-05-08T16:24:38Z</time>
</trkpt>
<trkpt lat="49.5156898163259" lon="9.296656558290124">
<ele>345.2</ele>
<time>2024-05-08T16:24:39Z</time>
</trkpt>
<trkpt lat="49.515705071389675" lon="9.296694695949554">
<ele>345.2</ele>
<time>2024-05-08T16:24:40Z</time>
</trkpt>
<trkpt lat="49.515724182128906" lon="9.296738617122172">
<ele>345.4</ele>
<time>2024-05-08T16:24:41Z</time>
</trkpt>
<trkpt lat="49.51573943719268" lon="9.29678337648511">
<ele>345.6</ele>
<time>2024-05-08T16:24:42Z</time>
</trkpt>
<trkpt lat="49.515743209049106" lon="9.296828219667075">
<ele>345.6</ele>
<time>2024-05-08T16:24:43Z</time>
</trkpt>
<trkpt lat="49.51575083658099" lon="9.296868285164235">
<ele>345.8</ele>
<time>2024-05-08T16:24:44Z</time>
</trkpt>
<trkpt lat="49.51575083658099" lon="9.296904494985938">
<ele>345.8</ele>
<time>2024-05-08T16:24:45Z</time>
</trkpt>
<trkpt lat="49.51575469225645" lon="9.29694363847375">
<ele>346</ele>
<time>2024-05-08T16:24:46Z</time>
</trkpt>
<trkpt lat="49.51575469225645" lon="9.29698177613318">
<ele>346</ele>
<time>2024-05-08T16:24:47Z</time>
</trkpt>
<trkpt lat="49.51575469225645" lon="9.29701798595488">
<ele>346</ele>
<time>2024-05-08T16:24:48Z</time>
</trkpt>
<trkpt lat="49.51575469225645" lon="9.29705805145204">
<ele>346</ele>
<time>2024-05-08T16:24:49Z</time>
</trkpt>
<trkpt lat="49.51575469225645" lon="9.297106666490436">
<ele>346</ele>
<time>2024-05-08T16:24:50Z</time>
</trkpt>
<trkpt lat="49.51575469225645" lon="9.297156287357211">
<ele>346</ele>
<time>2024-05-08T16:24:51Z</time>
</trkpt>
<trkpt lat="49.51575846411288" lon="9.297196352854373">
<ele>346.2</ele>
<time>2024-05-08T16:24:52Z</time>
</trkpt>
<trkpt lat="49.51575846411288" lon="9.297231640666723">
<ele>346.2</ele>
<time>2024-05-08T16:24:53Z</time>
</trkpt>
<trkpt lat="49.51575469225645" lon="9.297263072803617">
<ele>346.4</ele>
<time>2024-05-08T16:24:54Z</time>
</trkpt>
<trkpt lat="49.51575469225645" lon="9.297289811074734">
<ele>346.6</ele>
<time>2024-05-08T16:24:55Z</time>
</trkpt>
<trkpt lat="49.51575469225645" lon="9.297338426113129">
<ele>346.8</ele>
<time>2024-05-08T16:24:56Z</time>
</trkpt>
<trkpt lat="49.51575469225645" lon="9.297388046979904">
<ele>346.8</ele>
<time>2024-05-08T16:24:57Z</time>
</trkpt>
<trkpt lat="49.515747064724565" lon="9.297446217387916">
<ele>347</ele>
<time>2024-05-08T16:24:58Z</time>
</trkpt>
<trkpt lat="49.515743209049106" lon="9.297501537948849">
<ele>347</ele>
<time>2024-05-08T16:24:59Z</time>
</trkpt>
<trkpt lat="49.515743209049106" lon="9.297552080824971">
<ele>347.2</ele>
<time>2024-05-08T16:25:00Z</time>
</trkpt>
<trkpt lat="49.51573558151722" lon="9.29759499616921">
<ele>347.2</ele>
<time>2024-05-08T16:25:01Z</time>
</trkpt>
<trkpt lat="49.515724182128906" lon="9.29763120599091">
<ele>347.4</ele>
<time>2024-05-08T16:25:02Z</time>
</trkpt>
<trkpt lat="49.51571647077799" lon="9.297659872099755">
<ele>347.4</ele>
<time>2024-05-08T16:25:03Z</time>
</trkpt>
<trkpt lat="49.51572032645345" lon="9.297679821029304">
<ele>347.6</ele>
<time>2024-05-08T16:25:04Z</time>
</trkpt>
<trkpt lat="49.51572032645345" lon="9.297683676704764">
<ele>347.8</ele>
<time>2024-05-08T16:25:05Z</time>
</trkpt>
<trkpt lat="49.51572032645345" lon="9.297684598714111">
<ele>348</ele>
<time>2024-05-08T16:25:06Z</time>
</trkpt>
<trkpt lat="49.51572032645345" lon="9.297686526551844">
<ele>348</ele>
<time>2024-05-08T16:25:07Z</time>
</trkpt>
<trkpt lat="49.51572032645345" lon="9.297688454389572">
<ele>348</ele>
<time>2024-05-08T16:25:08Z</time>
</trkpt>
<trkpt lat="49.515724182128906" lon="9.297690382227302">
<ele>348.2</ele>
<time>2024-05-08T16:25:09Z</time>
</trkpt>
<trkpt lat="49.515724182128906" lon="9.29769323207438">
<ele>348.2</ele>
<time>2024-05-08T16:25:10Z</time>
</trkpt>
<trkpt lat="49.515724182128906" lon="9.29769515991211">
<ele>348.2</ele>
<time>2024-05-08T16:25:11Z</time>
</trkpt>
<trkpt lat="49.515724182128906" lon="9.297697003930807">
<ele>348.2</ele>
<time>2024-05-08T16:25:12Z</time>
</trkpt>
<trkpt lat="49.51572795398533" lon="9.297697003930807">
<ele>348.2</ele>
<time>2024-05-08T16:25:13Z</time>
</trkpt>
<trkpt lat="49.51572795398533" lon="9.297698009759188">
<ele>348.2</ele>
<time>2024-05-08T16:25:14Z</time>
</trkpt>
<trkpt lat="49.51572795398533" lon="9.297699853777884">
<ele>348.2</ele>
<time>2024-05-08T16:25:16Z</time>
</trkpt>
<trkpt lat="49.51572795398533" lon="9.297701781615617">
<ele>348.2</ele>
<time>2024-05-08T16:25:19Z</time>
</trkpt>
<trkpt lat="49.51572795398533" lon="9.297703709453344">
<ele>348.2</ele>
<time>2024-05-08T16:25:21Z</time>
</trkpt>
<trkpt lat="49.51573180966079" lon="9.297704631462691">
<ele>348.2</ele>
<time>2024-05-08T16:25:23Z</time>
</trkpt>
<trkpt lat="49.51573180966079" lon="9.297706559300424">
<ele>348.2</ele>
<time>2024-05-08T16:25:24Z</time>
</trkpt>
<trkpt lat="49.51573180966079" lon="9.297708487138152">
<ele>348.2</ele>
<time>2024-05-08T16:25:25Z</time>
</trkpt>
<trkpt lat="49.51573180966079" lon="9.297710414975882">
<ele>348.2</ele>
<time>2024-05-08T16:25:26Z</time>
</trkpt>
<trkpt lat="49.51573180966079" lon="9.29771133698523">
<ele>348.2</ele>
<time>2024-05-08T16:25:27Z</time>
</trkpt>
<trkpt lat="49.51573558151722" lon="9.29771326482296">
<ele>348</ele>
<time>2024-05-08T16:25:29Z</time>
</trkpt>
<trkpt lat="49.51573558151722" lon="9.297715108841658">
<ele>348</ele>
<time>2024-05-08T16:25:30Z</time>
</trkpt>
<trkpt lat="49.51573558151722" lon="9.297717036679389">
<ele>348</ele>
<time>2024-05-08T16:25:32Z</time>
</trkpt>
<trkpt lat="49.51573558151722" lon="9.297718042507768">
<ele>348</ele>
<time>2024-05-08T16:25:33Z</time>
</trkpt>
<trkpt lat="49.51573558151722" lon="9.297719886526464">
<ele>347.8</ele>
<time>2024-05-08T16:25:34Z</time>
</trkpt>
<trkpt lat="49.51573558151722" lon="9.297721814364197">
<ele>347.8</ele>
<time>2024-05-08T16:25:35Z</time>
</trkpt>
<trkpt lat="49.51573558151722" lon="9.297723742201924">
<ele>347.8</ele>
<time>2024-05-08T16:25:37Z</time>
</trkpt>
<trkpt lat="49.51573558151722" lon="9.297724664211271">
<ele>347.8</ele>
<time>2024-05-08T16:25:40Z</time>
</trkpt>
<trkpt lat="49.51573558151722" lon="9.297726592049004">
<ele>347.8</ele>
<time>2024-05-08T16:25:42Z</time>
</trkpt>
<trkpt lat="49.51573558151722" lon="9.297728519886732">
<ele>347.8</ele>
<time>2024-05-08T16:25:46Z</time>
</trkpt>
<trkpt lat="49.51573558151722" lon="9.297726592049004">
<ele>347.8</ele>
<time>2024-05-08T16:25:48Z</time>
</trkpt>
<trkpt lat="49.51573558151722" lon="9.297728519886732">
<ele>347.6</ele>
<time>2024-05-08T16:25:51Z</time>
</trkpt>
<trkpt lat="49.51573943719268" lon="9.297728519886732">
<ele>347.6</ele>
<time>2024-05-08T16:25:52Z</time>
</trkpt>
<trkpt lat="49.51573943719268" lon="9.29773036390543">
<ele>347.6</ele>
<time>2024-05-08T16:25:53Z</time>
</trkpt>
<trkpt lat="49.51573558151722" lon="9.29773036390543">
<ele>347.6</ele>
<time>2024-05-08T16:25:57Z</time>
</trkpt>
<trkpt lat="49.51573943719268" lon="9.29773036390543">
<ele>347.6</ele>
<time>2024-05-08T16:26:00Z</time>
</trkpt>
<trkpt lat="49.51573558151722" lon="9.29773036390543">
<ele>347.6</ele>
<time>2024-05-08T16:26:01Z</time>
</trkpt>
<trkpt lat="49.51573558151722" lon="9.297726592049004">
<ele>347.6</ele>
<time>2024-05-08T16:26:02Z</time>
</trkpt>
<trkpt lat="49.51573558151722" lon="9.297724664211271">
<ele>347.6</ele>
<time>2024-05-08T16:26:03Z</time>
</trkpt>
<trkpt lat="49.51573558151722" lon="9.297726592049004">
<ele>347.6</ele>
<time>2024-05-08T16:26:04Z</time>
</trkpt>
<trkpt lat="49.51573558151722" lon="9.297728519886732">
<ele>347.6</ele>
<time>2024-05-08T16:26:06Z</time>
</trkpt>
<trkpt lat="49.51573558151722" lon="9.297726592049004">
<ele>347.6</ele>
<time>2024-05-08T16:26:07Z</time>
</trkpt>
<trkpt lat="49.51573558151722" lon="9.297724664211271">
<ele>347.6</ele>
<time>2024-05-08T16:26:08Z</time>
</trkpt>
<trkpt lat="49.51573558151722" lon="9.297723742201924">
<ele>347.6</ele>
<time>2024-05-08T16:26:11Z</time>
</trkpt>
<trkpt lat="49.51573180966079" lon="9.297719886526464">
<ele>347.6</ele>
<time>2024-05-08T16:26:12Z</time>
</trkpt>
<trkpt lat="49.51573180966079" lon="9.297721814364197">
<ele>347.6</ele>
<time>2024-05-08T16:26:14Z</time>
</trkpt>
<trkpt lat="49.51573558151722" lon="9.297723742201924">
<ele>347.6</ele>
<time>2024-05-08T16:26:15Z</time>
</trkpt>
<trkpt lat="49.51573180966079" lon="9.297723742201924">
<ele>347.6</ele>
<time>2024-05-08T16:26:20Z</time>
</trkpt>
<trkpt lat="49.51573180966079" lon="9.297724664211271">
<ele>347.6</ele>
<time>2024-05-08T16:26:21Z</time>
</trkpt>
<trkpt lat="49.51573558151722" lon="9.297726592049004">
<ele>347.6</ele>
<time>2024-05-08T16:26:22Z</time>
</trkpt>
<trkpt lat="49.51573943719268" lon="9.297726592049004">
<ele>347.6</ele>
<time>2024-05-08T16:26:23Z</time>
</trkpt>
<trkpt lat="49.51573943719268" lon="9.29773036390543">
<ele>347.6</ele>
<time>2024-05-08T16:26:24Z</time>
</trkpt>
<trkpt lat="49.51573943719268" lon="9.29773136973381">
<ele>347.6</ele>
<time>2024-05-08T16:26:25Z</time>
</trkpt>
<trkpt lat="49.515747064724565" lon="9.297735141590238">
<ele>347.6</ele>
<time>2024-05-08T16:26:26Z</time>
</trkpt>
<trkpt lat="49.51575083658099" lon="9.297737069427969">
<ele>347.6</ele>
<time>2024-05-08T16:26:27Z</time>
</trkpt>
<trkpt lat="49.51575469225645" lon="9.297738075256348">
<ele>347.6</ele>
<time>2024-05-08T16:26:28Z</time>
</trkpt>
<trkpt lat="49.51575846411288" lon="9.297738075256348">
<ele>347.6</ele>
<time>2024-05-08T16:26:29Z</time>
</trkpt>
<trkpt lat="49.51575469225645" lon="9.297737069427969">
<ele>347.6</ele>
<time>2024-05-08T16:26:30Z</time>
</trkpt>
<trkpt lat="49.51575846411288" lon="9.297739919275044">
<ele>347.6</ele>
<time>2024-05-08T16:26:31Z</time>
</trkpt>
<trkpt lat="49.51576231978834" lon="9.29775333032012">
<ele>347.6</ele>
<time>2024-05-08T16:26:32Z</time>
</trkpt>
<trkpt lat="49.51576994732022" lon="9.297778056934476">
<ele>347.6</ele>
<time>2024-05-08T16:26:33Z</time>
</trkpt>
<trkpt lat="49.515781346708536" lon="9.29781150072813">
<ele>347.6</ele>
<time>2024-05-08T16:26:34Z</time>
</trkpt>
<trkpt lat="49.51579282991588" lon="9.297833377495408">
<ele>347.6</ele>
<time>2024-05-08T16:26:35Z</time>
</trkpt>
<trkpt lat="49.51580045744777" lon="9.29786967113614">
<ele>347.6</ele>
<time>2024-05-08T16:26:36Z</time>
</trkpt>
<trkpt lat="49.51581185683608" lon="9.2979097366333">
<ele>347.6</ele>
<time>2024-05-08T16:26:37Z</time>
</trkpt>
<trkpt lat="49.515823340043426" lon="9.297949718311427">
<ele>347.6</ele>
<time>2024-05-08T16:26:38Z</time>
</trkpt>
<trkpt lat="49.5158385951072" lon="9.297991711646318">
<ele>347.6</ele>
<time>2024-05-08T16:26:39Z</time>
</trkpt>
<trkpt lat="49.51585385017097" lon="9.298036554828286">
<ele>347.6</ele>
<time>2024-05-08T16:26:40Z</time>
</trkpt>
<trkpt lat="49.51587287709117" lon="9.298081398010254">
<ele>347.6</ele>
<time>2024-05-08T16:26:41Z</time>
</trkpt>
<trkpt lat="49.51588813215494" lon="9.29812523536384">
<ele>347.6</ele>
<time>2024-05-08T16:26:42Z</time>
</trkpt>
<trkpt lat="49.515903471037745" lon="9.298171922564508">
<ele>347.6</ele>
<time>2024-05-08T16:26:43Z</time>
</trkpt>
<trkpt lat="49.51591872610152" lon="9.298218693584204">
<ele>347.6</ele>
<time>2024-05-08T16:26:44Z</time>
</trkpt>
<trkpt lat="49.515941608697176" lon="9.298258759081364">
<ele>347.8</ele>
<time>2024-05-08T16:26:45Z</time>
</trkpt>
<trkpt lat="49.515964491292834" lon="9.29830452427268">
<ele>347.8</ele>
<time>2024-05-08T16:26:46Z</time>
</trkpt>
<trkpt lat="49.515983518213034" lon="9.298348361626267">
<ele>347.8</ele>
<time>2024-05-08T16:26:47Z</time>
</trkpt>
<trkpt lat="49.51600640080869" lon="9.298386499285698">
<ele>348</ele>
<time>2024-05-08T16:26:48Z</time>
</trkpt>
<trkpt lat="49.51602928340435" lon="9.298428492620587">
<ele>348</ele>
<time>2024-05-08T16:26:49Z</time>
</trkpt>
<trkpt lat="49.51604839414358" lon="9.298471407964826">
<ele>348.2</ele>
<time>2024-05-08T16:26:50Z</time>
</trkpt>
<trkpt lat="49.51607127673924" lon="9.298518178984525">
<ele>348.2</ele>
<time>2024-05-08T16:26:51Z</time>
</trkpt>
<trkpt lat="49.51609038747847" lon="9.298564866185188">
<ele>348.2</ele>
<time>2024-05-08T16:26:52Z</time>
</trkpt>
<trkpt lat="49.51611327007413" lon="9.298609709367156">
<ele>348.4</ele>
<time>2024-05-08T16:26:53Z</time>
</trkpt>
<trkpt lat="49.51613229699433" lon="9.298656396567822">
<ele>348.4</ele>
<time>2024-05-08T16:26:54Z</time>
</trkpt>
<trkpt lat="49.51615140773356" lon="9.298698389902713">
<ele>348.6</ele>
<time>2024-05-08T16:26:55Z</time>
</trkpt>
<trkpt lat="49.516178062185645" lon="9.2987403832376">
<ele>348.8</ele>
<time>2024-05-08T16:26:56Z</time>
</trkpt>
<trkpt lat="49.5162009447813" lon="9.298785142600536">
<ele>348.8</ele>
<time>2024-05-08T16:26:57Z</time>
</trkpt>
<trkpt lat="49.51622382737696" lon="9.298832835629582">
<ele>349</ele>
<time>2024-05-08T16:26:58Z</time>
</trkpt>
<trkpt lat="49.51624679379165" lon="9.298886228352783">
<ele>349.2</ele>
<time>2024-05-08T16:26:59Z</time>
</trkpt>
<trkpt lat="49.516262048855424" lon="9.29893970489502">
<ele>349.2</ele>
<time>2024-05-08T16:27:00Z</time>
</trkpt>
<trkpt lat="49.51627344824374" lon="9.29899494163692">
<ele>349.4</ele>
<time>2024-05-08T16:27:01Z</time>
</trkpt>
<trkpt lat="49.51628493145108" lon="9.299051268026233">
<ele>349.6</ele>
<time>2024-05-08T16:27:02Z</time>
</trkpt>
<trkpt lat="49.516296330839396" lon="9.299111366271973">
<ele>349.6</ele>
<time>2024-05-08T16:27:03Z</time>
</trkpt>
<trkpt lat="49.51630781404674" lon="9.299169536679983">
<ele>349.6</ele>
<time>2024-05-08T16:27:04Z</time>
</trkpt>
<trkpt lat="49.51632306911051" lon="9.299229551106691">
<ele>349.8</ele>
<time>2024-05-08T16:27:05Z</time>
</trkpt>
<trkpt lat="49.516338324174285" lon="9.299289649352431">
<ele>350</ele>
<time>2024-05-08T16:27:06Z</time>
</trkpt>
<trkpt lat="49.51635357923806" lon="9.299344969913363">
<ele>350</ele>
<time>2024-05-08T16:27:07Z</time>
</trkpt>
<trkpt lat="49.51637260615826" lon="9.299400290474296">
<ele>350</ele>
<time>2024-05-08T16:27:08Z</time>
</trkpt>
<trkpt lat="49.51639171689749" lon="9.299453683197498">
<ele>350</ele>
<time>2024-05-08T16:27:09Z</time>
</trkpt>
<trkpt lat="49.51641082763672" lon="9.299508081749082">
<ele>350.2</ele>
<time>2024-05-08T16:27:10Z</time>
</trkpt>
<trkpt lat="49.51642985455692" lon="9.299559546634557">
<ele>350.4</ele>
<time>2024-05-08T16:27:11Z</time>
</trkpt>
<trkpt lat="49.516452737152576" lon="9.299614867195489">
<ele>350.6</ele>
<time>2024-05-08T16:27:12Z</time>
</trkpt>
<trkpt lat="49.51647184789181" lon="9.29967018775642">
<ele>350.6</ele>
<time>2024-05-08T16:27:13Z</time>
</trkpt>
<trkpt lat="49.51648710295558" lon="9.299723580479622">
<ele>350.8</ele>
<time>2024-05-08T16:27:14Z</time>
</trkpt>
<trkpt lat="49.51650612987578" lon="9.299777979031203">
<ele>350.8</ele>
<time>2024-05-08T16:27:15Z</time>
</trkpt>
<trkpt lat="49.51652524061501" lon="9.299831371754408">
<ele>351</ele>
<time>2024-05-08T16:27:16Z</time>
</trkpt>
<trkpt lat="49.51654426753521" lon="9.29988669231534">
<ele>351</ele>
<time>2024-05-08T16:27:17Z</time>
</trkpt>
<trkpt lat="49.51656337827444" lon="9.299942012876272">
<ele>351.2</ele>
<time>2024-05-08T16:27:18Z</time>
</trkpt>
<trkpt lat="49.51657863333821" lon="9.299996327608824">
<ele>351.2</ele>
<time>2024-05-08T16:27:19Z</time>
</trkpt>
<trkpt lat="49.51659774407744" lon="9.300051648169756">
<ele>351.4</ele>
<time>2024-05-08T16:27:20Z</time>
</trkpt>
<trkpt lat="49.51661677099764" lon="9.30010504089296">
<ele>351.6</ele>
<time>2024-05-08T16:27:21Z</time>
</trkpt>
<trkpt lat="49.516635881736875" lon="9.30016128346324">
<ele>351.6</ele>
<time>2024-05-08T16:27:22Z</time>
</trkpt>
<trkpt lat="49.51665876433253" lon="9.3002185318619">
<ele>351.8</ele>
<time>2024-05-08T16:27:23Z</time>
</trkpt>
<trkpt lat="49.51668164692819" lon="9.300276702269912">
<ele>351.8</ele>
<time>2024-05-08T16:27:24Z</time>
</trkpt>
<trkpt lat="49.51670067384839" lon="9.300332022830844">
<ele>352</ele>
<time>2024-05-08T16:27:25Z</time>
</trkpt>
<trkpt lat="49.51671978458762" lon="9.300388265401123">
<ele>352.2</ele>
<time>2024-05-08T16:27:26Z</time>
</trkpt>
<trkpt lat="49.516735039651394" lon="9.300443585962055">
<ele>352.2</ele>
<time>2024-05-08T16:27:27Z</time>
</trkpt>
<trkpt lat="49.516754150390625" lon="9.300495134666562">
<ele>352.4</ele>
<time>2024-05-08T16:27:28Z</time>
</trkpt>
<trkpt lat="49.516773177310824" lon="9.300548527389765">
<ele>352.6</ele>
<time>2024-05-08T16:27:29Z</time>
</trkpt>
<trkpt lat="49.5167884323746" lon="9.300601920112967">
<ele>352.6</ele>
<time>2024-05-08T16:27:30Z</time>
</trkpt>
<trkpt lat="49.51680754311383" lon="9.300660090520978">
<ele>352.8</ele>
<time>2024-05-08T16:27:31Z</time>
</trkpt>
<trkpt lat="49.51682657003403" lon="9.30071348324418">
<ele>352.8</ele>
<time>2024-05-08T16:27:32Z</time>
</trkpt>
<trkpt lat="49.5168418250978" lon="9.300767881795764">
<ele>353</ele>
<time>2024-05-08T16:27:33Z</time>
</trkpt>
<trkpt lat="49.51686093583703" lon="9.300820268690586">
<ele>353.2</ele>
<time>2024-05-08T16:27:34Z</time>
</trkpt>
<trkpt lat="49.51687996275723" lon="9.30087374523282">
<ele>353.2</ele>
<time>2024-05-08T16:27:35Z</time>
</trkpt>
<trkpt lat="49.51689907349646" lon="9.300925210118294">
<ele>353.4</ele>
<time>2024-05-08T16:27:36Z</time>
</trkpt>
<trkpt lat="49.51691432856023" lon="9.30097483098507">
<ele>353.6</ele>
<time>2024-05-08T16:27:37Z</time>
</trkpt>
<trkpt lat="49.516929583624005" lon="9.301016740500929">
<ele>353.6</ele>
<time>2024-05-08T16:27:38Z</time>
</trkpt>
<trkpt lat="49.51694483868778" lon="9.301063511520624">
<ele>353.8</ele>
<time>2024-05-08T16:27:39Z</time>
</trkpt>
<trkpt lat="49.51696394942701" lon="9.30111019872129">
<ele>354</ele>
<time>2024-05-08T16:27:40Z</time>
</trkpt>
<trkpt lat="49.51698297634721" lon="9.301161747425796">
<ele>354.2</ele>
<time>2024-05-08T16:27:41Z</time>
</trkpt>
<trkpt lat="49.51699823141098" lon="9.301217067986729">
<ele>354.4</ele>
<time>2024-05-08T16:27:42Z</time>
</trkpt>
<trkpt lat="49.51702111400664" lon="9.301271382719278">
<ele>354.4</ele>
<time>2024-05-08T16:27:43Z</time>
</trkpt>
<trkpt lat="49.51703636907041" lon="9.30132477544248">
<ele>354.6</ele>
<time>2024-05-08T16:27:44Z</time>
</trkpt>
<trkpt lat="49.51705925166607" lon="9.301380096003411">
<ele>354.8</ele>
<time>2024-05-08T16:27:45Z</time>
</trkpt>
<trkpt lat="49.5170783624053" lon="9.301431644707918">
<ele>354.8</ele>
<time>2024-05-08T16:27:46Z</time>
</trkpt>
<trkpt lat="49.51709361746907" lon="9.301481181755662">
<ele>355</ele>
<time>2024-05-08T16:27:47Z</time>
</trkpt>
<trkpt lat="49.51711650006473" lon="9.30152795277536">
<ele>355</ele>
<time>2024-05-08T16:27:48Z</time>
</trkpt>
<trkpt lat="49.5171317551285" lon="9.301580423489211">
<ele>355</ele>
<time>2024-05-08T16:27:49Z</time>
</trkpt>
<trkpt lat="49.517150865867734" lon="9.301628032699227">
<ele>355.2</ele>
<time>2024-05-08T16:27:50Z</time>
</trkpt>
<trkpt lat="49.51716989278793" lon="9.301674803718925">
<ele>355.2</ele>
<time>2024-05-08T16:27:51Z</time>
</trkpt>
<trkpt lat="49.517185147851706" lon="9.301725346595047">
<ele>355.2</ele>
<time>2024-05-08T16:27:52Z</time>
</trkpt>
<trkpt lat="49.51720425859094" lon="9.301773039624097">
<ele>355.2</ele>
<time>2024-05-08T16:27:53Z</time>
</trkpt>
<trkpt lat="49.51721951365471" lon="9.301824504509568">
<ele>355.4</ele>
<time>2024-05-08T16:27:54Z</time>
</trkpt>
<trkpt lat="49.51723476871848" lon="9.301877897232773">
<ele>355.4</ele>
<time>2024-05-08T16:27:55Z</time>
</trkpt>
<trkpt lat="49.51725379563868" lon="9.301928440108895">
<ele>355.6</ele>
<time>2024-05-08T16:27:56Z</time>
</trkpt>
<trkpt lat="49.51727290637791" lon="9.301975211128592">
<ele>355.6</ele>
<time>2024-05-08T16:27:57Z</time>
</trkpt>
<trkpt lat="49.51728816144168" lon="9.302024831995368">
<ele>355.8</ele>
<time>2024-05-08T16:27:58Z</time>
</trkpt>
<trkpt lat="49.517307272180915" lon="9.30207629688084">
<ele>355.8</ele>
<time>2024-05-08T16:27:59Z</time>
</trkpt>
<trkpt lat="49.517326299101114" lon="9.302124911919236">
<ele>356</ele>
<time>2024-05-08T16:28:00Z</time>
</trkpt>
<trkpt lat="49.517345409840345" lon="9.302174532786012">
<ele>356</ele>
<time>2024-05-08T16:28:01Z</time>
</trkpt>
<trkpt lat="49.51736066490412" lon="9.3022183701396">
<ele>356</ele>
<time>2024-05-08T16:28:02Z</time>
</trkpt>
<trkpt lat="49.51737591996789" lon="9.302273690700533">
<ele>356.2</ele>
<time>2024-05-08T16:28:03Z</time>
</trkpt>
<trkpt lat="49.51739117503166" lon="9.302323311567308">
<ele>356.4</ele>
<time>2024-05-08T16:28:04Z</time>
</trkpt>
<trkpt lat="49.517406430095434" lon="9.3023719266057">
<ele>356.4</ele>
<time>2024-05-08T16:28:05Z</time>
</trkpt>
<trkpt lat="49.517421685159206" lon="9.302423475310206">
<ele>356.6</ele>
<time>2024-05-08T16:28:06Z</time>
</trkpt>
<trkpt lat="49.51744079589844" lon="9.30247686803341">
<ele>356.8</ele>
<time>2024-05-08T16:28:07Z</time>
</trkpt>
<trkpt lat="49.51745982281864" lon="9.302530260756612">
<ele>356.8</ele>
<time>2024-05-08T16:28:08Z</time>
</trkpt>
<trkpt lat="49.51747507788241" lon="9.302583653479816">
<ele>357</ele>
<time>2024-05-08T16:28:09Z</time>
</trkpt>
<trkpt lat="49.51749033294618" lon="9.302637046203015">
<ele>357</ele>
<time>2024-05-08T16:28:10Z</time>
</trkpt>
<trkpt lat="49.517501816153526" lon="9.302688594907522">
<ele>357.2</ele>
<time>2024-05-08T16:28:11Z</time>
</trkpt>
<trkpt lat="49.51751321554184" lon="9.302741987630723">
<ele>357.2</ele>
<time>2024-05-08T16:28:12Z</time>
</trkpt>
<trkpt lat="49.517524698749185" lon="9.302796302363276">
<ele>357.2</ele>
<time>2024-05-08T16:28:13Z</time>
</trkpt>
<trkpt lat="49.51753232628107" lon="9.302851622924209">
<ele>357.2</ele>
<time>2024-05-08T16:28:14Z</time>
</trkpt>
<trkpt lat="49.517543725669384" lon="9.302905015647411">
<ele>357</ele>
<time>2024-05-08T16:28:15Z</time>
</trkpt>
<trkpt lat="49.51755135320127" lon="9.302960336208344">
<ele>357.2</ele>
<time>2024-05-08T16:28:16Z</time>
</trkpt>
<trkpt lat="49.51755898073315" lon="9.303014734759929">
<ele>357.2</ele>
<time>2024-05-08T16:28:17Z</time>
</trkpt>
<trkpt lat="49.51756660826504" lon="9.303065277636051">
<ele>357.2</ele>
<time>2024-05-08T16:28:18Z</time>
</trkpt>
<trkpt lat="49.51757423579693" lon="9.303112970665095">
<ele>357.4</ele>
<time>2024-05-08T16:28:19Z</time>
</trkpt>
<trkpt lat="49.517581863328815" lon="9.303161585703492">
<ele>357.4</ele>
<time>2024-05-08T16:28:20Z</time>
</trkpt>
<trkpt lat="49.51758571900427" lon="9.303208272904158">
<ele>357.6</ele>
<time>2024-05-08T16:28:21Z</time>
</trkpt>
<trkpt lat="49.51759334653616" lon="9.303251188248396">
<ele>357.8</ele>
<time>2024-05-08T16:28:22Z</time>
</trkpt>
<trkpt lat="49.51759711839259" lon="9.30330173112452">
<ele>357.8</ele>
<time>2024-05-08T16:28:23Z</time>
</trkpt>
<trkpt lat="49.517600974068046" lon="9.303355207666756">
<ele>358</ele>
<time>2024-05-08T16:28:24Z</time>
</trkpt>
<trkpt lat="49.51760474592447" lon="9.303409522399306">
<ele>358</ele>
<time>2024-05-08T16:28:25Z</time>
</trkpt>
<trkpt lat="49.51760474592447" lon="9.303464842960238">
<ele>358</ele>
<time>2024-05-08T16:28:26Z</time>
</trkpt>
<trkpt lat="49.51760860159993" lon="9.303524941205978">
<ele>358</ele>
<time>2024-05-08T16:28:27Z</time>
</trkpt>
<trkpt lat="49.51761245727539" lon="9.303586883470416">
<ele>358</ele>
<time>2024-05-08T16:28:28Z</time>
</trkpt>
<trkpt lat="49.51761245727539" lon="9.303646981716156">
<ele>358</ele>
<time>2024-05-08T16:28:29Z</time>
</trkpt>
<trkpt lat="49.51761622913182" lon="9.303709929808974">
<ele>358</ele>
<time>2024-05-08T16:28:30Z</time>
</trkpt>
<trkpt lat="49.51761622913182" lon="9.303771955892444">
<ele>358.2</ele>
<time>2024-05-08T16:28:31Z</time>
</trkpt>
<trkpt lat="49.51762008480728" lon="9.303832054138184">
<ele>358.2</ele>
<time>2024-05-08T16:28:32Z</time>
</trkpt>
<trkpt lat="49.51762008480728" lon="9.303893074393272">
<ele>358.2</ele>
<time>2024-05-08T16:28:33Z</time>
</trkpt>
<trkpt lat="49.517623856663704" lon="9.303950238972902">
<ele>358.2</ele>
<time>2024-05-08T16:28:34Z</time>
</trkpt>
<trkpt lat="49.517623856663704" lon="9.304008409380913">
<ele>358.2</ele>
<time>2024-05-08T16:28:35Z</time>
</trkpt>
<trkpt lat="49.517623856663704" lon="9.304064735770226">
<ele>358.2</ele>
<time>2024-05-08T16:28:36Z</time>
</trkpt>
<trkpt lat="49.517623856663704" lon="9.304121900349855">
<ele>358</ele>
<time>2024-05-08T16:28:37Z</time>
</trkpt>
<trkpt lat="49.517623856663704" lon="9.30417344905436">
<ele>358</ele>
<time>2024-05-08T16:28:38Z</time>
</trkpt>
<trkpt lat="49.51762008480728" lon="9.30423161946237">
<ele>357.8</ele>
<time>2024-05-08T16:28:39Z</time>
</trkpt>
<trkpt lat="49.51762008480728" lon="9.30429171770811">
<ele>357.8</ele>
<time>2024-05-08T16:28:40Z</time>
</trkpt>
<trkpt lat="49.51761622913182" lon="9.304347038269045">
<ele>357.6</ele>
<time>2024-05-08T16:28:41Z</time>
</trkpt>
<trkpt lat="49.51761622913182" lon="9.304407052695751">
<ele>357.6</ele>
<time>2024-05-08T16:28:42Z</time>
</trkpt>
<trkpt lat="49.51761622913182" lon="9.3044719286263">
<ele>357.4</ele>
<time>2024-05-08T16:28:43Z</time>
</trkpt>
<trkpt lat="49.51761622913182" lon="9.304536804556848">
<ele>357.4</ele>
<time>2024-05-08T16:28:44Z</time>
</trkpt>
<trkpt lat="49.51761245727539" lon="9.304599752649665">
<ele>357.2</ele>
<time>2024-05-08T16:28:45Z</time>
</trkpt>
<trkpt lat="49.51761245727539" lon="9.304661694914104">
<ele>357.2</ele>
<time>2024-05-08T16:28:46Z</time>
</trkpt>
<trkpt lat="49.51761245727539" lon="9.30472657084465">
<ele>357.2</ele>
<time>2024-05-08T16:28:47Z</time>
</trkpt>
<trkpt lat="49.51762008480728" lon="9.304789518937469">
<ele>357.2</ele>
<time>2024-05-08T16:28:48Z</time>
</trkpt>
<trkpt lat="49.51762008480728" lon="9.304849617183208">
<ele>357.2</ele>
<time>2024-05-08T16:28:49Z</time>
</trkpt>
<trkpt lat="49.51762008480728" lon="9.304915415123103">
<ele>357.2</ele>
<time>2024-05-08T16:28:50Z</time>
</trkpt>
<trkpt lat="49.51762008480728" lon="9.304973585531116">
<ele>357.2</ele>
<time>2024-05-08T16:28:51Z</time>
</trkpt>
<trkpt lat="49.517623856663704" lon="9.305031755939126">
<ele>357.2</ele>
<time>2024-05-08T16:28:52Z</time>
</trkpt>
<trkpt lat="49.51762771233916" lon="9.305087076500058">
<ele>357.2</ele>
<time>2024-05-08T16:28:53Z</time>
</trkpt>
<trkpt lat="49.51763148419559" lon="9.305145246908069">
<ele>357.4</ele>
<time>2024-05-08T16:28:54Z</time>
</trkpt>
<trkpt lat="49.51763148419559" lon="9.30520341731608">
<ele>357.4</ele>
<time>2024-05-08T16:28:55Z</time>
</trkpt>
<trkpt lat="49.51763533987105" lon="9.30526158772409">
<ele>357.4</ele>
<time>2024-05-08T16:28:56Z</time>
</trkpt>
<trkpt lat="49.51764673925936" lon="9.3053197581321">
<ele>357.4</ele>
<time>2024-05-08T16:28:57Z</time>
</trkpt>
<trkpt lat="49.51765059493482" lon="9.30537985637784">
<ele>357.4</ele>
<time>2024-05-08T16:28:58Z</time>
</trkpt>
<trkpt lat="49.51765822246671" lon="9.305443726480007">
<ele>357.4</ele>
<time>2024-05-08T16:28:59Z</time>
</trkpt>
<trkpt lat="49.51766962185502" lon="9.305509524419904">
<ele>357.4</ele>
<time>2024-05-08T16:29:00Z</time>
</trkpt>
<trkpt lat="49.51767724938691" lon="9.305571550503371">
<ele>357.2</ele>
<time>2024-05-08T16:29:01Z</time>
</trkpt>
<trkpt lat="49.51768487691879" lon="9.305629720911384">
<ele>357.2</ele>
<time>2024-05-08T16:29:02Z</time>
</trkpt>
<trkpt lat="49.51769636012614" lon="9.305680263787508">
<ele>357</ele>
<time>2024-05-08T16:29:03Z</time>
</trkpt>
<trkpt lat="49.517700131982565" lon="9.305727956816554">
<ele>356.8</ele>
<time>2024-05-08T16:29:04Z</time>
</trkpt>
<trkpt lat="49.51771161518991" lon="9.30577372200787">
<ele>356.6</ele>
<time>2024-05-08T16:29:05Z</time>
</trkpt>
<trkpt lat="49.51771924272179" lon="9.305820409208536">
<ele>356.6</ele>
<time>2024-05-08T16:29:06Z</time>
</trkpt>
<trkpt lat="49.51773064211011" lon="9.30587195791304">
<ele>356.4</ele>
<time>2024-05-08T16:29:07Z</time>
</trkpt>
<trkpt lat="49.517738269641995" lon="9.305925350636244">
<ele>356.4</ele>
<time>2024-05-08T16:29:08Z</time>
</trkpt>
<trkpt lat="49.51774975284934" lon="9.305978743359448">
<ele>356.2</ele>
<time>2024-05-08T16:29:09Z</time>
</trkpt>
<trkpt lat="49.51775738038123" lon="9.306028364226222">
<ele>356</ele>
<time>2024-05-08T16:29:10Z</time>
</trkpt>
<trkpt lat="49.51776500791311" lon="9.306086534634233">
<ele>355.8</ele>
<time>2024-05-08T16:29:11Z</time>
</trkpt>
<trkpt lat="49.517772635445" lon="9.306141771376131">
<ele>355.8</ele>
<time>2024-05-08T16:29:12Z</time>
</trkpt>
<trkpt lat="49.517784118652344" lon="9.306200025603175">
<ele>355.6</ele>
<time>2024-05-08T16:29:13Z</time>
</trkpt>
<trkpt lat="49.51779937371611" lon="9.306261967867613">
<ele>355.6</ele>
<time>2024-05-08T16:29:14Z</time>
</trkpt>
<trkpt lat="49.51781077310443" lon="9.306322988122702">
<ele>355.4</ele>
<time>2024-05-08T16:29:15Z</time>
</trkpt>
<trkpt lat="49.5178260281682" lon="9.306391635909677">
<ele>355.4</ele>
<time>2024-05-08T16:29:16Z</time>
</trkpt>
<trkpt lat="49.51783751137555" lon="9.30646321736276">
<ele>355.2</ele>
<time>2024-05-08T16:29:17Z</time>
</trkpt>
<trkpt lat="49.51785276643932" lon="9.306534714996817">
<ele>355.2</ele>
<time>2024-05-08T16:29:18Z</time>
</trkpt>
<trkpt lat="49.51786802150309" lon="9.30660529062152">
<ele>355.2</ele>
<time>2024-05-08T16:29:19Z</time>
</trkpt>
<trkpt lat="49.51788327656686" lon="9.306674944236876">
<ele>355.2</ele>
<time>2024-05-08T16:29:20Z</time>
</trkpt>
<trkpt lat="49.517898531630635" lon="9.306744514033198">
<ele>355</ele>
<time>2024-05-08T16:29:21Z</time>
</trkpt>
<trkpt lat="49.51791378669441" lon="9.306811317801476">
<ele>355</ele>
<time>2024-05-08T16:29:22Z</time>
</trkpt>
<trkpt lat="49.51793281361461" lon="9.306875187903644">
<ele>354.8</ele>
<time>2024-05-08T16:29:23Z</time>
</trkpt>
<trkpt lat="49.51794806867838" lon="9.306941907852888">
<ele>354.8</ele>
<time>2024-05-08T16:29:24Z</time>
</trkpt>
<trkpt lat="49.51796340756118" lon="9.307015417143704">
<ele>354.8</ele>
<time>2024-05-08T16:29:25Z</time>
</trkpt>
<trkpt lat="49.517974806949496" lon="9.3070812150836">
<ele>354.6</ele>
<time>2024-05-08T16:29:26Z</time>
</trkpt>
<trkpt lat="49.51799006201327" lon="9.307147013023496">
<ele>354.4</ele>
<time>2024-05-08T16:29:27Z</time>
</trkpt>
<trkpt lat="49.51800531707704" lon="9.30721658281982">
<ele>354.4</ele>
<time>2024-05-08T16:29:28Z</time>
</trkpt>
<trkpt lat="49.51802442781627" lon="9.307285230606794">
<ele>354.2</ele>
<time>2024-05-08T16:29:29Z</time>
</trkpt>
<trkpt lat="49.51803968288005" lon="9.30735295638442">
<ele>354</ele>
<time>2024-05-08T16:29:30Z</time>
</trkpt>
<trkpt lat="49.518054937943816" lon="9.307423532009125">
<ele>353.8</ele>
<time>2024-05-08T16:29:31Z</time>
</trkpt>
<trkpt lat="49.51807019300759" lon="9.30749511346221">
<ele>353.6</ele>
<time>2024-05-08T16:29:32Z</time>
</trkpt>
<trkpt lat="49.51808544807136" lon="9.30757138878107">
<ele>353.4</ele>
<time>2024-05-08T16:29:33Z</time>
</trkpt>
<trkpt lat="49.51810070313513" lon="9.307644814252852">
<ele>353.2</ele>
<time>2024-05-08T16:29:34Z</time>
</trkpt>
<trkpt lat="49.518115958198905" lon="9.3077096901834">
<ele>353</ele>
<time>2024-05-08T16:29:35Z</time>
</trkpt>
<trkpt lat="49.51813121326268" lon="9.307776410132648">
<ele>352.8</ele>
<time>2024-05-08T16:29:36Z</time>
</trkpt>
<trkpt lat="49.51814269647002" lon="9.307843130081892">
<ele>352.6</ele>
<time>2024-05-08T16:29:37Z</time>
</trkpt>
<trkpt lat="49.518154095858335" lon="9.30790993385017">
<ele>352.6</ele>
<time>2024-05-08T16:29:38Z</time>
</trkpt>
<trkpt lat="49.51817320659757" lon="9.307971876114609">
<ele>352.4</ele>
<time>2024-05-08T16:29:39Z</time>
</trkpt>
<trkpt lat="49.51818846166134" lon="9.308030046522616">
<ele>352.2</ele>
<time>2024-05-08T16:29:40Z</time>
</trkpt>
<trkpt lat="49.51820748858154" lon="9.308092994615436">
<ele>352</ele>
<time>2024-05-08T16:29:41Z</time>
</trkpt>
<trkpt lat="49.51822659932077" lon="9.308157870545983">
<ele>352</ele>
<time>2024-05-08T16:29:42Z</time>
</trkpt>
<trkpt lat="49.51824562624097" lon="9.30822366848588">
<ele>351.8</ele>
<time>2024-05-08T16:29:43Z</time>
</trkpt>
<trkpt lat="49.518272364512086" lon="9.308286616578698">
<ele>351.6</ele>
<time>2024-05-08T16:29:44Z</time>
</trkpt>
<trkpt lat="49.518291391432285" lon="9.308348642662168">
<ele>351.4</ele>
<time>2024-05-08T16:29:45Z</time>
</trkpt>
<trkpt lat="49.5183181297034" lon="9.308409662917256">
<ele>351.2</ele>
<time>2024-05-08T16:29:46Z</time>
</trkpt>
<trkpt lat="49.51834101229906" lon="9.308467833325269">
<ele>351</ele>
<time>2024-05-08T16:29:47Z</time>
</trkpt>
<trkpt lat="49.51836012303829" lon="9.308525081723928">
<ele>350.8</ele>
<time>2024-05-08T16:29:48Z</time>
</trkpt>
<trkpt lat="49.51838300563395" lon="9.308578474447131">
<ele>350.8</ele>
<time>2024-05-08T16:29:49Z</time>
</trkpt>
<trkpt lat="49.51839826069772" lon="9.30863949470222">
<ele>350.6</ele>
<time>2024-05-08T16:29:50Z</time>
</trkpt>
<trkpt lat="49.51841728761792" lon="9.308696743100882">
<ele>350.6</ele>
<time>2024-05-08T16:29:51Z</time>
</trkpt>
<trkpt lat="49.51844017021358" lon="9.308752985671164">
<ele>350.6</ele>
<time>2024-05-08T16:29:52Z</time>
</trkpt>
<trkpt lat="49.51846305280924" lon="9.308813083916904">
<ele>350.6</ele>
<time>2024-05-08T16:29:53Z</time>
</trkpt>
<trkpt lat="49.51848601922393" lon="9.308871254324911">
<ele>350.6</ele>
<time>2024-05-08T16:29:54Z</time>
</trkpt>
<trkpt lat="49.51850504614413" lon="9.308926574885843">
<ele>350.4</ele>
<time>2024-05-08T16:29:55Z</time>
</trkpt>
<trkpt lat="49.51852415688336" lon="9.308982817456126">
<ele>350.4</ele>
<time>2024-05-08T16:29:56Z</time>
</trkpt>
<trkpt lat="49.51854318380356" lon="9.309038138017058">
<ele>350.2</ele>
<time>2024-05-08T16:29:57Z</time>
</trkpt>
<trkpt lat="49.51855843886733" lon="9.309088680893185">
<ele>350</ele>
<time>2024-05-08T16:29:58Z</time>
</trkpt>
<trkpt lat="49.51856992207467" lon="9.309136373922229">
<ele>350</ele>
<time>2024-05-08T16:29:59Z</time>
</trkpt>
<trkpt lat="49.51858132146299" lon="9.309180211275816">
<ele>349.8</ele>
<time>2024-05-08T16:30:00Z</time>
</trkpt>
<trkpt lat="49.518592804670334" lon="9.309221198782325">
<ele>349.6</ele>
<time>2024-05-08T16:30:01Z</time>
</trkpt>
<trkpt lat="49.51860420405865" lon="9.309261264279485">
<ele>349.4</ele>
<time>2024-05-08T16:30:02Z</time>
</trkpt>
<trkpt lat="49.51861568726599" lon="9.309300407767296">
<ele>349.4</ele>
<time>2024-05-08T16:30:03Z</time>
</trkpt>
<trkpt lat="49.51861568726599" lon="9.309334689751267">
<ele>349.4</ele>
<time>2024-05-08T16:30:04Z</time>
</trkpt>
<trkpt lat="49.51861183159053" lon="9.309366205707192">
<ele>349.2</ele>
<time>2024-05-08T16:30:05Z</time>
</trkpt>
<trkpt lat="49.51861183159053" lon="9.309394787997007">
<ele>349.2</ele>
<time>2024-05-08T16:30:06Z</time>
</trkpt>
<trkpt lat="49.518608059734106" lon="9.309416748583317">
<ele>349.2</ele>
<time>2024-05-08T16:30:07Z</time>
</trkpt>
<trkpt lat="49.51860420405865" lon="9.309432925656438">
<ele>349.2</ele>
<time>2024-05-08T16:30:08Z</time>
</trkpt>
<trkpt lat="49.518608059734106" lon="9.309436781331897">
<ele>349.2</ele>
<time>2024-05-08T16:30:09Z</time>
</trkpt>
<trkpt lat="49.51860420405865" lon="9.309436781331897">
<ele>349.2</ele>
<time>2024-05-08T16:30:10Z</time>
</trkpt>
<trkpt lat="49.51860420405865" lon="9.309434853494167">
<ele>349.2</ele>
<time>2024-05-08T16:30:13Z</time>
</trkpt>
<trkpt lat="49.51860420405865" lon="9.309436781331897">
<ele>349</ele>
<time>2024-05-08T16:30:14Z</time>
</trkpt>
<trkpt lat="49.51860043220222" lon="9.309434853494167">
<ele>349</ele>
<time>2024-05-08T16:30:15Z</time>
</trkpt>
<trkpt lat="49.51859657652676" lon="9.309445330873132">
<ele>349</ele>
<time>2024-05-08T16:30:16Z</time>
</trkpt>
<trkpt lat="49.518592804670334" lon="9.30946628563106">
<ele>348.8</ele>
<time>2024-05-08T16:30:17Z</time>
</trkpt>
<trkpt lat="49.518588948994875" lon="9.309505429118872">
<ele>348.8</ele>
<time>2024-05-08T16:30:18Z</time>
</trkpt>
<trkpt lat="49.51858517713845" lon="9.30954834446311">
<ele>348.8</ele>
<time>2024-05-08T16:30:20Z</time>
</trkpt>
<trkpt lat="49.518588948994875" lon="9.309599809348583">
<ele>348.8</ele>
<time>2024-05-08T16:30:21Z</time>
</trkpt>
<trkpt lat="49.51860043220222" lon="9.309728555381298">
<ele>348.6</ele>
<time>2024-05-08T16:30:22Z</time>
</trkpt>
<trkpt lat="49.51860420405865" lon="9.309798208996654">
<ele>348.4</ele>
<time>2024-05-08T16:30:24Z</time>
</trkpt>
<trkpt lat="49.518608059734106" lon="9.309866856783628">
<ele>348.4</ele>
<time>2024-05-08T16:30:25Z</time>
</trkpt>
<trkpt lat="49.51862331479788" lon="9.3100013025105">
<ele>348.2</ele>
<time>2024-05-08T16:30:26Z</time>
</trkpt>
<trkpt lat="49.518627086654305" lon="9.3100652564317">
<ele>348</ele>
<time>2024-05-08T16:30:27Z</time>
</trkpt>
<trkpt lat="49.51863094232976" lon="9.310128204524515">
<ele>347.8</ele>
<time>2024-05-08T16:30:28Z</time>
</trkpt>
<trkpt lat="49.51863856986165" lon="9.310194924473764">
<ele>347.8</ele>
<time>2024-05-08T16:30:29Z</time>
</trkpt>
<trkpt lat="49.51864619739354" lon="9.310261644423008">
<ele>347.6</ele>
<time>2024-05-08T16:30:30Z</time>
</trkpt>
<trkpt lat="49.51865382492542" lon="9.310326520353556">
<ele>347.4</ele>
<time>2024-05-08T16:30:31Z</time>
</trkpt>
<trkpt lat="49.51865768060088" lon="9.310386618599296">
<ele>347.4</ele>
<time>2024-05-08T16:30:32Z</time>
</trkpt>
<trkpt lat="49.51866145245731" lon="9.310446716845036">
<ele>347.2</ele>
<time>2024-05-08T16:30:33Z</time>
</trkpt>
<trkpt lat="49.518669079989195" lon="9.310504887253046">
<ele>347</ele>
<time>2024-05-08T16:30:34Z</time>
</trkpt>
<trkpt lat="49.51867670752108" lon="9.310560207813978">
<ele>346.8</ele>
<time>2024-05-08T16:30:35Z</time>
</trkpt>
<trkpt lat="49.51868056319654" lon="9.31061360053718">
<ele>346.6</ele>
<time>2024-05-08T16:30:36Z</time>
</trkpt>
<trkpt lat="49.51868433505297" lon="9.310663221403956">
<ele>346.6</ele>
<time>2024-05-08T16:30:37Z</time>
</trkpt>
<trkpt lat="49.518688190728426" lon="9.31071376428008">
<ele>346.4</ele>
<time>2024-05-08T16:30:38Z</time>
</trkpt>
<trkpt lat="49.51869196258485" lon="9.310763301327825">
<ele>346.4</ele>
<time>2024-05-08T16:30:39Z</time>
</trkpt>
<trkpt lat="49.51869959011674" lon="9.3108129221946">
<ele>346.4</ele>
<time>2024-05-08T16:30:40Z</time>
</trkpt>
<trkpt lat="49.5187034457922" lon="9.310861537232997">
<ele>346.2</ele>
<time>2024-05-08T16:30:41Z</time>
</trkpt>
<trkpt lat="49.518707217648625" lon="9.310905374586582">
<ele>346.2</ele>
<time>2024-05-08T16:30:42Z</time>
</trkpt>
<trkpt lat="49.51871107332408" lon="9.310944518074391">
<ele>346</ele>
<time>2024-05-08T16:30:43Z</time>
</trkpt>
<trkpt lat="49.51871484518051" lon="9.310981733724477">
<ele>345.8</ele>
<time>2024-05-08T16:30:44Z</time>
</trkpt>
<trkpt lat="49.51871870085597" lon="9.311015093699098">
<ele>345.8</ele>
<time>2024-05-08T16:30:45Z</time>
</trkpt>
<trkpt lat="49.5187224727124" lon="9.311043675988913">
<ele>345.6</ele>
<time>2024-05-08T16:30:46Z</time>
</trkpt>
<trkpt lat="49.51872632838786" lon="9.31107133626938">
<ele>345.4</ele>
<time>2024-05-08T16:30:47Z</time>
</trkpt>
<trkpt lat="49.51872632838786" lon="9.311101846396925">
<ele>345.2</ele>
<time>2024-05-08T16:30:48Z</time>
</trkpt>
<trkpt lat="49.51872632838786" lon="9.31113143451512">
<ele>345</ele>
<time>2024-05-08T16:30:49Z</time>
</trkpt>
<trkpt lat="49.51873010024429" lon="9.311156244948506">
<ele>344.8</ele>
<time>2024-05-08T16:30:50Z</time>
</trkpt>
<trkpt lat="49.51873010024429" lon="9.311182899400592">
<ele>344.6</ele>
<time>2024-05-08T16:30:51Z</time>
</trkpt>
<trkpt lat="49.51873395591974" lon="9.311209637671707">
<ele>344.4</ele>
<time>2024-05-08T16:30:52Z</time>
</trkpt>
<trkpt lat="49.51873395591974" lon="9.311229670420287">
<ele>344.2</ele>
<time>2024-05-08T16:30:53Z</time>
</trkpt>
<trkpt lat="49.51873395591974" lon="9.31124685332179">
<ele>344</ele>
<time>2024-05-08T16:30:54Z</time>
</trkpt>
<trkpt lat="49.51873395591974" lon="9.311262108385565">
<ele>344</ele>
<time>2024-05-08T16:30:55Z</time>
</trkpt>
<trkpt lat="49.51873772777617" lon="9.311275435611606">
<ele>343.8</ele>
<time>2024-05-08T16:30:56Z</time>
</trkpt>
<trkpt lat="49.51873772777617" lon="9.31128499098122">
<ele>343.8</ele>
<time>2024-05-08T16:30:57Z</time>
</trkpt>
<trkpt lat="49.51873772777617" lon="9.311291612684728">
<ele>343.6</ele>
<time>2024-05-08T16:30:58Z</time>
</trkpt>
<trkpt lat="49.51873772777617" lon="9.311289768666027">
<ele>343.6</ele>
<time>2024-05-08T16:31:00Z</time>
</trkpt>
<trkpt lat="49.51873772777617" lon="9.3112878408283">
<ele>343.4</ele>
<time>2024-05-08T16:31:04Z</time>
</trkpt>
<trkpt lat="49.51873772777617" lon="9.311309801414607">
<ele>343.4</ele>
<time>2024-05-08T16:31:11Z</time>
</trkpt>
<trkpt lat="49.51874158345163" lon="9.311333606019616">
<ele>343.2</ele>
<time>2024-05-08T16:31:12Z</time>
</trkpt>
<trkpt lat="49.518749210983515" lon="9.31136797182262">
<ele>343.2</ele>
<time>2024-05-08T16:31:13Z</time>
</trkpt>
<trkpt lat="49.51875298283994" lon="9.311409881338475">
<ele>343</ele>
<time>2024-05-08T16:31:14Z</time>
</trkpt>
<trkpt lat="49.5187568385154" lon="9.311472829431295">
<ele>342.8</ele>
<time>2024-05-08T16:31:15Z</time>
</trkpt>
<trkpt lat="49.5187568385154" lon="9.311532005667686">
<ele>342.8</ele>
<time>2024-05-08T16:31:16Z</time>
</trkpt>
<trkpt lat="49.5187568385154" lon="9.311590176075695">
<ele>342.6</ele>
<time>2024-05-08T16:31:17Z</time>
</trkpt>
<trkpt lat="49.51876061037183" lon="9.311651196330786">
<ele>342.4</ele>
<time>2024-05-08T16:31:18Z</time>
</trkpt>
<trkpt lat="49.518768237903714" lon="9.311713138595223">
<ele>342.2</ele>
<time>2024-05-08T16:31:19Z</time>
</trkpt>
<trkpt lat="49.518787348642945" lon="9.311771392822266">
<ele>342.2</ele>
<time>2024-05-08T16:31:20Z</time>
</trkpt>
<trkpt lat="49.51881408691406" lon="9.31182000786066">
<ele>342</ele>
<time>2024-05-08T16:31:21Z</time>
</trkpt>
<trkpt lat="49.51885222457349" lon="9.311851439997554">
<ele>341.8</ele>
<time>2024-05-08T16:31:22Z</time>
</trkpt>
<trkpt lat="49.51889798976481" lon="9.311866695061326">
<ele>341.8</ele>
<time>2024-05-08T16:31:23Z</time>
</trkpt>
<trkpt lat="49.518943754956126" lon="9.311871472746134">
<ele>341.8</ele>
<time>2024-05-08T16:31:24Z</time>
</trkpt>
<trkpt lat="49.518985748291016" lon="9.311875328421593">
<ele>341.8</ele>
<time>2024-05-08T16:31:25Z</time>
</trkpt>
<trkpt lat="49.519023885950446" lon="9.311875328421593">
<ele>341.6</ele>
<time>2024-05-08T16:31:26Z</time>
</trkpt>
<trkpt lat="49.51906202360988" lon="9.311871472746134">
<ele>341.6</ele>
<time>2024-05-08T16:31:27Z</time>
</trkpt>
<trkpt lat="49.51910016126931" lon="9.311864851042628">
<ele>341.6</ele>
<time>2024-05-08T16:31:28Z</time>
</trkpt>
<trkpt lat="49.51913829892874" lon="9.311856217682362">
<ele>341.6</ele>
<time>2024-05-08T16:31:29Z</time>
</trkpt>
<trkpt lat="49.51917643658817" lon="9.311851439997554">
<ele>341.8</ele>
<time>2024-05-08T16:31:30Z</time>
</trkpt>
<trkpt lat="49.5192145742476" lon="9.311846662312746">
<ele>341.8</ele>
<time>2024-05-08T16:31:31Z</time>
</trkpt>
<trkpt lat="49.5192489400506" lon="9.311844818294048">
<ele>341.8</ele>
<time>2024-05-08T16:31:32Z</time>
</trkpt>
<trkpt lat="49.519283222034574" lon="9.31184004060924">
<ele>342</ele>
<time>2024-05-08T16:31:33Z</time>
</trkpt>
<trkpt lat="49.519321359694" lon="9.311836184933782">
<ele>342.2</ele>
<time>2024-05-08T16:31:34Z</time>
</trkpt>
<trkpt lat="49.519359581172466" lon="9.311835262924433">
<ele>342.2</ele>
<time>2024-05-08T16:31:35Z</time>
</trkpt>
<trkpt lat="49.51939009130001" lon="9.311838112771513">
<ele>342.4</ele>
<time>2024-05-08T16:31:36Z</time>
</trkpt>
<trkpt lat="49.51942437328398" lon="9.31184004060924">
<ele>342.8</ele>
<time>2024-05-08T16:31:37Z</time>
</trkpt>
<trkpt lat="49.519458739086986" lon="9.311841884627938">
<ele>343</ele>
<time>2024-05-08T16:31:38Z</time>
</trkpt>
<trkpt lat="49.51949302107096" lon="9.31184289045632">
<ele>343.2</ele>
<time>2024-05-08T16:31:39Z</time>
</trkpt>
<trkpt lat="49.51953124254942" lon="9.311846662312746">
<ele>343.6</ele>
<time>2024-05-08T16:31:40Z</time>
</trkpt>
<trkpt lat="49.51956175267696" lon="9.311853367835283">
<ele>343.8</ele>
<time>2024-05-08T16:31:41Z</time>
</trkpt>
<trkpt lat="49.519596034660935" lon="9.311861917376518">
<ele>344</ele>
<time>2024-05-08T16:31:42Z</time>
</trkpt>
<trkpt lat="49.51963040046394" lon="9.311875328421593">
<ele>344.2</ele>
<time>2024-05-08T16:31:43Z</time>
</trkpt>
<trkpt lat="49.51966091059148" lon="9.311891505494714">
<ele>344.4</ele>
<time>2024-05-08T16:31:44Z</time>
</trkpt>
<trkpt lat="49.51969142071903" lon="9.311906760558486">
<ele>344.4</ele>
<time>2024-05-08T16:31:45Z</time>
</trkpt>
<trkpt lat="49.519718158990145" lon="9.311922015622258">
<ele>344.4</ele>
<time>2024-05-08T16:31:46Z</time>
</trkpt>
<trkpt lat="49.51974866911769" lon="9.3119353428483">
<ele>344.4</ele>
<time>2024-05-08T16:31:47Z</time>
</trkpt>
<trkpt lat="49.519775323569775" lon="9.311944898217916">
<ele>344.4</ele>
<time>2024-05-08T16:31:48Z</time>
</trkpt>
<trkpt lat="49.51979820616543" lon="9.31195537559688">
<ele>344.4</ele>
<time>2024-05-08T16:31:49Z</time>
</trkpt>
<trkpt lat="49.519813461229205" lon="9.311963003128769">
<ele>344.2</ele>
<time>2024-05-08T16:31:50Z</time>
</trkpt>
<trkpt lat="49.51983257196843" lon="9.31197540834546">
<ele>344.2</ele>
<time>2024-05-08T16:31:51Z</time>
</trkpt>
<trkpt lat="49.51985168270767" lon="9.311989741399884">
<ele>344.2</ele>
<time>2024-05-08T16:31:52Z</time>
</trkpt>
<trkpt lat="49.51987833715975" lon="9.312006924301386">
<ele>344</ele>
<time>2024-05-08T16:31:53Z</time>
</trkpt>
<trkpt lat="49.51990121975541" lon="9.312021173536776">
<ele>344</ele>
<time>2024-05-08T16:31:54Z</time>
</trkpt>
<trkpt lat="49.51992795802653" lon="9.312040284276009">
<ele>344</ele>
<time>2024-05-08T16:31:55Z</time>
</trkpt>
<trkpt lat="49.51995084062219" lon="9.312054617330432">
<ele>344</ele>
<time>2024-05-08T16:31:56Z</time>
</trkpt>
<trkpt lat="49.519973723217845" lon="9.312073644250631">
<ele>343.8</ele>
<time>2024-05-08T16:31:57Z</time>
</trkpt>
<trkpt lat="49.52000800520182" lon="9.312091749161482">
<ele>343.8</ele>
<time>2024-05-08T16:31:58Z</time>
</trkpt>
<trkpt lat="49.52004237100482" lon="9.312108010053636">
<ele>343.8</ele>
<time>2024-05-08T16:31:59Z</time>
</trkpt>
<trkpt lat="49.52007673680782" lon="9.312125192955136">
<ele>343.6</ele>
<time>2024-05-08T16:32:00Z</time>
</trkpt>
<trkpt lat="49.520111018791795" lon="9.312143297865989">
<ele>343.4</ele>
<time>2024-05-08T16:32:01Z</time>
</trkpt>
<trkpt lat="49.52014152891934" lon="9.312161402776836">
<ele>343.4</ele>
<time>2024-05-08T16:32:02Z</time>
</trkpt>
<trkpt lat="49.52017589472234" lon="9.312181435525416">
<ele>343.2</ele>
<time>2024-05-08T16:32:03Z</time>
</trkpt>
<trkpt lat="49.52020640484989" lon="9.312199540436268">
<ele>343</ele>
<time>2024-05-08T16:32:04Z</time>
</trkpt>
<trkpt lat="49.52023691497743" lon="9.312223428860309">
<ele>342.8</ele>
<time>2024-05-08T16:32:05Z</time>
</trkpt>
<trkpt lat="49.520267425104976" lon="9.312250083312392">
<ele>342.6</ele>
<time>2024-05-08T16:32:06Z</time>
</trkpt>
<trkpt lat="49.520305562764406" lon="9.312278665602207">
<ele>342.4</ele>
<time>2024-05-08T16:32:07Z</time>
</trkpt>
<trkpt lat="49.52033607289195" lon="9.312306325882671">
<ele>342.2</ele>
<time>2024-05-08T16:32:09Z</time>
</trkpt>
<trkpt lat="49.5204009488225" lon="9.312370279803872">
<ele>341.8</ele>
<time>2024-05-08T16:32:10Z</time>
</trkpt>
<trkpt lat="49.52043908648193" lon="9.312406489625571">
<ele>341.6</ele>
<time>2024-05-08T16:32:11Z</time>
</trkpt>
<trkpt lat="49.52047345228493" lon="9.312443705275657">
<ele>341.4</ele>
<time>2024-05-08T16:32:12Z</time>
</trkpt>
<trkpt lat="49.52051158994436" lon="9.312479915097356">
<ele>341.2</ele>
<time>2024-05-08T16:32:13Z</time>
</trkpt>
<trkpt lat="49.52055358327925" lon="9.312516208738089">
<ele>341</ele>
<time>2024-05-08T16:32:14Z</time>
</trkpt>
<trkpt lat="49.52059172093868" lon="9.312555268406868">
<ele>340.8</ele>
<time>2024-05-08T16:32:15Z</time>
</trkpt>
<trkpt lat="49.52062985859811" lon="9.312589634209871">
<ele>340.8</ele>
<time>2024-05-08T16:32:16Z</time>
</trkpt>
<trkpt lat="49.52067176811397" lon="9.31262676604092">
<ele>340.8</ele>
<time>2024-05-08T16:32:17Z</time>
</trkpt>
<trkpt lat="49.52071376144886" lon="9.312664903700352">
<ele>340.6</ele>
<time>2024-05-08T16:32:18Z</time>
</trkpt>
<trkpt lat="49.52074812725186" lon="9.31270689703524">
<ele>340.4</ele>
<time>2024-05-08T16:32:19Z</time>
</trkpt>
<trkpt lat="49.520786264911294" lon="9.312751740217209">
<ele>340.4</ele>
<time>2024-05-08T16:32:20Z</time>
</trkpt>
<trkpt lat="49.52082817442715" lon="9.312793649733068">
<ele>340.2</ele>
<time>2024-05-08T16:32:21Z</time>
</trkpt>
<trkpt lat="49.52086631208658" lon="9.312834721058609">
<ele>340</ele>
<time>2024-05-08T16:32:22Z</time>
</trkpt>
<trkpt lat="49.52090453356504" lon="9.312885263934731">
<ele>339.8</ele>
<time>2024-05-08T16:32:23Z</time>
</trkpt>
<trkpt lat="49.520938815549016" lon="9.312934800982475">
<ele>339.6</ele>
<time>2024-05-08T16:32:24Z</time>
</trkpt>
<trkpt lat="49.52097318135202" lon="9.3129853438586">
<ele>339.6</ele>
<time>2024-05-08T16:32:25Z</time>
</trkpt>
<trkpt lat="49.52100746333599" lon="9.31304351426661">
<ele>339.4</ele>
<time>2024-05-08T16:32:26Z</time>
</trkpt>
<trkpt lat="49.521041829138994" lon="9.313101768493652">
<ele>339.4</ele>
<time>2024-05-08T16:32:27Z</time>
</trkpt>
<trkpt lat="49.521076194942" lon="9.313150383532047">
<ele>339.2</ele>
<time>2024-05-08T16:32:28Z</time>
</trkpt>
<trkpt lat="49.52111047692597" lon="9.31320377625525">
<ele>339</ele>
<time>2024-05-08T16:32:29Z</time>
</trkpt>
<trkpt lat="49.52114098705351" lon="9.313249541446568">
<ele>338.8</ele>
<time>2024-05-08T16:32:30Z</time>
</trkpt>
<trkpt lat="49.52117149718106" lon="9.313289606943728">
<ele>338.6</ele>
<time>2024-05-08T16:32:31Z</time>
</trkpt>
<trkpt lat="49.52120586298406" lon="9.313333444297314">
<ele>338.4</ele>
<time>2024-05-08T16:32:32Z</time>
</trkpt>
<trkpt lat="49.52123260125518" lon="9.313376359641552">
<ele>338.2</ele>
<time>2024-05-08T16:32:33Z</time>
</trkpt>
<trkpt lat="49.52126311138272" lon="9.31342028081417">
<ele>338.2</ele>
<time>2024-05-08T16:32:34Z</time>
</trkpt>
<trkpt lat="49.52129362151027" lon="9.313469817861916">
<ele>338</ele>
<time>2024-05-08T16:32:35Z</time>
</trkpt>
<trkpt lat="49.52132790349424" lon="9.313523210585116">
<ele>337.8</ele>
<time>2024-05-08T16:32:36Z</time>
</trkpt>
<trkpt lat="49.52135841362178" lon="9.31357953697443">
<ele>337.6</ele>
<time>2024-05-08T16:32:37Z</time>
</trkpt>
<trkpt lat="49.5213851518929" lon="9.31363862939179">
<ele>337.4</ele>
<time>2024-05-08T16:32:38Z</time>
</trkpt>
<trkpt lat="49.52141189016402" lon="9.313690178096294">
<ele>337.2</ele>
<time>2024-05-08T16:32:39Z</time>
</trkpt>
<trkpt lat="49.5214385446161" lon="9.313737787306309">
<ele>337.2</ele>
<time>2024-05-08T16:32:40Z</time>
</trkpt>
<trkpt lat="49.52146142721176" lon="9.313784558326006">
<ele>337</ele>
<time>2024-05-08T16:32:41Z</time>
</trkpt>
<trkpt lat="49.52148430980742" lon="9.313821773976088">
<ele>336.8</ele>
<time>2024-05-08T16:32:42Z</time>
</trkpt>
<trkpt lat="49.521495793014765" lon="9.31385513395071">
<ele>336.6</ele>
<time>2024-05-08T16:32:43Z</time>
</trkpt>
<trkpt lat="49.52151104807854" lon="9.313879944384098">
<ele>336.4</ele>
<time>2024-05-08T16:32:44Z</time>
</trkpt>
<trkpt lat="49.52152244746685" lon="9.313903748989103">
<ele>336.2</ele>
<time>2024-05-08T16:32:45Z</time>
</trkpt>
<trkpt lat="49.521533930674195" lon="9.313926631584764">
<ele>336.2</ele>
<time>2024-05-08T16:32:46Z</time>
</trkpt>
<trkpt lat="49.52154155820608" lon="9.31395529769361">
<ele>336</ele>
<time>2024-05-08T16:32:47Z</time>
</trkpt>
<trkpt lat="49.52156066894531" lon="9.313981952145696">
<ele>336</ele>
<time>2024-05-08T16:32:48Z</time>
</trkpt>
<trkpt lat="49.521575924009085" lon="9.314008690416811">
<ele>335.8</ele>
<time>2024-05-08T16:32:49Z</time>
</trkpt>
<trkpt lat="49.52159495092928" lon="9.31403635069728">
<ele>335.8</ele>
<time>2024-05-08T16:32:50Z</time>
</trkpt>
<trkpt lat="49.521610205993056" lon="9.314066860824823">
<ele>335.6</ele>
<time>2024-05-08T16:32:51Z</time>
</trkpt>
<trkpt lat="49.52162931673229" lon="9.314101142808797">
<ele>335.4</ele>
<time>2024-05-08T16:32:52Z</time>
</trkpt>
<trkpt lat="49.52163694426417" lon="9.314138358458877">
<ele>335.4</ele>
<time>2024-05-08T16:32:53Z</time>
</trkpt>
<trkpt lat="49.52164834365249" lon="9.314180351793766">
<ele>335.2</ele>
<time>2024-05-08T16:32:54Z</time>
</trkpt>
<trkpt lat="49.52166359871626" lon="9.314228044822812">
<ele>335.2</ele>
<time>2024-05-08T16:32:55Z</time>
</trkpt>
<trkpt lat="49.52168270945549" lon="9.314279509708284">
<ele>335</ele>
<time>2024-05-08T16:32:56Z</time>
</trkpt>
<trkpt lat="49.52170173637569" lon="9.314326280727984">
<ele>335</ele>
<time>2024-05-08T16:32:57Z</time>
</trkpt>
<trkpt lat="49.52171699143946" lon="9.314376823604109">
<ele>335</ele>
<time>2024-05-08T16:32:58Z</time>
</trkpt>
<trkpt lat="49.521732330322266" lon="9.31442636065185">
<ele>335</ele>
<time>2024-05-08T16:32:59Z</time>
</trkpt>
<trkpt lat="49.52174758538604" lon="9.314477909356356">
<ele>335</ele>
<time>2024-05-08T16:33:00Z</time>
</trkpt>
<trkpt lat="49.52175898477435" lon="9.314531302079558">
<ele>335</ele>
<time>2024-05-08T16:33:01Z</time>
</trkpt>
<trkpt lat="49.52176661230624" lon="9.314583772793412">
<ele>335</ele>
<time>2024-05-08T16:33:02Z</time>
</trkpt>
<trkpt lat="49.52177423983812" lon="9.314633309841156">
<ele>335</ele>
<time>2024-05-08T16:33:03Z</time>
</trkpt>
<trkpt lat="49.52177423983812" lon="9.314682930707932">
<ele>335</ele>
<time>2024-05-08T16:33:04Z</time>
</trkpt>
<trkpt lat="49.52177423983812" lon="9.314733473584056">
<ele>335</ele>
<time>2024-05-08T16:33:05Z</time>
</trkpt>
<trkpt lat="49.52177423983812" lon="9.314783094450831">
<ele>335</ele>
<time>2024-05-08T16:33:06Z</time>
</trkpt>
<trkpt lat="49.52177423983812" lon="9.314825003966687">
<ele>335</ele>
<time>2024-05-08T16:33:07Z</time>
</trkpt>
<trkpt lat="49.52177809551358" lon="9.314865069463847">
<ele>334.8</ele>
<time>2024-05-08T16:33:08Z</time>
</trkpt>
<trkpt lat="49.521789494901896" lon="9.31490320712328">
<ele>334.8</ele>
<time>2024-05-08T16:33:09Z</time>
</trkpt>
<trkpt lat="49.52180474996567" lon="9.314934723079205">
<ele>334.6</ele>
<time>2024-05-08T16:33:10Z</time>
</trkpt>
<trkpt lat="49.52182000502944" lon="9.31496330536902">
<ele>334.4</ele>
<time>2024-05-08T16:33:11Z</time>
</trkpt>
<trkpt lat="49.521827632561326" lon="9.314988115802407">
<ele>334.4</ele>
<time>2024-05-08T16:33:12Z</time>
</trkpt>
<trkpt lat="49.52183526009321" lon="9.315016698092222">
<ele>334.2</ele>
<time>2024-05-08T16:33:13Z</time>
</trkpt>
<trkpt lat="49.52185437083244" lon="9.315050058066843">
<ele>334.2</ele>
<time>2024-05-08T16:33:14Z</time>
</trkpt>
<trkpt lat="49.52187339775264" lon="9.315078724175692">
<ele>334.2</ele>
<time>2024-05-08T16:33:15Z</time>
</trkpt>
<trkpt lat="49.5218962803483" lon="9.315103450790048">
<ele>334</ele>
<time>2024-05-08T16:33:16Z</time>
</trkpt>
<trkpt lat="49.52191924676299" lon="9.315118789672852">
<ele>334</ele>
<time>2024-05-08T16:33:17Z</time>
</trkpt>
<trkpt lat="49.52194212935865" lon="9.315126417204738">
<ele>334</ele>
<time>2024-05-08T16:33:18Z</time>
</trkpt>
<trkpt lat="49.52196115627885" lon="9.315126417204738">
<ele>334</ele>
<time>2024-05-08T16:33:19Z</time>
</trkpt>
<trkpt lat="49.52198403887451" lon="9.3151197116822">
<ele>333.8</ele>
<time>2024-05-08T16:33:20Z</time>
</trkpt>
<trkpt lat="49.522006921470165" lon="9.315124489367008">
<ele>333.8</ele>
<time>2024-05-08T16:33:21Z</time>
</trkpt>
<trkpt lat="49.522029804065824" lon="9.315148293972015">
<ele>333.8</ele>
<time>2024-05-08T16:33:22Z</time>
</trkpt>
<trkpt lat="49.5220450591296" lon="9.315177882090213">
<ele>333.6</ele>
<time>2024-05-08T16:33:23Z</time>
</trkpt>
<trkpt lat="49.52205654233694" lon="9.31521694175899">
<ele>333.4</ele>
<time>2024-05-08T16:33:24Z</time>
</trkpt>
<trkpt lat="49.522067941725254" lon="9.315259857103229">
<ele>333.4</ele>
<time>2024-05-08T16:33:25Z</time>
</trkpt>
<trkpt lat="49.52207565307617" lon="9.315309477970004">
<ele>333.2</ele>
<time>2024-05-08T16:33:26Z</time>
</trkpt>
<trkpt lat="49.52208328060806" lon="9.315380053594708">
<ele>333.2</ele>
<time>2024-05-08T16:33:27Z</time>
</trkpt>
<trkpt lat="49.522087052464485" lon="9.315446773543954">
<ele>333</ele>
<time>2024-05-08T16:33:28Z</time>
</trkpt>
<trkpt lat="49.52209467999637" lon="9.315511649474502">
<ele>332.8</ele>
<time>2024-05-08T16:33:29Z</time>
</trkpt>
<trkpt lat="49.52209853567183" lon="9.31557652540505">
<ele>332.6</ele>
<time>2024-05-08T16:33:30Z</time>
</trkpt>
<trkpt lat="49.52209853567183" lon="9.315647101029754">
<ele>332.4</ele>
<time>2024-05-08T16:33:31Z</time>
</trkpt>
<trkpt lat="49.52209853567183" lon="9.315716670826076">
<ele>332.2</ele>
<time>2024-05-08T16:33:32Z</time>
</trkpt>
<trkpt lat="49.52210230752826" lon="9.315786324441431">
<ele>332.2</ele>
<time>2024-05-08T16:33:33Z</time>
</trkpt>
<trkpt lat="49.52210993506014" lon="9.315853044390678">
<ele>332</ele>
<time>2024-05-08T16:33:34Z</time>
</trkpt>
<trkpt lat="49.5221137907356" lon="9.315916998311875">
<ele>332</ele>
<time>2024-05-08T16:33:35Z</time>
</trkpt>
<trkpt lat="49.52210993506014" lon="9.315981790423391">
<ele>332</ele>
<time>2024-05-08T16:33:36Z</time>
</trkpt>
<trkpt lat="49.5221137907356" lon="9.31604859419167">
<ele>331.8</ele>
<time>2024-05-08T16:33:37Z</time>
</trkpt>
<trkpt lat="49.52211756259203" lon="9.316115314140916">
<ele>331.4</ele>
<time>2024-05-08T16:33:38Z</time>
</trkpt>
<trkpt lat="49.52211756259203" lon="9.316183039918542">
<ele>331.2</ele>
<time>2024-05-08T16:33:39Z</time>
</trkpt>
<trkpt lat="49.52211756259203" lon="9.316253615543246">
<ele>331.2</ele>
<time>2024-05-08T16:33:40Z</time>
</trkpt>
<trkpt lat="49.52211756259203" lon="9.316323269158602">
<ele>331</ele>
<time>2024-05-08T16:33:41Z</time>
</trkpt>
<trkpt lat="49.52211756259203" lon="9.316391916945577">
<ele>330.6</ele>
<time>2024-05-08T16:33:42Z</time>
</trkpt>
<trkpt lat="49.5221137907356" lon="9.316459642723204">
<ele>330.4</ele>
<time>2024-05-08T16:33:43Z</time>
</trkpt>
<trkpt lat="49.52210993506014" lon="9.316532062366605">
<ele>330</ele>
<time>2024-05-08T16:33:44Z</time>
</trkpt>
<trkpt lat="49.52210616320371" lon="9.31660364381969">
<ele>329.8</ele>
<time>2024-05-08T16:33:45Z</time>
</trkpt>
<trkpt lat="49.52210230752826" lon="9.31667799130082">
<ele>329.6</ele>
<time>2024-05-08T16:33:46Z</time>
</trkpt>
<trkpt lat="49.52210230752826" lon="9.316749572753906">
<ele>329.2</ele>
<time>2024-05-08T16:33:47Z</time>
</trkpt>
<trkpt lat="49.52210616320371" lon="9.316822998225687">
<ele>329</ele>
<time>2024-05-08T16:33:48Z</time>
</trkpt>
<trkpt lat="49.52210616320371" lon="9.31689826771617">
<ele>329</ele>
<time>2024-05-08T16:33:49Z</time>
</trkpt>
<trkpt lat="49.52210993506014" lon="9.316974626854062">
<ele>328.8</ele>
<time>2024-05-08T16:33:50Z</time>
</trkpt>
<trkpt lat="49.52210993506014" lon="9.31705375202">
<ele>328.4</ele>
<time>2024-05-08T16:33:51Z</time>
</trkpt>
<trkpt lat="49.52210993506014" lon="9.317131955176592">
<ele>328.2</ele>
<time>2024-05-08T16:33:52Z</time>
</trkpt>
<trkpt lat="49.52210993506014" lon="9.317210158333182">
<ele>328</ele>
<time>2024-05-08T16:33:53Z</time>
</trkpt>
<trkpt lat="49.52210993506014" lon="9.317290289327502">
<ele>327.8</ele>
<time>2024-05-08T16:33:54Z</time>
</trkpt>
<trkpt lat="49.5221137907356" lon="9.317371342331173">
<ele>327.4</ele>
<time>2024-05-08T16:33:55Z</time>
</trkpt>
<trkpt lat="49.52210993506014" lon="9.317456167191269">
<ele>327.2</ele>
<time>2024-05-08T16:33:56Z</time>
</trkpt>
<trkpt lat="49.52210993506014" lon="9.317543003708124">
<ele>327</ele>
<time>2024-05-08T16:33:57Z</time>
</trkpt>
<trkpt lat="49.52210993506014" lon="9.317633612081409">
<ele>326.8</ele>
<time>2024-05-08T16:33:58Z</time>
</trkpt>
<trkpt lat="49.52210993506014" lon="9.317723214626312">
<ele>326.6</ele>
<time>2024-05-08T16:33:59Z</time>
</trkpt>
<trkpt lat="49.52211756259203" lon="9.317812900990248">
<ele>326.2</ele>
<time>2024-05-08T16:34:00Z</time>
</trkpt>
<trkpt lat="49.52212519012392" lon="9.317903509363532">
<ele>326</ele>
<time>2024-05-08T16:34:01Z</time>
</trkpt>
<trkpt lat="49.52213667333126" lon="9.317991184070706">
<ele>325.8</ele>
<time>2024-05-08T16:34:02Z</time>
</trkpt>
<trkpt lat="49.522148072719574" lon="9.31808179244399">
<ele>325.4</ele>
<time>2024-05-08T16:34:03Z</time>
</trkpt>
<trkpt lat="49.52217095531523" lon="9.318173406645656">
<ele>325</ele>
<time>2024-05-08T16:34:04Z</time>
</trkpt>
<trkpt lat="49.52219769358635" lon="9.318266864866018">
<ele>324.8</ele>
<time>2024-05-08T16:34:05Z</time>
</trkpt>
<trkpt lat="49.52223583124578" lon="9.318366944789886">
<ele>324.4</ele>
<time>2024-05-08T16:34:06Z</time>
</trkpt>
<trkpt lat="49.52227396890521" lon="9.318469958379865">
<ele>324</ele>
<time>2024-05-08T16:34:07Z</time>
</trkpt>
<trkpt lat="49.52231973409653" lon="9.318581521511078">
<ele>323.8</ele>
<time>2024-05-08T16:34:08Z</time>
</trkpt>
<trkpt lat="49.52236172743142" lon="9.318704567849636">
<ele>323.4</ele>
<time>2024-05-08T16:34:09Z</time>
</trkpt>
<trkpt lat="49.52241512015462" lon="9.318821830675006">
<ele>323</ele>
<time>2024-05-08T16:34:10Z</time>
</trkpt>
<trkpt lat="49.52244563028216" lon="9.318984942510724">
<ele>322.4</ele>
<time>2024-05-08T16:34:11Z</time>
</trkpt>
<trkpt lat="49.52247614040971" lon="9.319138498976828">
<ele>321.8</ele>
<time>2024-05-08T16:34:12Z</time>
</trkpt>
<trkpt lat="49.52250665053725" lon="9.31930630467832">
<ele>321.2</ele>
<time>2024-05-08T16:34:13Z</time>
</trkpt>
<trkpt lat="49.52251427806914" lon="9.319497076794503">
<ele>320.4</ele>
<time>2024-05-08T16:34:14Z</time>
</trkpt>
<trkpt lat="49.52253338880837" lon="9.319651555269957">
<ele>319.6</ele>
<time>2024-05-08T16:34:15Z</time>
</trkpt>
<trkpt lat="49.52252576127648" lon="9.31984324939549">
<ele>318.8</ele>
<time>2024-05-08T16:34:16Z</time>
</trkpt>
<trkpt lat="49.5225371606648" lon="9.320010133087637">
<ele>318</ele>
<time>2024-05-08T16:34:17Z</time>
</trkpt>
<trkpt lat="49.52254478819668" lon="9.32017802260816">
<ele>317.2</ele>
<time>2024-05-08T16:34:18Z</time>
</trkpt>
<trkpt lat="49.52255241572857" lon="9.320344906300306">
<ele>316.4</ele>
<time>2024-05-08T16:34:19Z</time>
</trkpt>
<trkpt lat="49.52259440906346" lon="9.32049460709095">
<ele>315.6</ele>
<time>2024-05-08T16:34:20Z</time>
</trkpt>
<trkpt lat="49.52259063720703" lon="9.320605248212814">
<ele>315</ele>
<time>2024-05-08T16:34:21Z</time>
</trkpt>
<trkpt lat="49.52260966412723" lon="9.320723516866565">
<ele>314.4</ele>
<time>2024-05-08T16:34:22Z</time>
</trkpt>
<trkpt lat="49.52263640239835" lon="9.320835079997778">
<ele>314</ele>
<time>2024-05-08T16:34:23Z</time>
</trkpt>
<trkpt lat="49.52265542931855" lon="9.320924682542682">
<ele>313.6</ele>
<time>2024-05-08T16:34:24Z</time>
</trkpt>
<trkpt lat="49.522682167589664" lon="9.32101151905954">
<ele>313.2</ele>
<time>2024-05-08T16:34:25Z</time>
</trkpt>
<trkpt lat="49.52270505018532" lon="9.321084944531322">
<ele>313</ele>
<time>2024-05-08T16:34:26Z</time>
</trkpt>
<trkpt lat="49.52272407710552" lon="9.32114982046187">
<ele>312.8</ele>
<time>2024-05-08T16:34:27Z</time>
</trkpt>
<trkpt lat="49.522739332169294" lon="9.321209834888576">
<ele>312.8</ele>
<time>2024-05-08T16:34:28Z</time>
</trkpt>
<trkpt lat="49.52275081537664" lon="9.321249900385736">
<ele>312.8</ele>
<time>2024-05-08T16:34:30Z</time>
</trkpt>
<trkpt lat="49.52276992611587" lon="9.321321481838822">
<ele>313</ele>
<time>2024-05-08T16:34:31Z</time>
</trkpt>
<trkpt lat="49.52278518117964" lon="9.321354841813443">
<ele>313.2</ele>
<time>2024-05-08T16:34:32Z</time>
</trkpt>
<trkpt lat="49.52279658056795" lon="9.321386273950338">
<ele>313.4</ele>
<time>2024-05-08T16:34:33Z</time>
</trkpt>
<trkpt lat="49.52281569130719" lon="9.32141963392496">
<ele>313.8</ele>
<time>2024-05-08T16:34:34Z</time>
</trkpt>
<trkpt lat="49.52283094637096" lon="9.321454921737311">
<ele>314</ele>
<time>2024-05-08T16:34:35Z</time>
</trkpt>
<trkpt lat="49.52284620143473" lon="9.321490209549664">
<ele>314.2</ele>
<time>2024-05-08T16:34:36Z</time>
</trkpt>
<trkpt lat="49.52286522835493" lon="9.321515019983051">
<ele>314.4</ele>
<time>2024-05-08T16:34:37Z</time>
</trkpt>
<trkpt lat="49.52288811095059" lon="9.32152172550559">
<ele>314.8</ele>
<time>2024-05-08T16:34:38Z</time>
</trkpt>
<trkpt lat="49.52291099354625" lon="9.321513175964355">
<ele>315</ele>
<time>2024-05-08T16:34:39Z</time>
</trkpt>
<trkpt lat="49.52293010428548" lon="9.321484509855509">
<ele>315.4</ele>
<time>2024-05-08T16:34:40Z</time>
</trkpt>
<trkpt lat="49.52295298688114" lon="9.321451149880886">
<ele>315.6</ele>
<time>2024-05-08T16:34:41Z</time>
</trkpt>
<trkpt lat="49.522975869476795" lon="9.32142156176269">
<ele>316</ele>
<time>2024-05-08T16:34:42Z</time>
</trkpt>
<trkpt lat="49.52299875207245" lon="9.321392979472876">
<ele>316.2</ele>
<time>2024-05-08T16:34:43Z</time>
</trkpt>
<trkpt lat="49.52302163466811" lon="9.321354841813443">
<ele>316.6</ele>
<time>2024-05-08T16:34:44Z</time>
</trkpt>
<trkpt lat="49.52304837293923" lon="9.321318548172712">
<ele>316.8</ele>
<time>2024-05-08T16:34:45Z</time>
</trkpt>
<trkpt lat="49.52307125553489" lon="9.321289965882896">
<ele>317</ele>
<time>2024-05-08T16:34:46Z</time>
</trkpt>
<trkpt lat="49.523094138130546" lon="9.321271860972049">
<ele>317</ele>
<time>2024-05-08T16:34:47Z</time>
</trkpt>
<trkpt lat="49.52310939319432" lon="9.321251828223469">
<ele>317</ele>
<time>2024-05-08T16:34:48Z</time>
</trkpt>
<trkpt lat="49.523132275789976" lon="9.321251828223469">
<ele>317</ele>
<time>2024-05-08T16:34:49Z</time>
</trkpt>
<trkpt lat="49.52315901406109" lon="9.321261383593082">
<ele>317</ele>
<time>2024-05-08T16:34:50Z</time>
</trkpt>
<trkpt lat="49.52317804098129" lon="9.32128326036036">
<ele>316.8</ele>
<time>2024-05-08T16:34:51Z</time>
</trkpt>
<trkpt lat="49.52319715172053" lon="9.321308070793748">
<ele>316.8</ele>
<time>2024-05-08T16:34:52Z</time>
</trkpt>
<trkpt lat="49.523212406784296" lon="9.321336736902596">
<ele>316.6</ele>
<time>2024-05-08T16:34:53Z</time>
</trkpt>
<trkpt lat="49.52322380617261" lon="9.32136146351695">
<ele>316.6</ele>
<time>2024-05-08T16:34:54Z</time>
</trkpt>
<trkpt lat="49.523235289379954" lon="9.321386273950338">
<ele>316.6</ele>
<time>2024-05-08T16:34:55Z</time>
</trkpt>
<trkpt lat="49.52324668876827" lon="9.321408234536648">
<ele>316.4</ele>
<time>2024-05-08T16:34:56Z</time>
</trkpt>
<trkpt lat="49.523254316300154" lon="9.321426339447498">
<ele>316.4</ele>
<time>2024-05-08T16:34:57Z</time>
</trkpt>
<trkpt lat="49.52326194383204" lon="9.321438744664192">
<ele>316.2</ele>
<time>2024-05-08T16:34:58Z</time>
</trkpt>
<trkpt lat="49.523273427039385" lon="9.321450227871535">
<ele>316.2</ele>
<time>2024-05-08T16:34:59Z</time>
</trkpt>
<trkpt lat="49.52328491024673" lon="9.321458777412772">
<ele>316.2</ele>
<time>2024-05-08T16:35:00Z</time>
</trkpt>
<trkpt lat="49.52328868210316" lon="9.321458777412772">
<ele>316.2</ele>
<time>2024-05-08T16:35:01Z</time>
</trkpt>
<trkpt lat="49.52328868210316" lon="9.32145969942212">
<ele>316.2</ele>
<time>2024-05-08T16:35:03Z</time>
</trkpt>
<trkpt lat="49.52328868210316" lon="9.32146162725985">
<ele>316</ele>
<time>2024-05-08T16:35:05Z</time>
</trkpt>
<trkpt lat="49.52328868210316" lon="9.321468332782388">
<ele>316</ele>
<time>2024-05-08T16:35:07Z</time>
</trkpt>
<trkpt lat="49.52328868210316" lon="9.321474954485891">
<ele>316</ele>
<time>2024-05-08T16:35:08Z</time>
</trkpt>
<trkpt lat="49.52328491024673" lon="9.32148358784616">
<ele>316</ele>
<time>2024-05-08T16:35:09Z</time>
</trkpt>
<trkpt lat="49.52328491024673" lon="9.321491215378046">
<ele>316</ele>
<time>2024-05-08T16:35:10Z</time>
</trkpt>
<trkpt lat="49.52328105457127" lon="9.321494987234471">
<ele>316</ele>
<time>2024-05-08T16:35:11Z</time>
</trkpt>
<trkpt lat="49.52328105457127" lon="9.321496915072204">
<ele>316</ele>
<time>2024-05-08T16:35:15Z</time>
</trkpt>
<trkpt lat="49.52327728271485" lon="9.321496915072204">
<ele>316</ele>
<time>2024-05-08T16:35:16Z</time>
</trkpt>
<trkpt lat="49.52327728271485" lon="9.321496915072204">
<ele>316</ele>
</trkpt>
</trkseg>
</trk>
</gpx>